<?xml version="1.0" encoding="UTF-8" standalone="no" ?>
<gpx xmlns="http://www.topografix.com/GPX/1/1" xmlns:xsi="http://www.w3.org/2001/XMLSchema-instance" xsi:schemaLocation="http://www.topografix.com/GPX/1/1 http://www.topografix.com/GPX/1/1/gpx.xsd" version="1.1" creator="VisuGPX - https://www.visugpx.com">
  <metadata>
    <name>Champs sur Tarentaine 2014 56km D 1100</name>
    <desc><![CDATA[Champs sur Tarentaine
2014-05-29
56km D 1100]]></desc>
  </metadata>
  <trk>
    <name><![CDATA[2014-05-29-01]]></name>
    <trkseg>
      <trkpt lat="45.39394" lon="2.56156">
        <ele>522.6</ele>
        <time>2014-05-29T06:28:53Z</time>
      </trkpt>
      <trkpt lat="45.39395" lon="2.56155">
        <ele>522.7</ele>
        <time>2014-05-29T06:28:54Z</time>
      </trkpt>
      <trkpt lat="45.39384" lon="2.56159">
        <ele>523.2</ele>
        <time>2014-05-29T06:32:38Z</time>
      </trkpt>
      <trkpt lat="45.39386" lon="2.56178">
        <ele>522.6</ele>
        <time>2014-05-29T06:33:49Z</time>
      </trkpt>
      <trkpt lat="45.39387" lon="2.5618">
        <ele>522.6</ele>
        <time>2014-05-29T06:33:50Z</time>
      </trkpt>
      <trkpt lat="45.39389" lon="2.56198">
        <ele>522.9</ele>
        <time>2014-05-29T06:33:55Z</time>
      </trkpt>
      <trkpt lat="45.39393" lon="2.56206">
        <ele>523.2</ele>
        <time>2014-05-29T06:33:57Z</time>
      </trkpt>
      <trkpt lat="45.394" lon="2.56213">
        <ele>523.4</ele>
        <time>2014-05-29T06:34:00Z</time>
      </trkpt>
      <trkpt lat="45.39398" lon="2.56225">
        <ele>524.4</ele>
        <time>2014-05-29T06:34:32Z</time>
      </trkpt>
      <trkpt lat="45.39406" lon="2.56229">
        <ele>524.5</ele>
        <time>2014-05-29T06:35:27Z</time>
      </trkpt>
      <trkpt lat="45.39407" lon="2.56229">
        <ele>524.5</ele>
        <time>2014-05-29T06:35:28Z</time>
      </trkpt>
      <trkpt lat="45.39416" lon="2.56228">
        <ele>524.5</ele>
        <time>2014-05-29T06:40:06Z</time>
      </trkpt>
      <trkpt lat="45.3943" lon="2.56223">
        <ele>524.6</ele>
        <time>2014-05-29T06:40:18Z</time>
      </trkpt>
      <trkpt lat="45.39438" lon="2.56219">
        <ele>524.6</ele>
        <time>2014-05-29T06:40:24Z</time>
      </trkpt>
      <trkpt lat="45.3943" lon="2.56219">
        <ele>524.5</ele>
        <time>2014-05-29T06:40:41Z</time>
      </trkpt>
      <trkpt lat="45.39422" lon="2.56219">
        <ele>524.8</ele>
        <time>2014-05-29T06:40:47Z</time>
      </trkpt>
      <trkpt lat="45.39414" lon="2.56221">
        <ele>524.7</ele>
        <time>2014-05-29T06:40:53Z</time>
      </trkpt>
      <trkpt lat="45.39407" lon="2.56229">
        <ele>524.9</ele>
        <time>2014-05-29T06:40:59Z</time>
      </trkpt>
      <trkpt lat="45.39415" lon="2.56235">
        <ele>524.6</ele>
        <time>2014-05-29T06:41:10Z</time>
      </trkpt>
      <trkpt lat="45.39416" lon="2.56236">
        <ele>525.1</ele>
        <time>2014-05-29T06:41:11Z</time>
      </trkpt>
      <trkpt lat="45.39418" lon="2.56228">
        <ele>525.4</ele>
        <time>2014-05-29T06:41:43Z</time>
      </trkpt>
      <trkpt lat="45.39413" lon="2.56219">
        <ele>525.8</ele>
        <time>2014-05-29T06:42:12Z</time>
      </trkpt>
      <trkpt lat="45.39412" lon="2.56218">
        <ele>525.6</ele>
        <time>2014-05-29T06:42:13Z</time>
      </trkpt>
      <trkpt lat="45.39412" lon="2.56225">
        <ele>525.6</ele>
        <time>2014-05-29T06:43:40Z</time>
      </trkpt>
      <trkpt lat="45.39412" lon="2.56224">
        <ele>525.5</ele>
        <time>2014-05-29T06:43:41Z</time>
      </trkpt>
      <trkpt lat="45.39421" lon="2.56226">
        <ele>524.7</ele>
        <time>2014-05-29T06:50:36Z</time>
      </trkpt>
      <trkpt lat="45.39436" lon="2.56222">
        <ele>525.4</ele>
        <time>2014-05-29T06:50:45Z</time>
      </trkpt>
      <trkpt lat="45.39442" lon="2.56215">
        <ele>526.2</ele>
        <time>2014-05-29T06:50:51Z</time>
      </trkpt>
      <trkpt lat="45.39437" lon="2.56206">
        <ele>525.6</ele>
        <time>2014-05-29T06:51:47Z</time>
      </trkpt>
      <trkpt lat="45.39436" lon="2.56205">
        <ele>525.6</ele>
        <time>2014-05-29T06:51:48Z</time>
      </trkpt>
      <trkpt lat="45.39425" lon="2.56212">
        <ele>524.8</ele>
        <time>2014-05-29T06:52:19Z</time>
      </trkpt>
      <trkpt lat="45.39417" lon="2.56208">
        <ele>524.9</ele>
        <time>2014-05-29T06:52:52Z</time>
      </trkpt>
      <trkpt lat="45.39417" lon="2.56208">
        <ele>525</ele>
        <time>2014-05-29T06:52:53Z</time>
      </trkpt>
      <trkpt lat="45.39427" lon="2.56193">
        <ele>526.1</ele>
        <time>2014-05-29T06:54:47Z</time>
      </trkpt>
      <trkpt lat="45.39427" lon="2.56193">
        <ele>526</ele>
        <time>2014-05-29T06:54:48Z</time>
      </trkpt>
      <trkpt lat="45.39436" lon="2.5619">
        <ele>525.7</ele>
        <time>2014-05-29T06:56:34Z</time>
      </trkpt>
      <trkpt lat="45.39449" lon="2.56184">
        <ele>524.8</ele>
        <time>2014-05-29T06:59:56Z</time>
      </trkpt>
      <trkpt lat="45.39449" lon="2.56184">
        <ele>524.7</ele>
        <time>2014-05-29T06:59:57Z</time>
      </trkpt>
      <trkpt lat="45.39458" lon="2.5619">
        <ele>525.3</ele>
        <time>2014-05-29T07:01:37Z</time>
      </trkpt>
      <trkpt lat="45.39469" lon="2.56183">
        <ele>525.2</ele>
        <time>2014-05-29T07:01:42Z</time>
      </trkpt>
      <trkpt lat="45.39476" lon="2.56179">
        <ele>525.9</ele>
        <time>2014-05-29T07:01:45Z</time>
      </trkpt>
      <trkpt lat="45.39484" lon="2.56174">
        <ele>526</ele>
        <time>2014-05-29T07:01:48Z</time>
      </trkpt>
      <trkpt lat="45.39491" lon="2.5617">
        <ele>525.5</ele>
        <time>2014-05-29T07:01:51Z</time>
      </trkpt>
      <trkpt lat="45.39498" lon="2.56168">
        <ele>526</ele>
        <time>2014-05-29T07:01:54Z</time>
      </trkpt>
      <trkpt lat="45.39505" lon="2.56169">
        <ele>526.5</ele>
        <time>2014-05-29T07:01:57Z</time>
      </trkpt>
      <trkpt lat="45.39513" lon="2.56171">
        <ele>526.7</ele>
        <time>2014-05-29T07:02:00Z</time>
      </trkpt>
      <trkpt lat="45.39521" lon="2.56173">
        <ele>526.6</ele>
        <time>2014-05-29T07:02:03Z</time>
      </trkpt>
      <trkpt lat="45.39528" lon="2.56172">
        <ele>527.1</ele>
        <time>2014-05-29T07:02:06Z</time>
      </trkpt>
      <trkpt lat="45.39535" lon="2.56168">
        <ele>527.2</ele>
        <time>2014-05-29T07:02:09Z</time>
      </trkpt>
      <trkpt lat="45.39543" lon="2.56168">
        <ele>527</ele>
        <time>2014-05-29T07:02:12Z</time>
      </trkpt>
      <trkpt lat="45.39551" lon="2.56168">
        <ele>527.3</ele>
        <time>2014-05-29T07:02:15Z</time>
      </trkpt>
      <trkpt lat="45.39556" lon="2.56162">
        <ele>527.2</ele>
        <time>2014-05-29T07:02:18Z</time>
      </trkpt>
      <trkpt lat="45.3956" lon="2.56153">
        <ele>527.5</ele>
        <time>2014-05-29T07:02:21Z</time>
      </trkpt>
      <trkpt lat="45.39559" lon="2.56142">
        <ele>527</ele>
        <time>2014-05-29T07:02:24Z</time>
      </trkpt>
      <trkpt lat="45.39556" lon="2.56134">
        <ele>526.6</ele>
        <time>2014-05-29T07:02:26Z</time>
      </trkpt>
      <trkpt lat="45.39553" lon="2.56126">
        <ele>526.4</ele>
        <time>2014-05-29T07:02:28Z</time>
      </trkpt>
      <trkpt lat="45.39549" lon="2.56118">
        <ele>526.5</ele>
        <time>2014-05-29T07:02:30Z</time>
      </trkpt>
      <trkpt lat="45.39546" lon="2.56111">
        <ele>526.6</ele>
        <time>2014-05-29T07:02:32Z</time>
      </trkpt>
      <trkpt lat="45.39543" lon="2.56103">
        <ele>526.2</ele>
        <time>2014-05-29T07:02:34Z</time>
      </trkpt>
      <trkpt lat="45.3954" lon="2.56095">
        <ele>526.9</ele>
        <time>2014-05-29T07:02:36Z</time>
      </trkpt>
      <trkpt lat="45.39536" lon="2.56087">
        <ele>526.7</ele>
        <time>2014-05-29T07:02:38Z</time>
      </trkpt>
      <trkpt lat="45.39534" lon="2.56082">
        <ele>526.6</ele>
        <time>2014-05-29T07:02:39Z</time>
      </trkpt>
      <trkpt lat="45.39528" lon="2.56071">
        <ele>527.1</ele>
        <time>2014-05-29T07:02:42Z</time>
      </trkpt>
      <trkpt lat="45.39523" lon="2.56064">
        <ele>527.3</ele>
        <time>2014-05-29T07:02:44Z</time>
      </trkpt>
      <trkpt lat="45.39518" lon="2.56058">
        <ele>527.5</ele>
        <time>2014-05-29T07:02:46Z</time>
      </trkpt>
      <trkpt lat="45.39512" lon="2.56054">
        <ele>526.9</ele>
        <time>2014-05-29T07:02:48Z</time>
      </trkpt>
      <trkpt lat="45.39505" lon="2.56051">
        <ele>526.9</ele>
        <time>2014-05-29T07:02:50Z</time>
      </trkpt>
      <trkpt lat="45.39498" lon="2.56048">
        <ele>526.7</ele>
        <time>2014-05-29T07:02:52Z</time>
      </trkpt>
      <trkpt lat="45.3949" lon="2.56045">
        <ele>526.7</ele>
        <time>2014-05-29T07:02:54Z</time>
      </trkpt>
      <trkpt lat="45.39482" lon="2.56041">
        <ele>526.5</ele>
        <time>2014-05-29T07:02:56Z</time>
      </trkpt>
      <trkpt lat="45.39474" lon="2.56034">
        <ele>526.1</ele>
        <time>2014-05-29T07:02:58Z</time>
      </trkpt>
      <trkpt lat="45.39468" lon="2.56025">
        <ele>526.3</ele>
        <time>2014-05-29T07:03:00Z</time>
      </trkpt>
      <trkpt lat="45.39466" lon="2.5602">
        <ele>526.1</ele>
        <time>2014-05-29T07:03:01Z</time>
      </trkpt>
      <trkpt lat="45.39464" lon="2.56014">
        <ele>525.9</ele>
        <time>2014-05-29T07:03:02Z</time>
      </trkpt>
      <trkpt lat="45.39462" lon="2.56008">
        <ele>526.1</ele>
        <time>2014-05-29T07:03:03Z</time>
      </trkpt>
      <trkpt lat="45.39461" lon="2.56002">
        <ele>526.2</ele>
        <time>2014-05-29T07:03:04Z</time>
      </trkpt>
      <trkpt lat="45.3946" lon="2.55996">
        <ele>526.3</ele>
        <time>2014-05-29T07:03:05Z</time>
      </trkpt>
      <trkpt lat="45.39459" lon="2.55989">
        <ele>526.2</ele>
        <time>2014-05-29T07:03:06Z</time>
      </trkpt>
      <trkpt lat="45.39458" lon="2.55983">
        <ele>526.2</ele>
        <time>2014-05-29T07:03:07Z</time>
      </trkpt>
      <trkpt lat="45.39457" lon="2.55976">
        <ele>526</ele>
        <time>2014-05-29T07:03:08Z</time>
      </trkpt>
      <trkpt lat="45.39456" lon="2.55964">
        <ele>525.8</ele>
        <time>2014-05-29T07:03:10Z</time>
      </trkpt>
      <trkpt lat="45.39455" lon="2.55957">
        <ele>525.9</ele>
        <time>2014-05-29T07:03:11Z</time>
      </trkpt>
      <trkpt lat="45.39454" lon="2.55951">
        <ele>526</ele>
        <time>2014-05-29T07:03:12Z</time>
      </trkpt>
      <trkpt lat="45.39453" lon="2.55944">
        <ele>526.1</ele>
        <time>2014-05-29T07:03:13Z</time>
      </trkpt>
      <trkpt lat="45.39452" lon="2.55938">
        <ele>526.2</ele>
        <time>2014-05-29T07:03:14Z</time>
      </trkpt>
      <trkpt lat="45.39452" lon="2.55931">
        <ele>526</ele>
        <time>2014-05-29T07:03:15Z</time>
      </trkpt>
      <trkpt lat="45.39451" lon="2.55925">
        <ele>525.8</ele>
        <time>2014-05-29T07:03:16Z</time>
      </trkpt>
      <trkpt lat="45.3945" lon="2.55918">
        <ele>525.7</ele>
        <time>2014-05-29T07:03:17Z</time>
      </trkpt>
      <trkpt lat="45.39449" lon="2.55911">
        <ele>526</ele>
        <time>2014-05-29T07:03:18Z</time>
      </trkpt>
      <trkpt lat="45.39449" lon="2.55905">
        <ele>526.1</ele>
        <time>2014-05-29T07:03:19Z</time>
      </trkpt>
      <trkpt lat="45.39448" lon="2.55898">
        <ele>526.3</ele>
        <time>2014-05-29T07:03:20Z</time>
      </trkpt>
      <trkpt lat="45.39447" lon="2.55891">
        <ele>526.4</ele>
        <time>2014-05-29T07:03:21Z</time>
      </trkpt>
      <trkpt lat="45.39446" lon="2.55885">
        <ele>525.9</ele>
        <time>2014-05-29T07:03:22Z</time>
      </trkpt>
      <trkpt lat="45.39445" lon="2.55878">
        <ele>525.5</ele>
        <time>2014-05-29T07:03:23Z</time>
      </trkpt>
      <trkpt lat="45.39444" lon="2.55871">
        <ele>525.2</ele>
        <time>2014-05-29T07:03:24Z</time>
      </trkpt>
      <trkpt lat="45.39443" lon="2.55865">
        <ele>525.5</ele>
        <time>2014-05-29T07:03:25Z</time>
      </trkpt>
      <trkpt lat="45.39442" lon="2.55859">
        <ele>525.7</ele>
        <time>2014-05-29T07:03:26Z</time>
      </trkpt>
      <trkpt lat="45.39441" lon="2.55852">
        <ele>525.8</ele>
        <time>2014-05-29T07:03:27Z</time>
      </trkpt>
      <trkpt lat="45.39441" lon="2.55845">
        <ele>525.8</ele>
        <time>2014-05-29T07:03:28Z</time>
      </trkpt>
      <trkpt lat="45.3944" lon="2.55838">
        <ele>525.8</ele>
        <time>2014-05-29T07:03:29Z</time>
      </trkpt>
      <trkpt lat="45.39439" lon="2.55831">
        <ele>525.8</ele>
        <time>2014-05-29T07:03:30Z</time>
      </trkpt>
      <trkpt lat="45.39438" lon="2.55824">
        <ele>525.7</ele>
        <time>2014-05-29T07:03:31Z</time>
      </trkpt>
      <trkpt lat="45.39438" lon="2.55816">
        <ele>525.9</ele>
        <time>2014-05-29T07:03:32Z</time>
      </trkpt>
      <trkpt lat="45.39437" lon="2.55809">
        <ele>526.1</ele>
        <time>2014-05-29T07:03:33Z</time>
      </trkpt>
      <trkpt lat="45.39436" lon="2.55802">
        <ele>525.8</ele>
        <time>2014-05-29T07:03:34Z</time>
      </trkpt>
      <trkpt lat="45.39435" lon="2.55794">
        <ele>525.7</ele>
        <time>2014-05-29T07:03:35Z</time>
      </trkpt>
      <trkpt lat="45.39435" lon="2.55787">
        <ele>525.6</ele>
        <time>2014-05-29T07:03:36Z</time>
      </trkpt>
      <trkpt lat="45.39434" lon="2.5578">
        <ele>525.1</ele>
        <time>2014-05-29T07:03:37Z</time>
      </trkpt>
      <trkpt lat="45.39433" lon="2.55772">
        <ele>524.8</ele>
        <time>2014-05-29T07:03:38Z</time>
      </trkpt>
      <trkpt lat="45.39432" lon="2.55765">
        <ele>525</ele>
        <time>2014-05-29T07:03:39Z</time>
      </trkpt>
      <trkpt lat="45.39432" lon="2.55757">
        <ele>525.1</ele>
        <time>2014-05-29T07:03:40Z</time>
      </trkpt>
      <trkpt lat="45.39431" lon="2.5575">
        <ele>525.2</ele>
        <time>2014-05-29T07:03:41Z</time>
      </trkpt>
      <trkpt lat="45.3943" lon="2.55742">
        <ele>525.3</ele>
        <time>2014-05-29T07:03:42Z</time>
      </trkpt>
      <trkpt lat="45.39429" lon="2.55734">
        <ele>525.4</ele>
        <time>2014-05-29T07:03:43Z</time>
      </trkpt>
      <trkpt lat="45.39428" lon="2.55726">
        <ele>524.9</ele>
        <time>2014-05-29T07:03:44Z</time>
      </trkpt>
      <trkpt lat="45.39427" lon="2.55718">
        <ele>524.6</ele>
        <time>2014-05-29T07:03:45Z</time>
      </trkpt>
      <trkpt lat="45.39426" lon="2.5571">
        <ele>524.3</ele>
        <time>2014-05-29T07:03:46Z</time>
      </trkpt>
      <trkpt lat="45.39425" lon="2.55702">
        <ele>524.1</ele>
        <time>2014-05-29T07:03:47Z</time>
      </trkpt>
      <trkpt lat="45.39424" lon="2.55694">
        <ele>524.1</ele>
        <time>2014-05-29T07:03:48Z</time>
      </trkpt>
      <trkpt lat="45.39423" lon="2.55685">
        <ele>524.1</ele>
        <time>2014-05-29T07:03:49Z</time>
      </trkpt>
      <trkpt lat="45.39422" lon="2.55677">
        <ele>524.2</ele>
        <time>2014-05-29T07:03:50Z</time>
      </trkpt>
      <trkpt lat="45.39421" lon="2.55669">
        <ele>523.9</ele>
        <time>2014-05-29T07:03:51Z</time>
      </trkpt>
      <trkpt lat="45.3942" lon="2.55661">
        <ele>523.7</ele>
        <time>2014-05-29T07:03:52Z</time>
      </trkpt>
      <trkpt lat="45.39419" lon="2.55654">
        <ele>523.7</ele>
        <time>2014-05-29T07:03:53Z</time>
      </trkpt>
      <trkpt lat="45.39418" lon="2.55645">
        <ele>523.7</ele>
        <time>2014-05-29T07:03:54Z</time>
      </trkpt>
      <trkpt lat="45.39417" lon="2.55636">
        <ele>523.7</ele>
        <time>2014-05-29T07:03:55Z</time>
      </trkpt>
      <trkpt lat="45.39416" lon="2.55628">
        <ele>523.7</ele>
        <time>2014-05-29T07:03:56Z</time>
      </trkpt>
      <trkpt lat="45.39415" lon="2.55619">
        <ele>523.7</ele>
        <time>2014-05-29T07:03:57Z</time>
      </trkpt>
      <trkpt lat="45.39414" lon="2.55609">
        <ele>523.9</ele>
        <time>2014-05-29T07:03:58Z</time>
      </trkpt>
      <trkpt lat="45.39412" lon="2.55599">
        <ele>524</ele>
        <time>2014-05-29T07:03:59Z</time>
      </trkpt>
      <trkpt lat="45.39411" lon="2.55589">
        <ele>523.5</ele>
        <time>2014-05-29T07:04:00Z</time>
      </trkpt>
      <trkpt lat="45.3941" lon="2.55579">
        <ele>523.2</ele>
        <time>2014-05-29T07:04:01Z</time>
      </trkpt>
      <trkpt lat="45.39408" lon="2.55569">
        <ele>522.9</ele>
        <time>2014-05-29T07:04:02Z</time>
      </trkpt>
      <trkpt lat="45.39407" lon="2.55558">
        <ele>522.4</ele>
        <time>2014-05-29T07:04:03Z</time>
      </trkpt>
      <trkpt lat="45.39405" lon="2.55548">
        <ele>522</ele>
        <time>2014-05-29T07:04:04Z</time>
      </trkpt>
      <trkpt lat="45.39404" lon="2.55538">
        <ele>522.1</ele>
        <time>2014-05-29T07:04:05Z</time>
      </trkpt>
      <trkpt lat="45.39402" lon="2.55527">
        <ele>522.2</ele>
        <time>2014-05-29T07:04:06Z</time>
      </trkpt>
      <trkpt lat="45.39401" lon="2.55516">
        <ele>521.8</ele>
        <time>2014-05-29T07:04:07Z</time>
      </trkpt>
      <trkpt lat="45.39399" lon="2.55505">
        <ele>521.6</ele>
        <time>2014-05-29T07:04:08Z</time>
      </trkpt>
      <trkpt lat="45.39398" lon="2.55493">
        <ele>521.4</ele>
        <time>2014-05-29T07:04:09Z</time>
      </trkpt>
      <trkpt lat="45.39396" lon="2.55482">
        <ele>521.9</ele>
        <time>2014-05-29T07:04:10Z</time>
      </trkpt>
      <trkpt lat="45.39395" lon="2.5547">
        <ele>522.2</ele>
        <time>2014-05-29T07:04:11Z</time>
      </trkpt>
      <trkpt lat="45.39393" lon="2.55458">
        <ele>522.1</ele>
        <time>2014-05-29T07:04:12Z</time>
      </trkpt>
      <trkpt lat="45.3939" lon="2.55446">
        <ele>522</ele>
        <time>2014-05-29T07:04:13Z</time>
      </trkpt>
      <trkpt lat="45.39388" lon="2.55435">
        <ele>522</ele>
        <time>2014-05-29T07:04:14Z</time>
      </trkpt>
      <trkpt lat="45.39384" lon="2.55425">
        <ele>522.2</ele>
        <time>2014-05-29T07:04:15Z</time>
      </trkpt>
      <trkpt lat="45.39382" lon="2.55415">
        <ele>522.4</ele>
        <time>2014-05-29T07:04:16Z</time>
      </trkpt>
      <trkpt lat="45.39379" lon="2.55406">
        <ele>522.3</ele>
        <time>2014-05-29T07:04:17Z</time>
      </trkpt>
      <trkpt lat="45.39377" lon="2.55396">
        <ele>522.3</ele>
        <time>2014-05-29T07:04:18Z</time>
      </trkpt>
      <trkpt lat="45.39374" lon="2.55387">
        <ele>522.5</ele>
        <time>2014-05-29T07:04:19Z</time>
      </trkpt>
      <trkpt lat="45.39372" lon="2.55378">
        <ele>522.7</ele>
        <time>2014-05-29T07:04:20Z</time>
      </trkpt>
      <trkpt lat="45.3937" lon="2.55369">
        <ele>522.8</ele>
        <time>2014-05-29T07:04:21Z</time>
      </trkpt>
      <trkpt lat="45.39369" lon="2.55359">
        <ele>522.6</ele>
        <time>2014-05-29T07:04:22Z</time>
      </trkpt>
      <trkpt lat="45.39368" lon="2.5535">
        <ele>522.5</ele>
        <time>2014-05-29T07:04:23Z</time>
      </trkpt>
      <trkpt lat="45.39366" lon="2.55341">
        <ele>522.5</ele>
        <time>2014-05-29T07:04:24Z</time>
      </trkpt>
      <trkpt lat="45.39366" lon="2.55332">
        <ele>522.5</ele>
        <time>2014-05-29T07:04:25Z</time>
      </trkpt>
      <trkpt lat="45.39365" lon="2.55322">
        <ele>522.5</ele>
        <time>2014-05-29T07:04:26Z</time>
      </trkpt>
      <trkpt lat="45.39364" lon="2.55313">
        <ele>522.5</ele>
        <time>2014-05-29T07:04:27Z</time>
      </trkpt>
      <trkpt lat="45.39364" lon="2.55303">
        <ele>522.5</ele>
        <time>2014-05-29T07:04:28Z</time>
      </trkpt>
      <trkpt lat="45.39364" lon="2.55293">
        <ele>522.4</ele>
        <time>2014-05-29T07:04:29Z</time>
      </trkpt>
      <trkpt lat="45.39363" lon="2.55283">
        <ele>522.3</ele>
        <time>2014-05-29T07:04:30Z</time>
      </trkpt>
      <trkpt lat="45.39363" lon="2.55272">
        <ele>522.1</ele>
        <time>2014-05-29T07:04:31Z</time>
      </trkpt>
      <trkpt lat="45.39362" lon="2.55262">
        <ele>522</ele>
        <time>2014-05-29T07:04:32Z</time>
      </trkpt>
      <trkpt lat="45.39361" lon="2.5525">
        <ele>521.9</ele>
        <time>2014-05-29T07:04:33Z</time>
      </trkpt>
      <trkpt lat="45.3936" lon="2.55239">
        <ele>521.8</ele>
        <time>2014-05-29T07:04:34Z</time>
      </trkpt>
      <trkpt lat="45.39359" lon="2.55227">
        <ele>521.7</ele>
        <time>2014-05-29T07:04:35Z</time>
      </trkpt>
      <trkpt lat="45.39358" lon="2.55216">
        <ele>521.1</ele>
        <time>2014-05-29T07:04:36Z</time>
      </trkpt>
      <trkpt lat="45.39356" lon="2.55205">
        <ele>520.7</ele>
        <time>2014-05-29T07:04:37Z</time>
      </trkpt>
      <trkpt lat="45.39354" lon="2.55195">
        <ele>521</ele>
        <time>2014-05-29T07:04:38Z</time>
      </trkpt>
      <trkpt lat="45.39351" lon="2.55185">
        <ele>521.2</ele>
        <time>2014-05-29T07:04:39Z</time>
      </trkpt>
      <trkpt lat="45.39348" lon="2.55175">
        <ele>521.3</ele>
        <time>2014-05-29T07:04:40Z</time>
      </trkpt>
      <trkpt lat="45.39345" lon="2.55166">
        <ele>521.6</ele>
        <time>2014-05-29T07:04:41Z</time>
      </trkpt>
      <trkpt lat="45.39341" lon="2.55157">
        <ele>521.9</ele>
        <time>2014-05-29T07:04:42Z</time>
      </trkpt>
      <trkpt lat="45.39338" lon="2.55148">
        <ele>522.1</ele>
        <time>2014-05-29T07:04:43Z</time>
      </trkpt>
      <trkpt lat="45.39334" lon="2.55139">
        <ele>522.3</ele>
        <time>2014-05-29T07:04:44Z</time>
      </trkpt>
      <trkpt lat="45.3933" lon="2.55131">
        <ele>522.5</ele>
        <time>2014-05-29T07:04:45Z</time>
      </trkpt>
      <trkpt lat="45.39326" lon="2.55122">
        <ele>522.1</ele>
        <time>2014-05-29T07:04:46Z</time>
      </trkpt>
      <trkpt lat="45.39322" lon="2.55113">
        <ele>521.8</ele>
        <time>2014-05-29T07:04:47Z</time>
      </trkpt>
      <trkpt lat="45.39319" lon="2.55105">
        <ele>522</ele>
        <time>2014-05-29T07:04:48Z</time>
      </trkpt>
      <trkpt lat="45.39315" lon="2.55097">
        <ele>522.1</ele>
        <time>2014-05-29T07:04:49Z</time>
      </trkpt>
      <trkpt lat="45.39311" lon="2.55089">
        <ele>521.8</ele>
        <time>2014-05-29T07:04:50Z</time>
      </trkpt>
      <trkpt lat="45.39308" lon="2.5508">
        <ele>521.5</ele>
        <time>2014-05-29T07:04:51Z</time>
      </trkpt>
      <trkpt lat="45.39305" lon="2.55072">
        <ele>521.4</ele>
        <time>2014-05-29T07:04:52Z</time>
      </trkpt>
      <trkpt lat="45.39301" lon="2.55064">
        <ele>521.4</ele>
        <time>2014-05-29T07:04:53Z</time>
      </trkpt>
      <trkpt lat="45.39298" lon="2.55055">
        <ele>521.5</ele>
        <time>2014-05-29T07:04:54Z</time>
      </trkpt>
      <trkpt lat="45.39295" lon="2.55047">
        <ele>521.7</ele>
        <time>2014-05-29T07:04:55Z</time>
      </trkpt>
      <trkpt lat="45.39292" lon="2.55039">
        <ele>521.9</ele>
        <time>2014-05-29T07:04:56Z</time>
      </trkpt>
      <trkpt lat="45.39289" lon="2.55031">
        <ele>521.5</ele>
        <time>2014-05-29T07:04:57Z</time>
      </trkpt>
      <trkpt lat="45.39286" lon="2.55024">
        <ele>521.2</ele>
        <time>2014-05-29T07:04:58Z</time>
      </trkpt>
      <trkpt lat="45.39282" lon="2.55016">
        <ele>521</ele>
        <time>2014-05-29T07:04:59Z</time>
      </trkpt>
      <trkpt lat="45.39279" lon="2.55008">
        <ele>521.3</ele>
        <time>2014-05-29T07:05:00Z</time>
      </trkpt>
      <trkpt lat="45.39276" lon="2.55001">
        <ele>521.4</ele>
        <time>2014-05-29T07:05:01Z</time>
      </trkpt>
      <trkpt lat="45.39273" lon="2.54994">
        <ele>521.5</ele>
        <time>2014-05-29T07:05:02Z</time>
      </trkpt>
      <trkpt lat="45.3927" lon="2.54987">
        <ele>521.5</ele>
        <time>2014-05-29T07:05:03Z</time>
      </trkpt>
      <trkpt lat="45.39267" lon="2.54981">
        <ele>521.7</ele>
        <time>2014-05-29T07:05:04Z</time>
      </trkpt>
      <trkpt lat="45.39263" lon="2.54975">
        <ele>521.8</ele>
        <time>2014-05-29T07:05:05Z</time>
      </trkpt>
      <trkpt lat="45.39259" lon="2.5497">
        <ele>521.9</ele>
        <time>2014-05-29T07:05:06Z</time>
      </trkpt>
      <trkpt lat="45.39254" lon="2.54966">
        <ele>521.9</ele>
        <time>2014-05-29T07:05:07Z</time>
      </trkpt>
      <trkpt lat="45.39249" lon="2.54961">
        <ele>521.9</ele>
        <time>2014-05-29T07:05:08Z</time>
      </trkpt>
      <trkpt lat="45.39242" lon="2.54955">
        <ele>522</ele>
        <time>2014-05-29T07:05:09Z</time>
      </trkpt>
      <trkpt lat="45.39235" lon="2.54948">
        <ele>522.1</ele>
        <time>2014-05-29T07:05:10Z</time>
      </trkpt>
      <trkpt lat="45.39227" lon="2.5494">
        <ele>522.1</ele>
        <time>2014-05-29T07:05:11Z</time>
      </trkpt>
      <trkpt lat="45.39218" lon="2.54932">
        <ele>521.2</ele>
        <time>2014-05-29T07:05:12Z</time>
      </trkpt>
      <trkpt lat="45.3921" lon="2.54923">
        <ele>520.6</ele>
        <time>2014-05-29T07:05:13Z</time>
      </trkpt>
      <trkpt lat="45.39202" lon="2.54916">
        <ele>520.2</ele>
        <time>2014-05-29T07:05:14Z</time>
      </trkpt>
      <trkpt lat="45.39195" lon="2.5491">
        <ele>519.9</ele>
        <time>2014-05-29T07:05:15Z</time>
      </trkpt>
      <trkpt lat="45.39187" lon="2.54905">
        <ele>519.2</ele>
        <time>2014-05-29T07:05:16Z</time>
      </trkpt>
      <trkpt lat="45.3918" lon="2.54899">
        <ele>518.7</ele>
        <time>2014-05-29T07:05:17Z</time>
      </trkpt>
      <trkpt lat="45.39173" lon="2.54892">
        <ele>518.3</ele>
        <time>2014-05-29T07:05:18Z</time>
      </trkpt>
      <trkpt lat="45.39166" lon="2.54886">
        <ele>517.2</ele>
        <time>2014-05-29T07:05:19Z</time>
      </trkpt>
      <trkpt lat="45.39159" lon="2.54879">
        <ele>516.4</ele>
        <time>2014-05-29T07:05:20Z</time>
      </trkpt>
      <trkpt lat="45.39154" lon="2.54872">
        <ele>516.2</ele>
        <time>2014-05-29T07:05:21Z</time>
      </trkpt>
      <trkpt lat="45.39148" lon="2.54864">
        <ele>516.2</ele>
        <time>2014-05-29T07:05:22Z</time>
      </trkpt>
      <trkpt lat="45.39143" lon="2.54856">
        <ele>516</ele>
        <time>2014-05-29T07:05:23Z</time>
      </trkpt>
      <trkpt lat="45.39138" lon="2.54848">
        <ele>515.8</ele>
        <time>2014-05-29T07:05:24Z</time>
      </trkpt>
      <trkpt lat="45.39133" lon="2.54839">
        <ele>515.7</ele>
        <time>2014-05-29T07:05:25Z</time>
      </trkpt>
      <trkpt lat="45.39128" lon="2.5483">
        <ele>514.9</ele>
        <time>2014-05-29T07:05:26Z</time>
      </trkpt>
      <trkpt lat="45.39123" lon="2.54822">
        <ele>514.4</ele>
        <time>2014-05-29T07:05:27Z</time>
      </trkpt>
      <trkpt lat="45.39118" lon="2.54813">
        <ele>514.1</ele>
        <time>2014-05-29T07:05:28Z</time>
      </trkpt>
      <trkpt lat="45.39113" lon="2.54805">
        <ele>514</ele>
        <time>2014-05-29T07:05:29Z</time>
      </trkpt>
      <trkpt lat="45.39108" lon="2.54796">
        <ele>513.9</ele>
        <time>2014-05-29T07:05:30Z</time>
      </trkpt>
      <trkpt lat="45.39103" lon="2.54787">
        <ele>513.4</ele>
        <time>2014-05-29T07:05:31Z</time>
      </trkpt>
      <trkpt lat="45.39098" lon="2.54778">
        <ele>513.1</ele>
        <time>2014-05-29T07:05:32Z</time>
      </trkpt>
      <trkpt lat="45.39093" lon="2.54769">
        <ele>512.8</ele>
        <time>2014-05-29T07:05:33Z</time>
      </trkpt>
      <trkpt lat="45.39088" lon="2.54759">
        <ele>512.6</ele>
        <time>2014-05-29T07:05:34Z</time>
      </trkpt>
      <trkpt lat="45.39083" lon="2.5475">
        <ele>512.7</ele>
        <time>2014-05-29T07:05:35Z</time>
      </trkpt>
      <trkpt lat="45.39079" lon="2.5474">
        <ele>512.7</ele>
        <time>2014-05-29T07:05:36Z</time>
      </trkpt>
      <trkpt lat="45.39074" lon="2.54731">
        <ele>512.8</ele>
        <time>2014-05-29T07:05:37Z</time>
      </trkpt>
      <trkpt lat="45.39068" lon="2.54722">
        <ele>512.6</ele>
        <time>2014-05-29T07:05:38Z</time>
      </trkpt>
      <trkpt lat="45.39063" lon="2.54714">
        <ele>512.4</ele>
        <time>2014-05-29T07:05:39Z</time>
      </trkpt>
      <trkpt lat="45.39057" lon="2.54705">
        <ele>512.4</ele>
        <time>2014-05-29T07:05:40Z</time>
      </trkpt>
      <trkpt lat="45.39052" lon="2.54697">
        <ele>512.3</ele>
        <time>2014-05-29T07:05:41Z</time>
      </trkpt>
      <trkpt lat="45.39046" lon="2.5469">
        <ele>512.4</ele>
        <time>2014-05-29T07:05:42Z</time>
      </trkpt>
      <trkpt lat="45.39041" lon="2.54682">
        <ele>512.4</ele>
        <time>2014-05-29T07:05:43Z</time>
      </trkpt>
      <trkpt lat="45.39035" lon="2.54677">
        <ele>512.4</ele>
        <time>2014-05-29T07:05:44Z</time>
      </trkpt>
      <trkpt lat="45.3903" lon="2.54672">
        <ele>512.3</ele>
        <time>2014-05-29T07:05:45Z</time>
      </trkpt>
      <trkpt lat="45.39025" lon="2.54665">
        <ele>512.1</ele>
        <time>2014-05-29T07:05:46Z</time>
      </trkpt>
      <trkpt lat="45.3902" lon="2.54657">
        <ele>511.9</ele>
        <time>2014-05-29T07:05:47Z</time>
      </trkpt>
      <trkpt lat="45.39014" lon="2.54651">
        <ele>511.7</ele>
        <time>2014-05-29T07:05:48Z</time>
      </trkpt>
      <trkpt lat="45.39009" lon="2.54645">
        <ele>511.6</ele>
        <time>2014-05-29T07:05:49Z</time>
      </trkpt>
      <trkpt lat="45.39003" lon="2.54641">
        <ele>511.3</ele>
        <time>2014-05-29T07:05:50Z</time>
      </trkpt>
      <trkpt lat="45.38999" lon="2.54636">
        <ele>511.2</ele>
        <time>2014-05-29T07:05:51Z</time>
      </trkpt>
      <trkpt lat="45.38994" lon="2.54632">
        <ele>510.7</ele>
        <time>2014-05-29T07:05:52Z</time>
      </trkpt>
      <trkpt lat="45.38989" lon="2.54625">
        <ele>510.6</ele>
        <time>2014-05-29T07:05:54Z</time>
      </trkpt>
      <trkpt lat="45.38984" lon="2.54619">
        <ele>510.9</ele>
        <time>2014-05-29T07:05:56Z</time>
      </trkpt>
      <trkpt lat="45.38979" lon="2.5461">
        <ele>510.6</ele>
        <time>2014-05-29T07:05:58Z</time>
      </trkpt>
      <trkpt lat="45.38973" lon="2.54601">
        <ele>510.6</ele>
        <time>2014-05-29T07:06:00Z</time>
      </trkpt>
      <trkpt lat="45.38969" lon="2.54595">
        <ele>510.9</ele>
        <time>2014-05-29T07:06:01Z</time>
      </trkpt>
      <trkpt lat="45.38966" lon="2.5459">
        <ele>511.1</ele>
        <time>2014-05-29T07:06:02Z</time>
      </trkpt>
      <trkpt lat="45.38961" lon="2.54581">
        <ele>511.1</ele>
        <time>2014-05-29T07:06:04Z</time>
      </trkpt>
      <trkpt lat="45.38955" lon="2.54573">
        <ele>511.7</ele>
        <time>2014-05-29T07:06:07Z</time>
      </trkpt>
      <trkpt lat="45.3895" lon="2.54563">
        <ele>513</ele>
        <time>2014-05-29T07:06:11Z</time>
      </trkpt>
      <trkpt lat="45.38947" lon="2.54553">
        <ele>513.8</ele>
        <time>2014-05-29T07:06:16Z</time>
      </trkpt>
      <trkpt lat="45.38945" lon="2.54541">
        <ele>513.9</ele>
        <time>2014-05-29T07:06:22Z</time>
      </trkpt>
      <trkpt lat="45.38943" lon="2.54529">
        <ele>515.2</ele>
        <time>2014-05-29T07:06:30Z</time>
      </trkpt>
      <trkpt lat="45.3894" lon="2.5452">
        <ele>516.6</ele>
        <time>2014-05-29T07:06:36Z</time>
      </trkpt>
      <trkpt lat="45.38933" lon="2.54513">
        <ele>517.8</ele>
        <time>2014-05-29T07:06:40Z</time>
      </trkpt>
      <trkpt lat="45.38928" lon="2.54505">
        <ele>520.2</ele>
        <time>2014-05-29T07:06:45Z</time>
      </trkpt>
      <trkpt lat="45.38927" lon="2.54503">
        <ele>520.4</ele>
        <time>2014-05-29T07:06:46Z</time>
      </trkpt>
      <trkpt lat="45.38918" lon="2.54488">
        <ele>521.3</ele>
        <time>2014-05-29T07:06:54Z</time>
      </trkpt>
      <trkpt lat="45.38913" lon="2.5448">
        <ele>522.7</ele>
        <time>2014-05-29T07:06:59Z</time>
      </trkpt>
      <trkpt lat="45.38907" lon="2.54471">
        <ele>523.2</ele>
        <time>2014-05-29T07:07:04Z</time>
      </trkpt>
      <trkpt lat="45.38901" lon="2.54463">
        <ele>524.3</ele>
        <time>2014-05-29T07:07:08Z</time>
      </trkpt>
      <trkpt lat="45.38895" lon="2.54456">
        <ele>524.6</ele>
        <time>2014-05-29T07:07:12Z</time>
      </trkpt>
      <trkpt lat="45.38889" lon="2.5445">
        <ele>525.3</ele>
        <time>2014-05-29T07:07:15Z</time>
      </trkpt>
      <trkpt lat="45.38883" lon="2.54441">
        <ele>525.3</ele>
        <time>2014-05-29T07:07:19Z</time>
      </trkpt>
      <trkpt lat="45.38877" lon="2.54433">
        <ele>526.5</ele>
        <time>2014-05-29T07:07:23Z</time>
      </trkpt>
      <trkpt lat="45.38871" lon="2.54426">
        <ele>526.8</ele>
        <time>2014-05-29T07:07:26Z</time>
      </trkpt>
      <trkpt lat="45.38866" lon="2.54418">
        <ele>526.7</ele>
        <time>2014-05-29T07:07:29Z</time>
      </trkpt>
      <trkpt lat="45.38861" lon="2.54411">
        <ele>527.3</ele>
        <time>2014-05-29T07:07:32Z</time>
      </trkpt>
      <trkpt lat="45.38856" lon="2.54401">
        <ele>528</ele>
        <time>2014-05-29T07:07:36Z</time>
      </trkpt>
      <trkpt lat="45.3885" lon="2.54392">
        <ele>528.9</ele>
        <time>2014-05-29T07:07:40Z</time>
      </trkpt>
      <trkpt lat="45.38845" lon="2.54384">
        <ele>530.1</ele>
        <time>2014-05-29T07:07:44Z</time>
      </trkpt>
      <trkpt lat="45.3884" lon="2.54376">
        <ele>530.7</ele>
        <time>2014-05-29T07:07:47Z</time>
      </trkpt>
      <trkpt lat="45.38838" lon="2.54374">
        <ele>530.7</ele>
        <time>2014-05-29T07:07:48Z</time>
      </trkpt>
      <trkpt lat="45.38828" lon="2.5436">
        <ele>531</ele>
        <time>2014-05-29T07:07:54Z</time>
      </trkpt>
      <trkpt lat="45.38823" lon="2.54354">
        <ele>532</ele>
        <time>2014-05-29T07:07:57Z</time>
      </trkpt>
      <trkpt lat="45.38817" lon="2.54346">
        <ele>533.4</ele>
        <time>2014-05-29T07:08:01Z</time>
      </trkpt>
      <trkpt lat="45.38814" lon="2.54338">
        <ele>534</ele>
        <time>2014-05-29T07:08:04Z</time>
      </trkpt>
      <trkpt lat="45.38809" lon="2.54327">
        <ele>535.2</ele>
        <time>2014-05-29T07:08:08Z</time>
      </trkpt>
      <trkpt lat="45.38804" lon="2.54317">
        <ele>535.6</ele>
        <time>2014-05-29T07:08:12Z</time>
      </trkpt>
      <trkpt lat="45.388" lon="2.54309">
        <ele>537.2</ele>
        <time>2014-05-29T07:08:15Z</time>
      </trkpt>
      <trkpt lat="45.38797" lon="2.543">
        <ele>537.4</ele>
        <time>2014-05-29T07:08:18Z</time>
      </trkpt>
      <trkpt lat="45.38792" lon="2.54289">
        <ele>537.9</ele>
        <time>2014-05-29T07:08:22Z</time>
      </trkpt>
      <trkpt lat="45.3879" lon="2.5428">
        <ele>538.1</ele>
        <time>2014-05-29T07:08:25Z</time>
      </trkpt>
      <trkpt lat="45.38789" lon="2.54269">
        <ele>539.1</ele>
        <time>2014-05-29T07:08:28Z</time>
      </trkpt>
      <trkpt lat="45.38787" lon="2.54259">
        <ele>539.9</ele>
        <time>2014-05-29T07:08:31Z</time>
      </trkpt>
      <trkpt lat="45.38785" lon="2.54248">
        <ele>540.4</ele>
        <time>2014-05-29T07:08:34Z</time>
      </trkpt>
      <trkpt lat="45.38783" lon="2.5424">
        <ele>540.5</ele>
        <time>2014-05-29T07:08:36Z</time>
      </trkpt>
      <trkpt lat="45.38779" lon="2.54229">
        <ele>540.5</ele>
        <time>2014-05-29T07:08:38Z</time>
      </trkpt>
      <trkpt lat="45.38776" lon="2.54218">
        <ele>540.2</ele>
        <time>2014-05-29T07:08:40Z</time>
      </trkpt>
      <trkpt lat="45.38774" lon="2.54206">
        <ele>539.9</ele>
        <time>2014-05-29T07:08:42Z</time>
      </trkpt>
      <trkpt lat="45.38773" lon="2.542">
        <ele>539.7</ele>
        <time>2014-05-29T07:08:43Z</time>
      </trkpt>
      <trkpt lat="45.38771" lon="2.54194">
        <ele>539.6</ele>
        <time>2014-05-29T07:08:44Z</time>
      </trkpt>
      <trkpt lat="45.38769" lon="2.54188">
        <ele>539.8</ele>
        <time>2014-05-29T07:08:45Z</time>
      </trkpt>
      <trkpt lat="45.38765" lon="2.54177">
        <ele>539.6</ele>
        <time>2014-05-29T07:08:47Z</time>
      </trkpt>
      <trkpt lat="45.38762" lon="2.54168">
        <ele>539.2</ele>
        <time>2014-05-29T07:08:49Z</time>
      </trkpt>
      <trkpt lat="45.3876" lon="2.54163">
        <ele>539.8</ele>
        <time>2014-05-29T07:08:50Z</time>
      </trkpt>
      <trkpt lat="45.38756" lon="2.54149">
        <ele>541.1</ele>
        <time>2014-05-29T07:08:54Z</time>
      </trkpt>
      <trkpt lat="45.38753" lon="2.54139">
        <ele>541.3</ele>
        <time>2014-05-29T07:08:57Z</time>
      </trkpt>
      <trkpt lat="45.3875" lon="2.54128">
        <ele>541.7</ele>
        <time>2014-05-29T07:09:00Z</time>
      </trkpt>
      <trkpt lat="45.38746" lon="2.54117">
        <ele>542.5</ele>
        <time>2014-05-29T07:09:04Z</time>
      </trkpt>
      <trkpt lat="45.38742" lon="2.54109">
        <ele>542.6</ele>
        <time>2014-05-29T07:09:07Z</time>
      </trkpt>
      <trkpt lat="45.38738" lon="2.541">
        <ele>543.4</ele>
        <time>2014-05-29T07:09:10Z</time>
      </trkpt>
      <trkpt lat="45.38734" lon="2.54091">
        <ele>544</ele>
        <time>2014-05-29T07:09:13Z</time>
      </trkpt>
      <trkpt lat="45.3873" lon="2.54083">
        <ele>544.8</ele>
        <time>2014-05-29T07:09:16Z</time>
      </trkpt>
      <trkpt lat="45.38725" lon="2.54075">
        <ele>546</ele>
        <time>2014-05-29T07:09:19Z</time>
      </trkpt>
      <trkpt lat="45.38719" lon="2.54068">
        <ele>546.6</ele>
        <time>2014-05-29T07:09:22Z</time>
      </trkpt>
      <trkpt lat="45.38713" lon="2.5406">
        <ele>547</ele>
        <time>2014-05-29T07:09:26Z</time>
      </trkpt>
      <trkpt lat="45.38707" lon="2.5405">
        <ele>547.5</ele>
        <time>2014-05-29T07:09:30Z</time>
      </trkpt>
      <trkpt lat="45.38701" lon="2.54043">
        <ele>548.6</ele>
        <time>2014-05-29T07:09:33Z</time>
      </trkpt>
      <trkpt lat="45.38696" lon="2.54034">
        <ele>549.9</ele>
        <time>2014-05-29T07:09:37Z</time>
      </trkpt>
      <trkpt lat="45.38691" lon="2.54025">
        <ele>550.6</ele>
        <time>2014-05-29T07:09:40Z</time>
      </trkpt>
      <trkpt lat="45.38687" lon="2.54015">
        <ele>551.5</ele>
        <time>2014-05-29T07:09:44Z</time>
      </trkpt>
      <trkpt lat="45.38682" lon="2.54006">
        <ele>552.5</ele>
        <time>2014-05-29T07:09:48Z</time>
      </trkpt>
      <trkpt lat="45.38679" lon="2.53997">
        <ele>553.3</ele>
        <time>2014-05-29T07:09:51Z</time>
      </trkpt>
      <trkpt lat="45.38677" lon="2.53994">
        <ele>553.3</ele>
        <time>2014-05-29T07:09:52Z</time>
      </trkpt>
      <trkpt lat="45.38669" lon="2.53979">
        <ele>553.2</ele>
        <time>2014-05-29T07:09:58Z</time>
      </trkpt>
      <trkpt lat="45.38664" lon="2.53971">
        <ele>554.7</ele>
        <time>2014-05-29T07:10:02Z</time>
      </trkpt>
      <trkpt lat="45.38658" lon="2.53961">
        <ele>554.7</ele>
        <time>2014-05-29T07:10:07Z</time>
      </trkpt>
      <trkpt lat="45.38654" lon="2.53953">
        <ele>556.2</ele>
        <time>2014-05-29T07:10:11Z</time>
      </trkpt>
      <trkpt lat="45.38648" lon="2.53944">
        <ele>557.1</ele>
        <time>2014-05-29T07:10:16Z</time>
      </trkpt>
      <trkpt lat="45.38643" lon="2.53935">
        <ele>559</ele>
        <time>2014-05-29T07:10:21Z</time>
      </trkpt>
      <trkpt lat="45.38639" lon="2.53925">
        <ele>560.4</ele>
        <time>2014-05-29T07:10:26Z</time>
      </trkpt>
      <trkpt lat="45.38636" lon="2.53913">
        <ele>561.2</ele>
        <time>2014-05-29T07:10:31Z</time>
      </trkpt>
      <trkpt lat="45.3863" lon="2.53905">
        <ele>562.9</ele>
        <time>2014-05-29T07:10:35Z</time>
      </trkpt>
      <trkpt lat="45.38626" lon="2.53895">
        <ele>562.9</ele>
        <time>2014-05-29T07:10:39Z</time>
      </trkpt>
      <trkpt lat="45.38622" lon="2.53885">
        <ele>563.4</ele>
        <time>2014-05-29T07:10:44Z</time>
      </trkpt>
      <trkpt lat="45.38618" lon="2.53877">
        <ele>565.4</ele>
        <time>2014-05-29T07:10:48Z</time>
      </trkpt>
      <trkpt lat="45.38613" lon="2.53869">
        <ele>566.2</ele>
        <time>2014-05-29T07:10:52Z</time>
      </trkpt>
      <trkpt lat="45.38612" lon="2.53867">
        <ele>566.2</ele>
        <time>2014-05-29T07:10:53Z</time>
      </trkpt>
      <trkpt lat="45.386" lon="2.53851">
        <ele>568.1</ele>
        <time>2014-05-29T07:11:02Z</time>
      </trkpt>
      <trkpt lat="45.38594" lon="2.53843">
        <ele>569.6</ele>
        <time>2014-05-29T07:11:07Z</time>
      </trkpt>
      <trkpt lat="45.38588" lon="2.53836">
        <ele>570.3</ele>
        <time>2014-05-29T07:11:12Z</time>
      </trkpt>
      <trkpt lat="45.38581" lon="2.53827">
        <ele>572.2</ele>
        <time>2014-05-29T07:11:17Z</time>
      </trkpt>
      <trkpt lat="45.38576" lon="2.53818">
        <ele>573.8</ele>
        <time>2014-05-29T07:11:22Z</time>
      </trkpt>
      <trkpt lat="45.38574" lon="2.5381">
        <ele>573.6</ele>
        <time>2014-05-29T07:11:24Z</time>
      </trkpt>
      <trkpt lat="45.38572" lon="2.538">
        <ele>573.6</ele>
        <time>2014-05-29T07:11:26Z</time>
      </trkpt>
      <trkpt lat="45.3857" lon="2.5379">
        <ele>574.1</ele>
        <time>2014-05-29T07:11:31Z</time>
      </trkpt>
      <trkpt lat="45.38568" lon="2.53779">
        <ele>575.5</ele>
        <time>2014-05-29T07:11:36Z</time>
      </trkpt>
      <trkpt lat="45.38566" lon="2.53769">
        <ele>577.1</ele>
        <time>2014-05-29T07:11:41Z</time>
      </trkpt>
      <trkpt lat="45.38564" lon="2.53757">
        <ele>576.9</ele>
        <time>2014-05-29T07:11:46Z</time>
      </trkpt>
      <trkpt lat="45.38561" lon="2.53747">
        <ele>578.3</ele>
        <time>2014-05-29T07:11:51Z</time>
      </trkpt>
      <trkpt lat="45.38559" lon="2.53735">
        <ele>580.7</ele>
        <time>2014-05-29T07:11:57Z</time>
      </trkpt>
      <trkpt lat="45.38558" lon="2.53733">
        <ele>581</ele>
        <time>2014-05-29T07:11:58Z</time>
      </trkpt>
      <trkpt lat="45.38553" lon="2.53714">
        <ele>583.2</ele>
        <time>2014-05-29T07:12:07Z</time>
      </trkpt>
      <trkpt lat="45.38554" lon="2.53703">
        <ele>584.3</ele>
        <time>2014-05-29T07:12:13Z</time>
      </trkpt>
      <trkpt lat="45.38556" lon="2.53692">
        <ele>585.5</ele>
        <time>2014-05-29T07:12:18Z</time>
      </trkpt>
      <trkpt lat="45.38555" lon="2.53681">
        <ele>586.9</ele>
        <time>2014-05-29T07:12:22Z</time>
      </trkpt>
      <trkpt lat="45.38554" lon="2.5367">
        <ele>586.9</ele>
        <time>2014-05-29T07:12:26Z</time>
      </trkpt>
      <trkpt lat="45.38552" lon="2.53658">
        <ele>587.1</ele>
        <time>2014-05-29T07:12:30Z</time>
      </trkpt>
      <trkpt lat="45.3855" lon="2.53649">
        <ele>587.9</ele>
        <time>2014-05-29T07:12:33Z</time>
      </trkpt>
      <trkpt lat="45.38547" lon="2.53636">
        <ele>587.4</ele>
        <time>2014-05-29T07:12:37Z</time>
      </trkpt>
      <trkpt lat="45.38545" lon="2.53624">
        <ele>588.7</ele>
        <time>2014-05-29T07:12:41Z</time>
      </trkpt>
      <trkpt lat="45.38543" lon="2.53612">
        <ele>589.1</ele>
        <time>2014-05-29T07:12:45Z</time>
      </trkpt>
      <trkpt lat="45.38541" lon="2.536">
        <ele>588.9</ele>
        <time>2014-05-29T07:12:49Z</time>
      </trkpt>
      <trkpt lat="45.38538" lon="2.53588">
        <ele>589.9</ele>
        <time>2014-05-29T07:12:53Z</time>
      </trkpt>
      <trkpt lat="45.38537" lon="2.53577">
        <ele>591.2</ele>
        <time>2014-05-29T07:12:57Z</time>
      </trkpt>
      <trkpt lat="45.38535" lon="2.53565">
        <ele>592.2</ele>
        <time>2014-05-29T07:13:01Z</time>
      </trkpt>
      <trkpt lat="45.38534" lon="2.53562">
        <ele>592.4</ele>
        <time>2014-05-29T07:13:02Z</time>
      </trkpt>
      <trkpt lat="45.38532" lon="2.5354">
        <ele>593.5</ele>
        <time>2014-05-29T07:13:09Z</time>
      </trkpt>
      <trkpt lat="45.3853" lon="2.53528">
        <ele>593.9</ele>
        <time>2014-05-29T07:13:13Z</time>
      </trkpt>
      <trkpt lat="45.38529" lon="2.53516">
        <ele>594.1</ele>
        <time>2014-05-29T07:13:17Z</time>
      </trkpt>
      <trkpt lat="45.38527" lon="2.53504">
        <ele>596</ele>
        <time>2014-05-29T07:13:21Z</time>
      </trkpt>
      <trkpt lat="45.38526" lon="2.53491">
        <ele>596.6</ele>
        <time>2014-05-29T07:13:25Z</time>
      </trkpt>
      <trkpt lat="45.38524" lon="2.53482">
        <ele>597.3</ele>
        <time>2014-05-29T07:13:28Z</time>
      </trkpt>
      <trkpt lat="45.38523" lon="2.53469">
        <ele>597.9</ele>
        <time>2014-05-29T07:13:32Z</time>
      </trkpt>
      <trkpt lat="45.38521" lon="2.53457">
        <ele>598.2</ele>
        <time>2014-05-29T07:13:36Z</time>
      </trkpt>
      <trkpt lat="45.3852" lon="2.53446">
        <ele>599.6</ele>
        <time>2014-05-29T07:13:40Z</time>
      </trkpt>
      <trkpt lat="45.38519" lon="2.53434">
        <ele>600.1</ele>
        <time>2014-05-29T07:13:44Z</time>
      </trkpt>
      <trkpt lat="45.38518" lon="2.53422">
        <ele>600.8</ele>
        <time>2014-05-29T07:13:48Z</time>
      </trkpt>
      <trkpt lat="45.38517" lon="2.5341">
        <ele>601.8</ele>
        <time>2014-05-29T07:13:52Z</time>
      </trkpt>
      <trkpt lat="45.38517" lon="2.53398">
        <ele>603.1</ele>
        <time>2014-05-29T07:13:56Z</time>
      </trkpt>
      <trkpt lat="45.38518" lon="2.53387">
        <ele>603.6</ele>
        <time>2014-05-29T07:13:59Z</time>
      </trkpt>
      <trkpt lat="45.38521" lon="2.53378">
        <ele>603.8</ele>
        <time>2014-05-29T07:14:02Z</time>
      </trkpt>
      <trkpt lat="45.38529" lon="2.53374">
        <ele>604.4</ele>
        <time>2014-05-29T07:14:05Z</time>
      </trkpt>
      <trkpt lat="45.38531" lon="2.53373">
        <ele>604.6</ele>
        <time>2014-05-29T07:14:06Z</time>
      </trkpt>
      <trkpt lat="45.38545" lon="2.53368">
        <ele>605.2</ele>
        <time>2014-05-29T07:14:11Z</time>
      </trkpt>
      <trkpt lat="45.3855" lon="2.53363">
        <ele>605.1</ele>
        <time>2014-05-29T07:14:13Z</time>
      </trkpt>
      <trkpt lat="45.38555" lon="2.53358">
        <ele>605.2</ele>
        <time>2014-05-29T07:14:15Z</time>
      </trkpt>
      <trkpt lat="45.38561" lon="2.53353">
        <ele>605.3</ele>
        <time>2014-05-29T07:14:17Z</time>
      </trkpt>
      <trkpt lat="45.38567" lon="2.53347">
        <ele>605.3</ele>
        <time>2014-05-29T07:14:19Z</time>
      </trkpt>
      <trkpt lat="45.38575" lon="2.53343">
        <ele>605.3</ele>
        <time>2014-05-29T07:14:21Z</time>
      </trkpt>
      <trkpt lat="45.38583" lon="2.5334">
        <ele>605.8</ele>
        <time>2014-05-29T07:14:23Z</time>
      </trkpt>
      <trkpt lat="45.38588" lon="2.53339">
        <ele>605.7</ele>
        <time>2014-05-29T07:14:24Z</time>
      </trkpt>
      <trkpt lat="45.38593" lon="2.53338">
        <ele>605.7</ele>
        <time>2014-05-29T07:14:25Z</time>
      </trkpt>
      <trkpt lat="45.38599" lon="2.53338">
        <ele>605.7</ele>
        <time>2014-05-29T07:14:26Z</time>
      </trkpt>
      <trkpt lat="45.38605" lon="2.53338">
        <ele>605.2</ele>
        <time>2014-05-29T07:14:27Z</time>
      </trkpt>
      <trkpt lat="45.38611" lon="2.53337">
        <ele>604.9</ele>
        <time>2014-05-29T07:14:28Z</time>
      </trkpt>
      <trkpt lat="45.38617" lon="2.53336">
        <ele>604.6</ele>
        <time>2014-05-29T07:14:29Z</time>
      </trkpt>
      <trkpt lat="45.38624" lon="2.53335">
        <ele>604.4</ele>
        <time>2014-05-29T07:14:30Z</time>
      </trkpt>
      <trkpt lat="45.3863" lon="2.53332">
        <ele>604.2</ele>
        <time>2014-05-29T07:14:31Z</time>
      </trkpt>
      <trkpt lat="45.38637" lon="2.53329">
        <ele>603.9</ele>
        <time>2014-05-29T07:14:32Z</time>
      </trkpt>
      <trkpt lat="45.38643" lon="2.53325">
        <ele>603.7</ele>
        <time>2014-05-29T07:14:33Z</time>
      </trkpt>
      <trkpt lat="45.3865" lon="2.53321">
        <ele>603.4</ele>
        <time>2014-05-29T07:14:34Z</time>
      </trkpt>
      <trkpt lat="45.38656" lon="2.53317">
        <ele>603.2</ele>
        <time>2014-05-29T07:14:35Z</time>
      </trkpt>
      <trkpt lat="45.38663" lon="2.53313">
        <ele>603.2</ele>
        <time>2014-05-29T07:14:36Z</time>
      </trkpt>
      <trkpt lat="45.38669" lon="2.53309">
        <ele>603.1</ele>
        <time>2014-05-29T07:14:37Z</time>
      </trkpt>
      <trkpt lat="45.38674" lon="2.53304">
        <ele>603.1</ele>
        <time>2014-05-29T07:14:38Z</time>
      </trkpt>
      <trkpt lat="45.38679" lon="2.53297">
        <ele>602.9</ele>
        <time>2014-05-29T07:14:39Z</time>
      </trkpt>
      <trkpt lat="45.38682" lon="2.53291">
        <ele>602.8</ele>
        <time>2014-05-29T07:14:40Z</time>
      </trkpt>
      <trkpt lat="45.38685" lon="2.53284">
        <ele>602.9</ele>
        <time>2014-05-29T07:14:41Z</time>
      </trkpt>
      <trkpt lat="45.38688" lon="2.53276">
        <ele>602.9</ele>
        <time>2014-05-29T07:14:42Z</time>
      </trkpt>
      <trkpt lat="45.3869" lon="2.53269">
        <ele>602.8</ele>
        <time>2014-05-29T07:14:43Z</time>
      </trkpt>
      <trkpt lat="45.38693" lon="2.53262">
        <ele>602.8</ele>
        <time>2014-05-29T07:14:44Z</time>
      </trkpt>
      <trkpt lat="45.38696" lon="2.53254">
        <ele>602.7</ele>
        <time>2014-05-29T07:14:45Z</time>
      </trkpt>
      <trkpt lat="45.38699" lon="2.53247">
        <ele>602.3</ele>
        <time>2014-05-29T07:14:46Z</time>
      </trkpt>
      <trkpt lat="45.38702" lon="2.53239">
        <ele>601.9</ele>
        <time>2014-05-29T07:14:47Z</time>
      </trkpt>
      <trkpt lat="45.38705" lon="2.53233">
        <ele>601.3</ele>
        <time>2014-05-29T07:14:48Z</time>
      </trkpt>
      <trkpt lat="45.38709" lon="2.53227">
        <ele>600.8</ele>
        <time>2014-05-29T07:14:49Z</time>
      </trkpt>
      <trkpt lat="45.38713" lon="2.53222">
        <ele>600.4</ele>
        <time>2014-05-29T07:14:50Z</time>
      </trkpt>
      <trkpt lat="45.38719" lon="2.53218">
        <ele>600</ele>
        <time>2014-05-29T07:14:51Z</time>
      </trkpt>
      <trkpt lat="45.38725" lon="2.53215">
        <ele>599.6</ele>
        <time>2014-05-29T07:14:52Z</time>
      </trkpt>
      <trkpt lat="45.38732" lon="2.53212">
        <ele>599</ele>
        <time>2014-05-29T07:14:53Z</time>
      </trkpt>
      <trkpt lat="45.38739" lon="2.53211">
        <ele>598.5</ele>
        <time>2014-05-29T07:14:54Z</time>
      </trkpt>
      <trkpt lat="45.38747" lon="2.5321">
        <ele>598.3</ele>
        <time>2014-05-29T07:14:55Z</time>
      </trkpt>
      <trkpt lat="45.38755" lon="2.5321">
        <ele>598.1</ele>
        <time>2014-05-29T07:14:56Z</time>
      </trkpt>
      <trkpt lat="45.38762" lon="2.53209">
        <ele>597.9</ele>
        <time>2014-05-29T07:14:57Z</time>
      </trkpt>
      <trkpt lat="45.38768" lon="2.53207">
        <ele>596.7</ele>
        <time>2014-05-29T07:14:58Z</time>
      </trkpt>
      <trkpt lat="45.38773" lon="2.53202">
        <ele>595.8</ele>
        <time>2014-05-29T07:14:59Z</time>
      </trkpt>
      <trkpt lat="45.38777" lon="2.53196">
        <ele>594.6</ele>
        <time>2014-05-29T07:15:00Z</time>
      </trkpt>
      <trkpt lat="45.38782" lon="2.53189">
        <ele>593.7</ele>
        <time>2014-05-29T07:15:01Z</time>
      </trkpt>
      <trkpt lat="45.38787" lon="2.53182">
        <ele>592.7</ele>
        <time>2014-05-29T07:15:02Z</time>
      </trkpt>
      <trkpt lat="45.38793" lon="2.53174">
        <ele>591.9</ele>
        <time>2014-05-29T07:15:03Z</time>
      </trkpt>
      <trkpt lat="45.38799" lon="2.53166">
        <ele>591.4</ele>
        <time>2014-05-29T07:15:04Z</time>
      </trkpt>
      <trkpt lat="45.38805" lon="2.53158">
        <ele>590.3</ele>
        <time>2014-05-29T07:15:05Z</time>
      </trkpt>
      <trkpt lat="45.38811" lon="2.5315">
        <ele>589.4</ele>
        <time>2014-05-29T07:15:06Z</time>
      </trkpt>
      <trkpt lat="45.38815" lon="2.53144">
        <ele>588.3</ele>
        <time>2014-05-29T07:15:07Z</time>
      </trkpt>
      <trkpt lat="45.38819" lon="2.53138">
        <ele>587.5</ele>
        <time>2014-05-29T07:15:08Z</time>
      </trkpt>
      <trkpt lat="45.38823" lon="2.53134">
        <ele>586.8</ele>
        <time>2014-05-29T07:15:09Z</time>
      </trkpt>
      <trkpt lat="45.38827" lon="2.53131">
        <ele>585.9</ele>
        <time>2014-05-29T07:15:10Z</time>
      </trkpt>
      <trkpt lat="45.38833" lon="2.5313">
        <ele>585.3</ele>
        <time>2014-05-29T07:15:11Z</time>
      </trkpt>
      <trkpt lat="45.38839" lon="2.53127">
        <ele>584.8</ele>
        <time>2014-05-29T07:15:12Z</time>
      </trkpt>
      <trkpt lat="45.38844" lon="2.53124">
        <ele>584.5</ele>
        <time>2014-05-29T07:15:13Z</time>
      </trkpt>
      <trkpt lat="45.3885" lon="2.5312">
        <ele>583.8</ele>
        <time>2014-05-29T07:15:14Z</time>
      </trkpt>
      <trkpt lat="45.38855" lon="2.53115">
        <ele>583.3</ele>
        <time>2014-05-29T07:15:15Z</time>
      </trkpt>
      <trkpt lat="45.38858" lon="2.53108">
        <ele>582.9</ele>
        <time>2014-05-29T07:15:16Z</time>
      </trkpt>
      <trkpt lat="45.38862" lon="2.53102">
        <ele>582</ele>
        <time>2014-05-29T07:15:17Z</time>
      </trkpt>
      <trkpt lat="45.38866" lon="2.53097">
        <ele>581.3</ele>
        <time>2014-05-29T07:15:18Z</time>
      </trkpt>
      <trkpt lat="45.38871" lon="2.53095">
        <ele>580.7</ele>
        <time>2014-05-29T07:15:19Z</time>
      </trkpt>
      <trkpt lat="45.38876" lon="2.53095">
        <ele>580.2</ele>
        <time>2014-05-29T07:15:20Z</time>
      </trkpt>
      <trkpt lat="45.38882" lon="2.53096">
        <ele>579.6</ele>
        <time>2014-05-29T07:15:21Z</time>
      </trkpt>
      <trkpt lat="45.38888" lon="2.53094">
        <ele>579.1</ele>
        <time>2014-05-29T07:15:22Z</time>
      </trkpt>
      <trkpt lat="45.38893" lon="2.5309">
        <ele>578.8</ele>
        <time>2014-05-29T07:15:23Z</time>
      </trkpt>
      <trkpt lat="45.38896" lon="2.53082">
        <ele>578.2</ele>
        <time>2014-05-29T07:15:24Z</time>
      </trkpt>
      <trkpt lat="45.38899" lon="2.53073">
        <ele>577.7</ele>
        <time>2014-05-29T07:15:25Z</time>
      </trkpt>
      <trkpt lat="45.38901" lon="2.53063">
        <ele>576.4</ele>
        <time>2014-05-29T07:15:26Z</time>
      </trkpt>
      <trkpt lat="45.38904" lon="2.53054">
        <ele>575.5</ele>
        <time>2014-05-29T07:15:27Z</time>
      </trkpt>
      <trkpt lat="45.38908" lon="2.53044">
        <ele>574.8</ele>
        <time>2014-05-29T07:15:28Z</time>
      </trkpt>
      <trkpt lat="45.38912" lon="2.53036">
        <ele>573.6</ele>
        <time>2014-05-29T07:15:29Z</time>
      </trkpt>
      <trkpt lat="45.38917" lon="2.53027">
        <ele>572.7</ele>
        <time>2014-05-29T07:15:30Z</time>
      </trkpt>
      <trkpt lat="45.38923" lon="2.53018">
        <ele>571.5</ele>
        <time>2014-05-29T07:15:31Z</time>
      </trkpt>
      <trkpt lat="45.38928" lon="2.5301">
        <ele>570.7</ele>
        <time>2014-05-29T07:15:32Z</time>
      </trkpt>
      <trkpt lat="45.38934" lon="2.53003">
        <ele>569.6</ele>
        <time>2014-05-29T07:15:33Z</time>
      </trkpt>
      <trkpt lat="45.38942" lon="2.52997">
        <ele>568.8</ele>
        <time>2014-05-29T07:15:34Z</time>
      </trkpt>
      <trkpt lat="45.38949" lon="2.52992">
        <ele>568.1</ele>
        <time>2014-05-29T07:15:35Z</time>
      </trkpt>
      <trkpt lat="45.38955" lon="2.52988">
        <ele>567.1</ele>
        <time>2014-05-29T07:15:36Z</time>
      </trkpt>
      <trkpt lat="45.38961" lon="2.52985">
        <ele>566.3</ele>
        <time>2014-05-29T07:15:37Z</time>
      </trkpt>
      <trkpt lat="45.38967" lon="2.52984">
        <ele>565.5</ele>
        <time>2014-05-29T07:15:38Z</time>
      </trkpt>
      <trkpt lat="45.38973" lon="2.52984">
        <ele>564.9</ele>
        <time>2014-05-29T07:15:39Z</time>
      </trkpt>
      <trkpt lat="45.3898" lon="2.52986">
        <ele>564.4</ele>
        <time>2014-05-29T07:15:41Z</time>
      </trkpt>
      <trkpt lat="45.38988" lon="2.52987">
        <ele>564.5</ele>
        <time>2014-05-29T07:15:44Z</time>
      </trkpt>
      <trkpt lat="45.38996" lon="2.52985">
        <ele>565.4</ele>
        <time>2014-05-29T07:15:47Z</time>
      </trkpt>
      <trkpt lat="45.39003" lon="2.52983">
        <ele>566</ele>
        <time>2014-05-29T07:15:49Z</time>
      </trkpt>
      <trkpt lat="45.3901" lon="2.52979">
        <ele>566.5</ele>
        <time>2014-05-29T07:15:51Z</time>
      </trkpt>
      <trkpt lat="45.39015" lon="2.52977">
        <ele>566.5</ele>
        <time>2014-05-29T07:15:52Z</time>
      </trkpt>
      <trkpt lat="45.39019" lon="2.52974">
        <ele>566.5</ele>
        <time>2014-05-29T07:15:53Z</time>
      </trkpt>
      <trkpt lat="45.39023" lon="2.52971">
        <ele>566.4</ele>
        <time>2014-05-29T07:15:54Z</time>
      </trkpt>
      <trkpt lat="45.39028" lon="2.52968">
        <ele>565.7</ele>
        <time>2014-05-29T07:15:55Z</time>
      </trkpt>
      <trkpt lat="45.39034" lon="2.52965">
        <ele>565.2</ele>
        <time>2014-05-29T07:15:56Z</time>
      </trkpt>
      <trkpt lat="45.39042" lon="2.52963">
        <ele>564.8</ele>
        <time>2014-05-29T07:15:57Z</time>
      </trkpt>
      <trkpt lat="45.39049" lon="2.52962">
        <ele>564.5</ele>
        <time>2014-05-29T07:15:58Z</time>
      </trkpt>
      <trkpt lat="45.39056" lon="2.52962">
        <ele>564.1</ele>
        <time>2014-05-29T07:15:59Z</time>
      </trkpt>
      <trkpt lat="45.39063" lon="2.52962">
        <ele>563.8</ele>
        <time>2014-05-29T07:16:00Z</time>
      </trkpt>
      <trkpt lat="45.39068" lon="2.52963">
        <ele>563.5</ele>
        <time>2014-05-29T07:16:01Z</time>
      </trkpt>
      <trkpt lat="45.39073" lon="2.52964">
        <ele>563.3</ele>
        <time>2014-05-29T07:16:02Z</time>
      </trkpt>
      <trkpt lat="45.39081" lon="2.52966">
        <ele>563.2</ele>
        <time>2014-05-29T07:16:04Z</time>
      </trkpt>
      <trkpt lat="45.39089" lon="2.52969">
        <ele>563.6</ele>
        <time>2014-05-29T07:16:07Z</time>
      </trkpt>
      <trkpt lat="45.39091" lon="2.5297">
        <ele>563.9</ele>
        <time>2014-05-29T07:16:08Z</time>
      </trkpt>
      <trkpt lat="45.39104" lon="2.52979">
        <ele>565.5</ele>
        <time>2014-05-29T07:16:13Z</time>
      </trkpt>
      <trkpt lat="45.39109" lon="2.52988">
        <ele>565.9</ele>
        <time>2014-05-29T07:16:17Z</time>
      </trkpt>
      <trkpt lat="45.39111" lon="2.52999">
        <ele>566.3</ele>
        <time>2014-05-29T07:16:21Z</time>
      </trkpt>
      <trkpt lat="45.39112" lon="2.53009">
        <ele>565.9</ele>
        <time>2014-05-29T07:16:24Z</time>
      </trkpt>
      <trkpt lat="45.39113" lon="2.53022">
        <ele>566</ele>
        <time>2014-05-29T07:16:26Z</time>
      </trkpt>
      <trkpt lat="45.39113" lon="2.5303">
        <ele>566</ele>
        <time>2014-05-29T07:16:27Z</time>
      </trkpt>
      <trkpt lat="45.39111" lon="2.53038">
        <ele>565.5</ele>
        <time>2014-05-29T07:16:28Z</time>
      </trkpt>
      <trkpt lat="45.39112" lon="2.53045">
        <ele>565.1</ele>
        <time>2014-05-29T07:16:29Z</time>
      </trkpt>
      <trkpt lat="45.39112" lon="2.53057">
        <ele>564.5</ele>
        <time>2014-05-29T07:16:31Z</time>
      </trkpt>
      <trkpt lat="45.39111" lon="2.53064">
        <ele>564.3</ele>
        <time>2014-05-29T07:16:32Z</time>
      </trkpt>
      <trkpt lat="45.39112" lon="2.53071">
        <ele>564.3</ele>
        <time>2014-05-29T07:16:33Z</time>
      </trkpt>
      <trkpt lat="45.39111" lon="2.53083">
        <ele>564.1</ele>
        <time>2014-05-29T07:16:35Z</time>
      </trkpt>
      <trkpt lat="45.39109" lon="2.53096">
        <ele>564.1</ele>
        <time>2014-05-29T07:16:37Z</time>
      </trkpt>
      <trkpt lat="45.39108" lon="2.53108">
        <ele>564.2</ele>
        <time>2014-05-29T07:16:39Z</time>
      </trkpt>
      <trkpt lat="45.39106" lon="2.53118">
        <ele>564.2</ele>
        <time>2014-05-29T07:16:41Z</time>
      </trkpt>
      <trkpt lat="45.39105" lon="2.5313">
        <ele>564.8</ele>
        <time>2014-05-29T07:16:47Z</time>
      </trkpt>
      <trkpt lat="45.39105" lon="2.53142">
        <ele>566.4</ele>
        <time>2014-05-29T07:16:56Z</time>
      </trkpt>
      <trkpt lat="45.39107" lon="2.53153">
        <ele>568.1</ele>
        <time>2014-05-29T07:17:09Z</time>
      </trkpt>
      <trkpt lat="45.39107" lon="2.53155">
        <ele>568</ele>
        <time>2014-05-29T07:17:10Z</time>
      </trkpt>
      <trkpt lat="45.39106" lon="2.53176">
        <ele>569.6</ele>
        <time>2014-05-29T07:17:23Z</time>
      </trkpt>
      <trkpt lat="45.39104" lon="2.53188">
        <ele>569.8</ele>
        <time>2014-05-29T07:17:26Z</time>
      </trkpt>
      <trkpt lat="45.39104" lon="2.53198">
        <ele>569.7</ele>
        <time>2014-05-29T07:17:28Z</time>
      </trkpt>
      <trkpt lat="45.39101" lon="2.53207">
        <ele>570.2</ele>
        <time>2014-05-29T07:17:30Z</time>
      </trkpt>
      <trkpt lat="45.39101" lon="2.53217">
        <ele>570.5</ele>
        <time>2014-05-29T07:17:32Z</time>
      </trkpt>
      <trkpt lat="45.39101" lon="2.53223">
        <ele>570.4</ele>
        <time>2014-05-29T07:17:33Z</time>
      </trkpt>
      <trkpt lat="45.39102" lon="2.5323">
        <ele>570.7</ele>
        <time>2014-05-29T07:17:34Z</time>
      </trkpt>
      <trkpt lat="45.39103" lon="2.53236">
        <ele>570.9</ele>
        <time>2014-05-29T07:17:35Z</time>
      </trkpt>
      <trkpt lat="45.39106" lon="2.53243">
        <ele>571</ele>
        <time>2014-05-29T07:17:36Z</time>
      </trkpt>
      <trkpt lat="45.39109" lon="2.53252">
        <ele>570.6</ele>
        <time>2014-05-29T07:17:37Z</time>
      </trkpt>
      <trkpt lat="45.39114" lon="2.5326">
        <ele>570.3</ele>
        <time>2014-05-29T07:17:38Z</time>
      </trkpt>
      <trkpt lat="45.39119" lon="2.53268">
        <ele>569.2</ele>
        <time>2014-05-29T07:17:39Z</time>
      </trkpt>
      <trkpt lat="45.39125" lon="2.53277">
        <ele>568.4</ele>
        <time>2014-05-29T07:17:40Z</time>
      </trkpt>
      <trkpt lat="45.39128" lon="2.53287">
        <ele>567.7</ele>
        <time>2014-05-29T07:17:41Z</time>
      </trkpt>
      <trkpt lat="45.3913" lon="2.53296">
        <ele>567.2</ele>
        <time>2014-05-29T07:17:42Z</time>
      </trkpt>
      <trkpt lat="45.39132" lon="2.53305">
        <ele>566.9</ele>
        <time>2014-05-29T07:17:43Z</time>
      </trkpt>
      <trkpt lat="45.39132" lon="2.53312">
        <ele>566.5</ele>
        <time>2014-05-29T07:17:44Z</time>
      </trkpt>
      <trkpt lat="45.3913" lon="2.53319">
        <ele>566.3</ele>
        <time>2014-05-29T07:17:45Z</time>
      </trkpt>
      <trkpt lat="45.39128" lon="2.5333">
        <ele>566.4</ele>
        <time>2014-05-29T07:17:47Z</time>
      </trkpt>
      <trkpt lat="45.39126" lon="2.53339">
        <ele>567</ele>
        <time>2014-05-29T07:17:49Z</time>
      </trkpt>
      <trkpt lat="45.39123" lon="2.53351">
        <ele>567.5</ele>
        <time>2014-05-29T07:17:52Z</time>
      </trkpt>
      <trkpt lat="45.3912" lon="2.53361">
        <ele>567.7</ele>
        <time>2014-05-29T07:17:55Z</time>
      </trkpt>
      <trkpt lat="45.39116" lon="2.53371">
        <ele>568.5</ele>
        <time>2014-05-29T07:17:58Z</time>
      </trkpt>
      <trkpt lat="45.39114" lon="2.53382">
        <ele>568.8</ele>
        <time>2014-05-29T07:18:01Z</time>
      </trkpt>
      <trkpt lat="45.39112" lon="2.53394">
        <ele>570.3</ele>
        <time>2014-05-29T07:18:05Z</time>
      </trkpt>
      <trkpt lat="45.3911" lon="2.53404">
        <ele>571.8</ele>
        <time>2014-05-29T07:18:08Z</time>
      </trkpt>
      <trkpt lat="45.39106" lon="2.53415">
        <ele>572.6</ele>
        <time>2014-05-29T07:18:11Z</time>
      </trkpt>
      <trkpt lat="45.39107" lon="2.53418">
        <ele>573</ele>
        <time>2014-05-29T07:18:12Z</time>
      </trkpt>
      <trkpt lat="45.39102" lon="2.53435">
        <ele>573.5</ele>
        <time>2014-05-29T07:18:17Z</time>
      </trkpt>
      <trkpt lat="45.391" lon="2.53443">
        <ele>573.2</ele>
        <time>2014-05-29T07:18:19Z</time>
      </trkpt>
      <trkpt lat="45.39098" lon="2.53452">
        <ele>573.1</ele>
        <time>2014-05-29T07:18:21Z</time>
      </trkpt>
      <trkpt lat="45.39097" lon="2.53462">
        <ele>574</ele>
        <time>2014-05-29T07:18:23Z</time>
      </trkpt>
      <trkpt lat="45.39094" lon="2.53472">
        <ele>573.5</ele>
        <time>2014-05-29T07:18:26Z</time>
      </trkpt>
      <trkpt lat="45.39091" lon="2.53481">
        <ele>573.6</ele>
        <time>2014-05-29T07:18:29Z</time>
      </trkpt>
      <trkpt lat="45.39088" lon="2.5349">
        <ele>574.7</ele>
        <time>2014-05-29T07:18:32Z</time>
      </trkpt>
      <trkpt lat="45.39085" lon="2.53501">
        <ele>575.4</ele>
        <time>2014-05-29T07:18:36Z</time>
      </trkpt>
      <trkpt lat="45.39087" lon="2.53512">
        <ele>576.7</ele>
        <time>2014-05-29T07:18:42Z</time>
      </trkpt>
      <trkpt lat="45.39086" lon="2.53524">
        <ele>578.4</ele>
        <time>2014-05-29T07:18:49Z</time>
      </trkpt>
      <trkpt lat="45.39083" lon="2.53535">
        <ele>578.9</ele>
        <time>2014-05-29T07:18:55Z</time>
      </trkpt>
      <trkpt lat="45.39079" lon="2.53544">
        <ele>580.1</ele>
        <time>2014-05-29T07:19:00Z</time>
      </trkpt>
      <trkpt lat="45.39074" lon="2.53555">
        <ele>581.3</ele>
        <time>2014-05-29T07:19:06Z</time>
      </trkpt>
      <trkpt lat="45.3907" lon="2.53566">
        <ele>583.8</ele>
        <time>2014-05-29T07:19:14Z</time>
      </trkpt>
      <trkpt lat="45.39069" lon="2.53568">
        <ele>584.2</ele>
        <time>2014-05-29T07:19:15Z</time>
      </trkpt>
      <trkpt lat="45.39069" lon="2.53591">
        <ele>588.2</ele>
        <time>2014-05-29T07:19:35Z</time>
      </trkpt>
      <trkpt lat="45.39073" lon="2.53602">
        <ele>589.5</ele>
        <time>2014-05-29T07:19:43Z</time>
      </trkpt>
      <trkpt lat="45.39081" lon="2.53603">
        <ele>589.2</ele>
        <time>2014-05-29T07:19:46Z</time>
      </trkpt>
      <trkpt lat="45.39089" lon="2.53605">
        <ele>587.4</ele>
        <time>2014-05-29T07:19:49Z</time>
      </trkpt>
      <trkpt lat="45.39095" lon="2.5361">
        <ele>585.5</ele>
        <time>2014-05-29T07:19:51Z</time>
      </trkpt>
      <trkpt lat="45.39102" lon="2.53615">
        <ele>583.6</ele>
        <time>2014-05-29T07:19:53Z</time>
      </trkpt>
      <trkpt lat="45.39108" lon="2.53619">
        <ele>580.9</ele>
        <time>2014-05-29T07:19:55Z</time>
      </trkpt>
      <trkpt lat="45.39113" lon="2.53622">
        <ele>579.4</ele>
        <time>2014-05-29T07:19:57Z</time>
      </trkpt>
      <trkpt lat="45.39119" lon="2.53625">
        <ele>577.6</ele>
        <time>2014-05-29T07:19:59Z</time>
      </trkpt>
      <trkpt lat="45.39126" lon="2.53628">
        <ele>575.4</ele>
        <time>2014-05-29T07:20:01Z</time>
      </trkpt>
      <trkpt lat="45.39132" lon="2.53631">
        <ele>573.7</ele>
        <time>2014-05-29T07:20:03Z</time>
      </trkpt>
      <trkpt lat="45.39138" lon="2.53636">
        <ele>571.2</ele>
        <time>2014-05-29T07:20:05Z</time>
      </trkpt>
      <trkpt lat="45.39143" lon="2.5364">
        <ele>568.8</ele>
        <time>2014-05-29T07:20:07Z</time>
      </trkpt>
      <trkpt lat="45.39151" lon="2.53641">
        <ele>566.6</ele>
        <time>2014-05-29T07:20:09Z</time>
      </trkpt>
      <trkpt lat="45.39158" lon="2.53644">
        <ele>563</ele>
        <time>2014-05-29T07:20:12Z</time>
      </trkpt>
      <trkpt lat="45.39165" lon="2.53648">
        <ele>559.4</ele>
        <time>2014-05-29T07:20:16Z</time>
      </trkpt>
      <trkpt lat="45.39167" lon="2.53649">
        <ele>558.8</ele>
        <time>2014-05-29T07:20:17Z</time>
      </trkpt>
      <trkpt lat="45.39177" lon="2.5365">
        <ele>554.6</ele>
        <time>2014-05-29T07:20:21Z</time>
      </trkpt>
      <trkpt lat="45.39186" lon="2.53648">
        <ele>552</ele>
        <time>2014-05-29T07:20:24Z</time>
      </trkpt>
      <trkpt lat="45.39192" lon="2.53649">
        <ele>550.6</ele>
        <time>2014-05-29T07:20:26Z</time>
      </trkpt>
      <trkpt lat="45.39201" lon="2.53645">
        <ele>548.1</ele>
        <time>2014-05-29T07:20:29Z</time>
      </trkpt>
      <trkpt lat="45.39208" lon="2.53639">
        <ele>545.9</ele>
        <time>2014-05-29T07:20:32Z</time>
      </trkpt>
      <trkpt lat="45.39215" lon="2.53634">
        <ele>544.5</ele>
        <time>2014-05-29T07:20:34Z</time>
      </trkpt>
      <trkpt lat="45.39222" lon="2.53629">
        <ele>542.8</ele>
        <time>2014-05-29T07:20:36Z</time>
      </trkpt>
      <trkpt lat="45.39228" lon="2.53627">
        <ele>542</ele>
        <time>2014-05-29T07:20:38Z</time>
      </trkpt>
      <trkpt lat="45.39233" lon="2.53623">
        <ele>539.9</ele>
        <time>2014-05-29T07:20:40Z</time>
      </trkpt>
      <trkpt lat="45.3924" lon="2.53614">
        <ele>538.4</ele>
        <time>2014-05-29T07:20:42Z</time>
      </trkpt>
      <trkpt lat="45.39244" lon="2.53611">
        <ele>537.8</ele>
        <time>2014-05-29T07:20:43Z</time>
      </trkpt>
      <trkpt lat="45.39248" lon="2.53607">
        <ele>536.9</ele>
        <time>2014-05-29T07:20:44Z</time>
      </trkpt>
      <trkpt lat="45.39255" lon="2.53601">
        <ele>535.8</ele>
        <time>2014-05-29T07:20:46Z</time>
      </trkpt>
      <trkpt lat="45.39263" lon="2.536">
        <ele>533.6</ele>
        <time>2014-05-29T07:20:49Z</time>
      </trkpt>
      <trkpt lat="45.39266" lon="2.53608">
        <ele>532.4</ele>
        <time>2014-05-29T07:20:51Z</time>
      </trkpt>
      <trkpt lat="45.39271" lon="2.53618">
        <ele>531.2</ele>
        <time>2014-05-29T07:20:54Z</time>
      </trkpt>
      <trkpt lat="45.39276" lon="2.53621">
        <ele>529.8</ele>
        <time>2014-05-29T07:20:56Z</time>
      </trkpt>
      <trkpt lat="45.39282" lon="2.53623">
        <ele>527.7</ele>
        <time>2014-05-29T07:20:58Z</time>
      </trkpt>
      <trkpt lat="45.39288" lon="2.53619">
        <ele>525.8</ele>
        <time>2014-05-29T07:21:00Z</time>
      </trkpt>
      <trkpt lat="45.39293" lon="2.53615">
        <ele>525.2</ele>
        <time>2014-05-29T07:21:02Z</time>
      </trkpt>
      <trkpt lat="45.39298" lon="2.53609">
        <ele>524.6</ele>
        <time>2014-05-29T07:21:04Z</time>
      </trkpt>
      <trkpt lat="45.39303" lon="2.53603">
        <ele>524.3</ele>
        <time>2014-05-29T07:21:06Z</time>
      </trkpt>
      <trkpt lat="45.39308" lon="2.53597">
        <ele>524.1</ele>
        <time>2014-05-29T07:21:08Z</time>
      </trkpt>
      <trkpt lat="45.39313" lon="2.53591">
        <ele>523.7</ele>
        <time>2014-05-29T07:21:10Z</time>
      </trkpt>
      <trkpt lat="45.39318" lon="2.53582">
        <ele>523.2</ele>
        <time>2014-05-29T07:21:12Z</time>
      </trkpt>
      <trkpt lat="45.39321" lon="2.53577">
        <ele>523.4</ele>
        <time>2014-05-29T07:21:13Z</time>
      </trkpt>
      <trkpt lat="45.39323" lon="2.53571">
        <ele>523.5</ele>
        <time>2014-05-29T07:21:14Z</time>
      </trkpt>
      <trkpt lat="45.39326" lon="2.53565">
        <ele>523.1</ele>
        <time>2014-05-29T07:21:15Z</time>
      </trkpt>
      <trkpt lat="45.39329" lon="2.5356">
        <ele>522.7</ele>
        <time>2014-05-29T07:21:16Z</time>
      </trkpt>
      <trkpt lat="45.39332" lon="2.53554">
        <ele>522</ele>
        <time>2014-05-29T07:21:17Z</time>
      </trkpt>
      <trkpt lat="45.39335" lon="2.53549">
        <ele>521.5</ele>
        <time>2014-05-29T07:21:18Z</time>
      </trkpt>
      <trkpt lat="45.39344" lon="2.53538">
        <ele>520.4</ele>
        <time>2014-05-29T07:21:22Z</time>
      </trkpt>
      <trkpt lat="45.3935" lon="2.53533">
        <ele>520.7</ele>
        <time>2014-05-29T07:21:25Z</time>
      </trkpt>
      <trkpt lat="45.39356" lon="2.53526">
        <ele>521.8</ele>
        <time>2014-05-29T07:21:28Z</time>
      </trkpt>
      <trkpt lat="45.39361" lon="2.53515">
        <ele>523.9</ele>
        <time>2014-05-29T07:21:32Z</time>
      </trkpt>
      <trkpt lat="45.39362" lon="2.53504">
        <ele>526.5</ele>
        <time>2014-05-29T07:21:38Z</time>
      </trkpt>
      <trkpt lat="45.39364" lon="2.53493">
        <ele>527.8</ele>
        <time>2014-05-29T07:21:44Z</time>
      </trkpt>
      <trkpt lat="45.39366" lon="2.53482">
        <ele>527.7</ele>
        <time>2014-05-29T07:21:49Z</time>
      </trkpt>
      <trkpt lat="45.39369" lon="2.53471">
        <ele>529.9</ele>
        <time>2014-05-29T07:21:54Z</time>
      </trkpt>
      <trkpt lat="45.39374" lon="2.53462">
        <ele>530.3</ele>
        <time>2014-05-29T07:21:59Z</time>
      </trkpt>
      <trkpt lat="45.39378" lon="2.53453">
        <ele>531.2</ele>
        <time>2014-05-29T07:22:03Z</time>
      </trkpt>
      <trkpt lat="45.39383" lon="2.53443">
        <ele>532.1</ele>
        <time>2014-05-29T07:22:08Z</time>
      </trkpt>
      <trkpt lat="45.39387" lon="2.53435">
        <ele>532.9</ele>
        <time>2014-05-29T07:22:12Z</time>
      </trkpt>
      <trkpt lat="45.3939" lon="2.53426">
        <ele>534.9</ele>
        <time>2014-05-29T07:22:16Z</time>
      </trkpt>
      <trkpt lat="45.39396" lon="2.53419">
        <ele>536.4</ele>
        <time>2014-05-29T07:22:20Z</time>
      </trkpt>
      <trkpt lat="45.39398" lon="2.53418">
        <ele>536.4</ele>
        <time>2014-05-29T07:22:21Z</time>
      </trkpt>
      <trkpt lat="45.3941" lon="2.5341">
        <ele>537</ele>
        <time>2014-05-29T07:22:26Z</time>
      </trkpt>
      <trkpt lat="45.39417" lon="2.53406">
        <ele>537.2</ele>
        <time>2014-05-29T07:22:29Z</time>
      </trkpt>
      <trkpt lat="45.39424" lon="2.53401">
        <ele>537.3</ele>
        <time>2014-05-29T07:22:32Z</time>
      </trkpt>
      <trkpt lat="45.39428" lon="2.53392">
        <ele>537.6</ele>
        <time>2014-05-29T07:22:35Z</time>
      </trkpt>
      <trkpt lat="45.3943" lon="2.53381">
        <ele>537.8</ele>
        <time>2014-05-29T07:22:39Z</time>
      </trkpt>
      <trkpt lat="45.39431" lon="2.5337">
        <ele>538.5</ele>
        <time>2014-05-29T07:22:43Z</time>
      </trkpt>
      <trkpt lat="45.39433" lon="2.53359">
        <ele>539.6</ele>
        <time>2014-05-29T07:22:48Z</time>
      </trkpt>
      <trkpt lat="45.39438" lon="2.53349">
        <ele>541.3</ele>
        <time>2014-05-29T07:22:53Z</time>
      </trkpt>
      <trkpt lat="45.39442" lon="2.5334">
        <ele>541.8</ele>
        <time>2014-05-29T07:22:57Z</time>
      </trkpt>
      <trkpt lat="45.39447" lon="2.53333">
        <ele>542.5</ele>
        <time>2014-05-29T07:23:01Z</time>
      </trkpt>
      <trkpt lat="45.39453" lon="2.53326">
        <ele>543.5</ele>
        <time>2014-05-29T07:23:05Z</time>
      </trkpt>
      <trkpt lat="45.3946" lon="2.5332">
        <ele>544.7</ele>
        <time>2014-05-29T07:23:09Z</time>
      </trkpt>
      <trkpt lat="45.39468" lon="2.53314">
        <ele>545.7</ele>
        <time>2014-05-29T07:23:14Z</time>
      </trkpt>
      <trkpt lat="45.39475" lon="2.53308">
        <ele>546.6</ele>
        <time>2014-05-29T07:23:19Z</time>
      </trkpt>
      <trkpt lat="45.39481" lon="2.533">
        <ele>547.7</ele>
        <time>2014-05-29T07:23:24Z</time>
      </trkpt>
      <trkpt lat="45.39482" lon="2.53298">
        <ele>547.8</ele>
        <time>2014-05-29T07:23:25Z</time>
      </trkpt>
      <trkpt lat="45.39492" lon="2.53281">
        <ele>550.2</ele>
        <time>2014-05-29T07:23:37Z</time>
      </trkpt>
      <trkpt lat="45.39498" lon="2.53271">
        <ele>550.5</ele>
        <time>2014-05-29T07:23:44Z</time>
      </trkpt>
      <trkpt lat="45.39504" lon="2.53262">
        <ele>552</ele>
        <time>2014-05-29T07:23:50Z</time>
      </trkpt>
      <trkpt lat="45.39509" lon="2.53253">
        <ele>552.9</ele>
        <time>2014-05-29T07:23:54Z</time>
      </trkpt>
      <trkpt lat="45.39514" lon="2.53246">
        <ele>553.1</ele>
        <time>2014-05-29T07:23:57Z</time>
      </trkpt>
      <trkpt lat="45.3952" lon="2.53242">
        <ele>554</ele>
        <time>2014-05-29T07:24:00Z</time>
      </trkpt>
      <trkpt lat="45.39528" lon="2.53238">
        <ele>554.6</ele>
        <time>2014-05-29T07:24:04Z</time>
      </trkpt>
      <trkpt lat="45.39536" lon="2.53236">
        <ele>555.1</ele>
        <time>2014-05-29T07:24:08Z</time>
      </trkpt>
      <trkpt lat="45.39544" lon="2.53234">
        <ele>555.4</ele>
        <time>2014-05-29T07:24:12Z</time>
      </trkpt>
      <trkpt lat="45.39551" lon="2.53233">
        <ele>556.2</ele>
        <time>2014-05-29T07:24:16Z</time>
      </trkpt>
      <trkpt lat="45.39559" lon="2.53233">
        <ele>557.1</ele>
        <time>2014-05-29T07:24:20Z</time>
      </trkpt>
      <trkpt lat="45.39568" lon="2.53231">
        <ele>557.1</ele>
        <time>2014-05-29T07:24:25Z</time>
      </trkpt>
      <trkpt lat="45.3957" lon="2.53231">
        <ele>557</ele>
        <time>2014-05-29T07:24:26Z</time>
      </trkpt>
      <trkpt lat="45.39583" lon="2.5323">
        <ele>557.9</ele>
        <time>2014-05-29T07:24:33Z</time>
      </trkpt>
      <trkpt lat="45.39591" lon="2.53231">
        <ele>558.5</ele>
        <time>2014-05-29T07:24:38Z</time>
      </trkpt>
      <trkpt lat="45.396" lon="2.53233">
        <ele>559.6</ele>
        <time>2014-05-29T07:24:43Z</time>
      </trkpt>
      <trkpt lat="45.39608" lon="2.53236">
        <ele>560.3</ele>
        <time>2014-05-29T07:24:49Z</time>
      </trkpt>
      <trkpt lat="45.39616" lon="2.53238">
        <ele>561.9</ele>
        <time>2014-05-29T07:24:55Z</time>
      </trkpt>
      <trkpt lat="45.39623" lon="2.53236">
        <ele>562.5</ele>
        <time>2014-05-29T07:24:59Z</time>
      </trkpt>
      <trkpt lat="45.39631" lon="2.5323">
        <ele>563.2</ele>
        <time>2014-05-29T07:25:04Z</time>
      </trkpt>
      <trkpt lat="45.39636" lon="2.53222">
        <ele>565.6</ele>
        <time>2014-05-29T07:25:15Z</time>
      </trkpt>
      <trkpt lat="45.39639" lon="2.53211">
        <ele>566.8</ele>
        <time>2014-05-29T07:25:23Z</time>
      </trkpt>
      <trkpt lat="45.39642" lon="2.532">
        <ele>569.3</ele>
        <time>2014-05-29T07:25:31Z</time>
      </trkpt>
      <trkpt lat="45.39642" lon="2.53198">
        <ele>569.3</ele>
        <time>2014-05-29T07:25:32Z</time>
      </trkpt>
      <trkpt lat="45.39645" lon="2.53177">
        <ele>572.5</ele>
        <time>2014-05-29T07:25:44Z</time>
      </trkpt>
      <trkpt lat="45.39645" lon="2.53165">
        <ele>573.9</ele>
        <time>2014-05-29T07:25:50Z</time>
      </trkpt>
      <trkpt lat="45.39645" lon="2.53152">
        <ele>574.9</ele>
        <time>2014-05-29T07:25:56Z</time>
      </trkpt>
      <trkpt lat="45.39645" lon="2.5314">
        <ele>576.5</ele>
        <time>2014-05-29T07:26:02Z</time>
      </trkpt>
      <trkpt lat="45.39643" lon="2.53128">
        <ele>578.3</ele>
        <time>2014-05-29T07:26:08Z</time>
      </trkpt>
      <trkpt lat="45.39641" lon="2.53117">
        <ele>579.1</ele>
        <time>2014-05-29T07:26:13Z</time>
      </trkpt>
      <trkpt lat="45.3964" lon="2.53105">
        <ele>580.1</ele>
        <time>2014-05-29T07:26:19Z</time>
      </trkpt>
      <trkpt lat="45.39638" lon="2.53094">
        <ele>581</ele>
        <time>2014-05-29T07:26:23Z</time>
      </trkpt>
      <trkpt lat="45.39635" lon="2.53084">
        <ele>581.6</ele>
        <time>2014-05-29T07:26:27Z</time>
      </trkpt>
      <trkpt lat="45.39632" lon="2.53074">
        <ele>582.2</ele>
        <time>2014-05-29T07:26:31Z</time>
      </trkpt>
      <trkpt lat="45.3964" lon="2.53068">
        <ele>583.4</ele>
        <time>2014-05-29T07:26:39Z</time>
      </trkpt>
      <trkpt lat="45.39641" lon="2.53069">
        <ele>583.7</ele>
        <time>2014-05-29T07:26:40Z</time>
      </trkpt>
      <trkpt lat="45.39654" lon="2.53082">
        <ele>586.5</ele>
        <time>2014-05-29T07:26:55Z</time>
      </trkpt>
      <trkpt lat="45.39658" lon="2.53093">
        <ele>588</ele>
        <time>2014-05-29T07:27:04Z</time>
      </trkpt>
      <trkpt lat="45.39658" lon="2.53106">
        <ele>589.4</ele>
        <time>2014-05-29T07:27:11Z</time>
      </trkpt>
      <trkpt lat="45.39659" lon="2.53118">
        <ele>589.6</ele>
        <time>2014-05-29T07:27:16Z</time>
      </trkpt>
      <trkpt lat="45.39661" lon="2.5313">
        <ele>590.7</ele>
        <time>2014-05-29T07:27:21Z</time>
      </trkpt>
      <trkpt lat="45.39664" lon="2.53141">
        <ele>592</ele>
        <time>2014-05-29T07:27:25Z</time>
      </trkpt>
      <trkpt lat="45.39668" lon="2.53152">
        <ele>592.7</ele>
        <time>2014-05-29T07:27:30Z</time>
      </trkpt>
      <trkpt lat="45.39673" lon="2.53158">
        <ele>593.6</ele>
        <time>2014-05-29T07:27:33Z</time>
      </trkpt>
      <trkpt lat="45.3968" lon="2.53163">
        <ele>594.4</ele>
        <time>2014-05-29T07:27:36Z</time>
      </trkpt>
      <trkpt lat="45.39688" lon="2.53164">
        <ele>595.4</ele>
        <time>2014-05-29T07:27:39Z</time>
      </trkpt>
      <trkpt lat="45.39695" lon="2.53164">
        <ele>596</ele>
        <time>2014-05-29T07:27:42Z</time>
      </trkpt>
      <trkpt lat="45.39698" lon="2.53164">
        <ele>596</ele>
        <time>2014-05-29T07:27:43Z</time>
      </trkpt>
      <trkpt lat="45.39711" lon="2.53163">
        <ele>596.4</ele>
        <time>2014-05-29T07:27:48Z</time>
      </trkpt>
      <trkpt lat="45.39717" lon="2.53162">
        <ele>596.6</ele>
        <time>2014-05-29T07:27:51Z</time>
      </trkpt>
      <trkpt lat="45.39726" lon="2.53159">
        <ele>597.5</ele>
        <time>2014-05-29T07:27:55Z</time>
      </trkpt>
      <trkpt lat="45.39733" lon="2.53158">
        <ele>598.6</ele>
        <time>2014-05-29T07:27:58Z</time>
      </trkpt>
      <trkpt lat="45.39741" lon="2.53154">
        <ele>599.3</ele>
        <time>2014-05-29T07:28:02Z</time>
      </trkpt>
      <trkpt lat="45.39747" lon="2.53148">
        <ele>600.6</ele>
        <time>2014-05-29T07:28:07Z</time>
      </trkpt>
      <trkpt lat="45.39747" lon="2.53137">
        <ele>601.5</ele>
        <time>2014-05-29T07:28:11Z</time>
      </trkpt>
      <trkpt lat="45.39745" lon="2.53124">
        <ele>602.1</ele>
        <time>2014-05-29T07:28:15Z</time>
      </trkpt>
      <trkpt lat="45.39743" lon="2.53115">
        <ele>603.3</ele>
        <time>2014-05-29T07:28:18Z</time>
      </trkpt>
      <trkpt lat="45.39741" lon="2.53106">
        <ele>604.6</ele>
        <time>2014-05-29T07:28:21Z</time>
      </trkpt>
      <trkpt lat="45.39738" lon="2.53094">
        <ele>604.5</ele>
        <time>2014-05-29T07:28:25Z</time>
      </trkpt>
      <trkpt lat="45.39736" lon="2.53085">
        <ele>605</ele>
        <time>2014-05-29T07:28:28Z</time>
      </trkpt>
      <trkpt lat="45.39736" lon="2.53074">
        <ele>606.4</ele>
        <time>2014-05-29T07:28:31Z</time>
      </trkpt>
      <trkpt lat="45.39738" lon="2.53062">
        <ele>606.1</ele>
        <time>2014-05-29T07:28:34Z</time>
      </trkpt>
      <trkpt lat="45.3974" lon="2.53054">
        <ele>605.9</ele>
        <time>2014-05-29T07:28:36Z</time>
      </trkpt>
      <trkpt lat="45.39744" lon="2.53046">
        <ele>605.9</ele>
        <time>2014-05-29T07:28:38Z</time>
      </trkpt>
      <trkpt lat="45.39748" lon="2.53038">
        <ele>605.9</ele>
        <time>2014-05-29T07:28:40Z</time>
      </trkpt>
      <trkpt lat="45.39752" lon="2.53031">
        <ele>605.7</ele>
        <time>2014-05-29T07:28:42Z</time>
      </trkpt>
      <trkpt lat="45.39758" lon="2.53026">
        <ele>605.7</ele>
        <time>2014-05-29T07:28:44Z</time>
      </trkpt>
      <trkpt lat="45.39761" lon="2.53024">
        <ele>605.7</ele>
        <time>2014-05-29T07:28:45Z</time>
      </trkpt>
      <trkpt lat="45.3977" lon="2.53027">
        <ele>606</ele>
        <time>2014-05-29T07:28:48Z</time>
      </trkpt>
      <trkpt lat="45.39776" lon="2.53032">
        <ele>605.9</ele>
        <time>2014-05-29T07:28:50Z</time>
      </trkpt>
      <trkpt lat="45.39782" lon="2.53037">
        <ele>606.4</ele>
        <time>2014-05-29T07:28:52Z</time>
      </trkpt>
      <trkpt lat="45.39787" lon="2.53043">
        <ele>606.6</ele>
        <time>2014-05-29T07:28:54Z</time>
      </trkpt>
      <trkpt lat="45.39793" lon="2.53049">
        <ele>607.2</ele>
        <time>2014-05-29T07:28:56Z</time>
      </trkpt>
      <trkpt lat="45.39798" lon="2.53056">
        <ele>607.3</ele>
        <time>2014-05-29T07:28:58Z</time>
      </trkpt>
      <trkpt lat="45.39804" lon="2.53062">
        <ele>607.1</ele>
        <time>2014-05-29T07:29:00Z</time>
      </trkpt>
      <trkpt lat="45.39809" lon="2.53069">
        <ele>607</ele>
        <time>2014-05-29T07:29:02Z</time>
      </trkpt>
      <trkpt lat="45.39815" lon="2.53075">
        <ele>606.9</ele>
        <time>2014-05-29T07:29:04Z</time>
      </trkpt>
      <trkpt lat="45.3982" lon="2.53081">
        <ele>607.3</ele>
        <time>2014-05-29T07:29:06Z</time>
      </trkpt>
      <trkpt lat="45.39825" lon="2.53086">
        <ele>607.5</ele>
        <time>2014-05-29T07:29:08Z</time>
      </trkpt>
      <trkpt lat="45.39831" lon="2.5309">
        <ele>607.9</ele>
        <time>2014-05-29T07:29:10Z</time>
      </trkpt>
      <trkpt lat="45.39836" lon="2.53094">
        <ele>608.3</ele>
        <time>2014-05-29T07:29:12Z</time>
      </trkpt>
      <trkpt lat="45.39843" lon="2.53096">
        <ele>609.1</ele>
        <time>2014-05-29T07:29:14Z</time>
      </trkpt>
      <trkpt lat="45.39849" lon="2.53097">
        <ele>610</ele>
        <time>2014-05-29T07:29:16Z</time>
      </trkpt>
      <trkpt lat="45.39855" lon="2.53096">
        <ele>609.8</ele>
        <time>2014-05-29T07:29:18Z</time>
      </trkpt>
      <trkpt lat="45.39863" lon="2.5309">
        <ele>611</ele>
        <time>2014-05-29T07:29:21Z</time>
      </trkpt>
      <trkpt lat="45.39869" lon="2.53082">
        <ele>612.1</ele>
        <time>2014-05-29T07:29:24Z</time>
      </trkpt>
      <trkpt lat="45.39875" lon="2.53074">
        <ele>612.9</ele>
        <time>2014-05-29T07:29:28Z</time>
      </trkpt>
      <trkpt lat="45.3988" lon="2.53067">
        <ele>614</ele>
        <time>2014-05-29T07:29:31Z</time>
      </trkpt>
      <trkpt lat="45.39885" lon="2.5306">
        <ele>614.8</ele>
        <time>2014-05-29T07:29:34Z</time>
      </trkpt>
      <trkpt lat="45.3989" lon="2.53052">
        <ele>615.7</ele>
        <time>2014-05-29T07:29:37Z</time>
      </trkpt>
      <trkpt lat="45.39895" lon="2.53044">
        <ele>615.9</ele>
        <time>2014-05-29T07:29:40Z</time>
      </trkpt>
      <trkpt lat="45.39901" lon="2.53036">
        <ele>615.9</ele>
        <time>2014-05-29T07:29:43Z</time>
      </trkpt>
      <trkpt lat="45.39907" lon="2.53029">
        <ele>617</ele>
        <time>2014-05-29T07:29:46Z</time>
      </trkpt>
      <trkpt lat="45.39909" lon="2.53026">
        <ele>617.3</ele>
        <time>2014-05-29T07:29:47Z</time>
      </trkpt>
      <trkpt lat="45.39921" lon="2.53024">
        <ele>617.5</ele>
        <time>2014-05-29T07:29:52Z</time>
      </trkpt>
      <trkpt lat="45.39925" lon="2.53034">
        <ele>617.9</ele>
        <time>2014-05-29T07:29:55Z</time>
      </trkpt>
      <trkpt lat="45.39929" lon="2.53044">
        <ele>618.5</ele>
        <time>2014-05-29T07:29:58Z</time>
      </trkpt>
      <trkpt lat="45.39935" lon="2.53054">
        <ele>618.1</ele>
        <time>2014-05-29T07:30:01Z</time>
      </trkpt>
      <trkpt lat="45.3994" lon="2.53063">
        <ele>618.6</ele>
        <time>2014-05-29T07:30:04Z</time>
      </trkpt>
      <trkpt lat="45.39946" lon="2.53071">
        <ele>619.5</ele>
        <time>2014-05-29T07:30:08Z</time>
      </trkpt>
      <trkpt lat="45.39952" lon="2.53079">
        <ele>621.1</ele>
        <time>2014-05-29T07:30:12Z</time>
      </trkpt>
      <trkpt lat="45.39958" lon="2.53085">
        <ele>621.7</ele>
        <time>2014-05-29T07:30:16Z</time>
      </trkpt>
      <trkpt lat="45.39966" lon="2.53091">
        <ele>622.7</ele>
        <time>2014-05-29T07:30:21Z</time>
      </trkpt>
      <trkpt lat="45.39973" lon="2.53094">
        <ele>623</ele>
        <time>2014-05-29T07:30:24Z</time>
      </trkpt>
      <trkpt lat="45.3998" lon="2.53098">
        <ele>624</ele>
        <time>2014-05-29T07:30:27Z</time>
      </trkpt>
      <trkpt lat="45.39986" lon="2.53101">
        <ele>624.3</ele>
        <time>2014-05-29T07:30:30Z</time>
      </trkpt>
      <trkpt lat="45.39992" lon="2.53104">
        <ele>624.4</ele>
        <time>2014-05-29T07:30:32Z</time>
      </trkpt>
      <trkpt lat="45.39998" lon="2.53107">
        <ele>624.7</ele>
        <time>2014-05-29T07:30:34Z</time>
      </trkpt>
      <trkpt lat="45.40005" lon="2.5311">
        <ele>624.7</ele>
        <time>2014-05-29T07:30:37Z</time>
      </trkpt>
      <trkpt lat="45.40012" lon="2.53113">
        <ele>624.9</ele>
        <time>2014-05-29T07:30:40Z</time>
      </trkpt>
      <trkpt lat="45.40017" lon="2.53117">
        <ele>625.2</ele>
        <time>2014-05-29T07:30:42Z</time>
      </trkpt>
      <trkpt lat="45.40023" lon="2.53123">
        <ele>625.3</ele>
        <time>2014-05-29T07:30:44Z</time>
      </trkpt>
      <trkpt lat="45.40025" lon="2.53131">
        <ele>625.5</ele>
        <time>2014-05-29T07:30:46Z</time>
      </trkpt>
      <trkpt lat="45.40029" lon="2.53143">
        <ele>624.9</ele>
        <time>2014-05-29T07:30:48Z</time>
      </trkpt>
      <trkpt lat="45.4003" lon="2.53149">
        <ele>624.9</ele>
        <time>2014-05-29T07:30:49Z</time>
      </trkpt>
      <trkpt lat="45.40029" lon="2.53156">
        <ele>625</ele>
        <time>2014-05-29T07:30:50Z</time>
      </trkpt>
      <trkpt lat="45.40028" lon="2.53162">
        <ele>625</ele>
        <time>2014-05-29T07:30:51Z</time>
      </trkpt>
      <trkpt lat="45.40027" lon="2.5317">
        <ele>624.7</ele>
        <time>2014-05-29T07:30:52Z</time>
      </trkpt>
      <trkpt lat="45.40026" lon="2.53178">
        <ele>624.5</ele>
        <time>2014-05-29T07:30:53Z</time>
      </trkpt>
      <trkpt lat="45.40024" lon="2.53186">
        <ele>624.2</ele>
        <time>2014-05-29T07:30:54Z</time>
      </trkpt>
      <trkpt lat="45.40023" lon="2.53195">
        <ele>623.9</ele>
        <time>2014-05-29T07:30:55Z</time>
      </trkpt>
      <trkpt lat="45.40021" lon="2.53203">
        <ele>623.5</ele>
        <time>2014-05-29T07:30:56Z</time>
      </trkpt>
      <trkpt lat="45.40021" lon="2.53212">
        <ele>623.2</ele>
        <time>2014-05-29T07:30:57Z</time>
      </trkpt>
      <trkpt lat="45.40022" lon="2.53221">
        <ele>623</ele>
        <time>2014-05-29T07:30:58Z</time>
      </trkpt>
      <trkpt lat="45.40024" lon="2.53228">
        <ele>623.1</ele>
        <time>2014-05-29T07:30:59Z</time>
      </trkpt>
      <trkpt lat="45.40026" lon="2.53236">
        <ele>623.1</ele>
        <time>2014-05-29T07:31:00Z</time>
      </trkpt>
      <trkpt lat="45.40027" lon="2.53244">
        <ele>623.1</ele>
        <time>2014-05-29T07:31:01Z</time>
      </trkpt>
      <trkpt lat="45.40029" lon="2.53252">
        <ele>623.1</ele>
        <time>2014-05-29T07:31:02Z</time>
      </trkpt>
      <trkpt lat="45.40031" lon="2.5326">
        <ele>623</ele>
        <time>2014-05-29T07:31:03Z</time>
      </trkpt>
      <trkpt lat="45.40033" lon="2.53266">
        <ele>623</ele>
        <time>2014-05-29T07:31:04Z</time>
      </trkpt>
      <trkpt lat="45.40038" lon="2.53275">
        <ele>623.2</ele>
        <time>2014-05-29T07:31:06Z</time>
      </trkpt>
      <trkpt lat="45.40043" lon="2.53283">
        <ele>623.8</ele>
        <time>2014-05-29T07:31:08Z</time>
      </trkpt>
      <trkpt lat="45.40048" lon="2.53289">
        <ele>624.3</ele>
        <time>2014-05-29T07:31:10Z</time>
      </trkpt>
      <trkpt lat="45.40055" lon="2.53292">
        <ele>624.7</ele>
        <time>2014-05-29T07:31:12Z</time>
      </trkpt>
      <trkpt lat="45.4006" lon="2.53294">
        <ele>624.9</ele>
        <time>2014-05-29T07:31:13Z</time>
      </trkpt>
      <trkpt lat="45.40065" lon="2.53295">
        <ele>625</ele>
        <time>2014-05-29T07:31:14Z</time>
      </trkpt>
      <trkpt lat="45.4007" lon="2.53297">
        <ele>624.9</ele>
        <time>2014-05-29T07:31:15Z</time>
      </trkpt>
      <trkpt lat="45.40075" lon="2.53299">
        <ele>624.8</ele>
        <time>2014-05-29T07:31:16Z</time>
      </trkpt>
      <trkpt lat="45.4008" lon="2.53303">
        <ele>624.7</ele>
        <time>2014-05-29T07:31:17Z</time>
      </trkpt>
      <trkpt lat="45.40084" lon="2.53306">
        <ele>624.7</ele>
        <time>2014-05-29T07:31:18Z</time>
      </trkpt>
      <trkpt lat="45.40089" lon="2.5331">
        <ele>624.7</ele>
        <time>2014-05-29T07:31:19Z</time>
      </trkpt>
      <trkpt lat="45.40096" lon="2.53315">
        <ele>624.8</ele>
        <time>2014-05-29T07:31:21Z</time>
      </trkpt>
      <trkpt lat="45.40105" lon="2.53317">
        <ele>624.6</ele>
        <time>2014-05-29T07:31:23Z</time>
      </trkpt>
      <trkpt lat="45.40112" lon="2.53313">
        <ele>624.8</ele>
        <time>2014-05-29T07:31:25Z</time>
      </trkpt>
      <trkpt lat="45.40118" lon="2.53309">
        <ele>625.2</ele>
        <time>2014-05-29T07:31:27Z</time>
      </trkpt>
      <trkpt lat="45.40125" lon="2.53303">
        <ele>625.4</ele>
        <time>2014-05-29T07:31:30Z</time>
      </trkpt>
      <trkpt lat="45.40133" lon="2.53301">
        <ele>625.9</ele>
        <time>2014-05-29T07:31:33Z</time>
      </trkpt>
      <trkpt lat="45.40142" lon="2.533">
        <ele>627.3</ele>
        <time>2014-05-29T07:31:36Z</time>
      </trkpt>
      <trkpt lat="45.40149" lon="2.533">
        <ele>628.1</ele>
        <time>2014-05-29T07:31:39Z</time>
      </trkpt>
      <trkpt lat="45.40156" lon="2.53302">
        <ele>628.6</ele>
        <time>2014-05-29T07:31:42Z</time>
      </trkpt>
      <trkpt lat="45.40162" lon="2.53306">
        <ele>629.9</ele>
        <time>2014-05-29T07:31:45Z</time>
      </trkpt>
      <trkpt lat="45.40161" lon="2.53318">
        <ele>632.4</ele>
        <time>2014-05-29T07:31:50Z</time>
      </trkpt>
      <trkpt lat="45.4016" lon="2.5332">
        <ele>632.5</ele>
        <time>2014-05-29T07:31:51Z</time>
      </trkpt>
      <trkpt lat="45.40152" lon="2.53335">
        <ele>634.8</ele>
        <time>2014-05-29T07:31:59Z</time>
      </trkpt>
      <trkpt lat="45.40149" lon="2.53346">
        <ele>636</ele>
        <time>2014-05-29T07:32:03Z</time>
      </trkpt>
      <trkpt lat="45.40146" lon="2.53358">
        <ele>637</ele>
        <time>2014-05-29T07:32:08Z</time>
      </trkpt>
      <trkpt lat="45.40143" lon="2.53367">
        <ele>637.3</ele>
        <time>2014-05-29T07:32:11Z</time>
      </trkpt>
      <trkpt lat="45.40141" lon="2.53376">
        <ele>637.7</ele>
        <time>2014-05-29T07:32:13Z</time>
      </trkpt>
      <trkpt lat="45.40139" lon="2.53385">
        <ele>637.6</ele>
        <time>2014-05-29T07:32:15Z</time>
      </trkpt>
      <trkpt lat="45.40138" lon="2.53394">
        <ele>637.3</ele>
        <time>2014-05-29T07:32:17Z</time>
      </trkpt>
      <trkpt lat="45.4014" lon="2.53404">
        <ele>637</ele>
        <time>2014-05-29T07:32:19Z</time>
      </trkpt>
      <trkpt lat="45.40142" lon="2.5341">
        <ele>636.8</ele>
        <time>2014-05-29T07:32:20Z</time>
      </trkpt>
      <trkpt lat="45.40145" lon="2.53416">
        <ele>636.6</ele>
        <time>2014-05-29T07:32:21Z</time>
      </trkpt>
      <trkpt lat="45.40148" lon="2.53422">
        <ele>636.3</ele>
        <time>2014-05-29T07:32:22Z</time>
      </trkpt>
      <trkpt lat="45.40151" lon="2.53429">
        <ele>636.1</ele>
        <time>2014-05-29T07:32:23Z</time>
      </trkpt>
      <trkpt lat="45.40155" lon="2.53436">
        <ele>635.8</ele>
        <time>2014-05-29T07:32:24Z</time>
      </trkpt>
      <trkpt lat="45.40158" lon="2.53442">
        <ele>635.6</ele>
        <time>2014-05-29T07:32:25Z</time>
      </trkpt>
      <trkpt lat="45.40161" lon="2.53448">
        <ele>635.5</ele>
        <time>2014-05-29T07:32:26Z</time>
      </trkpt>
      <trkpt lat="45.40166" lon="2.53457">
        <ele>634.7</ele>
        <time>2014-05-29T07:32:28Z</time>
      </trkpt>
      <trkpt lat="45.4017" lon="2.53467">
        <ele>635</ele>
        <time>2014-05-29T07:32:30Z</time>
      </trkpt>
      <trkpt lat="45.40174" lon="2.53477">
        <ele>635.3</ele>
        <time>2014-05-29T07:32:32Z</time>
      </trkpt>
      <trkpt lat="45.40179" lon="2.53486">
        <ele>635.5</ele>
        <time>2014-05-29T07:32:34Z</time>
      </trkpt>
      <trkpt lat="45.40183" lon="2.53496">
        <ele>635.5</ele>
        <time>2014-05-29T07:32:36Z</time>
      </trkpt>
      <trkpt lat="45.40186" lon="2.53501">
        <ele>635.5</ele>
        <time>2014-05-29T07:32:37Z</time>
      </trkpt>
      <trkpt lat="45.40188" lon="2.53507">
        <ele>635.4</ele>
        <time>2014-05-29T07:32:38Z</time>
      </trkpt>
      <trkpt lat="45.4019" lon="2.53513">
        <ele>635.4</ele>
        <time>2014-05-29T07:32:39Z</time>
      </trkpt>
      <trkpt lat="45.40191" lon="2.53519">
        <ele>635.4</ele>
        <time>2014-05-29T07:32:40Z</time>
      </trkpt>
      <trkpt lat="45.40191" lon="2.53526">
        <ele>635.2</ele>
        <time>2014-05-29T07:32:41Z</time>
      </trkpt>
      <trkpt lat="45.40191" lon="2.53533">
        <ele>635.1</ele>
        <time>2014-05-29T07:32:42Z</time>
      </trkpt>
      <trkpt lat="45.40192" lon="2.53541">
        <ele>635.1</ele>
        <time>2014-05-29T07:32:43Z</time>
      </trkpt>
      <trkpt lat="45.40192" lon="2.5355">
        <ele>635</ele>
        <time>2014-05-29T07:32:44Z</time>
      </trkpt>
      <trkpt lat="45.40191" lon="2.53561">
        <ele>635</ele>
        <time>2014-05-29T07:32:45Z</time>
      </trkpt>
      <trkpt lat="45.4019" lon="2.53572">
        <ele>634.7</ele>
        <time>2014-05-29T07:32:46Z</time>
      </trkpt>
      <trkpt lat="45.40189" lon="2.53584">
        <ele>634.5</ele>
        <time>2014-05-29T07:32:47Z</time>
      </trkpt>
      <trkpt lat="45.40187" lon="2.53597">
        <ele>633.8</ele>
        <time>2014-05-29T07:32:48Z</time>
      </trkpt>
      <trkpt lat="45.40185" lon="2.53609">
        <ele>633.2</ele>
        <time>2014-05-29T07:32:49Z</time>
      </trkpt>
      <trkpt lat="45.40184" lon="2.53618">
        <ele>632.1</ele>
        <time>2014-05-29T07:32:50Z</time>
      </trkpt>
      <trkpt lat="45.40181" lon="2.53625">
        <ele>631.3</ele>
        <time>2014-05-29T07:32:51Z</time>
      </trkpt>
      <trkpt lat="45.40178" lon="2.5363">
        <ele>630.7</ele>
        <time>2014-05-29T07:32:52Z</time>
      </trkpt>
      <trkpt lat="45.40174" lon="2.53635">
        <ele>629.7</ele>
        <time>2014-05-29T07:32:53Z</time>
      </trkpt>
      <trkpt lat="45.4017" lon="2.53642">
        <ele>628.9</ele>
        <time>2014-05-29T07:32:54Z</time>
      </trkpt>
      <trkpt lat="45.40168" lon="2.53652">
        <ele>627.6</ele>
        <time>2014-05-29T07:32:55Z</time>
      </trkpt>
      <trkpt lat="45.40168" lon="2.53663">
        <ele>626.6</ele>
        <time>2014-05-29T07:32:56Z</time>
      </trkpt>
      <trkpt lat="45.40169" lon="2.53675">
        <ele>625.7</ele>
        <time>2014-05-29T07:32:57Z</time>
      </trkpt>
      <trkpt lat="45.40168" lon="2.53687">
        <ele>625.1</ele>
        <time>2014-05-29T07:32:58Z</time>
      </trkpt>
      <trkpt lat="45.40166" lon="2.53699">
        <ele>624.6</ele>
        <time>2014-05-29T07:32:59Z</time>
      </trkpt>
      <trkpt lat="45.40162" lon="2.53711">
        <ele>623.7</ele>
        <time>2014-05-29T07:33:00Z</time>
      </trkpt>
      <trkpt lat="45.40158" lon="2.53722">
        <ele>623.1</ele>
        <time>2014-05-29T07:33:01Z</time>
      </trkpt>
      <trkpt lat="45.40153" lon="2.53733">
        <ele>622.3</ele>
        <time>2014-05-29T07:33:02Z</time>
      </trkpt>
      <trkpt lat="45.4015" lon="2.53743">
        <ele>621.7</ele>
        <time>2014-05-29T07:33:03Z</time>
      </trkpt>
      <trkpt lat="45.40147" lon="2.53752">
        <ele>621.2</ele>
        <time>2014-05-29T07:33:04Z</time>
      </trkpt>
      <trkpt lat="45.40148" lon="2.53764">
        <ele>619.2</ele>
        <time>2014-05-29T07:33:06Z</time>
      </trkpt>
      <trkpt lat="45.40155" lon="2.53769">
        <ele>617.4</ele>
        <time>2014-05-29T07:33:08Z</time>
      </trkpt>
      <trkpt lat="45.4016" lon="2.53772">
        <ele>615.8</ele>
        <time>2014-05-29T07:33:09Z</time>
      </trkpt>
      <trkpt lat="45.40165" lon="2.53779">
        <ele>614.6</ele>
        <time>2014-05-29T07:33:10Z</time>
      </trkpt>
      <trkpt lat="45.4017" lon="2.5379">
        <ele>612.6</ele>
        <time>2014-05-29T07:33:12Z</time>
      </trkpt>
      <trkpt lat="45.40165" lon="2.538">
        <ele>609.7</ele>
        <time>2014-05-29T07:33:15Z</time>
      </trkpt>
      <trkpt lat="45.40161" lon="2.53809">
        <ele>608.1</ele>
        <time>2014-05-29T07:33:17Z</time>
      </trkpt>
      <trkpt lat="45.40156" lon="2.53815">
        <ele>608</ele>
        <time>2014-05-29T07:33:19Z</time>
      </trkpt>
      <trkpt lat="45.40153" lon="2.53824">
        <ele>608.7</ele>
        <time>2014-05-29T07:33:21Z</time>
      </trkpt>
      <trkpt lat="45.40147" lon="2.53832">
        <ele>609.4</ele>
        <time>2014-05-29T07:33:25Z</time>
      </trkpt>
      <trkpt lat="45.40141" lon="2.53841">
        <ele>612.3</ele>
        <time>2014-05-29T07:33:32Z</time>
      </trkpt>
      <trkpt lat="45.40136" lon="2.53848">
        <ele>613.4</ele>
        <time>2014-05-29T07:33:37Z</time>
      </trkpt>
      <trkpt lat="45.40131" lon="2.53856">
        <ele>614.6</ele>
        <time>2014-05-29T07:33:41Z</time>
      </trkpt>
      <trkpt lat="45.40125" lon="2.53863">
        <ele>615.3</ele>
        <time>2014-05-29T07:33:45Z</time>
      </trkpt>
      <trkpt lat="45.40118" lon="2.53872">
        <ele>615.5</ele>
        <time>2014-05-29T07:33:49Z</time>
      </trkpt>
      <trkpt lat="45.40112" lon="2.53881">
        <ele>616.2</ele>
        <time>2014-05-29T07:33:54Z</time>
      </trkpt>
      <trkpt lat="45.40111" lon="2.53882">
        <ele>616.4</ele>
        <time>2014-05-29T07:33:55Z</time>
      </trkpt>
      <trkpt lat="45.40098" lon="2.5389">
        <ele>616.7</ele>
        <time>2014-05-29T07:34:02Z</time>
      </trkpt>
      <trkpt lat="45.40092" lon="2.53893">
        <ele>617.5</ele>
        <time>2014-05-29T07:34:05Z</time>
      </trkpt>
      <trkpt lat="45.40084" lon="2.53894">
        <ele>617.2</ele>
        <time>2014-05-29T07:34:08Z</time>
      </trkpt>
      <trkpt lat="45.40077" lon="2.53895">
        <ele>617.3</ele>
        <time>2014-05-29T07:34:11Z</time>
      </trkpt>
      <trkpt lat="45.40069" lon="2.53893">
        <ele>618.4</ele>
        <time>2014-05-29T07:34:14Z</time>
      </trkpt>
      <trkpt lat="45.40062" lon="2.53893">
        <ele>619.5</ele>
        <time>2014-05-29T07:34:17Z</time>
      </trkpt>
      <trkpt lat="45.40054" lon="2.53893">
        <ele>621.1</ele>
        <time>2014-05-29T07:34:21Z</time>
      </trkpt>
      <trkpt lat="45.40047" lon="2.53898">
        <ele>621.7</ele>
        <time>2014-05-29T07:34:24Z</time>
      </trkpt>
      <trkpt lat="45.4004" lon="2.53903">
        <ele>622.5</ele>
        <time>2014-05-29T07:34:27Z</time>
      </trkpt>
      <trkpt lat="45.40034" lon="2.5391">
        <ele>622.9</ele>
        <time>2014-05-29T07:34:30Z</time>
      </trkpt>
      <trkpt lat="45.40028" lon="2.53915">
        <ele>623.2</ele>
        <time>2014-05-29T07:34:33Z</time>
      </trkpt>
      <trkpt lat="45.40021" lon="2.53923">
        <ele>623.9</ele>
        <time>2014-05-29T07:34:37Z</time>
      </trkpt>
      <trkpt lat="45.40015" lon="2.53931">
        <ele>624.7</ele>
        <time>2014-05-29T07:34:41Z</time>
      </trkpt>
      <trkpt lat="45.40008" lon="2.53939">
        <ele>625.9</ele>
        <time>2014-05-29T07:34:45Z</time>
      </trkpt>
      <trkpt lat="45.40003" lon="2.53949">
        <ele>627.3</ele>
        <time>2014-05-29T07:34:49Z</time>
      </trkpt>
      <trkpt lat="45.39996" lon="2.53958">
        <ele>628.2</ele>
        <time>2014-05-29T07:34:53Z</time>
      </trkpt>
      <trkpt lat="45.39992" lon="2.53968">
        <ele>629.5</ele>
        <time>2014-05-29T07:34:57Z</time>
      </trkpt>
      <trkpt lat="45.3999" lon="2.53971">
        <ele>629.8</ele>
        <time>2014-05-29T07:34:58Z</time>
      </trkpt>
      <trkpt lat="45.39982" lon="2.53987">
        <ele>632.1</ele>
        <time>2014-05-29T07:35:05Z</time>
      </trkpt>
      <trkpt lat="45.39979" lon="2.53997">
        <ele>632.4</ele>
        <time>2014-05-29T07:35:08Z</time>
      </trkpt>
      <trkpt lat="45.39975" lon="2.54007">
        <ele>632.4</ele>
        <time>2014-05-29T07:35:11Z</time>
      </trkpt>
      <trkpt lat="45.39971" lon="2.54018">
        <ele>632.9</ele>
        <time>2014-05-29T07:35:14Z</time>
      </trkpt>
      <trkpt lat="45.39968" lon="2.5403">
        <ele>632.9</ele>
        <time>2014-05-29T07:35:17Z</time>
      </trkpt>
      <trkpt lat="45.39966" lon="2.54037">
        <ele>633.2</ele>
        <time>2014-05-29T07:35:19Z</time>
      </trkpt>
      <trkpt lat="45.39964" lon="2.54046">
        <ele>633.8</ele>
        <time>2014-05-29T07:35:21Z</time>
      </trkpt>
      <trkpt lat="45.39961" lon="2.54058">
        <ele>633.8</ele>
        <time>2014-05-29T07:35:24Z</time>
      </trkpt>
      <trkpt lat="45.39959" lon="2.54066">
        <ele>633.7</ele>
        <time>2014-05-29T07:35:26Z</time>
      </trkpt>
      <trkpt lat="45.39957" lon="2.54074">
        <ele>633.7</ele>
        <time>2014-05-29T07:35:28Z</time>
      </trkpt>
      <trkpt lat="45.39955" lon="2.54083">
        <ele>634.4</ele>
        <time>2014-05-29T07:35:30Z</time>
      </trkpt>
      <trkpt lat="45.39952" lon="2.54093">
        <ele>634.7</ele>
        <time>2014-05-29T07:35:32Z</time>
      </trkpt>
      <trkpt lat="45.39949" lon="2.54102">
        <ele>634.7</ele>
        <time>2014-05-29T07:35:34Z</time>
      </trkpt>
      <trkpt lat="45.39946" lon="2.54111">
        <ele>634.3</ele>
        <time>2014-05-29T07:35:36Z</time>
      </trkpt>
      <trkpt lat="45.39943" lon="2.54122">
        <ele>634.4</ele>
        <time>2014-05-29T07:35:39Z</time>
      </trkpt>
      <trkpt lat="45.39939" lon="2.54133">
        <ele>634.7</ele>
        <time>2014-05-29T07:35:42Z</time>
      </trkpt>
      <trkpt lat="45.39937" lon="2.54142">
        <ele>635</ele>
        <time>2014-05-29T07:35:44Z</time>
      </trkpt>
      <trkpt lat="45.39934" lon="2.54151">
        <ele>634.8</ele>
        <time>2014-05-29T07:35:46Z</time>
      </trkpt>
      <trkpt lat="45.39932" lon="2.54159">
        <ele>634.9</ele>
        <time>2014-05-29T07:35:48Z</time>
      </trkpt>
      <trkpt lat="45.39939" lon="2.54167">
        <ele>636.8</ele>
        <time>2014-05-29T07:35:56Z</time>
      </trkpt>
      <trkpt lat="45.39946" lon="2.54162">
        <ele>638.1</ele>
        <time>2014-05-29T07:36:01Z</time>
      </trkpt>
      <trkpt lat="45.39948" lon="2.54161">
        <ele>638.3</ele>
        <time>2014-05-29T07:36:02Z</time>
      </trkpt>
      <trkpt lat="45.39961" lon="2.54155">
        <ele>639.2</ele>
        <time>2014-05-29T07:36:09Z</time>
      </trkpt>
      <trkpt lat="45.39969" lon="2.5415">
        <ele>640.2</ele>
        <time>2014-05-29T07:36:13Z</time>
      </trkpt>
      <trkpt lat="45.39976" lon="2.54145">
        <ele>640.9</ele>
        <time>2014-05-29T07:36:17Z</time>
      </trkpt>
      <trkpt lat="45.39983" lon="2.54139">
        <ele>641.3</ele>
        <time>2014-05-29T07:36:21Z</time>
      </trkpt>
      <trkpt lat="45.39991" lon="2.54134">
        <ele>642.3</ele>
        <time>2014-05-29T07:36:25Z</time>
      </trkpt>
      <trkpt lat="45.39997" lon="2.5413">
        <ele>643</ele>
        <time>2014-05-29T07:36:28Z</time>
      </trkpt>
      <trkpt lat="45.40006" lon="2.54127">
        <ele>643.2</ele>
        <time>2014-05-29T07:36:31Z</time>
      </trkpt>
      <trkpt lat="45.40014" lon="2.54128">
        <ele>643.9</ele>
        <time>2014-05-29T07:36:34Z</time>
      </trkpt>
      <trkpt lat="45.40022" lon="2.54128">
        <ele>644.5</ele>
        <time>2014-05-29T07:36:37Z</time>
      </trkpt>
      <trkpt lat="45.40031" lon="2.54129">
        <ele>644.5</ele>
        <time>2014-05-29T07:36:40Z</time>
      </trkpt>
      <trkpt lat="45.40039" lon="2.54129">
        <ele>644.8</ele>
        <time>2014-05-29T07:36:43Z</time>
      </trkpt>
      <trkpt lat="45.40046" lon="2.54128">
        <ele>645</ele>
        <time>2014-05-29T07:36:45Z</time>
      </trkpt>
      <trkpt lat="45.4005" lon="2.54127">
        <ele>645</ele>
        <time>2014-05-29T07:36:46Z</time>
      </trkpt>
      <trkpt lat="45.40055" lon="2.54126">
        <ele>645</ele>
        <time>2014-05-29T07:36:47Z</time>
      </trkpt>
      <trkpt lat="45.4006" lon="2.54124">
        <ele>644.8</ele>
        <time>2014-05-29T07:36:48Z</time>
      </trkpt>
      <trkpt lat="45.40065" lon="2.54121">
        <ele>644.6</ele>
        <time>2014-05-29T07:36:49Z</time>
      </trkpt>
      <trkpt lat="45.40071" lon="2.54117">
        <ele>644.2</ele>
        <time>2014-05-29T07:36:50Z</time>
      </trkpt>
      <trkpt lat="45.40077" lon="2.54113">
        <ele>643.9</ele>
        <time>2014-05-29T07:36:51Z</time>
      </trkpt>
      <trkpt lat="45.40083" lon="2.54107">
        <ele>643.7</ele>
        <time>2014-05-29T07:36:52Z</time>
      </trkpt>
      <trkpt lat="45.40088" lon="2.54099">
        <ele>643.5</ele>
        <time>2014-05-29T07:36:53Z</time>
      </trkpt>
      <trkpt lat="45.40093" lon="2.54093">
        <ele>643.4</ele>
        <time>2014-05-29T07:36:54Z</time>
      </trkpt>
      <trkpt lat="45.40098" lon="2.54087">
        <ele>643</ele>
        <time>2014-05-29T07:36:55Z</time>
      </trkpt>
      <trkpt lat="45.40103" lon="2.54081">
        <ele>642.6</ele>
        <time>2014-05-29T07:36:56Z</time>
      </trkpt>
      <trkpt lat="45.40108" lon="2.54075">
        <ele>642.5</ele>
        <time>2014-05-29T07:36:57Z</time>
      </trkpt>
      <trkpt lat="45.40113" lon="2.5407">
        <ele>642.3</ele>
        <time>2014-05-29T07:36:58Z</time>
      </trkpt>
      <trkpt lat="45.40117" lon="2.54065">
        <ele>642.2</ele>
        <time>2014-05-29T07:36:59Z</time>
      </trkpt>
      <trkpt lat="45.40121" lon="2.54062">
        <ele>642.5</ele>
        <time>2014-05-29T07:37:00Z</time>
      </trkpt>
      <trkpt lat="45.40125" lon="2.5406">
        <ele>642.6</ele>
        <time>2014-05-29T07:37:01Z</time>
      </trkpt>
      <trkpt lat="45.4013" lon="2.54058">
        <ele>643.1</ele>
        <time>2014-05-29T07:37:02Z</time>
      </trkpt>
      <trkpt lat="45.40135" lon="2.54056">
        <ele>643.4</ele>
        <time>2014-05-29T07:37:03Z</time>
      </trkpt>
      <trkpt lat="45.4014" lon="2.54055">
        <ele>643.9</ele>
        <time>2014-05-29T07:37:04Z</time>
      </trkpt>
      <trkpt lat="45.40145" lon="2.54055">
        <ele>644.2</ele>
        <time>2014-05-29T07:37:05Z</time>
      </trkpt>
      <trkpt lat="45.4015" lon="2.54054">
        <ele>644.5</ele>
        <time>2014-05-29T07:37:06Z</time>
      </trkpt>
      <trkpt lat="45.40155" lon="2.54052">
        <ele>644.4</ele>
        <time>2014-05-29T07:37:07Z</time>
      </trkpt>
      <trkpt lat="45.4016" lon="2.5405">
        <ele>644.4</ele>
        <time>2014-05-29T07:37:08Z</time>
      </trkpt>
      <trkpt lat="45.40165" lon="2.54047">
        <ele>644.5</ele>
        <time>2014-05-29T07:37:09Z</time>
      </trkpt>
      <trkpt lat="45.4017" lon="2.54043">
        <ele>644.5</ele>
        <time>2014-05-29T07:37:10Z</time>
      </trkpt>
      <trkpt lat="45.40174" lon="2.54039">
        <ele>645</ele>
        <time>2014-05-29T07:37:11Z</time>
      </trkpt>
      <trkpt lat="45.40178" lon="2.54035">
        <ele>645.4</ele>
        <time>2014-05-29T07:37:12Z</time>
      </trkpt>
      <trkpt lat="45.40183" lon="2.54032">
        <ele>645.7</ele>
        <time>2014-05-29T07:37:13Z</time>
      </trkpt>
      <trkpt lat="45.40188" lon="2.54029">
        <ele>645.5</ele>
        <time>2014-05-29T07:37:14Z</time>
      </trkpt>
      <trkpt lat="45.40193" lon="2.54027">
        <ele>645.2</ele>
        <time>2014-05-29T07:37:15Z</time>
      </trkpt>
      <trkpt lat="45.40199" lon="2.54026">
        <ele>644.7</ele>
        <time>2014-05-29T07:37:16Z</time>
      </trkpt>
      <trkpt lat="45.40206" lon="2.54024">
        <ele>644.3</ele>
        <time>2014-05-29T07:37:17Z</time>
      </trkpt>
      <trkpt lat="45.40213" lon="2.54023">
        <ele>644.3</ele>
        <time>2014-05-29T07:37:18Z</time>
      </trkpt>
      <trkpt lat="45.40219" lon="2.54022">
        <ele>644.3</ele>
        <time>2014-05-29T07:37:19Z</time>
      </trkpt>
      <trkpt lat="45.40227" lon="2.54021">
        <ele>644.3</ele>
        <time>2014-05-29T07:37:20Z</time>
      </trkpt>
      <trkpt lat="45.40234" lon="2.54019">
        <ele>643.9</ele>
        <time>2014-05-29T07:37:21Z</time>
      </trkpt>
      <trkpt lat="45.40241" lon="2.54017">
        <ele>643.6</ele>
        <time>2014-05-29T07:37:22Z</time>
      </trkpt>
      <trkpt lat="45.40247" lon="2.54015">
        <ele>643.1</ele>
        <time>2014-05-29T07:37:23Z</time>
      </trkpt>
      <trkpt lat="45.40253" lon="2.54012">
        <ele>642.8</ele>
        <time>2014-05-29T07:37:24Z</time>
      </trkpt>
      <trkpt lat="45.40258" lon="2.5401">
        <ele>642.5</ele>
        <time>2014-05-29T07:37:25Z</time>
      </trkpt>
      <trkpt lat="45.40263" lon="2.5401">
        <ele>642.5</ele>
        <time>2014-05-29T07:37:26Z</time>
      </trkpt>
      <trkpt lat="45.40267" lon="2.54009">
        <ele>642.6</ele>
        <time>2014-05-29T07:37:27Z</time>
      </trkpt>
      <trkpt lat="45.40273" lon="2.5401">
        <ele>642.1</ele>
        <time>2014-05-29T07:37:28Z</time>
      </trkpt>
      <trkpt lat="45.40279" lon="2.5401">
        <ele>641.7</ele>
        <time>2014-05-29T07:37:29Z</time>
      </trkpt>
      <trkpt lat="45.40286" lon="2.5401">
        <ele>641.1</ele>
        <time>2014-05-29T07:37:30Z</time>
      </trkpt>
      <trkpt lat="45.40294" lon="2.54009">
        <ele>640.7</ele>
        <time>2014-05-29T07:37:31Z</time>
      </trkpt>
      <trkpt lat="45.40301" lon="2.54007">
        <ele>640.3</ele>
        <time>2014-05-29T07:37:32Z</time>
      </trkpt>
      <trkpt lat="45.40307" lon="2.54004">
        <ele>639.6</ele>
        <time>2014-05-29T07:37:33Z</time>
      </trkpt>
      <trkpt lat="45.40313" lon="2.54003">
        <ele>639</ele>
        <time>2014-05-29T07:37:34Z</time>
      </trkpt>
      <trkpt lat="45.40318" lon="2.54001">
        <ele>638.7</ele>
        <time>2014-05-29T07:37:35Z</time>
      </trkpt>
      <trkpt lat="45.40323" lon="2.53998">
        <ele>638.4</ele>
        <time>2014-05-29T07:37:36Z</time>
      </trkpt>
      <trkpt lat="45.40329" lon="2.53997">
        <ele>638.1</ele>
        <time>2014-05-29T07:37:37Z</time>
      </trkpt>
      <trkpt lat="45.40336" lon="2.53996">
        <ele>637.8</ele>
        <time>2014-05-29T07:37:38Z</time>
      </trkpt>
      <trkpt lat="45.40343" lon="2.53998">
        <ele>637.6</ele>
        <time>2014-05-29T07:37:39Z</time>
      </trkpt>
      <trkpt lat="45.4035" lon="2.54002">
        <ele>637.2</ele>
        <time>2014-05-29T07:37:40Z</time>
      </trkpt>
      <trkpt lat="45.40357" lon="2.54008">
        <ele>636.8</ele>
        <time>2014-05-29T07:37:41Z</time>
      </trkpt>
      <trkpt lat="45.40364" lon="2.54016">
        <ele>636.1</ele>
        <time>2014-05-29T07:37:42Z</time>
      </trkpt>
      <trkpt lat="45.40371" lon="2.54025">
        <ele>635.6</ele>
        <time>2014-05-29T07:37:43Z</time>
      </trkpt>
      <trkpt lat="45.40377" lon="2.54036">
        <ele>635.1</ele>
        <time>2014-05-29T07:37:44Z</time>
      </trkpt>
      <trkpt lat="45.40382" lon="2.54047">
        <ele>634.5</ele>
        <time>2014-05-29T07:37:45Z</time>
      </trkpt>
      <trkpt lat="45.40387" lon="2.54058">
        <ele>634</ele>
        <time>2014-05-29T07:37:46Z</time>
      </trkpt>
      <trkpt lat="45.40393" lon="2.54068">
        <ele>633.3</ele>
        <time>2014-05-29T07:37:47Z</time>
      </trkpt>
      <trkpt lat="45.40397" lon="2.54079">
        <ele>632.7</ele>
        <time>2014-05-29T07:37:48Z</time>
      </trkpt>
      <trkpt lat="45.40401" lon="2.54089">
        <ele>632.1</ele>
        <time>2014-05-29T07:37:49Z</time>
      </trkpt>
      <trkpt lat="45.40406" lon="2.54098">
        <ele>631.7</ele>
        <time>2014-05-29T07:37:50Z</time>
      </trkpt>
      <trkpt lat="45.40412" lon="2.54105">
        <ele>631.4</ele>
        <time>2014-05-29T07:37:51Z</time>
      </trkpt>
      <trkpt lat="45.4042" lon="2.5411">
        <ele>631.4</ele>
        <time>2014-05-29T07:37:52Z</time>
      </trkpt>
      <trkpt lat="45.40427" lon="2.54115">
        <ele>631.4</ele>
        <time>2014-05-29T07:37:53Z</time>
      </trkpt>
      <trkpt lat="45.40434" lon="2.5412">
        <ele>631.4</ele>
        <time>2014-05-29T07:37:54Z</time>
      </trkpt>
      <trkpt lat="45.40441" lon="2.54124">
        <ele>631.3</ele>
        <time>2014-05-29T07:37:55Z</time>
      </trkpt>
      <trkpt lat="45.40447" lon="2.5413">
        <ele>631.2</ele>
        <time>2014-05-29T07:37:56Z</time>
      </trkpt>
      <trkpt lat="45.40453" lon="2.54136">
        <ele>631.1</ele>
        <time>2014-05-29T07:37:57Z</time>
      </trkpt>
      <trkpt lat="45.40459" lon="2.54143">
        <ele>631</ele>
        <time>2014-05-29T07:37:58Z</time>
      </trkpt>
      <trkpt lat="45.40465" lon="2.54149">
        <ele>631.2</ele>
        <time>2014-05-29T07:37:59Z</time>
      </trkpt>
      <trkpt lat="45.4047" lon="2.54155">
        <ele>631.5</ele>
        <time>2014-05-29T07:38:00Z</time>
      </trkpt>
      <trkpt lat="45.40476" lon="2.5416">
        <ele>631.4</ele>
        <time>2014-05-29T07:38:01Z</time>
      </trkpt>
      <trkpt lat="45.40481" lon="2.54166">
        <ele>631.4</ele>
        <time>2014-05-29T07:38:02Z</time>
      </trkpt>
      <trkpt lat="45.40486" lon="2.54172">
        <ele>631.4</ele>
        <time>2014-05-29T07:38:03Z</time>
      </trkpt>
      <trkpt lat="45.40492" lon="2.54179">
        <ele>631.1</ele>
        <time>2014-05-29T07:38:04Z</time>
      </trkpt>
      <trkpt lat="45.40497" lon="2.54185">
        <ele>630.9</ele>
        <time>2014-05-29T07:38:05Z</time>
      </trkpt>
      <trkpt lat="45.40503" lon="2.54192">
        <ele>630.9</ele>
        <time>2014-05-29T07:38:06Z</time>
      </trkpt>
      <trkpt lat="45.40508" lon="2.54198">
        <ele>630.9</ele>
        <time>2014-05-29T07:38:07Z</time>
      </trkpt>
      <trkpt lat="45.40514" lon="2.54203">
        <ele>631</ele>
        <time>2014-05-29T07:38:08Z</time>
      </trkpt>
      <trkpt lat="45.40519" lon="2.54209">
        <ele>631.1</ele>
        <time>2014-05-29T07:38:09Z</time>
      </trkpt>
      <trkpt lat="45.40523" lon="2.54214">
        <ele>631.2</ele>
        <time>2014-05-29T07:38:10Z</time>
      </trkpt>
      <trkpt lat="45.40526" lon="2.54219">
        <ele>631.9</ele>
        <time>2014-05-29T07:38:11Z</time>
      </trkpt>
      <trkpt lat="45.40531" lon="2.54229">
        <ele>632.6</ele>
        <time>2014-05-29T07:38:13Z</time>
      </trkpt>
      <trkpt lat="45.40535" lon="2.54238">
        <ele>632.9</ele>
        <time>2014-05-29T07:38:15Z</time>
      </trkpt>
      <trkpt lat="45.40539" lon="2.54248">
        <ele>633</ele>
        <time>2014-05-29T07:38:17Z</time>
      </trkpt>
      <trkpt lat="45.40541" lon="2.54257">
        <ele>634.2</ele>
        <time>2014-05-29T07:38:19Z</time>
      </trkpt>
      <trkpt lat="45.40544" lon="2.54266">
        <ele>634.6</ele>
        <time>2014-05-29T07:38:21Z</time>
      </trkpt>
      <trkpt lat="45.40548" lon="2.54275">
        <ele>635.4</ele>
        <time>2014-05-29T07:38:23Z</time>
      </trkpt>
      <trkpt lat="45.40551" lon="2.54284">
        <ele>636.2</ele>
        <time>2014-05-29T07:38:25Z</time>
      </trkpt>
      <trkpt lat="45.40554" lon="2.54294">
        <ele>636.8</ele>
        <time>2014-05-29T07:38:27Z</time>
      </trkpt>
      <trkpt lat="45.40557" lon="2.54303">
        <ele>637</ele>
        <time>2014-05-29T07:38:29Z</time>
      </trkpt>
      <trkpt lat="45.40559" lon="2.54312">
        <ele>637.8</ele>
        <time>2014-05-29T07:38:31Z</time>
      </trkpt>
      <trkpt lat="45.40562" lon="2.5432">
        <ele>638.5</ele>
        <time>2014-05-29T07:38:33Z</time>
      </trkpt>
      <trkpt lat="45.40564" lon="2.54328">
        <ele>639</ele>
        <time>2014-05-29T07:38:35Z</time>
      </trkpt>
      <trkpt lat="45.40567" lon="2.54336">
        <ele>638.9</ele>
        <time>2014-05-29T07:38:37Z</time>
      </trkpt>
      <trkpt lat="45.4057" lon="2.54345">
        <ele>638.7</ele>
        <time>2014-05-29T07:38:39Z</time>
      </trkpt>
      <trkpt lat="45.40573" lon="2.54355">
        <ele>638.6</ele>
        <time>2014-05-29T07:38:41Z</time>
      </trkpt>
      <trkpt lat="45.40578" lon="2.54366">
        <ele>638.7</ele>
        <time>2014-05-29T07:38:43Z</time>
      </trkpt>
      <trkpt lat="45.40583" lon="2.54376">
        <ele>639.8</ele>
        <time>2014-05-29T07:38:45Z</time>
      </trkpt>
      <trkpt lat="45.40588" lon="2.54385">
        <ele>639.7</ele>
        <time>2014-05-29T07:38:47Z</time>
      </trkpt>
      <trkpt lat="45.40593" lon="2.54395">
        <ele>639.9</ele>
        <time>2014-05-29T07:38:49Z</time>
      </trkpt>
      <trkpt lat="45.40598" lon="2.54405">
        <ele>640.3</ele>
        <time>2014-05-29T07:38:51Z</time>
      </trkpt>
      <trkpt lat="45.40603" lon="2.54416">
        <ele>640.1</ele>
        <time>2014-05-29T07:38:53Z</time>
      </trkpt>
      <trkpt lat="45.40608" lon="2.54426">
        <ele>639.5</ele>
        <time>2014-05-29T07:38:55Z</time>
      </trkpt>
      <trkpt lat="45.40612" lon="2.54437">
        <ele>639.4</ele>
        <time>2014-05-29T07:38:57Z</time>
      </trkpt>
      <trkpt lat="45.40616" lon="2.54448">
        <ele>639.4</ele>
        <time>2014-05-29T07:38:59Z</time>
      </trkpt>
      <trkpt lat="45.4062" lon="2.5446">
        <ele>640</ele>
        <time>2014-05-29T07:39:01Z</time>
      </trkpt>
      <trkpt lat="45.40622" lon="2.5447">
        <ele>640.2</ele>
        <time>2014-05-29T07:39:03Z</time>
      </trkpt>
      <trkpt lat="45.40625" lon="2.54478">
        <ele>639.9</ele>
        <time>2014-05-29T07:39:05Z</time>
      </trkpt>
      <trkpt lat="45.40627" lon="2.54483">
        <ele>639.5</ele>
        <time>2014-05-29T07:39:06Z</time>
      </trkpt>
      <trkpt lat="45.40632" lon="2.54499">
        <ele>640.1</ele>
        <time>2014-05-29T07:39:09Z</time>
      </trkpt>
      <trkpt lat="45.40634" lon="2.54509">
        <ele>640.4</ele>
        <time>2014-05-29T07:39:11Z</time>
      </trkpt>
      <trkpt lat="45.40638" lon="2.5452">
        <ele>640.6</ele>
        <time>2014-05-29T07:39:13Z</time>
      </trkpt>
      <trkpt lat="45.40641" lon="2.54531">
        <ele>640.6</ele>
        <time>2014-05-29T07:39:15Z</time>
      </trkpt>
      <trkpt lat="45.40645" lon="2.54542">
        <ele>640.9</ele>
        <time>2014-05-29T07:39:17Z</time>
      </trkpt>
      <trkpt lat="45.4065" lon="2.54552">
        <ele>641.2</ele>
        <time>2014-05-29T07:39:19Z</time>
      </trkpt>
      <trkpt lat="45.40655" lon="2.54562">
        <ele>641.4</ele>
        <time>2014-05-29T07:39:21Z</time>
      </trkpt>
      <trkpt lat="45.4066" lon="2.54571">
        <ele>642</ele>
        <time>2014-05-29T07:39:23Z</time>
      </trkpt>
      <trkpt lat="45.40665" lon="2.54579">
        <ele>641.9</ele>
        <time>2014-05-29T07:39:25Z</time>
      </trkpt>
      <trkpt lat="45.40669" lon="2.54586">
        <ele>642</ele>
        <time>2014-05-29T07:39:27Z</time>
      </trkpt>
      <trkpt lat="45.40675" lon="2.54596">
        <ele>642.9</ele>
        <time>2014-05-29T07:39:30Z</time>
      </trkpt>
      <trkpt lat="45.40681" lon="2.54604">
        <ele>644</ele>
        <time>2014-05-29T07:39:33Z</time>
      </trkpt>
      <trkpt lat="45.40687" lon="2.54611">
        <ele>644.8</ele>
        <time>2014-05-29T07:39:36Z</time>
      </trkpt>
      <trkpt lat="45.40693" lon="2.54619">
        <ele>645.8</ele>
        <time>2014-05-29T07:39:39Z</time>
      </trkpt>
      <trkpt lat="45.40699" lon="2.54627">
        <ele>646</ele>
        <time>2014-05-29T07:39:42Z</time>
      </trkpt>
      <trkpt lat="45.40704" lon="2.54636">
        <ele>647.4</ele>
        <time>2014-05-29T07:39:45Z</time>
      </trkpt>
      <trkpt lat="45.40706" lon="2.54647">
        <ele>647.6</ele>
        <time>2014-05-29T07:39:48Z</time>
      </trkpt>
      <trkpt lat="45.40707" lon="2.54659">
        <ele>648.1</ele>
        <time>2014-05-29T07:39:52Z</time>
      </trkpt>
      <trkpt lat="45.40708" lon="2.54669">
        <ele>648</ele>
        <time>2014-05-29T07:39:55Z</time>
      </trkpt>
      <trkpt lat="45.4071" lon="2.54681">
        <ele>648.4</ele>
        <time>2014-05-29T07:39:58Z</time>
      </trkpt>
      <trkpt lat="45.40712" lon="2.54694">
        <ele>649.1</ele>
        <time>2014-05-29T07:40:01Z</time>
      </trkpt>
      <trkpt lat="45.40713" lon="2.54705">
        <ele>648.5</ele>
        <time>2014-05-29T07:40:04Z</time>
      </trkpt>
      <trkpt lat="45.40714" lon="2.54716">
        <ele>648.8</ele>
        <time>2014-05-29T07:40:07Z</time>
      </trkpt>
      <trkpt lat="45.40714" lon="2.54719">
        <ele>648.6</ele>
        <time>2014-05-29T07:40:08Z</time>
      </trkpt>
      <trkpt lat="45.40717" lon="2.54735">
        <ele>650</ele>
        <time>2014-05-29T07:40:14Z</time>
      </trkpt>
      <trkpt lat="45.40721" lon="2.54742">
        <ele>649.7</ele>
        <time>2014-05-29T07:40:16Z</time>
      </trkpt>
      <trkpt lat="45.40727" lon="2.54748">
        <ele>649.4</ele>
        <time>2014-05-29T07:40:18Z</time>
      </trkpt>
      <trkpt lat="45.40732" lon="2.54753">
        <ele>649.7</ele>
        <time>2014-05-29T07:40:20Z</time>
      </trkpt>
      <trkpt lat="45.40737" lon="2.54758">
        <ele>649.4</ele>
        <time>2014-05-29T07:40:22Z</time>
      </trkpt>
      <trkpt lat="45.40744" lon="2.54762">
        <ele>649.8</ele>
        <time>2014-05-29T07:40:24Z</time>
      </trkpt>
      <trkpt lat="45.4075" lon="2.54767">
        <ele>649.9</ele>
        <time>2014-05-29T07:40:26Z</time>
      </trkpt>
      <trkpt lat="45.40756" lon="2.54773">
        <ele>650</ele>
        <time>2014-05-29T07:40:28Z</time>
      </trkpt>
      <trkpt lat="45.40763" lon="2.54781">
        <ele>650.8</ele>
        <time>2014-05-29T07:40:31Z</time>
      </trkpt>
      <trkpt lat="45.40769" lon="2.54788">
        <ele>652.1</ele>
        <time>2014-05-29T07:40:34Z</time>
      </trkpt>
      <trkpt lat="45.40775" lon="2.54798">
        <ele>653</ele>
        <time>2014-05-29T07:40:38Z</time>
      </trkpt>
      <trkpt lat="45.4078" lon="2.54808">
        <ele>653.9</ele>
        <time>2014-05-29T07:40:42Z</time>
      </trkpt>
      <trkpt lat="45.40784" lon="2.54818">
        <ele>654.8</ele>
        <time>2014-05-29T07:40:46Z</time>
      </trkpt>
      <trkpt lat="45.40786" lon="2.5483">
        <ele>656.1</ele>
        <time>2014-05-29T07:40:51Z</time>
      </trkpt>
      <trkpt lat="45.40787" lon="2.54842">
        <ele>658.6</ele>
        <time>2014-05-29T07:40:56Z</time>
      </trkpt>
      <trkpt lat="45.40788" lon="2.54853">
        <ele>658.8</ele>
        <time>2014-05-29T07:41:01Z</time>
      </trkpt>
      <trkpt lat="45.4079" lon="2.54863">
        <ele>660.1</ele>
        <time>2014-05-29T07:41:05Z</time>
      </trkpt>
      <trkpt lat="45.40789" lon="2.54874">
        <ele>662.2</ele>
        <time>2014-05-29T07:41:10Z</time>
      </trkpt>
      <trkpt lat="45.4079" lon="2.54877">
        <ele>662.5</ele>
        <time>2014-05-29T07:41:11Z</time>
      </trkpt>
      <trkpt lat="45.40786" lon="2.54897">
        <ele>664.7</ele>
        <time>2014-05-29T07:41:20Z</time>
      </trkpt>
      <trkpt lat="45.40784" lon="2.54907">
        <ele>665.1</ele>
        <time>2014-05-29T07:41:24Z</time>
      </trkpt>
      <trkpt lat="45.40785" lon="2.54918">
        <ele>664.8</ele>
        <time>2014-05-29T07:41:27Z</time>
      </trkpt>
      <trkpt lat="45.40785" lon="2.54926">
        <ele>665.3</ele>
        <time>2014-05-29T07:41:29Z</time>
      </trkpt>
      <trkpt lat="45.40787" lon="2.54936">
        <ele>665.2</ele>
        <time>2014-05-29T07:41:31Z</time>
      </trkpt>
      <trkpt lat="45.40789" lon="2.54946">
        <ele>665.5</ele>
        <time>2014-05-29T07:41:33Z</time>
      </trkpt>
      <trkpt lat="45.4079" lon="2.54956">
        <ele>666</ele>
        <time>2014-05-29T07:41:35Z</time>
      </trkpt>
      <trkpt lat="45.40791" lon="2.54966">
        <ele>666.2</ele>
        <time>2014-05-29T07:41:37Z</time>
      </trkpt>
      <trkpt lat="45.40794" lon="2.54976">
        <ele>666</ele>
        <time>2014-05-29T07:41:39Z</time>
      </trkpt>
      <trkpt lat="45.40796" lon="2.54982">
        <ele>665.9</ele>
        <time>2014-05-29T07:41:40Z</time>
      </trkpt>
      <trkpt lat="45.40799" lon="2.54988">
        <ele>665.8</ele>
        <time>2014-05-29T07:41:41Z</time>
      </trkpt>
      <trkpt lat="45.40802" lon="2.54995">
        <ele>665.2</ele>
        <time>2014-05-29T07:41:42Z</time>
      </trkpt>
      <trkpt lat="45.40805" lon="2.55003">
        <ele>664.7</ele>
        <time>2014-05-29T07:41:43Z</time>
      </trkpt>
      <trkpt lat="45.40807" lon="2.55012">
        <ele>664.3</ele>
        <time>2014-05-29T07:41:44Z</time>
      </trkpt>
      <trkpt lat="45.40809" lon="2.55022">
        <ele>664.1</ele>
        <time>2014-05-29T07:41:45Z</time>
      </trkpt>
      <trkpt lat="45.40812" lon="2.55031">
        <ele>663.9</ele>
        <time>2014-05-29T07:41:46Z</time>
      </trkpt>
      <trkpt lat="45.40814" lon="2.5504">
        <ele>663.6</ele>
        <time>2014-05-29T07:41:47Z</time>
      </trkpt>
      <trkpt lat="45.40816" lon="2.55048">
        <ele>663.3</ele>
        <time>2014-05-29T07:41:48Z</time>
      </trkpt>
      <trkpt lat="45.40818" lon="2.55057">
        <ele>663.1</ele>
        <time>2014-05-29T07:41:49Z</time>
      </trkpt>
      <trkpt lat="45.40821" lon="2.55067">
        <ele>662.9</ele>
        <time>2014-05-29T07:41:50Z</time>
      </trkpt>
      <trkpt lat="45.40825" lon="2.55075">
        <ele>661.9</ele>
        <time>2014-05-29T07:41:51Z</time>
      </trkpt>
      <trkpt lat="45.40827" lon="2.55082">
        <ele>661.2</ele>
        <time>2014-05-29T07:41:52Z</time>
      </trkpt>
      <trkpt lat="45.40828" lon="2.55091">
        <ele>660.7</ele>
        <time>2014-05-29T07:41:53Z</time>
      </trkpt>
      <trkpt lat="45.40825" lon="2.55099">
        <ele>659.9</ele>
        <time>2014-05-29T07:41:54Z</time>
      </trkpt>
      <trkpt lat="45.40821" lon="2.55107">
        <ele>659.4</ele>
        <time>2014-05-29T07:41:55Z</time>
      </trkpt>
      <trkpt lat="45.40816" lon="2.55115">
        <ele>658.4</ele>
        <time>2014-05-29T07:41:56Z</time>
      </trkpt>
      <trkpt lat="45.40812" lon="2.55126">
        <ele>657.8</ele>
        <time>2014-05-29T07:41:57Z</time>
      </trkpt>
      <trkpt lat="45.40808" lon="2.55138">
        <ele>656.4</ele>
        <time>2014-05-29T07:41:58Z</time>
      </trkpt>
      <trkpt lat="45.40804" lon="2.55151">
        <ele>655.4</ele>
        <time>2014-05-29T07:41:59Z</time>
      </trkpt>
      <trkpt lat="45.40799" lon="2.55163">
        <ele>654.6</ele>
        <time>2014-05-29T07:42:00Z</time>
      </trkpt>
      <trkpt lat="45.40794" lon="2.55175">
        <ele>653.4</ele>
        <time>2014-05-29T07:42:01Z</time>
      </trkpt>
      <trkpt lat="45.40789" lon="2.55185">
        <ele>652.5</ele>
        <time>2014-05-29T07:42:02Z</time>
      </trkpt>
      <trkpt lat="45.40783" lon="2.55193">
        <ele>651.3</ele>
        <time>2014-05-29T07:42:03Z</time>
      </trkpt>
      <trkpt lat="45.40776" lon="2.55198">
        <ele>650.4</ele>
        <time>2014-05-29T07:42:04Z</time>
      </trkpt>
      <trkpt lat="45.40769" lon="2.55201">
        <ele>649.7</ele>
        <time>2014-05-29T07:42:05Z</time>
      </trkpt>
      <trkpt lat="45.40762" lon="2.55204">
        <ele>649.4</ele>
        <time>2014-05-29T07:42:06Z</time>
      </trkpt>
      <trkpt lat="45.40755" lon="2.55208">
        <ele>649.2</ele>
        <time>2014-05-29T07:42:07Z</time>
      </trkpt>
      <trkpt lat="45.40747" lon="2.55212">
        <ele>648.3</ele>
        <time>2014-05-29T07:42:08Z</time>
      </trkpt>
      <trkpt lat="45.40739" lon="2.55215">
        <ele>647.7</ele>
        <time>2014-05-29T07:42:09Z</time>
      </trkpt>
      <trkpt lat="45.40731" lon="2.55216">
        <ele>647.2</ele>
        <time>2014-05-29T07:42:10Z</time>
      </trkpt>
      <trkpt lat="45.40723" lon="2.55216">
        <ele>646.8</ele>
        <time>2014-05-29T07:42:11Z</time>
      </trkpt>
      <trkpt lat="45.40715" lon="2.55215">
        <ele>646.5</ele>
        <time>2014-05-29T07:42:12Z</time>
      </trkpt>
      <trkpt lat="45.40708" lon="2.55216">
        <ele>646.1</ele>
        <time>2014-05-29T07:42:13Z</time>
      </trkpt>
      <trkpt lat="45.40701" lon="2.55219">
        <ele>645.8</ele>
        <time>2014-05-29T07:42:14Z</time>
      </trkpt>
      <trkpt lat="45.40693" lon="2.55223">
        <ele>645.4</ele>
        <time>2014-05-29T07:42:15Z</time>
      </trkpt>
      <trkpt lat="45.40686" lon="2.55227">
        <ele>645.1</ele>
        <time>2014-05-29T07:42:16Z</time>
      </trkpt>
      <trkpt lat="45.40678" lon="2.55231">
        <ele>644.7</ele>
        <time>2014-05-29T07:42:17Z</time>
      </trkpt>
      <trkpt lat="45.4067" lon="2.55235">
        <ele>644.5</ele>
        <time>2014-05-29T07:42:18Z</time>
      </trkpt>
      <trkpt lat="45.40662" lon="2.55239">
        <ele>644.3</ele>
        <time>2014-05-29T07:42:19Z</time>
      </trkpt>
      <trkpt lat="45.40654" lon="2.55243">
        <ele>644</ele>
        <time>2014-05-29T07:42:20Z</time>
      </trkpt>
      <trkpt lat="45.40647" lon="2.55247">
        <ele>643.8</ele>
        <time>2014-05-29T07:42:21Z</time>
      </trkpt>
      <trkpt lat="45.40639" lon="2.55251">
        <ele>643.4</ele>
        <time>2014-05-29T07:42:22Z</time>
      </trkpt>
      <trkpt lat="45.40631" lon="2.55253">
        <ele>643.2</ele>
        <time>2014-05-29T07:42:23Z</time>
      </trkpt>
      <trkpt lat="45.40623" lon="2.55255">
        <ele>643</ele>
        <time>2014-05-29T07:42:24Z</time>
      </trkpt>
      <trkpt lat="45.40616" lon="2.55254">
        <ele>642.7</ele>
        <time>2014-05-29T07:42:25Z</time>
      </trkpt>
      <trkpt lat="45.4061" lon="2.5525">
        <ele>642.6</ele>
        <time>2014-05-29T07:42:26Z</time>
      </trkpt>
      <trkpt lat="45.40605" lon="2.55245">
        <ele>642.5</ele>
        <time>2014-05-29T07:42:27Z</time>
      </trkpt>
      <trkpt lat="45.40599" lon="2.55239">
        <ele>642.4</ele>
        <time>2014-05-29T07:42:28Z</time>
      </trkpt>
      <trkpt lat="45.40593" lon="2.55236">
        <ele>642</ele>
        <time>2014-05-29T07:42:29Z</time>
      </trkpt>
      <trkpt lat="45.40587" lon="2.55234">
        <ele>641.8</ele>
        <time>2014-05-29T07:42:30Z</time>
      </trkpt>
      <trkpt lat="45.4058" lon="2.55236">
        <ele>641.5</ele>
        <time>2014-05-29T07:42:31Z</time>
      </trkpt>
      <trkpt lat="45.40572" lon="2.5524">
        <ele>641.7</ele>
        <time>2014-05-29T07:42:32Z</time>
      </trkpt>
      <trkpt lat="45.40565" lon="2.55245">
        <ele>641.8</ele>
        <time>2014-05-29T07:42:33Z</time>
      </trkpt>
      <trkpt lat="45.40558" lon="2.55251">
        <ele>641.1</ele>
        <time>2014-05-29T07:42:34Z</time>
      </trkpt>
      <trkpt lat="45.40551" lon="2.55256">
        <ele>640.6</ele>
        <time>2014-05-29T07:42:35Z</time>
      </trkpt>
      <trkpt lat="45.40546" lon="2.55263">
        <ele>640.2</ele>
        <time>2014-05-29T07:42:36Z</time>
      </trkpt>
      <trkpt lat="45.40543" lon="2.55269">
        <ele>639.9</ele>
        <time>2014-05-29T07:42:37Z</time>
      </trkpt>
      <trkpt lat="45.40542" lon="2.55276">
        <ele>639.6</ele>
        <time>2014-05-29T07:42:38Z</time>
      </trkpt>
      <trkpt lat="45.40541" lon="2.55284">
        <ele>639</ele>
        <time>2014-05-29T07:42:39Z</time>
      </trkpt>
      <trkpt lat="45.40542" lon="2.55293">
        <ele>638.6</ele>
        <time>2014-05-29T07:42:40Z</time>
      </trkpt>
      <trkpt lat="45.40541" lon="2.55303">
        <ele>638.2</ele>
        <time>2014-05-29T07:42:41Z</time>
      </trkpt>
      <trkpt lat="45.40539" lon="2.55313">
        <ele>637.9</ele>
        <time>2014-05-29T07:42:42Z</time>
      </trkpt>
      <trkpt lat="45.40538" lon="2.55324">
        <ele>637.6</ele>
        <time>2014-05-29T07:42:43Z</time>
      </trkpt>
      <trkpt lat="45.40537" lon="2.55335">
        <ele>637.1</ele>
        <time>2014-05-29T07:42:44Z</time>
      </trkpt>
      <trkpt lat="45.40537" lon="2.55348">
        <ele>636.7</ele>
        <time>2014-05-29T07:42:45Z</time>
      </trkpt>
      <trkpt lat="45.40536" lon="2.55361">
        <ele>635.8</ele>
        <time>2014-05-29T07:42:46Z</time>
      </trkpt>
      <trkpt lat="45.40536" lon="2.55375">
        <ele>635.1</ele>
        <time>2014-05-29T07:42:47Z</time>
      </trkpt>
      <trkpt lat="45.40536" lon="2.55387">
        <ele>634.3</ele>
        <time>2014-05-29T07:42:48Z</time>
      </trkpt>
      <trkpt lat="45.40535" lon="2.55399">
        <ele>633.6</ele>
        <time>2014-05-29T07:42:49Z</time>
      </trkpt>
      <trkpt lat="45.40533" lon="2.55411">
        <ele>633.2</ele>
        <time>2014-05-29T07:42:50Z</time>
      </trkpt>
      <trkpt lat="45.4053" lon="2.55423">
        <ele>632.5</ele>
        <time>2014-05-29T07:42:51Z</time>
      </trkpt>
      <trkpt lat="45.40527" lon="2.55432">
        <ele>632</ele>
        <time>2014-05-29T07:42:52Z</time>
      </trkpt>
      <trkpt lat="45.40525" lon="2.5544">
        <ele>631.7</ele>
        <time>2014-05-29T07:42:53Z</time>
      </trkpt>
      <trkpt lat="45.40522" lon="2.55447">
        <ele>631.5</ele>
        <time>2014-05-29T07:42:54Z</time>
      </trkpt>
      <trkpt lat="45.4052" lon="2.55454">
        <ele>631.4</ele>
        <time>2014-05-29T07:42:55Z</time>
      </trkpt>
      <trkpt lat="45.40517" lon="2.5546">
        <ele>631.4</ele>
        <time>2014-05-29T07:42:56Z</time>
      </trkpt>
      <trkpt lat="45.40512" lon="2.5547">
        <ele>631.7</ele>
        <time>2014-05-29T07:42:58Z</time>
      </trkpt>
      <trkpt lat="45.40509" lon="2.5548">
        <ele>632.9</ele>
        <time>2014-05-29T07:43:00Z</time>
      </trkpt>
      <trkpt lat="45.40505" lon="2.5549">
        <ele>634.2</ele>
        <time>2014-05-29T07:43:03Z</time>
      </trkpt>
      <trkpt lat="45.40497" lon="2.55491">
        <ele>635.8</ele>
        <time>2014-05-29T07:43:08Z</time>
      </trkpt>
      <trkpt lat="45.40489" lon="2.55487">
        <ele>637.3</ele>
        <time>2014-05-29T07:43:14Z</time>
      </trkpt>
      <trkpt lat="45.40487" lon="2.55486">
        <ele>637.6</ele>
        <time>2014-05-29T07:43:15Z</time>
      </trkpt>
      <trkpt lat="45.40474" lon="2.55476">
        <ele>640.4</ele>
        <time>2014-05-29T07:43:27Z</time>
      </trkpt>
      <trkpt lat="45.40468" lon="2.55481">
        <ele>641.4</ele>
        <time>2014-05-29T07:43:31Z</time>
      </trkpt>
      <trkpt lat="45.40463" lon="2.55489">
        <ele>641.3</ele>
        <time>2014-05-29T07:43:33Z</time>
      </trkpt>
      <trkpt lat="45.4046" lon="2.55497">
        <ele>641.2</ele>
        <time>2014-05-29T07:43:34Z</time>
      </trkpt>
      <trkpt lat="45.40458" lon="2.55506">
        <ele>641.1</ele>
        <time>2014-05-29T07:43:35Z</time>
      </trkpt>
      <trkpt lat="45.40455" lon="2.55516">
        <ele>640</ele>
        <time>2014-05-29T07:43:36Z</time>
      </trkpt>
      <trkpt lat="45.40452" lon="2.55524">
        <ele>639.2</ele>
        <time>2014-05-29T07:43:37Z</time>
      </trkpt>
      <trkpt lat="45.4045" lon="2.55531">
        <ele>637.6</ele>
        <time>2014-05-29T07:43:38Z</time>
      </trkpt>
      <trkpt lat="45.40446" lon="2.55539">
        <ele>636.4</ele>
        <time>2014-05-29T07:43:39Z</time>
      </trkpt>
      <trkpt lat="45.40443" lon="2.55547">
        <ele>634.8</ele>
        <time>2014-05-29T07:43:40Z</time>
      </trkpt>
      <trkpt lat="45.4044" lon="2.55552">
        <ele>633.7</ele>
        <time>2014-05-29T07:43:41Z</time>
      </trkpt>
      <trkpt lat="45.40435" lon="2.55556">
        <ele>632.8</ele>
        <time>2014-05-29T07:43:42Z</time>
      </trkpt>
      <trkpt lat="45.40429" lon="2.55559">
        <ele>631.7</ele>
        <time>2014-05-29T07:43:43Z</time>
      </trkpt>
      <trkpt lat="45.40421" lon="2.5556">
        <ele>630.9</ele>
        <time>2014-05-29T07:43:44Z</time>
      </trkpt>
      <trkpt lat="45.40413" lon="2.55561">
        <ele>629.5</ele>
        <time>2014-05-29T07:43:45Z</time>
      </trkpt>
      <trkpt lat="45.40405" lon="2.55561">
        <ele>628.4</ele>
        <time>2014-05-29T07:43:46Z</time>
      </trkpt>
      <trkpt lat="45.40399" lon="2.55561">
        <ele>627.5</ele>
        <time>2014-05-29T07:43:47Z</time>
      </trkpt>
      <trkpt lat="45.40392" lon="2.5556">
        <ele>625.9</ele>
        <time>2014-05-29T07:43:48Z</time>
      </trkpt>
      <trkpt lat="45.40386" lon="2.55558">
        <ele>624.7</ele>
        <time>2014-05-29T07:43:49Z</time>
      </trkpt>
      <trkpt lat="45.4038" lon="2.55556">
        <ele>622.5</ele>
        <time>2014-05-29T07:43:50Z</time>
      </trkpt>
      <trkpt lat="45.40373" lon="2.55552">
        <ele>620.9</ele>
        <time>2014-05-29T07:43:51Z</time>
      </trkpt>
      <trkpt lat="45.40367" lon="2.55548">
        <ele>619.1</ele>
        <time>2014-05-29T07:43:52Z</time>
      </trkpt>
      <trkpt lat="45.40362" lon="2.55543">
        <ele>617.7</ele>
        <time>2014-05-29T07:43:53Z</time>
      </trkpt>
      <trkpt lat="45.40357" lon="2.55539">
        <ele>616.7</ele>
        <time>2014-05-29T07:43:54Z</time>
      </trkpt>
      <trkpt lat="45.40352" lon="2.55536">
        <ele>615.4</ele>
        <time>2014-05-29T07:43:55Z</time>
      </trkpt>
      <trkpt lat="45.40347" lon="2.55532">
        <ele>614.5</ele>
        <time>2014-05-29T07:43:56Z</time>
      </trkpt>
      <trkpt lat="45.40341" lon="2.55529">
        <ele>612.7</ele>
        <time>2014-05-29T07:43:57Z</time>
      </trkpt>
      <trkpt lat="45.40336" lon="2.55526">
        <ele>611.4</ele>
        <time>2014-05-29T07:43:58Z</time>
      </trkpt>
      <trkpt lat="45.40331" lon="2.55524">
        <ele>610</ele>
        <time>2014-05-29T07:43:59Z</time>
      </trkpt>
      <trkpt lat="45.40327" lon="2.55521">
        <ele>608.8</ele>
        <time>2014-05-29T07:44:00Z</time>
      </trkpt>
      <trkpt lat="45.40319" lon="2.55516">
        <ele>606.2</ele>
        <time>2014-05-29T07:44:02Z</time>
      </trkpt>
      <trkpt lat="45.40315" lon="2.55513">
        <ele>604.8</ele>
        <time>2014-05-29T07:44:03Z</time>
      </trkpt>
      <trkpt lat="45.40307" lon="2.5551">
        <ele>602</ele>
        <time>2014-05-29T07:44:05Z</time>
      </trkpt>
      <trkpt lat="45.40299" lon="2.55507">
        <ele>599.7</ele>
        <time>2014-05-29T07:44:07Z</time>
      </trkpt>
      <trkpt lat="45.40293" lon="2.55499">
        <ele>597.5</ele>
        <time>2014-05-29T07:44:09Z</time>
      </trkpt>
      <trkpt lat="45.40289" lon="2.55491">
        <ele>595.2</ele>
        <time>2014-05-29T07:44:11Z</time>
      </trkpt>
      <trkpt lat="45.40287" lon="2.55482">
        <ele>593.3</ele>
        <time>2014-05-29T07:44:13Z</time>
      </trkpt>
      <trkpt lat="45.40284" lon="2.55474">
        <ele>591.2</ele>
        <time>2014-05-29T07:44:15Z</time>
      </trkpt>
      <trkpt lat="45.40283" lon="2.5547">
        <ele>590.6</ele>
        <time>2014-05-29T07:44:16Z</time>
      </trkpt>
      <trkpt lat="45.4028" lon="2.55454">
        <ele>588.3</ele>
        <time>2014-05-29T07:44:19Z</time>
      </trkpt>
      <trkpt lat="45.40278" lon="2.55441">
        <ele>587.3</ele>
        <time>2014-05-29T07:44:21Z</time>
      </trkpt>
      <trkpt lat="45.40274" lon="2.5543">
        <ele>586.1</ele>
        <time>2014-05-29T07:44:23Z</time>
      </trkpt>
      <trkpt lat="45.40271" lon="2.5542">
        <ele>585.1</ele>
        <time>2014-05-29T07:44:25Z</time>
      </trkpt>
      <trkpt lat="45.40269" lon="2.55413">
        <ele>584.3</ele>
        <time>2014-05-29T07:44:26Z</time>
      </trkpt>
      <trkpt lat="45.40268" lon="2.55406">
        <ele>583.7</ele>
        <time>2014-05-29T07:44:27Z</time>
      </trkpt>
      <trkpt lat="45.40268" lon="2.55398">
        <ele>582.6</ele>
        <time>2014-05-29T07:44:28Z</time>
      </trkpt>
      <trkpt lat="45.40268" lon="2.5539">
        <ele>581.7</ele>
        <time>2014-05-29T07:44:29Z</time>
      </trkpt>
      <trkpt lat="45.40268" lon="2.55378">
        <ele>579.8</ele>
        <time>2014-05-29T07:44:31Z</time>
      </trkpt>
      <trkpt lat="45.40265" lon="2.55366">
        <ele>577.9</ele>
        <time>2014-05-29T07:44:35Z</time>
      </trkpt>
      <trkpt lat="45.40258" lon="2.55367">
        <ele>576.7</ele>
        <time>2014-05-29T07:44:38Z</time>
      </trkpt>
      <trkpt lat="45.4025" lon="2.55373">
        <ele>575.1</ele>
        <time>2014-05-29T07:44:40Z</time>
      </trkpt>
      <trkpt lat="45.40242" lon="2.55375">
        <ele>572.5</ele>
        <time>2014-05-29T07:44:42Z</time>
      </trkpt>
      <trkpt lat="45.40234" lon="2.55377">
        <ele>568.7</ele>
        <time>2014-05-29T07:44:45Z</time>
      </trkpt>
      <trkpt lat="45.40227" lon="2.5537">
        <ele>564.9</ele>
        <time>2014-05-29T07:44:48Z</time>
      </trkpt>
      <trkpt lat="45.40224" lon="2.55365">
        <ele>563.4</ele>
        <time>2014-05-29T07:44:49Z</time>
      </trkpt>
      <trkpt lat="45.4022" lon="2.55359">
        <ele>562.3</ele>
        <time>2014-05-29T07:44:50Z</time>
      </trkpt>
      <trkpt lat="45.40217" lon="2.55354">
        <ele>561.4</ele>
        <time>2014-05-29T07:44:51Z</time>
      </trkpt>
      <trkpt lat="45.40212" lon="2.55344">
        <ele>558.3</ele>
        <time>2014-05-29T07:44:53Z</time>
      </trkpt>
      <trkpt lat="45.40205" lon="2.55336">
        <ele>552.2</ele>
        <time>2014-05-29T07:44:58Z</time>
      </trkpt>
      <trkpt lat="45.402" lon="2.55345">
        <ele>550.2</ele>
        <time>2014-05-29T07:45:03Z</time>
      </trkpt>
      <trkpt lat="45.40197" lon="2.55354">
        <ele>549.9</ele>
        <time>2014-05-29T07:45:06Z</time>
      </trkpt>
      <trkpt lat="45.40197" lon="2.55364">
        <ele>550.2</ele>
        <time>2014-05-29T07:45:09Z</time>
      </trkpt>
      <trkpt lat="45.40193" lon="2.55373">
        <ele>550.8</ele>
        <time>2014-05-29T07:45:13Z</time>
      </trkpt>
      <trkpt lat="45.40193" lon="2.55385">
        <ele>551</ele>
        <time>2014-05-29T07:45:16Z</time>
      </trkpt>
      <trkpt lat="45.40193" lon="2.55389">
        <ele>551</ele>
        <time>2014-05-29T07:45:17Z</time>
      </trkpt>
      <trkpt lat="45.40194" lon="2.55406">
        <ele>551</ele>
        <time>2014-05-29T07:45:22Z</time>
      </trkpt>
      <trkpt lat="45.40193" lon="2.55414">
        <ele>551.1</ele>
        <time>2014-05-29T07:45:24Z</time>
      </trkpt>
      <trkpt lat="45.40191" lon="2.55426">
        <ele>551</ele>
        <time>2014-05-29T07:45:27Z</time>
      </trkpt>
      <trkpt lat="45.40191" lon="2.55437">
        <ele>551.2</ele>
        <time>2014-05-29T07:45:30Z</time>
      </trkpt>
      <trkpt lat="45.4019" lon="2.55446">
        <ele>551.2</ele>
        <time>2014-05-29T07:45:32Z</time>
      </trkpt>
      <trkpt lat="45.4019" lon="2.55458">
        <ele>552.2</ele>
        <time>2014-05-29T07:45:35Z</time>
      </trkpt>
      <trkpt lat="45.40189" lon="2.5547">
        <ele>552.5</ele>
        <time>2014-05-29T07:45:38Z</time>
      </trkpt>
      <trkpt lat="45.4019" lon="2.55479">
        <ele>552.7</ele>
        <time>2014-05-29T07:45:40Z</time>
      </trkpt>
      <trkpt lat="45.40192" lon="2.5549">
        <ele>552.5</ele>
        <time>2014-05-29T07:45:42Z</time>
      </trkpt>
      <trkpt lat="45.40191" lon="2.555">
        <ele>552</ele>
        <time>2014-05-29T07:45:44Z</time>
      </trkpt>
      <trkpt lat="45.40192" lon="2.55511">
        <ele>551.9</ele>
        <time>2014-05-29T07:45:46Z</time>
      </trkpt>
      <trkpt lat="45.40194" lon="2.55521">
        <ele>552</ele>
        <time>2014-05-29T07:45:48Z</time>
      </trkpt>
      <trkpt lat="45.40196" lon="2.55531">
        <ele>552.3</ele>
        <time>2014-05-29T07:45:50Z</time>
      </trkpt>
      <trkpt lat="45.40198" lon="2.55541">
        <ele>552.1</ele>
        <time>2014-05-29T07:45:52Z</time>
      </trkpt>
      <trkpt lat="45.402" lon="2.55551">
        <ele>552.6</ele>
        <time>2014-05-29T07:45:55Z</time>
      </trkpt>
      <trkpt lat="45.40203" lon="2.55563">
        <ele>552.9</ele>
        <time>2014-05-29T07:45:59Z</time>
      </trkpt>
      <trkpt lat="45.40205" lon="2.55573">
        <ele>552.2</ele>
        <time>2014-05-29T07:46:06Z</time>
      </trkpt>
      <trkpt lat="45.40213" lon="2.55577">
        <ele>554.4</ele>
        <time>2014-05-29T07:46:14Z</time>
      </trkpt>
      <trkpt lat="45.40217" lon="2.55588">
        <ele>556.8</ele>
        <time>2014-05-29T07:46:22Z</time>
      </trkpt>
      <trkpt lat="45.40217" lon="2.5559">
        <ele>556.9</ele>
        <time>2014-05-29T07:46:23Z</time>
      </trkpt>
      <trkpt lat="45.40222" lon="2.55609">
        <ele>557.5</ele>
        <time>2014-05-29T07:46:32Z</time>
      </trkpt>
      <trkpt lat="45.40224" lon="2.55619">
        <ele>558.4</ele>
        <time>2014-05-29T07:46:36Z</time>
      </trkpt>
      <trkpt lat="45.40226" lon="2.5563">
        <ele>559.4</ele>
        <time>2014-05-29T07:46:40Z</time>
      </trkpt>
      <trkpt lat="45.40229" lon="2.55642">
        <ele>560.5</ele>
        <time>2014-05-29T07:46:44Z</time>
      </trkpt>
      <trkpt lat="45.4023" lon="2.55654">
        <ele>560.8</ele>
        <time>2014-05-29T07:46:48Z</time>
      </trkpt>
      <trkpt lat="45.40232" lon="2.55666">
        <ele>561.2</ele>
        <time>2014-05-29T07:46:52Z</time>
      </trkpt>
      <trkpt lat="45.40233" lon="2.55676">
        <ele>561.2</ele>
        <time>2014-05-29T07:46:55Z</time>
      </trkpt>
      <trkpt lat="45.40234" lon="2.55686">
        <ele>561</ele>
        <time>2014-05-29T07:46:57Z</time>
      </trkpt>
      <trkpt lat="45.40232" lon="2.55695">
        <ele>560.5</ele>
        <time>2014-05-29T07:46:59Z</time>
      </trkpt>
      <trkpt lat="45.40229" lon="2.55704">
        <ele>559.4</ele>
        <time>2014-05-29T07:47:01Z</time>
      </trkpt>
      <trkpt lat="45.40224" lon="2.55713">
        <ele>558.1</ele>
        <time>2014-05-29T07:47:04Z</time>
      </trkpt>
      <trkpt lat="45.40224" lon="2.55724">
        <ele>556.1</ele>
        <time>2014-05-29T07:47:07Z</time>
      </trkpt>
      <trkpt lat="45.40231" lon="2.55732">
        <ele>554.6</ele>
        <time>2014-05-29T07:47:10Z</time>
      </trkpt>
      <trkpt lat="45.40237" lon="2.55736">
        <ele>554.4</ele>
        <time>2014-05-29T07:47:12Z</time>
      </trkpt>
      <trkpt lat="45.40244" lon="2.5574">
        <ele>554.4</ele>
        <time>2014-05-29T07:47:14Z</time>
      </trkpt>
      <trkpt lat="45.4025" lon="2.55745">
        <ele>554.5</ele>
        <time>2014-05-29T07:47:16Z</time>
      </trkpt>
      <trkpt lat="45.40255" lon="2.55749">
        <ele>554.8</ele>
        <time>2014-05-29T07:47:18Z</time>
      </trkpt>
      <trkpt lat="45.40262" lon="2.5575">
        <ele>554.7</ele>
        <time>2014-05-29T07:47:20Z</time>
      </trkpt>
      <trkpt lat="45.40268" lon="2.5575">
        <ele>554.2</ele>
        <time>2014-05-29T07:47:22Z</time>
      </trkpt>
      <trkpt lat="45.40275" lon="2.55749">
        <ele>554.4</ele>
        <time>2014-05-29T07:47:24Z</time>
      </trkpt>
      <trkpt lat="45.40278" lon="2.55748">
        <ele>554.7</ele>
        <time>2014-05-29T07:47:25Z</time>
      </trkpt>
      <trkpt lat="45.40288" lon="2.55751">
        <ele>555.3</ele>
        <time>2014-05-29T07:47:28Z</time>
      </trkpt>
      <trkpt lat="45.40296" lon="2.55756">
        <ele>555.2</ele>
        <time>2014-05-29T07:47:30Z</time>
      </trkpt>
      <trkpt lat="45.40301" lon="2.5576">
        <ele>555.2</ele>
        <time>2014-05-29T07:47:31Z</time>
      </trkpt>
      <trkpt lat="45.40305" lon="2.55765">
        <ele>555.2</ele>
        <time>2014-05-29T07:47:32Z</time>
      </trkpt>
      <trkpt lat="45.40309" lon="2.55769">
        <ele>555</ele>
        <time>2014-05-29T07:47:33Z</time>
      </trkpt>
      <trkpt lat="45.40318" lon="2.55773">
        <ele>554.7</ele>
        <time>2014-05-29T07:47:35Z</time>
      </trkpt>
      <trkpt lat="45.40326" lon="2.55775">
        <ele>552.7</ele>
        <time>2014-05-29T07:47:38Z</time>
      </trkpt>
      <trkpt lat="45.40332" lon="2.55778">
        <ele>552.1</ele>
        <time>2014-05-29T07:47:40Z</time>
      </trkpt>
      <trkpt lat="45.40338" lon="2.55778">
        <ele>551.7</ele>
        <time>2014-05-29T07:47:42Z</time>
      </trkpt>
      <trkpt lat="45.40344" lon="2.55781">
        <ele>551.9</ele>
        <time>2014-05-29T07:47:44Z</time>
      </trkpt>
      <trkpt lat="45.40353" lon="2.55784">
        <ele>551.8</ele>
        <time>2014-05-29T07:47:47Z</time>
      </trkpt>
      <trkpt lat="45.4036" lon="2.55789">
        <ele>551.8</ele>
        <time>2014-05-29T07:47:50Z</time>
      </trkpt>
      <trkpt lat="45.40369" lon="2.55791">
        <ele>552.7</ele>
        <time>2014-05-29T07:47:53Z</time>
      </trkpt>
      <trkpt lat="45.40376" lon="2.55793">
        <ele>553.2</ele>
        <time>2014-05-29T07:47:57Z</time>
      </trkpt>
      <trkpt lat="45.40384" lon="2.55792">
        <ele>554.4</ele>
        <time>2014-05-29T07:48:01Z</time>
      </trkpt>
      <trkpt lat="45.40393" lon="2.55794">
        <ele>555.7</ele>
        <time>2014-05-29T07:48:05Z</time>
      </trkpt>
      <trkpt lat="45.40401" lon="2.55799">
        <ele>555.2</ele>
        <time>2014-05-29T07:48:07Z</time>
      </trkpt>
      <trkpt lat="45.40406" lon="2.55801">
        <ele>555</ele>
        <time>2014-05-29T07:48:08Z</time>
      </trkpt>
      <trkpt lat="45.40411" lon="2.55803">
        <ele>554.8</ele>
        <time>2014-05-29T07:48:09Z</time>
      </trkpt>
      <trkpt lat="45.40416" lon="2.55804">
        <ele>554.6</ele>
        <time>2014-05-29T07:48:10Z</time>
      </trkpt>
      <trkpt lat="45.40423" lon="2.55805">
        <ele>553.2</ele>
        <time>2014-05-29T07:48:12Z</time>
      </trkpt>
      <trkpt lat="45.40431" lon="2.55804">
        <ele>553.4</ele>
        <time>2014-05-29T07:48:15Z</time>
      </trkpt>
      <trkpt lat="45.40439" lon="2.55804">
        <ele>553.9</ele>
        <time>2014-05-29T07:48:18Z</time>
      </trkpt>
      <trkpt lat="45.40448" lon="2.55803">
        <ele>554.4</ele>
        <time>2014-05-29T07:48:21Z</time>
      </trkpt>
      <trkpt lat="45.40455" lon="2.55803">
        <ele>554.8</ele>
        <time>2014-05-29T07:48:23Z</time>
      </trkpt>
      <trkpt lat="45.40461" lon="2.55802">
        <ele>555</ele>
        <time>2014-05-29T07:48:25Z</time>
      </trkpt>
      <trkpt lat="45.40464" lon="2.55802">
        <ele>554.8</ele>
        <time>2014-05-29T07:48:26Z</time>
      </trkpt>
      <trkpt lat="45.40475" lon="2.55801">
        <ele>556</ele>
        <time>2014-05-29T07:48:30Z</time>
      </trkpt>
      <trkpt lat="45.40483" lon="2.55801">
        <ele>556.1</ele>
        <time>2014-05-29T07:48:32Z</time>
      </trkpt>
      <trkpt lat="45.40491" lon="2.55798">
        <ele>555.6</ele>
        <time>2014-05-29T07:48:34Z</time>
      </trkpt>
      <trkpt lat="45.40498" lon="2.55796">
        <ele>556</ele>
        <time>2014-05-29T07:48:36Z</time>
      </trkpt>
      <trkpt lat="45.40505" lon="2.55791">
        <ele>556.9</ele>
        <time>2014-05-29T07:48:39Z</time>
      </trkpt>
      <trkpt lat="45.40513" lon="2.55787">
        <ele>557.7</ele>
        <time>2014-05-29T07:48:43Z</time>
      </trkpt>
      <trkpt lat="45.4052" lon="2.55782">
        <ele>559.3</ele>
        <time>2014-05-29T07:48:47Z</time>
      </trkpt>
      <trkpt lat="45.40527" lon="2.55776">
        <ele>560.3</ele>
        <time>2014-05-29T07:48:51Z</time>
      </trkpt>
      <trkpt lat="45.40536" lon="2.55773">
        <ele>560.6</ele>
        <time>2014-05-29T07:48:55Z</time>
      </trkpt>
      <trkpt lat="45.40544" lon="2.55773">
        <ele>561</ele>
        <time>2014-05-29T07:48:59Z</time>
      </trkpt>
      <trkpt lat="45.40552" lon="2.55774">
        <ele>560.5</ele>
        <time>2014-05-29T07:49:03Z</time>
      </trkpt>
      <trkpt lat="45.40561" lon="2.55771">
        <ele>559.4</ele>
        <time>2014-05-29T07:49:08Z</time>
      </trkpt>
      <trkpt lat="45.40569" lon="2.5577">
        <ele>559.4</ele>
        <time>2014-05-29T07:49:11Z</time>
      </trkpt>
      <trkpt lat="45.40575" lon="2.5577">
        <ele>559.4</ele>
        <time>2014-05-29T07:49:13Z</time>
      </trkpt>
      <trkpt lat="45.40582" lon="2.55769">
        <ele>559.6</ele>
        <time>2014-05-29T07:49:15Z</time>
      </trkpt>
      <trkpt lat="45.4059" lon="2.55766">
        <ele>559.7</ele>
        <time>2014-05-29T07:49:18Z</time>
      </trkpt>
      <trkpt lat="45.40598" lon="2.5576">
        <ele>560.2</ele>
        <time>2014-05-29T07:49:21Z</time>
      </trkpt>
      <trkpt lat="45.40605" lon="2.55754">
        <ele>560.1</ele>
        <time>2014-05-29T07:49:24Z</time>
      </trkpt>
      <trkpt lat="45.40612" lon="2.5575">
        <ele>560.7</ele>
        <time>2014-05-29T07:49:27Z</time>
      </trkpt>
      <trkpt lat="45.40615" lon="2.55749">
        <ele>560.7</ele>
        <time>2014-05-29T07:49:28Z</time>
      </trkpt>
      <trkpt lat="45.40626" lon="2.55739">
        <ele>562</ele>
        <time>2014-05-29T07:49:33Z</time>
      </trkpt>
      <trkpt lat="45.40632" lon="2.55735">
        <ele>562.7</ele>
        <time>2014-05-29T07:49:38Z</time>
      </trkpt>
      <trkpt lat="45.40641" lon="2.55731">
        <ele>562.1</ele>
        <time>2014-05-29T07:49:43Z</time>
      </trkpt>
      <trkpt lat="45.40648" lon="2.55728">
        <ele>563.3</ele>
        <time>2014-05-29T07:49:47Z</time>
      </trkpt>
      <trkpt lat="45.40655" lon="2.55723">
        <ele>563.5</ele>
        <time>2014-05-29T07:49:51Z</time>
      </trkpt>
      <trkpt lat="45.40662" lon="2.55719">
        <ele>563.1</ele>
        <time>2014-05-29T07:49:55Z</time>
      </trkpt>
      <trkpt lat="45.40668" lon="2.55714">
        <ele>563.9</ele>
        <time>2014-05-29T07:49:59Z</time>
      </trkpt>
      <trkpt lat="45.40675" lon="2.5571">
        <ele>564.3</ele>
        <time>2014-05-29T07:50:03Z</time>
      </trkpt>
      <trkpt lat="45.40683" lon="2.55706">
        <ele>564.9</ele>
        <time>2014-05-29T07:50:07Z</time>
      </trkpt>
      <trkpt lat="45.40691" lon="2.55703">
        <ele>564.6</ele>
        <time>2014-05-29T07:50:11Z</time>
      </trkpt>
      <trkpt lat="45.407" lon="2.55699">
        <ele>565.9</ele>
        <time>2014-05-29T07:50:16Z</time>
      </trkpt>
      <trkpt lat="45.40708" lon="2.55697">
        <ele>566.7</ele>
        <time>2014-05-29T07:50:21Z</time>
      </trkpt>
      <trkpt lat="45.40715" lon="2.5569">
        <ele>566.7</ele>
        <time>2014-05-29T07:50:26Z</time>
      </trkpt>
      <trkpt lat="45.40721" lon="2.55684">
        <ele>567</ele>
        <time>2014-05-29T07:50:30Z</time>
      </trkpt>
      <trkpt lat="45.40722" lon="2.55681">
        <ele>566.8</ele>
        <time>2014-05-29T07:50:31Z</time>
      </trkpt>
      <trkpt lat="45.40733" lon="2.55668">
        <ele>569.1</ele>
        <time>2014-05-29T07:50:39Z</time>
      </trkpt>
      <trkpt lat="45.4074" lon="2.55663">
        <ele>569.5</ele>
        <time>2014-05-29T07:50:42Z</time>
      </trkpt>
      <trkpt lat="45.40747" lon="2.55657">
        <ele>569.2</ele>
        <time>2014-05-29T07:50:46Z</time>
      </trkpt>
      <trkpt lat="45.40755" lon="2.55654">
        <ele>570.3</ele>
        <time>2014-05-29T07:50:51Z</time>
      </trkpt>
      <trkpt lat="45.40764" lon="2.55653">
        <ele>570.5</ele>
        <time>2014-05-29T07:50:56Z</time>
      </trkpt>
      <trkpt lat="45.40772" lon="2.55653">
        <ele>570</ele>
        <time>2014-05-29T07:51:01Z</time>
      </trkpt>
      <trkpt lat="45.4078" lon="2.55653">
        <ele>570.3</ele>
        <time>2014-05-29T07:51:05Z</time>
      </trkpt>
      <trkpt lat="45.40788" lon="2.55653">
        <ele>570.6</ele>
        <time>2014-05-29T07:51:09Z</time>
      </trkpt>
      <trkpt lat="45.40796" lon="2.55654">
        <ele>571.2</ele>
        <time>2014-05-29T07:51:12Z</time>
      </trkpt>
      <trkpt lat="45.40805" lon="2.55656">
        <ele>570.9</ele>
        <time>2014-05-29T07:51:16Z</time>
      </trkpt>
      <trkpt lat="45.40811" lon="2.55659">
        <ele>571.4</ele>
        <time>2014-05-29T07:51:19Z</time>
      </trkpt>
      <trkpt lat="45.4082" lon="2.55662">
        <ele>572.2</ele>
        <time>2014-05-29T07:51:23Z</time>
      </trkpt>
      <trkpt lat="45.40827" lon="2.55665">
        <ele>572.5</ele>
        <time>2014-05-29T07:51:26Z</time>
      </trkpt>
      <trkpt lat="45.40832" lon="2.5567">
        <ele>572.3</ele>
        <time>2014-05-29T07:51:28Z</time>
      </trkpt>
      <trkpt lat="45.40839" lon="2.55672">
        <ele>572.5</ele>
        <time>2014-05-29T07:51:30Z</time>
      </trkpt>
      <trkpt lat="45.40847" lon="2.55676">
        <ele>572.6</ele>
        <time>2014-05-29T07:51:33Z</time>
      </trkpt>
      <trkpt lat="45.40849" lon="2.55677">
        <ele>572.5</ele>
        <time>2014-05-29T07:51:34Z</time>
      </trkpt>
      <trkpt lat="45.40861" lon="2.55681">
        <ele>572.9</ele>
        <time>2014-05-29T07:51:37Z</time>
      </trkpt>
      <trkpt lat="45.40868" lon="2.55683">
        <ele>573.3</ele>
        <time>2014-05-29T07:51:39Z</time>
      </trkpt>
      <trkpt lat="45.40875" lon="2.55686">
        <ele>573.8</ele>
        <time>2014-05-29T07:51:41Z</time>
      </trkpt>
      <trkpt lat="45.40882" lon="2.5569">
        <ele>573.6</ele>
        <time>2014-05-29T07:51:43Z</time>
      </trkpt>
      <trkpt lat="45.40889" lon="2.55693">
        <ele>573.6</ele>
        <time>2014-05-29T07:51:45Z</time>
      </trkpt>
      <trkpt lat="45.40893" lon="2.55695">
        <ele>573.6</ele>
        <time>2014-05-29T07:51:46Z</time>
      </trkpt>
      <trkpt lat="45.40898" lon="2.55697">
        <ele>573.3</ele>
        <time>2014-05-29T07:51:47Z</time>
      </trkpt>
      <trkpt lat="45.40902" lon="2.55698">
        <ele>573.1</ele>
        <time>2014-05-29T07:51:48Z</time>
      </trkpt>
      <trkpt lat="45.40907" lon="2.55699">
        <ele>573.3</ele>
        <time>2014-05-29T07:51:49Z</time>
      </trkpt>
      <trkpt lat="45.40913" lon="2.557">
        <ele>573.4</ele>
        <time>2014-05-29T07:51:50Z</time>
      </trkpt>
      <trkpt lat="45.40919" lon="2.557">
        <ele>573.5</ele>
        <time>2014-05-29T07:51:51Z</time>
      </trkpt>
      <trkpt lat="45.40924" lon="2.557">
        <ele>573.2</ele>
        <time>2014-05-29T07:51:52Z</time>
      </trkpt>
      <trkpt lat="45.40929" lon="2.557">
        <ele>572.9</ele>
        <time>2014-05-29T07:51:53Z</time>
      </trkpt>
      <trkpt lat="45.40934" lon="2.55701">
        <ele>572.9</ele>
        <time>2014-05-29T07:51:54Z</time>
      </trkpt>
      <trkpt lat="45.40943" lon="2.55701">
        <ele>573.3</ele>
        <time>2014-05-29T07:51:56Z</time>
      </trkpt>
      <trkpt lat="45.4095" lon="2.557">
        <ele>573.8</ele>
        <time>2014-05-29T07:51:58Z</time>
      </trkpt>
      <trkpt lat="45.40958" lon="2.55698">
        <ele>574.7</ele>
        <time>2014-05-29T07:52:00Z</time>
      </trkpt>
      <trkpt lat="45.40964" lon="2.55696">
        <ele>574.8</ele>
        <time>2014-05-29T07:52:02Z</time>
      </trkpt>
      <trkpt lat="45.40971" lon="2.55692">
        <ele>575.2</ele>
        <time>2014-05-29T07:52:04Z</time>
      </trkpt>
      <trkpt lat="45.40976" lon="2.55686">
        <ele>575.5</ele>
        <time>2014-05-29T07:52:06Z</time>
      </trkpt>
      <trkpt lat="45.40979" lon="2.55678">
        <ele>575.9</ele>
        <time>2014-05-29T07:52:08Z</time>
      </trkpt>
      <trkpt lat="45.40981" lon="2.55669">
        <ele>576.3</ele>
        <time>2014-05-29T07:52:10Z</time>
      </trkpt>
      <trkpt lat="45.40983" lon="2.5566">
        <ele>576.6</ele>
        <time>2014-05-29T07:52:12Z</time>
      </trkpt>
      <trkpt lat="45.40985" lon="2.5565">
        <ele>576.8</ele>
        <time>2014-05-29T07:52:14Z</time>
      </trkpt>
      <trkpt lat="45.40987" lon="2.55641">
        <ele>576.5</ele>
        <time>2014-05-29T07:52:16Z</time>
      </trkpt>
      <trkpt lat="45.4099" lon="2.55633">
        <ele>576.1</ele>
        <time>2014-05-29T07:52:18Z</time>
      </trkpt>
      <trkpt lat="45.40996" lon="2.55626">
        <ele>576</ele>
        <time>2014-05-29T07:52:20Z</time>
      </trkpt>
      <trkpt lat="45.41002" lon="2.55622">
        <ele>576.2</ele>
        <time>2014-05-29T07:52:22Z</time>
      </trkpt>
      <trkpt lat="45.41009" lon="2.55621">
        <ele>577.6</ele>
        <time>2014-05-29T07:52:24Z</time>
      </trkpt>
      <trkpt lat="45.41015" lon="2.55623">
        <ele>577.8</ele>
        <time>2014-05-29T07:52:26Z</time>
      </trkpt>
      <trkpt lat="45.41021" lon="2.55626">
        <ele>578.3</ele>
        <time>2014-05-29T07:52:28Z</time>
      </trkpt>
      <trkpt lat="45.41027" lon="2.55628">
        <ele>578.9</ele>
        <time>2014-05-29T07:52:30Z</time>
      </trkpt>
      <trkpt lat="45.41033" lon="2.5563">
        <ele>579.3</ele>
        <time>2014-05-29T07:52:32Z</time>
      </trkpt>
      <trkpt lat="45.4104" lon="2.5563">
        <ele>579.7</ele>
        <time>2014-05-29T07:52:34Z</time>
      </trkpt>
      <trkpt lat="45.41043" lon="2.5563">
        <ele>579.9</ele>
        <time>2014-05-29T07:52:35Z</time>
      </trkpt>
      <trkpt lat="45.41052" lon="2.55629">
        <ele>581.1</ele>
        <time>2014-05-29T07:52:38Z</time>
      </trkpt>
      <trkpt lat="45.41058" lon="2.55627">
        <ele>581.5</ele>
        <time>2014-05-29T07:52:40Z</time>
      </trkpt>
      <trkpt lat="45.41064" lon="2.55625">
        <ele>581.6</ele>
        <time>2014-05-29T07:52:42Z</time>
      </trkpt>
      <trkpt lat="45.41072" lon="2.55623">
        <ele>581.5</ele>
        <time>2014-05-29T07:52:44Z</time>
      </trkpt>
      <trkpt lat="45.41079" lon="2.55623">
        <ele>581.6</ele>
        <time>2014-05-29T07:52:46Z</time>
      </trkpt>
      <trkpt lat="45.41088" lon="2.55622">
        <ele>581.9</ele>
        <time>2014-05-29T07:52:48Z</time>
      </trkpt>
      <trkpt lat="45.41092" lon="2.55622">
        <ele>581.9</ele>
        <time>2014-05-29T07:52:49Z</time>
      </trkpt>
      <trkpt lat="45.41097" lon="2.55622">
        <ele>581.9</ele>
        <time>2014-05-29T07:52:50Z</time>
      </trkpt>
      <trkpt lat="45.41102" lon="2.55622">
        <ele>581.8</ele>
        <time>2014-05-29T07:52:51Z</time>
      </trkpt>
      <trkpt lat="45.41107" lon="2.55621">
        <ele>581.7</ele>
        <time>2014-05-29T07:52:52Z</time>
      </trkpt>
      <trkpt lat="45.41112" lon="2.55622">
        <ele>582.1</ele>
        <time>2014-05-29T07:52:53Z</time>
      </trkpt>
      <trkpt lat="45.41121" lon="2.55622">
        <ele>582.7</ele>
        <time>2014-05-29T07:52:55Z</time>
      </trkpt>
      <trkpt lat="45.41128" lon="2.55622">
        <ele>582.5</ele>
        <time>2014-05-29T07:52:57Z</time>
      </trkpt>
      <trkpt lat="45.41124" lon="2.55631">
        <ele>581.5</ele>
        <time>2014-05-29T07:53:08Z</time>
      </trkpt>
      <trkpt lat="45.41125" lon="2.55643">
        <ele>580.1</ele>
        <time>2014-05-29T07:53:11Z</time>
      </trkpt>
      <trkpt lat="45.41126" lon="2.55651">
        <ele>578.5</ele>
        <time>2014-05-29T07:53:13Z</time>
      </trkpt>
      <trkpt lat="45.41128" lon="2.55661">
        <ele>576.7</ele>
        <time>2014-05-29T07:53:15Z</time>
      </trkpt>
      <trkpt lat="45.41126" lon="2.55671">
        <ele>573.8</ele>
        <time>2014-05-29T07:53:18Z</time>
      </trkpt>
      <trkpt lat="45.41124" lon="2.55681">
        <ele>571.6</ele>
        <time>2014-05-29T07:53:20Z</time>
      </trkpt>
      <trkpt lat="45.41121" lon="2.55692">
        <ele>568.5</ele>
        <time>2014-05-29T07:53:22Z</time>
      </trkpt>
      <trkpt lat="45.41116" lon="2.557">
        <ele>564.6</ele>
        <time>2014-05-29T07:53:24Z</time>
      </trkpt>
      <trkpt lat="45.41113" lon="2.5571">
        <ele>559.8</ele>
        <time>2014-05-29T07:53:27Z</time>
      </trkpt>
      <trkpt lat="45.41114" lon="2.55722">
        <ele>555.4</ele>
        <time>2014-05-29T07:53:37Z</time>
      </trkpt>
      <trkpt lat="45.41114" lon="2.55723">
        <ele>555.4</ele>
        <time>2014-05-29T07:53:38Z</time>
      </trkpt>
      <trkpt lat="45.41113" lon="2.55746">
        <ele>555.6</ele>
        <time>2014-05-29T07:53:51Z</time>
      </trkpt>
      <trkpt lat="45.41112" lon="2.55758">
        <ele>557.3</ele>
        <time>2014-05-29T07:53:58Z</time>
      </trkpt>
      <trkpt lat="45.41112" lon="2.55769">
        <ele>559.6</ele>
        <time>2014-05-29T07:54:04Z</time>
      </trkpt>
      <trkpt lat="45.41114" lon="2.5578">
        <ele>561.6</ele>
        <time>2014-05-29T07:54:08Z</time>
      </trkpt>
      <trkpt lat="45.41115" lon="2.55793">
        <ele>562.9</ele>
        <time>2014-05-29T07:54:12Z</time>
      </trkpt>
      <trkpt lat="45.41115" lon="2.55805">
        <ele>563.7</ele>
        <time>2014-05-29T07:54:15Z</time>
      </trkpt>
      <trkpt lat="45.4111" lon="2.55814">
        <ele>564.3</ele>
        <time>2014-05-29T07:54:18Z</time>
      </trkpt>
      <trkpt lat="45.41104" lon="2.55823">
        <ele>564.3</ele>
        <time>2014-05-29T07:54:21Z</time>
      </trkpt>
      <trkpt lat="45.41099" lon="2.55829">
        <ele>564.3</ele>
        <time>2014-05-29T07:54:23Z</time>
      </trkpt>
      <trkpt lat="45.41094" lon="2.55836">
        <ele>564.1</ele>
        <time>2014-05-29T07:54:25Z</time>
      </trkpt>
      <trkpt lat="45.41089" lon="2.55842">
        <ele>564.6</ele>
        <time>2014-05-29T07:54:27Z</time>
      </trkpt>
      <trkpt lat="45.41083" lon="2.55848">
        <ele>564.3</ele>
        <time>2014-05-29T07:54:29Z</time>
      </trkpt>
      <trkpt lat="45.41077" lon="2.55856">
        <ele>564.4</ele>
        <time>2014-05-29T07:54:32Z</time>
      </trkpt>
      <trkpt lat="45.41071" lon="2.55864">
        <ele>564.2</ele>
        <time>2014-05-29T07:54:36Z</time>
      </trkpt>
      <trkpt lat="45.41065" lon="2.55871">
        <ele>563.7</ele>
        <time>2014-05-29T07:54:40Z</time>
      </trkpt>
      <trkpt lat="45.41063" lon="2.55872">
        <ele>563.6</ele>
        <time>2014-05-29T07:54:41Z</time>
      </trkpt>
      <trkpt lat="45.4105" lon="2.55876">
        <ele>564.5</ele>
        <time>2014-05-29T07:54:45Z</time>
      </trkpt>
      <trkpt lat="45.41043" lon="2.55876">
        <ele>565</ele>
        <time>2014-05-29T07:54:47Z</time>
      </trkpt>
      <trkpt lat="45.41035" lon="2.55875">
        <ele>565</ele>
        <time>2014-05-29T07:54:49Z</time>
      </trkpt>
      <trkpt lat="45.41027" lon="2.55874">
        <ele>565</ele>
        <time>2014-05-29T07:54:51Z</time>
      </trkpt>
      <trkpt lat="45.41018" lon="2.55874">
        <ele>564.9</ele>
        <time>2014-05-29T07:54:53Z</time>
      </trkpt>
      <trkpt lat="45.4101" lon="2.55874">
        <ele>564.7</ele>
        <time>2014-05-29T07:54:55Z</time>
      </trkpt>
      <trkpt lat="45.41001" lon="2.55872">
        <ele>564.7</ele>
        <time>2014-05-29T07:54:57Z</time>
      </trkpt>
      <trkpt lat="45.40993" lon="2.55871">
        <ele>564.8</ele>
        <time>2014-05-29T07:54:59Z</time>
      </trkpt>
      <trkpt lat="45.40984" lon="2.5587">
        <ele>564.8</ele>
        <time>2014-05-29T07:55:01Z</time>
      </trkpt>
      <trkpt lat="45.40976" lon="2.55869">
        <ele>564.8</ele>
        <time>2014-05-29T07:55:03Z</time>
      </trkpt>
      <trkpt lat="45.40967" lon="2.55868">
        <ele>565.2</ele>
        <time>2014-05-29T07:55:05Z</time>
      </trkpt>
      <trkpt lat="45.40958" lon="2.55867">
        <ele>564.9</ele>
        <time>2014-05-29T07:55:07Z</time>
      </trkpt>
      <trkpt lat="45.4095" lon="2.55867">
        <ele>564.8</ele>
        <time>2014-05-29T07:55:09Z</time>
      </trkpt>
      <trkpt lat="45.40941" lon="2.55867">
        <ele>564.9</ele>
        <time>2014-05-29T07:55:11Z</time>
      </trkpt>
      <trkpt lat="45.40933" lon="2.55867">
        <ele>565.2</ele>
        <time>2014-05-29T07:55:13Z</time>
      </trkpt>
      <trkpt lat="45.40925" lon="2.55867">
        <ele>565.4</ele>
        <time>2014-05-29T07:55:15Z</time>
      </trkpt>
      <trkpt lat="45.4092" lon="2.55867">
        <ele>565.5</ele>
        <time>2014-05-29T07:55:16Z</time>
      </trkpt>
      <trkpt lat="45.40915" lon="2.55868">
        <ele>565.6</ele>
        <time>2014-05-29T07:55:17Z</time>
      </trkpt>
      <trkpt lat="45.40907" lon="2.55871">
        <ele>565.8</ele>
        <time>2014-05-29T07:55:19Z</time>
      </trkpt>
      <trkpt lat="45.409" lon="2.55874">
        <ele>565.8</ele>
        <time>2014-05-29T07:55:21Z</time>
      </trkpt>
      <trkpt lat="45.40893" lon="2.55879">
        <ele>565.6</ele>
        <time>2014-05-29T07:55:23Z</time>
      </trkpt>
      <trkpt lat="45.40887" lon="2.55884">
        <ele>565.7</ele>
        <time>2014-05-29T07:55:25Z</time>
      </trkpt>
      <trkpt lat="45.4088" lon="2.55891">
        <ele>565.9</ele>
        <time>2014-05-29T07:55:27Z</time>
      </trkpt>
      <trkpt lat="45.40874" lon="2.55899">
        <ele>565.8</ele>
        <time>2014-05-29T07:55:29Z</time>
      </trkpt>
      <trkpt lat="45.4087" lon="2.55904">
        <ele>565.9</ele>
        <time>2014-05-29T07:55:30Z</time>
      </trkpt>
      <trkpt lat="45.40867" lon="2.55909">
        <ele>565.9</ele>
        <time>2014-05-29T07:55:31Z</time>
      </trkpt>
      <trkpt lat="45.40865" lon="2.55914">
        <ele>566.3</ele>
        <time>2014-05-29T07:55:32Z</time>
      </trkpt>
      <trkpt lat="45.40862" lon="2.5592">
        <ele>566.6</ele>
        <time>2014-05-29T07:55:33Z</time>
      </trkpt>
      <trkpt lat="45.40862" lon="2.55932">
        <ele>566.7</ele>
        <time>2014-05-29T07:55:35Z</time>
      </trkpt>
      <trkpt lat="45.40863" lon="2.55939">
        <ele>566.6</ele>
        <time>2014-05-29T07:55:36Z</time>
      </trkpt>
      <trkpt lat="45.40863" lon="2.55946">
        <ele>566.3</ele>
        <time>2014-05-29T07:55:37Z</time>
      </trkpt>
      <trkpt lat="45.40862" lon="2.55952">
        <ele>566.1</ele>
        <time>2014-05-29T07:55:38Z</time>
      </trkpt>
      <trkpt lat="45.4086" lon="2.55959">
        <ele>565.8</ele>
        <time>2014-05-29T07:55:39Z</time>
      </trkpt>
      <trkpt lat="45.40858" lon="2.55965">
        <ele>565.6</ele>
        <time>2014-05-29T07:55:40Z</time>
      </trkpt>
      <trkpt lat="45.40857" lon="2.55972">
        <ele>565.5</ele>
        <time>2014-05-29T07:55:41Z</time>
      </trkpt>
      <trkpt lat="45.40855" lon="2.55978">
        <ele>565.8</ele>
        <time>2014-05-29T07:55:42Z</time>
      </trkpt>
      <trkpt lat="45.40854" lon="2.55984">
        <ele>565.9</ele>
        <time>2014-05-29T07:55:43Z</time>
      </trkpt>
      <trkpt lat="45.40853" lon="2.55991">
        <ele>565.5</ele>
        <time>2014-05-29T07:55:44Z</time>
      </trkpt>
      <trkpt lat="45.40852" lon="2.56003">
        <ele>564.9</ele>
        <time>2014-05-29T07:55:46Z</time>
      </trkpt>
      <trkpt lat="45.40853" lon="2.56009">
        <ele>565</ele>
        <time>2014-05-29T07:55:47Z</time>
      </trkpt>
      <trkpt lat="45.40855" lon="2.56015">
        <ele>565.1</ele>
        <time>2014-05-29T07:55:48Z</time>
      </trkpt>
      <trkpt lat="45.40859" lon="2.56027">
        <ele>565.9</ele>
        <time>2014-05-29T07:55:50Z</time>
      </trkpt>
      <trkpt lat="45.40863" lon="2.56033">
        <ele>565.8</ele>
        <time>2014-05-29T07:55:51Z</time>
      </trkpt>
      <trkpt lat="45.40866" lon="2.56039">
        <ele>565.8</ele>
        <time>2014-05-29T07:55:52Z</time>
      </trkpt>
      <trkpt lat="45.4087" lon="2.56045">
        <ele>565.7</ele>
        <time>2014-05-29T07:55:53Z</time>
      </trkpt>
      <trkpt lat="45.40874" lon="2.56049">
        <ele>566.1</ele>
        <time>2014-05-29T07:55:54Z</time>
      </trkpt>
      <trkpt lat="45.40881" lon="2.56057">
        <ele>566.3</ele>
        <time>2014-05-29T07:55:56Z</time>
      </trkpt>
      <trkpt lat="45.40885" lon="2.56066">
        <ele>566.7</ele>
        <time>2014-05-29T07:55:59Z</time>
      </trkpt>
      <trkpt lat="45.40889" lon="2.56073">
        <ele>566.9</ele>
        <time>2014-05-29T07:56:01Z</time>
      </trkpt>
      <trkpt lat="45.40894" lon="2.56082">
        <ele>567.6</ele>
        <time>2014-05-29T07:56:04Z</time>
      </trkpt>
      <trkpt lat="45.409" lon="2.56092">
        <ele>568.2</ele>
        <time>2014-05-29T07:56:08Z</time>
      </trkpt>
      <trkpt lat="45.40905" lon="2.56103">
        <ele>570.1</ele>
        <time>2014-05-29T07:56:12Z</time>
      </trkpt>
      <trkpt lat="45.4091" lon="2.56113">
        <ele>570.4</ele>
        <time>2014-05-29T07:56:15Z</time>
      </trkpt>
      <trkpt lat="45.40913" lon="2.56121">
        <ele>570.7</ele>
        <time>2014-05-29T07:56:17Z</time>
      </trkpt>
      <trkpt lat="45.40916" lon="2.56129">
        <ele>571</ele>
        <time>2014-05-29T07:56:19Z</time>
      </trkpt>
      <trkpt lat="45.4092" lon="2.5614">
        <ele>572</ele>
        <time>2014-05-29T07:56:22Z</time>
      </trkpt>
      <trkpt lat="45.40923" lon="2.56149">
        <ele>572.3</ele>
        <time>2014-05-29T07:56:25Z</time>
      </trkpt>
      <trkpt lat="45.40928" lon="2.5616">
        <ele>572.7</ele>
        <time>2014-05-29T07:56:28Z</time>
      </trkpt>
      <trkpt lat="45.40931" lon="2.56168">
        <ele>573</ele>
        <time>2014-05-29T07:56:30Z</time>
      </trkpt>
      <trkpt lat="45.40934" lon="2.56176">
        <ele>573.4</ele>
        <time>2014-05-29T07:56:32Z</time>
      </trkpt>
      <trkpt lat="45.40937" lon="2.56185">
        <ele>574</ele>
        <time>2014-05-29T07:56:34Z</time>
      </trkpt>
      <trkpt lat="45.40941" lon="2.56195">
        <ele>574.6</ele>
        <time>2014-05-29T07:56:36Z</time>
      </trkpt>
      <trkpt lat="45.40944" lon="2.56206">
        <ele>575</ele>
        <time>2014-05-29T07:56:38Z</time>
      </trkpt>
      <trkpt lat="45.40947" lon="2.56214">
        <ele>574.9</ele>
        <time>2014-05-29T07:56:40Z</time>
      </trkpt>
      <trkpt lat="45.4095" lon="2.56225">
        <ele>575.2</ele>
        <time>2014-05-29T07:56:42Z</time>
      </trkpt>
      <trkpt lat="45.40951" lon="2.56229">
        <ele>575.3</ele>
        <time>2014-05-29T07:56:43Z</time>
      </trkpt>
      <trkpt lat="45.40956" lon="2.56244">
        <ele>575.8</ele>
        <time>2014-05-29T07:56:46Z</time>
      </trkpt>
      <trkpt lat="45.40959" lon="2.56254">
        <ele>575.8</ele>
        <time>2014-05-29T07:56:48Z</time>
      </trkpt>
      <trkpt lat="45.40962" lon="2.56265">
        <ele>575.3</ele>
        <time>2014-05-29T07:56:50Z</time>
      </trkpt>
      <trkpt lat="45.40965" lon="2.56275">
        <ele>575.6</ele>
        <time>2014-05-29T07:56:52Z</time>
      </trkpt>
      <trkpt lat="45.40968" lon="2.56285">
        <ele>576</ele>
        <time>2014-05-29T07:56:54Z</time>
      </trkpt>
      <trkpt lat="45.40972" lon="2.56296">
        <ele>576.2</ele>
        <time>2014-05-29T07:56:56Z</time>
      </trkpt>
      <trkpt lat="45.40975" lon="2.56307">
        <ele>576.5</ele>
        <time>2014-05-29T07:56:58Z</time>
      </trkpt>
      <trkpt lat="45.40979" lon="2.56318">
        <ele>576.8</ele>
        <time>2014-05-29T07:57:00Z</time>
      </trkpt>
      <trkpt lat="45.40982" lon="2.56329">
        <ele>576.9</ele>
        <time>2014-05-29T07:57:02Z</time>
      </trkpt>
      <trkpt lat="45.40985" lon="2.56339">
        <ele>577.3</ele>
        <time>2014-05-29T07:57:04Z</time>
      </trkpt>
      <trkpt lat="45.40988" lon="2.56349">
        <ele>578.1</ele>
        <time>2014-05-29T07:57:06Z</time>
      </trkpt>
      <trkpt lat="45.40991" lon="2.56359">
        <ele>579</ele>
        <time>2014-05-29T07:57:08Z</time>
      </trkpt>
      <trkpt lat="45.40993" lon="2.56368">
        <ele>579.3</ele>
        <time>2014-05-29T07:57:10Z</time>
      </trkpt>
      <trkpt lat="45.40996" lon="2.56379">
        <ele>579.6</ele>
        <time>2014-05-29T07:57:13Z</time>
      </trkpt>
      <trkpt lat="45.41004" lon="2.56374">
        <ele>582.5</ele>
        <time>2014-05-29T07:57:23Z</time>
      </trkpt>
      <trkpt lat="45.41009" lon="2.56364">
        <ele>584.4</ele>
        <time>2014-05-29T07:57:30Z</time>
      </trkpt>
      <trkpt lat="45.41011" lon="2.56353">
        <ele>585.2</ele>
        <time>2014-05-29T07:57:38Z</time>
      </trkpt>
      <trkpt lat="45.41012" lon="2.5634">
        <ele>587.2</ele>
        <time>2014-05-29T07:57:45Z</time>
      </trkpt>
      <trkpt lat="45.41012" lon="2.56339">
        <ele>587.5</ele>
        <time>2014-05-29T07:57:46Z</time>
      </trkpt>
      <trkpt lat="45.41017" lon="2.56318">
        <ele>589.2</ele>
        <time>2014-05-29T07:57:57Z</time>
      </trkpt>
      <trkpt lat="45.41019" lon="2.56307">
        <ele>590.3</ele>
        <time>2014-05-29T07:58:02Z</time>
      </trkpt>
      <trkpt lat="45.41025" lon="2.56297">
        <ele>591.8</ele>
        <time>2014-05-29T07:58:07Z</time>
      </trkpt>
      <trkpt lat="45.41032" lon="2.56291">
        <ele>593.2</ele>
        <time>2014-05-29T07:58:12Z</time>
      </trkpt>
      <trkpt lat="45.4104" lon="2.56287">
        <ele>594</ele>
        <time>2014-05-29T07:58:17Z</time>
      </trkpt>
      <trkpt lat="45.41047" lon="2.5628">
        <ele>594.9</ele>
        <time>2014-05-29T07:58:22Z</time>
      </trkpt>
      <trkpt lat="45.41051" lon="2.56269">
        <ele>595.9</ele>
        <time>2014-05-29T07:58:28Z</time>
      </trkpt>
      <trkpt lat="45.41056" lon="2.56259">
        <ele>597.7</ele>
        <time>2014-05-29T07:58:34Z</time>
      </trkpt>
      <trkpt lat="45.4106" lon="2.56248">
        <ele>598.5</ele>
        <time>2014-05-29T07:58:40Z</time>
      </trkpt>
      <trkpt lat="45.41065" lon="2.56239">
        <ele>599.9</ele>
        <time>2014-05-29T07:58:45Z</time>
      </trkpt>
      <trkpt lat="45.41069" lon="2.56228">
        <ele>600</ele>
        <time>2014-05-29T07:58:50Z</time>
      </trkpt>
      <trkpt lat="45.41069" lon="2.56226">
        <ele>600.1</ele>
        <time>2014-05-29T07:58:51Z</time>
      </trkpt>
      <trkpt lat="45.41076" lon="2.5621">
        <ele>601.1</ele>
        <time>2014-05-29T07:58:59Z</time>
      </trkpt>
      <trkpt lat="45.41083" lon="2.56204">
        <ele>601.7</ele>
        <time>2014-05-29T07:59:03Z</time>
      </trkpt>
      <trkpt lat="45.4109" lon="2.56201">
        <ele>601.9</ele>
        <time>2014-05-29T07:59:06Z</time>
      </trkpt>
      <trkpt lat="45.41097" lon="2.56199">
        <ele>602.4</ele>
        <time>2014-05-29T07:59:09Z</time>
      </trkpt>
      <trkpt lat="45.41106" lon="2.562">
        <ele>602.4</ele>
        <time>2014-05-29T07:59:13Z</time>
      </trkpt>
      <trkpt lat="45.41112" lon="2.56201">
        <ele>603.5</ele>
        <time>2014-05-29T07:59:16Z</time>
      </trkpt>
      <trkpt lat="45.4112" lon="2.56204">
        <ele>603.6</ele>
        <time>2014-05-29T07:59:20Z</time>
      </trkpt>
      <trkpt lat="45.41127" lon="2.56207">
        <ele>604.3</ele>
        <time>2014-05-29T07:59:23Z</time>
      </trkpt>
      <trkpt lat="45.41134" lon="2.5621">
        <ele>605.1</ele>
        <time>2014-05-29T07:59:26Z</time>
      </trkpt>
      <trkpt lat="45.41141" lon="2.56213">
        <ele>605.6</ele>
        <time>2014-05-29T07:59:30Z</time>
      </trkpt>
      <trkpt lat="45.41148" lon="2.56217">
        <ele>606.1</ele>
        <time>2014-05-29T07:59:34Z</time>
      </trkpt>
      <trkpt lat="45.41156" lon="2.56222">
        <ele>607.6</ele>
        <time>2014-05-29T07:59:39Z</time>
      </trkpt>
      <trkpt lat="45.41164" lon="2.56218">
        <ele>607.9</ele>
        <time>2014-05-29T07:59:45Z</time>
      </trkpt>
      <trkpt lat="45.41162" lon="2.56209">
        <ele>607.1</ele>
        <time>2014-05-29T07:59:47Z</time>
      </trkpt>
      <trkpt lat="45.41159" lon="2.56204">
        <ele>606.9</ele>
        <time>2014-05-29T07:59:48Z</time>
      </trkpt>
      <trkpt lat="45.41154" lon="2.56193">
        <ele>605.4</ele>
        <time>2014-05-29T07:59:50Z</time>
      </trkpt>
      <trkpt lat="45.41157" lon="2.56182">
        <ele>599.9</ele>
        <time>2014-05-29T07:59:56Z</time>
      </trkpt>
      <trkpt lat="45.4116" lon="2.56181">
        <ele>599.2</ele>
        <time>2014-05-29T07:59:57Z</time>
      </trkpt>
      <trkpt lat="45.41173" lon="2.56175">
        <ele>596.3</ele>
        <time>2014-05-29T08:00:05Z</time>
      </trkpt>
      <trkpt lat="45.41178" lon="2.56165">
        <ele>596.1</ele>
        <time>2014-05-29T08:00:15Z</time>
      </trkpt>
      <trkpt lat="45.41178" lon="2.56153">
        <ele>595.7</ele>
        <time>2014-05-29T08:00:18Z</time>
      </trkpt>
      <trkpt lat="45.41181" lon="2.56142">
        <ele>594.6</ele>
        <time>2014-05-29T08:00:21Z</time>
      </trkpt>
      <trkpt lat="45.41184" lon="2.56133">
        <ele>593.7</ele>
        <time>2014-05-29T08:00:23Z</time>
      </trkpt>
      <trkpt lat="45.41187" lon="2.56124">
        <ele>593</ele>
        <time>2014-05-29T08:00:25Z</time>
      </trkpt>
      <trkpt lat="45.41191" lon="2.56115">
        <ele>592.5</ele>
        <time>2014-05-29T08:00:28Z</time>
      </trkpt>
      <trkpt lat="45.41193" lon="2.56107">
        <ele>592</ele>
        <time>2014-05-29T08:00:30Z</time>
      </trkpt>
      <trkpt lat="45.41198" lon="2.56097">
        <ele>591.6</ele>
        <time>2014-05-29T08:00:32Z</time>
      </trkpt>
      <trkpt lat="45.41201" lon="2.56093">
        <ele>591.5</ele>
        <time>2014-05-29T08:00:33Z</time>
      </trkpt>
      <trkpt lat="45.41203" lon="2.56086">
        <ele>591</ele>
        <time>2014-05-29T08:00:34Z</time>
      </trkpt>
      <trkpt lat="45.41206" lon="2.56076">
        <ele>589.8</ele>
        <time>2014-05-29T08:00:36Z</time>
      </trkpt>
      <trkpt lat="45.41206" lon="2.56068">
        <ele>588.5</ele>
        <time>2014-05-29T08:00:38Z</time>
      </trkpt>
      <trkpt lat="45.4121" lon="2.56058">
        <ele>587.5</ele>
        <time>2014-05-29T08:00:40Z</time>
      </trkpt>
      <trkpt lat="45.41213" lon="2.56053">
        <ele>586.8</ele>
        <time>2014-05-29T08:00:41Z</time>
      </trkpt>
      <trkpt lat="45.41216" lon="2.56048">
        <ele>586.2</ele>
        <time>2014-05-29T08:00:42Z</time>
      </trkpt>
      <trkpt lat="45.4122" lon="2.56044">
        <ele>585.7</ele>
        <time>2014-05-29T08:00:43Z</time>
      </trkpt>
      <trkpt lat="45.41224" lon="2.5604">
        <ele>585.2</ele>
        <time>2014-05-29T08:00:44Z</time>
      </trkpt>
      <trkpt lat="45.41229" lon="2.56037">
        <ele>584.9</ele>
        <time>2014-05-29T08:00:45Z</time>
      </trkpt>
      <trkpt lat="45.41233" lon="2.56034">
        <ele>584.7</ele>
        <time>2014-05-29T08:00:46Z</time>
      </trkpt>
      <trkpt lat="45.41238" lon="2.56031">
        <ele>584.5</ele>
        <time>2014-05-29T08:00:47Z</time>
      </trkpt>
      <trkpt lat="45.41243" lon="2.5603">
        <ele>583.7</ele>
        <time>2014-05-29T08:00:48Z</time>
      </trkpt>
      <trkpt lat="45.41252" lon="2.5603">
        <ele>582.5</ele>
        <time>2014-05-29T08:00:50Z</time>
      </trkpt>
      <trkpt lat="45.41259" lon="2.56032">
        <ele>581.9</ele>
        <time>2014-05-29T08:00:52Z</time>
      </trkpt>
      <trkpt lat="45.41266" lon="2.56034">
        <ele>581.7</ele>
        <time>2014-05-29T08:00:54Z</time>
      </trkpt>
      <trkpt lat="45.41275" lon="2.56037">
        <ele>582.2</ele>
        <time>2014-05-29T08:00:57Z</time>
      </trkpt>
      <trkpt lat="45.41277" lon="2.56036">
        <ele>582.1</ele>
        <time>2014-05-29T08:00:58Z</time>
      </trkpt>
      <trkpt lat="45.41292" lon="2.56036">
        <ele>582.4</ele>
        <time>2014-05-29T08:01:05Z</time>
      </trkpt>
      <trkpt lat="45.41297" lon="2.56034">
        <ele>582.2</ele>
        <time>2014-05-29T08:01:06Z</time>
      </trkpt>
      <trkpt lat="45.41305" lon="2.56029">
        <ele>581</ele>
        <time>2014-05-29T08:01:08Z</time>
      </trkpt>
      <trkpt lat="45.41313" lon="2.56025">
        <ele>578.5</ele>
        <time>2014-05-29T08:01:11Z</time>
      </trkpt>
      <trkpt lat="45.41321" lon="2.56022">
        <ele>576.9</ele>
        <time>2014-05-29T08:01:14Z</time>
      </trkpt>
      <trkpt lat="45.41329" lon="2.56021">
        <ele>575.7</ele>
        <time>2014-05-29T08:01:17Z</time>
      </trkpt>
      <trkpt lat="45.41335" lon="2.56021">
        <ele>574.4</ele>
        <time>2014-05-29T08:01:19Z</time>
      </trkpt>
      <trkpt lat="45.41342" lon="2.56024">
        <ele>572.4</ele>
        <time>2014-05-29T08:01:21Z</time>
      </trkpt>
      <trkpt lat="45.4135" lon="2.56027">
        <ele>569.7</ele>
        <time>2014-05-29T08:01:24Z</time>
      </trkpt>
      <trkpt lat="45.41357" lon="2.56028">
        <ele>566.7</ele>
        <time>2014-05-29T08:01:28Z</time>
      </trkpt>
      <trkpt lat="45.41364" lon="2.56027">
        <ele>565.5</ele>
        <time>2014-05-29T08:01:30Z</time>
      </trkpt>
      <trkpt lat="45.41372" lon="2.56024">
        <ele>564</ele>
        <time>2014-05-29T08:01:32Z</time>
      </trkpt>
      <trkpt lat="45.41376" lon="2.56021">
        <ele>563.1</ele>
        <time>2014-05-29T08:01:33Z</time>
      </trkpt>
      <trkpt lat="45.41383" lon="2.56018">
        <ele>561.9</ele>
        <time>2014-05-29T08:01:35Z</time>
      </trkpt>
      <trkpt lat="45.41389" lon="2.56018">
        <ele>560.6</ele>
        <time>2014-05-29T08:01:37Z</time>
      </trkpt>
      <trkpt lat="45.41397" lon="2.56021">
        <ele>560.3</ele>
        <time>2014-05-29T08:01:40Z</time>
      </trkpt>
      <trkpt lat="45.41406" lon="2.56023">
        <ele>559.8</ele>
        <time>2014-05-29T08:01:45Z</time>
      </trkpt>
      <trkpt lat="45.41413" lon="2.56026">
        <ele>559.8</ele>
        <time>2014-05-29T08:01:49Z</time>
      </trkpt>
      <trkpt lat="45.4142" lon="2.56028">
        <ele>560.8</ele>
        <time>2014-05-29T08:01:53Z</time>
      </trkpt>
      <trkpt lat="45.41428" lon="2.56035">
        <ele>561.5</ele>
        <time>2014-05-29T08:01:59Z</time>
      </trkpt>
      <trkpt lat="45.4143" lon="2.56036">
        <ele>561.8</ele>
        <time>2014-05-29T08:02:00Z</time>
      </trkpt>
      <trkpt lat="45.41442" lon="2.56047">
        <ele>562.1</ele>
        <time>2014-05-29T08:02:07Z</time>
      </trkpt>
      <trkpt lat="45.41449" lon="2.56053">
        <ele>562.8</ele>
        <time>2014-05-29T08:02:11Z</time>
      </trkpt>
      <trkpt lat="45.41455" lon="2.56057">
        <ele>563.2</ele>
        <time>2014-05-29T08:02:14Z</time>
      </trkpt>
      <trkpt lat="45.41462" lon="2.56064">
        <ele>563.3</ele>
        <time>2014-05-29T08:02:18Z</time>
      </trkpt>
      <trkpt lat="45.41467" lon="2.56071">
        <ele>563.4</ele>
        <time>2014-05-29T08:02:22Z</time>
      </trkpt>
      <trkpt lat="45.41473" lon="2.56077">
        <ele>563.7</ele>
        <time>2014-05-29T08:02:25Z</time>
      </trkpt>
      <trkpt lat="45.41477" lon="2.56086">
        <ele>564</ele>
        <time>2014-05-29T08:02:28Z</time>
      </trkpt>
      <trkpt lat="45.41482" lon="2.56096">
        <ele>564.4</ele>
        <time>2014-05-29T08:02:32Z</time>
      </trkpt>
      <trkpt lat="45.41486" lon="2.56107">
        <ele>564.5</ele>
        <time>2014-05-29T08:02:36Z</time>
      </trkpt>
      <trkpt lat="45.41489" lon="2.56116">
        <ele>564.9</ele>
        <time>2014-05-29T08:02:39Z</time>
      </trkpt>
      <trkpt lat="45.41493" lon="2.56125">
        <ele>566.3</ele>
        <time>2014-05-29T08:02:42Z</time>
      </trkpt>
      <trkpt lat="45.41494" lon="2.56135">
        <ele>567.1</ele>
        <time>2014-05-29T08:02:45Z</time>
      </trkpt>
      <trkpt lat="45.41495" lon="2.56144">
        <ele>567.3</ele>
        <time>2014-05-29T08:02:48Z</time>
      </trkpt>
      <trkpt lat="45.41498" lon="2.56154">
        <ele>567.8</ele>
        <time>2014-05-29T08:02:51Z</time>
      </trkpt>
      <trkpt lat="45.41501" lon="2.56163">
        <ele>568.4</ele>
        <time>2014-05-29T08:02:54Z</time>
      </trkpt>
      <trkpt lat="45.41503" lon="2.56173">
        <ele>568.5</ele>
        <time>2014-05-29T08:02:57Z</time>
      </trkpt>
      <trkpt lat="45.41505" lon="2.56184">
        <ele>569.5</ele>
        <time>2014-05-29T08:03:00Z</time>
      </trkpt>
      <trkpt lat="45.41508" lon="2.56195">
        <ele>569.9</ele>
        <time>2014-05-29T08:03:04Z</time>
      </trkpt>
      <trkpt lat="45.41509" lon="2.56198">
        <ele>569.9</ele>
        <time>2014-05-29T08:03:05Z</time>
      </trkpt>
      <trkpt lat="45.41513" lon="2.56216">
        <ele>570.4</ele>
        <time>2014-05-29T08:03:11Z</time>
      </trkpt>
      <trkpt lat="45.41515" lon="2.56226">
        <ele>570.7</ele>
        <time>2014-05-29T08:03:15Z</time>
      </trkpt>
      <trkpt lat="45.41517" lon="2.56238">
        <ele>570.3</ele>
        <time>2014-05-29T08:03:19Z</time>
      </trkpt>
      <trkpt lat="45.4152" lon="2.56247">
        <ele>570.7</ele>
        <time>2014-05-29T08:03:21Z</time>
      </trkpt>
      <trkpt lat="45.41521" lon="2.56257">
        <ele>570.5</ele>
        <time>2014-05-29T08:03:24Z</time>
      </trkpt>
      <trkpt lat="45.4152" lon="2.56268">
        <ele>569.5</ele>
        <time>2014-05-29T08:03:28Z</time>
      </trkpt>
      <trkpt lat="45.41519" lon="2.56279">
        <ele>569.7</ele>
        <time>2014-05-29T08:03:32Z</time>
      </trkpt>
      <trkpt lat="45.41522" lon="2.5629">
        <ele>567.8</ele>
        <time>2014-05-29T08:03:36Z</time>
      </trkpt>
      <trkpt lat="45.41524" lon="2.56301">
        <ele>566.9</ele>
        <time>2014-05-29T08:03:42Z</time>
      </trkpt>
      <trkpt lat="45.41526" lon="2.56312">
        <ele>567.2</ele>
        <time>2014-05-29T08:03:51Z</time>
      </trkpt>
      <trkpt lat="45.41526" lon="2.56323">
        <ele>568.4</ele>
        <time>2014-05-29T08:03:59Z</time>
      </trkpt>
      <trkpt lat="45.41523" lon="2.56334">
        <ele>569.6</ele>
        <time>2014-05-29T08:04:04Z</time>
      </trkpt>
      <trkpt lat="45.4152" lon="2.56345">
        <ele>570.9</ele>
        <time>2014-05-29T08:04:10Z</time>
      </trkpt>
      <trkpt lat="45.41519" lon="2.56347">
        <ele>570.9</ele>
        <time>2014-05-29T08:04:11Z</time>
      </trkpt>
      <trkpt lat="45.41515" lon="2.56366">
        <ele>574.7</ele>
        <time>2014-05-29T08:04:22Z</time>
      </trkpt>
      <trkpt lat="45.41512" lon="2.56377">
        <ele>576.1</ele>
        <time>2014-05-29T08:04:28Z</time>
      </trkpt>
      <trkpt lat="45.4151" lon="2.56389">
        <ele>578</ele>
        <time>2014-05-29T08:04:35Z</time>
      </trkpt>
      <trkpt lat="45.41507" lon="2.564">
        <ele>580.6</ele>
        <time>2014-05-29T08:04:42Z</time>
      </trkpt>
      <trkpt lat="45.41505" lon="2.5641">
        <ele>581.9</ele>
        <time>2014-05-29T08:04:48Z</time>
      </trkpt>
      <trkpt lat="45.41501" lon="2.56421">
        <ele>583.6</ele>
        <time>2014-05-29T08:04:55Z</time>
      </trkpt>
      <trkpt lat="45.41496" lon="2.56431">
        <ele>585.5</ele>
        <time>2014-05-29T08:05:02Z</time>
      </trkpt>
      <trkpt lat="45.41493" lon="2.56443">
        <ele>587.5</ele>
        <time>2014-05-29T08:05:09Z</time>
      </trkpt>
      <trkpt lat="45.4149" lon="2.56454">
        <ele>590.2</ele>
        <time>2014-05-29T08:05:18Z</time>
      </trkpt>
      <trkpt lat="45.41491" lon="2.56456">
        <ele>590.2</ele>
        <time>2014-05-29T08:05:19Z</time>
      </trkpt>
      <trkpt lat="45.41485" lon="2.56476">
        <ele>589.8</ele>
        <time>2014-05-29T08:05:25Z</time>
      </trkpt>
      <trkpt lat="45.41481" lon="2.56486">
        <ele>590.1</ele>
        <time>2014-05-29T08:05:27Z</time>
      </trkpt>
      <trkpt lat="45.41479" lon="2.56493">
        <ele>589.5</ele>
        <time>2014-05-29T08:05:28Z</time>
      </trkpt>
      <trkpt lat="45.41479" lon="2.565">
        <ele>589.1</ele>
        <time>2014-05-29T08:05:29Z</time>
      </trkpt>
      <trkpt lat="45.41479" lon="2.56508">
        <ele>588.8</ele>
        <time>2014-05-29T08:05:30Z</time>
      </trkpt>
      <trkpt lat="45.41482" lon="2.56519">
        <ele>588.4</ele>
        <time>2014-05-29T08:05:32Z</time>
      </trkpt>
      <trkpt lat="45.41486" lon="2.56527">
        <ele>587.6</ele>
        <time>2014-05-29T08:05:34Z</time>
      </trkpt>
      <trkpt lat="45.41489" lon="2.56536">
        <ele>587.5</ele>
        <time>2014-05-29T08:05:36Z</time>
      </trkpt>
      <trkpt lat="45.41491" lon="2.56547">
        <ele>586.7</ele>
        <time>2014-05-29T08:05:39Z</time>
      </trkpt>
      <trkpt lat="45.41496" lon="2.56556">
        <ele>586.5</ele>
        <time>2014-05-29T08:05:42Z</time>
      </trkpt>
      <trkpt lat="45.41501" lon="2.56563">
        <ele>586.6</ele>
        <time>2014-05-29T08:05:44Z</time>
      </trkpt>
      <trkpt lat="45.41505" lon="2.5657">
        <ele>586.6</ele>
        <time>2014-05-29T08:05:46Z</time>
      </trkpt>
      <trkpt lat="45.41511" lon="2.56579">
        <ele>586.8</ele>
        <time>2014-05-29T08:05:49Z</time>
      </trkpt>
      <trkpt lat="45.41516" lon="2.56586">
        <ele>587.2</ele>
        <time>2014-05-29T08:05:51Z</time>
      </trkpt>
      <trkpt lat="45.41521" lon="2.56592">
        <ele>587.8</ele>
        <time>2014-05-29T08:05:53Z</time>
      </trkpt>
      <trkpt lat="45.41528" lon="2.56598">
        <ele>588.2</ele>
        <time>2014-05-29T08:05:56Z</time>
      </trkpt>
      <trkpt lat="45.41534" lon="2.56605">
        <ele>588.6</ele>
        <time>2014-05-29T08:05:59Z</time>
      </trkpt>
      <trkpt lat="45.41539" lon="2.56613">
        <ele>588.8</ele>
        <time>2014-05-29T08:06:01Z</time>
      </trkpt>
      <trkpt lat="45.41546" lon="2.56621">
        <ele>588.9</ele>
        <time>2014-05-29T08:06:04Z</time>
      </trkpt>
      <trkpt lat="45.41553" lon="2.56628">
        <ele>589.5</ele>
        <time>2014-05-29T08:06:08Z</time>
      </trkpt>
      <trkpt lat="45.41558" lon="2.56638">
        <ele>591</ele>
        <time>2014-05-29T08:06:12Z</time>
      </trkpt>
      <trkpt lat="45.41563" lon="2.56644">
        <ele>592.1</ele>
        <time>2014-05-29T08:06:15Z</time>
      </trkpt>
      <trkpt lat="45.4157" lon="2.56651">
        <ele>593.4</ele>
        <time>2014-05-29T08:06:19Z</time>
      </trkpt>
      <trkpt lat="45.41571" lon="2.56653">
        <ele>593.8</ele>
        <time>2014-05-29T08:06:20Z</time>
      </trkpt>
      <trkpt lat="45.41582" lon="2.56667">
        <ele>594.9</ele>
        <time>2014-05-29T08:06:29Z</time>
      </trkpt>
      <trkpt lat="45.41588" lon="2.56673">
        <ele>595.6</ele>
        <time>2014-05-29T08:06:32Z</time>
      </trkpt>
      <trkpt lat="45.41594" lon="2.56679">
        <ele>596.3</ele>
        <time>2014-05-29T08:06:35Z</time>
      </trkpt>
      <trkpt lat="45.41601" lon="2.56687">
        <ele>596.3</ele>
        <time>2014-05-29T08:06:38Z</time>
      </trkpt>
      <trkpt lat="45.41607" lon="2.56695">
        <ele>596.9</ele>
        <time>2014-05-29T08:06:41Z</time>
      </trkpt>
      <trkpt lat="45.41614" lon="2.56702">
        <ele>596.8</ele>
        <time>2014-05-29T08:06:44Z</time>
      </trkpt>
      <trkpt lat="45.4162" lon="2.56709">
        <ele>597.3</ele>
        <time>2014-05-29T08:06:47Z</time>
      </trkpt>
      <trkpt lat="45.41626" lon="2.56717">
        <ele>597.8</ele>
        <time>2014-05-29T08:06:50Z</time>
      </trkpt>
      <trkpt lat="45.41632" lon="2.56725">
        <ele>598.6</ele>
        <time>2014-05-29T08:06:55Z</time>
      </trkpt>
      <trkpt lat="45.41638" lon="2.56734">
        <ele>599.4</ele>
        <time>2014-05-29T08:07:00Z</time>
      </trkpt>
      <trkpt lat="45.41646" lon="2.56741">
        <ele>600.7</ele>
        <time>2014-05-29T08:07:06Z</time>
      </trkpt>
      <trkpt lat="45.41653" lon="2.56748">
        <ele>602.3</ele>
        <time>2014-05-29T08:07:13Z</time>
      </trkpt>
      <trkpt lat="45.4166" lon="2.56754">
        <ele>604.5</ele>
        <time>2014-05-29T08:07:19Z</time>
      </trkpt>
      <trkpt lat="45.41666" lon="2.56761">
        <ele>605.4</ele>
        <time>2014-05-29T08:07:24Z</time>
      </trkpt>
      <trkpt lat="45.41668" lon="2.56763">
        <ele>605.8</ele>
        <time>2014-05-29T08:07:25Z</time>
      </trkpt>
      <trkpt lat="45.4168" lon="2.56775">
        <ele>608.9</ele>
        <time>2014-05-29T08:07:36Z</time>
      </trkpt>
      <trkpt lat="45.41688" lon="2.56781">
        <ele>611.2</ele>
        <time>2014-05-29T08:07:42Z</time>
      </trkpt>
      <trkpt lat="45.41695" lon="2.56787">
        <ele>612</ele>
        <time>2014-05-29T08:07:47Z</time>
      </trkpt>
      <trkpt lat="45.417" lon="2.56796">
        <ele>612.6</ele>
        <time>2014-05-29T08:07:53Z</time>
      </trkpt>
      <trkpt lat="45.41706" lon="2.56805">
        <ele>615.5</ele>
        <time>2014-05-29T08:08:01Z</time>
      </trkpt>
      <trkpt lat="45.41712" lon="2.56813">
        <ele>617.2</ele>
        <time>2014-05-29T08:08:07Z</time>
      </trkpt>
      <trkpt lat="45.41719" lon="2.5682">
        <ele>618.9</ele>
        <time>2014-05-29T08:08:13Z</time>
      </trkpt>
      <trkpt lat="45.41725" lon="2.5683">
        <ele>620.4</ele>
        <time>2014-05-29T08:08:19Z</time>
      </trkpt>
      <trkpt lat="45.41731" lon="2.56838">
        <ele>622.4</ele>
        <time>2014-05-29T08:08:25Z</time>
      </trkpt>
      <trkpt lat="45.41732" lon="2.5684">
        <ele>622.5</ele>
        <time>2014-05-29T08:08:26Z</time>
      </trkpt>
      <trkpt lat="45.41741" lon="2.56857">
        <ele>625.2</ele>
        <time>2014-05-29T08:08:37Z</time>
      </trkpt>
      <trkpt lat="45.41745" lon="2.56867">
        <ele>626.6</ele>
        <time>2014-05-29T08:08:43Z</time>
      </trkpt>
      <trkpt lat="45.41749" lon="2.56878">
        <ele>628.4</ele>
        <time>2014-05-29T08:08:50Z</time>
      </trkpt>
      <trkpt lat="45.41754" lon="2.56888">
        <ele>628.4</ele>
        <time>2014-05-29T08:08:57Z</time>
      </trkpt>
      <trkpt lat="45.41758" lon="2.56898">
        <ele>629.5</ele>
        <time>2014-05-29T08:09:04Z</time>
      </trkpt>
      <trkpt lat="45.41764" lon="2.56906">
        <ele>631</ele>
        <time>2014-05-29T08:09:11Z</time>
      </trkpt>
      <trkpt lat="45.41769" lon="2.56916">
        <ele>632.6</ele>
        <time>2014-05-29T08:09:18Z</time>
      </trkpt>
      <trkpt lat="45.41773" lon="2.56925">
        <ele>634</ele>
        <time>2014-05-29T08:09:24Z</time>
      </trkpt>
      <trkpt lat="45.41778" lon="2.56934">
        <ele>634.7</ele>
        <time>2014-05-29T08:09:29Z</time>
      </trkpt>
      <trkpt lat="45.41779" lon="2.56936">
        <ele>634.7</ele>
        <time>2014-05-29T08:09:30Z</time>
      </trkpt>
      <trkpt lat="45.41789" lon="2.56949">
        <ele>635.6</ele>
        <time>2014-05-29T08:09:36Z</time>
      </trkpt>
      <trkpt lat="45.41795" lon="2.56958">
        <ele>635.9</ele>
        <time>2014-05-29T08:09:40Z</time>
      </trkpt>
      <trkpt lat="45.418" lon="2.56964">
        <ele>636.4</ele>
        <time>2014-05-29T08:09:43Z</time>
      </trkpt>
      <trkpt lat="45.41806" lon="2.5697">
        <ele>637.1</ele>
        <time>2014-05-29T08:09:46Z</time>
      </trkpt>
      <trkpt lat="45.41812" lon="2.56973">
        <ele>637.5</ele>
        <time>2014-05-29T08:09:48Z</time>
      </trkpt>
      <trkpt lat="45.41819" lon="2.56978">
        <ele>637.5</ele>
        <time>2014-05-29T08:09:50Z</time>
      </trkpt>
      <trkpt lat="45.41824" lon="2.56982">
        <ele>637.9</ele>
        <time>2014-05-29T08:09:52Z</time>
      </trkpt>
      <trkpt lat="45.41831" lon="2.5699">
        <ele>637.9</ele>
        <time>2014-05-29T08:09:55Z</time>
      </trkpt>
      <trkpt lat="45.41835" lon="2.56996">
        <ele>638.1</ele>
        <time>2014-05-29T08:09:57Z</time>
      </trkpt>
      <trkpt lat="45.41842" lon="2.57002">
        <ele>638.3</ele>
        <time>2014-05-29T08:10:00Z</time>
      </trkpt>
      <trkpt lat="45.41847" lon="2.57008">
        <ele>638.2</ele>
        <time>2014-05-29T08:10:02Z</time>
      </trkpt>
      <trkpt lat="45.41854" lon="2.57017">
        <ele>638.2</ele>
        <time>2014-05-29T08:10:04Z</time>
      </trkpt>
      <trkpt lat="45.4186" lon="2.57022">
        <ele>637.6</ele>
        <time>2014-05-29T08:10:06Z</time>
      </trkpt>
      <trkpt lat="45.41868" lon="2.57028">
        <ele>637.9</ele>
        <time>2014-05-29T08:10:09Z</time>
      </trkpt>
      <trkpt lat="45.41874" lon="2.57031">
        <ele>638.8</ele>
        <time>2014-05-29T08:10:11Z</time>
      </trkpt>
      <trkpt lat="45.4188" lon="2.57033">
        <ele>639</ele>
        <time>2014-05-29T08:10:13Z</time>
      </trkpt>
      <trkpt lat="45.41888" lon="2.57036">
        <ele>639</ele>
        <time>2014-05-29T08:10:16Z</time>
      </trkpt>
      <trkpt lat="45.41896" lon="2.57039">
        <ele>639.1</ele>
        <time>2014-05-29T08:10:19Z</time>
      </trkpt>
      <trkpt lat="45.41904" lon="2.57041">
        <ele>641.2</ele>
        <time>2014-05-29T08:10:24Z</time>
      </trkpt>
      <trkpt lat="45.41912" lon="2.57043">
        <ele>642.1</ele>
        <time>2014-05-29T08:10:29Z</time>
      </trkpt>
      <trkpt lat="45.4192" lon="2.57043">
        <ele>643.2</ele>
        <time>2014-05-29T08:10:34Z</time>
      </trkpt>
      <trkpt lat="45.41922" lon="2.57043">
        <ele>643.3</ele>
        <time>2014-05-29T08:10:35Z</time>
      </trkpt>
      <trkpt lat="45.41937" lon="2.57042">
        <ele>645.9</ele>
        <time>2014-05-29T08:10:44Z</time>
      </trkpt>
      <trkpt lat="45.41945" lon="2.57042">
        <ele>647.1</ele>
        <time>2014-05-29T08:10:49Z</time>
      </trkpt>
      <trkpt lat="45.41953" lon="2.57047">
        <ele>648.8</ele>
        <time>2014-05-29T08:10:55Z</time>
      </trkpt>
      <trkpt lat="45.41961" lon="2.57053">
        <ele>649.8</ele>
        <time>2014-05-29T08:11:00Z</time>
      </trkpt>
      <trkpt lat="45.41967" lon="2.57055">
        <ele>649.6</ele>
        <time>2014-05-29T08:11:02Z</time>
      </trkpt>
      <trkpt lat="45.41972" lon="2.57057">
        <ele>649.4</ele>
        <time>2014-05-29T08:11:03Z</time>
      </trkpt>
      <trkpt lat="45.41976" lon="2.5706">
        <ele>649.3</ele>
        <time>2014-05-29T08:11:04Z</time>
      </trkpt>
      <trkpt lat="45.4198" lon="2.57063">
        <ele>649.1</ele>
        <time>2014-05-29T08:11:05Z</time>
      </trkpt>
      <trkpt lat="45.41987" lon="2.57069">
        <ele>648.2</ele>
        <time>2014-05-29T08:11:07Z</time>
      </trkpt>
      <trkpt lat="45.41995" lon="2.57075">
        <ele>647.3</ele>
        <time>2014-05-29T08:11:09Z</time>
      </trkpt>
      <trkpt lat="45.42001" lon="2.57082">
        <ele>646</ele>
        <time>2014-05-29T08:11:11Z</time>
      </trkpt>
      <trkpt lat="45.42006" lon="2.57092">
        <ele>644.6</ele>
        <time>2014-05-29T08:11:13Z</time>
      </trkpt>
      <trkpt lat="45.42009" lon="2.57098">
        <ele>643.8</ele>
        <time>2014-05-29T08:11:14Z</time>
      </trkpt>
      <trkpt lat="45.42011" lon="2.57105">
        <ele>643.1</ele>
        <time>2014-05-29T08:11:15Z</time>
      </trkpt>
      <trkpt lat="45.42014" lon="2.57112">
        <ele>642.7</ele>
        <time>2014-05-29T08:11:16Z</time>
      </trkpt>
      <trkpt lat="45.42016" lon="2.5712">
        <ele>641.9</ele>
        <time>2014-05-29T08:11:17Z</time>
      </trkpt>
      <trkpt lat="45.42019" lon="2.57128">
        <ele>641.3</ele>
        <time>2014-05-29T08:11:18Z</time>
      </trkpt>
      <trkpt lat="45.42021" lon="2.57135">
        <ele>640.5</ele>
        <time>2014-05-29T08:11:19Z</time>
      </trkpt>
      <trkpt lat="45.42023" lon="2.57146">
        <ele>639.4</ele>
        <time>2014-05-29T08:11:21Z</time>
      </trkpt>
      <trkpt lat="45.42028" lon="2.57157">
        <ele>638.2</ele>
        <time>2014-05-29T08:11:23Z</time>
      </trkpt>
      <trkpt lat="45.42031" lon="2.57167">
        <ele>636.4</ele>
        <time>2014-05-29T08:11:25Z</time>
      </trkpt>
      <trkpt lat="45.42034" lon="2.57176">
        <ele>635.9</ele>
        <time>2014-05-29T08:11:27Z</time>
      </trkpt>
      <trkpt lat="45.42039" lon="2.57185">
        <ele>635</ele>
        <time>2014-05-29T08:11:29Z</time>
      </trkpt>
      <trkpt lat="45.42043" lon="2.57193">
        <ele>633.9</ele>
        <time>2014-05-29T08:11:31Z</time>
      </trkpt>
      <trkpt lat="45.4205" lon="2.572">
        <ele>632.9</ele>
        <time>2014-05-29T08:11:34Z</time>
      </trkpt>
      <trkpt lat="45.42056" lon="2.57205">
        <ele>632.9</ele>
        <time>2014-05-29T08:11:36Z</time>
      </trkpt>
      <trkpt lat="45.42059" lon="2.57208">
        <ele>633</ele>
        <time>2014-05-29T08:11:37Z</time>
      </trkpt>
      <trkpt lat="45.42069" lon="2.57215">
        <ele>633.4</ele>
        <time>2014-05-29T08:11:40Z</time>
      </trkpt>
      <trkpt lat="45.42076" lon="2.5722">
        <ele>633.3</ele>
        <time>2014-05-29T08:11:42Z</time>
      </trkpt>
      <trkpt lat="45.42082" lon="2.57227">
        <ele>633.5</ele>
        <time>2014-05-29T08:11:44Z</time>
      </trkpt>
      <trkpt lat="45.42085" lon="2.57232">
        <ele>633.4</ele>
        <time>2014-05-29T08:11:45Z</time>
      </trkpt>
      <trkpt lat="45.4209" lon="2.57241">
        <ele>633.4</ele>
        <time>2014-05-29T08:11:47Z</time>
      </trkpt>
      <trkpt lat="45.42095" lon="2.57249">
        <ele>633.2</ele>
        <time>2014-05-29T08:11:49Z</time>
      </trkpt>
      <trkpt lat="45.421" lon="2.57259">
        <ele>632.8</ele>
        <time>2014-05-29T08:11:51Z</time>
      </trkpt>
      <trkpt lat="45.42104" lon="2.57266">
        <ele>632.6</ele>
        <time>2014-05-29T08:11:53Z</time>
      </trkpt>
      <trkpt lat="45.42109" lon="2.57273">
        <ele>632.6</ele>
        <time>2014-05-29T08:11:55Z</time>
      </trkpt>
      <trkpt lat="45.42115" lon="2.57281">
        <ele>632.7</ele>
        <time>2014-05-29T08:11:58Z</time>
      </trkpt>
      <trkpt lat="45.42119" lon="2.57288">
        <ele>632.9</ele>
        <time>2014-05-29T08:12:00Z</time>
      </trkpt>
      <trkpt lat="45.42123" lon="2.57297">
        <ele>632.6</ele>
        <time>2014-05-29T08:12:02Z</time>
      </trkpt>
      <trkpt lat="45.42128" lon="2.57307">
        <ele>632.1</ele>
        <time>2014-05-29T08:12:05Z</time>
      </trkpt>
      <trkpt lat="45.42133" lon="2.57316">
        <ele>632.3</ele>
        <time>2014-05-29T08:12:09Z</time>
      </trkpt>
      <trkpt lat="45.42138" lon="2.57326">
        <ele>633.1</ele>
        <time>2014-05-29T08:12:14Z</time>
      </trkpt>
      <trkpt lat="45.42144" lon="2.57335">
        <ele>632.8</ele>
        <time>2014-05-29T08:12:19Z</time>
      </trkpt>
      <trkpt lat="45.42149" lon="2.57343">
        <ele>633</ele>
        <time>2014-05-29T08:12:23Z</time>
      </trkpt>
      <trkpt lat="45.42154" lon="2.57351">
        <ele>633.1</ele>
        <time>2014-05-29T08:12:27Z</time>
      </trkpt>
      <trkpt lat="45.4216" lon="2.5736">
        <ele>633</ele>
        <time>2014-05-29T08:12:33Z</time>
      </trkpt>
      <trkpt lat="45.42166" lon="2.5737">
        <ele>632.6</ele>
        <time>2014-05-29T08:12:38Z</time>
      </trkpt>
      <trkpt lat="45.42167" lon="2.57373">
        <ele>632.5</ele>
        <time>2014-05-29T08:12:39Z</time>
      </trkpt>
      <trkpt lat="45.42174" lon="2.57389">
        <ele>632.5</ele>
        <time>2014-05-29T08:12:45Z</time>
      </trkpt>
      <trkpt lat="45.42177" lon="2.57398">
        <ele>633.2</ele>
        <time>2014-05-29T08:12:48Z</time>
      </trkpt>
      <trkpt lat="45.42181" lon="2.57407">
        <ele>633</ele>
        <time>2014-05-29T08:12:51Z</time>
      </trkpt>
      <trkpt lat="45.42184" lon="2.57418">
        <ele>633.1</ele>
        <time>2014-05-29T08:12:55Z</time>
      </trkpt>
      <trkpt lat="45.42188" lon="2.57428">
        <ele>633.4</ele>
        <time>2014-05-29T08:12:59Z</time>
      </trkpt>
      <trkpt lat="45.42192" lon="2.57437">
        <ele>633.1</ele>
        <time>2014-05-29T08:13:04Z</time>
      </trkpt>
      <trkpt lat="45.42192" lon="2.57449">
        <ele>633.6</ele>
        <time>2014-05-29T08:13:08Z</time>
      </trkpt>
      <trkpt lat="45.42193" lon="2.57459">
        <ele>634.6</ele>
        <time>2014-05-29T08:13:12Z</time>
      </trkpt>
      <trkpt lat="45.42195" lon="2.57469">
        <ele>634.6</ele>
        <time>2014-05-29T08:13:14Z</time>
      </trkpt>
      <trkpt lat="45.42197" lon="2.5748">
        <ele>634.5</ele>
        <time>2014-05-29T08:13:16Z</time>
      </trkpt>
      <trkpt lat="45.422" lon="2.57492">
        <ele>634.2</ele>
        <time>2014-05-29T08:13:18Z</time>
      </trkpt>
      <trkpt lat="45.42202" lon="2.57499">
        <ele>633.9</ele>
        <time>2014-05-29T08:13:19Z</time>
      </trkpt>
      <trkpt lat="45.42204" lon="2.57506">
        <ele>633.8</ele>
        <time>2014-05-29T08:13:20Z</time>
      </trkpt>
      <trkpt lat="45.42206" lon="2.57514">
        <ele>633.7</ele>
        <time>2014-05-29T08:13:21Z</time>
      </trkpt>
      <trkpt lat="45.42207" lon="2.57521">
        <ele>633.6</ele>
        <time>2014-05-29T08:13:22Z</time>
      </trkpt>
      <trkpt lat="45.4221" lon="2.57528">
        <ele>633.2</ele>
        <time>2014-05-29T08:13:23Z</time>
      </trkpt>
      <trkpt lat="45.42211" lon="2.57535">
        <ele>632.9</ele>
        <time>2014-05-29T08:13:24Z</time>
      </trkpt>
      <trkpt lat="45.42214" lon="2.57543">
        <ele>632.7</ele>
        <time>2014-05-29T08:13:25Z</time>
      </trkpt>
      <trkpt lat="45.42217" lon="2.5755">
        <ele>632.6</ele>
        <time>2014-05-29T08:13:26Z</time>
      </trkpt>
      <trkpt lat="45.4222" lon="2.57558">
        <ele>631.8</ele>
        <time>2014-05-29T08:13:27Z</time>
      </trkpt>
      <trkpt lat="45.42223" lon="2.57567">
        <ele>631.3</ele>
        <time>2014-05-29T08:13:28Z</time>
      </trkpt>
      <trkpt lat="45.42226" lon="2.57576">
        <ele>630.9</ele>
        <time>2014-05-29T08:13:29Z</time>
      </trkpt>
      <trkpt lat="45.42228" lon="2.57585">
        <ele>630.5</ele>
        <time>2014-05-29T08:13:30Z</time>
      </trkpt>
      <trkpt lat="45.4223" lon="2.57595">
        <ele>630.2</ele>
        <time>2014-05-29T08:13:31Z</time>
      </trkpt>
      <trkpt lat="45.42232" lon="2.57605">
        <ele>630</ele>
        <time>2014-05-29T08:13:32Z</time>
      </trkpt>
      <trkpt lat="45.42234" lon="2.57614">
        <ele>629.8</ele>
        <time>2014-05-29T08:13:33Z</time>
      </trkpt>
      <trkpt lat="45.42236" lon="2.57624">
        <ele>629.3</ele>
        <time>2014-05-29T08:13:34Z</time>
      </trkpt>
      <trkpt lat="45.42238" lon="2.57633">
        <ele>628.9</ele>
        <time>2014-05-29T08:13:35Z</time>
      </trkpt>
      <trkpt lat="45.42239" lon="2.57641">
        <ele>628.6</ele>
        <time>2014-05-29T08:13:36Z</time>
      </trkpt>
      <trkpt lat="45.4224" lon="2.57649">
        <ele>628.2</ele>
        <time>2014-05-29T08:13:37Z</time>
      </trkpt>
      <trkpt lat="45.42241" lon="2.57657">
        <ele>627.9</ele>
        <time>2014-05-29T08:13:38Z</time>
      </trkpt>
      <trkpt lat="45.42243" lon="2.57664">
        <ele>627.9</ele>
        <time>2014-05-29T08:13:39Z</time>
      </trkpt>
      <trkpt lat="45.42244" lon="2.5767">
        <ele>627.8</ele>
        <time>2014-05-29T08:13:40Z</time>
      </trkpt>
      <trkpt lat="45.42248" lon="2.5768">
        <ele>627.1</ele>
        <time>2014-05-29T08:13:42Z</time>
      </trkpt>
      <trkpt lat="45.42254" lon="2.57688">
        <ele>626.5</ele>
        <time>2014-05-29T08:13:44Z</time>
      </trkpt>
      <trkpt lat="45.42258" lon="2.57692">
        <ele>626.4</ele>
        <time>2014-05-29T08:13:45Z</time>
      </trkpt>
      <trkpt lat="45.42266" lon="2.57698">
        <ele>626.1</ele>
        <time>2014-05-29T08:13:47Z</time>
      </trkpt>
      <trkpt lat="45.42272" lon="2.57704">
        <ele>625.9</ele>
        <time>2014-05-29T08:13:49Z</time>
      </trkpt>
      <trkpt lat="45.42277" lon="2.57713">
        <ele>625.7</ele>
        <time>2014-05-29T08:13:51Z</time>
      </trkpt>
      <trkpt lat="45.42279" lon="2.57718">
        <ele>625.7</ele>
        <time>2014-05-29T08:13:52Z</time>
      </trkpt>
      <trkpt lat="45.42282" lon="2.57723">
        <ele>626</ele>
        <time>2014-05-29T08:13:53Z</time>
      </trkpt>
      <trkpt lat="45.42284" lon="2.57729">
        <ele>626.3</ele>
        <time>2014-05-29T08:13:54Z</time>
      </trkpt>
      <trkpt lat="45.42287" lon="2.57735">
        <ele>626.5</ele>
        <time>2014-05-29T08:13:55Z</time>
      </trkpt>
      <trkpt lat="45.42289" lon="2.57741">
        <ele>626.5</ele>
        <time>2014-05-29T08:13:56Z</time>
      </trkpt>
      <trkpt lat="45.42291" lon="2.57748">
        <ele>626.5</ele>
        <time>2014-05-29T08:13:57Z</time>
      </trkpt>
      <trkpt lat="45.42293" lon="2.57755">
        <ele>626.4</ele>
        <time>2014-05-29T08:13:58Z</time>
      </trkpt>
      <trkpt lat="45.42295" lon="2.57761">
        <ele>626.4</ele>
        <time>2014-05-29T08:13:59Z</time>
      </trkpt>
      <trkpt lat="45.42297" lon="2.57773">
        <ele>626.5</ele>
        <time>2014-05-29T08:14:01Z</time>
      </trkpt>
      <trkpt lat="45.423" lon="2.57783">
        <ele>626.8</ele>
        <time>2014-05-29T08:14:03Z</time>
      </trkpt>
      <trkpt lat="45.42303" lon="2.5779">
        <ele>626.8</ele>
        <time>2014-05-29T08:14:05Z</time>
      </trkpt>
      <trkpt lat="45.42306" lon="2.57801">
        <ele>626.7</ele>
        <time>2014-05-29T08:14:07Z</time>
      </trkpt>
      <trkpt lat="45.42309" lon="2.57812">
        <ele>627.4</ele>
        <time>2014-05-29T08:14:09Z</time>
      </trkpt>
      <trkpt lat="45.42311" lon="2.57822">
        <ele>627.6</ele>
        <time>2014-05-29T08:14:11Z</time>
      </trkpt>
      <trkpt lat="45.42311" lon="2.57831">
        <ele>628.4</ele>
        <time>2014-05-29T08:14:13Z</time>
      </trkpt>
      <trkpt lat="45.42311" lon="2.57842">
        <ele>628.7</ele>
        <time>2014-05-29T08:14:15Z</time>
      </trkpt>
      <trkpt lat="45.42313" lon="2.57853">
        <ele>628.7</ele>
        <time>2014-05-29T08:14:17Z</time>
      </trkpt>
      <trkpt lat="45.42313" lon="2.57862">
        <ele>628.7</ele>
        <time>2014-05-29T08:14:19Z</time>
      </trkpt>
      <trkpt lat="45.42314" lon="2.57874">
        <ele>629.4</ele>
        <time>2014-05-29T08:14:22Z</time>
      </trkpt>
      <trkpt lat="45.42317" lon="2.57883">
        <ele>629.5</ele>
        <time>2014-05-29T08:14:24Z</time>
      </trkpt>
      <trkpt lat="45.4232" lon="2.5789">
        <ele>629.3</ele>
        <time>2014-05-29T08:14:26Z</time>
      </trkpt>
      <trkpt lat="45.42324" lon="2.57899">
        <ele>629.3</ele>
        <time>2014-05-29T08:14:28Z</time>
      </trkpt>
      <trkpt lat="45.42328" lon="2.57907">
        <ele>629.4</ele>
        <time>2014-05-29T08:14:30Z</time>
      </trkpt>
      <trkpt lat="45.42332" lon="2.57916">
        <ele>629.8</ele>
        <time>2014-05-29T08:14:32Z</time>
      </trkpt>
      <trkpt lat="45.42336" lon="2.57923">
        <ele>630.1</ele>
        <time>2014-05-29T08:14:34Z</time>
      </trkpt>
      <trkpt lat="45.42341" lon="2.57929">
        <ele>630.6</ele>
        <time>2014-05-29T08:14:36Z</time>
      </trkpt>
      <trkpt lat="45.42345" lon="2.57937">
        <ele>631</ele>
        <time>2014-05-29T08:14:38Z</time>
      </trkpt>
      <trkpt lat="45.42351" lon="2.57947">
        <ele>631</ele>
        <time>2014-05-29T08:14:40Z</time>
      </trkpt>
      <trkpt lat="45.42353" lon="2.57952">
        <ele>630.8</ele>
        <time>2014-05-29T08:14:41Z</time>
      </trkpt>
      <trkpt lat="45.42361" lon="2.57965">
        <ele>630.5</ele>
        <time>2014-05-29T08:14:44Z</time>
      </trkpt>
      <trkpt lat="45.42365" lon="2.57975">
        <ele>630.5</ele>
        <time>2014-05-29T08:14:46Z</time>
      </trkpt>
      <trkpt lat="45.42369" lon="2.57986">
        <ele>630.5</ele>
        <time>2014-05-29T08:14:48Z</time>
      </trkpt>
      <trkpt lat="45.42373" lon="2.57998">
        <ele>630.7</ele>
        <time>2014-05-29T08:14:50Z</time>
      </trkpt>
      <trkpt lat="45.42376" lon="2.58004">
        <ele>630.8</ele>
        <time>2014-05-29T08:14:51Z</time>
      </trkpt>
      <trkpt lat="45.42378" lon="2.5801">
        <ele>630.9</ele>
        <time>2014-05-29T08:14:52Z</time>
      </trkpt>
      <trkpt lat="45.42382" lon="2.58021">
        <ele>631.3</ele>
        <time>2014-05-29T08:14:54Z</time>
      </trkpt>
      <trkpt lat="45.42386" lon="2.58031">
        <ele>631.1</ele>
        <time>2014-05-29T08:14:56Z</time>
      </trkpt>
      <trkpt lat="45.4239" lon="2.58041">
        <ele>631.3</ele>
        <time>2014-05-29T08:14:58Z</time>
      </trkpt>
      <trkpt lat="45.42394" lon="2.58051">
        <ele>631.7</ele>
        <time>2014-05-29T08:15:00Z</time>
      </trkpt>
      <trkpt lat="45.42398" lon="2.58062">
        <ele>632</ele>
        <time>2014-05-29T08:15:02Z</time>
      </trkpt>
      <trkpt lat="45.424" lon="2.58068">
        <ele>632</ele>
        <time>2014-05-29T08:15:03Z</time>
      </trkpt>
      <trkpt lat="45.42402" lon="2.58074">
        <ele>632.1</ele>
        <time>2014-05-29T08:15:04Z</time>
      </trkpt>
      <trkpt lat="45.42406" lon="2.58086">
        <ele>631.7</ele>
        <time>2014-05-29T08:15:06Z</time>
      </trkpt>
      <trkpt lat="45.4241" lon="2.58094">
        <ele>632.8</ele>
        <time>2014-05-29T08:15:08Z</time>
      </trkpt>
      <trkpt lat="45.4241" lon="2.58106">
        <ele>633.1</ele>
        <time>2014-05-29T08:15:12Z</time>
      </trkpt>
      <trkpt lat="45.42406" lon="2.58116">
        <ele>634.1</ele>
        <time>2014-05-29T08:15:16Z</time>
      </trkpt>
      <trkpt lat="45.42405" lon="2.58126">
        <ele>635.2</ele>
        <time>2014-05-29T08:15:20Z</time>
      </trkpt>
      <trkpt lat="45.42402" lon="2.58137">
        <ele>635</ele>
        <time>2014-05-29T08:15:24Z</time>
      </trkpt>
      <trkpt lat="45.424" lon="2.58148">
        <ele>635.7</ele>
        <time>2014-05-29T08:15:28Z</time>
      </trkpt>
      <trkpt lat="45.42401" lon="2.58158">
        <ele>636.6</ele>
        <time>2014-05-29T08:15:32Z</time>
      </trkpt>
      <trkpt lat="45.42398" lon="2.5817">
        <ele>637.1</ele>
        <time>2014-05-29T08:15:37Z</time>
      </trkpt>
      <trkpt lat="45.42397" lon="2.5818">
        <ele>638.7</ele>
        <time>2014-05-29T08:15:41Z</time>
      </trkpt>
      <trkpt lat="45.42396" lon="2.58183">
        <ele>639</ele>
        <time>2014-05-29T08:15:42Z</time>
      </trkpt>
      <trkpt lat="45.42396" lon="2.58204">
        <ele>639.5</ele>
        <time>2014-05-29T08:15:50Z</time>
      </trkpt>
      <trkpt lat="45.42395" lon="2.58215">
        <ele>640</ele>
        <time>2014-05-29T08:15:54Z</time>
      </trkpt>
      <trkpt lat="45.42394" lon="2.58226">
        <ele>640.9</ele>
        <time>2014-05-29T08:15:59Z</time>
      </trkpt>
      <trkpt lat="45.42394" lon="2.58238">
        <ele>642.3</ele>
        <time>2014-05-29T08:16:04Z</time>
      </trkpt>
      <trkpt lat="45.42393" lon="2.5825">
        <ele>643.2</ele>
        <time>2014-05-29T08:16:09Z</time>
      </trkpt>
      <trkpt lat="45.42393" lon="2.58261">
        <ele>643.5</ele>
        <time>2014-05-29T08:16:12Z</time>
      </trkpt>
      <trkpt lat="45.42392" lon="2.58272">
        <ele>644.2</ele>
        <time>2014-05-29T08:16:16Z</time>
      </trkpt>
      <trkpt lat="45.42391" lon="2.58284">
        <ele>645.6</ele>
        <time>2014-05-29T08:16:21Z</time>
      </trkpt>
      <trkpt lat="45.42389" lon="2.58296">
        <ele>646.3</ele>
        <time>2014-05-29T08:16:26Z</time>
      </trkpt>
      <trkpt lat="45.42387" lon="2.58308">
        <ele>647.1</ele>
        <time>2014-05-29T08:16:32Z</time>
      </trkpt>
      <trkpt lat="45.42386" lon="2.5832">
        <ele>647.7</ele>
        <time>2014-05-29T08:16:41Z</time>
      </trkpt>
      <trkpt lat="45.42385" lon="2.58331">
        <ele>648.6</ele>
        <time>2014-05-29T08:16:50Z</time>
      </trkpt>
      <trkpt lat="45.42385" lon="2.58333">
        <ele>648.7</ele>
        <time>2014-05-29T08:16:51Z</time>
      </trkpt>
      <trkpt lat="45.42388" lon="2.58355">
        <ele>651</ele>
        <time>2014-05-29T08:17:07Z</time>
      </trkpt>
      <trkpt lat="45.42393" lon="2.58364">
        <ele>650.7</ele>
        <time>2014-05-29T08:17:13Z</time>
      </trkpt>
      <trkpt lat="45.42399" lon="2.58369">
        <ele>651.5</ele>
        <time>2014-05-29T08:17:17Z</time>
      </trkpt>
      <trkpt lat="45.42406" lon="2.58372">
        <ele>652.1</ele>
        <time>2014-05-29T08:17:20Z</time>
      </trkpt>
      <trkpt lat="45.42412" lon="2.58376">
        <ele>652.6</ele>
        <time>2014-05-29T08:17:23Z</time>
      </trkpt>
      <trkpt lat="45.4242" lon="2.58381">
        <ele>652.4</ele>
        <time>2014-05-29T08:17:26Z</time>
      </trkpt>
      <trkpt lat="45.42427" lon="2.58386">
        <ele>652.5</ele>
        <time>2014-05-29T08:17:29Z</time>
      </trkpt>
      <trkpt lat="45.42435" lon="2.5839">
        <ele>652</ele>
        <time>2014-05-29T08:17:32Z</time>
      </trkpt>
      <trkpt lat="45.42439" lon="2.58397">
        <ele>652.2</ele>
        <time>2014-05-29T08:17:34Z</time>
      </trkpt>
      <trkpt lat="45.42441" lon="2.58402">
        <ele>652.4</ele>
        <time>2014-05-29T08:17:35Z</time>
      </trkpt>
      <trkpt lat="45.42444" lon="2.58408">
        <ele>652.1</ele>
        <time>2014-05-29T08:17:36Z</time>
      </trkpt>
      <trkpt lat="45.42447" lon="2.58415">
        <ele>651.9</ele>
        <time>2014-05-29T08:17:37Z</time>
      </trkpt>
      <trkpt lat="45.42451" lon="2.58421">
        <ele>651.8</ele>
        <time>2014-05-29T08:17:38Z</time>
      </trkpt>
      <trkpt lat="45.42455" lon="2.58427">
        <ele>651.3</ele>
        <time>2014-05-29T08:17:39Z</time>
      </trkpt>
      <trkpt lat="45.42459" lon="2.58433">
        <ele>651</ele>
        <time>2014-05-29T08:17:40Z</time>
      </trkpt>
      <trkpt lat="45.42463" lon="2.58438">
        <ele>650.3</ele>
        <time>2014-05-29T08:17:41Z</time>
      </trkpt>
      <trkpt lat="45.4247" lon="2.58445">
        <ele>649.5</ele>
        <time>2014-05-29T08:17:43Z</time>
      </trkpt>
      <trkpt lat="45.42475" lon="2.58455">
        <ele>649.3</ele>
        <time>2014-05-29T08:17:47Z</time>
      </trkpt>
      <trkpt lat="45.42481" lon="2.58465">
        <ele>648.7</ele>
        <time>2014-05-29T08:17:50Z</time>
      </trkpt>
      <trkpt lat="45.42485" lon="2.58473">
        <ele>647.9</ele>
        <time>2014-05-29T08:17:53Z</time>
      </trkpt>
      <trkpt lat="45.42487" lon="2.58475">
        <ele>648</ele>
        <time>2014-05-29T08:17:54Z</time>
      </trkpt>
      <trkpt lat="45.42494" lon="2.5849">
        <ele>649</ele>
        <time>2014-05-29T08:17:59Z</time>
      </trkpt>
      <trkpt lat="45.42497" lon="2.58498">
        <ele>649.3</ele>
        <time>2014-05-29T08:18:01Z</time>
      </trkpt>
      <trkpt lat="45.42501" lon="2.58505">
        <ele>648.8</ele>
        <time>2014-05-29T08:18:03Z</time>
      </trkpt>
      <trkpt lat="45.42504" lon="2.58514">
        <ele>648.4</ele>
        <time>2014-05-29T08:18:05Z</time>
      </trkpt>
      <trkpt lat="45.42507" lon="2.58523">
        <ele>648.2</ele>
        <time>2014-05-29T08:18:07Z</time>
      </trkpt>
      <trkpt lat="45.42512" lon="2.58532">
        <ele>647.9</ele>
        <time>2014-05-29T08:18:09Z</time>
      </trkpt>
      <trkpt lat="45.42516" lon="2.58536">
        <ele>647.3</ele>
        <time>2014-05-29T08:18:10Z</time>
      </trkpt>
      <trkpt lat="45.42521" lon="2.58541">
        <ele>646.8</ele>
        <time>2014-05-29T08:18:11Z</time>
      </trkpt>
      <trkpt lat="45.42527" lon="2.58551">
        <ele>645.6</ele>
        <time>2014-05-29T08:18:13Z</time>
      </trkpt>
      <trkpt lat="45.42528" lon="2.58557">
        <ele>645.2</ele>
        <time>2014-05-29T08:18:14Z</time>
      </trkpt>
      <trkpt lat="45.42529" lon="2.58564">
        <ele>645</ele>
        <time>2014-05-29T08:18:15Z</time>
      </trkpt>
      <trkpt lat="45.42531" lon="2.58572">
        <ele>644.7</ele>
        <time>2014-05-29T08:18:16Z</time>
      </trkpt>
      <trkpt lat="45.42532" lon="2.58581">
        <ele>644.1</ele>
        <time>2014-05-29T08:18:17Z</time>
      </trkpt>
      <trkpt lat="45.42533" lon="2.5859">
        <ele>643.7</ele>
        <time>2014-05-29T08:18:18Z</time>
      </trkpt>
      <trkpt lat="45.42533" lon="2.58599">
        <ele>643.4</ele>
        <time>2014-05-29T08:18:19Z</time>
      </trkpt>
      <trkpt lat="45.42535" lon="2.58611">
        <ele>643.1</ele>
        <time>2014-05-29T08:18:21Z</time>
      </trkpt>
      <trkpt lat="45.42538" lon="2.58619">
        <ele>643.6</ele>
        <time>2014-05-29T08:18:23Z</time>
      </trkpt>
      <trkpt lat="45.42542" lon="2.58628">
        <ele>643.7</ele>
        <time>2014-05-29T08:18:25Z</time>
      </trkpt>
      <trkpt lat="45.42544" lon="2.58637">
        <ele>643.1</ele>
        <time>2014-05-29T08:18:27Z</time>
      </trkpt>
      <trkpt lat="45.42549" lon="2.58647">
        <ele>643</ele>
        <time>2014-05-29T08:18:30Z</time>
      </trkpt>
      <trkpt lat="45.42552" lon="2.58657">
        <ele>643.8</ele>
        <time>2014-05-29T08:18:33Z</time>
      </trkpt>
      <trkpt lat="45.42555" lon="2.58669">
        <ele>644.1</ele>
        <time>2014-05-29T08:18:36Z</time>
      </trkpt>
      <trkpt lat="45.42558" lon="2.58677">
        <ele>644.5</ele>
        <time>2014-05-29T08:18:38Z</time>
      </trkpt>
      <trkpt lat="45.4256" lon="2.58686">
        <ele>644.9</ele>
        <time>2014-05-29T08:18:40Z</time>
      </trkpt>
      <trkpt lat="45.42563" lon="2.58697">
        <ele>644.7</ele>
        <time>2014-05-29T08:18:42Z</time>
      </trkpt>
      <trkpt lat="45.42566" lon="2.58708">
        <ele>644.7</ele>
        <time>2014-05-29T08:18:44Z</time>
      </trkpt>
      <trkpt lat="45.42567" lon="2.58715">
        <ele>645</ele>
        <time>2014-05-29T08:18:45Z</time>
      </trkpt>
      <trkpt lat="45.4257" lon="2.58726">
        <ele>645.4</ele>
        <time>2014-05-29T08:18:47Z</time>
      </trkpt>
      <trkpt lat="45.42571" lon="2.58738">
        <ele>645.1</ele>
        <time>2014-05-29T08:18:49Z</time>
      </trkpt>
      <trkpt lat="45.42572" lon="2.58745">
        <ele>645.2</ele>
        <time>2014-05-29T08:18:50Z</time>
      </trkpt>
      <trkpt lat="45.42574" lon="2.58751">
        <ele>645.3</ele>
        <time>2014-05-29T08:18:51Z</time>
      </trkpt>
      <trkpt lat="45.42577" lon="2.58757">
        <ele>645.6</ele>
        <time>2014-05-29T08:18:52Z</time>
      </trkpt>
      <trkpt lat="45.42579" lon="2.58763">
        <ele>645.8</ele>
        <time>2014-05-29T08:18:53Z</time>
      </trkpt>
      <trkpt lat="45.42582" lon="2.58768">
        <ele>645.9</ele>
        <time>2014-05-29T08:18:54Z</time>
      </trkpt>
      <trkpt lat="45.42584" lon="2.58773">
        <ele>645.8</ele>
        <time>2014-05-29T08:18:55Z</time>
      </trkpt>
      <trkpt lat="45.42592" lon="2.58788">
        <ele>646.2</ele>
        <time>2014-05-29T08:18:58Z</time>
      </trkpt>
      <trkpt lat="45.42598" lon="2.58796">
        <ele>646.5</ele>
        <time>2014-05-29T08:19:00Z</time>
      </trkpt>
      <trkpt lat="45.42604" lon="2.58802">
        <ele>646.8</ele>
        <time>2014-05-29T08:19:02Z</time>
      </trkpt>
      <trkpt lat="45.42609" lon="2.58808">
        <ele>647.1</ele>
        <time>2014-05-29T08:19:04Z</time>
      </trkpt>
      <trkpt lat="45.42614" lon="2.58815">
        <ele>647.3</ele>
        <time>2014-05-29T08:19:06Z</time>
      </trkpt>
      <trkpt lat="45.4262" lon="2.58822">
        <ele>647.7</ele>
        <time>2014-05-29T08:19:08Z</time>
      </trkpt>
      <trkpt lat="45.42628" lon="2.58827">
        <ele>647.4</ele>
        <time>2014-05-29T08:19:10Z</time>
      </trkpt>
      <trkpt lat="45.42635" lon="2.58834">
        <ele>647.5</ele>
        <time>2014-05-29T08:19:12Z</time>
      </trkpt>
      <trkpt lat="45.42643" lon="2.5884">
        <ele>647.4</ele>
        <time>2014-05-29T08:19:14Z</time>
      </trkpt>
      <trkpt lat="45.42647" lon="2.58844">
        <ele>647.3</ele>
        <time>2014-05-29T08:19:15Z</time>
      </trkpt>
      <trkpt lat="45.42651" lon="2.58849">
        <ele>647.6</ele>
        <time>2014-05-29T08:19:16Z</time>
      </trkpt>
      <trkpt lat="45.42654" lon="2.58853">
        <ele>647.7</ele>
        <time>2014-05-29T08:19:17Z</time>
      </trkpt>
      <trkpt lat="45.42657" lon="2.58858">
        <ele>647.7</ele>
        <time>2014-05-29T08:19:18Z</time>
      </trkpt>
      <trkpt lat="45.42664" lon="2.58866">
        <ele>647.7</ele>
        <time>2014-05-29T08:19:20Z</time>
      </trkpt>
      <trkpt lat="45.42671" lon="2.58872">
        <ele>647.9</ele>
        <time>2014-05-29T08:19:22Z</time>
      </trkpt>
      <trkpt lat="45.42679" lon="2.58877">
        <ele>647.9</ele>
        <time>2014-05-29T08:19:24Z</time>
      </trkpt>
      <trkpt lat="45.42686" lon="2.58882">
        <ele>647.8</ele>
        <time>2014-05-29T08:19:26Z</time>
      </trkpt>
      <trkpt lat="45.42693" lon="2.58886">
        <ele>647.8</ele>
        <time>2014-05-29T08:19:28Z</time>
      </trkpt>
      <trkpt lat="45.427" lon="2.5889">
        <ele>647.8</ele>
        <time>2014-05-29T08:19:30Z</time>
      </trkpt>
      <trkpt lat="45.42708" lon="2.58895">
        <ele>647.7</ele>
        <time>2014-05-29T08:19:33Z</time>
      </trkpt>
      <trkpt lat="45.42715" lon="2.58897">
        <ele>647.5</ele>
        <time>2014-05-29T08:19:36Z</time>
      </trkpt>
      <trkpt lat="45.4272" lon="2.589">
        <ele>647.5</ele>
        <time>2014-05-29T08:19:38Z</time>
      </trkpt>
      <trkpt lat="45.42727" lon="2.58903">
        <ele>648</ele>
        <time>2014-05-29T08:19:40Z</time>
      </trkpt>
      <trkpt lat="45.42733" lon="2.58906">
        <ele>648.6</ele>
        <time>2014-05-29T08:19:42Z</time>
      </trkpt>
      <trkpt lat="45.42739" lon="2.58907">
        <ele>649.2</ele>
        <time>2014-05-29T08:19:44Z</time>
      </trkpt>
      <trkpt lat="45.42746" lon="2.58909">
        <ele>649.5</ele>
        <time>2014-05-29T08:19:46Z</time>
      </trkpt>
      <trkpt lat="45.42754" lon="2.58911">
        <ele>649.9</ele>
        <time>2014-05-29T08:19:48Z</time>
      </trkpt>
      <trkpt lat="45.42761" lon="2.58913">
        <ele>650.2</ele>
        <time>2014-05-29T08:19:50Z</time>
      </trkpt>
      <trkpt lat="45.42769" lon="2.58916">
        <ele>650.4</ele>
        <time>2014-05-29T08:19:52Z</time>
      </trkpt>
      <trkpt lat="45.42776" lon="2.58919">
        <ele>650.4</ele>
        <time>2014-05-29T08:19:54Z</time>
      </trkpt>
      <trkpt lat="45.42784" lon="2.58922">
        <ele>650.3</ele>
        <time>2014-05-29T08:19:57Z</time>
      </trkpt>
      <trkpt lat="45.42787" lon="2.58923">
        <ele>650.3</ele>
        <time>2014-05-29T08:19:58Z</time>
      </trkpt>
      <trkpt lat="45.42801" lon="2.58927">
        <ele>651.1</ele>
        <time>2014-05-29T08:20:03Z</time>
      </trkpt>
      <trkpt lat="45.4281" lon="2.58928">
        <ele>651.4</ele>
        <time>2014-05-29T08:20:06Z</time>
      </trkpt>
      <trkpt lat="45.42817" lon="2.5893">
        <ele>652</ele>
        <time>2014-05-29T08:20:09Z</time>
      </trkpt>
      <trkpt lat="45.42825" lon="2.58933">
        <ele>652.6</ele>
        <time>2014-05-29T08:20:12Z</time>
      </trkpt>
      <trkpt lat="45.42833" lon="2.58935">
        <ele>653.5</ele>
        <time>2014-05-29T08:20:16Z</time>
      </trkpt>
      <trkpt lat="45.4284" lon="2.58935">
        <ele>654.1</ele>
        <time>2014-05-29T08:20:19Z</time>
      </trkpt>
      <trkpt lat="45.42848" lon="2.58936">
        <ele>654.6</ele>
        <time>2014-05-29T08:20:23Z</time>
      </trkpt>
      <trkpt lat="45.42856" lon="2.58938">
        <ele>655.7</ele>
        <time>2014-05-29T08:20:27Z</time>
      </trkpt>
      <trkpt lat="45.42864" lon="2.58938">
        <ele>656.5</ele>
        <time>2014-05-29T08:20:32Z</time>
      </trkpt>
      <trkpt lat="45.42873" lon="2.58939">
        <ele>657.3</ele>
        <time>2014-05-29T08:20:36Z</time>
      </trkpt>
      <trkpt lat="45.4288" lon="2.58939">
        <ele>657.6</ele>
        <time>2014-05-29T08:20:39Z</time>
      </trkpt>
      <trkpt lat="45.42888" lon="2.58938">
        <ele>657.9</ele>
        <time>2014-05-29T08:20:42Z</time>
      </trkpt>
      <trkpt lat="45.42895" lon="2.58936">
        <ele>657.7</ele>
        <time>2014-05-29T08:20:45Z</time>
      </trkpt>
      <trkpt lat="45.42902" lon="2.58933">
        <ele>658</ele>
        <time>2014-05-29T08:20:48Z</time>
      </trkpt>
      <trkpt lat="45.4291" lon="2.58935">
        <ele>658.6</ele>
        <time>2014-05-29T08:20:51Z</time>
      </trkpt>
      <trkpt lat="45.42918" lon="2.58937">
        <ele>658.5</ele>
        <time>2014-05-29T08:20:54Z</time>
      </trkpt>
      <trkpt lat="45.42927" lon="2.58939">
        <ele>658.5</ele>
        <time>2014-05-29T08:20:57Z</time>
      </trkpt>
      <trkpt lat="45.42934" lon="2.5894">
        <ele>658.9</ele>
        <time>2014-05-29T08:21:00Z</time>
      </trkpt>
      <trkpt lat="45.42937" lon="2.58941">
        <ele>658.9</ele>
        <time>2014-05-29T08:21:01Z</time>
      </trkpt>
      <trkpt lat="45.42949" lon="2.58944">
        <ele>659.1</ele>
        <time>2014-05-29T08:21:05Z</time>
      </trkpt>
      <trkpt lat="45.42958" lon="2.58947">
        <ele>658.9</ele>
        <time>2014-05-29T08:21:08Z</time>
      </trkpt>
      <trkpt lat="45.42966" lon="2.5895">
        <ele>659.2</ele>
        <time>2014-05-29T08:21:11Z</time>
      </trkpt>
      <trkpt lat="45.42973" lon="2.58952">
        <ele>659.9</ele>
        <time>2014-05-29T08:21:13Z</time>
      </trkpt>
      <trkpt lat="45.42979" lon="2.58954">
        <ele>660.2</ele>
        <time>2014-05-29T08:21:15Z</time>
      </trkpt>
      <trkpt lat="45.42985" lon="2.58956">
        <ele>660.1</ele>
        <time>2014-05-29T08:21:17Z</time>
      </trkpt>
      <trkpt lat="45.42992" lon="2.58959">
        <ele>659.8</ele>
        <time>2014-05-29T08:21:19Z</time>
      </trkpt>
      <trkpt lat="45.42998" lon="2.58961">
        <ele>661</ele>
        <time>2014-05-29T08:21:21Z</time>
      </trkpt>
      <trkpt lat="45.43004" lon="2.58964">
        <ele>661.4</ele>
        <time>2014-05-29T08:21:23Z</time>
      </trkpt>
      <trkpt lat="45.43012" lon="2.58968">
        <ele>662.4</ele>
        <time>2014-05-29T08:21:26Z</time>
      </trkpt>
      <trkpt lat="45.43019" lon="2.58973">
        <ele>661.9</ele>
        <time>2014-05-29T08:21:29Z</time>
      </trkpt>
      <trkpt lat="45.43027" lon="2.58978">
        <ele>662.8</ele>
        <time>2014-05-29T08:21:32Z</time>
      </trkpt>
      <trkpt lat="45.43033" lon="2.58984">
        <ele>663</ele>
        <time>2014-05-29T08:21:35Z</time>
      </trkpt>
      <trkpt lat="45.43038" lon="2.58992">
        <ele>662.8</ele>
        <time>2014-05-29T08:21:38Z</time>
      </trkpt>
      <trkpt lat="45.43043" lon="2.59001">
        <ele>663.9</ele>
        <time>2014-05-29T08:21:41Z</time>
      </trkpt>
      <trkpt lat="45.43048" lon="2.59011">
        <ele>665</ele>
        <time>2014-05-29T08:21:44Z</time>
      </trkpt>
      <trkpt lat="45.43051" lon="2.59019">
        <ele>664.9</ele>
        <time>2014-05-29T08:21:46Z</time>
      </trkpt>
      <trkpt lat="45.43053" lon="2.59029">
        <ele>664.7</ele>
        <time>2014-05-29T08:21:48Z</time>
      </trkpt>
      <trkpt lat="45.43054" lon="2.59036">
        <ele>664.7</ele>
        <time>2014-05-29T08:21:50Z</time>
      </trkpt>
      <trkpt lat="45.43056" lon="2.59047">
        <ele>664.7</ele>
        <time>2014-05-29T08:21:52Z</time>
      </trkpt>
      <trkpt lat="45.43059" lon="2.59053">
        <ele>665.2</ele>
        <time>2014-05-29T08:21:53Z</time>
      </trkpt>
      <trkpt lat="45.43061" lon="2.59058">
        <ele>665.5</ele>
        <time>2014-05-29T08:21:54Z</time>
      </trkpt>
      <trkpt lat="45.43064" lon="2.59064">
        <ele>665.8</ele>
        <time>2014-05-29T08:21:55Z</time>
      </trkpt>
      <trkpt lat="45.43066" lon="2.5907">
        <ele>666.1</ele>
        <time>2014-05-29T08:21:56Z</time>
      </trkpt>
      <trkpt lat="45.43068" lon="2.59076">
        <ele>666</ele>
        <time>2014-05-29T08:21:57Z</time>
      </trkpt>
      <trkpt lat="45.43071" lon="2.59081">
        <ele>666</ele>
        <time>2014-05-29T08:21:58Z</time>
      </trkpt>
      <trkpt lat="45.43076" lon="2.59091">
        <ele>666.2</ele>
        <time>2014-05-29T08:22:00Z</time>
      </trkpt>
      <trkpt lat="45.4308" lon="2.59101">
        <ele>666.4</ele>
        <time>2014-05-29T08:22:02Z</time>
      </trkpt>
      <trkpt lat="45.43082" lon="2.59107">
        <ele>666.5</ele>
        <time>2014-05-29T08:22:03Z</time>
      </trkpt>
      <trkpt lat="45.43086" lon="2.59117">
        <ele>666.7</ele>
        <time>2014-05-29T08:22:05Z</time>
      </trkpt>
      <trkpt lat="45.4309" lon="2.59127">
        <ele>666.8</ele>
        <time>2014-05-29T08:22:07Z</time>
      </trkpt>
      <trkpt lat="45.43093" lon="2.59137">
        <ele>666.6</ele>
        <time>2014-05-29T08:22:09Z</time>
      </trkpt>
      <trkpt lat="45.43095" lon="2.59147">
        <ele>666.4</ele>
        <time>2014-05-29T08:22:11Z</time>
      </trkpt>
      <trkpt lat="45.43096" lon="2.59154">
        <ele>666.4</ele>
        <time>2014-05-29T08:22:13Z</time>
      </trkpt>
      <trkpt lat="45.43099" lon="2.59166">
        <ele>666.8</ele>
        <time>2014-05-29T08:22:15Z</time>
      </trkpt>
      <trkpt lat="45.43101" lon="2.59178">
        <ele>666.4</ele>
        <time>2014-05-29T08:22:17Z</time>
      </trkpt>
      <trkpt lat="45.43102" lon="2.59187">
        <ele>666.6</ele>
        <time>2014-05-29T08:22:19Z</time>
      </trkpt>
      <trkpt lat="45.43104" lon="2.59198">
        <ele>667</ele>
        <time>2014-05-29T08:22:21Z</time>
      </trkpt>
      <trkpt lat="45.43107" lon="2.59209">
        <ele>667.2</ele>
        <time>2014-05-29T08:22:23Z</time>
      </trkpt>
      <trkpt lat="45.43109" lon="2.59219">
        <ele>667.3</ele>
        <time>2014-05-29T08:22:25Z</time>
      </trkpt>
      <trkpt lat="45.43112" lon="2.59229">
        <ele>668</ele>
        <time>2014-05-29T08:22:27Z</time>
      </trkpt>
      <trkpt lat="45.43114" lon="2.59239">
        <ele>667.9</ele>
        <time>2014-05-29T08:22:29Z</time>
      </trkpt>
      <trkpt lat="45.43115" lon="2.59248">
        <ele>667.9</ele>
        <time>2014-05-29T08:22:31Z</time>
      </trkpt>
      <trkpt lat="45.43115" lon="2.59257">
        <ele>668</ele>
        <time>2014-05-29T08:22:33Z</time>
      </trkpt>
      <trkpt lat="45.43115" lon="2.59269">
        <ele>668.2</ele>
        <time>2014-05-29T08:22:36Z</time>
      </trkpt>
      <trkpt lat="45.43114" lon="2.5928">
        <ele>668.9</ele>
        <time>2014-05-29T08:22:39Z</time>
      </trkpt>
      <trkpt lat="45.43113" lon="2.5929">
        <ele>669.4</ele>
        <time>2014-05-29T08:22:42Z</time>
      </trkpt>
      <trkpt lat="45.43112" lon="2.59301">
        <ele>670.5</ele>
        <time>2014-05-29T08:22:45Z</time>
      </trkpt>
      <trkpt lat="45.43111" lon="2.59311">
        <ele>670.9</ele>
        <time>2014-05-29T08:22:48Z</time>
      </trkpt>
      <trkpt lat="45.43111" lon="2.59324">
        <ele>671.6</ele>
        <time>2014-05-29T08:22:52Z</time>
      </trkpt>
      <trkpt lat="45.43112" lon="2.59334">
        <ele>672.5</ele>
        <time>2014-05-29T08:22:56Z</time>
      </trkpt>
      <trkpt lat="45.43116" lon="2.59345">
        <ele>673.8</ele>
        <time>2014-05-29T08:23:00Z</time>
      </trkpt>
      <trkpt lat="45.43119" lon="2.59357">
        <ele>674.6</ele>
        <time>2014-05-29T08:23:04Z</time>
      </trkpt>
      <trkpt lat="45.43119" lon="2.59359">
        <ele>675</ele>
        <time>2014-05-29T08:23:05Z</time>
      </trkpt>
      <trkpt lat="45.43123" lon="2.59378">
        <ele>677.5</ele>
        <time>2014-05-29T08:23:14Z</time>
      </trkpt>
      <trkpt lat="45.43124" lon="2.5939">
        <ele>678</ele>
        <time>2014-05-29T08:23:19Z</time>
      </trkpt>
      <trkpt lat="45.43115" lon="2.59394">
        <ele>680.3</ele>
        <time>2014-05-29T08:23:30Z</time>
      </trkpt>
      <trkpt lat="45.43107" lon="2.59391">
        <ele>682.7</ele>
        <time>2014-05-29T08:23:38Z</time>
      </trkpt>
      <trkpt lat="45.43099" lon="2.59388">
        <ele>683.8</ele>
        <time>2014-05-29T08:23:44Z</time>
      </trkpt>
      <trkpt lat="45.43092" lon="2.59385">
        <ele>685.2</ele>
        <time>2014-05-29T08:23:50Z</time>
      </trkpt>
      <trkpt lat="45.43084" lon="2.59379">
        <ele>685.5</ele>
        <time>2014-05-29T08:23:56Z</time>
      </trkpt>
      <trkpt lat="45.43077" lon="2.59373">
        <ele>686.7</ele>
        <time>2014-05-29T08:24:02Z</time>
      </trkpt>
      <trkpt lat="45.43069" lon="2.59369">
        <ele>687.4</ele>
        <time>2014-05-29T08:24:08Z</time>
      </trkpt>
      <trkpt lat="45.43068" lon="2.59368">
        <ele>687.6</ele>
        <time>2014-05-29T08:24:09Z</time>
      </trkpt>
      <trkpt lat="45.43055" lon="2.59355">
        <ele>689.5</ele>
        <time>2014-05-29T08:24:20Z</time>
      </trkpt>
      <trkpt lat="45.4305" lon="2.59345">
        <ele>690.3</ele>
        <time>2014-05-29T08:24:26Z</time>
      </trkpt>
      <trkpt lat="45.43043" lon="2.59338">
        <ele>692.6</ele>
        <time>2014-05-29T08:24:32Z</time>
      </trkpt>
      <trkpt lat="45.43035" lon="2.59339">
        <ele>693.9</ele>
        <time>2014-05-29T08:24:37Z</time>
      </trkpt>
      <trkpt lat="45.43027" lon="2.59341">
        <ele>695.2</ele>
        <time>2014-05-29T08:24:43Z</time>
      </trkpt>
      <trkpt lat="45.43018" lon="2.5934">
        <ele>697.6</ele>
        <time>2014-05-29T08:24:55Z</time>
      </trkpt>
      <trkpt lat="45.43013" lon="2.59331">
        <ele>698.9</ele>
        <time>2014-05-29T08:25:12Z</time>
      </trkpt>
      <trkpt lat="45.43013" lon="2.5933">
        <ele>698.9</ele>
        <time>2014-05-29T08:25:13Z</time>
      </trkpt>
      <trkpt lat="45.42996" lon="2.59328">
        <ele>704.4</ele>
        <time>2014-05-29T08:25:45Z</time>
      </trkpt>
      <trkpt lat="45.42991" lon="2.59319">
        <ele>705.4</ele>
        <time>2014-05-29T08:25:54Z</time>
      </trkpt>
      <trkpt lat="45.42986" lon="2.59311">
        <ele>706.6</ele>
        <time>2014-05-29T08:26:01Z</time>
      </trkpt>
      <trkpt lat="45.4298" lon="2.59301">
        <ele>708.5</ele>
        <time>2014-05-29T08:26:09Z</time>
      </trkpt>
      <trkpt lat="45.42978" lon="2.5929">
        <ele>711.2</ele>
        <time>2014-05-29T08:26:19Z</time>
      </trkpt>
      <trkpt lat="45.42978" lon="2.59288">
        <ele>711.3</ele>
        <time>2014-05-29T08:26:20Z</time>
      </trkpt>
      <trkpt lat="45.4297" lon="2.59268">
        <ele>714.5</ele>
        <time>2014-05-29T08:26:35Z</time>
      </trkpt>
      <trkpt lat="45.42965" lon="2.59258">
        <ele>715.1</ele>
        <time>2014-05-29T08:26:42Z</time>
      </trkpt>
      <trkpt lat="45.42961" lon="2.59248">
        <ele>716.2</ele>
        <time>2014-05-29T08:26:49Z</time>
      </trkpt>
      <trkpt lat="45.42959" lon="2.59236">
        <ele>718.2</ele>
        <time>2014-05-29T08:26:56Z</time>
      </trkpt>
      <trkpt lat="45.42959" lon="2.59224">
        <ele>719.3</ele>
        <time>2014-05-29T08:27:03Z</time>
      </trkpt>
      <trkpt lat="45.42959" lon="2.59211">
        <ele>720.5</ele>
        <time>2014-05-29T08:27:10Z</time>
      </trkpt>
      <trkpt lat="45.42956" lon="2.59201">
        <ele>722.4</ele>
        <time>2014-05-29T08:27:17Z</time>
      </trkpt>
      <trkpt lat="45.42947" lon="2.59199">
        <ele>724.6</ele>
        <time>2014-05-29T08:27:29Z</time>
      </trkpt>
      <trkpt lat="45.42946" lon="2.59199">
        <ele>724.4</ele>
        <time>2014-05-29T08:27:30Z</time>
      </trkpt>
      <trkpt lat="45.42932" lon="2.59208">
        <ele>726.9</ele>
        <time>2014-05-29T08:27:45Z</time>
      </trkpt>
      <trkpt lat="45.42926" lon="2.59215">
        <ele>728.1</ele>
        <time>2014-05-29T08:27:52Z</time>
      </trkpt>
      <trkpt lat="45.42921" lon="2.59224">
        <ele>728.9</ele>
        <time>2014-05-29T08:27:59Z</time>
      </trkpt>
      <trkpt lat="45.42916" lon="2.59232">
        <ele>729.8</ele>
        <time>2014-05-29T08:28:05Z</time>
      </trkpt>
      <trkpt lat="45.42911" lon="2.59241">
        <ele>730.9</ele>
        <time>2014-05-29T08:28:11Z</time>
      </trkpt>
      <trkpt lat="45.42905" lon="2.5925">
        <ele>731.5</ele>
        <time>2014-05-29T08:28:16Z</time>
      </trkpt>
      <trkpt lat="45.429" lon="2.59258">
        <ele>732</ele>
        <time>2014-05-29T08:28:20Z</time>
      </trkpt>
      <trkpt lat="45.42897" lon="2.5927">
        <ele>732.4</ele>
        <time>2014-05-29T08:28:26Z</time>
      </trkpt>
      <trkpt lat="45.42895" lon="2.59282">
        <ele>731.9</ele>
        <time>2014-05-29T08:28:32Z</time>
      </trkpt>
      <trkpt lat="45.42895" lon="2.59284">
        <ele>731.9</ele>
        <time>2014-05-29T08:28:33Z</time>
      </trkpt>
      <trkpt lat="45.42892" lon="2.59305">
        <ele>734.1</ele>
        <time>2014-05-29T08:28:44Z</time>
      </trkpt>
      <trkpt lat="45.42889" lon="2.59316">
        <ele>735.7</ele>
        <time>2014-05-29T08:28:48Z</time>
      </trkpt>
      <trkpt lat="45.42891" lon="2.59328">
        <ele>738</ele>
        <time>2014-05-29T08:28:54Z</time>
      </trkpt>
      <trkpt lat="45.42895" lon="2.59338">
        <ele>738.1</ele>
        <time>2014-05-29T08:29:00Z</time>
      </trkpt>
      <trkpt lat="45.42899" lon="2.59349">
        <ele>739.3</ele>
        <time>2014-05-29T08:29:06Z</time>
      </trkpt>
      <trkpt lat="45.42901" lon="2.5936">
        <ele>740.4</ele>
        <time>2014-05-29T08:29:12Z</time>
      </trkpt>
      <trkpt lat="45.42902" lon="2.59371">
        <ele>741.1</ele>
        <time>2014-05-29T08:29:18Z</time>
      </trkpt>
      <trkpt lat="45.42904" lon="2.59384">
        <ele>743.2</ele>
        <time>2014-05-29T08:29:26Z</time>
      </trkpt>
      <trkpt lat="45.42909" lon="2.59393">
        <ele>743.4</ele>
        <time>2014-05-29T08:29:31Z</time>
      </trkpt>
      <trkpt lat="45.42914" lon="2.59401">
        <ele>742.7</ele>
        <time>2014-05-29T08:29:34Z</time>
      </trkpt>
      <trkpt lat="45.42916" lon="2.59404">
        <ele>742.6</ele>
        <time>2014-05-29T08:29:35Z</time>
      </trkpt>
      <trkpt lat="45.42921" lon="2.59415">
        <ele>743</ele>
        <time>2014-05-29T08:29:38Z</time>
      </trkpt>
      <trkpt lat="45.42924" lon="2.59424">
        <ele>742.5</ele>
        <time>2014-05-29T08:29:40Z</time>
      </trkpt>
      <trkpt lat="45.42925" lon="2.59432">
        <ele>742.1</ele>
        <time>2014-05-29T08:29:42Z</time>
      </trkpt>
      <trkpt lat="45.42926" lon="2.59444">
        <ele>741.7</ele>
        <time>2014-05-29T08:29:45Z</time>
      </trkpt>
      <trkpt lat="45.42927" lon="2.59452">
        <ele>741.7</ele>
        <time>2014-05-29T08:29:47Z</time>
      </trkpt>
      <trkpt lat="45.42928" lon="2.59462">
        <ele>741.6</ele>
        <time>2014-05-29T08:29:49Z</time>
      </trkpt>
      <trkpt lat="45.4293" lon="2.59471">
        <ele>741.9</ele>
        <time>2014-05-29T08:29:51Z</time>
      </trkpt>
      <trkpt lat="45.42932" lon="2.59482">
        <ele>742.7</ele>
        <time>2014-05-29T08:29:54Z</time>
      </trkpt>
      <trkpt lat="45.42934" lon="2.59492">
        <ele>743.3</ele>
        <time>2014-05-29T08:29:58Z</time>
      </trkpt>
      <trkpt lat="45.42936" lon="2.59502">
        <ele>743.6</ele>
        <time>2014-05-29T08:30:02Z</time>
      </trkpt>
      <trkpt lat="45.42939" lon="2.59514">
        <ele>745</ele>
        <time>2014-05-29T08:30:06Z</time>
      </trkpt>
      <trkpt lat="45.42942" lon="2.59525">
        <ele>746.5</ele>
        <time>2014-05-29T08:30:12Z</time>
      </trkpt>
      <trkpt lat="45.42943" lon="2.59538">
        <ele>747.7</ele>
        <time>2014-05-29T08:30:21Z</time>
      </trkpt>
      <trkpt lat="45.42945" lon="2.5955">
        <ele>748.5</ele>
        <time>2014-05-29T08:30:30Z</time>
      </trkpt>
      <trkpt lat="45.42946" lon="2.59562">
        <ele>749.8</ele>
        <time>2014-05-29T08:30:38Z</time>
      </trkpt>
      <trkpt lat="45.42946" lon="2.59564">
        <ele>749.9</ele>
        <time>2014-05-29T08:30:39Z</time>
      </trkpt>
      <trkpt lat="45.42947" lon="2.59587">
        <ele>751.4</ele>
        <time>2014-05-29T08:31:02Z</time>
      </trkpt>
      <trkpt lat="45.42946" lon="2.59599">
        <ele>754.2</ele>
        <time>2014-05-29T08:31:14Z</time>
      </trkpt>
      <trkpt lat="45.42944" lon="2.59611">
        <ele>753.4</ele>
        <time>2014-05-29T08:31:22Z</time>
      </trkpt>
      <trkpt lat="45.42941" lon="2.59622">
        <ele>754.7</ele>
        <time>2014-05-29T08:31:29Z</time>
      </trkpt>
      <trkpt lat="45.42937" lon="2.59632">
        <ele>755.7</ele>
        <time>2014-05-29T08:31:35Z</time>
      </trkpt>
      <trkpt lat="45.42935" lon="2.59643">
        <ele>756.1</ele>
        <time>2014-05-29T08:31:41Z</time>
      </trkpt>
      <trkpt lat="45.42934" lon="2.59645">
        <ele>756.2</ele>
        <time>2014-05-29T08:31:42Z</time>
      </trkpt>
      <trkpt lat="45.42929" lon="2.59664">
        <ele>758.8</ele>
        <time>2014-05-29T08:31:54Z</time>
      </trkpt>
      <trkpt lat="45.42925" lon="2.59675">
        <ele>759.7</ele>
        <time>2014-05-29T08:32:02Z</time>
      </trkpt>
      <trkpt lat="45.4292" lon="2.59684">
        <ele>760.4</ele>
        <time>2014-05-29T08:32:09Z</time>
      </trkpt>
      <trkpt lat="45.42916" lon="2.59694">
        <ele>761.8</ele>
        <time>2014-05-29T08:32:16Z</time>
      </trkpt>
      <trkpt lat="45.42912" lon="2.59705">
        <ele>762.8</ele>
        <time>2014-05-29T08:32:24Z</time>
      </trkpt>
      <trkpt lat="45.42908" lon="2.59716">
        <ele>765.1</ele>
        <time>2014-05-29T08:32:33Z</time>
      </trkpt>
      <trkpt lat="45.42904" lon="2.59727">
        <ele>765.7</ele>
        <time>2014-05-29T08:32:41Z</time>
      </trkpt>
      <trkpt lat="45.42899" lon="2.59735">
        <ele>768.1</ele>
        <time>2014-05-29T08:32:49Z</time>
      </trkpt>
      <trkpt lat="45.42898" lon="2.59737">
        <ele>768.3</ele>
        <time>2014-05-29T08:32:50Z</time>
      </trkpt>
      <trkpt lat="45.42887" lon="2.59751">
        <ele>770</ele>
        <time>2014-05-29T08:33:04Z</time>
      </trkpt>
      <trkpt lat="45.42882" lon="2.59761">
        <ele>770.5</ele>
        <time>2014-05-29T08:33:13Z</time>
      </trkpt>
      <trkpt lat="45.42876" lon="2.59769">
        <ele>772.3</ele>
        <time>2014-05-29T08:33:22Z</time>
      </trkpt>
      <trkpt lat="45.42879" lon="2.5978">
        <ele>773.2</ele>
        <time>2014-05-29T08:33:34Z</time>
      </trkpt>
      <trkpt lat="45.42885" lon="2.59787">
        <ele>771.9</ele>
        <time>2014-05-29T08:33:39Z</time>
      </trkpt>
      <trkpt lat="45.42891" lon="2.59791">
        <ele>770.6</ele>
        <time>2014-05-29T08:33:41Z</time>
      </trkpt>
      <trkpt lat="45.42898" lon="2.59794">
        <ele>769</ele>
        <time>2014-05-29T08:33:43Z</time>
      </trkpt>
      <trkpt lat="45.42906" lon="2.59795">
        <ele>767.7</ele>
        <time>2014-05-29T08:33:45Z</time>
      </trkpt>
      <trkpt lat="45.42913" lon="2.59799">
        <ele>765.7</ele>
        <time>2014-05-29T08:33:47Z</time>
      </trkpt>
      <trkpt lat="45.42919" lon="2.59804">
        <ele>764</ele>
        <time>2014-05-29T08:33:49Z</time>
      </trkpt>
      <trkpt lat="45.42926" lon="2.59811">
        <ele>762.9</ele>
        <time>2014-05-29T08:33:51Z</time>
      </trkpt>
      <trkpt lat="45.42932" lon="2.59817">
        <ele>761.9</ele>
        <time>2014-05-29T08:33:53Z</time>
      </trkpt>
      <trkpt lat="45.42935" lon="2.5982">
        <ele>761.1</ele>
        <time>2014-05-29T08:33:54Z</time>
      </trkpt>
      <trkpt lat="45.42946" lon="2.59827">
        <ele>757.1</ele>
        <time>2014-05-29T08:34:01Z</time>
      </trkpt>
      <trkpt lat="45.42949" lon="2.59818">
        <ele>756.8</ele>
        <time>2014-05-29T08:34:07Z</time>
      </trkpt>
      <trkpt lat="45.42952" lon="2.59805">
        <ele>756</ele>
        <time>2014-05-29T08:34:10Z</time>
      </trkpt>
      <trkpt lat="45.42958" lon="2.59797">
        <ele>756.1</ele>
        <time>2014-05-29T08:34:13Z</time>
      </trkpt>
      <trkpt lat="45.42966" lon="2.598">
        <ele>755.7</ele>
        <time>2014-05-29T08:34:17Z</time>
      </trkpt>
      <trkpt lat="45.4297" lon="2.5981">
        <ele>755</ele>
        <time>2014-05-29T08:34:20Z</time>
      </trkpt>
      <trkpt lat="45.42969" lon="2.59821">
        <ele>753.7</ele>
        <time>2014-05-29T08:34:23Z</time>
      </trkpt>
      <trkpt lat="45.42965" lon="2.5983">
        <ele>753.3</ele>
        <time>2014-05-29T08:34:26Z</time>
      </trkpt>
      <trkpt lat="45.42959" lon="2.59839">
        <ele>753.1</ele>
        <time>2014-05-29T08:34:29Z</time>
      </trkpt>
      <trkpt lat="45.42954" lon="2.59849">
        <ele>752.1</ele>
        <time>2014-05-29T08:34:32Z</time>
      </trkpt>
      <trkpt lat="45.42951" lon="2.59857">
        <ele>751.5</ele>
        <time>2014-05-29T08:34:34Z</time>
      </trkpt>
      <trkpt lat="45.42949" lon="2.59866">
        <ele>751.8</ele>
        <time>2014-05-29T08:34:36Z</time>
      </trkpt>
      <trkpt lat="45.4295" lon="2.59877">
        <ele>752.2</ele>
        <time>2014-05-29T08:34:38Z</time>
      </trkpt>
      <trkpt lat="45.42952" lon="2.59883">
        <ele>752.4</ele>
        <time>2014-05-29T08:34:39Z</time>
      </trkpt>
      <trkpt lat="45.42959" lon="2.59891">
        <ele>752.7</ele>
        <time>2014-05-29T08:34:41Z</time>
      </trkpt>
      <trkpt lat="45.42967" lon="2.59894">
        <ele>752.1</ele>
        <time>2014-05-29T08:34:43Z</time>
      </trkpt>
      <trkpt lat="45.42975" lon="2.59896">
        <ele>752.3</ele>
        <time>2014-05-29T08:34:45Z</time>
      </trkpt>
      <trkpt lat="45.4298" lon="2.59896">
        <ele>752.2</ele>
        <time>2014-05-29T08:34:46Z</time>
      </trkpt>
      <trkpt lat="45.42985" lon="2.59899">
        <ele>752.1</ele>
        <time>2014-05-29T08:34:47Z</time>
      </trkpt>
      <trkpt lat="45.4299" lon="2.59902">
        <ele>752.1</ele>
        <time>2014-05-29T08:34:48Z</time>
      </trkpt>
      <trkpt lat="45.42995" lon="2.59905">
        <ele>751.5</ele>
        <time>2014-05-29T08:34:49Z</time>
      </trkpt>
      <trkpt lat="45.43" lon="2.59908">
        <ele>751</ele>
        <time>2014-05-29T08:34:50Z</time>
      </trkpt>
      <trkpt lat="45.43007" lon="2.59912">
        <ele>749.9</ele>
        <time>2014-05-29T08:34:52Z</time>
      </trkpt>
      <trkpt lat="45.43015" lon="2.59918">
        <ele>747.5</ele>
        <time>2014-05-29T08:34:57Z</time>
      </trkpt>
      <trkpt lat="45.43016" lon="2.59919">
        <ele>747.1</ele>
        <time>2014-05-29T08:34:58Z</time>
      </trkpt>
      <trkpt lat="45.43025" lon="2.59938">
        <ele>748</ele>
        <time>2014-05-29T08:35:17Z</time>
      </trkpt>
      <trkpt lat="45.43024" lon="2.5995">
        <ele>750.9</ele>
        <time>2014-05-29T08:35:27Z</time>
      </trkpt>
      <trkpt lat="45.43019" lon="2.5996">
        <ele>753.2</ele>
        <time>2014-05-29T08:35:38Z</time>
      </trkpt>
      <trkpt lat="45.43014" lon="2.5997">
        <ele>755.5</ele>
        <time>2014-05-29T08:35:47Z</time>
      </trkpt>
      <trkpt lat="45.43009" lon="2.59978">
        <ele>756.9</ele>
        <time>2014-05-29T08:35:54Z</time>
      </trkpt>
      <trkpt lat="45.43003" lon="2.59987">
        <ele>758.4</ele>
        <time>2014-05-29T08:36:01Z</time>
      </trkpt>
      <trkpt lat="45.43003" lon="2.59988">
        <ele>758.5</ele>
        <time>2014-05-29T08:36:02Z</time>
      </trkpt>
      <trkpt lat="45.4299" lon="2.60001">
        <ele>760.2</ele>
        <time>2014-05-29T08:36:13Z</time>
      </trkpt>
      <trkpt lat="45.42984" lon="2.60006">
        <ele>759.7</ele>
        <time>2014-05-29T08:36:17Z</time>
      </trkpt>
      <trkpt lat="45.42979" lon="2.60016">
        <ele>759.4</ele>
        <time>2014-05-29T08:36:22Z</time>
      </trkpt>
      <trkpt lat="45.42975" lon="2.60028">
        <ele>759.3</ele>
        <time>2014-05-29T08:36:31Z</time>
      </trkpt>
      <trkpt lat="45.4297" lon="2.60037">
        <ele>759.8</ele>
        <time>2014-05-29T08:36:37Z</time>
      </trkpt>
      <trkpt lat="45.42963" lon="2.60043">
        <ele>761</ele>
        <time>2014-05-29T08:36:43Z</time>
      </trkpt>
      <trkpt lat="45.42956" lon="2.60051">
        <ele>762.4</ele>
        <time>2014-05-29T08:36:49Z</time>
      </trkpt>
      <trkpt lat="45.4295" lon="2.60059">
        <ele>762.7</ele>
        <time>2014-05-29T08:36:55Z</time>
      </trkpt>
      <trkpt lat="45.42944" lon="2.60067">
        <ele>764.4</ele>
        <time>2014-05-29T08:37:00Z</time>
      </trkpt>
      <trkpt lat="45.42938" lon="2.60075">
        <ele>766.2</ele>
        <time>2014-05-29T08:37:07Z</time>
      </trkpt>
      <trkpt lat="45.42937" lon="2.60077">
        <ele>766.4</ele>
        <time>2014-05-29T08:37:08Z</time>
      </trkpt>
      <trkpt lat="45.42926" lon="2.6009">
        <ele>767.4</ele>
        <time>2014-05-29T08:37:17Z</time>
      </trkpt>
      <trkpt lat="45.42919" lon="2.60097">
        <ele>768.4</ele>
        <time>2014-05-29T08:37:22Z</time>
      </trkpt>
      <trkpt lat="45.42914" lon="2.60107">
        <ele>767.6</ele>
        <time>2014-05-29T08:37:27Z</time>
      </trkpt>
      <trkpt lat="45.42909" lon="2.60117">
        <ele>769.2</ele>
        <time>2014-05-29T08:37:32Z</time>
      </trkpt>
      <trkpt lat="45.42904" lon="2.60125">
        <ele>769.8</ele>
        <time>2014-05-29T08:37:37Z</time>
      </trkpt>
      <trkpt lat="45.42898" lon="2.60135">
        <ele>770.2</ele>
        <time>2014-05-29T08:37:42Z</time>
      </trkpt>
      <trkpt lat="45.42895" lon="2.60144">
        <ele>770.4</ele>
        <time>2014-05-29T08:37:46Z</time>
      </trkpt>
      <trkpt lat="45.4289" lon="2.60154">
        <ele>771.1</ele>
        <time>2014-05-29T08:37:50Z</time>
      </trkpt>
      <trkpt lat="45.42886" lon="2.60163">
        <ele>770.5</ele>
        <time>2014-05-29T08:37:54Z</time>
      </trkpt>
      <trkpt lat="45.42881" lon="2.60172">
        <ele>770.1</ele>
        <time>2014-05-29T08:37:58Z</time>
      </trkpt>
      <trkpt lat="45.42875" lon="2.60179">
        <ele>771.3</ele>
        <time>2014-05-29T08:38:02Z</time>
      </trkpt>
      <trkpt lat="45.42869" lon="2.60188">
        <ele>771.4</ele>
        <time>2014-05-29T08:38:07Z</time>
      </trkpt>
      <trkpt lat="45.42864" lon="2.60196">
        <ele>771.7</ele>
        <time>2014-05-29T08:38:12Z</time>
      </trkpt>
      <trkpt lat="45.42863" lon="2.60197">
        <ele>772.1</ele>
        <time>2014-05-29T08:38:13Z</time>
      </trkpt>
      <trkpt lat="45.42856" lon="2.60215">
        <ele>774.9</ele>
        <time>2014-05-29T08:38:23Z</time>
      </trkpt>
      <trkpt lat="45.42852" lon="2.60225">
        <ele>775.5</ele>
        <time>2014-05-29T08:38:28Z</time>
      </trkpt>
      <trkpt lat="45.42849" lon="2.60235">
        <ele>777.2</ele>
        <time>2014-05-29T08:38:34Z</time>
      </trkpt>
      <trkpt lat="45.42844" lon="2.60246">
        <ele>778.3</ele>
        <time>2014-05-29T08:38:40Z</time>
      </trkpt>
      <trkpt lat="45.42837" lon="2.60253">
        <ele>779.2</ele>
        <time>2014-05-29T08:38:44Z</time>
      </trkpt>
      <trkpt lat="45.42833" lon="2.6026">
        <ele>778.8</ele>
        <time>2014-05-29T08:38:47Z</time>
      </trkpt>
      <trkpt lat="45.42827" lon="2.60269">
        <ele>778.3</ele>
        <time>2014-05-29T08:38:51Z</time>
      </trkpt>
      <trkpt lat="45.42821" lon="2.60274">
        <ele>777.8</ele>
        <time>2014-05-29T08:38:53Z</time>
      </trkpt>
      <trkpt lat="45.42814" lon="2.60278">
        <ele>777.4</ele>
        <time>2014-05-29T08:38:55Z</time>
      </trkpt>
      <trkpt lat="45.42808" lon="2.60281">
        <ele>777.1</ele>
        <time>2014-05-29T08:38:57Z</time>
      </trkpt>
      <trkpt lat="45.42801" lon="2.60287">
        <ele>776.7</ele>
        <time>2014-05-29T08:39:00Z</time>
      </trkpt>
      <trkpt lat="45.42795" lon="2.6029">
        <ele>776.3</ele>
        <time>2014-05-29T08:39:02Z</time>
      </trkpt>
      <trkpt lat="45.42788" lon="2.60296">
        <ele>776.6</ele>
        <time>2014-05-29T08:39:05Z</time>
      </trkpt>
      <trkpt lat="45.42781" lon="2.603">
        <ele>776.2</ele>
        <time>2014-05-29T08:39:08Z</time>
      </trkpt>
      <trkpt lat="45.42775" lon="2.60303">
        <ele>776.2</ele>
        <time>2014-05-29T08:39:11Z</time>
      </trkpt>
      <trkpt lat="45.42767" lon="2.60305">
        <ele>776.6</ele>
        <time>2014-05-29T08:39:16Z</time>
      </trkpt>
      <trkpt lat="45.42766" lon="2.60305">
        <ele>776.9</ele>
        <time>2014-05-29T08:39:17Z</time>
      </trkpt>
      <trkpt lat="45.42751" lon="2.60296">
        <ele>777.8</ele>
        <time>2014-05-29T08:39:30Z</time>
      </trkpt>
      <trkpt lat="45.42744" lon="2.60291">
        <ele>778.1</ele>
        <time>2014-05-29T08:39:35Z</time>
      </trkpt>
      <trkpt lat="45.42737" lon="2.60287">
        <ele>780.1</ele>
        <time>2014-05-29T08:39:40Z</time>
      </trkpt>
      <trkpt lat="45.4273" lon="2.60288">
        <ele>780.7</ele>
        <time>2014-05-29T08:39:44Z</time>
      </trkpt>
      <trkpt lat="45.42723" lon="2.6029">
        <ele>781.3</ele>
        <time>2014-05-29T08:39:47Z</time>
      </trkpt>
      <trkpt lat="45.42714" lon="2.60295">
        <ele>782.1</ele>
        <time>2014-05-29T08:39:51Z</time>
      </trkpt>
      <trkpt lat="45.42707" lon="2.60299">
        <ele>783.9</ele>
        <time>2014-05-29T08:39:56Z</time>
      </trkpt>
      <trkpt lat="45.427" lon="2.60304">
        <ele>784.9</ele>
        <time>2014-05-29T08:40:01Z</time>
      </trkpt>
      <trkpt lat="45.42694" lon="2.60313">
        <ele>786</ele>
        <time>2014-05-29T08:40:06Z</time>
      </trkpt>
      <trkpt lat="45.42689" lon="2.60322">
        <ele>787.7</ele>
        <time>2014-05-29T08:40:11Z</time>
      </trkpt>
      <trkpt lat="45.42684" lon="2.60332">
        <ele>788.7</ele>
        <time>2014-05-29T08:40:16Z</time>
      </trkpt>
      <trkpt lat="45.4268" lon="2.60341">
        <ele>789.5</ele>
        <time>2014-05-29T08:40:21Z</time>
      </trkpt>
      <trkpt lat="45.42679" lon="2.60343">
        <ele>789.7</ele>
        <time>2014-05-29T08:40:22Z</time>
      </trkpt>
      <trkpt lat="45.42671" lon="2.60362">
        <ele>790.8</ele>
        <time>2014-05-29T08:40:33Z</time>
      </trkpt>
      <trkpt lat="45.42665" lon="2.60371">
        <ele>791.7</ele>
        <time>2014-05-29T08:40:39Z</time>
      </trkpt>
      <trkpt lat="45.42656" lon="2.60374">
        <ele>793.5</ele>
        <time>2014-05-29T08:40:49Z</time>
      </trkpt>
      <trkpt lat="45.42649" lon="2.60376">
        <ele>794.7</ele>
        <time>2014-05-29T08:40:55Z</time>
      </trkpt>
      <trkpt lat="45.42641" lon="2.60381">
        <ele>795.9</ele>
        <time>2014-05-29T08:41:00Z</time>
      </trkpt>
      <trkpt lat="45.42634" lon="2.60386">
        <ele>796.4</ele>
        <time>2014-05-29T08:41:06Z</time>
      </trkpt>
      <trkpt lat="45.42626" lon="2.6039">
        <ele>796.9</ele>
        <time>2014-05-29T08:41:11Z</time>
      </trkpt>
      <trkpt lat="45.42618" lon="2.60393">
        <ele>797.9</ele>
        <time>2014-05-29T08:41:15Z</time>
      </trkpt>
      <trkpt lat="45.42609" lon="2.60395">
        <ele>799.3</ele>
        <time>2014-05-29T08:41:21Z</time>
      </trkpt>
      <trkpt lat="45.42602" lon="2.60397">
        <ele>799.1</ele>
        <time>2014-05-29T08:41:25Z</time>
      </trkpt>
      <trkpt lat="45.426" lon="2.60398">
        <ele>798.8</ele>
        <time>2014-05-29T08:41:26Z</time>
      </trkpt>
      <trkpt lat="45.42587" lon="2.60402">
        <ele>800.4</ele>
        <time>2014-05-29T08:41:33Z</time>
      </trkpt>
      <trkpt lat="45.42578" lon="2.60405">
        <ele>801.1</ele>
        <time>2014-05-29T08:41:38Z</time>
      </trkpt>
      <trkpt lat="45.42571" lon="2.60409">
        <ele>802.1</ele>
        <time>2014-05-29T08:41:42Z</time>
      </trkpt>
      <trkpt lat="45.42564" lon="2.60413">
        <ele>802.5</ele>
        <time>2014-05-29T08:41:46Z</time>
      </trkpt>
      <trkpt lat="45.42557" lon="2.60421">
        <ele>803.4</ele>
        <time>2014-05-29T08:41:51Z</time>
      </trkpt>
      <trkpt lat="45.42551" lon="2.60428">
        <ele>804.3</ele>
        <time>2014-05-29T08:41:56Z</time>
      </trkpt>
      <trkpt lat="45.42544" lon="2.60435">
        <ele>805.6</ele>
        <time>2014-05-29T08:42:01Z</time>
      </trkpt>
      <trkpt lat="45.42536" lon="2.60436">
        <ele>806.3</ele>
        <time>2014-05-29T08:42:07Z</time>
      </trkpt>
      <trkpt lat="45.42529" lon="2.60431">
        <ele>806.7</ele>
        <time>2014-05-29T08:42:12Z</time>
      </trkpt>
      <trkpt lat="45.42522" lon="2.60427">
        <ele>806.8</ele>
        <time>2014-05-29T08:42:16Z</time>
      </trkpt>
      <trkpt lat="45.42516" lon="2.60425">
        <ele>807.5</ele>
        <time>2014-05-29T08:42:19Z</time>
      </trkpt>
      <trkpt lat="45.42508" lon="2.60422">
        <ele>807.6</ele>
        <time>2014-05-29T08:42:22Z</time>
      </trkpt>
      <trkpt lat="45.425" lon="2.6042">
        <ele>807.3</ele>
        <time>2014-05-29T08:42:25Z</time>
      </trkpt>
      <trkpt lat="45.42493" lon="2.60419">
        <ele>807.1</ele>
        <time>2014-05-29T08:42:27Z</time>
      </trkpt>
      <trkpt lat="45.4249" lon="2.60418">
        <ele>807.1</ele>
        <time>2014-05-29T08:42:28Z</time>
      </trkpt>
      <trkpt lat="45.42477" lon="2.60415">
        <ele>806.1</ele>
        <time>2014-05-29T08:42:31Z</time>
      </trkpt>
      <trkpt lat="45.42473" lon="2.60414">
        <ele>805.8</ele>
        <time>2014-05-29T08:42:32Z</time>
      </trkpt>
      <trkpt lat="45.42468" lon="2.60413">
        <ele>805.6</ele>
        <time>2014-05-29T08:42:33Z</time>
      </trkpt>
      <trkpt lat="45.42463" lon="2.60411">
        <ele>805.4</ele>
        <time>2014-05-29T08:42:34Z</time>
      </trkpt>
      <trkpt lat="45.42458" lon="2.60409">
        <ele>805.3</ele>
        <time>2014-05-29T08:42:35Z</time>
      </trkpt>
      <trkpt lat="45.42452" lon="2.60406">
        <ele>805.3</ele>
        <time>2014-05-29T08:42:36Z</time>
      </trkpt>
      <trkpt lat="45.42445" lon="2.60403">
        <ele>805.4</ele>
        <time>2014-05-29T08:42:37Z</time>
      </trkpt>
      <trkpt lat="45.42439" lon="2.60399">
        <ele>805.4</ele>
        <time>2014-05-29T08:42:38Z</time>
      </trkpt>
      <trkpt lat="45.42432" lon="2.60394">
        <ele>805.1</ele>
        <time>2014-05-29T08:42:39Z</time>
      </trkpt>
      <trkpt lat="45.42425" lon="2.60389">
        <ele>804.8</ele>
        <time>2014-05-29T08:42:40Z</time>
      </trkpt>
      <trkpt lat="45.42419" lon="2.60383">
        <ele>804.3</ele>
        <time>2014-05-29T08:42:41Z</time>
      </trkpt>
      <trkpt lat="45.42413" lon="2.60377">
        <ele>803.9</ele>
        <time>2014-05-29T08:42:42Z</time>
      </trkpt>
      <trkpt lat="45.42408" lon="2.6037">
        <ele>803.3</ele>
        <time>2014-05-29T08:42:43Z</time>
      </trkpt>
      <trkpt lat="45.42402" lon="2.60364">
        <ele>802.8</ele>
        <time>2014-05-29T08:42:44Z</time>
      </trkpt>
      <trkpt lat="45.42397" lon="2.60358">
        <ele>802.5</ele>
        <time>2014-05-29T08:42:45Z</time>
      </trkpt>
      <trkpt lat="45.42391" lon="2.60353">
        <ele>802.4</ele>
        <time>2014-05-29T08:42:46Z</time>
      </trkpt>
      <trkpt lat="45.42385" lon="2.60347">
        <ele>802.4</ele>
        <time>2014-05-29T08:42:47Z</time>
      </trkpt>
      <trkpt lat="45.42379" lon="2.60342">
        <ele>802.3</ele>
        <time>2014-05-29T08:42:48Z</time>
      </trkpt>
      <trkpt lat="45.42373" lon="2.60337">
        <ele>802.3</ele>
        <time>2014-05-29T08:42:49Z</time>
      </trkpt>
      <trkpt lat="45.42367" lon="2.60332">
        <ele>802.2</ele>
        <time>2014-05-29T08:42:50Z</time>
      </trkpt>
      <trkpt lat="45.42361" lon="2.60328">
        <ele>802.2</ele>
        <time>2014-05-29T08:42:51Z</time>
      </trkpt>
      <trkpt lat="45.42355" lon="2.60325">
        <ele>802.2</ele>
        <time>2014-05-29T08:42:52Z</time>
      </trkpt>
      <trkpt lat="45.42348" lon="2.60323">
        <ele>802.1</ele>
        <time>2014-05-29T08:42:53Z</time>
      </trkpt>
      <trkpt lat="45.42342" lon="2.60321">
        <ele>802</ele>
        <time>2014-05-29T08:42:54Z</time>
      </trkpt>
      <trkpt lat="45.42335" lon="2.6032">
        <ele>802</ele>
        <time>2014-05-29T08:42:55Z</time>
      </trkpt>
      <trkpt lat="45.42329" lon="2.60318">
        <ele>801.9</ele>
        <time>2014-05-29T08:42:56Z</time>
      </trkpt>
      <trkpt lat="45.42323" lon="2.60315">
        <ele>801.9</ele>
        <time>2014-05-29T08:42:57Z</time>
      </trkpt>
      <trkpt lat="45.42317" lon="2.60312">
        <ele>801.6</ele>
        <time>2014-05-29T08:42:58Z</time>
      </trkpt>
      <trkpt lat="45.42311" lon="2.60309">
        <ele>801.5</ele>
        <time>2014-05-29T08:42:59Z</time>
      </trkpt>
      <trkpt lat="45.42305" lon="2.60306">
        <ele>801.9</ele>
        <time>2014-05-29T08:43:00Z</time>
      </trkpt>
      <trkpt lat="45.423" lon="2.60304">
        <ele>802.2</ele>
        <time>2014-05-29T08:43:01Z</time>
      </trkpt>
      <trkpt lat="45.42295" lon="2.60302">
        <ele>802</ele>
        <time>2014-05-29T08:43:02Z</time>
      </trkpt>
      <trkpt lat="45.4229" lon="2.60301">
        <ele>801.9</ele>
        <time>2014-05-29T08:43:03Z</time>
      </trkpt>
      <trkpt lat="45.42284" lon="2.60302">
        <ele>801.8</ele>
        <time>2014-05-29T08:43:04Z</time>
      </trkpt>
      <trkpt lat="45.42279" lon="2.60304">
        <ele>802.1</ele>
        <time>2014-05-29T08:43:05Z</time>
      </trkpt>
      <trkpt lat="45.42275" lon="2.60308">
        <ele>802.3</ele>
        <time>2014-05-29T08:43:06Z</time>
      </trkpt>
      <trkpt lat="45.42271" lon="2.60313">
        <ele>802.4</ele>
        <time>2014-05-29T08:43:07Z</time>
      </trkpt>
      <trkpt lat="45.42267" lon="2.60319">
        <ele>802.4</ele>
        <time>2014-05-29T08:43:08Z</time>
      </trkpt>
      <trkpt lat="45.42264" lon="2.60326">
        <ele>802.6</ele>
        <time>2014-05-29T08:43:09Z</time>
      </trkpt>
      <trkpt lat="45.42262" lon="2.60333">
        <ele>802.7</ele>
        <time>2014-05-29T08:43:10Z</time>
      </trkpt>
      <trkpt lat="45.42259" lon="2.60341">
        <ele>802.8</ele>
        <time>2014-05-29T08:43:11Z</time>
      </trkpt>
      <trkpt lat="45.42257" lon="2.6035">
        <ele>802.6</ele>
        <time>2014-05-29T08:43:12Z</time>
      </trkpt>
      <trkpt lat="45.42255" lon="2.60359">
        <ele>802.5</ele>
        <time>2014-05-29T08:43:13Z</time>
      </trkpt>
      <trkpt lat="45.42253" lon="2.60368">
        <ele>802.4</ele>
        <time>2014-05-29T08:43:14Z</time>
      </trkpt>
      <trkpt lat="45.42252" lon="2.60378">
        <ele>802.3</ele>
        <time>2014-05-29T08:43:15Z</time>
      </trkpt>
      <trkpt lat="45.42251" lon="2.60387">
        <ele>802.2</ele>
        <time>2014-05-29T08:43:16Z</time>
      </trkpt>
      <trkpt lat="45.42249" lon="2.60397">
        <ele>802.2</ele>
        <time>2014-05-29T08:43:17Z</time>
      </trkpt>
      <trkpt lat="45.42248" lon="2.60407">
        <ele>802.1</ele>
        <time>2014-05-29T08:43:18Z</time>
      </trkpt>
      <trkpt lat="45.42246" lon="2.60417">
        <ele>801.6</ele>
        <time>2014-05-29T08:43:19Z</time>
      </trkpt>
      <trkpt lat="45.42245" lon="2.60427">
        <ele>801.2</ele>
        <time>2014-05-29T08:43:20Z</time>
      </trkpt>
      <trkpt lat="45.42244" lon="2.60438">
        <ele>800.7</ele>
        <time>2014-05-29T08:43:21Z</time>
      </trkpt>
      <trkpt lat="45.42243" lon="2.60448">
        <ele>800.4</ele>
        <time>2014-05-29T08:43:22Z</time>
      </trkpt>
      <trkpt lat="45.42244" lon="2.60459">
        <ele>800.2</ele>
        <time>2014-05-29T08:43:23Z</time>
      </trkpt>
      <trkpt lat="45.42245" lon="2.6047">
        <ele>800</ele>
        <time>2014-05-29T08:43:24Z</time>
      </trkpt>
      <trkpt lat="45.42247" lon="2.60482">
        <ele>799.8</ele>
        <time>2014-05-29T08:43:25Z</time>
      </trkpt>
      <trkpt lat="45.42249" lon="2.60494">
        <ele>799.2</ele>
        <time>2014-05-29T08:43:26Z</time>
      </trkpt>
      <trkpt lat="45.4225" lon="2.60507">
        <ele>798.8</ele>
        <time>2014-05-29T08:43:27Z</time>
      </trkpt>
      <trkpt lat="45.42249" lon="2.6052">
        <ele>798.4</ele>
        <time>2014-05-29T08:43:28Z</time>
      </trkpt>
      <trkpt lat="45.42247" lon="2.60532">
        <ele>798.2</ele>
        <time>2014-05-29T08:43:29Z</time>
      </trkpt>
      <trkpt lat="45.42243" lon="2.60544">
        <ele>798</ele>
        <time>2014-05-29T08:43:30Z</time>
      </trkpt>
      <trkpt lat="45.42238" lon="2.60554">
        <ele>797.8</ele>
        <time>2014-05-29T08:43:31Z</time>
      </trkpt>
      <trkpt lat="45.42234" lon="2.60564">
        <ele>797.8</ele>
        <time>2014-05-29T08:43:32Z</time>
      </trkpt>
      <trkpt lat="45.42229" lon="2.60573">
        <ele>797.9</ele>
        <time>2014-05-29T08:43:33Z</time>
      </trkpt>
      <trkpt lat="45.42224" lon="2.6058">
        <ele>797.9</ele>
        <time>2014-05-29T08:43:34Z</time>
      </trkpt>
      <trkpt lat="45.4222" lon="2.60588">
        <ele>798.6</ele>
        <time>2014-05-29T08:43:35Z</time>
      </trkpt>
      <trkpt lat="45.42215" lon="2.60595">
        <ele>799.2</ele>
        <time>2014-05-29T08:43:36Z</time>
      </trkpt>
      <trkpt lat="45.42211" lon="2.60602">
        <ele>799.6</ele>
        <time>2014-05-29T08:43:37Z</time>
      </trkpt>
      <trkpt lat="45.42207" lon="2.60609">
        <ele>799.6</ele>
        <time>2014-05-29T08:43:38Z</time>
      </trkpt>
      <trkpt lat="45.42203" lon="2.60615">
        <ele>799.7</ele>
        <time>2014-05-29T08:43:39Z</time>
      </trkpt>
      <trkpt lat="45.42199" lon="2.60622">
        <ele>799.8</ele>
        <time>2014-05-29T08:43:40Z</time>
      </trkpt>
      <trkpt lat="45.42196" lon="2.6063">
        <ele>799.9</ele>
        <time>2014-05-29T08:43:41Z</time>
      </trkpt>
      <trkpt lat="45.42193" lon="2.60638">
        <ele>800</ele>
        <time>2014-05-29T08:43:42Z</time>
      </trkpt>
      <trkpt lat="45.4219" lon="2.60647">
        <ele>800.2</ele>
        <time>2014-05-29T08:43:43Z</time>
      </trkpt>
      <trkpt lat="45.42188" lon="2.60655">
        <ele>800.4</ele>
        <time>2014-05-29T08:43:44Z</time>
      </trkpt>
      <trkpt lat="45.42187" lon="2.60663">
        <ele>800.7</ele>
        <time>2014-05-29T08:43:45Z</time>
      </trkpt>
      <trkpt lat="45.42185" lon="2.60672">
        <ele>800.9</ele>
        <time>2014-05-29T08:43:46Z</time>
      </trkpt>
      <trkpt lat="45.42184" lon="2.60681">
        <ele>801.3</ele>
        <time>2014-05-29T08:43:47Z</time>
      </trkpt>
      <trkpt lat="45.42182" lon="2.6069">
        <ele>801.5</ele>
        <time>2014-05-29T08:43:48Z</time>
      </trkpt>
      <trkpt lat="45.42181" lon="2.60699">
        <ele>801.7</ele>
        <time>2014-05-29T08:43:49Z</time>
      </trkpt>
      <trkpt lat="45.4218" lon="2.60709">
        <ele>801.7</ele>
        <time>2014-05-29T08:43:50Z</time>
      </trkpt>
      <trkpt lat="45.42179" lon="2.60718">
        <ele>801.8</ele>
        <time>2014-05-29T08:43:51Z</time>
      </trkpt>
      <trkpt lat="45.42177" lon="2.60728">
        <ele>801.6</ele>
        <time>2014-05-29T08:43:52Z</time>
      </trkpt>
      <trkpt lat="45.42176" lon="2.60738">
        <ele>801.5</ele>
        <time>2014-05-29T08:43:53Z</time>
      </trkpt>
      <trkpt lat="45.42175" lon="2.60748">
        <ele>801.4</ele>
        <time>2014-05-29T08:43:54Z</time>
      </trkpt>
      <trkpt lat="45.42173" lon="2.60759">
        <ele>801.2</ele>
        <time>2014-05-29T08:43:55Z</time>
      </trkpt>
      <trkpt lat="45.42171" lon="2.6077">
        <ele>801</ele>
        <time>2014-05-29T08:43:56Z</time>
      </trkpt>
      <trkpt lat="45.4217" lon="2.60781">
        <ele>800.3</ele>
        <time>2014-05-29T08:43:57Z</time>
      </trkpt>
      <trkpt lat="45.42169" lon="2.60793">
        <ele>799.7</ele>
        <time>2014-05-29T08:43:58Z</time>
      </trkpt>
      <trkpt lat="45.42169" lon="2.60804">
        <ele>799.5</ele>
        <time>2014-05-29T08:43:59Z</time>
      </trkpt>
      <trkpt lat="45.4217" lon="2.60815">
        <ele>799.3</ele>
        <time>2014-05-29T08:44:00Z</time>
      </trkpt>
      <trkpt lat="45.42172" lon="2.60826">
        <ele>799.2</ele>
        <time>2014-05-29T08:44:01Z</time>
      </trkpt>
      <trkpt lat="45.42175" lon="2.60836">
        <ele>799</ele>
        <time>2014-05-29T08:44:02Z</time>
      </trkpt>
      <trkpt lat="45.42179" lon="2.60846">
        <ele>798.9</ele>
        <time>2014-05-29T08:44:03Z</time>
      </trkpt>
      <trkpt lat="45.42183" lon="2.60856">
        <ele>798.7</ele>
        <time>2014-05-29T08:44:04Z</time>
      </trkpt>
      <trkpt lat="45.42186" lon="2.60866">
        <ele>798.6</ele>
        <time>2014-05-29T08:44:05Z</time>
      </trkpt>
      <trkpt lat="45.4219" lon="2.60875">
        <ele>798.4</ele>
        <time>2014-05-29T08:44:06Z</time>
      </trkpt>
      <trkpt lat="45.42194" lon="2.60885">
        <ele>798.3</ele>
        <time>2014-05-29T08:44:07Z</time>
      </trkpt>
      <trkpt lat="45.42198" lon="2.60894">
        <ele>798.2</ele>
        <time>2014-05-29T08:44:08Z</time>
      </trkpt>
      <trkpt lat="45.42202" lon="2.60904">
        <ele>798</ele>
        <time>2014-05-29T08:44:09Z</time>
      </trkpt>
      <trkpt lat="45.42205" lon="2.60913">
        <ele>797.8</ele>
        <time>2014-05-29T08:44:10Z</time>
      </trkpt>
      <trkpt lat="45.42209" lon="2.60922">
        <ele>797.8</ele>
        <time>2014-05-29T08:44:11Z</time>
      </trkpt>
      <trkpt lat="45.42212" lon="2.6093">
        <ele>797.8</ele>
        <time>2014-05-29T08:44:12Z</time>
      </trkpt>
      <trkpt lat="45.42215" lon="2.60939">
        <ele>797.7</ele>
        <time>2014-05-29T08:44:13Z</time>
      </trkpt>
      <trkpt lat="45.42218" lon="2.60948">
        <ele>797.7</ele>
        <time>2014-05-29T08:44:14Z</time>
      </trkpt>
      <trkpt lat="45.42221" lon="2.60957">
        <ele>797.7</ele>
        <time>2014-05-29T08:44:15Z</time>
      </trkpt>
      <trkpt lat="45.42224" lon="2.60966">
        <ele>797.2</ele>
        <time>2014-05-29T08:44:16Z</time>
      </trkpt>
      <trkpt lat="45.42226" lon="2.60975">
        <ele>796.8</ele>
        <time>2014-05-29T08:44:17Z</time>
      </trkpt>
      <trkpt lat="45.42227" lon="2.60985">
        <ele>796.7</ele>
        <time>2014-05-29T08:44:18Z</time>
      </trkpt>
      <trkpt lat="45.42227" lon="2.60994">
        <ele>796.7</ele>
        <time>2014-05-29T08:44:19Z</time>
      </trkpt>
      <trkpt lat="45.42228" lon="2.61004">
        <ele>796.6</ele>
        <time>2014-05-29T08:44:20Z</time>
      </trkpt>
      <trkpt lat="45.42228" lon="2.61014">
        <ele>796.7</ele>
        <time>2014-05-29T08:44:21Z</time>
      </trkpt>
      <trkpt lat="45.42229" lon="2.61023">
        <ele>796.8</ele>
        <time>2014-05-29T08:44:22Z</time>
      </trkpt>
      <trkpt lat="45.42229" lon="2.61033">
        <ele>796.8</ele>
        <time>2014-05-29T08:44:23Z</time>
      </trkpt>
      <trkpt lat="45.4223" lon="2.61042">
        <ele>796.7</ele>
        <time>2014-05-29T08:44:24Z</time>
      </trkpt>
      <trkpt lat="45.42231" lon="2.61051">
        <ele>796.4</ele>
        <time>2014-05-29T08:44:25Z</time>
      </trkpt>
      <trkpt lat="45.42232" lon="2.61061">
        <ele>796.2</ele>
        <time>2014-05-29T08:44:26Z</time>
      </trkpt>
      <trkpt lat="45.42231" lon="2.6107">
        <ele>796.1</ele>
        <time>2014-05-29T08:44:27Z</time>
      </trkpt>
      <trkpt lat="45.4223" lon="2.6108">
        <ele>795.6</ele>
        <time>2014-05-29T08:44:28Z</time>
      </trkpt>
      <trkpt lat="45.42227" lon="2.61089">
        <ele>795.3</ele>
        <time>2014-05-29T08:44:29Z</time>
      </trkpt>
      <trkpt lat="45.42222" lon="2.61098">
        <ele>795.3</ele>
        <time>2014-05-29T08:44:30Z</time>
      </trkpt>
      <trkpt lat="45.42217" lon="2.61107">
        <ele>795.3</ele>
        <time>2014-05-29T08:44:31Z</time>
      </trkpt>
      <trkpt lat="45.42213" lon="2.61117">
        <ele>794.9</ele>
        <time>2014-05-29T08:44:32Z</time>
      </trkpt>
      <trkpt lat="45.4221" lon="2.61127">
        <ele>794.7</ele>
        <time>2014-05-29T08:44:33Z</time>
      </trkpt>
      <trkpt lat="45.42207" lon="2.61139">
        <ele>794.5</ele>
        <time>2014-05-29T08:44:34Z</time>
      </trkpt>
      <trkpt lat="45.42205" lon="2.61151">
        <ele>793.8</ele>
        <time>2014-05-29T08:44:35Z</time>
      </trkpt>
      <trkpt lat="45.42203" lon="2.61163">
        <ele>793.3</ele>
        <time>2014-05-29T08:44:36Z</time>
      </trkpt>
      <trkpt lat="45.422" lon="2.61176">
        <ele>793</ele>
        <time>2014-05-29T08:44:37Z</time>
      </trkpt>
      <trkpt lat="45.42197" lon="2.61188">
        <ele>792.8</ele>
        <time>2014-05-29T08:44:38Z</time>
      </trkpt>
      <trkpt lat="45.42193" lon="2.61201">
        <ele>792.6</ele>
        <time>2014-05-29T08:44:39Z</time>
      </trkpt>
      <trkpt lat="45.42189" lon="2.61213">
        <ele>791.5</ele>
        <time>2014-05-29T08:44:40Z</time>
      </trkpt>
      <trkpt lat="45.42183" lon="2.61225">
        <ele>790.7</ele>
        <time>2014-05-29T08:44:41Z</time>
      </trkpt>
      <trkpt lat="45.42177" lon="2.61236">
        <ele>790.3</ele>
        <time>2014-05-29T08:44:42Z</time>
      </trkpt>
      <trkpt lat="45.42171" lon="2.61247">
        <ele>790</ele>
        <time>2014-05-29T08:44:43Z</time>
      </trkpt>
      <trkpt lat="45.42163" lon="2.61256">
        <ele>789</ele>
        <time>2014-05-29T08:44:44Z</time>
      </trkpt>
      <trkpt lat="45.42154" lon="2.61263">
        <ele>788.2</ele>
        <time>2014-05-29T08:44:45Z</time>
      </trkpt>
      <trkpt lat="45.42146" lon="2.6127">
        <ele>787.6</ele>
        <time>2014-05-29T08:44:46Z</time>
      </trkpt>
      <trkpt lat="45.42137" lon="2.61278">
        <ele>787</ele>
        <time>2014-05-29T08:44:47Z</time>
      </trkpt>
      <trkpt lat="45.4213" lon="2.61285">
        <ele>786.6</ele>
        <time>2014-05-29T08:44:48Z</time>
      </trkpt>
      <trkpt lat="45.42122" lon="2.61292">
        <ele>786.1</ele>
        <time>2014-05-29T08:44:49Z</time>
      </trkpt>
      <trkpt lat="45.42116" lon="2.61298">
        <ele>785.7</ele>
        <time>2014-05-29T08:44:50Z</time>
      </trkpt>
      <trkpt lat="45.42109" lon="2.61304">
        <ele>784.9</ele>
        <time>2014-05-29T08:44:51Z</time>
      </trkpt>
      <trkpt lat="45.42103" lon="2.6131">
        <ele>784.3</ele>
        <time>2014-05-29T08:44:52Z</time>
      </trkpt>
      <trkpt lat="45.42096" lon="2.61314">
        <ele>783.8</ele>
        <time>2014-05-29T08:44:53Z</time>
      </trkpt>
      <trkpt lat="45.42091" lon="2.61317">
        <ele>783</ele>
        <time>2014-05-29T08:44:54Z</time>
      </trkpt>
      <trkpt lat="45.42083" lon="2.6132">
        <ele>781.9</ele>
        <time>2014-05-29T08:44:56Z</time>
      </trkpt>
      <trkpt lat="45.42076" lon="2.61324">
        <ele>781.3</ele>
        <time>2014-05-29T08:44:58Z</time>
      </trkpt>
      <trkpt lat="45.42068" lon="2.61327">
        <ele>779.8</ele>
        <time>2014-05-29T08:45:01Z</time>
      </trkpt>
      <trkpt lat="45.4206" lon="2.61328">
        <ele>779.9</ele>
        <time>2014-05-29T08:45:04Z</time>
      </trkpt>
      <trkpt lat="45.42052" lon="2.61329">
        <ele>779.4</ele>
        <time>2014-05-29T08:45:09Z</time>
      </trkpt>
      <trkpt lat="45.42044" lon="2.61327">
        <ele>778.7</ele>
        <time>2014-05-29T08:45:13Z</time>
      </trkpt>
      <trkpt lat="45.42037" lon="2.61327">
        <ele>777.6</ele>
        <time>2014-05-29T08:45:18Z</time>
      </trkpt>
      <trkpt lat="45.4203" lon="2.61326">
        <ele>777.5</ele>
        <time>2014-05-29T08:45:21Z</time>
      </trkpt>
      <trkpt lat="45.42022" lon="2.61327">
        <ele>776.9</ele>
        <time>2014-05-29T08:45:24Z</time>
      </trkpt>
      <trkpt lat="45.42016" lon="2.6133">
        <ele>777.5</ele>
        <time>2014-05-29T08:45:26Z</time>
      </trkpt>
      <trkpt lat="45.42011" lon="2.61335">
        <ele>777.2</ele>
        <time>2014-05-29T08:45:28Z</time>
      </trkpt>
      <trkpt lat="45.42006" lon="2.6134">
        <ele>776.8</ele>
        <time>2014-05-29T08:45:30Z</time>
      </trkpt>
      <trkpt lat="45.41998" lon="2.61345">
        <ele>777</ele>
        <time>2014-05-29T08:45:33Z</time>
      </trkpt>
      <trkpt lat="45.41989" lon="2.61346">
        <ele>776.7</ele>
        <time>2014-05-29T08:45:37Z</time>
      </trkpt>
      <trkpt lat="45.41987" lon="2.61346">
        <ele>776.5</ele>
        <time>2014-05-29T08:45:38Z</time>
      </trkpt>
      <trkpt lat="45.41973" lon="2.61347">
        <ele>776.6</ele>
        <time>2014-05-29T08:45:49Z</time>
      </trkpt>
      <trkpt lat="45.41965" lon="2.6135">
        <ele>776.4</ele>
        <time>2014-05-29T08:45:55Z</time>
      </trkpt>
      <trkpt lat="45.41957" lon="2.61351">
        <ele>777.1</ele>
        <time>2014-05-29T08:46:03Z</time>
      </trkpt>
      <trkpt lat="45.41948" lon="2.61354">
        <ele>777.8</ele>
        <time>2014-05-29T08:46:14Z</time>
      </trkpt>
      <trkpt lat="45.4194" lon="2.61358">
        <ele>778.5</ele>
        <time>2014-05-29T08:46:20Z</time>
      </trkpt>
      <trkpt lat="45.41933" lon="2.61363">
        <ele>779.2</ele>
        <time>2014-05-29T08:46:27Z</time>
      </trkpt>
      <trkpt lat="45.41926" lon="2.6137">
        <ele>779.3</ele>
        <time>2014-05-29T08:46:33Z</time>
      </trkpt>
      <trkpt lat="45.41919" lon="2.61376">
        <ele>779.5</ele>
        <time>2014-05-29T08:46:40Z</time>
      </trkpt>
      <trkpt lat="45.41918" lon="2.61377">
        <ele>779.8</ele>
        <time>2014-05-29T08:46:41Z</time>
      </trkpt>
      <trkpt lat="45.41904" lon="2.61386">
        <ele>780.4</ele>
        <time>2014-05-29T08:46:54Z</time>
      </trkpt>
      <trkpt lat="45.41896" lon="2.61388">
        <ele>780.9</ele>
        <time>2014-05-29T08:46:59Z</time>
      </trkpt>
      <trkpt lat="45.41889" lon="2.61393">
        <ele>781.1</ele>
        <time>2014-05-29T08:47:03Z</time>
      </trkpt>
      <trkpt lat="45.41883" lon="2.614">
        <ele>781.1</ele>
        <time>2014-05-29T08:47:07Z</time>
      </trkpt>
      <trkpt lat="45.41877" lon="2.61408">
        <ele>781.3</ele>
        <time>2014-05-29T08:47:12Z</time>
      </trkpt>
      <trkpt lat="45.41872" lon="2.61417">
        <ele>782.5</ele>
        <time>2014-05-29T08:47:17Z</time>
      </trkpt>
      <trkpt lat="45.41868" lon="2.61428">
        <ele>783.1</ele>
        <time>2014-05-29T08:47:22Z</time>
      </trkpt>
      <trkpt lat="45.41864" lon="2.61437">
        <ele>783.2</ele>
        <time>2014-05-29T08:47:26Z</time>
      </trkpt>
      <trkpt lat="45.41861" lon="2.61447">
        <ele>783.5</ele>
        <time>2014-05-29T08:47:30Z</time>
      </trkpt>
      <trkpt lat="45.41856" lon="2.61455">
        <ele>784.1</ele>
        <time>2014-05-29T08:47:35Z</time>
      </trkpt>
      <trkpt lat="45.41849" lon="2.61464">
        <ele>785.3</ele>
        <time>2014-05-29T08:47:41Z</time>
      </trkpt>
      <trkpt lat="45.41848" lon="2.61466">
        <ele>785.2</ele>
        <time>2014-05-29T08:47:42Z</time>
      </trkpt>
      <trkpt lat="45.41836" lon="2.6148">
        <ele>787.1</ele>
        <time>2014-05-29T08:47:53Z</time>
      </trkpt>
      <trkpt lat="45.41829" lon="2.61489">
        <ele>788.3</ele>
        <time>2014-05-29T08:47:58Z</time>
      </trkpt>
      <trkpt lat="45.41824" lon="2.61496">
        <ele>788.5</ele>
        <time>2014-05-29T08:48:02Z</time>
      </trkpt>
      <trkpt lat="45.41819" lon="2.61505">
        <ele>789</ele>
        <time>2014-05-29T08:48:06Z</time>
      </trkpt>
      <trkpt lat="45.41814" lon="2.61515">
        <ele>788.9</ele>
        <time>2014-05-29T08:48:09Z</time>
      </trkpt>
      <trkpt lat="45.41813" lon="2.61524">
        <ele>789</ele>
        <time>2014-05-29T08:48:11Z</time>
      </trkpt>
      <trkpt lat="45.41813" lon="2.61532">
        <ele>789.3</ele>
        <time>2014-05-29T08:48:13Z</time>
      </trkpt>
      <trkpt lat="45.4181" lon="2.61544">
        <ele>789.5</ele>
        <time>2014-05-29T08:48:16Z</time>
      </trkpt>
      <trkpt lat="45.41808" lon="2.61553">
        <ele>789.7</ele>
        <time>2014-05-29T08:48:19Z</time>
      </trkpt>
      <trkpt lat="45.41808" lon="2.61564">
        <ele>791.3</ele>
        <time>2014-05-29T08:48:22Z</time>
      </trkpt>
      <trkpt lat="45.4181" lon="2.61571">
        <ele>791.3</ele>
        <time>2014-05-29T08:48:24Z</time>
      </trkpt>
      <trkpt lat="45.41814" lon="2.61581">
        <ele>791.7</ele>
        <time>2014-05-29T08:48:26Z</time>
      </trkpt>
      <trkpt lat="45.41816" lon="2.61587">
        <ele>791.9</ele>
        <time>2014-05-29T08:48:27Z</time>
      </trkpt>
      <trkpt lat="45.41819" lon="2.61593">
        <ele>792</ele>
        <time>2014-05-29T08:48:28Z</time>
      </trkpt>
      <trkpt lat="45.41822" lon="2.61599">
        <ele>792.1</ele>
        <time>2014-05-29T08:48:29Z</time>
      </trkpt>
      <trkpt lat="45.41824" lon="2.61604">
        <ele>791.9</ele>
        <time>2014-05-29T08:48:30Z</time>
      </trkpt>
      <trkpt lat="45.41826" lon="2.6161">
        <ele>791.8</ele>
        <time>2014-05-29T08:48:31Z</time>
      </trkpt>
      <trkpt lat="45.41827" lon="2.61617">
        <ele>791.3</ele>
        <time>2014-05-29T08:48:32Z</time>
      </trkpt>
      <trkpt lat="45.41826" lon="2.6163">
        <ele>790.7</ele>
        <time>2014-05-29T08:48:34Z</time>
      </trkpt>
      <trkpt lat="45.41823" lon="2.61641">
        <ele>790.8</ele>
        <time>2014-05-29T08:48:36Z</time>
      </trkpt>
      <trkpt lat="45.4182" lon="2.61653">
        <ele>790.8</ele>
        <time>2014-05-29T08:48:38Z</time>
      </trkpt>
      <trkpt lat="45.41818" lon="2.61659">
        <ele>791</ele>
        <time>2014-05-29T08:48:39Z</time>
      </trkpt>
      <trkpt lat="45.41817" lon="2.61665">
        <ele>791.2</ele>
        <time>2014-05-29T08:48:40Z</time>
      </trkpt>
      <trkpt lat="45.41815" lon="2.61671">
        <ele>791.3</ele>
        <time>2014-05-29T08:48:41Z</time>
      </trkpt>
      <trkpt lat="45.41814" lon="2.61677">
        <ele>791.7</ele>
        <time>2014-05-29T08:48:42Z</time>
      </trkpt>
      <trkpt lat="45.41811" lon="2.6169">
        <ele>792.1</ele>
        <time>2014-05-29T08:48:44Z</time>
      </trkpt>
      <trkpt lat="45.4181" lon="2.61696">
        <ele>792.1</ele>
        <time>2014-05-29T08:48:45Z</time>
      </trkpt>
      <trkpt lat="45.41806" lon="2.61713">
        <ele>792.5</ele>
        <time>2014-05-29T08:48:48Z</time>
      </trkpt>
      <trkpt lat="45.41803" lon="2.61725">
        <ele>793.1</ele>
        <time>2014-05-29T08:48:50Z</time>
      </trkpt>
      <trkpt lat="45.418" lon="2.61736">
        <ele>793.8</ele>
        <time>2014-05-29T08:48:52Z</time>
      </trkpt>
      <trkpt lat="45.41797" lon="2.61748">
        <ele>794.1</ele>
        <time>2014-05-29T08:48:54Z</time>
      </trkpt>
      <trkpt lat="45.41796" lon="2.61754">
        <ele>794.1</ele>
        <time>2014-05-29T08:48:55Z</time>
      </trkpt>
      <trkpt lat="45.41795" lon="2.6176">
        <ele>794.5</ele>
        <time>2014-05-29T08:48:56Z</time>
      </trkpt>
      <trkpt lat="45.41793" lon="2.61766">
        <ele>794.9</ele>
        <time>2014-05-29T08:48:57Z</time>
      </trkpt>
      <trkpt lat="45.41791" lon="2.61779">
        <ele>795</ele>
        <time>2014-05-29T08:48:59Z</time>
      </trkpt>
      <trkpt lat="45.41788" lon="2.6179">
        <ele>795.2</ele>
        <time>2014-05-29T08:49:01Z</time>
      </trkpt>
      <trkpt lat="45.41785" lon="2.61801">
        <ele>795.2</ele>
        <time>2014-05-29T08:49:03Z</time>
      </trkpt>
      <trkpt lat="45.41782" lon="2.61811">
        <ele>795.3</ele>
        <time>2014-05-29T08:49:05Z</time>
      </trkpt>
      <trkpt lat="45.41779" lon="2.61822">
        <ele>795.6</ele>
        <time>2014-05-29T08:49:07Z</time>
      </trkpt>
      <trkpt lat="45.41775" lon="2.61832">
        <ele>795.5</ele>
        <time>2014-05-29T08:49:09Z</time>
      </trkpt>
      <trkpt lat="45.41771" lon="2.61842">
        <ele>796.2</ele>
        <time>2014-05-29T08:49:11Z</time>
      </trkpt>
      <trkpt lat="45.41764" lon="2.61846">
        <ele>796.8</ele>
        <time>2014-05-29T08:49:13Z</time>
      </trkpt>
      <trkpt lat="45.41757" lon="2.61846">
        <ele>796.8</ele>
        <time>2014-05-29T08:49:15Z</time>
      </trkpt>
      <trkpt lat="45.4175" lon="2.61845">
        <ele>796.7</ele>
        <time>2014-05-29T08:49:17Z</time>
      </trkpt>
      <trkpt lat="45.41744" lon="2.61844">
        <ele>796.7</ele>
        <time>2014-05-29T08:49:19Z</time>
      </trkpt>
      <trkpt lat="45.41737" lon="2.61843">
        <ele>796.5</ele>
        <time>2014-05-29T08:49:21Z</time>
      </trkpt>
      <trkpt lat="45.4173" lon="2.61842">
        <ele>796.8</ele>
        <time>2014-05-29T08:49:23Z</time>
      </trkpt>
      <trkpt lat="45.41723" lon="2.61843">
        <ele>796.8</ele>
        <time>2014-05-29T08:49:25Z</time>
      </trkpt>
      <trkpt lat="45.41715" lon="2.61842">
        <ele>797</ele>
        <time>2014-05-29T08:49:27Z</time>
      </trkpt>
      <trkpt lat="45.41709" lon="2.61841">
        <ele>797.1</ele>
        <time>2014-05-29T08:49:29Z</time>
      </trkpt>
      <trkpt lat="45.41701" lon="2.61841">
        <ele>797.4</ele>
        <time>2014-05-29T08:49:32Z</time>
      </trkpt>
      <trkpt lat="45.41694" lon="2.6184">
        <ele>798.4</ele>
        <time>2014-05-29T08:49:35Z</time>
      </trkpt>
      <trkpt lat="45.41686" lon="2.61843">
        <ele>798.9</ele>
        <time>2014-05-29T08:49:38Z</time>
      </trkpt>
      <trkpt lat="45.41679" lon="2.61848">
        <ele>799.4</ele>
        <time>2014-05-29T08:49:41Z</time>
      </trkpt>
      <trkpt lat="45.41672" lon="2.61853">
        <ele>799.6</ele>
        <time>2014-05-29T08:49:44Z</time>
      </trkpt>
      <trkpt lat="45.41665" lon="2.61857">
        <ele>799.6</ele>
        <time>2014-05-29T08:49:47Z</time>
      </trkpt>
      <trkpt lat="45.41663" lon="2.61858">
        <ele>799.9</ele>
        <time>2014-05-29T08:49:48Z</time>
      </trkpt>
      <trkpt lat="45.4165" lon="2.61866">
        <ele>802.5</ele>
        <time>2014-05-29T08:49:56Z</time>
      </trkpt>
      <trkpt lat="45.41642" lon="2.61871">
        <ele>802.8</ele>
        <time>2014-05-29T08:50:00Z</time>
      </trkpt>
      <trkpt lat="45.41636" lon="2.61876">
        <ele>803</ele>
        <time>2014-05-29T08:50:04Z</time>
      </trkpt>
      <trkpt lat="45.41628" lon="2.6188">
        <ele>804.1</ele>
        <time>2014-05-29T08:50:09Z</time>
      </trkpt>
      <trkpt lat="45.4162" lon="2.61885">
        <ele>805</ele>
        <time>2014-05-29T08:50:14Z</time>
      </trkpt>
      <trkpt lat="45.41614" lon="2.61887">
        <ele>805.3</ele>
        <time>2014-05-29T08:50:17Z</time>
      </trkpt>
      <trkpt lat="45.41607" lon="2.61889">
        <ele>804.8</ele>
        <time>2014-05-29T08:50:19Z</time>
      </trkpt>
      <trkpt lat="45.416" lon="2.61892">
        <ele>804.6</ele>
        <time>2014-05-29T08:50:21Z</time>
      </trkpt>
      <trkpt lat="45.41596" lon="2.61894">
        <ele>804.5</ele>
        <time>2014-05-29T08:50:22Z</time>
      </trkpt>
      <trkpt lat="45.41591" lon="2.61897">
        <ele>804.4</ele>
        <time>2014-05-29T08:50:23Z</time>
      </trkpt>
      <trkpt lat="45.41586" lon="2.61901">
        <ele>804.3</ele>
        <time>2014-05-29T08:50:24Z</time>
      </trkpt>
      <trkpt lat="45.41582" lon="2.61906">
        <ele>804.1</ele>
        <time>2014-05-29T08:50:25Z</time>
      </trkpt>
      <trkpt lat="45.41578" lon="2.61913">
        <ele>803.9</ele>
        <time>2014-05-29T08:50:26Z</time>
      </trkpt>
      <trkpt lat="45.41574" lon="2.61919">
        <ele>803.8</ele>
        <time>2014-05-29T08:50:27Z</time>
      </trkpt>
      <trkpt lat="45.4157" lon="2.61925">
        <ele>803.5</ele>
        <time>2014-05-29T08:50:28Z</time>
      </trkpt>
      <trkpt lat="45.41565" lon="2.61929">
        <ele>803.2</ele>
        <time>2014-05-29T08:50:29Z</time>
      </trkpt>
      <trkpt lat="45.41558" lon="2.61928">
        <ele>803</ele>
        <time>2014-05-29T08:50:31Z</time>
      </trkpt>
      <trkpt lat="45.41552" lon="2.61922">
        <ele>802.6</ele>
        <time>2014-05-29T08:50:33Z</time>
      </trkpt>
      <trkpt lat="45.41546" lon="2.61919">
        <ele>802</ele>
        <time>2014-05-29T08:50:35Z</time>
      </trkpt>
      <trkpt lat="45.4154" lon="2.61918">
        <ele>802.9</ele>
        <time>2014-05-29T08:50:37Z</time>
      </trkpt>
      <trkpt lat="45.41532" lon="2.61916">
        <ele>802.6</ele>
        <time>2014-05-29T08:50:39Z</time>
      </trkpt>
      <trkpt lat="45.41528" lon="2.61914">
        <ele>802.6</ele>
        <time>2014-05-29T08:50:40Z</time>
      </trkpt>
      <trkpt lat="45.41523" lon="2.61913">
        <ele>802.6</ele>
        <time>2014-05-29T08:50:41Z</time>
      </trkpt>
      <trkpt lat="45.41516" lon="2.61911">
        <ele>802.7</ele>
        <time>2014-05-29T08:50:42Z</time>
      </trkpt>
      <trkpt lat="45.4151" lon="2.61909">
        <ele>801.7</ele>
        <time>2014-05-29T08:50:43Z</time>
      </trkpt>
      <trkpt lat="45.41502" lon="2.61908">
        <ele>801</ele>
        <time>2014-05-29T08:50:44Z</time>
      </trkpt>
      <trkpt lat="45.41496" lon="2.61907">
        <ele>799.9</ele>
        <time>2014-05-29T08:50:45Z</time>
      </trkpt>
      <trkpt lat="45.4149" lon="2.61908">
        <ele>799</ele>
        <time>2014-05-29T08:50:46Z</time>
      </trkpt>
      <trkpt lat="45.41484" lon="2.6191">
        <ele>798.1</ele>
        <time>2014-05-29T08:50:47Z</time>
      </trkpt>
      <trkpt lat="45.41477" lon="2.61913">
        <ele>797.3</ele>
        <time>2014-05-29T08:50:48Z</time>
      </trkpt>
      <trkpt lat="45.41471" lon="2.61918">
        <ele>796.8</ele>
        <time>2014-05-29T08:50:49Z</time>
      </trkpt>
      <trkpt lat="45.41465" lon="2.61922">
        <ele>796.2</ele>
        <time>2014-05-29T08:50:50Z</time>
      </trkpt>
      <trkpt lat="45.41459" lon="2.61927">
        <ele>795.8</ele>
        <time>2014-05-29T08:50:51Z</time>
      </trkpt>
      <trkpt lat="45.41454" lon="2.61931">
        <ele>794.8</ele>
        <time>2014-05-29T08:50:52Z</time>
      </trkpt>
      <trkpt lat="45.41448" lon="2.61935">
        <ele>794</ele>
        <time>2014-05-29T08:50:53Z</time>
      </trkpt>
      <trkpt lat="45.41443" lon="2.61937">
        <ele>793</ele>
        <time>2014-05-29T08:50:54Z</time>
      </trkpt>
      <trkpt lat="45.41438" lon="2.61938">
        <ele>792.3</ele>
        <time>2014-05-29T08:50:55Z</time>
      </trkpt>
      <trkpt lat="45.41432" lon="2.61938">
        <ele>791.7</ele>
        <time>2014-05-29T08:50:56Z</time>
      </trkpt>
      <trkpt lat="45.41425" lon="2.61937">
        <ele>790.4</ele>
        <time>2014-05-29T08:50:57Z</time>
      </trkpt>
      <trkpt lat="45.41418" lon="2.61937">
        <ele>789.4</ele>
        <time>2014-05-29T08:50:58Z</time>
      </trkpt>
      <trkpt lat="45.4141" lon="2.61936">
        <ele>788.5</ele>
        <time>2014-05-29T08:50:59Z</time>
      </trkpt>
      <trkpt lat="45.41402" lon="2.61934">
        <ele>787.8</ele>
        <time>2014-05-29T08:51:00Z</time>
      </trkpt>
      <trkpt lat="45.41394" lon="2.61932">
        <ele>787.3</ele>
        <time>2014-05-29T08:51:01Z</time>
      </trkpt>
      <trkpt lat="45.41387" lon="2.6193">
        <ele>786.1</ele>
        <time>2014-05-29T08:51:02Z</time>
      </trkpt>
      <trkpt lat="45.41381" lon="2.61926">
        <ele>785.2</ele>
        <time>2014-05-29T08:51:03Z</time>
      </trkpt>
      <trkpt lat="45.41375" lon="2.6192">
        <ele>784.7</ele>
        <time>2014-05-29T08:51:04Z</time>
      </trkpt>
      <trkpt lat="45.4137" lon="2.61914">
        <ele>784.3</ele>
        <time>2014-05-29T08:51:05Z</time>
      </trkpt>
      <trkpt lat="45.41363" lon="2.61907">
        <ele>783.1</ele>
        <time>2014-05-29T08:51:06Z</time>
      </trkpt>
      <trkpt lat="45.41358" lon="2.61901">
        <ele>782.2</ele>
        <time>2014-05-29T08:51:07Z</time>
      </trkpt>
      <trkpt lat="45.41354" lon="2.61895">
        <ele>781.6</ele>
        <time>2014-05-29T08:51:08Z</time>
      </trkpt>
      <trkpt lat="45.4135" lon="2.61891">
        <ele>780.1</ele>
        <time>2014-05-29T08:51:09Z</time>
      </trkpt>
      <trkpt lat="45.41341" lon="2.6189">
        <ele>778.1</ele>
        <time>2014-05-29T08:51:11Z</time>
      </trkpt>
      <trkpt lat="45.41335" lon="2.61896">
        <ele>776.5</ele>
        <time>2014-05-29T08:51:13Z</time>
      </trkpt>
      <trkpt lat="45.41331" lon="2.61899">
        <ele>775.8</ele>
        <time>2014-05-29T08:51:14Z</time>
      </trkpt>
      <trkpt lat="45.41327" lon="2.61903">
        <ele>775.2</ele>
        <time>2014-05-29T08:51:15Z</time>
      </trkpt>
      <trkpt lat="45.41323" lon="2.61908">
        <ele>774.1</ele>
        <time>2014-05-29T08:51:16Z</time>
      </trkpt>
      <trkpt lat="45.41317" lon="2.61916">
        <ele>773.3</ele>
        <time>2014-05-29T08:51:17Z</time>
      </trkpt>
      <trkpt lat="45.41312" lon="2.61923">
        <ele>773</ele>
        <time>2014-05-29T08:51:18Z</time>
      </trkpt>
      <trkpt lat="45.41307" lon="2.61928">
        <ele>772.7</ele>
        <time>2014-05-29T08:51:19Z</time>
      </trkpt>
      <trkpt lat="45.41299" lon="2.61933">
        <ele>771.6</ele>
        <time>2014-05-29T08:51:21Z</time>
      </trkpt>
      <trkpt lat="45.41292" lon="2.61936">
        <ele>770.1</ele>
        <time>2014-05-29T08:51:23Z</time>
      </trkpt>
      <trkpt lat="45.41283" lon="2.61937">
        <ele>769.7</ele>
        <time>2014-05-29T08:51:26Z</time>
      </trkpt>
      <trkpt lat="45.41277" lon="2.61938">
        <ele>769.6</ele>
        <time>2014-05-29T08:51:28Z</time>
      </trkpt>
      <trkpt lat="45.4127" lon="2.61938">
        <ele>769.4</ele>
        <time>2014-05-29T08:51:30Z</time>
      </trkpt>
      <trkpt lat="45.41262" lon="2.61941">
        <ele>768.7</ele>
        <time>2014-05-29T08:51:33Z</time>
      </trkpt>
      <trkpt lat="45.41254" lon="2.61946">
        <ele>769.2</ele>
        <time>2014-05-29T08:51:36Z</time>
      </trkpt>
      <trkpt lat="45.41248" lon="2.61953">
        <ele>769.6</ele>
        <time>2014-05-29T08:51:39Z</time>
      </trkpt>
      <trkpt lat="45.41242" lon="2.61962">
        <ele>769.3</ele>
        <time>2014-05-29T08:51:43Z</time>
      </trkpt>
      <trkpt lat="45.41237" lon="2.61972">
        <ele>768.7</ele>
        <time>2014-05-29T08:51:48Z</time>
      </trkpt>
      <trkpt lat="45.41233" lon="2.61981">
        <ele>768.5</ele>
        <time>2014-05-29T08:51:52Z</time>
      </trkpt>
      <trkpt lat="45.41232" lon="2.61983">
        <ele>768.5</ele>
        <time>2014-05-29T08:51:53Z</time>
      </trkpt>
      <trkpt lat="45.41227" lon="2.62002">
        <ele>769.4</ele>
        <time>2014-05-29T08:52:01Z</time>
      </trkpt>
      <trkpt lat="45.41223" lon="2.62012">
        <ele>770.1</ele>
        <time>2014-05-29T08:52:05Z</time>
      </trkpt>
      <trkpt lat="45.41221" lon="2.62022">
        <ele>769.7</ele>
        <time>2014-05-29T08:52:08Z</time>
      </trkpt>
      <trkpt lat="45.41218" lon="2.62033">
        <ele>770.3</ele>
        <time>2014-05-29T08:52:11Z</time>
      </trkpt>
      <trkpt lat="45.41217" lon="2.62041">
        <ele>770.3</ele>
        <time>2014-05-29T08:52:13Z</time>
      </trkpt>
      <trkpt lat="45.41216" lon="2.6205">
        <ele>770.1</ele>
        <time>2014-05-29T08:52:15Z</time>
      </trkpt>
      <trkpt lat="45.41214" lon="2.62061">
        <ele>770.2</ele>
        <time>2014-05-29T08:52:17Z</time>
      </trkpt>
      <trkpt lat="45.41213" lon="2.62071">
        <ele>770.4</ele>
        <time>2014-05-29T08:52:19Z</time>
      </trkpt>
      <trkpt lat="45.41209" lon="2.6208">
        <ele>770.7</ele>
        <time>2014-05-29T08:52:21Z</time>
      </trkpt>
      <trkpt lat="45.41205" lon="2.62089">
        <ele>770.8</ele>
        <time>2014-05-29T08:52:23Z</time>
      </trkpt>
      <trkpt lat="45.41202" lon="2.62097">
        <ele>771.3</ele>
        <time>2014-05-29T08:52:25Z</time>
      </trkpt>
      <trkpt lat="45.41199" lon="2.62105">
        <ele>771.5</ele>
        <time>2014-05-29T08:52:27Z</time>
      </trkpt>
      <trkpt lat="45.41195" lon="2.62113">
        <ele>771.4</ele>
        <time>2014-05-29T08:52:29Z</time>
      </trkpt>
      <trkpt lat="45.41191" lon="2.62121">
        <ele>771.5</ele>
        <time>2014-05-29T08:52:31Z</time>
      </trkpt>
      <trkpt lat="45.41187" lon="2.62129">
        <ele>770.9</ele>
        <time>2014-05-29T08:52:33Z</time>
      </trkpt>
      <trkpt lat="45.41182" lon="2.62135">
        <ele>771.7</ele>
        <time>2014-05-29T08:52:35Z</time>
      </trkpt>
      <trkpt lat="45.41179" lon="2.62142">
        <ele>772.2</ele>
        <time>2014-05-29T08:52:37Z</time>
      </trkpt>
      <trkpt lat="45.41172" lon="2.62149">
        <ele>773.1</ele>
        <time>2014-05-29T08:52:40Z</time>
      </trkpt>
      <trkpt lat="45.41166" lon="2.62154">
        <ele>774.1</ele>
        <time>2014-05-29T08:52:43Z</time>
      </trkpt>
      <trkpt lat="45.4116" lon="2.62162">
        <ele>774.9</ele>
        <time>2014-05-29T08:52:46Z</time>
      </trkpt>
      <trkpt lat="45.41155" lon="2.62172">
        <ele>774.8</ele>
        <time>2014-05-29T08:52:49Z</time>
      </trkpt>
      <trkpt lat="45.4115" lon="2.62181">
        <ele>774.8</ele>
        <time>2014-05-29T08:52:52Z</time>
      </trkpt>
      <trkpt lat="45.41144" lon="2.62189">
        <ele>775.5</ele>
        <time>2014-05-29T08:52:55Z</time>
      </trkpt>
      <trkpt lat="45.41142" lon="2.6219">
        <ele>775.7</ele>
        <time>2014-05-29T08:52:56Z</time>
      </trkpt>
      <trkpt lat="45.41132" lon="2.62201">
        <ele>776.1</ele>
        <time>2014-05-29T08:53:03Z</time>
      </trkpt>
      <trkpt lat="45.41128" lon="2.62212">
        <ele>778.7</ele>
        <time>2014-05-29T08:53:08Z</time>
      </trkpt>
      <trkpt lat="45.41125" lon="2.62222">
        <ele>779.8</ele>
        <time>2014-05-29T08:53:13Z</time>
      </trkpt>
      <trkpt lat="45.41123" lon="2.62232">
        <ele>780.4</ele>
        <time>2014-05-29T08:53:18Z</time>
      </trkpt>
      <trkpt lat="45.4112" lon="2.62244">
        <ele>782.5</ele>
        <time>2014-05-29T08:53:24Z</time>
      </trkpt>
      <trkpt lat="45.41118" lon="2.62255">
        <ele>783.9</ele>
        <time>2014-05-29T08:53:30Z</time>
      </trkpt>
      <trkpt lat="45.41115" lon="2.62267">
        <ele>785.4</ele>
        <time>2014-05-29T08:53:37Z</time>
      </trkpt>
      <trkpt lat="45.41113" lon="2.62278">
        <ele>785.4</ele>
        <time>2014-05-29T08:53:43Z</time>
      </trkpt>
      <trkpt lat="45.41111" lon="2.62289">
        <ele>785.8</ele>
        <time>2014-05-29T08:53:49Z</time>
      </trkpt>
      <trkpt lat="45.41106" lon="2.62297">
        <ele>787.9</ele>
        <time>2014-05-29T08:53:54Z</time>
      </trkpt>
      <trkpt lat="45.41101" lon="2.62306">
        <ele>788.8</ele>
        <time>2014-05-29T08:53:59Z</time>
      </trkpt>
      <trkpt lat="45.411" lon="2.62307">
        <ele>789.2</ele>
        <time>2014-05-29T08:54:00Z</time>
      </trkpt>
      <trkpt lat="45.41092" lon="2.62323">
        <ele>790.2</ele>
        <time>2014-05-29T08:54:09Z</time>
      </trkpt>
      <trkpt lat="45.41086" lon="2.62333">
        <ele>791.1</ele>
        <time>2014-05-29T08:54:15Z</time>
      </trkpt>
      <trkpt lat="45.41084" lon="2.62345">
        <ele>793</ele>
        <time>2014-05-29T08:54:21Z</time>
      </trkpt>
      <trkpt lat="45.4108" lon="2.62355">
        <ele>792.8</ele>
        <time>2014-05-29T08:54:26Z</time>
      </trkpt>
      <trkpt lat="45.41075" lon="2.62365">
        <ele>794</ele>
        <time>2014-05-29T08:54:31Z</time>
      </trkpt>
      <trkpt lat="45.41069" lon="2.62374">
        <ele>795</ele>
        <time>2014-05-29T08:54:36Z</time>
      </trkpt>
      <trkpt lat="45.41065" lon="2.62382">
        <ele>794.2</ele>
        <time>2014-05-29T08:54:40Z</time>
      </trkpt>
      <trkpt lat="45.4106" lon="2.62392">
        <ele>794.7</ele>
        <time>2014-05-29T08:54:44Z</time>
      </trkpt>
      <trkpt lat="45.41055" lon="2.624">
        <ele>796.4</ele>
        <time>2014-05-29T08:54:48Z</time>
      </trkpt>
      <trkpt lat="45.4105" lon="2.62407">
        <ele>797.1</ele>
        <time>2014-05-29T08:54:51Z</time>
      </trkpt>
      <trkpt lat="45.41043" lon="2.62413">
        <ele>797.2</ele>
        <time>2014-05-29T08:54:54Z</time>
      </trkpt>
      <trkpt lat="45.41039" lon="2.62418">
        <ele>797.1</ele>
        <time>2014-05-29T08:54:56Z</time>
      </trkpt>
      <trkpt lat="45.41032" lon="2.62426">
        <ele>797.4</ele>
        <time>2014-05-29T08:54:58Z</time>
      </trkpt>
      <trkpt lat="45.41027" lon="2.62433">
        <ele>797</ele>
        <time>2014-05-29T08:55:00Z</time>
      </trkpt>
      <trkpt lat="45.41025" lon="2.62437">
        <ele>796.4</ele>
        <time>2014-05-29T08:55:01Z</time>
      </trkpt>
      <trkpt lat="45.41016" lon="2.62448">
        <ele>796.3</ele>
        <time>2014-05-29T08:55:05Z</time>
      </trkpt>
      <trkpt lat="45.41009" lon="2.62456">
        <ele>796.8</ele>
        <time>2014-05-29T08:55:08Z</time>
      </trkpt>
      <trkpt lat="45.41003" lon="2.62462">
        <ele>797.1</ele>
        <time>2014-05-29T08:55:11Z</time>
      </trkpt>
      <trkpt lat="45.40995" lon="2.62467">
        <ele>798.7</ele>
        <time>2014-05-29T08:55:15Z</time>
      </trkpt>
      <trkpt lat="45.40988" lon="2.62471">
        <ele>799.1</ele>
        <time>2014-05-29T08:55:19Z</time>
      </trkpt>
      <trkpt lat="45.40981" lon="2.62475">
        <ele>798.7</ele>
        <time>2014-05-29T08:55:24Z</time>
      </trkpt>
      <trkpt lat="45.40974" lon="2.62482">
        <ele>800.5</ele>
        <time>2014-05-29T08:55:30Z</time>
      </trkpt>
      <trkpt lat="45.40966" lon="2.62487">
        <ele>801.5</ele>
        <time>2014-05-29T08:55:35Z</time>
      </trkpt>
      <trkpt lat="45.40959" lon="2.62494">
        <ele>802.6</ele>
        <time>2014-05-29T08:55:40Z</time>
      </trkpt>
      <trkpt lat="45.40954" lon="2.62502">
        <ele>804</ele>
        <time>2014-05-29T08:55:45Z</time>
      </trkpt>
      <trkpt lat="45.4095" lon="2.62512">
        <ele>804.6</ele>
        <time>2014-05-29T08:55:50Z</time>
      </trkpt>
      <trkpt lat="45.40947" lon="2.62522">
        <ele>805.4</ele>
        <time>2014-05-29T08:55:55Z</time>
      </trkpt>
      <trkpt lat="45.40944" lon="2.62532">
        <ele>806.2</ele>
        <time>2014-05-29T08:56:00Z</time>
      </trkpt>
      <trkpt lat="45.4094" lon="2.62544">
        <ele>807.6</ele>
        <time>2014-05-29T08:56:06Z</time>
      </trkpt>
      <trkpt lat="45.4094" lon="2.62546">
        <ele>807.8</ele>
        <time>2014-05-29T08:56:07Z</time>
      </trkpt>
      <trkpt lat="45.40937" lon="2.62568">
        <ele>810.5</ele>
        <time>2014-05-29T08:56:19Z</time>
      </trkpt>
      <trkpt lat="45.40935" lon="2.62581">
        <ele>812.2</ele>
        <time>2014-05-29T08:56:27Z</time>
      </trkpt>
      <trkpt lat="45.40931" lon="2.62592">
        <ele>813.2</ele>
        <time>2014-05-29T08:56:34Z</time>
      </trkpt>
      <trkpt lat="45.40927" lon="2.62603">
        <ele>814.6</ele>
        <time>2014-05-29T08:56:40Z</time>
      </trkpt>
      <trkpt lat="45.40925" lon="2.62614">
        <ele>815.9</ele>
        <time>2014-05-29T08:56:46Z</time>
      </trkpt>
      <trkpt lat="45.40923" lon="2.62625">
        <ele>816.6</ele>
        <time>2014-05-29T08:56:52Z</time>
      </trkpt>
      <trkpt lat="45.40924" lon="2.62637">
        <ele>818.4</ele>
        <time>2014-05-29T08:56:59Z</time>
      </trkpt>
      <trkpt lat="45.40926" lon="2.62649">
        <ele>819.4</ele>
        <time>2014-05-29T08:57:05Z</time>
      </trkpt>
      <trkpt lat="45.40929" lon="2.62661">
        <ele>819.5</ele>
        <time>2014-05-29T08:57:11Z</time>
      </trkpt>
      <trkpt lat="45.40929" lon="2.62663">
        <ele>819.6</ele>
        <time>2014-05-29T08:57:12Z</time>
      </trkpt>
      <trkpt lat="45.40931" lon="2.62685">
        <ele>821</ele>
        <time>2014-05-29T08:57:23Z</time>
      </trkpt>
      <trkpt lat="45.4093" lon="2.62697">
        <ele>822.6</ele>
        <time>2014-05-29T08:57:28Z</time>
      </trkpt>
      <trkpt lat="45.40928" lon="2.62708">
        <ele>824.2</ele>
        <time>2014-05-29T08:57:33Z</time>
      </trkpt>
      <trkpt lat="45.40926" lon="2.62719">
        <ele>823.8</ele>
        <time>2014-05-29T08:57:37Z</time>
      </trkpt>
      <trkpt lat="45.40924" lon="2.6273">
        <ele>824.5</ele>
        <time>2014-05-29T08:57:40Z</time>
      </trkpt>
      <trkpt lat="45.40922" lon="2.62738">
        <ele>825</ele>
        <time>2014-05-29T08:57:42Z</time>
      </trkpt>
      <trkpt lat="45.4092" lon="2.62748">
        <ele>824.6</ele>
        <time>2014-05-29T08:57:44Z</time>
      </trkpt>
      <trkpt lat="45.40918" lon="2.62756">
        <ele>824</ele>
        <time>2014-05-29T08:57:46Z</time>
      </trkpt>
      <trkpt lat="45.40915" lon="2.62765">
        <ele>823.6</ele>
        <time>2014-05-29T08:57:48Z</time>
      </trkpt>
      <trkpt lat="45.40909" lon="2.62773">
        <ele>823.7</ele>
        <time>2014-05-29T08:57:51Z</time>
      </trkpt>
      <trkpt lat="45.40903" lon="2.6278">
        <ele>824</ele>
        <time>2014-05-29T08:57:54Z</time>
      </trkpt>
      <trkpt lat="45.40896" lon="2.62787">
        <ele>824.3</ele>
        <time>2014-05-29T08:57:57Z</time>
      </trkpt>
      <trkpt lat="45.40891" lon="2.62792">
        <ele>824.2</ele>
        <time>2014-05-29T08:57:59Z</time>
      </trkpt>
      <trkpt lat="45.40885" lon="2.62797">
        <ele>824</ele>
        <time>2014-05-29T08:58:01Z</time>
      </trkpt>
      <trkpt lat="45.40879" lon="2.62801">
        <ele>824.2</ele>
        <time>2014-05-29T08:58:03Z</time>
      </trkpt>
      <trkpt lat="45.40873" lon="2.62808">
        <ele>824.9</ele>
        <time>2014-05-29T08:58:06Z</time>
      </trkpt>
      <trkpt lat="45.40867" lon="2.62811">
        <ele>824.8</ele>
        <time>2014-05-29T08:58:08Z</time>
      </trkpt>
      <trkpt lat="45.40859" lon="2.62817">
        <ele>825.7</ele>
        <time>2014-05-29T08:58:11Z</time>
      </trkpt>
      <trkpt lat="45.40852" lon="2.62823">
        <ele>826.1</ele>
        <time>2014-05-29T08:58:14Z</time>
      </trkpt>
      <trkpt lat="45.4085" lon="2.62826">
        <ele>826</ele>
        <time>2014-05-29T08:58:15Z</time>
      </trkpt>
      <trkpt lat="45.40843" lon="2.6284">
        <ele>826.6</ele>
        <time>2014-05-29T08:58:21Z</time>
      </trkpt>
      <trkpt lat="45.40837" lon="2.62847">
        <ele>826.8</ele>
        <time>2014-05-29T08:58:24Z</time>
      </trkpt>
      <trkpt lat="45.40834" lon="2.62859">
        <ele>827.1</ele>
        <time>2014-05-29T08:58:39Z</time>
      </trkpt>
      <trkpt lat="45.40836" lon="2.62871">
        <ele>826.6</ele>
        <time>2014-05-29T09:00:51Z</time>
      </trkpt>
      <trkpt lat="45.40836" lon="2.62872">
        <ele>826.5</ele>
        <time>2014-05-29T09:00:52Z</time>
      </trkpt>
      <trkpt lat="45.40827" lon="2.62871">
        <ele>826.4</ele>
        <time>2014-05-29T09:04:58Z</time>
      </trkpt>
      <trkpt lat="45.40843" lon="2.62865">
        <ele>826.8</ele>
        <time>2014-05-29T09:05:11Z</time>
      </trkpt>
      <trkpt lat="45.4085" lon="2.62867">
        <ele>826.8</ele>
        <time>2014-05-29T09:05:14Z</time>
      </trkpt>
      <trkpt lat="45.40857" lon="2.62871">
        <ele>827.1</ele>
        <time>2014-05-29T09:05:18Z</time>
      </trkpt>
      <trkpt lat="45.40862" lon="2.6288">
        <ele>827.8</ele>
        <time>2014-05-29T09:05:23Z</time>
      </trkpt>
      <trkpt lat="45.40862" lon="2.62891">
        <ele>829.8</ele>
        <time>2014-05-29T09:05:29Z</time>
      </trkpt>
      <trkpt lat="45.4086" lon="2.62901">
        <ele>830.1</ele>
        <time>2014-05-29T09:05:34Z</time>
      </trkpt>
      <trkpt lat="45.40859" lon="2.62913">
        <ele>830.5</ele>
        <time>2014-05-29T09:05:39Z</time>
      </trkpt>
      <trkpt lat="45.40856" lon="2.62925">
        <ele>831.7</ele>
        <time>2014-05-29T09:05:44Z</time>
      </trkpt>
      <trkpt lat="45.40852" lon="2.62933">
        <ele>832.4</ele>
        <time>2014-05-29T09:05:47Z</time>
      </trkpt>
      <trkpt lat="45.40848" lon="2.62941">
        <ele>832.3</ele>
        <time>2014-05-29T09:05:50Z</time>
      </trkpt>
      <trkpt lat="45.40843" lon="2.62949">
        <ele>832.9</ele>
        <time>2014-05-29T09:05:53Z</time>
      </trkpt>
      <trkpt lat="45.40839" lon="2.62956">
        <ele>832.8</ele>
        <time>2014-05-29T09:05:56Z</time>
      </trkpt>
      <trkpt lat="45.40834" lon="2.62967">
        <ele>833.7</ele>
        <time>2014-05-29T09:06:00Z</time>
      </trkpt>
      <trkpt lat="45.40833" lon="2.6297">
        <ele>834.2</ele>
        <time>2014-05-29T09:06:01Z</time>
      </trkpt>
      <trkpt lat="45.40829" lon="2.62987">
        <ele>835.7</ele>
        <time>2014-05-29T09:06:07Z</time>
      </trkpt>
      <trkpt lat="45.40827" lon="2.62997">
        <ele>835.7</ele>
        <time>2014-05-29T09:06:10Z</time>
      </trkpt>
      <trkpt lat="45.40826" lon="2.63009">
        <ele>835.8</ele>
        <time>2014-05-29T09:06:13Z</time>
      </trkpt>
      <trkpt lat="45.4082" lon="2.63018">
        <ele>836.6</ele>
        <time>2014-05-29T09:06:17Z</time>
      </trkpt>
      <trkpt lat="45.40813" lon="2.63014">
        <ele>837</ele>
        <time>2014-05-29T09:06:21Z</time>
      </trkpt>
      <trkpt lat="45.40807" lon="2.63008">
        <ele>837.4</ele>
        <time>2014-05-29T09:06:25Z</time>
      </trkpt>
      <trkpt lat="45.40801" lon="2.63">
        <ele>837.3</ele>
        <time>2014-05-29T09:06:29Z</time>
      </trkpt>
      <trkpt lat="45.40798" lon="2.62989">
        <ele>837.3</ele>
        <time>2014-05-29T09:06:34Z</time>
      </trkpt>
      <trkpt lat="45.40791" lon="2.62987">
        <ele>836.8</ele>
        <time>2014-05-29T09:06:37Z</time>
      </trkpt>
      <trkpt lat="45.40786" lon="2.62995">
        <ele>836.5</ele>
        <time>2014-05-29T09:06:39Z</time>
      </trkpt>
      <trkpt lat="45.40781" lon="2.63004">
        <ele>835.5</ele>
        <time>2014-05-29T09:06:41Z</time>
      </trkpt>
      <trkpt lat="45.40779" lon="2.63014">
        <ele>834.3</ele>
        <time>2014-05-29T09:06:43Z</time>
      </trkpt>
      <trkpt lat="45.40776" lon="2.63022">
        <ele>832.8</ele>
        <time>2014-05-29T09:06:45Z</time>
      </trkpt>
      <trkpt lat="45.40771" lon="2.63032">
        <ele>830.4</ele>
        <time>2014-05-29T09:06:47Z</time>
      </trkpt>
      <trkpt lat="45.40765" lon="2.63041">
        <ele>828.9</ele>
        <time>2014-05-29T09:06:49Z</time>
      </trkpt>
      <trkpt lat="45.40761" lon="2.63044">
        <ele>828.4</ele>
        <time>2014-05-29T09:06:50Z</time>
      </trkpt>
      <trkpt lat="45.40758" lon="2.63048">
        <ele>827.6</ele>
        <time>2014-05-29T09:06:51Z</time>
      </trkpt>
      <trkpt lat="45.40753" lon="2.63051">
        <ele>826.9</ele>
        <time>2014-05-29T09:06:52Z</time>
      </trkpt>
      <trkpt lat="45.40749" lon="2.63052">
        <ele>825.9</ele>
        <time>2014-05-29T09:06:53Z</time>
      </trkpt>
      <trkpt lat="45.4074" lon="2.63053">
        <ele>824.6</ele>
        <time>2014-05-29T09:06:55Z</time>
      </trkpt>
      <trkpt lat="45.40735" lon="2.63051">
        <ele>823.8</ele>
        <time>2014-05-29T09:06:56Z</time>
      </trkpt>
      <trkpt lat="45.40726" lon="2.63049">
        <ele>822.2</ele>
        <time>2014-05-29T09:06:58Z</time>
      </trkpt>
      <trkpt lat="45.40722" lon="2.63047">
        <ele>821.5</ele>
        <time>2014-05-29T09:06:59Z</time>
      </trkpt>
      <trkpt lat="45.40717" lon="2.63045">
        <ele>821</ele>
        <time>2014-05-29T09:07:00Z</time>
      </trkpt>
      <trkpt lat="45.40713" lon="2.63044">
        <ele>820.6</ele>
        <time>2014-05-29T09:07:01Z</time>
      </trkpt>
      <trkpt lat="45.40708" lon="2.63045">
        <ele>820.4</ele>
        <time>2014-05-29T09:07:02Z</time>
      </trkpt>
      <trkpt lat="45.40703" lon="2.63047">
        <ele>819.7</ele>
        <time>2014-05-29T09:07:03Z</time>
      </trkpt>
      <trkpt lat="45.40698" lon="2.63051">
        <ele>819.1</ele>
        <time>2014-05-29T09:07:04Z</time>
      </trkpt>
      <trkpt lat="45.40693" lon="2.63054">
        <ele>818.3</ele>
        <time>2014-05-29T09:07:05Z</time>
      </trkpt>
      <trkpt lat="45.40688" lon="2.63055">
        <ele>817.7</ele>
        <time>2014-05-29T09:07:06Z</time>
      </trkpt>
      <trkpt lat="45.40682" lon="2.63056">
        <ele>817.3</ele>
        <time>2014-05-29T09:07:07Z</time>
      </trkpt>
      <trkpt lat="45.40677" lon="2.63055">
        <ele>817</ele>
        <time>2014-05-29T09:07:08Z</time>
      </trkpt>
      <trkpt lat="45.40671" lon="2.63053">
        <ele>816.7</ele>
        <time>2014-05-29T09:07:09Z</time>
      </trkpt>
      <trkpt lat="45.40667" lon="2.63052">
        <ele>816.4</ele>
        <time>2014-05-29T09:07:10Z</time>
      </trkpt>
      <trkpt lat="45.40658" lon="2.6305">
        <ele>816</ele>
        <time>2014-05-29T09:07:12Z</time>
      </trkpt>
      <trkpt lat="45.4065" lon="2.6305">
        <ele>815.9</ele>
        <time>2014-05-29T09:07:14Z</time>
      </trkpt>
      <trkpt lat="45.40642" lon="2.63053">
        <ele>815.6</ele>
        <time>2014-05-29T09:07:16Z</time>
      </trkpt>
      <trkpt lat="45.40635" lon="2.63057">
        <ele>815.7</ele>
        <time>2014-05-29T09:07:18Z</time>
      </trkpt>
      <trkpt lat="45.40628" lon="2.63063">
        <ele>815.6</ele>
        <time>2014-05-29T09:07:20Z</time>
      </trkpt>
      <trkpt lat="45.40622" lon="2.6307">
        <ele>815.8</ele>
        <time>2014-05-29T09:07:22Z</time>
      </trkpt>
      <trkpt lat="45.40616" lon="2.63078">
        <ele>816</ele>
        <time>2014-05-29T09:07:24Z</time>
      </trkpt>
      <trkpt lat="45.40609" lon="2.63085">
        <ele>816.4</ele>
        <time>2014-05-29T09:07:26Z</time>
      </trkpt>
      <trkpt lat="45.40605" lon="2.63087">
        <ele>816.7</ele>
        <time>2014-05-29T09:07:27Z</time>
      </trkpt>
      <trkpt lat="45.406" lon="2.6309">
        <ele>816.9</ele>
        <time>2014-05-29T09:07:28Z</time>
      </trkpt>
      <trkpt lat="45.40595" lon="2.63093">
        <ele>817.2</ele>
        <time>2014-05-29T09:07:29Z</time>
      </trkpt>
      <trkpt lat="45.40589" lon="2.63097">
        <ele>817.5</ele>
        <time>2014-05-29T09:07:30Z</time>
      </trkpt>
      <trkpt lat="45.40584" lon="2.63102">
        <ele>817.2</ele>
        <time>2014-05-29T09:07:31Z</time>
      </trkpt>
      <trkpt lat="45.40581" lon="2.63108">
        <ele>817</ele>
        <time>2014-05-29T09:07:32Z</time>
      </trkpt>
      <trkpt lat="45.4058" lon="2.63116">
        <ele>816.8</ele>
        <time>2014-05-29T09:07:33Z</time>
      </trkpt>
      <trkpt lat="45.40581" lon="2.63125">
        <ele>816.3</ele>
        <time>2014-05-29T09:07:34Z</time>
      </trkpt>
      <trkpt lat="45.40582" lon="2.63133">
        <ele>816</ele>
        <time>2014-05-29T09:07:35Z</time>
      </trkpt>
      <trkpt lat="45.40583" lon="2.63142">
        <ele>816</ele>
        <time>2014-05-29T09:07:36Z</time>
      </trkpt>
      <trkpt lat="45.40584" lon="2.6315">
        <ele>816</ele>
        <time>2014-05-29T09:07:37Z</time>
      </trkpt>
      <trkpt lat="45.40585" lon="2.6316">
        <ele>815.8</ele>
        <time>2014-05-29T09:07:38Z</time>
      </trkpt>
      <trkpt lat="45.40586" lon="2.63169">
        <ele>815.6</ele>
        <time>2014-05-29T09:07:39Z</time>
      </trkpt>
      <trkpt lat="45.40588" lon="2.63178">
        <ele>815.5</ele>
        <time>2014-05-29T09:07:40Z</time>
      </trkpt>
      <trkpt lat="45.4059" lon="2.63188">
        <ele>815.2</ele>
        <time>2014-05-29T09:07:41Z</time>
      </trkpt>
      <trkpt lat="45.40592" lon="2.63196">
        <ele>815.1</ele>
        <time>2014-05-29T09:07:42Z</time>
      </trkpt>
      <trkpt lat="45.40595" lon="2.63204">
        <ele>815</ele>
        <time>2014-05-29T09:07:43Z</time>
      </trkpt>
      <trkpt lat="45.40597" lon="2.63213">
        <ele>815</ele>
        <time>2014-05-29T09:07:44Z</time>
      </trkpt>
      <trkpt lat="45.406" lon="2.63221">
        <ele>815.1</ele>
        <time>2014-05-29T09:07:45Z</time>
      </trkpt>
      <trkpt lat="45.40602" lon="2.63229">
        <ele>815.1</ele>
        <time>2014-05-29T09:07:46Z</time>
      </trkpt>
      <trkpt lat="45.40603" lon="2.63238">
        <ele>815.2</ele>
        <time>2014-05-29T09:07:47Z</time>
      </trkpt>
      <trkpt lat="45.40604" lon="2.63247">
        <ele>815.1</ele>
        <time>2014-05-29T09:07:48Z</time>
      </trkpt>
      <trkpt lat="45.40605" lon="2.63256">
        <ele>815</ele>
        <time>2014-05-29T09:07:49Z</time>
      </trkpt>
      <trkpt lat="45.40604" lon="2.63265">
        <ele>815.3</ele>
        <time>2014-05-29T09:07:50Z</time>
      </trkpt>
      <trkpt lat="45.40604" lon="2.63273">
        <ele>815.5</ele>
        <time>2014-05-29T09:07:51Z</time>
      </trkpt>
      <trkpt lat="45.40604" lon="2.63281">
        <ele>815.6</ele>
        <time>2014-05-29T09:07:52Z</time>
      </trkpt>
      <trkpt lat="45.40605" lon="2.63288">
        <ele>815.7</ele>
        <time>2014-05-29T09:07:53Z</time>
      </trkpt>
      <trkpt lat="45.40607" lon="2.63295">
        <ele>815.8</ele>
        <time>2014-05-29T09:07:54Z</time>
      </trkpt>
      <trkpt lat="45.40609" lon="2.63302">
        <ele>816.1</ele>
        <time>2014-05-29T09:07:55Z</time>
      </trkpt>
      <trkpt lat="45.40611" lon="2.6331">
        <ele>816.3</ele>
        <time>2014-05-29T09:07:56Z</time>
      </trkpt>
      <trkpt lat="45.40612" lon="2.63319">
        <ele>816.4</ele>
        <time>2014-05-29T09:07:57Z</time>
      </trkpt>
      <trkpt lat="45.40612" lon="2.63329">
        <ele>816.6</ele>
        <time>2014-05-29T09:07:58Z</time>
      </trkpt>
      <trkpt lat="45.40611" lon="2.6334">
        <ele>816.6</ele>
        <time>2014-05-29T09:07:59Z</time>
      </trkpt>
      <trkpt lat="45.40609" lon="2.63353">
        <ele>816.1</ele>
        <time>2014-05-29T09:08:00Z</time>
      </trkpt>
      <trkpt lat="45.40605" lon="2.63366">
        <ele>815.8</ele>
        <time>2014-05-29T09:08:01Z</time>
      </trkpt>
      <trkpt lat="45.40599" lon="2.6338">
        <ele>814.9</ele>
        <time>2014-05-29T09:08:02Z</time>
      </trkpt>
      <trkpt lat="45.40591" lon="2.63392">
        <ele>814.3</ele>
        <time>2014-05-29T09:08:03Z</time>
      </trkpt>
      <trkpt lat="45.40583" lon="2.63405">
        <ele>813.1</ele>
        <time>2014-05-29T09:08:04Z</time>
      </trkpt>
      <trkpt lat="45.40576" lon="2.63418">
        <ele>812.2</ele>
        <time>2014-05-29T09:08:05Z</time>
      </trkpt>
      <trkpt lat="45.40568" lon="2.63431">
        <ele>811.5</ele>
        <time>2014-05-29T09:08:06Z</time>
      </trkpt>
      <trkpt lat="45.40561" lon="2.63444">
        <ele>809.9</ele>
        <time>2014-05-29T09:08:07Z</time>
      </trkpt>
      <trkpt lat="45.40556" lon="2.63457">
        <ele>808.7</ele>
        <time>2014-05-29T09:08:08Z</time>
      </trkpt>
      <trkpt lat="45.40552" lon="2.63473">
        <ele>807.4</ele>
        <time>2014-05-29T09:08:09Z</time>
      </trkpt>
      <trkpt lat="45.4055" lon="2.63489">
        <ele>806.4</ele>
        <time>2014-05-29T09:08:10Z</time>
      </trkpt>
      <trkpt lat="45.40548" lon="2.63506">
        <ele>805.6</ele>
        <time>2014-05-29T09:08:11Z</time>
      </trkpt>
      <trkpt lat="45.40547" lon="2.63523">
        <ele>805</ele>
        <time>2014-05-29T09:08:12Z</time>
      </trkpt>
      <trkpt lat="45.40546" lon="2.6354">
        <ele>804.5</ele>
        <time>2014-05-29T09:08:13Z</time>
      </trkpt>
      <trkpt lat="45.40544" lon="2.63554">
        <ele>803.8</ele>
        <time>2014-05-29T09:08:14Z</time>
      </trkpt>
      <trkpt lat="45.40542" lon="2.63565">
        <ele>803.3</ele>
        <time>2014-05-29T09:08:15Z</time>
      </trkpt>
      <trkpt lat="45.40539" lon="2.63575">
        <ele>802.8</ele>
        <time>2014-05-29T09:08:16Z</time>
      </trkpt>
      <trkpt lat="45.40535" lon="2.63583">
        <ele>802.4</ele>
        <time>2014-05-29T09:08:17Z</time>
      </trkpt>
      <trkpt lat="45.4053" lon="2.63592">
        <ele>802.1</ele>
        <time>2014-05-29T09:08:18Z</time>
      </trkpt>
      <trkpt lat="45.40525" lon="2.63601">
        <ele>801.9</ele>
        <time>2014-05-29T09:08:19Z</time>
      </trkpt>
      <trkpt lat="45.4052" lon="2.6361">
        <ele>801.7</ele>
        <time>2014-05-29T09:08:20Z</time>
      </trkpt>
      <trkpt lat="45.40516" lon="2.6362">
        <ele>801.4</ele>
        <time>2014-05-29T09:08:21Z</time>
      </trkpt>
      <trkpt lat="45.40512" lon="2.6363">
        <ele>801.2</ele>
        <time>2014-05-29T09:08:22Z</time>
      </trkpt>
      <trkpt lat="45.4051" lon="2.63639">
        <ele>801.4</ele>
        <time>2014-05-29T09:08:23Z</time>
      </trkpt>
      <trkpt lat="45.40507" lon="2.63647">
        <ele>801.6</ele>
        <time>2014-05-29T09:08:24Z</time>
      </trkpt>
      <trkpt lat="45.40505" lon="2.63654">
        <ele>801.7</ele>
        <time>2014-05-29T09:08:25Z</time>
      </trkpt>
      <trkpt lat="45.40502" lon="2.63664">
        <ele>801.3</ele>
        <time>2014-05-29T09:08:27Z</time>
      </trkpt>
      <trkpt lat="45.40503" lon="2.63677">
        <ele>801.1</ele>
        <time>2014-05-29T09:08:30Z</time>
      </trkpt>
      <trkpt lat="45.40507" lon="2.63687">
        <ele>801.7</ele>
        <time>2014-05-29T09:08:35Z</time>
      </trkpt>
      <trkpt lat="45.40513" lon="2.63696">
        <ele>803</ele>
        <time>2014-05-29T09:08:40Z</time>
      </trkpt>
      <trkpt lat="45.40518" lon="2.63705">
        <ele>804.5</ele>
        <time>2014-05-29T09:08:43Z</time>
      </trkpt>
      <trkpt lat="45.40524" lon="2.63712">
        <ele>805</ele>
        <time>2014-05-29T09:08:46Z</time>
      </trkpt>
      <trkpt lat="45.40531" lon="2.63719">
        <ele>805.6</ele>
        <time>2014-05-29T09:08:49Z</time>
      </trkpt>
      <trkpt lat="45.40537" lon="2.63727">
        <ele>805.8</ele>
        <time>2014-05-29T09:08:52Z</time>
      </trkpt>
      <trkpt lat="45.40543" lon="2.63736">
        <ele>805.9</ele>
        <time>2014-05-29T09:08:55Z</time>
      </trkpt>
      <trkpt lat="45.40548" lon="2.63743">
        <ele>805.5</ele>
        <time>2014-05-29T09:08:57Z</time>
      </trkpt>
      <trkpt lat="45.40552" lon="2.63751">
        <ele>805.1</ele>
        <time>2014-05-29T09:08:59Z</time>
      </trkpt>
      <trkpt lat="45.40558" lon="2.63758">
        <ele>805.1</ele>
        <time>2014-05-29T09:09:01Z</time>
      </trkpt>
      <trkpt lat="45.40563" lon="2.63765">
        <ele>805.3</ele>
        <time>2014-05-29T09:09:03Z</time>
      </trkpt>
      <trkpt lat="45.40568" lon="2.6377">
        <ele>806.3</ele>
        <time>2014-05-29T09:09:05Z</time>
      </trkpt>
      <trkpt lat="45.40576" lon="2.63775">
        <ele>806.4</ele>
        <time>2014-05-29T09:09:08Z</time>
      </trkpt>
      <trkpt lat="45.40578" lon="2.63777">
        <ele>806.8</ele>
        <time>2014-05-29T09:09:09Z</time>
      </trkpt>
      <trkpt lat="45.40591" lon="2.63784">
        <ele>807.8</ele>
        <time>2014-05-29T09:09:14Z</time>
      </trkpt>
      <trkpt lat="45.40596" lon="2.63786">
        <ele>807.9</ele>
        <time>2014-05-29T09:09:16Z</time>
      </trkpt>
      <trkpt lat="45.40603" lon="2.63789">
        <ele>808.2</ele>
        <time>2014-05-29T09:09:18Z</time>
      </trkpt>
      <trkpt lat="45.40608" lon="2.63793">
        <ele>808.3</ele>
        <time>2014-05-29T09:09:20Z</time>
      </trkpt>
      <trkpt lat="45.40614" lon="2.63796">
        <ele>808.1</ele>
        <time>2014-05-29T09:09:22Z</time>
      </trkpt>
      <trkpt lat="45.40622" lon="2.638">
        <ele>809</ele>
        <time>2014-05-29T09:09:25Z</time>
      </trkpt>
      <trkpt lat="45.40627" lon="2.63808">
        <ele>809.7</ele>
        <time>2014-05-29T09:09:29Z</time>
      </trkpt>
      <trkpt lat="45.40633" lon="2.63817">
        <ele>810.7</ele>
        <time>2014-05-29T09:09:34Z</time>
      </trkpt>
      <trkpt lat="45.40637" lon="2.63826">
        <ele>811.7</ele>
        <time>2014-05-29T09:09:38Z</time>
      </trkpt>
      <trkpt lat="45.4064" lon="2.63836">
        <ele>812.8</ele>
        <time>2014-05-29T09:09:42Z</time>
      </trkpt>
      <trkpt lat="45.40644" lon="2.63847">
        <ele>813.6</ele>
        <time>2014-05-29T09:09:46Z</time>
      </trkpt>
      <trkpt lat="45.40649" lon="2.63855">
        <ele>814</ele>
        <time>2014-05-29T09:09:50Z</time>
      </trkpt>
      <trkpt lat="45.40656" lon="2.6386">
        <ele>813.7</ele>
        <time>2014-05-29T09:09:53Z</time>
      </trkpt>
      <trkpt lat="45.40663" lon="2.63861">
        <ele>813.5</ele>
        <time>2014-05-29T09:09:55Z</time>
      </trkpt>
      <trkpt lat="45.4067" lon="2.63864">
        <ele>813.8</ele>
        <time>2014-05-29T09:09:57Z</time>
      </trkpt>
      <trkpt lat="45.40677" lon="2.63865">
        <ele>813.2</ele>
        <time>2014-05-29T09:09:59Z</time>
      </trkpt>
      <trkpt lat="45.40684" lon="2.63866">
        <ele>813.4</ele>
        <time>2014-05-29T09:10:02Z</time>
      </trkpt>
      <trkpt lat="45.40691" lon="2.63866">
        <ele>814.2</ele>
        <time>2014-05-29T09:10:05Z</time>
      </trkpt>
      <trkpt lat="45.40698" lon="2.63867">
        <ele>814.8</ele>
        <time>2014-05-29T09:10:08Z</time>
      </trkpt>
      <trkpt lat="45.40705" lon="2.63862">
        <ele>814.5</ele>
        <time>2014-05-29T09:10:11Z</time>
      </trkpt>
      <trkpt lat="45.40708" lon="2.63861">
        <ele>814.4</ele>
        <time>2014-05-29T09:10:12Z</time>
      </trkpt>
      <trkpt lat="45.4072" lon="2.63855">
        <ele>815.9</ele>
        <time>2014-05-29T09:10:17Z</time>
      </trkpt>
      <trkpt lat="45.40727" lon="2.63852">
        <ele>816.1</ele>
        <time>2014-05-29T09:10:20Z</time>
      </trkpt>
      <trkpt lat="45.40734" lon="2.63849">
        <ele>816.5</ele>
        <time>2014-05-29T09:10:23Z</time>
      </trkpt>
      <trkpt lat="45.40742" lon="2.63846">
        <ele>816.9</ele>
        <time>2014-05-29T09:10:26Z</time>
      </trkpt>
      <trkpt lat="45.4075" lon="2.63843">
        <ele>817.8</ele>
        <time>2014-05-29T09:10:29Z</time>
      </trkpt>
      <trkpt lat="45.40758" lon="2.63841">
        <ele>818.4</ele>
        <time>2014-05-29T09:10:32Z</time>
      </trkpt>
      <trkpt lat="45.40766" lon="2.63842">
        <ele>818.1</ele>
        <time>2014-05-29T09:10:35Z</time>
      </trkpt>
      <trkpt lat="45.40774" lon="2.63846">
        <ele>819.6</ele>
        <time>2014-05-29T09:10:39Z</time>
      </trkpt>
      <trkpt lat="45.40781" lon="2.6385">
        <ele>821</ele>
        <time>2014-05-29T09:10:44Z</time>
      </trkpt>
      <trkpt lat="45.40789" lon="2.63856">
        <ele>822.8</ele>
        <time>2014-05-29T09:10:49Z</time>
      </trkpt>
      <trkpt lat="45.40795" lon="2.63864">
        <ele>823.7</ele>
        <time>2014-05-29T09:10:55Z</time>
      </trkpt>
      <trkpt lat="45.40801" lon="2.63872">
        <ele>825.5</ele>
        <time>2014-05-29T09:11:01Z</time>
      </trkpt>
      <trkpt lat="45.40807" lon="2.63879">
        <ele>826.9</ele>
        <time>2014-05-29T09:11:06Z</time>
      </trkpt>
      <trkpt lat="45.40812" lon="2.63889">
        <ele>827.7</ele>
        <time>2014-05-29T09:11:11Z</time>
      </trkpt>
      <trkpt lat="45.40816" lon="2.63898">
        <ele>828.6</ele>
        <time>2014-05-29T09:11:16Z</time>
      </trkpt>
      <trkpt lat="45.40817" lon="2.639">
        <ele>828.7</ele>
        <time>2014-05-29T09:11:17Z</time>
      </trkpt>
      <trkpt lat="45.40828" lon="2.63916">
        <ele>829.1</ele>
        <time>2014-05-29T09:11:24Z</time>
      </trkpt>
      <trkpt lat="45.40831" lon="2.63926">
        <ele>829.4</ele>
        <time>2014-05-29T09:11:27Z</time>
      </trkpt>
      <trkpt lat="45.40835" lon="2.63937">
        <ele>829.4</ele>
        <time>2014-05-29T09:11:30Z</time>
      </trkpt>
      <trkpt lat="45.40838" lon="2.63946">
        <ele>829.8</ele>
        <time>2014-05-29T09:11:32Z</time>
      </trkpt>
      <trkpt lat="45.40841" lon="2.63957">
        <ele>829.6</ele>
        <time>2014-05-29T09:11:35Z</time>
      </trkpt>
      <trkpt lat="45.40844" lon="2.63966">
        <ele>829.9</ele>
        <time>2014-05-29T09:11:37Z</time>
      </trkpt>
      <trkpt lat="45.40846" lon="2.63972">
        <ele>830</ele>
        <time>2014-05-29T09:11:38Z</time>
      </trkpt>
      <trkpt lat="45.40848" lon="2.63978">
        <ele>830.1</ele>
        <time>2014-05-29T09:11:39Z</time>
      </trkpt>
      <trkpt lat="45.40851" lon="2.63985">
        <ele>830.2</ele>
        <time>2014-05-29T09:11:40Z</time>
      </trkpt>
      <trkpt lat="45.40854" lon="2.63995">
        <ele>830.3</ele>
        <time>2014-05-29T09:11:42Z</time>
      </trkpt>
      <trkpt lat="45.40857" lon="2.64008">
        <ele>830</ele>
        <time>2014-05-29T09:11:44Z</time>
      </trkpt>
      <trkpt lat="45.40858" lon="2.64014">
        <ele>830.1</ele>
        <time>2014-05-29T09:11:45Z</time>
      </trkpt>
      <trkpt lat="45.40859" lon="2.64021">
        <ele>830.3</ele>
        <time>2014-05-29T09:11:46Z</time>
      </trkpt>
      <trkpt lat="45.40861" lon="2.64029">
        <ele>830.1</ele>
        <time>2014-05-29T09:11:47Z</time>
      </trkpt>
      <trkpt lat="45.40863" lon="2.64037">
        <ele>830</ele>
        <time>2014-05-29T09:11:48Z</time>
      </trkpt>
      <trkpt lat="45.40865" lon="2.64045">
        <ele>829.9</ele>
        <time>2014-05-29T09:11:49Z</time>
      </trkpt>
      <trkpt lat="45.40867" lon="2.64053">
        <ele>829.4</ele>
        <time>2014-05-29T09:11:50Z</time>
      </trkpt>
      <trkpt lat="45.4087" lon="2.64062">
        <ele>829</ele>
        <time>2014-05-29T09:11:51Z</time>
      </trkpt>
      <trkpt lat="45.40873" lon="2.6407">
        <ele>828.3</ele>
        <time>2014-05-29T09:11:52Z</time>
      </trkpt>
      <trkpt lat="45.40877" lon="2.64078">
        <ele>827.8</ele>
        <time>2014-05-29T09:11:53Z</time>
      </trkpt>
      <trkpt lat="45.40881" lon="2.64087">
        <ele>827.3</ele>
        <time>2014-05-29T09:11:54Z</time>
      </trkpt>
      <trkpt lat="45.40886" lon="2.64095">
        <ele>827.3</ele>
        <time>2014-05-29T09:11:55Z</time>
      </trkpt>
      <trkpt lat="45.40891" lon="2.64102">
        <ele>827.4</ele>
        <time>2014-05-29T09:11:56Z</time>
      </trkpt>
      <trkpt lat="45.40895" lon="2.64109">
        <ele>827.1</ele>
        <time>2014-05-29T09:11:57Z</time>
      </trkpt>
      <trkpt lat="45.40899" lon="2.64117">
        <ele>827</ele>
        <time>2014-05-29T09:11:58Z</time>
      </trkpt>
      <trkpt lat="45.40902" lon="2.64124">
        <ele>826.9</ele>
        <time>2014-05-29T09:11:59Z</time>
      </trkpt>
      <trkpt lat="45.40906" lon="2.64131">
        <ele>826.8</ele>
        <time>2014-05-29T09:12:00Z</time>
      </trkpt>
      <trkpt lat="45.40909" lon="2.64138">
        <ele>826.7</ele>
        <time>2014-05-29T09:12:01Z</time>
      </trkpt>
      <trkpt lat="45.40911" lon="2.64144">
        <ele>826.8</ele>
        <time>2014-05-29T09:12:02Z</time>
      </trkpt>
      <trkpt lat="45.40914" lon="2.64151">
        <ele>826.9</ele>
        <time>2014-05-29T09:12:03Z</time>
      </trkpt>
      <trkpt lat="45.40916" lon="2.64156">
        <ele>826.8</ele>
        <time>2014-05-29T09:12:04Z</time>
      </trkpt>
      <trkpt lat="45.40919" lon="2.64162">
        <ele>826.7</ele>
        <time>2014-05-29T09:12:05Z</time>
      </trkpt>
      <trkpt lat="45.40923" lon="2.64171">
        <ele>827.4</ele>
        <time>2014-05-29T09:12:06Z</time>
      </trkpt>
      <trkpt lat="45.40926" lon="2.64177">
        <ele>828</ele>
        <time>2014-05-29T09:12:07Z</time>
      </trkpt>
      <trkpt lat="45.40931" lon="2.64186">
        <ele>828.3</ele>
        <time>2014-05-29T09:12:09Z</time>
      </trkpt>
      <trkpt lat="45.40935" lon="2.64194">
        <ele>828.5</ele>
        <time>2014-05-29T09:12:11Z</time>
      </trkpt>
      <trkpt lat="45.4094" lon="2.64202">
        <ele>828.7</ele>
        <time>2014-05-29T09:12:14Z</time>
      </trkpt>
      <trkpt lat="45.40947" lon="2.64211">
        <ele>829.2</ele>
        <time>2014-05-29T09:12:17Z</time>
      </trkpt>
      <trkpt lat="45.40948" lon="2.64215">
        <ele>829.1</ele>
        <time>2014-05-29T09:12:18Z</time>
      </trkpt>
      <trkpt lat="45.40948" lon="2.64231">
        <ele>829.6</ele>
        <time>2014-05-29T09:12:22Z</time>
      </trkpt>
      <trkpt lat="45.40947" lon="2.64237">
        <ele>830</ele>
        <time>2014-05-29T09:12:23Z</time>
      </trkpt>
      <trkpt lat="45.40947" lon="2.64244">
        <ele>830.2</ele>
        <time>2014-05-29T09:12:24Z</time>
      </trkpt>
      <trkpt lat="45.40946" lon="2.64251">
        <ele>829.9</ele>
        <time>2014-05-29T09:12:25Z</time>
      </trkpt>
      <trkpt lat="45.40945" lon="2.64259">
        <ele>829.7</ele>
        <time>2014-05-29T09:12:26Z</time>
      </trkpt>
      <trkpt lat="45.40945" lon="2.64267">
        <ele>829.5</ele>
        <time>2014-05-29T09:12:27Z</time>
      </trkpt>
      <trkpt lat="45.40944" lon="2.64276">
        <ele>829.4</ele>
        <time>2014-05-29T09:12:28Z</time>
      </trkpt>
      <trkpt lat="45.40942" lon="2.64284">
        <ele>829.4</ele>
        <time>2014-05-29T09:12:29Z</time>
      </trkpt>
      <trkpt lat="45.40942" lon="2.64291">
        <ele>829.2</ele>
        <time>2014-05-29T09:12:30Z</time>
      </trkpt>
      <trkpt lat="45.40942" lon="2.64299">
        <ele>829.1</ele>
        <time>2014-05-29T09:12:31Z</time>
      </trkpt>
      <trkpt lat="45.40944" lon="2.64307">
        <ele>828.9</ele>
        <time>2014-05-29T09:12:32Z</time>
      </trkpt>
      <trkpt lat="45.40946" lon="2.64315">
        <ele>828.7</ele>
        <time>2014-05-29T09:12:33Z</time>
      </trkpt>
      <trkpt lat="45.4095" lon="2.64322">
        <ele>828.5</ele>
        <time>2014-05-29T09:12:34Z</time>
      </trkpt>
      <trkpt lat="45.40954" lon="2.64329">
        <ele>828.4</ele>
        <time>2014-05-29T09:12:35Z</time>
      </trkpt>
      <trkpt lat="45.40957" lon="2.64338">
        <ele>828.3</ele>
        <time>2014-05-29T09:12:36Z</time>
      </trkpt>
      <trkpt lat="45.40959" lon="2.64346">
        <ele>827.7</ele>
        <time>2014-05-29T09:12:37Z</time>
      </trkpt>
      <trkpt lat="45.40961" lon="2.64354">
        <ele>827.4</ele>
        <time>2014-05-29T09:12:38Z</time>
      </trkpt>
      <trkpt lat="45.40964" lon="2.64364">
        <ele>827.1</ele>
        <time>2014-05-29T09:12:39Z</time>
      </trkpt>
      <trkpt lat="45.40966" lon="2.64374">
        <ele>826.9</ele>
        <time>2014-05-29T09:12:40Z</time>
      </trkpt>
      <trkpt lat="45.40969" lon="2.64384">
        <ele>826.7</ele>
        <time>2014-05-29T09:12:41Z</time>
      </trkpt>
      <trkpt lat="45.4097" lon="2.64394">
        <ele>826.4</ele>
        <time>2014-05-29T09:12:42Z</time>
      </trkpt>
      <trkpt lat="45.40972" lon="2.64403">
        <ele>826.2</ele>
        <time>2014-05-29T09:12:43Z</time>
      </trkpt>
      <trkpt lat="45.40974" lon="2.64412">
        <ele>826.4</ele>
        <time>2014-05-29T09:12:44Z</time>
      </trkpt>
      <trkpt lat="45.40976" lon="2.6442">
        <ele>826.6</ele>
        <time>2014-05-29T09:12:45Z</time>
      </trkpt>
      <trkpt lat="45.40977" lon="2.64427">
        <ele>826.8</ele>
        <time>2014-05-29T09:12:46Z</time>
      </trkpt>
      <trkpt lat="45.40979" lon="2.64434">
        <ele>826.7</ele>
        <time>2014-05-29T09:12:47Z</time>
      </trkpt>
      <trkpt lat="45.40981" lon="2.64445">
        <ele>826.7</ele>
        <time>2014-05-29T09:12:49Z</time>
      </trkpt>
      <trkpt lat="45.40984" lon="2.64456">
        <ele>827.2</ele>
        <time>2014-05-29T09:12:52Z</time>
      </trkpt>
      <trkpt lat="45.40986" lon="2.64468">
        <ele>828.6</ele>
        <time>2014-05-29T09:12:56Z</time>
      </trkpt>
      <trkpt lat="45.4099" lon="2.64476">
        <ele>829.2</ele>
        <time>2014-05-29T09:12:59Z</time>
      </trkpt>
      <trkpt lat="45.40994" lon="2.64484">
        <ele>830.1</ele>
        <time>2014-05-29T09:13:02Z</time>
      </trkpt>
      <trkpt lat="45.40999" lon="2.64493">
        <ele>830.6</ele>
        <time>2014-05-29T09:13:06Z</time>
      </trkpt>
      <trkpt lat="45.41004" lon="2.64502">
        <ele>832.7</ele>
        <time>2014-05-29T09:13:10Z</time>
      </trkpt>
      <trkpt lat="45.41008" lon="2.64512">
        <ele>833.2</ele>
        <time>2014-05-29T09:13:14Z</time>
      </trkpt>
      <trkpt lat="45.41013" lon="2.64522">
        <ele>833.9</ele>
        <time>2014-05-29T09:13:18Z</time>
      </trkpt>
      <trkpt lat="45.41018" lon="2.64532">
        <ele>834.8</ele>
        <time>2014-05-29T09:13:21Z</time>
      </trkpt>
      <trkpt lat="45.41019" lon="2.64536">
        <ele>834.6</ele>
        <time>2014-05-29T09:13:22Z</time>
      </trkpt>
      <trkpt lat="45.41026" lon="2.64551">
        <ele>834.6</ele>
        <time>2014-05-29T09:13:26Z</time>
      </trkpt>
      <trkpt lat="45.4103" lon="2.64559">
        <ele>835</ele>
        <time>2014-05-29T09:13:28Z</time>
      </trkpt>
      <trkpt lat="45.41034" lon="2.64567">
        <ele>835.2</ele>
        <time>2014-05-29T09:13:30Z</time>
      </trkpt>
      <trkpt lat="45.41039" lon="2.64575">
        <ele>835.1</ele>
        <time>2014-05-29T09:13:32Z</time>
      </trkpt>
      <trkpt lat="45.41043" lon="2.64583">
        <ele>835</ele>
        <time>2014-05-29T09:13:34Z</time>
      </trkpt>
      <trkpt lat="45.41046" lon="2.64591">
        <ele>835.1</ele>
        <time>2014-05-29T09:13:36Z</time>
      </trkpt>
      <trkpt lat="45.4105" lon="2.64603">
        <ele>835.1</ele>
        <time>2014-05-29T09:13:39Z</time>
      </trkpt>
      <trkpt lat="45.41053" lon="2.64613">
        <ele>835.3</ele>
        <time>2014-05-29T09:13:42Z</time>
      </trkpt>
      <trkpt lat="45.41052" lon="2.64625">
        <ele>836</ele>
        <time>2014-05-29T09:13:49Z</time>
      </trkpt>
      <trkpt lat="45.41052" lon="2.64636">
        <ele>837.6</ele>
        <time>2014-05-29T09:13:54Z</time>
      </trkpt>
      <trkpt lat="45.41052" lon="2.64647">
        <ele>838</ele>
        <time>2014-05-29T09:13:58Z</time>
      </trkpt>
      <trkpt lat="45.41052" lon="2.64657">
        <ele>839.9</ele>
        <time>2014-05-29T09:14:02Z</time>
      </trkpt>
      <trkpt lat="45.41052" lon="2.64667">
        <ele>840.2</ele>
        <time>2014-05-29T09:14:06Z</time>
      </trkpt>
      <trkpt lat="45.41052" lon="2.64679">
        <ele>840.8</ele>
        <time>2014-05-29T09:14:10Z</time>
      </trkpt>
      <trkpt lat="45.4105" lon="2.64691">
        <ele>841.9</ele>
        <time>2014-05-29T09:14:14Z</time>
      </trkpt>
      <trkpt lat="45.41046" lon="2.64702">
        <ele>841.9</ele>
        <time>2014-05-29T09:14:18Z</time>
      </trkpt>
      <trkpt lat="45.41043" lon="2.64713">
        <ele>842.8</ele>
        <time>2014-05-29T09:14:21Z</time>
      </trkpt>
      <trkpt lat="45.41041" lon="2.64722">
        <ele>844.1</ele>
        <time>2014-05-29T09:14:24Z</time>
      </trkpt>
      <trkpt lat="45.4104" lon="2.64725">
        <ele>844.3</ele>
        <time>2014-05-29T09:14:25Z</time>
      </trkpt>
      <trkpt lat="45.41037" lon="2.64741">
        <ele>845</ele>
        <time>2014-05-29T09:14:30Z</time>
      </trkpt>
      <trkpt lat="45.41036" lon="2.64751">
        <ele>845.7</ele>
        <time>2014-05-29T09:14:33Z</time>
      </trkpt>
      <trkpt lat="45.41036" lon="2.64763">
        <ele>846.2</ele>
        <time>2014-05-29T09:14:37Z</time>
      </trkpt>
      <trkpt lat="45.41036" lon="2.64774">
        <ele>846.9</ele>
        <time>2014-05-29T09:14:41Z</time>
      </trkpt>
      <trkpt lat="45.41037" lon="2.64786">
        <ele>847</ele>
        <time>2014-05-29T09:14:45Z</time>
      </trkpt>
      <trkpt lat="45.41039" lon="2.64797">
        <ele>848</ele>
        <time>2014-05-29T09:14:49Z</time>
      </trkpt>
      <trkpt lat="45.41043" lon="2.64805">
        <ele>848.2</ele>
        <time>2014-05-29T09:14:53Z</time>
      </trkpt>
      <trkpt lat="45.41049" lon="2.64814">
        <ele>849.5</ele>
        <time>2014-05-29T09:14:57Z</time>
      </trkpt>
      <trkpt lat="45.41055" lon="2.64822">
        <ele>850.6</ele>
        <time>2014-05-29T09:15:01Z</time>
      </trkpt>
      <trkpt lat="45.4106" lon="2.6483">
        <ele>850.9</ele>
        <time>2014-05-29T09:15:05Z</time>
      </trkpt>
      <trkpt lat="45.41065" lon="2.64838">
        <ele>851.9</ele>
        <time>2014-05-29T09:15:09Z</time>
      </trkpt>
      <trkpt lat="45.41071" lon="2.64846">
        <ele>852.9</ele>
        <time>2014-05-29T09:15:13Z</time>
      </trkpt>
      <trkpt lat="45.4108" lon="2.64849">
        <ele>854.6</ele>
        <time>2014-05-29T09:15:18Z</time>
      </trkpt>
      <trkpt lat="45.41087" lon="2.64855">
        <ele>855</ele>
        <time>2014-05-29T09:15:24Z</time>
      </trkpt>
      <trkpt lat="45.41094" lon="2.64861">
        <ele>855.2</ele>
        <time>2014-05-29T09:15:29Z</time>
      </trkpt>
      <trkpt lat="45.41095" lon="2.64862">
        <ele>855.5</ele>
        <time>2014-05-29T09:15:30Z</time>
      </trkpt>
      <trkpt lat="45.41108" lon="2.64873">
        <ele>857.5</ele>
        <time>2014-05-29T09:15:39Z</time>
      </trkpt>
      <trkpt lat="45.41114" lon="2.64881">
        <ele>857.5</ele>
        <time>2014-05-29T09:15:42Z</time>
      </trkpt>
      <trkpt lat="45.41118" lon="2.64891">
        <ele>858.1</ele>
        <time>2014-05-29T09:15:48Z</time>
      </trkpt>
      <trkpt lat="45.4112" lon="2.64902">
        <ele>859.2</ele>
        <time>2014-05-29T09:15:53Z</time>
      </trkpt>
      <trkpt lat="45.41122" lon="2.64909">
        <ele>859.9</ele>
        <time>2014-05-29T09:15:56Z</time>
      </trkpt>
      <trkpt lat="45.41126" lon="2.64918">
        <ele>861.3</ele>
        <time>2014-05-29T09:15:59Z</time>
      </trkpt>
      <trkpt lat="45.4113" lon="2.64929">
        <ele>862.1</ele>
        <time>2014-05-29T09:16:05Z</time>
      </trkpt>
      <trkpt lat="45.41135" lon="2.64936">
        <ele>862.6</ele>
        <time>2014-05-29T09:16:10Z</time>
      </trkpt>
      <trkpt lat="45.41143" lon="2.64942">
        <ele>863.3</ele>
        <time>2014-05-29T09:16:14Z</time>
      </trkpt>
      <trkpt lat="45.41151" lon="2.64946">
        <ele>863.4</ele>
        <time>2014-05-29T09:16:18Z</time>
      </trkpt>
      <trkpt lat="45.41159" lon="2.64946">
        <ele>863.6</ele>
        <time>2014-05-29T09:16:21Z</time>
      </trkpt>
      <trkpt lat="45.41167" lon="2.64946">
        <ele>863.1</ele>
        <time>2014-05-29T09:16:24Z</time>
      </trkpt>
      <trkpt lat="45.41173" lon="2.64946">
        <ele>862.4</ele>
        <time>2014-05-29T09:16:26Z</time>
      </trkpt>
      <trkpt lat="45.4118" lon="2.64949">
        <ele>862.1</ele>
        <time>2014-05-29T09:16:28Z</time>
      </trkpt>
      <trkpt lat="45.41188" lon="2.64954">
        <ele>862.7</ele>
        <time>2014-05-29T09:16:31Z</time>
      </trkpt>
      <trkpt lat="45.4119" lon="2.64956">
        <ele>863.3</ele>
        <time>2014-05-29T09:16:32Z</time>
      </trkpt>
      <trkpt lat="45.41202" lon="2.64964">
        <ele>864.5</ele>
        <time>2014-05-29T09:16:37Z</time>
      </trkpt>
      <trkpt lat="45.41208" lon="2.64969">
        <ele>864.4</ele>
        <time>2014-05-29T09:16:40Z</time>
      </trkpt>
      <trkpt lat="45.41214" lon="2.64975">
        <ele>865.3</ele>
        <time>2014-05-29T09:16:43Z</time>
      </trkpt>
      <trkpt lat="45.41219" lon="2.6498">
        <ele>865.3</ele>
        <time>2014-05-29T09:16:45Z</time>
      </trkpt>
      <trkpt lat="45.41223" lon="2.64987">
        <ele>865.3</ele>
        <time>2014-05-29T09:16:47Z</time>
      </trkpt>
      <trkpt lat="45.41227" lon="2.64996">
        <ele>865.7</ele>
        <time>2014-05-29T09:16:50Z</time>
      </trkpt>
      <trkpt lat="45.41229" lon="2.65004">
        <ele>864.8</ele>
        <time>2014-05-29T09:16:53Z</time>
      </trkpt>
      <trkpt lat="45.41231" lon="2.65012">
        <ele>864.9</ele>
        <time>2014-05-29T09:16:55Z</time>
      </trkpt>
      <trkpt lat="45.41235" lon="2.65022">
        <ele>864.6</ele>
        <time>2014-05-29T09:16:58Z</time>
      </trkpt>
      <trkpt lat="45.41241" lon="2.65031">
        <ele>864.4</ele>
        <time>2014-05-29T09:17:01Z</time>
      </trkpt>
      <trkpt lat="45.41247" lon="2.65035">
        <ele>864.5</ele>
        <time>2014-05-29T09:17:03Z</time>
      </trkpt>
      <trkpt lat="45.41254" lon="2.6504">
        <ele>864.4</ele>
        <time>2014-05-29T09:17:05Z</time>
      </trkpt>
      <trkpt lat="45.41258" lon="2.65043">
        <ele>864.4</ele>
        <time>2014-05-29T09:17:06Z</time>
      </trkpt>
      <trkpt lat="45.41262" lon="2.65047">
        <ele>864.3</ele>
        <time>2014-05-29T09:17:07Z</time>
      </trkpt>
      <trkpt lat="45.41266" lon="2.65051">
        <ele>864</ele>
        <time>2014-05-29T09:17:08Z</time>
      </trkpt>
      <trkpt lat="45.41271" lon="2.65056">
        <ele>863.8</ele>
        <time>2014-05-29T09:17:09Z</time>
      </trkpt>
      <trkpt lat="45.41274" lon="2.65063">
        <ele>863.3</ele>
        <time>2014-05-29T09:17:10Z</time>
      </trkpt>
      <trkpt lat="45.41277" lon="2.6507">
        <ele>862.9</ele>
        <time>2014-05-29T09:17:11Z</time>
      </trkpt>
      <trkpt lat="45.41278" lon="2.65077">
        <ele>862.6</ele>
        <time>2014-05-29T09:17:12Z</time>
      </trkpt>
      <trkpt lat="45.4128" lon="2.65084">
        <ele>862.2</ele>
        <time>2014-05-29T09:17:13Z</time>
      </trkpt>
      <trkpt lat="45.41281" lon="2.65091">
        <ele>861.9</ele>
        <time>2014-05-29T09:17:14Z</time>
      </trkpt>
      <trkpt lat="45.41283" lon="2.65098">
        <ele>861.9</ele>
        <time>2014-05-29T09:17:15Z</time>
      </trkpt>
      <trkpt lat="45.41286" lon="2.65109">
        <ele>862.2</ele>
        <time>2014-05-29T09:17:17Z</time>
      </trkpt>
      <trkpt lat="45.41287" lon="2.65115">
        <ele>862.3</ele>
        <time>2014-05-29T09:17:18Z</time>
      </trkpt>
      <trkpt lat="45.41289" lon="2.65121">
        <ele>862.5</ele>
        <time>2014-05-29T09:17:19Z</time>
      </trkpt>
      <trkpt lat="45.4129" lon="2.65128">
        <ele>862.8</ele>
        <time>2014-05-29T09:17:20Z</time>
      </trkpt>
      <trkpt lat="45.41292" lon="2.65134">
        <ele>863.1</ele>
        <time>2014-05-29T09:17:21Z</time>
      </trkpt>
      <trkpt lat="45.41293" lon="2.65141">
        <ele>863.2</ele>
        <time>2014-05-29T09:17:22Z</time>
      </trkpt>
      <trkpt lat="45.41295" lon="2.65147">
        <ele>863.2</ele>
        <time>2014-05-29T09:17:23Z</time>
      </trkpt>
      <trkpt lat="45.41297" lon="2.65158">
        <ele>863.2</ele>
        <time>2014-05-29T09:17:25Z</time>
      </trkpt>
      <trkpt lat="45.41299" lon="2.65167">
        <ele>863.6</ele>
        <time>2014-05-29T09:17:27Z</time>
      </trkpt>
      <trkpt lat="45.41302" lon="2.65178">
        <ele>864.4</ele>
        <time>2014-05-29T09:17:30Z</time>
      </trkpt>
      <trkpt lat="45.41305" lon="2.65188">
        <ele>865.9</ele>
        <time>2014-05-29T09:17:34Z</time>
      </trkpt>
      <trkpt lat="45.41307" lon="2.65191">
        <ele>866.1</ele>
        <time>2014-05-29T09:17:35Z</time>
      </trkpt>
      <trkpt lat="45.41314" lon="2.65208">
        <ele>867.6</ele>
        <time>2014-05-29T09:17:42Z</time>
      </trkpt>
      <trkpt lat="45.41317" lon="2.65217">
        <ele>868.8</ele>
        <time>2014-05-29T09:17:46Z</time>
      </trkpt>
      <trkpt lat="45.41321" lon="2.65227">
        <ele>869.5</ele>
        <time>2014-05-29T09:17:50Z</time>
      </trkpt>
      <trkpt lat="45.41326" lon="2.65237">
        <ele>870.4</ele>
        <time>2014-05-29T09:17:54Z</time>
      </trkpt>
      <trkpt lat="45.41329" lon="2.65245">
        <ele>871.1</ele>
        <time>2014-05-29T09:17:57Z</time>
      </trkpt>
      <trkpt lat="45.41334" lon="2.65254">
        <ele>871.3</ele>
        <time>2014-05-29T09:18:00Z</time>
      </trkpt>
      <trkpt lat="45.41337" lon="2.65266">
        <ele>870.8</ele>
        <time>2014-05-29T09:18:03Z</time>
      </trkpt>
      <trkpt lat="45.41338" lon="2.65277">
        <ele>871.4</ele>
        <time>2014-05-29T09:18:06Z</time>
      </trkpt>
      <trkpt lat="45.41338" lon="2.65286">
        <ele>871.3</ele>
        <time>2014-05-29T09:18:08Z</time>
      </trkpt>
      <trkpt lat="45.41339" lon="2.65297">
        <ele>871.4</ele>
        <time>2014-05-29T09:18:10Z</time>
      </trkpt>
      <trkpt lat="45.41339" lon="2.65304">
        <ele>871.4</ele>
        <time>2014-05-29T09:18:11Z</time>
      </trkpt>
      <trkpt lat="45.4134" lon="2.65312">
        <ele>871.3</ele>
        <time>2014-05-29T09:18:12Z</time>
      </trkpt>
      <trkpt lat="45.41341" lon="2.65321">
        <ele>871.2</ele>
        <time>2014-05-29T09:18:13Z</time>
      </trkpt>
      <trkpt lat="45.41341" lon="2.65331">
        <ele>870.6</ele>
        <time>2014-05-29T09:18:14Z</time>
      </trkpt>
      <trkpt lat="45.41341" lon="2.6534">
        <ele>870.2</ele>
        <time>2014-05-29T09:18:15Z</time>
      </trkpt>
      <trkpt lat="45.41342" lon="2.65349">
        <ele>869.9</ele>
        <time>2014-05-29T09:18:16Z</time>
      </trkpt>
      <trkpt lat="45.41343" lon="2.65356">
        <ele>868.7</ele>
        <time>2014-05-29T09:18:17Z</time>
      </trkpt>
      <trkpt lat="45.41345" lon="2.65362">
        <ele>867.8</ele>
        <time>2014-05-29T09:18:18Z</time>
      </trkpt>
      <trkpt lat="45.41349" lon="2.65367">
        <ele>867.2</ele>
        <time>2014-05-29T09:18:19Z</time>
      </trkpt>
      <trkpt lat="45.41354" lon="2.65376">
        <ele>866</ele>
        <time>2014-05-29T09:18:21Z</time>
      </trkpt>
      <trkpt lat="45.41357" lon="2.6538">
        <ele>865.5</ele>
        <time>2014-05-29T09:18:22Z</time>
      </trkpt>
      <trkpt lat="45.41361" lon="2.65384">
        <ele>865</ele>
        <time>2014-05-29T09:18:23Z</time>
      </trkpt>
      <trkpt lat="45.41365" lon="2.6539">
        <ele>864.6</ele>
        <time>2014-05-29T09:18:24Z</time>
      </trkpt>
      <trkpt lat="45.41366" lon="2.65401">
        <ele>863.9</ele>
        <time>2014-05-29T09:18:26Z</time>
      </trkpt>
      <trkpt lat="45.41366" lon="2.6541">
        <ele>863.7</ele>
        <time>2014-05-29T09:18:28Z</time>
      </trkpt>
      <trkpt lat="45.41367" lon="2.65422">
        <ele>863.8</ele>
        <time>2014-05-29T09:18:30Z</time>
      </trkpt>
      <trkpt lat="45.4137" lon="2.65433">
        <ele>863.9</ele>
        <time>2014-05-29T09:18:32Z</time>
      </trkpt>
      <trkpt lat="45.41373" lon="2.65445">
        <ele>863.9</ele>
        <time>2014-05-29T09:18:34Z</time>
      </trkpt>
      <trkpt lat="45.41378" lon="2.65455">
        <ele>864.5</ele>
        <time>2014-05-29T09:18:36Z</time>
      </trkpt>
      <trkpt lat="45.4138" lon="2.65458">
        <ele>865</ele>
        <time>2014-05-29T09:18:37Z</time>
      </trkpt>
      <trkpt lat="45.41388" lon="2.65472">
        <ele>866.1</ele>
        <time>2014-05-29T09:18:41Z</time>
      </trkpt>
      <trkpt lat="45.41392" lon="2.65479">
        <ele>866.1</ele>
        <time>2014-05-29T09:18:43Z</time>
      </trkpt>
      <trkpt lat="45.41398" lon="2.65488">
        <ele>866.4</ele>
        <time>2014-05-29T09:18:46Z</time>
      </trkpt>
      <trkpt lat="45.41404" lon="2.65498">
        <ele>866.2</ele>
        <time>2014-05-29T09:18:49Z</time>
      </trkpt>
      <trkpt lat="45.41408" lon="2.65505">
        <ele>866.7</ele>
        <time>2014-05-29T09:18:52Z</time>
      </trkpt>
      <trkpt lat="45.41413" lon="2.65513">
        <ele>866.9</ele>
        <time>2014-05-29T09:18:55Z</time>
      </trkpt>
      <trkpt lat="45.41418" lon="2.65521">
        <ele>867.7</ele>
        <time>2014-05-29T09:18:58Z</time>
      </trkpt>
      <trkpt lat="45.41423" lon="2.65528">
        <ele>869</ele>
        <time>2014-05-29T09:19:01Z</time>
      </trkpt>
      <trkpt lat="45.41427" lon="2.65535">
        <ele>869.7</ele>
        <time>2014-05-29T09:19:03Z</time>
      </trkpt>
      <trkpt lat="45.41431" lon="2.65541">
        <ele>869</ele>
        <time>2014-05-29T09:19:05Z</time>
      </trkpt>
      <trkpt lat="45.41437" lon="2.65547">
        <ele>869.3</ele>
        <time>2014-05-29T09:19:07Z</time>
      </trkpt>
      <trkpt lat="45.41442" lon="2.65552">
        <ele>869.4</ele>
        <time>2014-05-29T09:19:09Z</time>
      </trkpt>
      <trkpt lat="45.41448" lon="2.6556">
        <ele>868.5</ele>
        <time>2014-05-29T09:19:12Z</time>
      </trkpt>
      <trkpt lat="45.41447" lon="2.65572">
        <ele>868.9</ele>
        <time>2014-05-29T09:19:16Z</time>
      </trkpt>
      <trkpt lat="45.41447" lon="2.65582">
        <ele>869.2</ele>
        <time>2014-05-29T09:19:19Z</time>
      </trkpt>
      <trkpt lat="45.4145" lon="2.65594">
        <ele>869.1</ele>
        <time>2014-05-29T09:19:23Z</time>
      </trkpt>
      <trkpt lat="45.41456" lon="2.65603">
        <ele>870.1</ele>
        <time>2014-05-29T09:19:27Z</time>
      </trkpt>
      <trkpt lat="45.41463" lon="2.65611">
        <ele>871.6</ele>
        <time>2014-05-29T09:19:31Z</time>
      </trkpt>
      <trkpt lat="45.41469" lon="2.65619">
        <ele>873.1</ele>
        <time>2014-05-29T09:19:35Z</time>
      </trkpt>
      <trkpt lat="45.41476" lon="2.65626">
        <ele>874.8</ele>
        <time>2014-05-29T09:19:39Z</time>
      </trkpt>
      <trkpt lat="45.41477" lon="2.65628">
        <ele>875.1</ele>
        <time>2014-05-29T09:19:40Z</time>
      </trkpt>
      <trkpt lat="45.41487" lon="2.6564">
        <ele>876.7</ele>
        <time>2014-05-29T09:19:47Z</time>
      </trkpt>
      <trkpt lat="45.41494" lon="2.65647">
        <ele>876.7</ele>
        <time>2014-05-29T09:19:51Z</time>
      </trkpt>
      <trkpt lat="45.41501" lon="2.65654">
        <ele>877.8</ele>
        <time>2014-05-29T09:19:56Z</time>
      </trkpt>
      <trkpt lat="45.41509" lon="2.6566">
        <ele>879.2</ele>
        <time>2014-05-29T09:20:01Z</time>
      </trkpt>
      <trkpt lat="45.41515" lon="2.65665">
        <ele>879.6</ele>
        <time>2014-05-29T09:20:05Z</time>
      </trkpt>
      <trkpt lat="45.41522" lon="2.65671">
        <ele>880.1</ele>
        <time>2014-05-29T09:20:09Z</time>
      </trkpt>
      <trkpt lat="45.41529" lon="2.65677">
        <ele>881.8</ele>
        <time>2014-05-29T09:20:14Z</time>
      </trkpt>
      <trkpt lat="45.41537" lon="2.65682">
        <ele>881.7</ele>
        <time>2014-05-29T09:20:20Z</time>
      </trkpt>
      <trkpt lat="45.41544" lon="2.65687">
        <ele>882.5</ele>
        <time>2014-05-29T09:20:25Z</time>
      </trkpt>
      <trkpt lat="45.4155" lon="2.65694">
        <ele>883.9</ele>
        <time>2014-05-29T09:20:29Z</time>
      </trkpt>
      <trkpt lat="45.41555" lon="2.65703">
        <ele>886.1</ele>
        <time>2014-05-29T09:20:34Z</time>
      </trkpt>
      <trkpt lat="45.4156" lon="2.65709">
        <ele>887.9</ele>
        <time>2014-05-29T09:20:39Z</time>
      </trkpt>
      <trkpt lat="45.41567" lon="2.65717">
        <ele>888.3</ele>
        <time>2014-05-29T09:20:44Z</time>
      </trkpt>
      <trkpt lat="45.41568" lon="2.65718">
        <ele>888.4</ele>
        <time>2014-05-29T09:20:45Z</time>
      </trkpt>
      <trkpt lat="45.41583" lon="2.65729">
        <ele>890.1</ele>
        <time>2014-05-29T09:20:55Z</time>
      </trkpt>
      <trkpt lat="45.41591" lon="2.6573">
        <ele>891.2</ele>
        <time>2014-05-29T09:21:00Z</time>
      </trkpt>
      <trkpt lat="45.41599" lon="2.65735">
        <ele>891.7</ele>
        <time>2014-05-29T09:21:05Z</time>
      </trkpt>
      <trkpt lat="45.41605" lon="2.65742">
        <ele>892.4</ele>
        <time>2014-05-29T09:21:11Z</time>
      </trkpt>
      <trkpt lat="45.41608" lon="2.65752">
        <ele>893.6</ele>
        <time>2014-05-29T09:21:19Z</time>
      </trkpt>
      <trkpt lat="45.41608" lon="2.65764">
        <ele>894.4</ele>
        <time>2014-05-29T09:21:23Z</time>
      </trkpt>
      <trkpt lat="45.41612" lon="2.65775">
        <ele>894.9</ele>
        <time>2014-05-29T09:21:29Z</time>
      </trkpt>
      <trkpt lat="45.4162" lon="2.65779">
        <ele>895.8</ele>
        <time>2014-05-29T09:21:34Z</time>
      </trkpt>
      <trkpt lat="45.41628" lon="2.65778">
        <ele>897.9</ele>
        <time>2014-05-29T09:21:40Z</time>
      </trkpt>
      <trkpt lat="45.41636" lon="2.65777">
        <ele>898.2</ele>
        <time>2014-05-29T09:21:45Z</time>
      </trkpt>
      <trkpt lat="45.41644" lon="2.65774">
        <ele>899.7</ele>
        <time>2014-05-29T09:21:50Z</time>
      </trkpt>
      <trkpt lat="45.41646" lon="2.65774">
        <ele>899.9</ele>
        <time>2014-05-29T09:21:51Z</time>
      </trkpt>
      <trkpt lat="45.41661" lon="2.65769">
        <ele>901.9</ele>
        <time>2014-05-29T09:21:59Z</time>
      </trkpt>
      <trkpt lat="45.41669" lon="2.65769">
        <ele>903.2</ele>
        <time>2014-05-29T09:22:03Z</time>
      </trkpt>
      <trkpt lat="45.41677" lon="2.6577">
        <ele>904.5</ele>
        <time>2014-05-29T09:22:07Z</time>
      </trkpt>
      <trkpt lat="45.41685" lon="2.6577">
        <ele>904.5</ele>
        <time>2014-05-29T09:22:10Z</time>
      </trkpt>
      <trkpt lat="45.41692" lon="2.65766">
        <ele>904.8</ele>
        <time>2014-05-29T09:22:13Z</time>
      </trkpt>
      <trkpt lat="45.41697" lon="2.65759">
        <ele>904.9</ele>
        <time>2014-05-29T09:22:15Z</time>
      </trkpt>
      <trkpt lat="45.41701" lon="2.65755">
        <ele>904.7</ele>
        <time>2014-05-29T09:22:16Z</time>
      </trkpt>
      <trkpt lat="45.41705" lon="2.65751">
        <ele>904.6</ele>
        <time>2014-05-29T09:22:17Z</time>
      </trkpt>
      <trkpt lat="45.41709" lon="2.65748">
        <ele>904.5</ele>
        <time>2014-05-29T09:22:18Z</time>
      </trkpt>
      <trkpt lat="45.41713" lon="2.65743">
        <ele>904.2</ele>
        <time>2014-05-29T09:22:19Z</time>
      </trkpt>
      <trkpt lat="45.41717" lon="2.65738">
        <ele>904.1</ele>
        <time>2014-05-29T09:22:20Z</time>
      </trkpt>
      <trkpt lat="45.41722" lon="2.65733">
        <ele>904.2</ele>
        <time>2014-05-29T09:22:21Z</time>
      </trkpt>
      <trkpt lat="45.41726" lon="2.65728">
        <ele>904.4</ele>
        <time>2014-05-29T09:22:22Z</time>
      </trkpt>
      <trkpt lat="45.4173" lon="2.65722">
        <ele>904.4</ele>
        <time>2014-05-29T09:22:23Z</time>
      </trkpt>
      <trkpt lat="45.41734" lon="2.65717">
        <ele>904.5</ele>
        <time>2014-05-29T09:22:24Z</time>
      </trkpt>
      <trkpt lat="45.41741" lon="2.6571">
        <ele>905</ele>
        <time>2014-05-29T09:22:26Z</time>
      </trkpt>
      <trkpt lat="45.41748" lon="2.65706">
        <ele>905.9</ele>
        <time>2014-05-29T09:22:29Z</time>
      </trkpt>
      <trkpt lat="45.41753" lon="2.65701">
        <ele>906.3</ele>
        <time>2014-05-29T09:22:31Z</time>
      </trkpt>
      <trkpt lat="45.41759" lon="2.65696">
        <ele>906.4</ele>
        <time>2014-05-29T09:22:33Z</time>
      </trkpt>
      <trkpt lat="45.41765" lon="2.6569">
        <ele>906.7</ele>
        <time>2014-05-29T09:22:35Z</time>
      </trkpt>
      <trkpt lat="45.41771" lon="2.65684">
        <ele>907.1</ele>
        <time>2014-05-29T09:22:37Z</time>
      </trkpt>
      <trkpt lat="45.41779" lon="2.65678">
        <ele>907</ele>
        <time>2014-05-29T09:22:39Z</time>
      </trkpt>
      <trkpt lat="45.41786" lon="2.65674">
        <ele>907.2</ele>
        <time>2014-05-29T09:22:41Z</time>
      </trkpt>
      <trkpt lat="45.41791" lon="2.65673">
        <ele>907</ele>
        <time>2014-05-29T09:22:42Z</time>
      </trkpt>
      <trkpt lat="45.41796" lon="2.65676">
        <ele>906.8</ele>
        <time>2014-05-29T09:22:43Z</time>
      </trkpt>
      <trkpt lat="45.41801" lon="2.6568">
        <ele>906.7</ele>
        <time>2014-05-29T09:22:44Z</time>
      </trkpt>
      <trkpt lat="45.41806" lon="2.65685">
        <ele>906.5</ele>
        <time>2014-05-29T09:22:45Z</time>
      </trkpt>
      <trkpt lat="45.4181" lon="2.6569">
        <ele>906.4</ele>
        <time>2014-05-29T09:22:46Z</time>
      </trkpt>
      <trkpt lat="45.41815" lon="2.65696">
        <ele>906.4</ele>
        <time>2014-05-29T09:22:47Z</time>
      </trkpt>
      <trkpt lat="45.4182" lon="2.657">
        <ele>906.5</ele>
        <time>2014-05-29T09:22:48Z</time>
      </trkpt>
      <trkpt lat="45.41825" lon="2.65703">
        <ele>906.5</ele>
        <time>2014-05-29T09:22:49Z</time>
      </trkpt>
      <trkpt lat="45.4183" lon="2.65705">
        <ele>906.5</ele>
        <time>2014-05-29T09:22:50Z</time>
      </trkpt>
      <trkpt lat="45.41836" lon="2.65705">
        <ele>906.6</ele>
        <time>2014-05-29T09:22:51Z</time>
      </trkpt>
      <trkpt lat="45.41841" lon="2.65705">
        <ele>906.3</ele>
        <time>2014-05-29T09:22:52Z</time>
      </trkpt>
      <trkpt lat="45.41846" lon="2.65705">
        <ele>906</ele>
        <time>2014-05-29T09:22:53Z</time>
      </trkpt>
      <trkpt lat="45.41851" lon="2.65705">
        <ele>906.3</ele>
        <time>2014-05-29T09:22:54Z</time>
      </trkpt>
      <trkpt lat="45.41855" lon="2.65706">
        <ele>906.4</ele>
        <time>2014-05-29T09:22:55Z</time>
      </trkpt>
      <trkpt lat="45.4186" lon="2.65706">
        <ele>906.6</ele>
        <time>2014-05-29T09:22:56Z</time>
      </trkpt>
      <trkpt lat="45.41869" lon="2.65709">
        <ele>907.2</ele>
        <time>2014-05-29T09:22:58Z</time>
      </trkpt>
      <trkpt lat="45.41877" lon="2.65711">
        <ele>906.8</ele>
        <time>2014-05-29T09:23:00Z</time>
      </trkpt>
      <trkpt lat="45.41885" lon="2.65715">
        <ele>908.2</ele>
        <time>2014-05-29T09:23:03Z</time>
      </trkpt>
      <trkpt lat="45.4189" lon="2.65719">
        <ele>908.1</ele>
        <time>2014-05-29T09:23:05Z</time>
      </trkpt>
      <trkpt lat="45.41893" lon="2.65726">
        <ele>907.8</ele>
        <time>2014-05-29T09:23:07Z</time>
      </trkpt>
      <trkpt lat="45.419" lon="2.65735">
        <ele>908.6</ele>
        <time>2014-05-29T09:23:10Z</time>
      </trkpt>
      <trkpt lat="45.41907" lon="2.65742">
        <ele>909.6</ele>
        <time>2014-05-29T09:23:13Z</time>
      </trkpt>
      <trkpt lat="45.41913" lon="2.65746">
        <ele>910</ele>
        <time>2014-05-29T09:23:15Z</time>
      </trkpt>
      <trkpt lat="45.41917" lon="2.65749">
        <ele>910</ele>
        <time>2014-05-29T09:23:16Z</time>
      </trkpt>
      <trkpt lat="45.41921" lon="2.65751">
        <ele>910</ele>
        <time>2014-05-29T09:23:17Z</time>
      </trkpt>
      <trkpt lat="45.41926" lon="2.65755">
        <ele>910</ele>
        <time>2014-05-29T09:23:18Z</time>
      </trkpt>
      <trkpt lat="45.41931" lon="2.65757">
        <ele>909.9</ele>
        <time>2014-05-29T09:23:19Z</time>
      </trkpt>
      <trkpt lat="45.41936" lon="2.65759">
        <ele>909.9</ele>
        <time>2014-05-29T09:23:20Z</time>
      </trkpt>
      <trkpt lat="45.4194" lon="2.65763">
        <ele>909.9</ele>
        <time>2014-05-29T09:23:21Z</time>
      </trkpt>
      <trkpt lat="45.41946" lon="2.65767">
        <ele>909.8</ele>
        <time>2014-05-29T09:23:22Z</time>
      </trkpt>
      <trkpt lat="45.41951" lon="2.65772">
        <ele>909.9</ele>
        <time>2014-05-29T09:23:23Z</time>
      </trkpt>
      <trkpt lat="45.41956" lon="2.65777">
        <ele>909.9</ele>
        <time>2014-05-29T09:23:24Z</time>
      </trkpt>
      <trkpt lat="45.41961" lon="2.65783">
        <ele>909.5</ele>
        <time>2014-05-29T09:23:25Z</time>
      </trkpt>
      <trkpt lat="45.41965" lon="2.65789">
        <ele>909.3</ele>
        <time>2014-05-29T09:23:26Z</time>
      </trkpt>
      <trkpt lat="45.4197" lon="2.65794">
        <ele>909.1</ele>
        <time>2014-05-29T09:23:27Z</time>
      </trkpt>
      <trkpt lat="45.41974" lon="2.658">
        <ele>908.8</ele>
        <time>2014-05-29T09:23:28Z</time>
      </trkpt>
      <trkpt lat="45.41979" lon="2.65805">
        <ele>908.6</ele>
        <time>2014-05-29T09:23:29Z</time>
      </trkpt>
      <trkpt lat="45.41984" lon="2.65811">
        <ele>908.6</ele>
        <time>2014-05-29T09:23:30Z</time>
      </trkpt>
      <trkpt lat="45.4199" lon="2.65816">
        <ele>908.7</ele>
        <time>2014-05-29T09:23:31Z</time>
      </trkpt>
      <trkpt lat="45.41995" lon="2.65821">
        <ele>908.6</ele>
        <time>2014-05-29T09:23:32Z</time>
      </trkpt>
      <trkpt lat="45.42" lon="2.65826">
        <ele>908.7</ele>
        <time>2014-05-29T09:23:33Z</time>
      </trkpt>
      <trkpt lat="45.42005" lon="2.6583">
        <ele>908.7</ele>
        <time>2014-05-29T09:23:34Z</time>
      </trkpt>
      <trkpt lat="45.4201" lon="2.65835">
        <ele>908.6</ele>
        <time>2014-05-29T09:23:35Z</time>
      </trkpt>
      <trkpt lat="45.42016" lon="2.6584">
        <ele>908.6</ele>
        <time>2014-05-29T09:23:36Z</time>
      </trkpt>
      <trkpt lat="45.42021" lon="2.65844">
        <ele>908.8</ele>
        <time>2014-05-29T09:23:37Z</time>
      </trkpt>
      <trkpt lat="45.42026" lon="2.65849">
        <ele>909</ele>
        <time>2014-05-29T09:23:38Z</time>
      </trkpt>
      <trkpt lat="45.42032" lon="2.65853">
        <ele>909.1</ele>
        <time>2014-05-29T09:23:39Z</time>
      </trkpt>
      <trkpt lat="45.42037" lon="2.65857">
        <ele>909.2</ele>
        <time>2014-05-29T09:23:40Z</time>
      </trkpt>
      <trkpt lat="45.42043" lon="2.65861">
        <ele>909.3</ele>
        <time>2014-05-29T09:23:41Z</time>
      </trkpt>
      <trkpt lat="45.42048" lon="2.65865">
        <ele>909.5</ele>
        <time>2014-05-29T09:23:42Z</time>
      </trkpt>
      <trkpt lat="45.42054" lon="2.65868">
        <ele>909.7</ele>
        <time>2014-05-29T09:23:43Z</time>
      </trkpt>
      <trkpt lat="45.4206" lon="2.65872">
        <ele>909.4</ele>
        <time>2014-05-29T09:23:44Z</time>
      </trkpt>
      <trkpt lat="45.42066" lon="2.65876">
        <ele>909.3</ele>
        <time>2014-05-29T09:23:45Z</time>
      </trkpt>
      <trkpt lat="45.42072" lon="2.65881">
        <ele>908.9</ele>
        <time>2014-05-29T09:23:46Z</time>
      </trkpt>
      <trkpt lat="45.42078" lon="2.65886">
        <ele>908.7</ele>
        <time>2014-05-29T09:23:47Z</time>
      </trkpt>
      <trkpt lat="45.42083" lon="2.65891">
        <ele>908.5</ele>
        <time>2014-05-29T09:23:48Z</time>
      </trkpt>
      <trkpt lat="45.42087" lon="2.65898">
        <ele>908.5</ele>
        <time>2014-05-29T09:23:49Z</time>
      </trkpt>
      <trkpt lat="45.42091" lon="2.65904">
        <ele>908.5</ele>
        <time>2014-05-29T09:23:50Z</time>
      </trkpt>
      <trkpt lat="45.42095" lon="2.6591">
        <ele>908.7</ele>
        <time>2014-05-29T09:23:51Z</time>
      </trkpt>
      <trkpt lat="45.42098" lon="2.65916">
        <ele>908.8</ele>
        <time>2014-05-29T09:23:52Z</time>
      </trkpt>
      <trkpt lat="45.42102" lon="2.65922">
        <ele>908.9</ele>
        <time>2014-05-29T09:23:53Z</time>
      </trkpt>
      <trkpt lat="45.42106" lon="2.65927">
        <ele>909</ele>
        <time>2014-05-29T09:23:54Z</time>
      </trkpt>
      <trkpt lat="45.4211" lon="2.65931">
        <ele>909.1</ele>
        <time>2014-05-29T09:23:55Z</time>
      </trkpt>
      <trkpt lat="45.42116" lon="2.65939">
        <ele>909.9</ele>
        <time>2014-05-29T09:23:57Z</time>
      </trkpt>
      <trkpt lat="45.42122" lon="2.65948">
        <ele>910.1</ele>
        <time>2014-05-29T09:23:59Z</time>
      </trkpt>
      <trkpt lat="45.42125" lon="2.65954">
        <ele>910.2</ele>
        <time>2014-05-29T09:24:00Z</time>
      </trkpt>
      <trkpt lat="45.42128" lon="2.6596">
        <ele>910.3</ele>
        <time>2014-05-29T09:24:01Z</time>
      </trkpt>
      <trkpt lat="45.42135" lon="2.65969">
        <ele>910.4</ele>
        <time>2014-05-29T09:24:02Z</time>
      </trkpt>
      <trkpt lat="45.42139" lon="2.65974">
        <ele>910.1</ele>
        <time>2014-05-29T09:24:03Z</time>
      </trkpt>
      <trkpt lat="45.42144" lon="2.65977">
        <ele>909.8</ele>
        <time>2014-05-29T09:24:04Z</time>
      </trkpt>
      <trkpt lat="45.4215" lon="2.65979">
        <ele>909.7</ele>
        <time>2014-05-29T09:24:05Z</time>
      </trkpt>
      <trkpt lat="45.42157" lon="2.6598">
        <ele>909.7</ele>
        <time>2014-05-29T09:24:06Z</time>
      </trkpt>
      <trkpt lat="45.42164" lon="2.65981">
        <ele>909.6</ele>
        <time>2014-05-29T09:24:07Z</time>
      </trkpt>
      <trkpt lat="45.42171" lon="2.65983">
        <ele>909.4</ele>
        <time>2014-05-29T09:24:08Z</time>
      </trkpt>
      <trkpt lat="45.42178" lon="2.65986">
        <ele>909.2</ele>
        <time>2014-05-29T09:24:09Z</time>
      </trkpt>
      <trkpt lat="45.42185" lon="2.65987">
        <ele>909.1</ele>
        <time>2014-05-29T09:24:10Z</time>
      </trkpt>
      <trkpt lat="45.42192" lon="2.65988">
        <ele>909</ele>
        <time>2014-05-29T09:24:11Z</time>
      </trkpt>
      <trkpt lat="45.42199" lon="2.65988">
        <ele>908.9</ele>
        <time>2014-05-29T09:24:12Z</time>
      </trkpt>
      <trkpt lat="45.42206" lon="2.65987">
        <ele>909.3</ele>
        <time>2014-05-29T09:24:13Z</time>
      </trkpt>
      <trkpt lat="45.42212" lon="2.65986">
        <ele>909.5</ele>
        <time>2014-05-29T09:24:14Z</time>
      </trkpt>
      <trkpt lat="45.42218" lon="2.65984">
        <ele>909.4</ele>
        <time>2014-05-29T09:24:15Z</time>
      </trkpt>
      <trkpt lat="45.42223" lon="2.65982">
        <ele>909.4</ele>
        <time>2014-05-29T09:24:16Z</time>
      </trkpt>
      <trkpt lat="45.42229" lon="2.6598">
        <ele>909.4</ele>
        <time>2014-05-29T09:24:17Z</time>
      </trkpt>
      <trkpt lat="45.42233" lon="2.65977">
        <ele>909.4</ele>
        <time>2014-05-29T09:24:18Z</time>
      </trkpt>
      <trkpt lat="45.42238" lon="2.65973">
        <ele>909.4</ele>
        <time>2014-05-29T09:24:19Z</time>
      </trkpt>
      <trkpt lat="45.42242" lon="2.6597">
        <ele>909.2</ele>
        <time>2014-05-29T09:24:20Z</time>
      </trkpt>
      <trkpt lat="45.42248" lon="2.65962">
        <ele>909.1</ele>
        <time>2014-05-29T09:24:22Z</time>
      </trkpt>
      <trkpt lat="45.42254" lon="2.6597">
        <ele>908.4</ele>
        <time>2014-05-29T09:24:27Z</time>
      </trkpt>
      <trkpt lat="45.42251" lon="2.65979">
        <ele>908.3</ele>
        <time>2014-05-29T09:24:29Z</time>
      </trkpt>
      <trkpt lat="45.42249" lon="2.65987">
        <ele>908.2</ele>
        <time>2014-05-29T09:24:31Z</time>
      </trkpt>
      <trkpt lat="45.42248" lon="2.65996">
        <ele>908.6</ele>
        <time>2014-05-29T09:24:33Z</time>
      </trkpt>
      <trkpt lat="45.42247" lon="2.66006">
        <ele>909.1</ele>
        <time>2014-05-29T09:24:35Z</time>
      </trkpt>
      <trkpt lat="45.42245" lon="2.66015">
        <ele>909.1</ele>
        <time>2014-05-29T09:24:37Z</time>
      </trkpt>
      <trkpt lat="45.42241" lon="2.66023">
        <ele>908.9</ele>
        <time>2014-05-29T09:24:39Z</time>
      </trkpt>
      <trkpt lat="45.42233" lon="2.6604">
        <ele>909</ele>
        <time>2014-05-29T09:24:43Z</time>
      </trkpt>
      <trkpt lat="45.42225" lon="2.66059">
        <ele>909</ele>
        <time>2014-05-29T09:24:47Z</time>
      </trkpt>
      <trkpt lat="45.4222" lon="2.66068">
        <ele>909</ele>
        <time>2014-05-29T09:24:50Z</time>
      </trkpt>
      <trkpt lat="45.42218" lon="2.66075">
        <ele>909.2</ele>
        <time>2014-05-29T09:24:51Z</time>
      </trkpt>
      <trkpt lat="45.42215" lon="2.66082">
        <ele>909.3</ele>
        <time>2014-05-29T09:24:52Z</time>
      </trkpt>
      <trkpt lat="45.42214" lon="2.6609">
        <ele>909</ele>
        <time>2014-05-29T09:24:53Z</time>
      </trkpt>
      <trkpt lat="45.42213" lon="2.66098">
        <ele>908.7</ele>
        <time>2014-05-29T09:24:54Z</time>
      </trkpt>
      <trkpt lat="45.42214" lon="2.66111">
        <ele>908.1</ele>
        <time>2014-05-29T09:24:56Z</time>
      </trkpt>
      <trkpt lat="45.42214" lon="2.66116">
        <ele>907.9</ele>
        <time>2014-05-29T09:24:57Z</time>
      </trkpt>
      <trkpt lat="45.42213" lon="2.66129">
        <ele>907.6</ele>
        <time>2014-05-29T09:25:00Z</time>
      </trkpt>
      <trkpt lat="45.42213" lon="2.6614">
        <ele>908.2</ele>
        <time>2014-05-29T09:25:03Z</time>
      </trkpt>
      <trkpt lat="45.42211" lon="2.66153">
        <ele>908.3</ele>
        <time>2014-05-29T09:25:08Z</time>
      </trkpt>
      <trkpt lat="45.42214" lon="2.66164">
        <ele>908.7</ele>
        <time>2014-05-29T09:25:14Z</time>
      </trkpt>
      <trkpt lat="45.42217" lon="2.66176">
        <ele>910.7</ele>
        <time>2014-05-29T09:25:23Z</time>
      </trkpt>
      <trkpt lat="45.42221" lon="2.66185">
        <ele>912.6</ele>
        <time>2014-05-29T09:25:29Z</time>
      </trkpt>
      <trkpt lat="45.42225" lon="2.66194">
        <ele>913.4</ele>
        <time>2014-05-29T09:25:34Z</time>
      </trkpt>
      <trkpt lat="45.4223" lon="2.66203">
        <ele>914.5</ele>
        <time>2014-05-29T09:25:39Z</time>
      </trkpt>
      <trkpt lat="45.42236" lon="2.66212">
        <ele>915.6</ele>
        <time>2014-05-29T09:25:44Z</time>
      </trkpt>
      <trkpt lat="45.4224" lon="2.66222">
        <ele>916.8</ele>
        <time>2014-05-29T09:25:49Z</time>
      </trkpt>
      <trkpt lat="45.42244" lon="2.66233">
        <ele>918.3</ele>
        <time>2014-05-29T09:25:55Z</time>
      </trkpt>
      <trkpt lat="45.42247" lon="2.66243">
        <ele>919.8</ele>
        <time>2014-05-29T09:26:00Z</time>
      </trkpt>
      <trkpt lat="45.42247" lon="2.66245">
        <ele>920.2</ele>
        <time>2014-05-29T09:26:01Z</time>
      </trkpt>
      <trkpt lat="45.42251" lon="2.66265">
        <ele>922.4</ele>
        <time>2014-05-29T09:26:11Z</time>
      </trkpt>
      <trkpt lat="45.42253" lon="2.66276">
        <ele>922.5</ele>
        <time>2014-05-29T09:26:17Z</time>
      </trkpt>
      <trkpt lat="45.42255" lon="2.66286">
        <ele>923.2</ele>
        <time>2014-05-29T09:26:22Z</time>
      </trkpt>
      <trkpt lat="45.42259" lon="2.66298">
        <ele>924.8</ele>
        <time>2014-05-29T09:26:29Z</time>
      </trkpt>
      <trkpt lat="45.42263" lon="2.66308">
        <ele>925.3</ele>
        <time>2014-05-29T09:26:35Z</time>
      </trkpt>
      <trkpt lat="45.42268" lon="2.66318">
        <ele>926.3</ele>
        <time>2014-05-29T09:26:43Z</time>
      </trkpt>
      <trkpt lat="45.42273" lon="2.66328">
        <ele>926.9</ele>
        <time>2014-05-29T09:26:51Z</time>
      </trkpt>
      <trkpt lat="45.42278" lon="2.66337">
        <ele>929.1</ele>
        <time>2014-05-29T09:27:00Z</time>
      </trkpt>
      <trkpt lat="45.42283" lon="2.66347">
        <ele>930.9</ele>
        <time>2014-05-29T09:27:09Z</time>
      </trkpt>
      <trkpt lat="45.42283" lon="2.66348">
        <ele>931.2</ele>
        <time>2014-05-29T09:27:10Z</time>
      </trkpt>
      <trkpt lat="45.42293" lon="2.66366">
        <ele>934.4</ele>
        <time>2014-05-29T09:27:30Z</time>
      </trkpt>
      <trkpt lat="45.42298" lon="2.66376">
        <ele>935.5</ele>
        <time>2014-05-29T09:27:39Z</time>
      </trkpt>
      <trkpt lat="45.42303" lon="2.66386">
        <ele>937.1</ele>
        <time>2014-05-29T09:27:49Z</time>
      </trkpt>
      <trkpt lat="45.42309" lon="2.66396">
        <ele>939.5</ele>
        <time>2014-05-29T09:28:01Z</time>
      </trkpt>
      <trkpt lat="45.42315" lon="2.66403">
        <ele>940.6</ele>
        <time>2014-05-29T09:28:08Z</time>
      </trkpt>
      <trkpt lat="45.42323" lon="2.66411">
        <ele>942.2</ele>
        <time>2014-05-29T09:28:13Z</time>
      </trkpt>
      <trkpt lat="45.42324" lon="2.66412">
        <ele>942.3</ele>
        <time>2014-05-29T09:28:14Z</time>
      </trkpt>
      <trkpt lat="45.42336" lon="2.66421">
        <ele>943</ele>
        <time>2014-05-29T09:28:21Z</time>
      </trkpt>
      <trkpt lat="45.42343" lon="2.66428">
        <ele>944.3</ele>
        <time>2014-05-29T09:28:25Z</time>
      </trkpt>
      <trkpt lat="45.4235" lon="2.66435">
        <ele>945.1</ele>
        <time>2014-05-29T09:28:29Z</time>
      </trkpt>
      <trkpt lat="45.42356" lon="2.6644">
        <ele>945.9</ele>
        <time>2014-05-29T09:28:32Z</time>
      </trkpt>
      <trkpt lat="45.42363" lon="2.66446">
        <ele>946.6</ele>
        <time>2014-05-29T09:28:35Z</time>
      </trkpt>
      <trkpt lat="45.4237" lon="2.66452">
        <ele>947.1</ele>
        <time>2014-05-29T09:28:38Z</time>
      </trkpt>
      <trkpt lat="45.42375" lon="2.66457">
        <ele>947.3</ele>
        <time>2014-05-29T09:28:40Z</time>
      </trkpt>
      <trkpt lat="45.42381" lon="2.66461">
        <ele>947.3</ele>
        <time>2014-05-29T09:28:42Z</time>
      </trkpt>
      <trkpt lat="45.42387" lon="2.66466">
        <ele>947.2</ele>
        <time>2014-05-29T09:28:44Z</time>
      </trkpt>
      <trkpt lat="45.42393" lon="2.66472">
        <ele>946.9</ele>
        <time>2014-05-29T09:28:46Z</time>
      </trkpt>
      <trkpt lat="45.42399" lon="2.66478">
        <ele>947</ele>
        <time>2014-05-29T09:28:48Z</time>
      </trkpt>
      <trkpt lat="45.42404" lon="2.66484">
        <ele>947.3</ele>
        <time>2014-05-29T09:28:50Z</time>
      </trkpt>
      <trkpt lat="45.4241" lon="2.66489">
        <ele>947.6</ele>
        <time>2014-05-29T09:28:52Z</time>
      </trkpt>
      <trkpt lat="45.42415" lon="2.66495">
        <ele>947.8</ele>
        <time>2014-05-29T09:28:54Z</time>
      </trkpt>
      <trkpt lat="45.42421" lon="2.66501">
        <ele>948.2</ele>
        <time>2014-05-29T09:28:56Z</time>
      </trkpt>
      <trkpt lat="45.42427" lon="2.66507">
        <ele>948</ele>
        <time>2014-05-29T09:28:58Z</time>
      </trkpt>
      <trkpt lat="45.42434" lon="2.66514">
        <ele>948.1</ele>
        <time>2014-05-29T09:29:00Z</time>
      </trkpt>
      <trkpt lat="45.42438" lon="2.66517">
        <ele>948.2</ele>
        <time>2014-05-29T09:29:01Z</time>
      </trkpt>
      <trkpt lat="45.42442" lon="2.66521">
        <ele>948</ele>
        <time>2014-05-29T09:29:02Z</time>
      </trkpt>
      <trkpt lat="45.42446" lon="2.66524">
        <ele>947.9</ele>
        <time>2014-05-29T09:29:03Z</time>
      </trkpt>
      <trkpt lat="45.4245" lon="2.66528">
        <ele>947.9</ele>
        <time>2014-05-29T09:29:04Z</time>
      </trkpt>
      <trkpt lat="45.42454" lon="2.66531">
        <ele>947.7</ele>
        <time>2014-05-29T09:29:05Z</time>
      </trkpt>
      <trkpt lat="45.42459" lon="2.66536">
        <ele>947.6</ele>
        <time>2014-05-29T09:29:06Z</time>
      </trkpt>
      <trkpt lat="45.42463" lon="2.6654">
        <ele>947.6</ele>
        <time>2014-05-29T09:29:07Z</time>
      </trkpt>
      <trkpt lat="45.42469" lon="2.66545">
        <ele>947.5</ele>
        <time>2014-05-29T09:29:08Z</time>
      </trkpt>
      <trkpt lat="45.42474" lon="2.66549">
        <ele>946.7</ele>
        <time>2014-05-29T09:29:09Z</time>
      </trkpt>
      <trkpt lat="45.4248" lon="2.66551">
        <ele>946.1</ele>
        <time>2014-05-29T09:29:10Z</time>
      </trkpt>
      <trkpt lat="45.42487" lon="2.66549">
        <ele>945.6</ele>
        <time>2014-05-29T09:29:11Z</time>
      </trkpt>
      <trkpt lat="45.42494" lon="2.66546">
        <ele>945.2</ele>
        <time>2014-05-29T09:29:12Z</time>
      </trkpt>
      <trkpt lat="45.42501" lon="2.66543">
        <ele>944.8</ele>
        <time>2014-05-29T09:29:13Z</time>
      </trkpt>
      <trkpt lat="45.42509" lon="2.66538">
        <ele>944.1</ele>
        <time>2014-05-29T09:29:14Z</time>
      </trkpt>
      <trkpt lat="45.42516" lon="2.66533">
        <ele>943.5</ele>
        <time>2014-05-29T09:29:15Z</time>
      </trkpt>
      <trkpt lat="45.42523" lon="2.66526">
        <ele>942.9</ele>
        <time>2014-05-29T09:29:16Z</time>
      </trkpt>
      <trkpt lat="45.42531" lon="2.66519">
        <ele>942.5</ele>
        <time>2014-05-29T09:29:17Z</time>
      </trkpt>
      <trkpt lat="45.42539" lon="2.66513">
        <ele>942.1</ele>
        <time>2014-05-29T09:29:18Z</time>
      </trkpt>
      <trkpt lat="45.42547" lon="2.66509">
        <ele>941.3</ele>
        <time>2014-05-29T09:29:19Z</time>
      </trkpt>
      <trkpt lat="45.42555" lon="2.66507">
        <ele>940.6</ele>
        <time>2014-05-29T09:29:20Z</time>
      </trkpt>
      <trkpt lat="45.42563" lon="2.66506">
        <ele>939.8</ele>
        <time>2014-05-29T09:29:21Z</time>
      </trkpt>
      <trkpt lat="45.4257" lon="2.66506">
        <ele>939.2</ele>
        <time>2014-05-29T09:29:22Z</time>
      </trkpt>
      <trkpt lat="45.42576" lon="2.66507">
        <ele>938.8</ele>
        <time>2014-05-29T09:29:23Z</time>
      </trkpt>
      <trkpt lat="45.42582" lon="2.66507">
        <ele>938.7</ele>
        <time>2014-05-29T09:29:24Z</time>
      </trkpt>
      <trkpt lat="45.42588" lon="2.66506">
        <ele>938.6</ele>
        <time>2014-05-29T09:29:25Z</time>
      </trkpt>
      <trkpt lat="45.42594" lon="2.66504">
        <ele>938.3</ele>
        <time>2014-05-29T09:29:26Z</time>
      </trkpt>
      <trkpt lat="45.426" lon="2.66504">
        <ele>938.1</ele>
        <time>2014-05-29T09:29:27Z</time>
      </trkpt>
      <trkpt lat="45.42606" lon="2.66506">
        <ele>938.1</ele>
        <time>2014-05-29T09:29:28Z</time>
      </trkpt>
      <trkpt lat="45.42611" lon="2.6651">
        <ele>938.1</ele>
        <time>2014-05-29T09:29:29Z</time>
      </trkpt>
      <trkpt lat="45.42614" lon="2.66515">
        <ele>938.1</ele>
        <time>2014-05-29T09:29:30Z</time>
      </trkpt>
      <trkpt lat="45.42617" lon="2.6652">
        <ele>938</ele>
        <time>2014-05-29T09:29:31Z</time>
      </trkpt>
      <trkpt lat="45.4262" lon="2.66525">
        <ele>937.8</ele>
        <time>2014-05-29T09:29:32Z</time>
      </trkpt>
      <trkpt lat="45.42625" lon="2.66535">
        <ele>938.3</ele>
        <time>2014-05-29T09:29:34Z</time>
      </trkpt>
      <trkpt lat="45.4263" lon="2.66544">
        <ele>938.2</ele>
        <time>2014-05-29T09:29:36Z</time>
      </trkpt>
      <trkpt lat="45.42635" lon="2.66553">
        <ele>938.7</ele>
        <time>2014-05-29T09:29:38Z</time>
      </trkpt>
      <trkpt lat="45.42639" lon="2.66562">
        <ele>939.3</ele>
        <time>2014-05-29T09:29:40Z</time>
      </trkpt>
      <trkpt lat="45.42644" lon="2.66569">
        <ele>939.7</ele>
        <time>2014-05-29T09:29:42Z</time>
      </trkpt>
      <trkpt lat="45.42649" lon="2.66577">
        <ele>940.2</ele>
        <time>2014-05-29T09:29:45Z</time>
      </trkpt>
      <trkpt lat="45.42654" lon="2.66586">
        <ele>941.7</ele>
        <time>2014-05-29T09:29:48Z</time>
      </trkpt>
      <trkpt lat="45.42659" lon="2.66593">
        <ele>942.6</ele>
        <time>2014-05-29T09:29:51Z</time>
      </trkpt>
      <trkpt lat="45.42663" lon="2.66603">
        <ele>943.4</ele>
        <time>2014-05-29T09:29:54Z</time>
      </trkpt>
      <trkpt lat="45.42668" lon="2.66612">
        <ele>943.8</ele>
        <time>2014-05-29T09:29:57Z</time>
      </trkpt>
      <trkpt lat="45.42672" lon="2.66622">
        <ele>944.9</ele>
        <time>2014-05-29T09:30:00Z</time>
      </trkpt>
      <trkpt lat="45.42677" lon="2.6663">
        <ele>946.3</ele>
        <time>2014-05-29T09:30:03Z</time>
      </trkpt>
      <trkpt lat="45.42681" lon="2.66639">
        <ele>947</ele>
        <time>2014-05-29T09:30:06Z</time>
      </trkpt>
      <trkpt lat="45.42686" lon="2.66649">
        <ele>947.8</ele>
        <time>2014-05-29T09:30:09Z</time>
      </trkpt>
      <trkpt lat="45.42692" lon="2.66659">
        <ele>947.9</ele>
        <time>2014-05-29T09:30:12Z</time>
      </trkpt>
      <trkpt lat="45.42697" lon="2.66669">
        <ele>949.3</ele>
        <time>2014-05-29T09:30:15Z</time>
      </trkpt>
      <trkpt lat="45.427" lon="2.66676">
        <ele>949.4</ele>
        <time>2014-05-29T09:30:17Z</time>
      </trkpt>
      <trkpt lat="45.42702" lon="2.6668">
        <ele>949.7</ele>
        <time>2014-05-29T09:30:18Z</time>
      </trkpt>
      <trkpt lat="45.42708" lon="2.66692">
        <ele>950</ele>
        <time>2014-05-29T09:30:21Z</time>
      </trkpt>
      <trkpt lat="45.42711" lon="2.667">
        <ele>950.3</ele>
        <time>2014-05-29T09:30:23Z</time>
      </trkpt>
      <trkpt lat="45.42713" lon="2.66705">
        <ele>950.5</ele>
        <time>2014-05-29T09:30:24Z</time>
      </trkpt>
      <trkpt lat="45.42716" lon="2.66711">
        <ele>950.7</ele>
        <time>2014-05-29T09:30:25Z</time>
      </trkpt>
      <trkpt lat="45.4272" lon="2.66721">
        <ele>951.1</ele>
        <time>2014-05-29T09:30:27Z</time>
      </trkpt>
      <trkpt lat="45.42723" lon="2.66731">
        <ele>950.6</ele>
        <time>2014-05-29T09:30:29Z</time>
      </trkpt>
      <trkpt lat="45.42726" lon="2.66742">
        <ele>950.7</ele>
        <time>2014-05-29T09:30:31Z</time>
      </trkpt>
      <trkpt lat="45.4273" lon="2.66753">
        <ele>951.2</ele>
        <time>2014-05-29T09:30:33Z</time>
      </trkpt>
      <trkpt lat="45.42733" lon="2.66763">
        <ele>951.5</ele>
        <time>2014-05-29T09:30:35Z</time>
      </trkpt>
      <trkpt lat="45.42736" lon="2.66773">
        <ele>951.6</ele>
        <time>2014-05-29T09:30:37Z</time>
      </trkpt>
      <trkpt lat="45.42739" lon="2.66783">
        <ele>951.5</ele>
        <time>2014-05-29T09:30:39Z</time>
      </trkpt>
      <trkpt lat="45.42742" lon="2.66792">
        <ele>951.5</ele>
        <time>2014-05-29T09:30:41Z</time>
      </trkpt>
      <trkpt lat="45.42745" lon="2.66802">
        <ele>952.1</ele>
        <time>2014-05-29T09:30:43Z</time>
      </trkpt>
      <trkpt lat="45.42748" lon="2.66813">
        <ele>952.3</ele>
        <time>2014-05-29T09:30:45Z</time>
      </trkpt>
      <trkpt lat="45.42752" lon="2.66824">
        <ele>952.2</ele>
        <time>2014-05-29T09:30:47Z</time>
      </trkpt>
      <trkpt lat="45.42755" lon="2.66836">
        <ele>952.4</ele>
        <time>2014-05-29T09:30:49Z</time>
      </trkpt>
      <trkpt lat="45.42756" lon="2.66842">
        <ele>952.6</ele>
        <time>2014-05-29T09:30:50Z</time>
      </trkpt>
      <trkpt lat="45.42757" lon="2.66849">
        <ele>952.8</ele>
        <time>2014-05-29T09:30:51Z</time>
      </trkpt>
      <trkpt lat="45.42757" lon="2.66855">
        <ele>952.9</ele>
        <time>2014-05-29T09:30:52Z</time>
      </trkpt>
      <trkpt lat="45.42757" lon="2.66862">
        <ele>953.1</ele>
        <time>2014-05-29T09:30:53Z</time>
      </trkpt>
      <trkpt lat="45.42756" lon="2.66874">
        <ele>953.3</ele>
        <time>2014-05-29T09:30:55Z</time>
      </trkpt>
      <trkpt lat="45.42753" lon="2.66886">
        <ele>952.6</ele>
        <time>2014-05-29T09:30:57Z</time>
      </trkpt>
      <trkpt lat="45.4275" lon="2.66897">
        <ele>952.7</ele>
        <time>2014-05-29T09:30:59Z</time>
      </trkpt>
      <trkpt lat="45.42747" lon="2.66908">
        <ele>953</ele>
        <time>2014-05-29T09:31:01Z</time>
      </trkpt>
      <trkpt lat="45.42744" lon="2.6692">
        <ele>953.4</ele>
        <time>2014-05-29T09:31:03Z</time>
      </trkpt>
      <trkpt lat="45.42743" lon="2.66926">
        <ele>953.4</ele>
        <time>2014-05-29T09:31:04Z</time>
      </trkpt>
      <trkpt lat="45.42743" lon="2.66933">
        <ele>953.5</ele>
        <time>2014-05-29T09:31:05Z</time>
      </trkpt>
      <trkpt lat="45.42743" lon="2.6694">
        <ele>953.5</ele>
        <time>2014-05-29T09:31:06Z</time>
      </trkpt>
      <trkpt lat="45.42745" lon="2.66947">
        <ele>953.5</ele>
        <time>2014-05-29T09:31:07Z</time>
      </trkpt>
      <trkpt lat="45.42748" lon="2.66953">
        <ele>953.5</ele>
        <time>2014-05-29T09:31:08Z</time>
      </trkpt>
      <trkpt lat="45.42752" lon="2.66958">
        <ele>953.5</ele>
        <time>2014-05-29T09:31:09Z</time>
      </trkpt>
      <trkpt lat="45.42757" lon="2.66962">
        <ele>953.3</ele>
        <time>2014-05-29T09:31:10Z</time>
      </trkpt>
      <trkpt lat="45.42762" lon="2.66964">
        <ele>953.2</ele>
        <time>2014-05-29T09:31:11Z</time>
      </trkpt>
      <trkpt lat="45.42767" lon="2.66967">
        <ele>953.1</ele>
        <time>2014-05-29T09:31:12Z</time>
      </trkpt>
      <trkpt lat="45.42772" lon="2.6697">
        <ele>953.1</ele>
        <time>2014-05-29T09:31:13Z</time>
      </trkpt>
      <trkpt lat="45.42778" lon="2.66972">
        <ele>953.1</ele>
        <time>2014-05-29T09:31:14Z</time>
      </trkpt>
      <trkpt lat="45.42784" lon="2.66974">
        <ele>953.3</ele>
        <time>2014-05-29T09:31:15Z</time>
      </trkpt>
      <trkpt lat="45.42789" lon="2.66977">
        <ele>953.4</ele>
        <time>2014-05-29T09:31:16Z</time>
      </trkpt>
      <trkpt lat="45.42795" lon="2.66981">
        <ele>953.1</ele>
        <time>2014-05-29T09:31:17Z</time>
      </trkpt>
      <trkpt lat="45.428" lon="2.66985">
        <ele>952.8</ele>
        <time>2014-05-29T09:31:18Z</time>
      </trkpt>
      <trkpt lat="45.42804" lon="2.6699">
        <ele>952.7</ele>
        <time>2014-05-29T09:31:19Z</time>
      </trkpt>
      <trkpt lat="45.42808" lon="2.66996">
        <ele>952.3</ele>
        <time>2014-05-29T09:31:20Z</time>
      </trkpt>
      <trkpt lat="45.4281" lon="2.67002">
        <ele>951.8</ele>
        <time>2014-05-29T09:31:21Z</time>
      </trkpt>
      <trkpt lat="45.42812" lon="2.67013">
        <ele>951.1</ele>
        <time>2014-05-29T09:31:23Z</time>
      </trkpt>
      <trkpt lat="45.42807" lon="2.67023">
        <ele>950.2</ele>
        <time>2014-05-29T09:31:26Z</time>
      </trkpt>
      <trkpt lat="45.428" lon="2.67025">
        <ele>950.1</ele>
        <time>2014-05-29T09:31:28Z</time>
      </trkpt>
      <trkpt lat="45.42791" lon="2.67027">
        <ele>949.9</ele>
        <time>2014-05-29T09:31:30Z</time>
      </trkpt>
      <trkpt lat="45.42783" lon="2.67027">
        <ele>949.3</ele>
        <time>2014-05-29T09:31:32Z</time>
      </trkpt>
      <trkpt lat="45.42774" lon="2.67024">
        <ele>948.1</ele>
        <time>2014-05-29T09:31:42Z</time>
      </trkpt>
      <trkpt lat="45.42766" lon="2.67025">
        <ele>946.9</ele>
        <time>2014-05-29T09:31:58Z</time>
      </trkpt>
      <trkpt lat="45.42758" lon="2.6703">
        <ele>946.3</ele>
        <time>2014-05-29T09:32:01Z</time>
      </trkpt>
      <trkpt lat="45.42751" lon="2.67034">
        <ele>946.2</ele>
        <time>2014-05-29T09:32:03Z</time>
      </trkpt>
      <trkpt lat="45.42744" lon="2.6704">
        <ele>946.3</ele>
        <time>2014-05-29T09:32:05Z</time>
      </trkpt>
      <trkpt lat="45.42741" lon="2.67043">
        <ele>946.5</ele>
        <time>2014-05-29T09:32:06Z</time>
      </trkpt>
      <trkpt lat="45.42737" lon="2.67048">
        <ele>946.1</ele>
        <time>2014-05-29T09:32:07Z</time>
      </trkpt>
      <trkpt lat="45.42733" lon="2.67058">
        <ele>945.6</ele>
        <time>2014-05-29T09:32:09Z</time>
      </trkpt>
      <trkpt lat="45.4273" lon="2.67067">
        <ele>944.8</ele>
        <time>2014-05-29T09:32:11Z</time>
      </trkpt>
      <trkpt lat="45.42727" lon="2.67076">
        <ele>944.5</ele>
        <time>2014-05-29T09:32:13Z</time>
      </trkpt>
      <trkpt lat="45.42723" lon="2.67087">
        <ele>944.2</ele>
        <time>2014-05-29T09:32:15Z</time>
      </trkpt>
      <trkpt lat="45.42719" lon="2.67097">
        <ele>944.3</ele>
        <time>2014-05-29T09:32:17Z</time>
      </trkpt>
      <trkpt lat="45.42717" lon="2.67107">
        <ele>944.2</ele>
        <time>2014-05-29T09:32:19Z</time>
      </trkpt>
      <trkpt lat="45.42717" lon="2.67116">
        <ele>944.2</ele>
        <time>2014-05-29T09:32:21Z</time>
      </trkpt>
      <trkpt lat="45.42718" lon="2.6712">
        <ele>944.4</ele>
        <time>2014-05-29T09:32:22Z</time>
      </trkpt>
      <trkpt lat="45.42719" lon="2.67141">
        <ele>944.3</ele>
        <time>2014-05-29T09:32:29Z</time>
      </trkpt>
      <trkpt lat="45.42721" lon="2.6715">
        <ele>945</ele>
        <time>2014-05-29T09:32:32Z</time>
      </trkpt>
      <trkpt lat="45.4272" lon="2.67159">
        <ele>944.6</ele>
        <time>2014-05-29T09:32:34Z</time>
      </trkpt>
      <trkpt lat="45.42717" lon="2.67169">
        <ele>944.5</ele>
        <time>2014-05-29T09:32:36Z</time>
      </trkpt>
      <trkpt lat="45.42719" lon="2.6718">
        <ele>944.4</ele>
        <time>2014-05-29T09:32:39Z</time>
      </trkpt>
      <trkpt lat="45.42727" lon="2.67184">
        <ele>944.9</ele>
        <time>2014-05-29T09:32:41Z</time>
      </trkpt>
      <trkpt lat="45.42734" lon="2.67186">
        <ele>945.3</ele>
        <time>2014-05-29T09:32:43Z</time>
      </trkpt>
      <trkpt lat="45.42741" lon="2.67189">
        <ele>945.8</ele>
        <time>2014-05-29T09:32:45Z</time>
      </trkpt>
      <trkpt lat="45.42748" lon="2.67191">
        <ele>946.3</ele>
        <time>2014-05-29T09:32:47Z</time>
      </trkpt>
      <trkpt lat="45.42755" lon="2.67195">
        <ele>946.6</ele>
        <time>2014-05-29T09:32:49Z</time>
      </trkpt>
      <trkpt lat="45.42761" lon="2.67199">
        <ele>947.6</ele>
        <time>2014-05-29T09:32:51Z</time>
      </trkpt>
      <trkpt lat="45.42765" lon="2.67207">
        <ele>948.2</ele>
        <time>2014-05-29T09:32:53Z</time>
      </trkpt>
      <trkpt lat="45.42766" lon="2.67219">
        <ele>949</ele>
        <time>2014-05-29T09:32:55Z</time>
      </trkpt>
      <trkpt lat="45.42765" lon="2.67226">
        <ele>949.4</ele>
        <time>2014-05-29T09:32:56Z</time>
      </trkpt>
      <trkpt lat="45.42765" lon="2.67233">
        <ele>949.5</ele>
        <time>2014-05-29T09:32:57Z</time>
      </trkpt>
      <trkpt lat="45.42764" lon="2.67241">
        <ele>949.6</ele>
        <time>2014-05-29T09:32:58Z</time>
      </trkpt>
      <trkpt lat="45.42764" lon="2.67249">
        <ele>949.6</ele>
        <time>2014-05-29T09:32:59Z</time>
      </trkpt>
      <trkpt lat="45.42764" lon="2.67258">
        <ele>949.6</ele>
        <time>2014-05-29T09:33:00Z</time>
      </trkpt>
      <trkpt lat="45.42765" lon="2.67266">
        <ele>949.7</ele>
        <time>2014-05-29T09:33:01Z</time>
      </trkpt>
      <trkpt lat="45.42766" lon="2.67275">
        <ele>949.3</ele>
        <time>2014-05-29T09:33:02Z</time>
      </trkpt>
      <trkpt lat="45.42767" lon="2.67285">
        <ele>949.1</ele>
        <time>2014-05-29T09:33:03Z</time>
      </trkpt>
      <trkpt lat="45.42768" lon="2.67294">
        <ele>948.9</ele>
        <time>2014-05-29T09:33:04Z</time>
      </trkpt>
      <trkpt lat="45.42769" lon="2.67303">
        <ele>948.7</ele>
        <time>2014-05-29T09:33:05Z</time>
      </trkpt>
      <trkpt lat="45.4277" lon="2.67313">
        <ele>948.9</ele>
        <time>2014-05-29T09:33:06Z</time>
      </trkpt>
      <trkpt lat="45.42772" lon="2.67322">
        <ele>949.1</ele>
        <time>2014-05-29T09:33:07Z</time>
      </trkpt>
      <trkpt lat="45.42773" lon="2.67332">
        <ele>949.2</ele>
        <time>2014-05-29T09:33:08Z</time>
      </trkpt>
      <trkpt lat="45.42774" lon="2.67343">
        <ele>949.3</ele>
        <time>2014-05-29T09:33:09Z</time>
      </trkpt>
      <trkpt lat="45.42774" lon="2.67354">
        <ele>949.4</ele>
        <time>2014-05-29T09:33:10Z</time>
      </trkpt>
      <trkpt lat="45.42773" lon="2.67365">
        <ele>949.3</ele>
        <time>2014-05-29T09:33:11Z</time>
      </trkpt>
      <trkpt lat="45.42771" lon="2.67376">
        <ele>949.2</ele>
        <time>2014-05-29T09:33:12Z</time>
      </trkpt>
      <trkpt lat="45.42768" lon="2.67387">
        <ele>949.2</ele>
        <time>2014-05-29T09:33:13Z</time>
      </trkpt>
      <trkpt lat="45.42766" lon="2.67399">
        <ele>948.2</ele>
        <time>2014-05-29T09:33:14Z</time>
      </trkpt>
      <trkpt lat="45.42765" lon="2.67411">
        <ele>947.4</ele>
        <time>2014-05-29T09:33:15Z</time>
      </trkpt>
      <trkpt lat="45.42766" lon="2.67423">
        <ele>947.1</ele>
        <time>2014-05-29T09:33:16Z</time>
      </trkpt>
      <trkpt lat="45.42769" lon="2.67434">
        <ele>946.9</ele>
        <time>2014-05-29T09:33:17Z</time>
      </trkpt>
      <trkpt lat="45.42772" lon="2.67445">
        <ele>946.3</ele>
        <time>2014-05-29T09:33:18Z</time>
      </trkpt>
      <trkpt lat="45.42775" lon="2.67455">
        <ele>945.9</ele>
        <time>2014-05-29T09:33:19Z</time>
      </trkpt>
      <trkpt lat="45.42778" lon="2.67463">
        <ele>945.7</ele>
        <time>2014-05-29T09:33:20Z</time>
      </trkpt>
      <trkpt lat="45.42783" lon="2.67472">
        <ele>943.6</ele>
        <time>2014-05-29T09:33:22Z</time>
      </trkpt>
      <trkpt lat="45.42786" lon="2.67483">
        <ele>942</ele>
        <time>2014-05-29T09:33:29Z</time>
      </trkpt>
      <trkpt lat="45.42786" lon="2.67485">
        <ele>942</ele>
        <time>2014-05-29T09:33:30Z</time>
      </trkpt>
      <trkpt lat="45.42784" lon="2.67506">
        <ele>940.1</ele>
        <time>2014-05-29T09:33:38Z</time>
      </trkpt>
      <trkpt lat="45.42784" lon="2.67515">
        <ele>940.2</ele>
        <time>2014-05-29T09:33:40Z</time>
      </trkpt>
      <trkpt lat="45.42784" lon="2.67526">
        <ele>940.2</ele>
        <time>2014-05-29T09:33:42Z</time>
      </trkpt>
      <trkpt lat="45.42783" lon="2.67538">
        <ele>939.8</ele>
        <time>2014-05-29T09:33:44Z</time>
      </trkpt>
      <trkpt lat="45.42782" lon="2.6755">
        <ele>939.9</ele>
        <time>2014-05-29T09:33:46Z</time>
      </trkpt>
      <trkpt lat="45.42781" lon="2.6756">
        <ele>939.7</ele>
        <time>2014-05-29T09:33:48Z</time>
      </trkpt>
      <trkpt lat="45.42781" lon="2.67571">
        <ele>939.3</ele>
        <time>2014-05-29T09:33:51Z</time>
      </trkpt>
      <trkpt lat="45.42778" lon="2.67583">
        <ele>938.5</ele>
        <time>2014-05-29T09:33:55Z</time>
      </trkpt>
      <trkpt lat="45.42778" lon="2.67593">
        <ele>939.9</ele>
        <time>2014-05-29T09:33:58Z</time>
      </trkpt>
      <trkpt lat="45.42776" lon="2.67605">
        <ele>940.1</ele>
        <time>2014-05-29T09:34:01Z</time>
      </trkpt>
      <trkpt lat="45.42774" lon="2.67615">
        <ele>939.9</ele>
        <time>2014-05-29T09:34:03Z</time>
      </trkpt>
      <trkpt lat="45.42771" lon="2.67625">
        <ele>940.3</ele>
        <time>2014-05-29T09:34:05Z</time>
      </trkpt>
      <trkpt lat="45.42768" lon="2.67636">
        <ele>940.5</ele>
        <time>2014-05-29T09:34:07Z</time>
      </trkpt>
      <trkpt lat="45.42766" lon="2.67642">
        <ele>940.6</ele>
        <time>2014-05-29T09:34:08Z</time>
      </trkpt>
      <trkpt lat="45.42765" lon="2.67649">
        <ele>940.6</ele>
        <time>2014-05-29T09:34:09Z</time>
      </trkpt>
      <trkpt lat="45.42764" lon="2.67655">
        <ele>940.7</ele>
        <time>2014-05-29T09:34:10Z</time>
      </trkpt>
      <trkpt lat="45.42764" lon="2.67662">
        <ele>941.1</ele>
        <time>2014-05-29T09:34:11Z</time>
      </trkpt>
      <trkpt lat="45.42764" lon="2.67668">
        <ele>941.3</ele>
        <time>2014-05-29T09:34:12Z</time>
      </trkpt>
      <trkpt lat="45.42765" lon="2.67675">
        <ele>941.3</ele>
        <time>2014-05-29T09:34:13Z</time>
      </trkpt>
      <trkpt lat="45.42769" lon="2.67686">
        <ele>941.2</ele>
        <time>2014-05-29T09:34:15Z</time>
      </trkpt>
      <trkpt lat="45.42773" lon="2.67695">
        <ele>941.1</ele>
        <time>2014-05-29T09:34:17Z</time>
      </trkpt>
      <trkpt lat="45.42778" lon="2.67705">
        <ele>941.3</ele>
        <time>2014-05-29T09:34:19Z</time>
      </trkpt>
      <trkpt lat="45.42782" lon="2.67715">
        <ele>941.6</ele>
        <time>2014-05-29T09:34:21Z</time>
      </trkpt>
      <trkpt lat="45.42787" lon="2.67725">
        <ele>942.2</ele>
        <time>2014-05-29T09:34:23Z</time>
      </trkpt>
      <trkpt lat="45.42792" lon="2.67734">
        <ele>942.4</ele>
        <time>2014-05-29T09:34:25Z</time>
      </trkpt>
      <trkpt lat="45.42798" lon="2.67744">
        <ele>942.4</ele>
        <time>2014-05-29T09:34:27Z</time>
      </trkpt>
      <trkpt lat="45.42803" lon="2.67753">
        <ele>942.3</ele>
        <time>2014-05-29T09:34:29Z</time>
      </trkpt>
      <trkpt lat="45.42806" lon="2.67758">
        <ele>942.3</ele>
        <time>2014-05-29T09:34:30Z</time>
      </trkpt>
      <trkpt lat="45.42809" lon="2.67766">
        <ele>942.3</ele>
        <time>2014-05-29T09:34:31Z</time>
      </trkpt>
      <trkpt lat="45.42811" lon="2.67772">
        <ele>942.1</ele>
        <time>2014-05-29T09:34:32Z</time>
      </trkpt>
      <trkpt lat="45.42812" lon="2.67784">
        <ele>942.5</ele>
        <time>2014-05-29T09:34:34Z</time>
      </trkpt>
      <trkpt lat="45.42812" lon="2.67791">
        <ele>942.9</ele>
        <time>2014-05-29T09:34:35Z</time>
      </trkpt>
      <trkpt lat="45.42812" lon="2.67798">
        <ele>943.2</ele>
        <time>2014-05-29T09:34:36Z</time>
      </trkpt>
      <trkpt lat="45.42811" lon="2.67805">
        <ele>943.1</ele>
        <time>2014-05-29T09:34:37Z</time>
      </trkpt>
      <trkpt lat="45.4281" lon="2.67812">
        <ele>943</ele>
        <time>2014-05-29T09:34:38Z</time>
      </trkpt>
      <trkpt lat="45.42809" lon="2.67819">
        <ele>942.9</ele>
        <time>2014-05-29T09:34:39Z</time>
      </trkpt>
      <trkpt lat="45.42808" lon="2.67825">
        <ele>942.9</ele>
        <time>2014-05-29T09:34:40Z</time>
      </trkpt>
      <trkpt lat="45.42807" lon="2.67831">
        <ele>943.1</ele>
        <time>2014-05-29T09:34:41Z</time>
      </trkpt>
      <trkpt lat="45.42804" lon="2.67838">
        <ele>943.2</ele>
        <time>2014-05-29T09:34:42Z</time>
      </trkpt>
      <trkpt lat="45.42801" lon="2.67849">
        <ele>943.4</ele>
        <time>2014-05-29T09:34:44Z</time>
      </trkpt>
      <trkpt lat="45.42797" lon="2.67859">
        <ele>943.6</ele>
        <time>2014-05-29T09:34:46Z</time>
      </trkpt>
      <trkpt lat="45.42795" lon="2.67871">
        <ele>943.7</ele>
        <time>2014-05-29T09:34:48Z</time>
      </trkpt>
      <trkpt lat="45.42793" lon="2.67881">
        <ele>944.5</ele>
        <time>2014-05-29T09:34:50Z</time>
      </trkpt>
      <trkpt lat="45.42794" lon="2.67892">
        <ele>945.6</ele>
        <time>2014-05-29T09:34:52Z</time>
      </trkpt>
      <trkpt lat="45.42797" lon="2.67903">
        <ele>945.7</ele>
        <time>2014-05-29T09:34:54Z</time>
      </trkpt>
      <trkpt lat="45.42799" lon="2.67914">
        <ele>945.4</ele>
        <time>2014-05-29T09:34:56Z</time>
      </trkpt>
      <trkpt lat="45.428" lon="2.67921">
        <ele>945.2</ele>
        <time>2014-05-29T09:34:57Z</time>
      </trkpt>
      <trkpt lat="45.428" lon="2.67927">
        <ele>945.2</ele>
        <time>2014-05-29T09:34:58Z</time>
      </trkpt>
      <trkpt lat="45.42799" lon="2.67934">
        <ele>945.1</ele>
        <time>2014-05-29T09:34:59Z</time>
      </trkpt>
      <trkpt lat="45.42797" lon="2.67941">
        <ele>945</ele>
        <time>2014-05-29T09:35:00Z</time>
      </trkpt>
      <trkpt lat="45.42794" lon="2.67946">
        <ele>944.8</ele>
        <time>2014-05-29T09:35:01Z</time>
      </trkpt>
      <trkpt lat="45.42792" lon="2.67952">
        <ele>944.8</ele>
        <time>2014-05-29T09:35:02Z</time>
      </trkpt>
      <trkpt lat="45.42786" lon="2.67961">
        <ele>944.7</ele>
        <time>2014-05-29T09:35:04Z</time>
      </trkpt>
      <trkpt lat="45.42781" lon="2.6797">
        <ele>944.5</ele>
        <time>2014-05-29T09:35:06Z</time>
      </trkpt>
      <trkpt lat="45.42776" lon="2.67977">
        <ele>944.3</ele>
        <time>2014-05-29T09:35:08Z</time>
      </trkpt>
      <trkpt lat="45.42781" lon="2.67987">
        <ele>945.2</ele>
        <time>2014-05-29T09:35:13Z</time>
      </trkpt>
      <trkpt lat="45.4279" lon="2.67987">
        <ele>946.2</ele>
        <time>2014-05-29T09:35:17Z</time>
      </trkpt>
      <trkpt lat="45.42798" lon="2.67991">
        <ele>947.6</ele>
        <time>2014-05-29T09:35:22Z</time>
      </trkpt>
      <trkpt lat="45.42805" lon="2.67996">
        <ele>948</ele>
        <time>2014-05-29T09:35:26Z</time>
      </trkpt>
      <trkpt lat="45.42812" lon="2.67997">
        <ele>948.2</ele>
        <time>2014-05-29T09:35:30Z</time>
      </trkpt>
      <trkpt lat="45.4282" lon="2.67994">
        <ele>949.4</ele>
        <time>2014-05-29T09:35:38Z</time>
      </trkpt>
      <trkpt lat="45.42821" lon="2.67993">
        <ele>949.5</ele>
        <time>2014-05-29T09:35:39Z</time>
      </trkpt>
      <trkpt lat="45.42834" lon="2.6798">
        <ele>951.7</ele>
        <time>2014-05-29T09:35:57Z</time>
      </trkpt>
      <trkpt lat="45.42838" lon="2.67969">
        <ele>953</ele>
        <time>2014-05-29T09:36:10Z</time>
      </trkpt>
      <trkpt lat="45.42841" lon="2.67958">
        <ele>953.8</ele>
        <time>2014-05-29T09:36:18Z</time>
      </trkpt>
      <trkpt lat="45.42848" lon="2.67952">
        <ele>956</ele>
        <time>2014-05-29T09:36:23Z</time>
      </trkpt>
      <trkpt lat="45.42854" lon="2.67947">
        <ele>955.9</ele>
        <time>2014-05-29T09:36:27Z</time>
      </trkpt>
      <trkpt lat="45.42862" lon="2.67944">
        <ele>956.8</ele>
        <time>2014-05-29T09:36:31Z</time>
      </trkpt>
      <trkpt lat="45.4287" lon="2.67939">
        <ele>957.4</ele>
        <time>2014-05-29T09:36:37Z</time>
      </trkpt>
      <trkpt lat="45.42877" lon="2.67935">
        <ele>957.9</ele>
        <time>2014-05-29T09:36:41Z</time>
      </trkpt>
      <trkpt lat="45.42879" lon="2.67934">
        <ele>958.6</ele>
        <time>2014-05-29T09:36:42Z</time>
      </trkpt>
      <trkpt lat="45.42889" lon="2.67928">
        <ele>959.6</ele>
        <time>2014-05-29T09:36:46Z</time>
      </trkpt>
      <trkpt lat="45.42895" lon="2.67925">
        <ele>959.9</ele>
        <time>2014-05-29T09:36:48Z</time>
      </trkpt>
      <trkpt lat="45.42902" lon="2.67921">
        <ele>960.2</ele>
        <time>2014-05-29T09:36:50Z</time>
      </trkpt>
      <trkpt lat="45.42909" lon="2.67917">
        <ele>960.2</ele>
        <time>2014-05-29T09:36:52Z</time>
      </trkpt>
      <trkpt lat="45.42916" lon="2.67914">
        <ele>959.8</ele>
        <time>2014-05-29T09:36:54Z</time>
      </trkpt>
      <trkpt lat="45.42923" lon="2.67914">
        <ele>959.4</ele>
        <time>2014-05-29T09:36:56Z</time>
      </trkpt>
      <trkpt lat="45.4293" lon="2.67915">
        <ele>959.5</ele>
        <time>2014-05-29T09:36:58Z</time>
      </trkpt>
      <trkpt lat="45.42939" lon="2.67916">
        <ele>959.6</ele>
        <time>2014-05-29T09:37:00Z</time>
      </trkpt>
      <trkpt lat="45.42947" lon="2.67917">
        <ele>958.8</ele>
        <time>2014-05-29T09:37:02Z</time>
      </trkpt>
      <trkpt lat="45.42955" lon="2.67918">
        <ele>958.1</ele>
        <time>2014-05-29T09:37:05Z</time>
      </trkpt>
      <trkpt lat="45.42962" lon="2.67919">
        <ele>958.6</ele>
        <time>2014-05-29T09:37:07Z</time>
      </trkpt>
      <trkpt lat="45.4297" lon="2.67921">
        <ele>959.7</ele>
        <time>2014-05-29T09:37:10Z</time>
      </trkpt>
      <trkpt lat="45.42979" lon="2.67923">
        <ele>960.2</ele>
        <time>2014-05-29T09:37:13Z</time>
      </trkpt>
      <trkpt lat="45.42988" lon="2.67924">
        <ele>960.7</ele>
        <time>2014-05-29T09:37:16Z</time>
      </trkpt>
      <trkpt lat="45.42996" lon="2.67922">
        <ele>960.5</ele>
        <time>2014-05-29T09:37:19Z</time>
      </trkpt>
      <trkpt lat="45.43003" lon="2.67914">
        <ele>961.7</ele>
        <time>2014-05-29T09:37:22Z</time>
      </trkpt>
      <trkpt lat="45.43006" lon="2.67905">
        <ele>960.6</ele>
        <time>2014-05-29T09:37:25Z</time>
      </trkpt>
      <trkpt lat="45.43008" lon="2.67897">
        <ele>960.2</ele>
        <time>2014-05-29T09:37:27Z</time>
      </trkpt>
      <trkpt lat="45.43012" lon="2.67888">
        <ele>959.9</ele>
        <time>2014-05-29T09:37:29Z</time>
      </trkpt>
      <trkpt lat="45.43015" lon="2.6788">
        <ele>960.4</ele>
        <time>2014-05-29T09:37:31Z</time>
      </trkpt>
      <trkpt lat="45.43019" lon="2.6787">
        <ele>961.6</ele>
        <time>2014-05-29T09:37:34Z</time>
      </trkpt>
      <trkpt lat="45.43024" lon="2.6786">
        <ele>962.3</ele>
        <time>2014-05-29T09:37:38Z</time>
      </trkpt>
      <trkpt lat="45.43028" lon="2.67851">
        <ele>964.1</ele>
        <time>2014-05-29T09:37:42Z</time>
      </trkpt>
      <trkpt lat="45.43032" lon="2.6784">
        <ele>965.6</ele>
        <time>2014-05-29T09:37:47Z</time>
      </trkpt>
      <trkpt lat="45.43032" lon="2.67838">
        <ele>966.1</ele>
        <time>2014-05-29T09:37:48Z</time>
      </trkpt>
      <trkpt lat="45.43038" lon="2.67819">
        <ele>967.9</ele>
        <time>2014-05-29T09:37:57Z</time>
      </trkpt>
      <trkpt lat="45.43042" lon="2.67808">
        <ele>969.8</ele>
        <time>2014-05-29T09:38:02Z</time>
      </trkpt>
      <trkpt lat="45.43045" lon="2.67797">
        <ele>971.7</ele>
        <time>2014-05-29T09:38:07Z</time>
      </trkpt>
      <trkpt lat="45.4305" lon="2.67786">
        <ele>973</ele>
        <time>2014-05-29T09:38:13Z</time>
      </trkpt>
      <trkpt lat="45.43055" lon="2.67776">
        <ele>973.8</ele>
        <time>2014-05-29T09:38:19Z</time>
      </trkpt>
      <trkpt lat="45.4306" lon="2.6777">
        <ele>975</ele>
        <time>2014-05-29T09:38:23Z</time>
      </trkpt>
      <trkpt lat="45.43067" lon="2.67761">
        <ele>974.9</ele>
        <time>2014-05-29T09:38:26Z</time>
      </trkpt>
      <trkpt lat="45.43074" lon="2.67754">
        <ele>974.4</ele>
        <time>2014-05-29T09:38:28Z</time>
      </trkpt>
      <trkpt lat="45.43079" lon="2.67748">
        <ele>974</ele>
        <time>2014-05-29T09:38:29Z</time>
      </trkpt>
      <trkpt lat="45.43084" lon="2.67743">
        <ele>973.7</ele>
        <time>2014-05-29T09:38:30Z</time>
      </trkpt>
      <trkpt lat="45.43089" lon="2.67738">
        <ele>973.5</ele>
        <time>2014-05-29T09:38:31Z</time>
      </trkpt>
      <trkpt lat="45.43093" lon="2.67733">
        <ele>973.1</ele>
        <time>2014-05-29T09:38:32Z</time>
      </trkpt>
      <trkpt lat="45.43099" lon="2.67723">
        <ele>972.6</ele>
        <time>2014-05-29T09:38:35Z</time>
      </trkpt>
      <trkpt lat="45.43106" lon="2.67718">
        <ele>973.6</ele>
        <time>2014-05-29T09:38:41Z</time>
      </trkpt>
      <trkpt lat="45.43114" lon="2.67719">
        <ele>975.3</ele>
        <time>2014-05-29T09:38:47Z</time>
      </trkpt>
      <trkpt lat="45.43122" lon="2.6772">
        <ele>976.1</ele>
        <time>2014-05-29T09:38:53Z</time>
      </trkpt>
      <trkpt lat="45.43124" lon="2.6772">
        <ele>976.5</ele>
        <time>2014-05-29T09:38:54Z</time>
      </trkpt>
      <trkpt lat="45.43137" lon="2.67727">
        <ele>979.7</ele>
        <time>2014-05-29T09:39:03Z</time>
      </trkpt>
      <trkpt lat="45.43143" lon="2.67732">
        <ele>979.3</ele>
        <time>2014-05-29T09:39:06Z</time>
      </trkpt>
      <trkpt lat="45.43149" lon="2.67736">
        <ele>979.8</ele>
        <time>2014-05-29T09:39:08Z</time>
      </trkpt>
      <trkpt lat="45.43158" lon="2.67738">
        <ele>979.9</ele>
        <time>2014-05-29T09:39:11Z</time>
      </trkpt>
      <trkpt lat="45.43167" lon="2.6774">
        <ele>980.6</ele>
        <time>2014-05-29T09:39:14Z</time>
      </trkpt>
      <trkpt lat="45.43173" lon="2.6774">
        <ele>980.6</ele>
        <time>2014-05-29T09:39:16Z</time>
      </trkpt>
      <trkpt lat="45.43179" lon="2.67741">
        <ele>980.3</ele>
        <time>2014-05-29T09:39:18Z</time>
      </trkpt>
      <trkpt lat="45.43185" lon="2.67741">
        <ele>980.6</ele>
        <time>2014-05-29T09:39:20Z</time>
      </trkpt>
      <trkpt lat="45.43191" lon="2.67741">
        <ele>981</ele>
        <time>2014-05-29T09:39:22Z</time>
      </trkpt>
      <trkpt lat="45.43199" lon="2.67742">
        <ele>981.1</ele>
        <time>2014-05-29T09:39:25Z</time>
      </trkpt>
      <trkpt lat="45.43208" lon="2.67745">
        <ele>982.7</ele>
        <time>2014-05-29T09:39:29Z</time>
      </trkpt>
      <trkpt lat="45.43215" lon="2.67749">
        <ele>983</ele>
        <time>2014-05-29T09:39:33Z</time>
      </trkpt>
      <trkpt lat="45.43223" lon="2.67751">
        <ele>984.2</ele>
        <time>2014-05-29T09:39:37Z</time>
      </trkpt>
      <trkpt lat="45.43231" lon="2.67755">
        <ele>985.4</ele>
        <time>2014-05-29T09:39:41Z</time>
      </trkpt>
      <trkpt lat="45.43237" lon="2.67762">
        <ele>986.3</ele>
        <time>2014-05-29T09:39:45Z</time>
      </trkpt>
      <trkpt lat="45.43242" lon="2.67769">
        <ele>987.4</ele>
        <time>2014-05-29T09:39:49Z</time>
      </trkpt>
      <trkpt lat="45.43248" lon="2.67776">
        <ele>988.9</ele>
        <time>2014-05-29T09:39:53Z</time>
      </trkpt>
      <trkpt lat="45.43255" lon="2.67783">
        <ele>989.8</ele>
        <time>2014-05-29T09:39:57Z</time>
      </trkpt>
      <trkpt lat="45.43256" lon="2.67785">
        <ele>989.8</ele>
        <time>2014-05-29T09:39:58Z</time>
      </trkpt>
      <trkpt lat="45.4327" lon="2.67792">
        <ele>990.7</ele>
        <time>2014-05-29T09:40:05Z</time>
      </trkpt>
      <trkpt lat="45.43278" lon="2.67795">
        <ele>991</ele>
        <time>2014-05-29T09:40:08Z</time>
      </trkpt>
      <trkpt lat="45.43286" lon="2.67799">
        <ele>991.9</ele>
        <time>2014-05-29T09:40:12Z</time>
      </trkpt>
      <trkpt lat="45.43293" lon="2.67803">
        <ele>993.2</ele>
        <time>2014-05-29T09:40:16Z</time>
      </trkpt>
      <trkpt lat="45.43298" lon="2.67812">
        <ele>993.9</ele>
        <time>2014-05-29T09:40:21Z</time>
      </trkpt>
      <trkpt lat="45.43301" lon="2.67823">
        <ele>994.8</ele>
        <time>2014-05-29T09:40:25Z</time>
      </trkpt>
      <trkpt lat="45.43303" lon="2.67833">
        <ele>994.8</ele>
        <time>2014-05-29T09:40:28Z</time>
      </trkpt>
      <trkpt lat="45.43305" lon="2.67844">
        <ele>995</ele>
        <time>2014-05-29T09:40:31Z</time>
      </trkpt>
      <trkpt lat="45.43308" lon="2.67855">
        <ele>995.5</ele>
        <time>2014-05-29T09:40:35Z</time>
      </trkpt>
      <trkpt lat="45.4331" lon="2.67864">
        <ele>995.9</ele>
        <time>2014-05-29T09:40:37Z</time>
      </trkpt>
      <trkpt lat="45.43313" lon="2.67872">
        <ele>996.4</ele>
        <time>2014-05-29T09:40:39Z</time>
      </trkpt>
      <trkpt lat="45.43317" lon="2.67883">
        <ele>996.2</ele>
        <time>2014-05-29T09:40:41Z</time>
      </trkpt>
      <trkpt lat="45.43319" lon="2.67888">
        <ele>996.4</ele>
        <time>2014-05-29T09:40:42Z</time>
      </trkpt>
      <trkpt lat="45.43321" lon="2.67894">
        <ele>996.5</ele>
        <time>2014-05-29T09:40:43Z</time>
      </trkpt>
      <trkpt lat="45.43324" lon="2.67901">
        <ele>996.3</ele>
        <time>2014-05-29T09:40:44Z</time>
      </trkpt>
      <trkpt lat="45.43326" lon="2.67908">
        <ele>996.2</ele>
        <time>2014-05-29T09:40:45Z</time>
      </trkpt>
      <trkpt lat="45.43327" lon="2.67915">
        <ele>996.1</ele>
        <time>2014-05-29T09:40:46Z</time>
      </trkpt>
      <trkpt lat="45.43329" lon="2.67922">
        <ele>995.7</ele>
        <time>2014-05-29T09:40:47Z</time>
      </trkpt>
      <trkpt lat="45.43331" lon="2.67929">
        <ele>995.5</ele>
        <time>2014-05-29T09:40:48Z</time>
      </trkpt>
      <trkpt lat="45.43333" lon="2.67936">
        <ele>995.6</ele>
        <time>2014-05-29T09:40:49Z</time>
      </trkpt>
      <trkpt lat="45.43335" lon="2.67942">
        <ele>995.7</ele>
        <time>2014-05-29T09:40:50Z</time>
      </trkpt>
      <trkpt lat="45.43339" lon="2.67954">
        <ele>995.8</ele>
        <time>2014-05-29T09:40:52Z</time>
      </trkpt>
      <trkpt lat="45.4334" lon="2.6796">
        <ele>995.9</ele>
        <time>2014-05-29T09:40:53Z</time>
      </trkpt>
      <trkpt lat="45.43342" lon="2.67966">
        <ele>995.9</ele>
        <time>2014-05-29T09:40:54Z</time>
      </trkpt>
      <trkpt lat="45.43344" lon="2.67973">
        <ele>995.9</ele>
        <time>2014-05-29T09:40:55Z</time>
      </trkpt>
      <trkpt lat="45.43346" lon="2.67982">
        <ele>995.6</ele>
        <time>2014-05-29T09:40:56Z</time>
      </trkpt>
      <trkpt lat="45.43348" lon="2.6799">
        <ele>995.4</ele>
        <time>2014-05-29T09:40:57Z</time>
      </trkpt>
      <trkpt lat="45.43351" lon="2.67998">
        <ele>995.2</ele>
        <time>2014-05-29T09:40:58Z</time>
      </trkpt>
      <trkpt lat="45.43353" lon="2.68007">
        <ele>995.3</ele>
        <time>2014-05-29T09:40:59Z</time>
      </trkpt>
      <trkpt lat="45.43355" lon="2.68015">
        <ele>995.3</ele>
        <time>2014-05-29T09:41:00Z</time>
      </trkpt>
      <trkpt lat="45.43357" lon="2.68023">
        <ele>995.4</ele>
        <time>2014-05-29T09:41:01Z</time>
      </trkpt>
      <trkpt lat="45.43359" lon="2.68032">
        <ele>995.5</ele>
        <time>2014-05-29T09:41:02Z</time>
      </trkpt>
      <trkpt lat="45.43362" lon="2.6804">
        <ele>995.2</ele>
        <time>2014-05-29T09:41:03Z</time>
      </trkpt>
      <trkpt lat="45.43364" lon="2.68049">
        <ele>995</ele>
        <time>2014-05-29T09:41:04Z</time>
      </trkpt>
      <trkpt lat="45.43366" lon="2.68058">
        <ele>994.8</ele>
        <time>2014-05-29T09:41:05Z</time>
      </trkpt>
      <trkpt lat="45.43368" lon="2.68067">
        <ele>994.7</ele>
        <time>2014-05-29T09:41:06Z</time>
      </trkpt>
      <trkpt lat="45.4337" lon="2.68075">
        <ele>994.5</ele>
        <time>2014-05-29T09:41:07Z</time>
      </trkpt>
      <trkpt lat="45.43372" lon="2.68084">
        <ele>994.7</ele>
        <time>2014-05-29T09:41:08Z</time>
      </trkpt>
      <trkpt lat="45.43374" lon="2.68093">
        <ele>994.8</ele>
        <time>2014-05-29T09:41:09Z</time>
      </trkpt>
      <trkpt lat="45.43377" lon="2.68102">
        <ele>994.8</ele>
        <time>2014-05-29T09:41:10Z</time>
      </trkpt>
      <trkpt lat="45.43379" lon="2.68111">
        <ele>994.5</ele>
        <time>2014-05-29T09:41:11Z</time>
      </trkpt>
      <trkpt lat="45.43382" lon="2.6812">
        <ele>994.3</ele>
        <time>2014-05-29T09:41:12Z</time>
      </trkpt>
      <trkpt lat="45.43385" lon="2.68128">
        <ele>993.9</ele>
        <time>2014-05-29T09:41:13Z</time>
      </trkpt>
      <trkpt lat="45.43388" lon="2.68137">
        <ele>993.5</ele>
        <time>2014-05-29T09:41:14Z</time>
      </trkpt>
      <trkpt lat="45.43391" lon="2.68145">
        <ele>993.5</ele>
        <time>2014-05-29T09:41:15Z</time>
      </trkpt>
      <trkpt lat="45.43395" lon="2.68154">
        <ele>993.5</ele>
        <time>2014-05-29T09:41:16Z</time>
      </trkpt>
      <trkpt lat="45.43398" lon="2.68163">
        <ele>993.5</ele>
        <time>2014-05-29T09:41:17Z</time>
      </trkpt>
      <trkpt lat="45.434" lon="2.68171">
        <ele>993.5</ele>
        <time>2014-05-29T09:41:18Z</time>
      </trkpt>
      <trkpt lat="45.43403" lon="2.6818">
        <ele>993.5</ele>
        <time>2014-05-29T09:41:19Z</time>
      </trkpt>
      <trkpt lat="45.43406" lon="2.68188">
        <ele>993.6</ele>
        <time>2014-05-29T09:41:20Z</time>
      </trkpt>
      <trkpt lat="45.43408" lon="2.68196">
        <ele>993.6</ele>
        <time>2014-05-29T09:41:21Z</time>
      </trkpt>
      <trkpt lat="45.43411" lon="2.68204">
        <ele>993.5</ele>
        <time>2014-05-29T09:41:22Z</time>
      </trkpt>
      <trkpt lat="45.43413" lon="2.68213">
        <ele>993.4</ele>
        <time>2014-05-29T09:41:23Z</time>
      </trkpt>
      <trkpt lat="45.43416" lon="2.68221">
        <ele>993.3</ele>
        <time>2014-05-29T09:41:24Z</time>
      </trkpt>
      <trkpt lat="45.43418" lon="2.6823">
        <ele>993.2</ele>
        <time>2014-05-29T09:41:25Z</time>
      </trkpt>
      <trkpt lat="45.4342" lon="2.68239">
        <ele>993.2</ele>
        <time>2014-05-29T09:41:26Z</time>
      </trkpt>
      <trkpt lat="45.43422" lon="2.68249">
        <ele>993</ele>
        <time>2014-05-29T09:41:27Z</time>
      </trkpt>
      <trkpt lat="45.43423" lon="2.68258">
        <ele>992.9</ele>
        <time>2014-05-29T09:41:28Z</time>
      </trkpt>
      <trkpt lat="45.43425" lon="2.68266">
        <ele>992.8</ele>
        <time>2014-05-29T09:41:29Z</time>
      </trkpt>
      <trkpt lat="45.43425" lon="2.68275">
        <ele>992.7</ele>
        <time>2014-05-29T09:41:30Z</time>
      </trkpt>
      <trkpt lat="45.43425" lon="2.68284">
        <ele>992.6</ele>
        <time>2014-05-29T09:41:31Z</time>
      </trkpt>
      <trkpt lat="45.43423" lon="2.68292">
        <ele>992.7</ele>
        <time>2014-05-29T09:41:32Z</time>
      </trkpt>
      <trkpt lat="45.43422" lon="2.68299">
        <ele>992.7</ele>
        <time>2014-05-29T09:41:33Z</time>
      </trkpt>
      <trkpt lat="45.4342" lon="2.68305">
        <ele>992.7</ele>
        <time>2014-05-29T09:41:34Z</time>
      </trkpt>
      <trkpt lat="45.43417" lon="2.68317">
        <ele>992.7</ele>
        <time>2014-05-29T09:41:36Z</time>
      </trkpt>
      <trkpt lat="45.43414" lon="2.68326">
        <ele>993.6</ele>
        <time>2014-05-29T09:41:38Z</time>
      </trkpt>
      <trkpt lat="45.43412" lon="2.68334">
        <ele>994</ele>
        <time>2014-05-29T09:41:40Z</time>
      </trkpt>
      <trkpt lat="45.43407" lon="2.68344">
        <ele>995.2</ele>
        <time>2014-05-29T09:41:43Z</time>
      </trkpt>
      <trkpt lat="45.43402" lon="2.68354">
        <ele>995.3</ele>
        <time>2014-05-29T09:41:46Z</time>
      </trkpt>
      <trkpt lat="45.43396" lon="2.68362">
        <ele>996.5</ele>
        <time>2014-05-29T09:41:50Z</time>
      </trkpt>
      <trkpt lat="45.4339" lon="2.68369">
        <ele>997.8</ele>
        <time>2014-05-29T09:41:54Z</time>
      </trkpt>
      <trkpt lat="45.43381" lon="2.68372">
        <ele>999.3</ele>
        <time>2014-05-29T09:42:01Z</time>
      </trkpt>
      <trkpt lat="45.4338" lon="2.68372">
        <ele>999.5</ele>
        <time>2014-05-29T09:42:02Z</time>
      </trkpt>
      <trkpt lat="45.43365" lon="2.68376">
        <ele>1007.1</ele>
        <time>2014-05-29T09:42:28Z</time>
      </trkpt>
      <trkpt lat="45.43357" lon="2.68376">
        <ele>1008.4</ele>
        <time>2014-05-29T09:42:46Z</time>
      </trkpt>
      <trkpt lat="45.43348" lon="2.68375">
        <ele>1010.1</ele>
        <time>2014-05-29T09:42:54Z</time>
      </trkpt>
      <trkpt lat="45.4334" lon="2.68376">
        <ele>1013</ele>
        <time>2014-05-29T09:43:05Z</time>
      </trkpt>
      <trkpt lat="45.43339" lon="2.68376">
        <ele>1013.1</ele>
        <time>2014-05-29T09:43:06Z</time>
      </trkpt>
      <trkpt lat="45.43325" lon="2.68387">
        <ele>1016.2</ele>
        <time>2014-05-29T09:43:21Z</time>
      </trkpt>
      <trkpt lat="45.43323" lon="2.68398">
        <ele>1020.7</ele>
        <time>2014-05-29T09:43:41Z</time>
      </trkpt>
      <trkpt lat="45.43325" lon="2.68411">
        <ele>1023.7</ele>
        <time>2014-05-29T09:43:53Z</time>
      </trkpt>
      <trkpt lat="45.43327" lon="2.68422">
        <ele>1024.5</ele>
        <time>2014-05-29T09:44:03Z</time>
      </trkpt>
      <trkpt lat="45.43327" lon="2.68434">
        <ele>1026.7</ele>
        <time>2014-05-29T09:44:11Z</time>
      </trkpt>
      <trkpt lat="45.43328" lon="2.68436">
        <ele>1026.7</ele>
        <time>2014-05-29T09:44:12Z</time>
      </trkpt>
      <trkpt lat="45.43331" lon="2.68457">
        <ele>1029.2</ele>
        <time>2014-05-29T09:44:22Z</time>
      </trkpt>
      <trkpt lat="45.43332" lon="2.68467">
        <ele>1029.7</ele>
        <time>2014-05-29T09:44:27Z</time>
      </trkpt>
      <trkpt lat="45.43332" lon="2.68478">
        <ele>1030.6</ele>
        <time>2014-05-29T09:44:32Z</time>
      </trkpt>
      <trkpt lat="45.4333" lon="2.68489">
        <ele>1031.1</ele>
        <time>2014-05-29T09:44:36Z</time>
      </trkpt>
      <trkpt lat="45.43328" lon="2.68499">
        <ele>1031.6</ele>
        <time>2014-05-29T09:44:39Z</time>
      </trkpt>
      <trkpt lat="45.43326" lon="2.68509">
        <ele>1032.4</ele>
        <time>2014-05-29T09:44:42Z</time>
      </trkpt>
      <trkpt lat="45.43323" lon="2.6852">
        <ele>1032.3</ele>
        <time>2014-05-29T09:44:45Z</time>
      </trkpt>
      <trkpt lat="45.43319" lon="2.68531">
        <ele>1032.1</ele>
        <time>2014-05-29T09:44:48Z</time>
      </trkpt>
      <trkpt lat="45.43315" lon="2.68541">
        <ele>1032.6</ele>
        <time>2014-05-29T09:44:51Z</time>
      </trkpt>
      <trkpt lat="45.43313" lon="2.6855">
        <ele>1033.3</ele>
        <time>2014-05-29T09:44:54Z</time>
      </trkpt>
      <trkpt lat="45.43311" lon="2.68561">
        <ele>1033.7</ele>
        <time>2014-05-29T09:44:57Z</time>
      </trkpt>
      <trkpt lat="45.43309" lon="2.68573">
        <ele>1034</ele>
        <time>2014-05-29T09:45:00Z</time>
      </trkpt>
      <trkpt lat="45.43307" lon="2.68582">
        <ele>1034.4</ele>
        <time>2014-05-29T09:45:02Z</time>
      </trkpt>
      <trkpt lat="45.43303" lon="2.6859">
        <ele>1034</ele>
        <time>2014-05-29T09:45:04Z</time>
      </trkpt>
      <trkpt lat="45.43299" lon="2.68598">
        <ele>1034</ele>
        <time>2014-05-29T09:45:06Z</time>
      </trkpt>
      <trkpt lat="45.43295" lon="2.68606">
        <ele>1034.2</ele>
        <time>2014-05-29T09:45:08Z</time>
      </trkpt>
      <trkpt lat="45.43291" lon="2.68613">
        <ele>1034.4</ele>
        <time>2014-05-29T09:45:10Z</time>
      </trkpt>
      <trkpt lat="45.43285" lon="2.68622">
        <ele>1035.6</ele>
        <time>2014-05-29T09:45:14Z</time>
      </trkpt>
      <trkpt lat="45.43283" lon="2.68623">
        <ele>1035.8</ele>
        <time>2014-05-29T09:45:15Z</time>
      </trkpt>
      <trkpt lat="45.43277" lon="2.68641">
        <ele>1038</ele>
        <time>2014-05-29T09:45:24Z</time>
      </trkpt>
      <trkpt lat="45.43275" lon="2.68651">
        <ele>1038.8</ele>
        <time>2014-05-29T09:45:28Z</time>
      </trkpt>
      <trkpt lat="45.43271" lon="2.6866">
        <ele>1039.5</ele>
        <time>2014-05-29T09:45:32Z</time>
      </trkpt>
      <trkpt lat="45.43267" lon="2.68668">
        <ele>1040.2</ele>
        <time>2014-05-29T09:45:35Z</time>
      </trkpt>
      <trkpt lat="45.43265" lon="2.68676">
        <ele>1040.7</ele>
        <time>2014-05-29T09:45:37Z</time>
      </trkpt>
      <trkpt lat="45.43263" lon="2.68686">
        <ele>1040.8</ele>
        <time>2014-05-29T09:45:39Z</time>
      </trkpt>
      <trkpt lat="45.43259" lon="2.68696">
        <ele>1040.7</ele>
        <time>2014-05-29T09:45:41Z</time>
      </trkpt>
      <trkpt lat="45.43256" lon="2.68705">
        <ele>1040.3</ele>
        <time>2014-05-29T09:45:43Z</time>
      </trkpt>
      <trkpt lat="45.43251" lon="2.68713">
        <ele>1039.9</ele>
        <time>2014-05-29T09:45:45Z</time>
      </trkpt>
      <trkpt lat="45.43244" lon="2.6872">
        <ele>1040.4</ele>
        <time>2014-05-29T09:45:47Z</time>
      </trkpt>
      <trkpt lat="45.43238" lon="2.68729">
        <ele>1040</ele>
        <time>2014-05-29T09:45:49Z</time>
      </trkpt>
      <trkpt lat="45.43235" lon="2.68739">
        <ele>1040.3</ele>
        <time>2014-05-29T09:45:52Z</time>
      </trkpt>
      <trkpt lat="45.43233" lon="2.68751">
        <ele>1041.7</ele>
        <time>2014-05-29T09:45:57Z</time>
      </trkpt>
      <trkpt lat="45.43231" lon="2.68762">
        <ele>1043.3</ele>
        <time>2014-05-29T09:46:02Z</time>
      </trkpt>
      <trkpt lat="45.4323" lon="2.68773">
        <ele>1044</ele>
        <time>2014-05-29T09:46:07Z</time>
      </trkpt>
      <trkpt lat="45.43229" lon="2.68785">
        <ele>1045.7</ele>
        <time>2014-05-29T09:46:13Z</time>
      </trkpt>
      <trkpt lat="45.43228" lon="2.68798">
        <ele>1047</ele>
        <time>2014-05-29T09:46:19Z</time>
      </trkpt>
      <trkpt lat="45.43229" lon="2.688">
        <ele>1046.9</ele>
        <time>2014-05-29T09:46:20Z</time>
      </trkpt>
      <trkpt lat="45.43227" lon="2.6882">
        <ele>1048.7</ele>
        <time>2014-05-29T09:46:30Z</time>
      </trkpt>
      <trkpt lat="45.43226" lon="2.68832">
        <ele>1049.7</ele>
        <time>2014-05-29T09:46:36Z</time>
      </trkpt>
      <trkpt lat="45.43225" lon="2.68845">
        <ele>1051.1</ele>
        <time>2014-05-29T09:46:42Z</time>
      </trkpt>
      <trkpt lat="45.43223" lon="2.68855">
        <ele>1051.3</ele>
        <time>2014-05-29T09:46:47Z</time>
      </trkpt>
      <trkpt lat="45.43222" lon="2.68866">
        <ele>1051.6</ele>
        <time>2014-05-29T09:46:50Z</time>
      </trkpt>
      <trkpt lat="45.43222" lon="2.68879">
        <ele>1051.1</ele>
        <time>2014-05-29T09:46:52Z</time>
      </trkpt>
      <trkpt lat="45.43222" lon="2.68886">
        <ele>1051</ele>
        <time>2014-05-29T09:46:53Z</time>
      </trkpt>
      <trkpt lat="45.43222" lon="2.68894">
        <ele>1050.9</ele>
        <time>2014-05-29T09:46:54Z</time>
      </trkpt>
      <trkpt lat="45.4322" lon="2.68903">
        <ele>1050.6</ele>
        <time>2014-05-29T09:46:55Z</time>
      </trkpt>
      <trkpt lat="45.43219" lon="2.68913">
        <ele>1050.3</ele>
        <time>2014-05-29T09:46:56Z</time>
      </trkpt>
      <trkpt lat="45.43217" lon="2.68923">
        <ele>1049.8</ele>
        <time>2014-05-29T09:46:57Z</time>
      </trkpt>
      <trkpt lat="45.43215" lon="2.68933">
        <ele>1049.4</ele>
        <time>2014-05-29T09:46:58Z</time>
      </trkpt>
      <trkpt lat="45.43213" lon="2.68943">
        <ele>1048.5</ele>
        <time>2014-05-29T09:46:59Z</time>
      </trkpt>
      <trkpt lat="45.43211" lon="2.68952">
        <ele>1047.9</ele>
        <time>2014-05-29T09:47:00Z</time>
      </trkpt>
      <trkpt lat="45.43208" lon="2.6896">
        <ele>1047.5</ele>
        <time>2014-05-29T09:47:01Z</time>
      </trkpt>
      <trkpt lat="45.43206" lon="2.68968">
        <ele>1047.1</ele>
        <time>2014-05-29T09:47:02Z</time>
      </trkpt>
      <trkpt lat="45.43205" lon="2.68975">
        <ele>1046.9</ele>
        <time>2014-05-29T09:47:03Z</time>
      </trkpt>
      <trkpt lat="45.43204" lon="2.68987">
        <ele>1047</ele>
        <time>2014-05-29T09:47:05Z</time>
      </trkpt>
      <trkpt lat="45.43203" lon="2.68999">
        <ele>1046.9</ele>
        <time>2014-05-29T09:47:08Z</time>
      </trkpt>
      <trkpt lat="45.43201" lon="2.69009">
        <ele>1047.8</ele>
        <time>2014-05-29T09:47:11Z</time>
      </trkpt>
      <trkpt lat="45.432" lon="2.6902">
        <ele>1048.4</ele>
        <time>2014-05-29T09:47:15Z</time>
      </trkpt>
      <trkpt lat="45.43198" lon="2.69031">
        <ele>1049.5</ele>
        <time>2014-05-29T09:47:19Z</time>
      </trkpt>
      <trkpt lat="45.43198" lon="2.69042">
        <ele>1051</ele>
        <time>2014-05-29T09:47:24Z</time>
      </trkpt>
      <trkpt lat="45.43198" lon="2.69044">
        <ele>1051.2</ele>
        <time>2014-05-29T09:47:25Z</time>
      </trkpt>
      <trkpt lat="45.43195" lon="2.69067">
        <ele>1052.5</ele>
        <time>2014-05-29T09:47:33Z</time>
      </trkpt>
      <trkpt lat="45.43195" lon="2.69076">
        <ele>1052.3</ele>
        <time>2014-05-29T09:47:35Z</time>
      </trkpt>
      <trkpt lat="45.43195" lon="2.69088">
        <ele>1052.4</ele>
        <time>2014-05-29T09:47:38Z</time>
      </trkpt>
      <trkpt lat="45.43195" lon="2.69098">
        <ele>1052.5</ele>
        <time>2014-05-29T09:47:40Z</time>
      </trkpt>
      <trkpt lat="45.43193" lon="2.69108">
        <ele>1052</ele>
        <time>2014-05-29T09:47:42Z</time>
      </trkpt>
      <trkpt lat="45.43193" lon="2.69118">
        <ele>1051.4</ele>
        <time>2014-05-29T09:47:44Z</time>
      </trkpt>
      <trkpt lat="45.43195" lon="2.69126">
        <ele>1051.3</ele>
        <time>2014-05-29T09:47:46Z</time>
      </trkpt>
      <trkpt lat="45.43197" lon="2.69132">
        <ele>1051.1</ele>
        <time>2014-05-29T09:47:47Z</time>
      </trkpt>
      <trkpt lat="45.43201" lon="2.69138">
        <ele>1050.8</ele>
        <time>2014-05-29T09:47:48Z</time>
      </trkpt>
      <trkpt lat="45.43204" lon="2.69144">
        <ele>1050.2</ele>
        <time>2014-05-29T09:47:49Z</time>
      </trkpt>
      <trkpt lat="45.43205" lon="2.69151">
        <ele>1049.7</ele>
        <time>2014-05-29T09:47:50Z</time>
      </trkpt>
      <trkpt lat="45.43206" lon="2.69158">
        <ele>1049.4</ele>
        <time>2014-05-29T09:47:51Z</time>
      </trkpt>
      <trkpt lat="45.43206" lon="2.6917">
        <ele>1049.1</ele>
        <time>2014-05-29T09:47:53Z</time>
      </trkpt>
      <trkpt lat="45.43206" lon="2.69182">
        <ele>1048.4</ele>
        <time>2014-05-29T09:47:55Z</time>
      </trkpt>
      <trkpt lat="45.43206" lon="2.69192">
        <ele>1048.1</ele>
        <time>2014-05-29T09:47:57Z</time>
      </trkpt>
      <trkpt lat="45.43204" lon="2.69203">
        <ele>1048.1</ele>
        <time>2014-05-29T09:47:59Z</time>
      </trkpt>
      <trkpt lat="45.43203" lon="2.69213">
        <ele>1048.4</ele>
        <time>2014-05-29T09:48:01Z</time>
      </trkpt>
      <trkpt lat="45.43201" lon="2.69223">
        <ele>1048.8</ele>
        <time>2014-05-29T09:48:03Z</time>
      </trkpt>
      <trkpt lat="45.43197" lon="2.69233">
        <ele>1049</ele>
        <time>2014-05-29T09:48:05Z</time>
      </trkpt>
      <trkpt lat="45.43194" lon="2.69243">
        <ele>1048.8</ele>
        <time>2014-05-29T09:48:07Z</time>
      </trkpt>
      <trkpt lat="45.43194" lon="2.69253">
        <ele>1048.7</ele>
        <time>2014-05-29T09:48:09Z</time>
      </trkpt>
      <trkpt lat="45.43197" lon="2.69261">
        <ele>1049</ele>
        <time>2014-05-29T09:48:12Z</time>
      </trkpt>
      <trkpt lat="45.43201" lon="2.6927">
        <ele>1049.2</ele>
        <time>2014-05-29T09:48:15Z</time>
      </trkpt>
      <trkpt lat="45.43205" lon="2.69279">
        <ele>1049.6</ele>
        <time>2014-05-29T09:48:18Z</time>
      </trkpt>
      <trkpt lat="45.4321" lon="2.69287">
        <ele>1049.7</ele>
        <time>2014-05-29T09:48:21Z</time>
      </trkpt>
      <trkpt lat="45.43215" lon="2.69296">
        <ele>1050.9</ele>
        <time>2014-05-29T09:48:24Z</time>
      </trkpt>
      <trkpt lat="45.4322" lon="2.69304">
        <ele>1051.1</ele>
        <time>2014-05-29T09:48:28Z</time>
      </trkpt>
      <trkpt lat="45.43222" lon="2.69305">
        <ele>1051.1</ele>
        <time>2014-05-29T09:48:29Z</time>
      </trkpt>
      <trkpt lat="45.43232" lon="2.69312">
        <ele>1051.7</ele>
        <time>2014-05-29T09:48:33Z</time>
      </trkpt>
      <trkpt lat="45.43238" lon="2.69313">
        <ele>1052</ele>
        <time>2014-05-29T09:48:35Z</time>
      </trkpt>
      <trkpt lat="45.43245" lon="2.69315">
        <ele>1052.3</ele>
        <time>2014-05-29T09:48:37Z</time>
      </trkpt>
      <trkpt lat="45.43252" lon="2.69317">
        <ele>1052.9</ele>
        <time>2014-05-29T09:48:39Z</time>
      </trkpt>
      <trkpt lat="45.43259" lon="2.69321">
        <ele>1053.1</ele>
        <time>2014-05-29T09:48:41Z</time>
      </trkpt>
      <trkpt lat="45.43265" lon="2.69325">
        <ele>1052.9</ele>
        <time>2014-05-29T09:48:43Z</time>
      </trkpt>
      <trkpt lat="45.43272" lon="2.69328">
        <ele>1052.6</ele>
        <time>2014-05-29T09:48:45Z</time>
      </trkpt>
      <trkpt lat="45.43278" lon="2.69332">
        <ele>1052.1</ele>
        <time>2014-05-29T09:48:47Z</time>
      </trkpt>
      <trkpt lat="45.43283" lon="2.69335">
        <ele>1052.5</ele>
        <time>2014-05-29T09:48:49Z</time>
      </trkpt>
      <trkpt lat="45.43289" lon="2.69339">
        <ele>1053</ele>
        <time>2014-05-29T09:48:51Z</time>
      </trkpt>
      <trkpt lat="45.43296" lon="2.69345">
        <ele>1053.1</ele>
        <time>2014-05-29T09:48:54Z</time>
      </trkpt>
      <trkpt lat="45.43302" lon="2.69348">
        <ele>1053.3</ele>
        <time>2014-05-29T09:48:56Z</time>
      </trkpt>
      <trkpt lat="45.43309" lon="2.69355">
        <ele>1053.8</ele>
        <time>2014-05-29T09:48:59Z</time>
      </trkpt>
      <trkpt lat="45.43315" lon="2.69361">
        <ele>1053.8</ele>
        <time>2014-05-29T09:49:01Z</time>
      </trkpt>
      <trkpt lat="45.43322" lon="2.69368">
        <ele>1053.5</ele>
        <time>2014-05-29T09:49:03Z</time>
      </trkpt>
      <trkpt lat="45.43326" lon="2.69372">
        <ele>1053.2</ele>
        <time>2014-05-29T09:49:04Z</time>
      </trkpt>
      <trkpt lat="45.4333" lon="2.69376">
        <ele>1053.2</ele>
        <time>2014-05-29T09:49:05Z</time>
      </trkpt>
      <trkpt lat="45.43334" lon="2.69381">
        <ele>1053.2</ele>
        <time>2014-05-29T09:49:06Z</time>
      </trkpt>
      <trkpt lat="45.43338" lon="2.69386">
        <ele>1053.1</ele>
        <time>2014-05-29T09:49:07Z</time>
      </trkpt>
      <trkpt lat="45.43343" lon="2.6939">
        <ele>1052.9</ele>
        <time>2014-05-29T09:49:08Z</time>
      </trkpt>
      <trkpt lat="45.43346" lon="2.69395">
        <ele>1052.7</ele>
        <time>2014-05-29T09:49:09Z</time>
      </trkpt>
      <trkpt lat="45.43349" lon="2.694">
        <ele>1052.5</ele>
        <time>2014-05-29T09:49:10Z</time>
      </trkpt>
      <trkpt lat="45.43354" lon="2.6941">
        <ele>1052.1</ele>
        <time>2014-05-29T09:49:12Z</time>
      </trkpt>
      <trkpt lat="45.43358" lon="2.69419">
        <ele>1051.6</ele>
        <time>2014-05-29T09:49:14Z</time>
      </trkpt>
      <trkpt lat="45.43362" lon="2.69428">
        <ele>1051.6</ele>
        <time>2014-05-29T09:49:16Z</time>
      </trkpt>
      <trkpt lat="45.43367" lon="2.69436">
        <ele>1052.2</ele>
        <time>2014-05-29T09:49:18Z</time>
      </trkpt>
      <trkpt lat="45.43373" lon="2.69445">
        <ele>1052.4</ele>
        <time>2014-05-29T09:49:20Z</time>
      </trkpt>
      <trkpt lat="45.43379" lon="2.69452">
        <ele>1052.8</ele>
        <time>2014-05-29T09:49:22Z</time>
      </trkpt>
      <trkpt lat="45.43386" lon="2.69459">
        <ele>1053</ele>
        <time>2014-05-29T09:49:24Z</time>
      </trkpt>
      <trkpt lat="45.43393" lon="2.69465">
        <ele>1052.8</ele>
        <time>2014-05-29T09:49:26Z</time>
      </trkpt>
      <trkpt lat="45.43399" lon="2.69472">
        <ele>1053</ele>
        <time>2014-05-29T09:49:28Z</time>
      </trkpt>
      <trkpt lat="45.43405" lon="2.6948">
        <ele>1053.1</ele>
        <time>2014-05-29T09:49:30Z</time>
      </trkpt>
      <trkpt lat="45.43407" lon="2.69484">
        <ele>1053.4</ele>
        <time>2014-05-29T09:49:31Z</time>
      </trkpt>
      <trkpt lat="45.43414" lon="2.69498">
        <ele>1053.8</ele>
        <time>2014-05-29T09:49:34Z</time>
      </trkpt>
      <trkpt lat="45.43419" lon="2.69506">
        <ele>1053.3</ele>
        <time>2014-05-29T09:49:36Z</time>
      </trkpt>
      <trkpt lat="45.43423" lon="2.69514">
        <ele>1052.7</ele>
        <time>2014-05-29T09:49:38Z</time>
      </trkpt>
      <trkpt lat="45.43427" lon="2.69521">
        <ele>1052.3</ele>
        <time>2014-05-29T09:49:40Z</time>
      </trkpt>
      <trkpt lat="45.43433" lon="2.69531">
        <ele>1053</ele>
        <time>2014-05-29T09:49:43Z</time>
      </trkpt>
      <trkpt lat="45.43439" lon="2.69539">
        <ele>1053.7</ele>
        <time>2014-05-29T09:49:51Z</time>
      </trkpt>
      <trkpt lat="45.43447" lon="2.69545">
        <ele>1054.9</ele>
        <time>2014-05-29T09:50:01Z</time>
      </trkpt>
      <trkpt lat="45.43452" lon="2.69554">
        <ele>1057</ele>
        <time>2014-05-29T09:50:10Z</time>
      </trkpt>
      <trkpt lat="45.43458" lon="2.69563">
        <ele>1059.4</ele>
        <time>2014-05-29T09:50:23Z</time>
      </trkpt>
      <trkpt lat="45.43462" lon="2.69574">
        <ele>1060.1</ele>
        <time>2014-05-29T09:50:33Z</time>
      </trkpt>
      <trkpt lat="45.43463" lon="2.69576">
        <ele>1060.3</ele>
        <time>2014-05-29T09:50:34Z</time>
      </trkpt>
      <trkpt lat="45.43468" lon="2.69597">
        <ele>1063.2</ele>
        <time>2014-05-29T09:50:53Z</time>
      </trkpt>
      <trkpt lat="45.43468" lon="2.69609">
        <ele>1065</ele>
        <time>2014-05-29T09:51:02Z</time>
      </trkpt>
      <trkpt lat="45.43468" lon="2.69622">
        <ele>1066</ele>
        <time>2014-05-29T09:51:15Z</time>
      </trkpt>
      <trkpt lat="45.43469" lon="2.69634">
        <ele>1067.2</ele>
        <time>2014-05-29T09:51:21Z</time>
      </trkpt>
      <trkpt lat="45.4347" lon="2.69646">
        <ele>1066.2</ele>
        <time>2014-05-29T09:51:24Z</time>
      </trkpt>
      <trkpt lat="45.43468" lon="2.69656">
        <ele>1065.5</ele>
        <time>2014-05-29T09:51:28Z</time>
      </trkpt>
      <trkpt lat="45.43466" lon="2.69667">
        <ele>1065</ele>
        <time>2014-05-29T09:51:32Z</time>
      </trkpt>
      <trkpt lat="45.43464" lon="2.69678">
        <ele>1064.8</ele>
        <time>2014-05-29T09:51:35Z</time>
      </trkpt>
      <trkpt lat="45.43464" lon="2.69683">
        <ele>1064.9</ele>
        <time>2014-05-29T09:51:36Z</time>
      </trkpt>
      <trkpt lat="45.43463" lon="2.69697">
        <ele>1063.7</ele>
        <time>2014-05-29T09:51:39Z</time>
      </trkpt>
      <trkpt lat="45.43458" lon="2.69707">
        <ele>1063.2</ele>
        <time>2014-05-29T09:51:42Z</time>
      </trkpt>
      <trkpt lat="45.43455" lon="2.69715">
        <ele>1063</ele>
        <time>2014-05-29T09:51:45Z</time>
      </trkpt>
      <trkpt lat="45.43452" lon="2.69724">
        <ele>1063.3</ele>
        <time>2014-05-29T09:51:48Z</time>
      </trkpt>
      <trkpt lat="45.43448" lon="2.69734">
        <ele>1063.1</ele>
        <time>2014-05-29T09:51:51Z</time>
      </trkpt>
      <trkpt lat="45.43444" lon="2.69743">
        <ele>1063.1</ele>
        <time>2014-05-29T09:51:53Z</time>
      </trkpt>
      <trkpt lat="45.4344" lon="2.69749">
        <ele>1062.6</ele>
        <time>2014-05-29T09:51:55Z</time>
      </trkpt>
      <trkpt lat="45.43435" lon="2.69759">
        <ele>1062.1</ele>
        <time>2014-05-29T09:51:58Z</time>
      </trkpt>
      <trkpt lat="45.43433" lon="2.6977">
        <ele>1061.8</ele>
        <time>2014-05-29T09:52:00Z</time>
      </trkpt>
      <trkpt lat="45.4343" lon="2.69781">
        <ele>1059.9</ele>
        <time>2014-05-29T09:52:04Z</time>
      </trkpt>
      <trkpt lat="45.43426" lon="2.6979">
        <ele>1060</ele>
        <time>2014-05-29T09:52:07Z</time>
      </trkpt>
      <trkpt lat="45.43423" lon="2.69799">
        <ele>1058.8</ele>
        <time>2014-05-29T09:52:10Z</time>
      </trkpt>
      <trkpt lat="45.4342" lon="2.6981">
        <ele>1058.1</ele>
        <time>2014-05-29T09:52:14Z</time>
      </trkpt>
      <trkpt lat="45.43416" lon="2.69819">
        <ele>1057.6</ele>
        <time>2014-05-29T09:52:17Z</time>
      </trkpt>
      <trkpt lat="45.43413" lon="2.69829">
        <ele>1057</ele>
        <time>2014-05-29T09:52:20Z</time>
      </trkpt>
      <trkpt lat="45.43409" lon="2.69836">
        <ele>1056.6</ele>
        <time>2014-05-29T09:52:22Z</time>
      </trkpt>
      <trkpt lat="45.43404" lon="2.69842">
        <ele>1056.3</ele>
        <time>2014-05-29T09:52:24Z</time>
      </trkpt>
      <trkpt lat="45.434" lon="2.6985">
        <ele>1055.3</ele>
        <time>2014-05-29T09:52:27Z</time>
      </trkpt>
      <trkpt lat="45.43396" lon="2.69862">
        <ele>1054.5</ele>
        <time>2014-05-29T09:52:35Z</time>
      </trkpt>
      <trkpt lat="45.434" lon="2.69873">
        <ele>1055</ele>
        <time>2014-05-29T09:52:49Z</time>
      </trkpt>
      <trkpt lat="45.434" lon="2.69874">
        <ele>1054.9</ele>
        <time>2014-05-29T09:52:50Z</time>
      </trkpt>
      <trkpt lat="45.43404" lon="2.69891">
        <ele>1054.8</ele>
        <time>2014-05-29T09:53:41Z</time>
      </trkpt>
      <trkpt lat="45.434" lon="2.69902">
        <ele>1055.6</ele>
        <time>2014-05-29T09:53:47Z</time>
      </trkpt>
      <trkpt lat="45.43395" lon="2.69912">
        <ele>1057.4</ele>
        <time>2014-05-29T09:53:53Z</time>
      </trkpt>
      <trkpt lat="45.43393" lon="2.69914">
        <ele>1057.5</ele>
        <time>2014-05-29T09:53:54Z</time>
      </trkpt>
      <trkpt lat="45.43384" lon="2.69928">
        <ele>1059</ele>
        <time>2014-05-29T09:54:00Z</time>
      </trkpt>
      <trkpt lat="45.43378" lon="2.69937">
        <ele>1058.8</ele>
        <time>2014-05-29T09:54:04Z</time>
      </trkpt>
      <trkpt lat="45.43372" lon="2.69946">
        <ele>1059.3</ele>
        <time>2014-05-29T09:54:08Z</time>
      </trkpt>
      <trkpt lat="45.43365" lon="2.69954">
        <ele>1060.6</ele>
        <time>2014-05-29T09:54:12Z</time>
      </trkpt>
      <trkpt lat="45.43357" lon="2.69961">
        <ele>1060.5</ele>
        <time>2014-05-29T09:54:16Z</time>
      </trkpt>
      <trkpt lat="45.4335" lon="2.69968">
        <ele>1062.5</ele>
        <time>2014-05-29T09:54:21Z</time>
      </trkpt>
      <trkpt lat="45.43344" lon="2.69975">
        <ele>1062.5</ele>
        <time>2014-05-29T09:54:26Z</time>
      </trkpt>
      <trkpt lat="45.43335" lon="2.6998">
        <ele>1063.8</ele>
        <time>2014-05-29T09:54:31Z</time>
      </trkpt>
      <trkpt lat="45.43327" lon="2.69984">
        <ele>1064.4</ele>
        <time>2014-05-29T09:54:37Z</time>
      </trkpt>
      <trkpt lat="45.43319" lon="2.69988">
        <ele>1064</ele>
        <time>2014-05-29T09:54:42Z</time>
      </trkpt>
      <trkpt lat="45.43312" lon="2.69988">
        <ele>1064</ele>
        <time>2014-05-29T09:54:47Z</time>
      </trkpt>
      <trkpt lat="45.43304" lon="2.69991">
        <ele>1064.2</ele>
        <time>2014-05-29T09:54:51Z</time>
      </trkpt>
      <trkpt lat="45.43298" lon="2.69993">
        <ele>1064.9</ele>
        <time>2014-05-29T09:54:53Z</time>
      </trkpt>
      <trkpt lat="45.4329" lon="2.69996">
        <ele>1064.2</ele>
        <time>2014-05-29T09:54:55Z</time>
      </trkpt>
      <trkpt lat="45.43286" lon="2.69999">
        <ele>1064.1</ele>
        <time>2014-05-29T09:54:56Z</time>
      </trkpt>
      <trkpt lat="45.43282" lon="2.70002">
        <ele>1064.1</ele>
        <time>2014-05-29T09:54:57Z</time>
      </trkpt>
      <trkpt lat="45.43278" lon="2.70006">
        <ele>1064</ele>
        <time>2014-05-29T09:54:58Z</time>
      </trkpt>
      <trkpt lat="45.43273" lon="2.70009">
        <ele>1064</ele>
        <time>2014-05-29T09:54:59Z</time>
      </trkpt>
      <trkpt lat="45.43269" lon="2.70012">
        <ele>1063.9</ele>
        <time>2014-05-29T09:55:00Z</time>
      </trkpt>
      <trkpt lat="45.43262" lon="2.70018">
        <ele>1064.1</ele>
        <time>2014-05-29T09:55:02Z</time>
      </trkpt>
      <trkpt lat="45.43255" lon="2.70022">
        <ele>1064.2</ele>
        <time>2014-05-29T09:55:04Z</time>
      </trkpt>
      <trkpt lat="45.43248" lon="2.70026">
        <ele>1064.5</ele>
        <time>2014-05-29T09:55:06Z</time>
      </trkpt>
      <trkpt lat="45.4324" lon="2.7003">
        <ele>1064.7</ele>
        <time>2014-05-29T09:55:08Z</time>
      </trkpt>
      <trkpt lat="45.43233" lon="2.70032">
        <ele>1064.8</ele>
        <time>2014-05-29T09:55:10Z</time>
      </trkpt>
      <trkpt lat="45.43225" lon="2.70032">
        <ele>1064.1</ele>
        <time>2014-05-29T09:55:13Z</time>
      </trkpt>
      <trkpt lat="45.43219" lon="2.70024">
        <ele>1065.3</ele>
        <time>2014-05-29T09:55:19Z</time>
      </trkpt>
      <trkpt lat="45.43213" lon="2.70016">
        <ele>1066</ele>
        <time>2014-05-29T09:55:24Z</time>
      </trkpt>
      <trkpt lat="45.43207" lon="2.7001">
        <ele>1067.7</ele>
        <time>2014-05-29T09:55:28Z</time>
      </trkpt>
      <trkpt lat="45.432" lon="2.70002">
        <ele>1068.3</ele>
        <time>2014-05-29T09:55:33Z</time>
      </trkpt>
      <trkpt lat="45.43194" lon="2.69995">
        <ele>1069.5</ele>
        <time>2014-05-29T09:55:39Z</time>
      </trkpt>
      <trkpt lat="45.43189" lon="2.69986">
        <ele>1070.7</ele>
        <time>2014-05-29T09:55:45Z</time>
      </trkpt>
      <trkpt lat="45.43183" lon="2.69977">
        <ele>1072.1</ele>
        <time>2014-05-29T09:55:50Z</time>
      </trkpt>
      <trkpt lat="45.43176" lon="2.6997">
        <ele>1071.8</ele>
        <time>2014-05-29T09:55:55Z</time>
      </trkpt>
      <trkpt lat="45.43171" lon="2.69963">
        <ele>1071.8</ele>
        <time>2014-05-29T09:55:59Z</time>
      </trkpt>
      <trkpt lat="45.4317" lon="2.69961">
        <ele>1071.6</ele>
        <time>2014-05-29T09:56:00Z</time>
      </trkpt>
      <trkpt lat="45.43161" lon="2.69949">
        <ele>1072.4</ele>
        <time>2014-05-29T09:56:06Z</time>
      </trkpt>
      <trkpt lat="45.43156" lon="2.69943">
        <ele>1072</ele>
        <time>2014-05-29T09:56:08Z</time>
      </trkpt>
      <trkpt lat="45.43151" lon="2.69937">
        <ele>1071.5</ele>
        <time>2014-05-29T09:56:10Z</time>
      </trkpt>
      <trkpt lat="45.43147" lon="2.69932">
        <ele>1071.4</ele>
        <time>2014-05-29T09:56:11Z</time>
      </trkpt>
      <trkpt lat="45.43143" lon="2.69927">
        <ele>1070.8</ele>
        <time>2014-05-29T09:56:12Z</time>
      </trkpt>
      <trkpt lat="45.43138" lon="2.69922">
        <ele>1070.3</ele>
        <time>2014-05-29T09:56:13Z</time>
      </trkpt>
      <trkpt lat="45.43133" lon="2.69915">
        <ele>1069.9</ele>
        <time>2014-05-29T09:56:14Z</time>
      </trkpt>
      <trkpt lat="45.43129" lon="2.69908">
        <ele>1068.7</ele>
        <time>2014-05-29T09:56:15Z</time>
      </trkpt>
      <trkpt lat="45.43123" lon="2.699">
        <ele>1067.3</ele>
        <time>2014-05-29T09:56:17Z</time>
      </trkpt>
      <trkpt lat="45.43118" lon="2.69891">
        <ele>1066.1</ele>
        <time>2014-05-29T09:56:20Z</time>
      </trkpt>
      <trkpt lat="45.43112" lon="2.69883">
        <ele>1065.4</ele>
        <time>2014-05-29T09:56:24Z</time>
      </trkpt>
      <trkpt lat="45.43107" lon="2.69874">
        <ele>1065.9</ele>
        <time>2014-05-29T09:56:28Z</time>
      </trkpt>
      <trkpt lat="45.43102" lon="2.69865">
        <ele>1066.5</ele>
        <time>2014-05-29T09:56:33Z</time>
      </trkpt>
      <trkpt lat="45.43099" lon="2.69853">
        <ele>1067.3</ele>
        <time>2014-05-29T09:56:38Z</time>
      </trkpt>
      <trkpt lat="45.43098" lon="2.69842">
        <ele>1068.3</ele>
        <time>2014-05-29T09:56:43Z</time>
      </trkpt>
      <trkpt lat="45.43097" lon="2.69829">
        <ele>1069.1</ele>
        <time>2014-05-29T09:56:48Z</time>
      </trkpt>
      <trkpt lat="45.43098" lon="2.69819">
        <ele>1069.1</ele>
        <time>2014-05-29T09:56:51Z</time>
      </trkpt>
      <trkpt lat="45.43097" lon="2.69807">
        <ele>1068.8</ele>
        <time>2014-05-29T09:56:54Z</time>
      </trkpt>
      <trkpt lat="45.43096" lon="2.69798">
        <ele>1068.7</ele>
        <time>2014-05-29T09:56:56Z</time>
      </trkpt>
      <trkpt lat="45.43094" lon="2.69789">
        <ele>1069</ele>
        <time>2014-05-29T09:56:58Z</time>
      </trkpt>
      <trkpt lat="45.43091" lon="2.69781">
        <ele>1069.1</ele>
        <time>2014-05-29T09:57:00Z</time>
      </trkpt>
      <trkpt lat="45.43084" lon="2.69779">
        <ele>1068.9</ele>
        <time>2014-05-29T09:57:02Z</time>
      </trkpt>
      <trkpt lat="45.43081" lon="2.69777">
        <ele>1068.8</ele>
        <time>2014-05-29T09:57:03Z</time>
      </trkpt>
      <trkpt lat="45.43071" lon="2.69775">
        <ele>1067.9</ele>
        <time>2014-05-29T09:57:05Z</time>
      </trkpt>
      <trkpt lat="45.43066" lon="2.69773">
        <ele>1067.6</ele>
        <time>2014-05-29T09:57:06Z</time>
      </trkpt>
      <trkpt lat="45.43062" lon="2.69769">
        <ele>1067.3</ele>
        <time>2014-05-29T09:57:07Z</time>
      </trkpt>
      <trkpt lat="45.43059" lon="2.69763">
        <ele>1067.2</ele>
        <time>2014-05-29T09:57:08Z</time>
      </trkpt>
      <trkpt lat="45.43055" lon="2.69752">
        <ele>1065.9</ele>
        <time>2014-05-29T09:57:10Z</time>
      </trkpt>
      <trkpt lat="45.43052" lon="2.69747">
        <ele>1065.6</ele>
        <time>2014-05-29T09:57:11Z</time>
      </trkpt>
      <trkpt lat="45.43048" lon="2.69741">
        <ele>1064.9</ele>
        <time>2014-05-29T09:57:12Z</time>
      </trkpt>
      <trkpt lat="45.43044" lon="2.69734">
        <ele>1064.5</ele>
        <time>2014-05-29T09:57:13Z</time>
      </trkpt>
      <trkpt lat="45.43041" lon="2.69729">
        <ele>1063.7</ele>
        <time>2014-05-29T09:57:14Z</time>
      </trkpt>
      <trkpt lat="45.43038" lon="2.69724">
        <ele>1063.2</ele>
        <time>2014-05-29T09:57:15Z</time>
      </trkpt>
      <trkpt lat="45.43034" lon="2.69717">
        <ele>1062</ele>
        <time>2014-05-29T09:57:16Z</time>
      </trkpt>
      <trkpt lat="45.43029" lon="2.69709">
        <ele>1061.1</ele>
        <time>2014-05-29T09:57:17Z</time>
      </trkpt>
      <trkpt lat="45.43024" lon="2.69702">
        <ele>1060.5</ele>
        <time>2014-05-29T09:57:18Z</time>
      </trkpt>
      <trkpt lat="45.4302" lon="2.69696">
        <ele>1060.1</ele>
        <time>2014-05-29T09:57:19Z</time>
      </trkpt>
      <trkpt lat="45.43016" lon="2.69692">
        <ele>1059.8</ele>
        <time>2014-05-29T09:57:20Z</time>
      </trkpt>
      <trkpt lat="45.4301" lon="2.69684">
        <ele>1059.5</ele>
        <time>2014-05-29T09:57:22Z</time>
      </trkpt>
      <trkpt lat="45.43003" lon="2.6968">
        <ele>1059.6</ele>
        <time>2014-05-29T09:57:24Z</time>
      </trkpt>
      <trkpt lat="45.42996" lon="2.69678">
        <ele>1060.2</ele>
        <time>2014-05-29T09:57:26Z</time>
      </trkpt>
      <trkpt lat="45.42991" lon="2.69678">
        <ele>1060.6</ele>
        <time>2014-05-29T09:57:27Z</time>
      </trkpt>
      <trkpt lat="45.42985" lon="2.69677">
        <ele>1061.1</ele>
        <time>2014-05-29T09:57:28Z</time>
      </trkpt>
      <trkpt lat="45.42979" lon="2.69677">
        <ele>1061.4</ele>
        <time>2014-05-29T09:57:29Z</time>
      </trkpt>
      <trkpt lat="45.42973" lon="2.69677">
        <ele>1061.7</ele>
        <time>2014-05-29T09:57:30Z</time>
      </trkpt>
      <trkpt lat="45.42965" lon="2.69678">
        <ele>1060.1</ele>
        <time>2014-05-29T09:57:32Z</time>
      </trkpt>
      <trkpt lat="45.42956" lon="2.69678">
        <ele>1056.8</ele>
        <time>2014-05-29T09:57:42Z</time>
      </trkpt>
      <trkpt lat="45.42948" lon="2.69678">
        <ele>1056.5</ele>
        <time>2014-05-29T09:57:50Z</time>
      </trkpt>
      <trkpt lat="45.42942" lon="2.69678">
        <ele>1057.4</ele>
        <time>2014-05-29T09:57:54Z</time>
      </trkpt>
      <trkpt lat="45.42935" lon="2.69674">
        <ele>1057.4</ele>
        <time>2014-05-29T09:57:57Z</time>
      </trkpt>
      <trkpt lat="45.42929" lon="2.6967">
        <ele>1057.3</ele>
        <time>2014-05-29T09:58:00Z</time>
      </trkpt>
      <trkpt lat="45.42922" lon="2.69664">
        <ele>1057.7</ele>
        <time>2014-05-29T09:58:04Z</time>
      </trkpt>
      <trkpt lat="45.42921" lon="2.69662">
        <ele>1057.7</ele>
        <time>2014-05-29T09:58:05Z</time>
      </trkpt>
      <trkpt lat="45.42908" lon="2.69652">
        <ele>1058.7</ele>
        <time>2014-05-29T09:58:11Z</time>
      </trkpt>
      <trkpt lat="45.42901" lon="2.6965">
        <ele>1058.5</ele>
        <time>2014-05-29T09:58:13Z</time>
      </trkpt>
      <trkpt lat="45.42894" lon="2.69646">
        <ele>1057.9</ele>
        <time>2014-05-29T09:58:15Z</time>
      </trkpt>
      <trkpt lat="45.42887" lon="2.69642">
        <ele>1057.6</ele>
        <time>2014-05-29T09:58:17Z</time>
      </trkpt>
      <trkpt lat="45.4288" lon="2.69636">
        <ele>1057.6</ele>
        <time>2014-05-29T09:58:20Z</time>
      </trkpt>
      <trkpt lat="45.42874" lon="2.69628">
        <ele>1057.5</ele>
        <time>2014-05-29T09:58:24Z</time>
      </trkpt>
      <trkpt lat="45.42868" lon="2.69619">
        <ele>1058.3</ele>
        <time>2014-05-29T09:58:29Z</time>
      </trkpt>
      <trkpt lat="45.42863" lon="2.69613">
        <ele>1059.3</ele>
        <time>2014-05-29T09:58:32Z</time>
      </trkpt>
      <trkpt lat="45.42857" lon="2.69605">
        <ele>1060</ele>
        <time>2014-05-29T09:58:35Z</time>
      </trkpt>
      <trkpt lat="45.42851" lon="2.69599">
        <ele>1060</ele>
        <time>2014-05-29T09:58:38Z</time>
      </trkpt>
      <trkpt lat="45.42844" lon="2.69592">
        <ele>1061.6</ele>
        <time>2014-05-29T09:58:43Z</time>
      </trkpt>
      <trkpt lat="45.42838" lon="2.69584">
        <ele>1062.4</ele>
        <time>2014-05-29T09:58:48Z</time>
      </trkpt>
      <trkpt lat="45.42832" lon="2.69577">
        <ele>1062.2</ele>
        <time>2014-05-29T09:58:52Z</time>
      </trkpt>
      <trkpt lat="45.42828" lon="2.69566">
        <ele>1062.9</ele>
        <time>2014-05-29T09:58:56Z</time>
      </trkpt>
      <trkpt lat="45.42827" lon="2.69557">
        <ele>1062.9</ele>
        <time>2014-05-29T09:58:58Z</time>
      </trkpt>
      <trkpt lat="45.42824" lon="2.69549">
        <ele>1063</ele>
        <time>2014-05-29T09:59:00Z</time>
      </trkpt>
      <trkpt lat="45.42818" lon="2.69547">
        <ele>1062.6</ele>
        <time>2014-05-29T09:59:02Z</time>
      </trkpt>
      <trkpt lat="45.42809" lon="2.69548">
        <ele>1062.2</ele>
        <time>2014-05-29T09:59:05Z</time>
      </trkpt>
      <trkpt lat="45.42802" lon="2.6954">
        <ele>1061.8</ele>
        <time>2014-05-29T09:59:11Z</time>
      </trkpt>
      <trkpt lat="45.42802" lon="2.69539">
        <ele>1061.7</ele>
        <time>2014-05-29T09:59:12Z</time>
      </trkpt>
      <trkpt lat="45.42796" lon="2.69517">
        <ele>1058.7</ele>
        <time>2014-05-29T09:59:29Z</time>
      </trkpt>
      <trkpt lat="45.42797" lon="2.69505">
        <ele>1059.1</ele>
        <time>2014-05-29T09:59:38Z</time>
      </trkpt>
      <trkpt lat="45.42801" lon="2.69495">
        <ele>1058.5</ele>
        <time>2014-05-29T09:59:43Z</time>
      </trkpt>
      <trkpt lat="45.42805" lon="2.69486">
        <ele>1059.5</ele>
        <time>2014-05-29T09:59:48Z</time>
      </trkpt>
      <trkpt lat="45.42809" lon="2.69478">
        <ele>1059.9</ele>
        <time>2014-05-29T09:59:52Z</time>
      </trkpt>
      <trkpt lat="45.42815" lon="2.69472">
        <ele>1059.8</ele>
        <time>2014-05-29T09:59:54Z</time>
      </trkpt>
      <trkpt lat="45.42821" lon="2.69469">
        <ele>1059.8</ele>
        <time>2014-05-29T09:59:56Z</time>
      </trkpt>
      <trkpt lat="45.42826" lon="2.69462">
        <ele>1059.6</ele>
        <time>2014-05-29T09:59:58Z</time>
      </trkpt>
      <trkpt lat="45.42832" lon="2.69455">
        <ele>1059.2</ele>
        <time>2014-05-29T10:00:00Z</time>
      </trkpt>
      <trkpt lat="45.4284" lon="2.6945">
        <ele>1058.9</ele>
        <time>2014-05-29T10:00:03Z</time>
      </trkpt>
      <trkpt lat="45.42846" lon="2.69448">
        <ele>1058.9</ele>
        <time>2014-05-29T10:00:05Z</time>
      </trkpt>
      <trkpt lat="45.42854" lon="2.69444">
        <ele>1059</ele>
        <time>2014-05-29T10:00:08Z</time>
      </trkpt>
      <trkpt lat="45.4286" lon="2.69438">
        <ele>1059.3</ele>
        <time>2014-05-29T10:00:10Z</time>
      </trkpt>
      <trkpt lat="45.42866" lon="2.69433">
        <ele>1059.5</ele>
        <time>2014-05-29T10:00:12Z</time>
      </trkpt>
      <trkpt lat="45.42872" lon="2.69426">
        <ele>1059</ele>
        <time>2014-05-29T10:00:14Z</time>
      </trkpt>
      <trkpt lat="45.42875" lon="2.69422">
        <ele>1058.6</ele>
        <time>2014-05-29T10:00:15Z</time>
      </trkpt>
      <trkpt lat="45.42885" lon="2.69409">
        <ele>1057.7</ele>
        <time>2014-05-29T10:00:18Z</time>
      </trkpt>
      <trkpt lat="45.4289" lon="2.69401">
        <ele>1057.9</ele>
        <time>2014-05-29T10:00:20Z</time>
      </trkpt>
      <trkpt lat="45.42896" lon="2.69393">
        <ele>1058.1</ele>
        <time>2014-05-29T10:00:22Z</time>
      </trkpt>
      <trkpt lat="45.429" lon="2.69385">
        <ele>1058.4</ele>
        <time>2014-05-29T10:00:24Z</time>
      </trkpt>
      <trkpt lat="45.42904" lon="2.69378">
        <ele>1058.8</ele>
        <time>2014-05-29T10:00:26Z</time>
      </trkpt>
      <trkpt lat="45.42907" lon="2.69366">
        <ele>1058.8</ele>
        <time>2014-05-29T10:00:30Z</time>
      </trkpt>
      <trkpt lat="45.42904" lon="2.69354">
        <ele>1059.5</ele>
        <time>2014-05-29T10:00:37Z</time>
      </trkpt>
      <trkpt lat="45.42902" lon="2.69343">
        <ele>1059.4</ele>
        <time>2014-05-29T10:00:43Z</time>
      </trkpt>
      <trkpt lat="45.42898" lon="2.69334">
        <ele>1059.1</ele>
        <time>2014-05-29T10:00:49Z</time>
      </trkpt>
      <trkpt lat="45.42893" lon="2.69324">
        <ele>1059.4</ele>
        <time>2014-05-29T10:00:54Z</time>
      </trkpt>
      <trkpt lat="45.42891" lon="2.69314">
        <ele>1058.9</ele>
        <time>2014-05-29T10:00:58Z</time>
      </trkpt>
      <trkpt lat="45.4289" lon="2.69306">
        <ele>1058.8</ele>
        <time>2014-05-29T10:01:00Z</time>
      </trkpt>
      <trkpt lat="45.42892" lon="2.69293">
        <ele>1058.5</ele>
        <time>2014-05-29T10:01:02Z</time>
      </trkpt>
      <trkpt lat="45.42893" lon="2.69286">
        <ele>1058.2</ele>
        <time>2014-05-29T10:01:03Z</time>
      </trkpt>
      <trkpt lat="45.42895" lon="2.69279">
        <ele>1057.9</ele>
        <time>2014-05-29T10:01:04Z</time>
      </trkpt>
      <trkpt lat="45.42898" lon="2.69269">
        <ele>1057.5</ele>
        <time>2014-05-29T10:01:06Z</time>
      </trkpt>
      <trkpt lat="45.42899" lon="2.69257">
        <ele>1055.7</ele>
        <time>2014-05-29T10:01:09Z</time>
      </trkpt>
      <trkpt lat="45.42901" lon="2.69249">
        <ele>1055.4</ele>
        <time>2014-05-29T10:01:11Z</time>
      </trkpt>
      <trkpt lat="45.42904" lon="2.69239">
        <ele>1055.1</ele>
        <time>2014-05-29T10:01:13Z</time>
      </trkpt>
      <trkpt lat="45.42906" lon="2.69228">
        <ele>1054.2</ele>
        <time>2014-05-29T10:01:15Z</time>
      </trkpt>
      <trkpt lat="45.42909" lon="2.69216">
        <ele>1052.9</ele>
        <time>2014-05-29T10:01:17Z</time>
      </trkpt>
      <trkpt lat="45.4291" lon="2.69209">
        <ele>1051.9</ele>
        <time>2014-05-29T10:01:18Z</time>
      </trkpt>
      <trkpt lat="45.42912" lon="2.69203">
        <ele>1051.2</ele>
        <time>2014-05-29T10:01:19Z</time>
      </trkpt>
      <trkpt lat="45.42914" lon="2.69196">
        <ele>1050.6</ele>
        <time>2014-05-29T10:01:20Z</time>
      </trkpt>
      <trkpt lat="45.42915" lon="2.69189">
        <ele>1049.8</ele>
        <time>2014-05-29T10:01:21Z</time>
      </trkpt>
      <trkpt lat="45.42915" lon="2.69181">
        <ele>1049.2</ele>
        <time>2014-05-29T10:01:22Z</time>
      </trkpt>
      <trkpt lat="45.42916" lon="2.69174">
        <ele>1047.8</ele>
        <time>2014-05-29T10:01:23Z</time>
      </trkpt>
      <trkpt lat="45.42916" lon="2.69167">
        <ele>1046.8</ele>
        <time>2014-05-29T10:01:24Z</time>
      </trkpt>
      <trkpt lat="45.42918" lon="2.6916">
        <ele>1046</ele>
        <time>2014-05-29T10:01:25Z</time>
      </trkpt>
      <trkpt lat="45.42921" lon="2.69149">
        <ele>1044.2</ele>
        <time>2014-05-29T10:01:27Z</time>
      </trkpt>
      <trkpt lat="45.42923" lon="2.69138">
        <ele>1042</ele>
        <time>2014-05-29T10:01:29Z</time>
      </trkpt>
      <trkpt lat="45.42926" lon="2.69126">
        <ele>1040.3</ele>
        <time>2014-05-29T10:01:31Z</time>
      </trkpt>
      <trkpt lat="45.42928" lon="2.69119">
        <ele>1039.8</ele>
        <time>2014-05-29T10:01:32Z</time>
      </trkpt>
      <trkpt lat="45.42929" lon="2.69111">
        <ele>1038.5</ele>
        <time>2014-05-29T10:01:33Z</time>
      </trkpt>
      <trkpt lat="45.42928" lon="2.69102">
        <ele>1037.4</ele>
        <time>2014-05-29T10:01:34Z</time>
      </trkpt>
      <trkpt lat="45.42929" lon="2.6909">
        <ele>1035</ele>
        <time>2014-05-29T10:01:36Z</time>
      </trkpt>
      <trkpt lat="45.42931" lon="2.6908">
        <ele>1032.9</ele>
        <time>2014-05-29T10:01:38Z</time>
      </trkpt>
      <trkpt lat="45.42935" lon="2.69069">
        <ele>1030.7</ele>
        <time>2014-05-29T10:01:41Z</time>
      </trkpt>
      <trkpt lat="45.42937" lon="2.6906">
        <ele>1029.6</ele>
        <time>2014-05-29T10:01:43Z</time>
      </trkpt>
      <trkpt lat="45.42936" lon="2.69051">
        <ele>1028.7</ele>
        <time>2014-05-29T10:01:45Z</time>
      </trkpt>
      <trkpt lat="45.42936" lon="2.69045">
        <ele>1028.4</ele>
        <time>2014-05-29T10:01:46Z</time>
      </trkpt>
      <trkpt lat="45.42936" lon="2.69038">
        <ele>1026.9</ele>
        <time>2014-05-29T10:01:47Z</time>
      </trkpt>
      <trkpt lat="45.42937" lon="2.69031">
        <ele>1025.8</ele>
        <time>2014-05-29T10:01:48Z</time>
      </trkpt>
      <trkpt lat="45.42936" lon="2.69019">
        <ele>1023.8</ele>
        <time>2014-05-29T10:01:50Z</time>
      </trkpt>
      <trkpt lat="45.42932" lon="2.69007">
        <ele>1021.7</ele>
        <time>2014-05-29T10:01:53Z</time>
      </trkpt>
      <trkpt lat="45.42927" lon="2.68997">
        <ele>1018.3</ele>
        <time>2014-05-29T10:01:58Z</time>
      </trkpt>
      <trkpt lat="45.42922" lon="2.6899">
        <ele>1017.9</ele>
        <time>2014-05-29T10:02:02Z</time>
      </trkpt>
      <trkpt lat="45.42915" lon="2.68984">
        <ele>1018</ele>
        <time>2014-05-29T10:02:06Z</time>
      </trkpt>
      <trkpt lat="45.42912" lon="2.68976">
        <ele>1018.1</ele>
        <time>2014-05-29T10:02:09Z</time>
      </trkpt>
      <trkpt lat="45.42907" lon="2.68968">
        <ele>1017.3</ele>
        <time>2014-05-29T10:02:12Z</time>
      </trkpt>
      <trkpt lat="45.42903" lon="2.6896">
        <ele>1017.1</ele>
        <time>2014-05-29T10:02:15Z</time>
      </trkpt>
      <trkpt lat="45.42898" lon="2.68951">
        <ele>1016.9</ele>
        <time>2014-05-29T10:02:19Z</time>
      </trkpt>
      <trkpt lat="45.42897" lon="2.68948">
        <ele>1017.5</ele>
        <time>2014-05-29T10:02:20Z</time>
      </trkpt>
      <trkpt lat="45.42888" lon="2.6893">
        <ele>1016.6</ele>
        <time>2014-05-29T10:02:27Z</time>
      </trkpt>
      <trkpt lat="45.42881" lon="2.68925">
        <ele>1016</ele>
        <time>2014-05-29T10:02:29Z</time>
      </trkpt>
      <trkpt lat="45.42875" lon="2.68919">
        <ele>1015.7</ele>
        <time>2014-05-29T10:02:31Z</time>
      </trkpt>
      <trkpt lat="45.42869" lon="2.68913">
        <ele>1015</ele>
        <time>2014-05-29T10:02:33Z</time>
      </trkpt>
      <trkpt lat="45.42862" lon="2.68908">
        <ele>1014.9</ele>
        <time>2014-05-29T10:02:35Z</time>
      </trkpt>
      <trkpt lat="45.42856" lon="2.68904">
        <ele>1015.1</ele>
        <time>2014-05-29T10:02:37Z</time>
      </trkpt>
      <trkpt lat="45.42848" lon="2.68898">
        <ele>1015.1</ele>
        <time>2014-05-29T10:02:40Z</time>
      </trkpt>
      <trkpt lat="45.42842" lon="2.68892">
        <ele>1015.7</ele>
        <time>2014-05-29T10:02:44Z</time>
      </trkpt>
      <trkpt lat="45.42835" lon="2.68885">
        <ele>1015.1</ele>
        <time>2014-05-29T10:02:50Z</time>
      </trkpt>
      <trkpt lat="45.42828" lon="2.68878">
        <ele>1014.5</ele>
        <time>2014-05-29T10:02:56Z</time>
      </trkpt>
      <trkpt lat="45.42821" lon="2.68871">
        <ele>1014.2</ele>
        <time>2014-05-29T10:03:01Z</time>
      </trkpt>
      <trkpt lat="45.42818" lon="2.68859">
        <ele>1016.5</ele>
        <time>2014-05-29T10:03:08Z</time>
      </trkpt>
      <trkpt lat="45.42823" lon="2.6885">
        <ele>1017.6</ele>
        <time>2014-05-29T10:03:14Z</time>
      </trkpt>
      <trkpt lat="45.4283" lon="2.68842">
        <ele>1016.8</ele>
        <time>2014-05-29T10:03:18Z</time>
      </trkpt>
      <trkpt lat="45.42837" lon="2.68834">
        <ele>1016.8</ele>
        <time>2014-05-29T10:03:22Z</time>
      </trkpt>
      <trkpt lat="45.42838" lon="2.68831">
        <ele>1016.8</ele>
        <time>2014-05-29T10:03:23Z</time>
      </trkpt>
      <trkpt lat="45.4284" lon="2.68811">
        <ele>1016.3</ele>
        <time>2014-05-29T10:03:28Z</time>
      </trkpt>
      <trkpt lat="45.42839" lon="2.68802">
        <ele>1015.8</ele>
        <time>2014-05-29T10:03:30Z</time>
      </trkpt>
      <trkpt lat="45.42839" lon="2.68793">
        <ele>1016.1</ele>
        <time>2014-05-29T10:03:32Z</time>
      </trkpt>
      <trkpt lat="45.42841" lon="2.68782">
        <ele>1016</ele>
        <time>2014-05-29T10:03:34Z</time>
      </trkpt>
      <trkpt lat="45.42844" lon="2.68771">
        <ele>1015.7</ele>
        <time>2014-05-29T10:03:36Z</time>
      </trkpt>
      <trkpt lat="45.42846" lon="2.68761">
        <ele>1015.4</ele>
        <time>2014-05-29T10:03:38Z</time>
      </trkpt>
      <trkpt lat="45.42848" lon="2.68752">
        <ele>1014.8</ele>
        <time>2014-05-29T10:03:40Z</time>
      </trkpt>
      <trkpt lat="45.4285" lon="2.68744">
        <ele>1014.2</ele>
        <time>2014-05-29T10:03:42Z</time>
      </trkpt>
      <trkpt lat="45.42855" lon="2.68733">
        <ele>1014.5</ele>
        <time>2014-05-29T10:03:45Z</time>
      </trkpt>
      <trkpt lat="45.42858" lon="2.68721">
        <ele>1014.1</ele>
        <time>2014-05-29T10:03:48Z</time>
      </trkpt>
      <trkpt lat="45.42861" lon="2.68714">
        <ele>1014</ele>
        <time>2014-05-29T10:03:50Z</time>
      </trkpt>
      <trkpt lat="45.42864" lon="2.68706">
        <ele>1013.8</ele>
        <time>2014-05-29T10:03:52Z</time>
      </trkpt>
      <trkpt lat="45.42869" lon="2.68696">
        <ele>1013.9</ele>
        <time>2014-05-29T10:03:54Z</time>
      </trkpt>
      <trkpt lat="45.42872" lon="2.68686">
        <ele>1013.9</ele>
        <time>2014-05-29T10:03:56Z</time>
      </trkpt>
      <trkpt lat="45.42875" lon="2.68675">
        <ele>1013.9</ele>
        <time>2014-05-29T10:03:59Z</time>
      </trkpt>
      <trkpt lat="45.42875" lon="2.68663">
        <ele>1014.1</ele>
        <time>2014-05-29T10:04:03Z</time>
      </trkpt>
      <trkpt lat="45.42874" lon="2.68651">
        <ele>1015</ele>
        <time>2014-05-29T10:04:07Z</time>
      </trkpt>
      <trkpt lat="45.42872" lon="2.68643">
        <ele>1015.2</ele>
        <time>2014-05-29T10:04:09Z</time>
      </trkpt>
      <trkpt lat="45.42867" lon="2.68634">
        <ele>1015.2</ele>
        <time>2014-05-29T10:04:11Z</time>
      </trkpt>
      <trkpt lat="45.42861" lon="2.68628">
        <ele>1014.8</ele>
        <time>2014-05-29T10:04:14Z</time>
      </trkpt>
      <trkpt lat="45.42855" lon="2.68624">
        <ele>1014.8</ele>
        <time>2014-05-29T10:04:17Z</time>
      </trkpt>
      <trkpt lat="45.42851" lon="2.68614">
        <ele>1014.6</ele>
        <time>2014-05-29T10:04:20Z</time>
      </trkpt>
      <trkpt lat="45.42848" lon="2.68606">
        <ele>1014.5</ele>
        <time>2014-05-29T10:04:23Z</time>
      </trkpt>
      <trkpt lat="45.42845" lon="2.68597">
        <ele>1015</ele>
        <time>2014-05-29T10:04:26Z</time>
      </trkpt>
      <trkpt lat="45.42843" lon="2.68594">
        <ele>1014.9</ele>
        <time>2014-05-29T10:04:27Z</time>
      </trkpt>
      <trkpt lat="45.42844" lon="2.68577">
        <ele>1015.7</ele>
        <time>2014-05-29T10:04:32Z</time>
      </trkpt>
      <trkpt lat="45.42847" lon="2.68565">
        <ele>1015.3</ele>
        <time>2014-05-29T10:04:36Z</time>
      </trkpt>
      <trkpt lat="45.4285" lon="2.68555">
        <ele>1016</ele>
        <time>2014-05-29T10:04:45Z</time>
      </trkpt>
      <trkpt lat="45.42853" lon="2.68543">
        <ele>1017.4</ele>
        <time>2014-05-29T10:04:52Z</time>
      </trkpt>
      <trkpt lat="45.42852" lon="2.68531">
        <ele>1018.4</ele>
        <time>2014-05-29T10:04:58Z</time>
      </trkpt>
      <trkpt lat="45.42856" lon="2.68522">
        <ele>1018</ele>
        <time>2014-05-29T10:05:01Z</time>
      </trkpt>
      <trkpt lat="45.4286" lon="2.68512">
        <ele>1017.9</ele>
        <time>2014-05-29T10:05:03Z</time>
      </trkpt>
      <trkpt lat="45.42858" lon="2.685">
        <ele>1016.3</ele>
        <time>2014-05-29T10:05:06Z</time>
      </trkpt>
      <trkpt lat="45.42854" lon="2.68494">
        <ele>1014.9</ele>
        <time>2014-05-29T10:05:08Z</time>
      </trkpt>
      <trkpt lat="45.4285" lon="2.68486">
        <ele>1014.8</ele>
        <time>2014-05-29T10:05:10Z</time>
      </trkpt>
      <trkpt lat="45.42845" lon="2.68479">
        <ele>1013.4</ele>
        <time>2014-05-29T10:05:12Z</time>
      </trkpt>
      <trkpt lat="45.42842" lon="2.68468">
        <ele>1012.4</ele>
        <time>2014-05-29T10:05:14Z</time>
      </trkpt>
      <trkpt lat="45.42838" lon="2.68459">
        <ele>1012.1</ele>
        <time>2014-05-29T10:05:16Z</time>
      </trkpt>
      <trkpt lat="45.42834" lon="2.68449">
        <ele>1011.3</ele>
        <time>2014-05-29T10:05:18Z</time>
      </trkpt>
      <trkpt lat="45.42831" lon="2.68439">
        <ele>1010.1</ele>
        <time>2014-05-29T10:05:20Z</time>
      </trkpt>
      <trkpt lat="45.4283" lon="2.68427">
        <ele>1008.6</ele>
        <time>2014-05-29T10:05:24Z</time>
      </trkpt>
      <trkpt lat="45.42826" lon="2.68416">
        <ele>1006.5</ele>
        <time>2014-05-29T10:05:28Z</time>
      </trkpt>
      <trkpt lat="45.42826" lon="2.68415">
        <ele>1005.8</ele>
        <time>2014-05-29T10:05:29Z</time>
      </trkpt>
      <trkpt lat="45.42812" lon="2.68405">
        <ele>998.4</ele>
        <time>2014-05-29T10:05:41Z</time>
      </trkpt>
      <trkpt lat="45.42805" lon="2.68403">
        <ele>997</ele>
        <time>2014-05-29T10:05:43Z</time>
      </trkpt>
      <trkpt lat="45.42801" lon="2.684">
        <ele>995.9</ele>
        <time>2014-05-29T10:05:44Z</time>
      </trkpt>
      <trkpt lat="45.42797" lon="2.68396">
        <ele>995</ele>
        <time>2014-05-29T10:05:45Z</time>
      </trkpt>
      <trkpt lat="45.42792" lon="2.68393">
        <ele>994.4</ele>
        <time>2014-05-29T10:05:46Z</time>
      </trkpt>
      <trkpt lat="45.42784" lon="2.68389">
        <ele>993.8</ele>
        <time>2014-05-29T10:05:48Z</time>
      </trkpt>
      <trkpt lat="45.42776" lon="2.68389">
        <ele>992.9</ele>
        <time>2014-05-29T10:05:50Z</time>
      </trkpt>
      <trkpt lat="45.42768" lon="2.6839">
        <ele>990.8</ele>
        <time>2014-05-29T10:05:55Z</time>
      </trkpt>
      <trkpt lat="45.42761" lon="2.68391">
        <ele>990.5</ele>
        <time>2014-05-29T10:05:59Z</time>
      </trkpt>
      <trkpt lat="45.42755" lon="2.68382">
        <ele>989.3</ele>
        <time>2014-05-29T10:06:03Z</time>
      </trkpt>
      <trkpt lat="45.42754" lon="2.68373">
        <ele>988.5</ele>
        <time>2014-05-29T10:06:05Z</time>
      </trkpt>
      <trkpt lat="45.42753" lon="2.68361">
        <ele>987.6</ele>
        <time>2014-05-29T10:06:07Z</time>
      </trkpt>
      <trkpt lat="45.42751" lon="2.68354">
        <ele>987.1</ele>
        <time>2014-05-29T10:06:08Z</time>
      </trkpt>
      <trkpt lat="45.4275" lon="2.68348">
        <ele>986.7</ele>
        <time>2014-05-29T10:06:09Z</time>
      </trkpt>
      <trkpt lat="45.42748" lon="2.68342">
        <ele>985.5</ele>
        <time>2014-05-29T10:06:10Z</time>
      </trkpt>
      <trkpt lat="45.42745" lon="2.68335">
        <ele>984.6</ele>
        <time>2014-05-29T10:06:11Z</time>
      </trkpt>
      <trkpt lat="45.42742" lon="2.68328">
        <ele>984</ele>
        <time>2014-05-29T10:06:12Z</time>
      </trkpt>
      <trkpt lat="45.4274" lon="2.68321">
        <ele>983.3</ele>
        <time>2014-05-29T10:06:13Z</time>
      </trkpt>
      <trkpt lat="45.42737" lon="2.68314">
        <ele>982.8</ele>
        <time>2014-05-29T10:06:14Z</time>
      </trkpt>
      <trkpt lat="45.42733" lon="2.68307">
        <ele>981.8</ele>
        <time>2014-05-29T10:06:15Z</time>
      </trkpt>
      <trkpt lat="45.42729" lon="2.683">
        <ele>981.1</ele>
        <time>2014-05-29T10:06:16Z</time>
      </trkpt>
      <trkpt lat="45.42726" lon="2.68293">
        <ele>980.5</ele>
        <time>2014-05-29T10:06:17Z</time>
      </trkpt>
      <trkpt lat="45.42726" lon="2.68281">
        <ele>978.9</ele>
        <time>2014-05-29T10:06:19Z</time>
      </trkpt>
      <trkpt lat="45.42727" lon="2.68275">
        <ele>977.5</ele>
        <time>2014-05-29T10:06:20Z</time>
      </trkpt>
      <trkpt lat="45.4273" lon="2.68269">
        <ele>976.5</ele>
        <time>2014-05-29T10:06:21Z</time>
      </trkpt>
      <trkpt lat="45.42732" lon="2.68263">
        <ele>976.1</ele>
        <time>2014-05-29T10:06:22Z</time>
      </trkpt>
      <trkpt lat="45.42735" lon="2.68258">
        <ele>975.7</ele>
        <time>2014-05-29T10:06:23Z</time>
      </trkpt>
      <trkpt lat="45.4274" lon="2.68248">
        <ele>975.2</ele>
        <time>2014-05-29T10:06:25Z</time>
      </trkpt>
      <trkpt lat="45.42742" lon="2.68238">
        <ele>974.6</ele>
        <time>2014-05-29T10:06:27Z</time>
      </trkpt>
      <trkpt lat="45.42743" lon="2.6823">
        <ele>973.7</ele>
        <time>2014-05-29T10:06:29Z</time>
      </trkpt>
      <trkpt lat="45.42743" lon="2.68218">
        <ele>972.6</ele>
        <time>2014-05-29T10:06:32Z</time>
      </trkpt>
      <trkpt lat="45.42742" lon="2.68214">
        <ele>972.4</ele>
        <time>2014-05-29T10:06:33Z</time>
      </trkpt>
      <trkpt lat="45.4274" lon="2.68199">
        <ele>972.4</ele>
        <time>2014-05-29T10:06:36Z</time>
      </trkpt>
      <trkpt lat="45.42739" lon="2.6819">
        <ele>972.6</ele>
        <time>2014-05-29T10:06:38Z</time>
      </trkpt>
      <trkpt lat="45.4274" lon="2.68179">
        <ele>972.1</ele>
        <time>2014-05-29T10:06:40Z</time>
      </trkpt>
      <trkpt lat="45.42742" lon="2.68168">
        <ele>971.4</ele>
        <time>2014-05-29T10:06:42Z</time>
      </trkpt>
      <trkpt lat="45.42744" lon="2.68158">
        <ele>970.5</ele>
        <time>2014-05-29T10:06:44Z</time>
      </trkpt>
      <trkpt lat="45.42738" lon="2.68149">
        <ele>969.8</ele>
        <time>2014-05-29T10:06:47Z</time>
      </trkpt>
      <trkpt lat="45.42731" lon="2.68148">
        <ele>969.8</ele>
        <time>2014-05-29T10:06:49Z</time>
      </trkpt>
      <trkpt lat="45.42724" lon="2.68146">
        <ele>969.4</ele>
        <time>2014-05-29T10:06:51Z</time>
      </trkpt>
      <trkpt lat="45.42716" lon="2.68142">
        <ele>969</ele>
        <time>2014-05-29T10:06:53Z</time>
      </trkpt>
      <trkpt lat="45.42712" lon="2.68139">
        <ele>968.9</ele>
        <time>2014-05-29T10:06:54Z</time>
      </trkpt>
      <trkpt lat="45.42708" lon="2.68136">
        <ele>968.9</ele>
        <time>2014-05-29T10:06:55Z</time>
      </trkpt>
      <trkpt lat="45.42704" lon="2.68132">
        <ele>968.6</ele>
        <time>2014-05-29T10:06:56Z</time>
      </trkpt>
      <trkpt lat="45.42698" lon="2.68123">
        <ele>968.3</ele>
        <time>2014-05-29T10:06:58Z</time>
      </trkpt>
      <trkpt lat="45.42692" lon="2.68114">
        <ele>968.3</ele>
        <time>2014-05-29T10:07:00Z</time>
      </trkpt>
      <trkpt lat="45.42686" lon="2.68107">
        <ele>968.5</ele>
        <time>2014-05-29T10:07:02Z</time>
      </trkpt>
      <trkpt lat="45.42682" lon="2.68097">
        <ele>968.2</ele>
        <time>2014-05-29T10:07:04Z</time>
      </trkpt>
      <trkpt lat="45.4268" lon="2.68087">
        <ele>967.6</ele>
        <time>2014-05-29T10:07:06Z</time>
      </trkpt>
      <trkpt lat="45.42678" lon="2.68075">
        <ele>967.8</ele>
        <time>2014-05-29T10:07:08Z</time>
      </trkpt>
      <trkpt lat="45.42677" lon="2.68069">
        <ele>967.8</ele>
        <time>2014-05-29T10:07:09Z</time>
      </trkpt>
      <trkpt lat="45.42675" lon="2.68056">
        <ele>968.3</ele>
        <time>2014-05-29T10:07:11Z</time>
      </trkpt>
      <trkpt lat="45.42677" lon="2.68045">
        <ele>967.7</ele>
        <time>2014-05-29T10:07:13Z</time>
      </trkpt>
      <trkpt lat="45.42679" lon="2.68033">
        <ele>966.8</ele>
        <time>2014-05-29T10:07:15Z</time>
      </trkpt>
      <trkpt lat="45.4268" lon="2.68026">
        <ele>966.5</ele>
        <time>2014-05-29T10:07:16Z</time>
      </trkpt>
      <trkpt lat="45.42682" lon="2.68019">
        <ele>966.4</ele>
        <time>2014-05-29T10:07:17Z</time>
      </trkpt>
      <trkpt lat="45.42683" lon="2.68013">
        <ele>966.3</ele>
        <time>2014-05-29T10:07:18Z</time>
      </trkpt>
      <trkpt lat="45.42685" lon="2.68006">
        <ele>966.2</ele>
        <time>2014-05-29T10:07:19Z</time>
      </trkpt>
      <trkpt lat="45.42686" lon="2.68">
        <ele>966.1</ele>
        <time>2014-05-29T10:07:20Z</time>
      </trkpt>
      <trkpt lat="45.42687" lon="2.67992">
        <ele>966</ele>
        <time>2014-05-29T10:07:21Z</time>
      </trkpt>
      <trkpt lat="45.42688" lon="2.67985">
        <ele>966.3</ele>
        <time>2014-05-29T10:07:22Z</time>
      </trkpt>
      <trkpt lat="45.42688" lon="2.67978">
        <ele>966.5</ele>
        <time>2014-05-29T10:07:23Z</time>
      </trkpt>
      <trkpt lat="45.42688" lon="2.6797">
        <ele>966.3</ele>
        <time>2014-05-29T10:07:24Z</time>
      </trkpt>
      <trkpt lat="45.42689" lon="2.67964">
        <ele>966.1</ele>
        <time>2014-05-29T10:07:25Z</time>
      </trkpt>
      <trkpt lat="45.4269" lon="2.67957">
        <ele>966.2</ele>
        <time>2014-05-29T10:07:26Z</time>
      </trkpt>
      <trkpt lat="45.4269" lon="2.6795">
        <ele>966.2</ele>
        <time>2014-05-29T10:07:27Z</time>
      </trkpt>
      <trkpt lat="45.42691" lon="2.67944">
        <ele>966.2</ele>
        <time>2014-05-29T10:07:28Z</time>
      </trkpt>
      <trkpt lat="45.42692" lon="2.67937">
        <ele>966.3</ele>
        <time>2014-05-29T10:07:29Z</time>
      </trkpt>
      <trkpt lat="45.42694" lon="2.67925">
        <ele>966</ele>
        <time>2014-05-29T10:07:31Z</time>
      </trkpt>
      <trkpt lat="45.42695" lon="2.67914">
        <ele>966.1</ele>
        <time>2014-05-29T10:07:33Z</time>
      </trkpt>
      <trkpt lat="45.42695" lon="2.67903">
        <ele>966.5</ele>
        <time>2014-05-29T10:07:35Z</time>
      </trkpt>
      <trkpt lat="45.42695" lon="2.67899">
        <ele>966.5</ele>
        <time>2014-05-29T10:07:36Z</time>
      </trkpt>
      <trkpt lat="45.42694" lon="2.67882">
        <ele>966.5</ele>
        <time>2014-05-29T10:07:39Z</time>
      </trkpt>
      <trkpt lat="45.42691" lon="2.67871">
        <ele>966</ele>
        <time>2014-05-29T10:07:41Z</time>
      </trkpt>
      <trkpt lat="45.4269" lon="2.6786">
        <ele>965</ele>
        <time>2014-05-29T10:07:43Z</time>
      </trkpt>
      <trkpt lat="45.42689" lon="2.67849">
        <ele>964.7</ele>
        <time>2014-05-29T10:07:45Z</time>
      </trkpt>
      <trkpt lat="45.42688" lon="2.67842">
        <ele>964.8</ele>
        <time>2014-05-29T10:07:46Z</time>
      </trkpt>
      <trkpt lat="45.42686" lon="2.67836">
        <ele>964.9</ele>
        <time>2014-05-29T10:07:47Z</time>
      </trkpt>
      <trkpt lat="45.42683" lon="2.6783">
        <ele>964.5</ele>
        <time>2014-05-29T10:07:48Z</time>
      </trkpt>
      <trkpt lat="45.42681" lon="2.67825">
        <ele>964.2</ele>
        <time>2014-05-29T10:07:49Z</time>
      </trkpt>
      <trkpt lat="45.42677" lon="2.67814">
        <ele>964.9</ele>
        <time>2014-05-29T10:07:51Z</time>
      </trkpt>
      <trkpt lat="45.42675" lon="2.67803">
        <ele>964.7</ele>
        <time>2014-05-29T10:07:53Z</time>
      </trkpt>
      <trkpt lat="45.42672" lon="2.67793">
        <ele>964.7</ele>
        <time>2014-05-29T10:07:55Z</time>
      </trkpt>
      <trkpt lat="45.42666" lon="2.67785">
        <ele>964.8</ele>
        <time>2014-05-29T10:07:57Z</time>
      </trkpt>
      <trkpt lat="45.42659" lon="2.6778">
        <ele>964.8</ele>
        <time>2014-05-29T10:07:59Z</time>
      </trkpt>
      <trkpt lat="45.42651" lon="2.67777">
        <ele>964.9</ele>
        <time>2014-05-29T10:08:01Z</time>
      </trkpt>
      <trkpt lat="45.42643" lon="2.67775">
        <ele>964.9</ele>
        <time>2014-05-29T10:08:03Z</time>
      </trkpt>
      <trkpt lat="45.42635" lon="2.67774">
        <ele>964.7</ele>
        <time>2014-05-29T10:08:05Z</time>
      </trkpt>
      <trkpt lat="45.42627" lon="2.67774">
        <ele>964.6</ele>
        <time>2014-05-29T10:08:07Z</time>
      </trkpt>
      <trkpt lat="45.42623" lon="2.67774">
        <ele>964.5</ele>
        <time>2014-05-29T10:08:08Z</time>
      </trkpt>
      <trkpt lat="45.42618" lon="2.67774">
        <ele>964.6</ele>
        <time>2014-05-29T10:08:09Z</time>
      </trkpt>
      <trkpt lat="45.42613" lon="2.67774">
        <ele>964.8</ele>
        <time>2014-05-29T10:08:10Z</time>
      </trkpt>
      <trkpt lat="45.42608" lon="2.67772">
        <ele>964.4</ele>
        <time>2014-05-29T10:08:11Z</time>
      </trkpt>
      <trkpt lat="45.42603" lon="2.67771">
        <ele>964.2</ele>
        <time>2014-05-29T10:08:12Z</time>
      </trkpt>
      <trkpt lat="45.42595" lon="2.67768">
        <ele>963.6</ele>
        <time>2014-05-29T10:08:14Z</time>
      </trkpt>
      <trkpt lat="45.42587" lon="2.67763">
        <ele>962.8</ele>
        <time>2014-05-29T10:08:16Z</time>
      </trkpt>
      <trkpt lat="45.42581" lon="2.67756">
        <ele>962.1</ele>
        <time>2014-05-29T10:08:18Z</time>
      </trkpt>
      <trkpt lat="45.42574" lon="2.67749">
        <ele>962</ele>
        <time>2014-05-29T10:08:20Z</time>
      </trkpt>
      <trkpt lat="45.42568" lon="2.67743">
        <ele>962.3</ele>
        <time>2014-05-29T10:08:22Z</time>
      </trkpt>
      <trkpt lat="45.4256" lon="2.67739">
        <ele>962.6</ele>
        <time>2014-05-29T10:08:25Z</time>
      </trkpt>
      <trkpt lat="45.42551" lon="2.6774">
        <ele>962.4</ele>
        <time>2014-05-29T10:08:30Z</time>
      </trkpt>
      <trkpt lat="45.42543" lon="2.67741">
        <ele>963.9</ele>
        <time>2014-05-29T10:08:38Z</time>
      </trkpt>
      <trkpt lat="45.42542" lon="2.67741">
        <ele>964.4</ele>
        <time>2014-05-29T10:08:39Z</time>
      </trkpt>
      <trkpt lat="45.4253" lon="2.67735">
        <ele>964.3</ele>
        <time>2014-05-29T10:08:49Z</time>
      </trkpt>
      <trkpt lat="45.42524" lon="2.67731">
        <ele>964.7</ele>
        <time>2014-05-29T10:08:51Z</time>
      </trkpt>
      <trkpt lat="45.42517" lon="2.67726">
        <ele>964.1</ele>
        <time>2014-05-29T10:08:53Z</time>
      </trkpt>
      <trkpt lat="45.42511" lon="2.67725">
        <ele>964</ele>
        <time>2014-05-29T10:08:55Z</time>
      </trkpt>
      <trkpt lat="45.42504" lon="2.67723">
        <ele>963.8</ele>
        <time>2014-05-29T10:08:57Z</time>
      </trkpt>
      <trkpt lat="45.42497" lon="2.67722">
        <ele>963.8</ele>
        <time>2014-05-29T10:08:59Z</time>
      </trkpt>
      <trkpt lat="45.4249" lon="2.67722">
        <ele>963.5</ele>
        <time>2014-05-29T10:09:01Z</time>
      </trkpt>
      <trkpt lat="45.42482" lon="2.67724">
        <ele>963.2</ele>
        <time>2014-05-29T10:09:03Z</time>
      </trkpt>
      <trkpt lat="45.42475" lon="2.67723">
        <ele>963.3</ele>
        <time>2014-05-29T10:09:06Z</time>
      </trkpt>
      <trkpt lat="45.42467" lon="2.67722">
        <ele>963.1</ele>
        <time>2014-05-29T10:09:10Z</time>
      </trkpt>
      <trkpt lat="45.42461" lon="2.67726">
        <ele>964.4</ele>
        <time>2014-05-29T10:09:13Z</time>
      </trkpt>
      <trkpt lat="45.42455" lon="2.67731">
        <ele>964.2</ele>
        <time>2014-05-29T10:09:15Z</time>
      </trkpt>
      <trkpt lat="45.4245" lon="2.67736">
        <ele>964.8</ele>
        <time>2014-05-29T10:09:17Z</time>
      </trkpt>
      <trkpt lat="45.42442" lon="2.67741">
        <ele>964.5</ele>
        <time>2014-05-29T10:09:20Z</time>
      </trkpt>
      <trkpt lat="45.42434" lon="2.67746">
        <ele>964.3</ele>
        <time>2014-05-29T10:09:23Z</time>
      </trkpt>
      <trkpt lat="45.42427" lon="2.67742">
        <ele>964</ele>
        <time>2014-05-29T10:09:26Z</time>
      </trkpt>
      <trkpt lat="45.4242" lon="2.67735">
        <ele>963.3</ele>
        <time>2014-05-29T10:09:28Z</time>
      </trkpt>
      <trkpt lat="45.42413" lon="2.67728">
        <ele>963</ele>
        <time>2014-05-29T10:09:30Z</time>
      </trkpt>
      <trkpt lat="45.42405" lon="2.67727">
        <ele>962.8</ele>
        <time>2014-05-29T10:09:32Z</time>
      </trkpt>
      <trkpt lat="45.42398" lon="2.67729">
        <ele>962.5</ele>
        <time>2014-05-29T10:09:34Z</time>
      </trkpt>
      <trkpt lat="45.42391" lon="2.67731">
        <ele>961.6</ele>
        <time>2014-05-29T10:09:36Z</time>
      </trkpt>
      <trkpt lat="45.42383" lon="2.67733">
        <ele>961.3</ele>
        <time>2014-05-29T10:09:38Z</time>
      </trkpt>
      <trkpt lat="45.42376" lon="2.67736">
        <ele>961.2</ele>
        <time>2014-05-29T10:09:40Z</time>
      </trkpt>
      <trkpt lat="45.42373" lon="2.67738">
        <ele>961.2</ele>
        <time>2014-05-29T10:09:41Z</time>
      </trkpt>
      <trkpt lat="45.42361" lon="2.67744">
        <ele>960.7</ele>
        <time>2014-05-29T10:09:45Z</time>
      </trkpt>
      <trkpt lat="45.42356" lon="2.67747">
        <ele>959.7</ele>
        <time>2014-05-29T10:09:47Z</time>
      </trkpt>
      <trkpt lat="45.4235" lon="2.67752">
        <ele>959.6</ele>
        <time>2014-05-29T10:09:49Z</time>
      </trkpt>
      <trkpt lat="45.42344" lon="2.67758">
        <ele>960</ele>
        <time>2014-05-29T10:09:51Z</time>
      </trkpt>
      <trkpt lat="45.42338" lon="2.67763">
        <ele>960.3</ele>
        <time>2014-05-29T10:09:53Z</time>
      </trkpt>
      <trkpt lat="45.42332" lon="2.67769">
        <ele>960.4</ele>
        <time>2014-05-29T10:09:55Z</time>
      </trkpt>
      <trkpt lat="45.42325" lon="2.67776">
        <ele>960.4</ele>
        <time>2014-05-29T10:09:58Z</time>
      </trkpt>
      <trkpt lat="45.42318" lon="2.67781">
        <ele>960.8</ele>
        <time>2014-05-29T10:10:01Z</time>
      </trkpt>
      <trkpt lat="45.42312" lon="2.6779">
        <ele>961.9</ele>
        <time>2014-05-29T10:10:05Z</time>
      </trkpt>
      <trkpt lat="45.42307" lon="2.67798">
        <ele>962.4</ele>
        <time>2014-05-29T10:10:09Z</time>
      </trkpt>
      <trkpt lat="45.42306" lon="2.67809">
        <ele>963.8</ele>
        <time>2014-05-29T10:10:14Z</time>
      </trkpt>
      <trkpt lat="45.42298" lon="2.67805">
        <ele>963.7</ele>
        <time>2014-05-29T10:10:27Z</time>
      </trkpt>
      <trkpt lat="45.42296" lon="2.67793">
        <ele>963.8</ele>
        <time>2014-05-29T10:10:32Z</time>
      </trkpt>
      <trkpt lat="45.42292" lon="2.67785">
        <ele>963.5</ele>
        <time>2014-05-29T10:10:34Z</time>
      </trkpt>
      <trkpt lat="45.42289" lon="2.6778">
        <ele>963.4</ele>
        <time>2014-05-29T10:10:35Z</time>
      </trkpt>
      <trkpt lat="45.42283" lon="2.67777">
        <ele>962.5</ele>
        <time>2014-05-29T10:10:36Z</time>
      </trkpt>
      <trkpt lat="45.42278" lon="2.67776">
        <ele>961.8</ele>
        <time>2014-05-29T10:10:37Z</time>
      </trkpt>
      <trkpt lat="45.42272" lon="2.67777">
        <ele>961.2</ele>
        <time>2014-05-29T10:10:38Z</time>
      </trkpt>
      <trkpt lat="45.42267" lon="2.67779">
        <ele>961</ele>
        <time>2014-05-29T10:10:39Z</time>
      </trkpt>
      <trkpt lat="45.42259" lon="2.67784">
        <ele>960.7</ele>
        <time>2014-05-29T10:10:41Z</time>
      </trkpt>
      <trkpt lat="45.42253" lon="2.67791">
        <ele>960.4</ele>
        <time>2014-05-29T10:10:43Z</time>
      </trkpt>
      <trkpt lat="45.4225" lon="2.67794">
        <ele>960.3</ele>
        <time>2014-05-29T10:10:44Z</time>
      </trkpt>
      <trkpt lat="45.42241" lon="2.67804">
        <ele>959.1</ele>
        <time>2014-05-29T10:10:47Z</time>
      </trkpt>
      <trkpt lat="45.42234" lon="2.67808">
        <ele>959.3</ele>
        <time>2014-05-29T10:10:49Z</time>
      </trkpt>
      <trkpt lat="45.42226" lon="2.67807">
        <ele>959.3</ele>
        <time>2014-05-29T10:10:51Z</time>
      </trkpt>
      <trkpt lat="45.42218" lon="2.67805">
        <ele>958.9</ele>
        <time>2014-05-29T10:10:53Z</time>
      </trkpt>
      <trkpt lat="45.4221" lon="2.67802">
        <ele>958.9</ele>
        <time>2014-05-29T10:10:55Z</time>
      </trkpt>
      <trkpt lat="45.42202" lon="2.67798">
        <ele>959.2</ele>
        <time>2014-05-29T10:10:57Z</time>
      </trkpt>
      <trkpt lat="45.42195" lon="2.67795">
        <ele>958.8</ele>
        <time>2014-05-29T10:10:59Z</time>
      </trkpt>
      <trkpt lat="45.42187" lon="2.67791">
        <ele>958.7</ele>
        <time>2014-05-29T10:11:01Z</time>
      </trkpt>
      <trkpt lat="45.42181" lon="2.67786">
        <ele>958.7</ele>
        <time>2014-05-29T10:11:03Z</time>
      </trkpt>
      <trkpt lat="45.42173" lon="2.67782">
        <ele>958.8</ele>
        <time>2014-05-29T10:11:05Z</time>
      </trkpt>
      <trkpt lat="45.42168" lon="2.67777">
        <ele>958.9</ele>
        <time>2014-05-29T10:11:07Z</time>
      </trkpt>
      <trkpt lat="45.42162" lon="2.67776">
        <ele>959.1</ele>
        <time>2014-05-29T10:11:09Z</time>
      </trkpt>
      <trkpt lat="45.42156" lon="2.67775">
        <ele>959.3</ele>
        <time>2014-05-29T10:11:11Z</time>
      </trkpt>
      <trkpt lat="45.4215" lon="2.67773">
        <ele>959.4</ele>
        <time>2014-05-29T10:11:13Z</time>
      </trkpt>
      <trkpt lat="45.42141" lon="2.67771">
        <ele>958.7</ele>
        <time>2014-05-29T10:11:15Z</time>
      </trkpt>
      <trkpt lat="45.42136" lon="2.6777">
        <ele>958.5</ele>
        <time>2014-05-29T10:11:16Z</time>
      </trkpt>
      <trkpt lat="45.42131" lon="2.67768">
        <ele>958.4</ele>
        <time>2014-05-29T10:11:17Z</time>
      </trkpt>
      <trkpt lat="45.42127" lon="2.67766">
        <ele>958.4</ele>
        <time>2014-05-29T10:11:18Z</time>
      </trkpt>
      <trkpt lat="45.4212" lon="2.67761">
        <ele>958.3</ele>
        <time>2014-05-29T10:11:20Z</time>
      </trkpt>
      <trkpt lat="45.42114" lon="2.67756">
        <ele>958.2</ele>
        <time>2014-05-29T10:11:22Z</time>
      </trkpt>
      <trkpt lat="45.42106" lon="2.67751">
        <ele>958.3</ele>
        <time>2014-05-29T10:11:24Z</time>
      </trkpt>
      <trkpt lat="45.42097" lon="2.67747">
        <ele>958.3</ele>
        <time>2014-05-29T10:11:26Z</time>
      </trkpt>
      <trkpt lat="45.42093" lon="2.67744">
        <ele>958.3</ele>
        <time>2014-05-29T10:11:27Z</time>
      </trkpt>
      <trkpt lat="45.42088" lon="2.67742">
        <ele>958.4</ele>
        <time>2014-05-29T10:11:28Z</time>
      </trkpt>
      <trkpt lat="45.4208" lon="2.67739">
        <ele>958.6</ele>
        <time>2014-05-29T10:11:30Z</time>
      </trkpt>
      <trkpt lat="45.42072" lon="2.67737">
        <ele>958.4</ele>
        <time>2014-05-29T10:11:32Z</time>
      </trkpt>
      <trkpt lat="45.42067" lon="2.67736">
        <ele>958.5</ele>
        <time>2014-05-29T10:11:33Z</time>
      </trkpt>
      <trkpt lat="45.42059" lon="2.67733">
        <ele>958.6</ele>
        <time>2014-05-29T10:11:35Z</time>
      </trkpt>
      <trkpt lat="45.42051" lon="2.67731">
        <ele>958.2</ele>
        <time>2014-05-29T10:11:37Z</time>
      </trkpt>
      <trkpt lat="45.42043" lon="2.67728">
        <ele>957.6</ele>
        <time>2014-05-29T10:11:39Z</time>
      </trkpt>
      <trkpt lat="45.42035" lon="2.67724">
        <ele>957.6</ele>
        <time>2014-05-29T10:11:41Z</time>
      </trkpt>
      <trkpt lat="45.42026" lon="2.67722">
        <ele>957.5</ele>
        <time>2014-05-29T10:11:43Z</time>
      </trkpt>
      <trkpt lat="45.42022" lon="2.6772">
        <ele>957.4</ele>
        <time>2014-05-29T10:11:44Z</time>
      </trkpt>
      <trkpt lat="45.42017" lon="2.67718">
        <ele>957.3</ele>
        <time>2014-05-29T10:11:45Z</time>
      </trkpt>
      <trkpt lat="45.42012" lon="2.67716">
        <ele>957.1</ele>
        <time>2014-05-29T10:11:46Z</time>
      </trkpt>
      <trkpt lat="45.42008" lon="2.67713">
        <ele>957.3</ele>
        <time>2014-05-29T10:11:47Z</time>
      </trkpt>
      <trkpt lat="45.42004" lon="2.67709">
        <ele>957.5</ele>
        <time>2014-05-29T10:11:48Z</time>
      </trkpt>
      <trkpt lat="45.41998" lon="2.677">
        <ele>957.9</ele>
        <time>2014-05-29T10:11:50Z</time>
      </trkpt>
      <trkpt lat="45.41994" lon="2.67689">
        <ele>958.2</ele>
        <time>2014-05-29T10:11:52Z</time>
      </trkpt>
      <trkpt lat="45.41993" lon="2.67677">
        <ele>958</ele>
        <time>2014-05-29T10:11:54Z</time>
      </trkpt>
      <trkpt lat="45.41994" lon="2.67667">
        <ele>957.8</ele>
        <time>2014-05-29T10:11:56Z</time>
      </trkpt>
      <trkpt lat="45.41993" lon="2.67657">
        <ele>957.4</ele>
        <time>2014-05-29T10:11:58Z</time>
      </trkpt>
      <trkpt lat="45.41993" lon="2.67649">
        <ele>957.5</ele>
        <time>2014-05-29T10:12:00Z</time>
      </trkpt>
      <trkpt lat="45.41992" lon="2.6764">
        <ele>957.7</ele>
        <time>2014-05-29T10:12:02Z</time>
      </trkpt>
      <trkpt lat="45.41993" lon="2.67632">
        <ele>958</ele>
        <time>2014-05-29T10:12:04Z</time>
      </trkpt>
      <trkpt lat="45.41993" lon="2.67622">
        <ele>958</ele>
        <time>2014-05-29T10:12:06Z</time>
      </trkpt>
      <trkpt lat="45.41992" lon="2.67611">
        <ele>957.9</ele>
        <time>2014-05-29T10:12:08Z</time>
      </trkpt>
      <trkpt lat="45.41992" lon="2.676">
        <ele>957.7</ele>
        <time>2014-05-29T10:12:10Z</time>
      </trkpt>
      <trkpt lat="45.41991" lon="2.6759">
        <ele>957.5</ele>
        <time>2014-05-29T10:12:12Z</time>
      </trkpt>
      <trkpt lat="45.4199" lon="2.67578">
        <ele>957.2</ele>
        <time>2014-05-29T10:12:14Z</time>
      </trkpt>
      <trkpt lat="45.41989" lon="2.67567">
        <ele>956.9</ele>
        <time>2014-05-29T10:12:16Z</time>
      </trkpt>
      <trkpt lat="45.41988" lon="2.67556">
        <ele>957.1</ele>
        <time>2014-05-29T10:12:18Z</time>
      </trkpt>
      <trkpt lat="45.41988" lon="2.67549">
        <ele>957.3</ele>
        <time>2014-05-29T10:12:19Z</time>
      </trkpt>
      <trkpt lat="45.41987" lon="2.67543">
        <ele>957.4</ele>
        <time>2014-05-29T10:12:20Z</time>
      </trkpt>
      <trkpt lat="45.41986" lon="2.67537">
        <ele>957.3</ele>
        <time>2014-05-29T10:12:21Z</time>
      </trkpt>
      <trkpt lat="45.41985" lon="2.6753">
        <ele>957.1</ele>
        <time>2014-05-29T10:12:22Z</time>
      </trkpt>
      <trkpt lat="45.41984" lon="2.67524">
        <ele>956.9</ele>
        <time>2014-05-29T10:12:23Z</time>
      </trkpt>
      <trkpt lat="45.41983" lon="2.67517">
        <ele>956.7</ele>
        <time>2014-05-29T10:12:24Z</time>
      </trkpt>
      <trkpt lat="45.41982" lon="2.67511">
        <ele>956.6</ele>
        <time>2014-05-29T10:12:25Z</time>
      </trkpt>
      <trkpt lat="45.41981" lon="2.67504">
        <ele>956.6</ele>
        <time>2014-05-29T10:12:26Z</time>
      </trkpt>
      <trkpt lat="45.4198" lon="2.67497">
        <ele>956.5</ele>
        <time>2014-05-29T10:12:27Z</time>
      </trkpt>
      <trkpt lat="45.41978" lon="2.67485">
        <ele>956.5</ele>
        <time>2014-05-29T10:12:29Z</time>
      </trkpt>
      <trkpt lat="45.41972" lon="2.67476">
        <ele>957.1</ele>
        <time>2014-05-29T10:12:31Z</time>
      </trkpt>
      <trkpt lat="45.41964" lon="2.6748">
        <ele>957.6</ele>
        <time>2014-05-29T10:12:38Z</time>
      </trkpt>
      <trkpt lat="45.41963" lon="2.67492">
        <ele>961.7</ele>
        <time>2014-05-29T10:13:04Z</time>
      </trkpt>
      <trkpt lat="45.41962" lon="2.67493">
        <ele>961.7</ele>
        <time>2014-05-29T10:13:05Z</time>
      </trkpt>
      <trkpt lat="45.41955" lon="2.67513">
        <ele>963.7</ele>
        <time>2014-05-29T10:13:21Z</time>
      </trkpt>
      <trkpt lat="45.41955" lon="2.67526">
        <ele>964.9</ele>
        <time>2014-05-29T10:13:29Z</time>
      </trkpt>
      <trkpt lat="45.41953" lon="2.67537">
        <ele>966.2</ele>
        <time>2014-05-29T10:13:36Z</time>
      </trkpt>
      <trkpt lat="45.41947" lon="2.67545">
        <ele>967.2</ele>
        <time>2014-05-29T10:13:42Z</time>
      </trkpt>
      <trkpt lat="45.41941" lon="2.67555">
        <ele>968.2</ele>
        <time>2014-05-29T10:13:48Z</time>
      </trkpt>
      <trkpt lat="45.41936" lon="2.67561">
        <ele>968.8</ele>
        <time>2014-05-29T10:13:53Z</time>
      </trkpt>
      <trkpt lat="45.41931" lon="2.67571">
        <ele>969.6</ele>
        <time>2014-05-29T10:13:59Z</time>
      </trkpt>
      <trkpt lat="45.41926" lon="2.67581">
        <ele>969.6</ele>
        <time>2014-05-29T10:14:07Z</time>
      </trkpt>
      <trkpt lat="45.41926" lon="2.67582">
        <ele>969.8</ele>
        <time>2014-05-29T10:14:08Z</time>
      </trkpt>
      <trkpt lat="45.41915" lon="2.67599">
        <ele>973</ele>
        <time>2014-05-29T10:14:26Z</time>
      </trkpt>
      <trkpt lat="45.41908" lon="2.67606">
        <ele>974.5</ele>
        <time>2014-05-29T10:14:33Z</time>
      </trkpt>
      <trkpt lat="45.41902" lon="2.67614">
        <ele>975.1</ele>
        <time>2014-05-29T10:14:41Z</time>
      </trkpt>
      <trkpt lat="45.41896" lon="2.67621">
        <ele>976.7</ele>
        <time>2014-05-29T10:14:47Z</time>
      </trkpt>
      <trkpt lat="45.41893" lon="2.67633">
        <ele>975.6</ele>
        <time>2014-05-29T10:14:54Z</time>
      </trkpt>
      <trkpt lat="45.41894" lon="2.67642">
        <ele>975.5</ele>
        <time>2014-05-29T10:14:57Z</time>
      </trkpt>
      <trkpt lat="45.41895" lon="2.67655">
        <ele>976</ele>
        <time>2014-05-29T10:15:01Z</time>
      </trkpt>
      <trkpt lat="45.41892" lon="2.67666">
        <ele>976.5</ele>
        <time>2014-05-29T10:15:06Z</time>
      </trkpt>
      <trkpt lat="45.41891" lon="2.67678">
        <ele>977</ele>
        <time>2014-05-29T10:15:10Z</time>
      </trkpt>
      <trkpt lat="45.41891" lon="2.67681">
        <ele>977.1</ele>
        <time>2014-05-29T10:15:11Z</time>
      </trkpt>
      <trkpt lat="45.41894" lon="2.677">
        <ele>977.9</ele>
        <time>2014-05-29T10:15:15Z</time>
      </trkpt>
      <trkpt lat="45.41894" lon="2.6771">
        <ele>977.4</ele>
        <time>2014-05-29T10:15:17Z</time>
      </trkpt>
      <trkpt lat="45.41889" lon="2.67717">
        <ele>977.2</ele>
        <time>2014-05-29T10:15:19Z</time>
      </trkpt>
      <trkpt lat="45.41883" lon="2.67726">
        <ele>976.9</ele>
        <time>2014-05-29T10:15:22Z</time>
      </trkpt>
      <trkpt lat="45.41876" lon="2.67732">
        <ele>976.8</ele>
        <time>2014-05-29T10:15:25Z</time>
      </trkpt>
      <trkpt lat="45.41869" lon="2.67735">
        <ele>977.1</ele>
        <time>2014-05-29T10:15:28Z</time>
      </trkpt>
      <trkpt lat="45.41861" lon="2.67739">
        <ele>976.8</ele>
        <time>2014-05-29T10:15:31Z</time>
      </trkpt>
      <trkpt lat="45.41855" lon="2.67742">
        <ele>977.3</ele>
        <time>2014-05-29T10:15:33Z</time>
      </trkpt>
      <trkpt lat="45.4185" lon="2.67747">
        <ele>978</ele>
        <time>2014-05-29T10:15:35Z</time>
      </trkpt>
      <trkpt lat="45.41845" lon="2.67755">
        <ele>978.5</ele>
        <time>2014-05-29T10:15:38Z</time>
      </trkpt>
      <trkpt lat="45.41842" lon="2.67765">
        <ele>978.6</ele>
        <time>2014-05-29T10:15:42Z</time>
      </trkpt>
      <trkpt lat="45.41836" lon="2.67774">
        <ele>978.2</ele>
        <time>2014-05-29T10:15:46Z</time>
      </trkpt>
      <trkpt lat="45.4183" lon="2.67782">
        <ele>977.8</ele>
        <time>2014-05-29T10:15:51Z</time>
      </trkpt>
      <trkpt lat="45.41823" lon="2.67789">
        <ele>979.4</ele>
        <time>2014-05-29T10:15:55Z</time>
      </trkpt>
      <trkpt lat="45.41816" lon="2.67796">
        <ele>980.9</ele>
        <time>2014-05-29T10:15:59Z</time>
      </trkpt>
      <trkpt lat="45.41809" lon="2.67801">
        <ele>982.9</ele>
        <time>2014-05-29T10:16:04Z</time>
      </trkpt>
      <trkpt lat="45.41802" lon="2.67804">
        <ele>982.5</ele>
        <time>2014-05-29T10:16:07Z</time>
      </trkpt>
      <trkpt lat="45.41794" lon="2.67807">
        <ele>982.7</ele>
        <time>2014-05-29T10:16:09Z</time>
      </trkpt>
      <trkpt lat="45.41787" lon="2.6781">
        <ele>982.4</ele>
        <time>2014-05-29T10:16:11Z</time>
      </trkpt>
      <trkpt lat="45.4178" lon="2.67814">
        <ele>982</ele>
        <time>2014-05-29T10:16:13Z</time>
      </trkpt>
      <trkpt lat="45.41776" lon="2.67815">
        <ele>982</ele>
        <time>2014-05-29T10:16:14Z</time>
      </trkpt>
      <trkpt lat="45.41765" lon="2.67818">
        <ele>981.7</ele>
        <time>2014-05-29T10:16:19Z</time>
      </trkpt>
      <trkpt lat="45.41759" lon="2.67821">
        <ele>982.1</ele>
        <time>2014-05-29T10:16:22Z</time>
      </trkpt>
      <trkpt lat="45.4175" lon="2.67824">
        <ele>982.1</ele>
        <time>2014-05-29T10:16:26Z</time>
      </trkpt>
      <trkpt lat="45.41745" lon="2.67826">
        <ele>981.6</ele>
        <time>2014-05-29T10:16:28Z</time>
      </trkpt>
      <trkpt lat="45.41737" lon="2.67831">
        <ele>981</ele>
        <time>2014-05-29T10:16:31Z</time>
      </trkpt>
      <trkpt lat="45.41729" lon="2.67836">
        <ele>981.2</ele>
        <time>2014-05-29T10:16:34Z</time>
      </trkpt>
      <trkpt lat="45.41721" lon="2.67839">
        <ele>980.3</ele>
        <time>2014-05-29T10:16:36Z</time>
      </trkpt>
      <trkpt lat="45.41713" lon="2.6784">
        <ele>980.6</ele>
        <time>2014-05-29T10:16:38Z</time>
      </trkpt>
      <trkpt lat="45.41707" lon="2.6784">
        <ele>980.8</ele>
        <time>2014-05-29T10:16:40Z</time>
      </trkpt>
      <trkpt lat="45.417" lon="2.67837">
        <ele>980</ele>
        <time>2014-05-29T10:16:43Z</time>
      </trkpt>
      <trkpt lat="45.41694" lon="2.67833">
        <ele>979.5</ele>
        <time>2014-05-29T10:16:45Z</time>
      </trkpt>
      <trkpt lat="45.41688" lon="2.67829">
        <ele>979.7</ele>
        <time>2014-05-29T10:16:47Z</time>
      </trkpt>
      <trkpt lat="45.41682" lon="2.67821">
        <ele>979.8</ele>
        <time>2014-05-29T10:16:50Z</time>
      </trkpt>
      <trkpt lat="45.41676" lon="2.67816">
        <ele>979.8</ele>
        <time>2014-05-29T10:16:52Z</time>
      </trkpt>
      <trkpt lat="45.4167" lon="2.67811">
        <ele>979.9</ele>
        <time>2014-05-29T10:16:54Z</time>
      </trkpt>
      <trkpt lat="45.41664" lon="2.67809">
        <ele>980</ele>
        <time>2014-05-29T10:16:56Z</time>
      </trkpt>
      <trkpt lat="45.41656" lon="2.67808">
        <ele>979.7</ele>
        <time>2014-05-29T10:16:58Z</time>
      </trkpt>
      <trkpt lat="45.41648" lon="2.67808">
        <ele>979.5</ele>
        <time>2014-05-29T10:17:00Z</time>
      </trkpt>
      <trkpt lat="45.4164" lon="2.67808">
        <ele>979.8</ele>
        <time>2014-05-29T10:17:02Z</time>
      </trkpt>
      <trkpt lat="45.41632" lon="2.67805">
        <ele>979.4</ele>
        <time>2014-05-29T10:17:04Z</time>
      </trkpt>
      <trkpt lat="45.41623" lon="2.67804">
        <ele>980.2</ele>
        <time>2014-05-29T10:17:07Z</time>
      </trkpt>
      <trkpt lat="45.41618" lon="2.67803">
        <ele>980.8</ele>
        <time>2014-05-29T10:17:09Z</time>
      </trkpt>
      <trkpt lat="45.41611" lon="2.678">
        <ele>980.3</ele>
        <time>2014-05-29T10:17:11Z</time>
      </trkpt>
      <trkpt lat="45.41605" lon="2.67797">
        <ele>980.3</ele>
        <time>2014-05-29T10:17:13Z</time>
      </trkpt>
      <trkpt lat="45.41596" lon="2.67798">
        <ele>978.8</ele>
        <time>2014-05-29T10:17:18Z</time>
      </trkpt>
      <trkpt lat="45.41593" lon="2.67799">
        <ele>978.6</ele>
        <time>2014-05-29T10:17:19Z</time>
      </trkpt>
      <trkpt lat="45.41587" lon="2.67814">
        <ele>979.1</ele>
        <time>2014-05-29T10:17:27Z</time>
      </trkpt>
      <trkpt lat="45.41582" lon="2.67822">
        <ele>979.4</ele>
        <time>2014-05-29T10:17:30Z</time>
      </trkpt>
      <trkpt lat="45.41577" lon="2.67829">
        <ele>979.9</ele>
        <time>2014-05-29T10:17:34Z</time>
      </trkpt>
      <trkpt lat="45.41574" lon="2.6784">
        <ele>980.3</ele>
        <time>2014-05-29T10:17:39Z</time>
      </trkpt>
      <trkpt lat="45.41575" lon="2.6785">
        <ele>980.8</ele>
        <time>2014-05-29T10:17:42Z</time>
      </trkpt>
      <trkpt lat="45.41575" lon="2.6786">
        <ele>980.1</ele>
        <time>2014-05-29T10:17:45Z</time>
      </trkpt>
      <trkpt lat="45.41575" lon="2.67873">
        <ele>980.2</ele>
        <time>2014-05-29T10:17:48Z</time>
      </trkpt>
      <trkpt lat="45.41574" lon="2.67884">
        <ele>979.5</ele>
        <time>2014-05-29T10:17:50Z</time>
      </trkpt>
      <trkpt lat="45.41575" lon="2.67891">
        <ele>979</ele>
        <time>2014-05-29T10:17:51Z</time>
      </trkpt>
      <trkpt lat="45.41575" lon="2.67898">
        <ele>978.7</ele>
        <time>2014-05-29T10:17:52Z</time>
      </trkpt>
      <trkpt lat="45.41575" lon="2.67906">
        <ele>978.1</ele>
        <time>2014-05-29T10:17:53Z</time>
      </trkpt>
      <trkpt lat="45.41574" lon="2.67913">
        <ele>977.7</ele>
        <time>2014-05-29T10:17:54Z</time>
      </trkpt>
      <trkpt lat="45.41572" lon="2.6792">
        <ele>976.3</ele>
        <time>2014-05-29T10:17:55Z</time>
      </trkpt>
      <trkpt lat="45.41568" lon="2.67925">
        <ele>975.2</ele>
        <time>2014-05-29T10:17:56Z</time>
      </trkpt>
      <trkpt lat="45.41565" lon="2.6793">
        <ele>974.4</ele>
        <time>2014-05-29T10:17:57Z</time>
      </trkpt>
      <trkpt lat="45.41561" lon="2.67934">
        <ele>973.7</ele>
        <time>2014-05-29T10:17:58Z</time>
      </trkpt>
      <trkpt lat="45.41557" lon="2.67939">
        <ele>973.2</ele>
        <time>2014-05-29T10:17:59Z</time>
      </trkpt>
      <trkpt lat="45.41553" lon="2.67943">
        <ele>971.8</ele>
        <time>2014-05-29T10:18:00Z</time>
      </trkpt>
      <trkpt lat="45.41547" lon="2.67951">
        <ele>969.9</ele>
        <time>2014-05-29T10:18:02Z</time>
      </trkpt>
      <trkpt lat="45.41541" lon="2.67957">
        <ele>967.5</ele>
        <time>2014-05-29T10:18:06Z</time>
      </trkpt>
      <trkpt lat="45.41532" lon="2.67956">
        <ele>963.1</ele>
        <time>2014-05-29T10:18:12Z</time>
      </trkpt>
      <trkpt lat="45.41525" lon="2.67961">
        <ele>958.4</ele>
        <time>2014-05-29T10:18:25Z</time>
      </trkpt>
      <trkpt lat="45.41524" lon="2.67961">
        <ele>958.3</ele>
        <time>2014-05-29T10:18:26Z</time>
      </trkpt>
      <trkpt lat="45.41509" lon="2.67962">
        <ele>953.1</ele>
        <time>2014-05-29T10:18:48Z</time>
      </trkpt>
      <trkpt lat="45.41501" lon="2.6796">
        <ele>951.2</ele>
        <time>2014-05-29T10:18:59Z</time>
      </trkpt>
      <trkpt lat="45.41493" lon="2.67963">
        <ele>948.8</ele>
        <time>2014-05-29T10:19:04Z</time>
      </trkpt>
      <trkpt lat="45.41484" lon="2.6796">
        <ele>945.2</ele>
        <time>2014-05-29T10:19:08Z</time>
      </trkpt>
      <trkpt lat="45.41478" lon="2.67956">
        <ele>943.8</ele>
        <time>2014-05-29T10:19:10Z</time>
      </trkpt>
      <trkpt lat="45.41474" lon="2.67953">
        <ele>942.8</ele>
        <time>2014-05-29T10:19:11Z</time>
      </trkpt>
      <trkpt lat="45.41469" lon="2.67951">
        <ele>942</ele>
        <time>2014-05-29T10:19:12Z</time>
      </trkpt>
      <trkpt lat="45.41464" lon="2.67947">
        <ele>941.4</ele>
        <time>2014-05-29T10:19:13Z</time>
      </trkpt>
      <trkpt lat="45.41459" lon="2.67943">
        <ele>940.7</ele>
        <time>2014-05-29T10:19:14Z</time>
      </trkpt>
      <trkpt lat="45.41454" lon="2.6794">
        <ele>940.1</ele>
        <time>2014-05-29T10:19:15Z</time>
      </trkpt>
      <trkpt lat="45.41446" lon="2.67937">
        <ele>939.1</ele>
        <time>2014-05-29T10:19:17Z</time>
      </trkpt>
      <trkpt lat="45.4144" lon="2.67943">
        <ele>938.3</ele>
        <time>2014-05-29T10:19:20Z</time>
      </trkpt>
      <trkpt lat="45.41433" lon="2.67944">
        <ele>937.9</ele>
        <time>2014-05-29T10:19:22Z</time>
      </trkpt>
      <trkpt lat="45.41425" lon="2.67944">
        <ele>937.5</ele>
        <time>2014-05-29T10:19:24Z</time>
      </trkpt>
      <trkpt lat="45.41418" lon="2.67947">
        <ele>936.8</ele>
        <time>2014-05-29T10:19:26Z</time>
      </trkpt>
      <trkpt lat="45.41414" lon="2.67948">
        <ele>936.5</ele>
        <time>2014-05-29T10:19:27Z</time>
      </trkpt>
      <trkpt lat="45.41409" lon="2.67949">
        <ele>935.8</ele>
        <time>2014-05-29T10:19:28Z</time>
      </trkpt>
      <trkpt lat="45.41402" lon="2.67951">
        <ele>935.3</ele>
        <time>2014-05-29T10:19:29Z</time>
      </trkpt>
      <trkpt lat="45.41396" lon="2.67953">
        <ele>934.6</ele>
        <time>2014-05-29T10:19:30Z</time>
      </trkpt>
      <trkpt lat="45.4139" lon="2.67955">
        <ele>934.1</ele>
        <time>2014-05-29T10:19:31Z</time>
      </trkpt>
      <trkpt lat="45.41384" lon="2.67957">
        <ele>933.4</ele>
        <time>2014-05-29T10:19:32Z</time>
      </trkpt>
      <trkpt lat="45.41375" lon="2.67959">
        <ele>931.6</ele>
        <time>2014-05-29T10:19:35Z</time>
      </trkpt>
      <trkpt lat="45.41368" lon="2.67961">
        <ele>929.3</ele>
        <time>2014-05-29T10:19:40Z</time>
      </trkpt>
      <trkpt lat="45.41359" lon="2.67965">
        <ele>929.1</ele>
        <time>2014-05-29T10:19:47Z</time>
      </trkpt>
      <trkpt lat="45.41352" lon="2.6797">
        <ele>930.7</ele>
        <time>2014-05-29T10:19:55Z</time>
      </trkpt>
      <trkpt lat="45.41344" lon="2.67975">
        <ele>931.7</ele>
        <time>2014-05-29T10:20:05Z</time>
      </trkpt>
      <trkpt lat="45.41336" lon="2.67979">
        <ele>930.8</ele>
        <time>2014-05-29T10:20:12Z</time>
      </trkpt>
      <trkpt lat="45.41329" lon="2.67973">
        <ele>928.8</ele>
        <time>2014-05-29T10:20:18Z</time>
      </trkpt>
      <trkpt lat="45.41321" lon="2.67971">
        <ele>928.1</ele>
        <time>2014-05-29T10:20:23Z</time>
      </trkpt>
      <trkpt lat="45.41314" lon="2.67967">
        <ele>928.1</ele>
        <time>2014-05-29T10:20:27Z</time>
      </trkpt>
      <trkpt lat="45.41307" lon="2.67965">
        <ele>928.3</ele>
        <time>2014-05-29T10:20:30Z</time>
      </trkpt>
      <trkpt lat="45.41305" lon="2.67965">
        <ele>928.7</ele>
        <time>2014-05-29T10:20:31Z</time>
      </trkpt>
      <trkpt lat="45.41291" lon="2.67965">
        <ele>928.4</ele>
        <time>2014-05-29T10:20:38Z</time>
      </trkpt>
      <trkpt lat="45.41283" lon="2.67967">
        <ele>929.4</ele>
        <time>2014-05-29T10:20:43Z</time>
      </trkpt>
      <trkpt lat="45.41275" lon="2.67971">
        <ele>930.9</ele>
        <time>2014-05-29T10:20:48Z</time>
      </trkpt>
      <trkpt lat="45.41268" lon="2.67975">
        <ele>931.7</ele>
        <time>2014-05-29T10:20:52Z</time>
      </trkpt>
      <trkpt lat="45.41261" lon="2.6798">
        <ele>932.4</ele>
        <time>2014-05-29T10:20:56Z</time>
      </trkpt>
      <trkpt lat="45.41255" lon="2.67984">
        <ele>932.2</ele>
        <time>2014-05-29T10:20:59Z</time>
      </trkpt>
      <trkpt lat="45.41247" lon="2.6799">
        <ele>931.4</ele>
        <time>2014-05-29T10:21:02Z</time>
      </trkpt>
      <trkpt lat="45.41242" lon="2.67997">
        <ele>930.5</ele>
        <time>2014-05-29T10:21:05Z</time>
      </trkpt>
      <trkpt lat="45.41234" lon="2.68002">
        <ele>928.9</ele>
        <time>2014-05-29T10:21:10Z</time>
      </trkpt>
      <trkpt lat="45.41228" lon="2.68007">
        <ele>928.7</ele>
        <time>2014-05-29T10:21:15Z</time>
      </trkpt>
      <trkpt lat="45.41221" lon="2.68014">
        <ele>928.4</ele>
        <time>2014-05-29T10:21:20Z</time>
      </trkpt>
      <trkpt lat="45.41215" lon="2.68022">
        <ele>929.3</ele>
        <time>2014-05-29T10:21:27Z</time>
      </trkpt>
      <trkpt lat="45.41209" lon="2.68029">
        <ele>929.4</ele>
        <time>2014-05-29T10:21:32Z</time>
      </trkpt>
      <trkpt lat="45.41208" lon="2.68031">
        <ele>929.4</ele>
        <time>2014-05-29T10:21:33Z</time>
      </trkpt>
      <trkpt lat="45.41195" lon="2.68043">
        <ele>928.1</ele>
        <time>2014-05-29T10:21:45Z</time>
      </trkpt>
      <trkpt lat="45.41187" lon="2.68043">
        <ele>925.7</ele>
        <time>2014-05-29T10:21:53Z</time>
      </trkpt>
      <trkpt lat="45.41179" lon="2.68048">
        <ele>925.7</ele>
        <time>2014-05-29T10:22:01Z</time>
      </trkpt>
      <trkpt lat="45.41171" lon="2.6805">
        <ele>925.2</ele>
        <time>2014-05-29T10:22:09Z</time>
      </trkpt>
      <trkpt lat="45.41162" lon="2.68049">
        <ele>925</ele>
        <time>2014-05-29T10:22:17Z</time>
      </trkpt>
      <trkpt lat="45.41154" lon="2.68042">
        <ele>926.2</ele>
        <time>2014-05-29T10:22:23Z</time>
      </trkpt>
      <trkpt lat="45.41147" lon="2.68036">
        <ele>928.2</ele>
        <time>2014-05-29T10:22:28Z</time>
      </trkpt>
      <trkpt lat="45.4114" lon="2.6803">
        <ele>929.2</ele>
        <time>2014-05-29T10:22:34Z</time>
      </trkpt>
      <trkpt lat="45.41138" lon="2.6803">
        <ele>929.2</ele>
        <time>2014-05-29T10:22:35Z</time>
      </trkpt>
      <trkpt lat="45.41124" lon="2.6802">
        <ele>930.9</ele>
        <time>2014-05-29T10:22:45Z</time>
      </trkpt>
      <trkpt lat="45.41116" lon="2.68019">
        <ele>931.5</ele>
        <time>2014-05-29T10:22:50Z</time>
      </trkpt>
      <trkpt lat="45.41109" lon="2.68021">
        <ele>931.3</ele>
        <time>2014-05-29T10:22:55Z</time>
      </trkpt>
      <trkpt lat="45.41101" lon="2.6802">
        <ele>930.4</ele>
        <time>2014-05-29T10:22:58Z</time>
      </trkpt>
      <trkpt lat="45.41093" lon="2.68019">
        <ele>928.7</ele>
        <time>2014-05-29T10:23:00Z</time>
      </trkpt>
      <trkpt lat="45.41086" lon="2.68017">
        <ele>927.2</ele>
        <time>2014-05-29T10:23:03Z</time>
      </trkpt>
      <trkpt lat="45.41077" lon="2.68018">
        <ele>926.2</ele>
        <time>2014-05-29T10:23:07Z</time>
      </trkpt>
      <trkpt lat="45.4107" lon="2.68021">
        <ele>925.7</ele>
        <time>2014-05-29T10:23:11Z</time>
      </trkpt>
      <trkpt lat="45.41062" lon="2.68018">
        <ele>926.2</ele>
        <time>2014-05-29T10:23:14Z</time>
      </trkpt>
      <trkpt lat="45.41057" lon="2.68011">
        <ele>925.8</ele>
        <time>2014-05-29T10:23:16Z</time>
      </trkpt>
      <trkpt lat="45.4105" lon="2.68007">
        <ele>925.6</ele>
        <time>2014-05-29T10:23:19Z</time>
      </trkpt>
      <trkpt lat="45.41042" lon="2.68003">
        <ele>925.4</ele>
        <time>2014-05-29T10:23:23Z</time>
      </trkpt>
      <trkpt lat="45.41035" lon="2.67998">
        <ele>924.7</ele>
        <time>2014-05-29T10:23:27Z</time>
      </trkpt>
      <trkpt lat="45.41027" lon="2.67993">
        <ele>925.4</ele>
        <time>2014-05-29T10:23:32Z</time>
      </trkpt>
      <trkpt lat="45.41018" lon="2.6799">
        <ele>925.8</ele>
        <time>2014-05-29T10:23:37Z</time>
      </trkpt>
      <trkpt lat="45.41017" lon="2.6799">
        <ele>925.9</ele>
        <time>2014-05-29T10:23:38Z</time>
      </trkpt>
      <trkpt lat="45.41003" lon="2.67989">
        <ele>927.1</ele>
        <time>2014-05-29T10:23:45Z</time>
      </trkpt>
      <trkpt lat="45.40995" lon="2.67989">
        <ele>926</ele>
        <time>2014-05-29T10:23:48Z</time>
      </trkpt>
      <trkpt lat="45.40988" lon="2.67987">
        <ele>926.4</ele>
        <time>2014-05-29T10:23:52Z</time>
      </trkpt>
      <trkpt lat="45.4098" lon="2.67988">
        <ele>926.5</ele>
        <time>2014-05-29T10:23:57Z</time>
      </trkpt>
      <trkpt lat="45.40972" lon="2.67991">
        <ele>927.2</ele>
        <time>2014-05-29T10:24:02Z</time>
      </trkpt>
      <trkpt lat="45.40964" lon="2.67993">
        <ele>928.1</ele>
        <time>2014-05-29T10:24:07Z</time>
      </trkpt>
      <trkpt lat="45.40957" lon="2.67995">
        <ele>927.4</ele>
        <time>2014-05-29T10:24:11Z</time>
      </trkpt>
      <trkpt lat="45.4095" lon="2.68001">
        <ele>927.5</ele>
        <time>2014-05-29T10:24:14Z</time>
      </trkpt>
      <trkpt lat="45.40943" lon="2.68007">
        <ele>926.5</ele>
        <time>2014-05-29T10:24:17Z</time>
      </trkpt>
      <trkpt lat="45.40934" lon="2.68012">
        <ele>925.8</ele>
        <time>2014-05-29T10:24:21Z</time>
      </trkpt>
      <trkpt lat="45.40928" lon="2.68015">
        <ele>925.7</ele>
        <time>2014-05-29T10:24:24Z</time>
      </trkpt>
      <trkpt lat="45.40921" lon="2.68021">
        <ele>924.8</ele>
        <time>2014-05-29T10:24:28Z</time>
      </trkpt>
      <trkpt lat="45.40913" lon="2.68027">
        <ele>922.8</ele>
        <time>2014-05-29T10:24:35Z</time>
      </trkpt>
      <trkpt lat="45.40905" lon="2.68031">
        <ele>922.3</ele>
        <time>2014-05-29T10:24:43Z</time>
      </trkpt>
      <trkpt lat="45.40904" lon="2.68031">
        <ele>922.7</ele>
        <time>2014-05-29T10:24:44Z</time>
      </trkpt>
      <trkpt lat="45.40891" lon="2.68032">
        <ele>923</ele>
        <time>2014-05-29T10:24:52Z</time>
      </trkpt>
      <trkpt lat="45.40883" lon="2.68032">
        <ele>923.3</ele>
        <time>2014-05-29T10:24:55Z</time>
      </trkpt>
      <trkpt lat="45.40874" lon="2.68033">
        <ele>923.6</ele>
        <time>2014-05-29T10:24:59Z</time>
      </trkpt>
      <trkpt lat="45.40865" lon="2.68037">
        <ele>923.8</ele>
        <time>2014-05-29T10:25:02Z</time>
      </trkpt>
      <trkpt lat="45.40857" lon="2.68038">
        <ele>923.7</ele>
        <time>2014-05-29T10:25:05Z</time>
      </trkpt>
      <trkpt lat="45.40849" lon="2.68038">
        <ele>924</ele>
        <time>2014-05-29T10:25:09Z</time>
      </trkpt>
      <trkpt lat="45.4084" lon="2.68035">
        <ele>924</ele>
        <time>2014-05-29T10:25:14Z</time>
      </trkpt>
      <trkpt lat="45.40831" lon="2.68035">
        <ele>922.7</ele>
        <time>2014-05-29T10:25:18Z</time>
      </trkpt>
      <trkpt lat="45.40824" lon="2.6803">
        <ele>922.2</ele>
        <time>2014-05-29T10:25:21Z</time>
      </trkpt>
      <trkpt lat="45.40815" lon="2.68027">
        <ele>921.9</ele>
        <time>2014-05-29T10:25:27Z</time>
      </trkpt>
      <trkpt lat="45.40806" lon="2.68026">
        <ele>921.9</ele>
        <time>2014-05-29T10:25:33Z</time>
      </trkpt>
      <trkpt lat="45.40799" lon="2.68025">
        <ele>922.5</ele>
        <time>2014-05-29T10:25:38Z</time>
      </trkpt>
      <trkpt lat="45.40791" lon="2.68022">
        <ele>922.1</ele>
        <time>2014-05-29T10:25:42Z</time>
      </trkpt>
      <trkpt lat="45.40782" lon="2.68026">
        <ele>922.5</ele>
        <time>2014-05-29T10:25:46Z</time>
      </trkpt>
      <trkpt lat="45.40779" lon="2.68027">
        <ele>922.5</ele>
        <time>2014-05-29T10:25:47Z</time>
      </trkpt>
      <trkpt lat="45.40769" lon="2.68035">
        <ele>922.5</ele>
        <time>2014-05-29T10:25:54Z</time>
      </trkpt>
      <trkpt lat="45.40762" lon="2.68039">
        <ele>921.1</ele>
        <time>2014-05-29T10:25:58Z</time>
      </trkpt>
      <trkpt lat="45.40755" lon="2.68045">
        <ele>921.1</ele>
        <time>2014-05-29T10:26:02Z</time>
      </trkpt>
      <trkpt lat="45.40747" lon="2.68052">
        <ele>919.9</ele>
        <time>2014-05-29T10:26:06Z</time>
      </trkpt>
      <trkpt lat="45.40741" lon="2.68059">
        <ele>919.9</ele>
        <time>2014-05-29T10:26:10Z</time>
      </trkpt>
      <trkpt lat="45.40734" lon="2.68066">
        <ele>919.7</ele>
        <time>2014-05-29T10:26:14Z</time>
      </trkpt>
      <trkpt lat="45.40728" lon="2.68074">
        <ele>920</ele>
        <time>2014-05-29T10:26:18Z</time>
      </trkpt>
      <trkpt lat="45.40722" lon="2.68083">
        <ele>919.3</ele>
        <time>2014-05-29T10:26:23Z</time>
      </trkpt>
      <trkpt lat="45.40718" lon="2.68094">
        <ele>920.3</ele>
        <time>2014-05-29T10:26:28Z</time>
      </trkpt>
      <trkpt lat="45.40714" lon="2.68104">
        <ele>921.5</ele>
        <time>2014-05-29T10:26:33Z</time>
      </trkpt>
      <trkpt lat="45.40708" lon="2.68114">
        <ele>921.6</ele>
        <time>2014-05-29T10:26:41Z</time>
      </trkpt>
      <trkpt lat="45.40704" lon="2.68124">
        <ele>922.3</ele>
        <time>2014-05-29T10:26:47Z</time>
      </trkpt>
      <trkpt lat="45.407" lon="2.6813">
        <ele>922.4</ele>
        <time>2014-05-29T10:26:49Z</time>
      </trkpt>
      <trkpt lat="45.40698" lon="2.68134">
        <ele>922.4</ele>
        <time>2014-05-29T10:26:50Z</time>
      </trkpt>
      <trkpt lat="45.4069" lon="2.68146">
        <ele>921.9</ele>
        <time>2014-05-29T10:26:55Z</time>
      </trkpt>
      <trkpt lat="45.40682" lon="2.68152">
        <ele>920.2</ele>
        <time>2014-05-29T10:27:00Z</time>
      </trkpt>
      <trkpt lat="45.40675" lon="2.6816">
        <ele>919.4</ele>
        <time>2014-05-29T10:27:05Z</time>
      </trkpt>
      <trkpt lat="45.40672" lon="2.68171">
        <ele>919.5</ele>
        <time>2014-05-29T10:27:10Z</time>
      </trkpt>
      <trkpt lat="45.40665" lon="2.68178">
        <ele>918.4</ele>
        <time>2014-05-29T10:27:14Z</time>
      </trkpt>
      <trkpt lat="45.40657" lon="2.68181">
        <ele>918.4</ele>
        <time>2014-05-29T10:27:20Z</time>
      </trkpt>
      <trkpt lat="45.40649" lon="2.68183">
        <ele>918.9</ele>
        <time>2014-05-29T10:27:27Z</time>
      </trkpt>
      <trkpt lat="45.40642" lon="2.68187">
        <ele>919.8</ele>
        <time>2014-05-29T10:27:34Z</time>
      </trkpt>
      <trkpt lat="45.40635" lon="2.68193">
        <ele>919.5</ele>
        <time>2014-05-29T10:27:38Z</time>
      </trkpt>
      <trkpt lat="45.40628" lon="2.68201">
        <ele>920</ele>
        <time>2014-05-29T10:27:44Z</time>
      </trkpt>
      <trkpt lat="45.40622" lon="2.68208">
        <ele>918</ele>
        <time>2014-05-29T10:27:49Z</time>
      </trkpt>
      <trkpt lat="45.40615" lon="2.68213">
        <ele>917.6</ele>
        <time>2014-05-29T10:27:54Z</time>
      </trkpt>
      <trkpt lat="45.40614" lon="2.68214">
        <ele>917.7</ele>
        <time>2014-05-29T10:27:55Z</time>
      </trkpt>
      <trkpt lat="45.40602" lon="2.68227">
        <ele>919.6</ele>
        <time>2014-05-29T10:28:03Z</time>
      </trkpt>
      <trkpt lat="45.40597" lon="2.68233">
        <ele>919.2</ele>
        <time>2014-05-29T10:28:05Z</time>
      </trkpt>
      <trkpt lat="45.40592" lon="2.68242">
        <ele>918.7</ele>
        <time>2014-05-29T10:28:07Z</time>
      </trkpt>
      <trkpt lat="45.4059" lon="2.68251">
        <ele>916.8</ele>
        <time>2014-05-29T10:28:09Z</time>
      </trkpt>
      <trkpt lat="45.40587" lon="2.68261">
        <ele>914.4</ele>
        <time>2014-05-29T10:28:12Z</time>
      </trkpt>
      <trkpt lat="45.40581" lon="2.68267">
        <ele>912.6</ele>
        <time>2014-05-29T10:28:16Z</time>
      </trkpt>
      <trkpt lat="45.40574" lon="2.68273">
        <ele>911.7</ele>
        <time>2014-05-29T10:28:20Z</time>
      </trkpt>
      <trkpt lat="45.40566" lon="2.68278">
        <ele>910.9</ele>
        <time>2014-05-29T10:28:25Z</time>
      </trkpt>
      <trkpt lat="45.40558" lon="2.68282">
        <ele>910.8</ele>
        <time>2014-05-29T10:28:31Z</time>
      </trkpt>
      <trkpt lat="45.4055" lon="2.68282">
        <ele>910.1</ele>
        <time>2014-05-29T10:28:38Z</time>
      </trkpt>
      <trkpt lat="45.40542" lon="2.68287">
        <ele>910.1</ele>
        <time>2014-05-29T10:28:47Z</time>
      </trkpt>
      <trkpt lat="45.40534" lon="2.68292">
        <ele>910.9</ele>
        <time>2014-05-29T10:28:58Z</time>
      </trkpt>
      <trkpt lat="45.40533" lon="2.68292">
        <ele>910.9</ele>
        <time>2014-05-29T10:28:59Z</time>
      </trkpt>
      <trkpt lat="45.40518" lon="2.68286">
        <ele>908.4</ele>
        <time>2014-05-29T10:29:18Z</time>
      </trkpt>
      <trkpt lat="45.40509" lon="2.68288">
        <ele>909.6</ele>
        <time>2014-05-29T10:29:37Z</time>
      </trkpt>
      <trkpt lat="45.40503" lon="2.68295">
        <ele>908.4</ele>
        <time>2014-05-29T10:29:44Z</time>
      </trkpt>
      <trkpt lat="45.40495" lon="2.6829">
        <ele>907.9</ele>
        <time>2014-05-29T10:29:49Z</time>
      </trkpt>
      <trkpt lat="45.4049" lon="2.68281">
        <ele>907.6</ele>
        <time>2014-05-29T10:29:54Z</time>
      </trkpt>
      <trkpt lat="45.40484" lon="2.68274">
        <ele>908.2</ele>
        <time>2014-05-29T10:29:57Z</time>
      </trkpt>
      <trkpt lat="45.40477" lon="2.68266">
        <ele>907.1</ele>
        <time>2014-05-29T10:30:04Z</time>
      </trkpt>
      <trkpt lat="45.40476" lon="2.68266">
        <ele>907</ele>
        <time>2014-05-29T10:30:05Z</time>
      </trkpt>
      <trkpt lat="45.4046" lon="2.68259">
        <ele>908.7</ele>
        <time>2014-05-29T10:30:16Z</time>
      </trkpt>
      <trkpt lat="45.40452" lon="2.68255">
        <ele>908.4</ele>
        <time>2014-05-29T10:30:19Z</time>
      </trkpt>
      <trkpt lat="45.40444" lon="2.68253">
        <ele>907.6</ele>
        <time>2014-05-29T10:30:23Z</time>
      </trkpt>
      <trkpt lat="45.40435" lon="2.68252">
        <ele>906.4</ele>
        <time>2014-05-29T10:30:30Z</time>
      </trkpt>
      <trkpt lat="45.40426" lon="2.68251">
        <ele>906.6</ele>
        <time>2014-05-29T10:30:38Z</time>
      </trkpt>
      <trkpt lat="45.40418" lon="2.68251">
        <ele>906.4</ele>
        <time>2014-05-29T10:30:44Z</time>
      </trkpt>
      <trkpt lat="45.4041" lon="2.6825">
        <ele>906</ele>
        <time>2014-05-29T10:30:48Z</time>
      </trkpt>
      <trkpt lat="45.40403" lon="2.6825">
        <ele>906.8</ele>
        <time>2014-05-29T10:30:51Z</time>
      </trkpt>
      <trkpt lat="45.40395" lon="2.6825">
        <ele>907.9</ele>
        <time>2014-05-29T10:30:54Z</time>
      </trkpt>
      <trkpt lat="45.4039" lon="2.6825">
        <ele>907.9</ele>
        <time>2014-05-29T10:30:56Z</time>
      </trkpt>
      <trkpt lat="45.40382" lon="2.68253">
        <ele>907.4</ele>
        <time>2014-05-29T10:30:58Z</time>
      </trkpt>
      <trkpt lat="45.40375" lon="2.68258">
        <ele>906.4</ele>
        <time>2014-05-29T10:31:01Z</time>
      </trkpt>
      <trkpt lat="45.40372" lon="2.68268">
        <ele>906.3</ele>
        <time>2014-05-29T10:31:07Z</time>
      </trkpt>
      <trkpt lat="45.40371" lon="2.6827">
        <ele>906</ele>
        <time>2014-05-29T10:31:08Z</time>
      </trkpt>
      <trkpt lat="45.40367" lon="2.68288">
        <ele>906.6</ele>
        <time>2014-05-29T10:31:17Z</time>
      </trkpt>
      <trkpt lat="45.40362" lon="2.68298">
        <ele>905.6</ele>
        <time>2014-05-29T10:31:23Z</time>
      </trkpt>
      <trkpt lat="45.4036" lon="2.68309">
        <ele>905.8</ele>
        <time>2014-05-29T10:31:28Z</time>
      </trkpt>
      <trkpt lat="45.40355" lon="2.68317">
        <ele>905.2</ele>
        <time>2014-05-29T10:31:32Z</time>
      </trkpt>
      <trkpt lat="45.4035" lon="2.68327">
        <ele>905.6</ele>
        <time>2014-05-29T10:31:37Z</time>
      </trkpt>
      <trkpt lat="45.4035" lon="2.68338">
        <ele>905.3</ele>
        <time>2014-05-29T10:31:42Z</time>
      </trkpt>
      <trkpt lat="45.4035" lon="2.68348">
        <ele>904.7</ele>
        <time>2014-05-29T10:31:46Z</time>
      </trkpt>
      <trkpt lat="45.40353" lon="2.68359">
        <ele>904.3</ele>
        <time>2014-05-29T10:31:50Z</time>
      </trkpt>
      <trkpt lat="45.40358" lon="2.68369">
        <ele>904.6</ele>
        <time>2014-05-29T10:31:57Z</time>
      </trkpt>
      <trkpt lat="45.40361" lon="2.6838">
        <ele>905.2</ele>
        <time>2014-05-29T10:32:05Z</time>
      </trkpt>
      <trkpt lat="45.40367" lon="2.68389">
        <ele>905.1</ele>
        <time>2014-05-29T10:32:12Z</time>
      </trkpt>
      <trkpt lat="45.40368" lon="2.68391">
        <ele>905</ele>
        <time>2014-05-29T10:32:13Z</time>
      </trkpt>
      <trkpt lat="45.40372" lon="2.6841">
        <ele>905.5</ele>
        <time>2014-05-29T10:32:20Z</time>
      </trkpt>
      <trkpt lat="45.40374" lon="2.68422">
        <ele>904.9</ele>
        <time>2014-05-29T10:32:25Z</time>
      </trkpt>
      <trkpt lat="45.40372" lon="2.68434">
        <ele>905.3</ele>
        <time>2014-05-29T10:32:29Z</time>
      </trkpt>
      <trkpt lat="45.40372" lon="2.68445">
        <ele>904.7</ele>
        <time>2014-05-29T10:32:35Z</time>
      </trkpt>
      <trkpt lat="45.40374" lon="2.68457">
        <ele>905.1</ele>
        <time>2014-05-29T10:32:41Z</time>
      </trkpt>
      <trkpt lat="45.40378" lon="2.68468">
        <ele>905.6</ele>
        <time>2014-05-29T10:32:45Z</time>
      </trkpt>
      <trkpt lat="45.4038" lon="2.6848">
        <ele>905.9</ele>
        <time>2014-05-29T10:32:53Z</time>
      </trkpt>
      <trkpt lat="45.40379" lon="2.68492">
        <ele>908.4</ele>
        <time>2014-05-29T10:33:02Z</time>
      </trkpt>
      <trkpt lat="45.40374" lon="2.68501">
        <ele>909.3</ele>
        <time>2014-05-29T10:33:10Z</time>
      </trkpt>
      <trkpt lat="45.40369" lon="2.6851">
        <ele>910.6</ele>
        <time>2014-05-29T10:33:19Z</time>
      </trkpt>
      <trkpt lat="45.40368" lon="2.68511">
        <ele>910.9</ele>
        <time>2014-05-29T10:33:20Z</time>
      </trkpt>
      <trkpt lat="45.40354" lon="2.68522">
        <ele>912.3</ele>
        <time>2014-05-29T10:33:32Z</time>
      </trkpt>
      <trkpt lat="45.40348" lon="2.68528">
        <ele>912</ele>
        <time>2014-05-29T10:33:36Z</time>
      </trkpt>
      <trkpt lat="45.40341" lon="2.68535">
        <ele>911.7</ele>
        <time>2014-05-29T10:33:40Z</time>
      </trkpt>
      <trkpt lat="45.40335" lon="2.68542">
        <ele>913.1</ele>
        <time>2014-05-29T10:33:44Z</time>
      </trkpt>
      <trkpt lat="45.40328" lon="2.6855">
        <ele>912.9</ele>
        <time>2014-05-29T10:33:49Z</time>
      </trkpt>
      <trkpt lat="45.40322" lon="2.68556">
        <ele>913.4</ele>
        <time>2014-05-29T10:33:53Z</time>
      </trkpt>
      <trkpt lat="45.40315" lon="2.68562">
        <ele>913.3</ele>
        <time>2014-05-29T10:33:57Z</time>
      </trkpt>
      <trkpt lat="45.40308" lon="2.6857">
        <ele>913.1</ele>
        <time>2014-05-29T10:34:01Z</time>
      </trkpt>
      <trkpt lat="45.40302" lon="2.68578">
        <ele>913.2</ele>
        <time>2014-05-29T10:34:05Z</time>
      </trkpt>
      <trkpt lat="45.40296" lon="2.68585">
        <ele>912.2</ele>
        <time>2014-05-29T10:34:09Z</time>
      </trkpt>
      <trkpt lat="45.40292" lon="2.68594">
        <ele>911.7</ele>
        <time>2014-05-29T10:34:13Z</time>
      </trkpt>
      <trkpt lat="45.40287" lon="2.68601">
        <ele>912.1</ele>
        <time>2014-05-29T10:34:16Z</time>
      </trkpt>
      <trkpt lat="45.4028" lon="2.68607">
        <ele>912.3</ele>
        <time>2014-05-29T10:34:20Z</time>
      </trkpt>
      <trkpt lat="45.40275" lon="2.68613">
        <ele>911.7</ele>
        <time>2014-05-29T10:34:23Z</time>
      </trkpt>
      <trkpt lat="45.40273" lon="2.68615">
        <ele>911.3</ele>
        <time>2014-05-29T10:34:24Z</time>
      </trkpt>
      <trkpt lat="45.40262" lon="2.68625">
        <ele>910.9</ele>
        <time>2014-05-29T10:34:33Z</time>
      </trkpt>
      <trkpt lat="45.40253" lon="2.68628">
        <ele>910.4</ele>
        <time>2014-05-29T10:34:37Z</time>
      </trkpt>
      <trkpt lat="45.40245" lon="2.68632">
        <ele>911.4</ele>
        <time>2014-05-29T10:34:41Z</time>
      </trkpt>
      <trkpt lat="45.40238" lon="2.68634">
        <ele>912</ele>
        <time>2014-05-29T10:34:44Z</time>
      </trkpt>
      <trkpt lat="45.40232" lon="2.68634">
        <ele>912.6</ele>
        <time>2014-05-29T10:34:47Z</time>
      </trkpt>
      <trkpt lat="45.40226" lon="2.68635">
        <ele>912.7</ele>
        <time>2014-05-29T10:34:49Z</time>
      </trkpt>
      <trkpt lat="45.40219" lon="2.68636">
        <ele>912.5</ele>
        <time>2014-05-29T10:34:51Z</time>
      </trkpt>
      <trkpt lat="45.40212" lon="2.68635">
        <ele>912</ele>
        <time>2014-05-29T10:34:53Z</time>
      </trkpt>
      <trkpt lat="45.40207" lon="2.68632">
        <ele>911.5</ele>
        <time>2014-05-29T10:34:55Z</time>
      </trkpt>
      <trkpt lat="45.40201" lon="2.68627">
        <ele>910.2</ele>
        <time>2014-05-29T10:34:57Z</time>
      </trkpt>
      <trkpt lat="45.40194" lon="2.68621">
        <ele>910.1</ele>
        <time>2014-05-29T10:34:59Z</time>
      </trkpt>
      <trkpt lat="45.40188" lon="2.68616">
        <ele>909.9</ele>
        <time>2014-05-29T10:35:01Z</time>
      </trkpt>
      <trkpt lat="45.40182" lon="2.68612">
        <ele>909.6</ele>
        <time>2014-05-29T10:35:03Z</time>
      </trkpt>
      <trkpt lat="45.40176" lon="2.68608">
        <ele>908.9</ele>
        <time>2014-05-29T10:35:05Z</time>
      </trkpt>
      <trkpt lat="45.40171" lon="2.68605">
        <ele>908.3</ele>
        <time>2014-05-29T10:35:07Z</time>
      </trkpt>
      <trkpt lat="45.40164" lon="2.68601">
        <ele>908.4</ele>
        <time>2014-05-29T10:35:09Z</time>
      </trkpt>
      <trkpt lat="45.40156" lon="2.68596">
        <ele>908.6</ele>
        <time>2014-05-29T10:35:11Z</time>
      </trkpt>
      <trkpt lat="45.40151" lon="2.68592">
        <ele>908.7</ele>
        <time>2014-05-29T10:35:13Z</time>
      </trkpt>
      <trkpt lat="45.40145" lon="2.68588">
        <ele>909.1</ele>
        <time>2014-05-29T10:35:15Z</time>
      </trkpt>
      <trkpt lat="45.40139" lon="2.68584">
        <ele>909.5</ele>
        <time>2014-05-29T10:35:17Z</time>
      </trkpt>
      <trkpt lat="45.40132" lon="2.68579">
        <ele>909.7</ele>
        <time>2014-05-29T10:35:19Z</time>
      </trkpt>
      <trkpt lat="45.40126" lon="2.68575">
        <ele>910.6</ele>
        <time>2014-05-29T10:35:21Z</time>
      </trkpt>
      <trkpt lat="45.40118" lon="2.68569">
        <ele>910.9</ele>
        <time>2014-05-29T10:35:23Z</time>
      </trkpt>
      <trkpt lat="45.40112" lon="2.68565">
        <ele>910.8</ele>
        <time>2014-05-29T10:35:25Z</time>
      </trkpt>
      <trkpt lat="45.40109" lon="2.68562">
        <ele>910.7</ele>
        <time>2014-05-29T10:35:26Z</time>
      </trkpt>
      <trkpt lat="45.40099" lon="2.68555">
        <ele>910.9</ele>
        <time>2014-05-29T10:35:30Z</time>
      </trkpt>
      <trkpt lat="45.40093" lon="2.68548">
        <ele>910.5</ele>
        <time>2014-05-29T10:35:32Z</time>
      </trkpt>
      <trkpt lat="45.40088" lon="2.68543">
        <ele>909.8</ele>
        <time>2014-05-29T10:35:34Z</time>
      </trkpt>
      <trkpt lat="45.40084" lon="2.6854">
        <ele>909.5</ele>
        <time>2014-05-29T10:35:35Z</time>
      </trkpt>
      <trkpt lat="45.40076" lon="2.68533">
        <ele>910.1</ele>
        <time>2014-05-29T10:35:37Z</time>
      </trkpt>
      <trkpt lat="45.40072" lon="2.68529">
        <ele>910.2</ele>
        <time>2014-05-29T10:35:38Z</time>
      </trkpt>
      <trkpt lat="45.40068" lon="2.68525">
        <ele>910.3</ele>
        <time>2014-05-29T10:35:39Z</time>
      </trkpt>
      <trkpt lat="45.40064" lon="2.68522">
        <ele>910.3</ele>
        <time>2014-05-29T10:35:40Z</time>
      </trkpt>
      <trkpt lat="45.4006" lon="2.68518">
        <ele>910.6</ele>
        <time>2014-05-29T10:35:41Z</time>
      </trkpt>
      <trkpt lat="45.40052" lon="2.68512">
        <ele>910.9</ele>
        <time>2014-05-29T10:35:43Z</time>
      </trkpt>
      <trkpt lat="45.40045" lon="2.68506">
        <ele>911</ele>
        <time>2014-05-29T10:35:45Z</time>
      </trkpt>
      <trkpt lat="45.40037" lon="2.685">
        <ele>911.6</ele>
        <time>2014-05-29T10:35:47Z</time>
      </trkpt>
      <trkpt lat="45.4003" lon="2.68494">
        <ele>911.4</ele>
        <time>2014-05-29T10:35:49Z</time>
      </trkpt>
      <trkpt lat="45.40023" lon="2.68489">
        <ele>911.2</ele>
        <time>2014-05-29T10:35:51Z</time>
      </trkpt>
      <trkpt lat="45.40017" lon="2.68485">
        <ele>911.7</ele>
        <time>2014-05-29T10:35:53Z</time>
      </trkpt>
      <trkpt lat="45.4001" lon="2.6848">
        <ele>911.8</ele>
        <time>2014-05-29T10:35:55Z</time>
      </trkpt>
      <trkpt lat="45.40002" lon="2.68475">
        <ele>911.6</ele>
        <time>2014-05-29T10:35:57Z</time>
      </trkpt>
      <trkpt lat="45.39995" lon="2.68471">
        <ele>911.6</ele>
        <time>2014-05-29T10:35:59Z</time>
      </trkpt>
      <trkpt lat="45.39987" lon="2.68467">
        <ele>911.4</ele>
        <time>2014-05-29T10:36:01Z</time>
      </trkpt>
      <trkpt lat="45.39982" lon="2.68461">
        <ele>910.4</ele>
        <time>2014-05-29T10:36:03Z</time>
      </trkpt>
      <trkpt lat="45.39979" lon="2.68452">
        <ele>910.5</ele>
        <time>2014-05-29T10:36:05Z</time>
      </trkpt>
      <trkpt lat="45.39977" lon="2.68444">
        <ele>910.6</ele>
        <time>2014-05-29T10:36:07Z</time>
      </trkpt>
      <trkpt lat="45.39974" lon="2.68436">
        <ele>910.1</ele>
        <time>2014-05-29T10:36:09Z</time>
      </trkpt>
      <trkpt lat="45.39971" lon="2.68429">
        <ele>909.7</ele>
        <time>2014-05-29T10:36:11Z</time>
      </trkpt>
      <trkpt lat="45.39968" lon="2.68421">
        <ele>909.9</ele>
        <time>2014-05-29T10:36:13Z</time>
      </trkpt>
      <trkpt lat="45.39964" lon="2.6841">
        <ele>909.9</ele>
        <time>2014-05-29T10:36:16Z</time>
      </trkpt>
      <trkpt lat="45.39962" lon="2.68398">
        <ele>910</ele>
        <time>2014-05-29T10:36:19Z</time>
      </trkpt>
      <trkpt lat="45.39962" lon="2.68386">
        <ele>909.2</ele>
        <time>2014-05-29T10:36:22Z</time>
      </trkpt>
      <trkpt lat="45.39964" lon="2.68376">
        <ele>909</ele>
        <time>2014-05-29T10:36:24Z</time>
      </trkpt>
      <trkpt lat="45.39966" lon="2.68366">
        <ele>909.1</ele>
        <time>2014-05-29T10:36:26Z</time>
      </trkpt>
      <trkpt lat="45.39969" lon="2.68356">
        <ele>909.3</ele>
        <time>2014-05-29T10:36:28Z</time>
      </trkpt>
      <trkpt lat="45.3997" lon="2.68351">
        <ele>909.4</ele>
        <time>2014-05-29T10:36:29Z</time>
      </trkpt>
      <trkpt lat="45.39974" lon="2.68336">
        <ele>910.1</ele>
        <time>2014-05-29T10:36:32Z</time>
      </trkpt>
      <trkpt lat="45.39976" lon="2.68326">
        <ele>910.2</ele>
        <time>2014-05-29T10:36:34Z</time>
      </trkpt>
      <trkpt lat="45.39977" lon="2.68315">
        <ele>910.5</ele>
        <time>2014-05-29T10:36:36Z</time>
      </trkpt>
      <trkpt lat="45.39978" lon="2.68306">
        <ele>910.8</ele>
        <time>2014-05-29T10:36:38Z</time>
      </trkpt>
      <trkpt lat="45.39978" lon="2.68296">
        <ele>910.8</ele>
        <time>2014-05-29T10:36:40Z</time>
      </trkpt>
      <trkpt lat="45.39978" lon="2.68285">
        <ele>910.7</ele>
        <time>2014-05-29T10:36:42Z</time>
      </trkpt>
      <trkpt lat="45.39978" lon="2.68275">
        <ele>911.5</ele>
        <time>2014-05-29T10:36:44Z</time>
      </trkpt>
      <trkpt lat="45.39979" lon="2.68266">
        <ele>911.8</ele>
        <time>2014-05-29T10:36:46Z</time>
      </trkpt>
      <trkpt lat="45.39978" lon="2.68258">
        <ele>912.3</ele>
        <time>2014-05-29T10:36:48Z</time>
      </trkpt>
      <trkpt lat="45.39978" lon="2.68248">
        <ele>912.7</ele>
        <time>2014-05-29T10:36:50Z</time>
      </trkpt>
      <trkpt lat="45.39982" lon="2.68237">
        <ele>912.9</ele>
        <time>2014-05-29T10:36:52Z</time>
      </trkpt>
      <trkpt lat="45.39983" lon="2.6823">
        <ele>912.9</ele>
        <time>2014-05-29T10:36:53Z</time>
      </trkpt>
      <trkpt lat="45.39984" lon="2.68224">
        <ele>912.2</ele>
        <time>2014-05-29T10:36:54Z</time>
      </trkpt>
      <trkpt lat="45.39983" lon="2.68218">
        <ele>911.7</ele>
        <time>2014-05-29T10:36:55Z</time>
      </trkpt>
      <trkpt lat="45.3998" lon="2.68212">
        <ele>911.3</ele>
        <time>2014-05-29T10:36:56Z</time>
      </trkpt>
      <trkpt lat="45.39976" lon="2.68206">
        <ele>910.9</ele>
        <time>2014-05-29T10:36:57Z</time>
      </trkpt>
      <trkpt lat="45.3997" lon="2.68197">
        <ele>910</ele>
        <time>2014-05-29T10:36:59Z</time>
      </trkpt>
      <trkpt lat="45.39962" lon="2.68193">
        <ele>909.2</ele>
        <time>2014-05-29T10:37:01Z</time>
      </trkpt>
      <trkpt lat="45.39956" lon="2.68193">
        <ele>908.6</ele>
        <time>2014-05-29T10:37:02Z</time>
      </trkpt>
      <trkpt lat="45.3995" lon="2.68194">
        <ele>908.2</ele>
        <time>2014-05-29T10:37:03Z</time>
      </trkpt>
      <trkpt lat="45.39944" lon="2.68197">
        <ele>907.3</ele>
        <time>2014-05-29T10:37:04Z</time>
      </trkpt>
      <trkpt lat="45.39937" lon="2.682">
        <ele>906.6</ele>
        <time>2014-05-29T10:37:05Z</time>
      </trkpt>
      <trkpt lat="45.39931" lon="2.68203">
        <ele>905.8</ele>
        <time>2014-05-29T10:37:06Z</time>
      </trkpt>
      <trkpt lat="45.39924" lon="2.68205">
        <ele>905.3</ele>
        <time>2014-05-29T10:37:07Z</time>
      </trkpt>
      <trkpt lat="45.39918" lon="2.68209">
        <ele>904.8</ele>
        <time>2014-05-29T10:37:08Z</time>
      </trkpt>
      <trkpt lat="45.39913" lon="2.68212">
        <ele>904.8</ele>
        <time>2014-05-29T10:37:09Z</time>
      </trkpt>
      <trkpt lat="45.39908" lon="2.68215">
        <ele>904.7</ele>
        <time>2014-05-29T10:37:10Z</time>
      </trkpt>
      <trkpt lat="45.39904" lon="2.68218">
        <ele>904.7</ele>
        <time>2014-05-29T10:37:11Z</time>
      </trkpt>
      <trkpt lat="45.39899" lon="2.68221">
        <ele>904.7</ele>
        <time>2014-05-29T10:37:12Z</time>
      </trkpt>
      <trkpt lat="45.39895" lon="2.68225">
        <ele>904.5</ele>
        <time>2014-05-29T10:37:13Z</time>
      </trkpt>
      <trkpt lat="45.39891" lon="2.68228">
        <ele>904.3</ele>
        <time>2014-05-29T10:37:14Z</time>
      </trkpt>
      <trkpt lat="45.39884" lon="2.68235">
        <ele>904.3</ele>
        <time>2014-05-29T10:37:16Z</time>
      </trkpt>
      <trkpt lat="45.39879" lon="2.68241">
        <ele>904.6</ele>
        <time>2014-05-29T10:37:18Z</time>
      </trkpt>
      <trkpt lat="45.3987" lon="2.68243">
        <ele>904.9</ele>
        <time>2014-05-29T10:37:21Z</time>
      </trkpt>
      <trkpt lat="45.39865" lon="2.68236">
        <ele>905.8</ele>
        <time>2014-05-29T10:37:24Z</time>
      </trkpt>
      <trkpt lat="45.39859" lon="2.68227">
        <ele>907.3</ele>
        <time>2014-05-29T10:37:27Z</time>
      </trkpt>
      <trkpt lat="45.39854" lon="2.68219">
        <ele>907.5</ele>
        <time>2014-05-29T10:37:30Z</time>
      </trkpt>
      <trkpt lat="45.39852" lon="2.68218">
        <ele>907.5</ele>
        <time>2014-05-29T10:37:31Z</time>
      </trkpt>
      <trkpt lat="45.39844" lon="2.68202">
        <ele>909.2</ele>
        <time>2014-05-29T10:37:38Z</time>
      </trkpt>
      <trkpt lat="45.3984" lon="2.68193">
        <ele>910.2</ele>
        <time>2014-05-29T10:37:42Z</time>
      </trkpt>
      <trkpt lat="45.39835" lon="2.68184">
        <ele>910</ele>
        <time>2014-05-29T10:37:46Z</time>
      </trkpt>
      <trkpt lat="45.39828" lon="2.68177">
        <ele>910.9</ele>
        <time>2014-05-29T10:37:50Z</time>
      </trkpt>
      <trkpt lat="45.39821" lon="2.6817">
        <ele>911.8</ele>
        <time>2014-05-29T10:37:54Z</time>
      </trkpt>
      <trkpt lat="45.39817" lon="2.68162">
        <ele>912.2</ele>
        <time>2014-05-29T10:37:57Z</time>
      </trkpt>
      <trkpt lat="45.39811" lon="2.68154">
        <ele>912.9</ele>
        <time>2014-05-29T10:38:00Z</time>
      </trkpt>
      <trkpt lat="45.39804" lon="2.68146">
        <ele>913.3</ele>
        <time>2014-05-29T10:38:02Z</time>
      </trkpt>
      <trkpt lat="45.39801" lon="2.6814">
        <ele>912.8</ele>
        <time>2014-05-29T10:38:03Z</time>
      </trkpt>
      <trkpt lat="45.39797" lon="2.68134">
        <ele>912.4</ele>
        <time>2014-05-29T10:38:04Z</time>
      </trkpt>
      <trkpt lat="45.39793" lon="2.68127">
        <ele>912.2</ele>
        <time>2014-05-29T10:38:05Z</time>
      </trkpt>
      <trkpt lat="45.39789" lon="2.6812">
        <ele>912</ele>
        <time>2014-05-29T10:38:06Z</time>
      </trkpt>
      <trkpt lat="45.39783" lon="2.68114">
        <ele>911.9</ele>
        <time>2014-05-29T10:38:07Z</time>
      </trkpt>
      <trkpt lat="45.39777" lon="2.68108">
        <ele>911.3</ele>
        <time>2014-05-29T10:38:08Z</time>
      </trkpt>
      <trkpt lat="45.39771" lon="2.68103">
        <ele>910.8</ele>
        <time>2014-05-29T10:38:09Z</time>
      </trkpt>
      <trkpt lat="45.39765" lon="2.68098">
        <ele>910.1</ele>
        <time>2014-05-29T10:38:10Z</time>
      </trkpt>
      <trkpt lat="45.39759" lon="2.68093">
        <ele>909.6</ele>
        <time>2014-05-29T10:38:11Z</time>
      </trkpt>
      <trkpt lat="45.39752" lon="2.68087">
        <ele>909.2</ele>
        <time>2014-05-29T10:38:12Z</time>
      </trkpt>
      <trkpt lat="45.39745" lon="2.6808">
        <ele>908.3</ele>
        <time>2014-05-29T10:38:13Z</time>
      </trkpt>
      <trkpt lat="45.39739" lon="2.68073">
        <ele>907.5</ele>
        <time>2014-05-29T10:38:14Z</time>
      </trkpt>
      <trkpt lat="45.39733" lon="2.68063">
        <ele>906.4</ele>
        <time>2014-05-29T10:38:15Z</time>
      </trkpt>
      <trkpt lat="45.39728" lon="2.68054">
        <ele>905.5</ele>
        <time>2014-05-29T10:38:16Z</time>
      </trkpt>
      <trkpt lat="45.3972" lon="2.68043">
        <ele>904.4</ele>
        <time>2014-05-29T10:38:17Z</time>
      </trkpt>
      <trkpt lat="45.39712" lon="2.68033">
        <ele>903.5</ele>
        <time>2014-05-29T10:38:18Z</time>
      </trkpt>
      <trkpt lat="45.39704" lon="2.68021">
        <ele>902.9</ele>
        <time>2014-05-29T10:38:19Z</time>
      </trkpt>
      <trkpt lat="45.39697" lon="2.68012">
        <ele>901.7</ele>
        <time>2014-05-29T10:38:20Z</time>
      </trkpt>
      <trkpt lat="45.39692" lon="2.68003">
        <ele>900.9</ele>
        <time>2014-05-29T10:38:21Z</time>
      </trkpt>
      <trkpt lat="45.39688" lon="2.67996">
        <ele>900.1</ele>
        <time>2014-05-29T10:38:22Z</time>
      </trkpt>
      <trkpt lat="45.39686" lon="2.67985">
        <ele>898.2</ele>
        <time>2014-05-29T10:38:25Z</time>
      </trkpt>
      <trkpt lat="45.39692" lon="2.67978">
        <ele>897.8</ele>
        <time>2014-05-29T10:38:28Z</time>
      </trkpt>
      <trkpt lat="45.39698" lon="2.67969">
        <ele>897.7</ele>
        <time>2014-05-29T10:38:30Z</time>
      </trkpt>
      <trkpt lat="45.39701" lon="2.67965">
        <ele>897.6</ele>
        <time>2014-05-29T10:38:31Z</time>
      </trkpt>
      <trkpt lat="45.39705" lon="2.67959">
        <ele>897.8</ele>
        <time>2014-05-29T10:38:32Z</time>
      </trkpt>
      <trkpt lat="45.39708" lon="2.67954">
        <ele>897.9</ele>
        <time>2014-05-29T10:38:33Z</time>
      </trkpt>
      <trkpt lat="45.39711" lon="2.67947">
        <ele>898.1</ele>
        <time>2014-05-29T10:38:34Z</time>
      </trkpt>
      <trkpt lat="45.39713" lon="2.6794">
        <ele>898.3</ele>
        <time>2014-05-29T10:38:35Z</time>
      </trkpt>
      <trkpt lat="45.39715" lon="2.67932">
        <ele>898.2</ele>
        <time>2014-05-29T10:38:36Z</time>
      </trkpt>
      <trkpt lat="45.39716" lon="2.67923">
        <ele>898.1</ele>
        <time>2014-05-29T10:38:37Z</time>
      </trkpt>
      <trkpt lat="45.39717" lon="2.67915">
        <ele>898.1</ele>
        <time>2014-05-29T10:38:38Z</time>
      </trkpt>
      <trkpt lat="45.39718" lon="2.67906">
        <ele>898.1</ele>
        <time>2014-05-29T10:38:39Z</time>
      </trkpt>
      <trkpt lat="45.39719" lon="2.67898">
        <ele>898.2</ele>
        <time>2014-05-29T10:38:40Z</time>
      </trkpt>
      <trkpt lat="45.39721" lon="2.6789">
        <ele>898.1</ele>
        <time>2014-05-29T10:38:41Z</time>
      </trkpt>
      <trkpt lat="45.39723" lon="2.67882">
        <ele>898.1</ele>
        <time>2014-05-29T10:38:42Z</time>
      </trkpt>
      <trkpt lat="45.39727" lon="2.67874">
        <ele>898.1</ele>
        <time>2014-05-29T10:38:43Z</time>
      </trkpt>
      <trkpt lat="45.39732" lon="2.67866">
        <ele>897.9</ele>
        <time>2014-05-29T10:38:44Z</time>
      </trkpt>
      <trkpt lat="45.39737" lon="2.67858">
        <ele>897.8</ele>
        <time>2014-05-29T10:38:45Z</time>
      </trkpt>
      <trkpt lat="45.39741" lon="2.67848">
        <ele>897.5</ele>
        <time>2014-05-29T10:38:46Z</time>
      </trkpt>
      <trkpt lat="45.39745" lon="2.67837">
        <ele>897.2</ele>
        <time>2014-05-29T10:38:47Z</time>
      </trkpt>
      <trkpt lat="45.39749" lon="2.67825">
        <ele>896.5</ele>
        <time>2014-05-29T10:38:48Z</time>
      </trkpt>
      <trkpt lat="45.39752" lon="2.67813">
        <ele>896</ele>
        <time>2014-05-29T10:38:49Z</time>
      </trkpt>
      <trkpt lat="45.39753" lon="2.67802">
        <ele>895.7</ele>
        <time>2014-05-29T10:38:50Z</time>
      </trkpt>
      <trkpt lat="45.39755" lon="2.67791">
        <ele>895.2</ele>
        <time>2014-05-29T10:38:51Z</time>
      </trkpt>
      <trkpt lat="45.39756" lon="2.6778">
        <ele>894.8</ele>
        <time>2014-05-29T10:38:52Z</time>
      </trkpt>
      <trkpt lat="45.39757" lon="2.6777">
        <ele>894.7</ele>
        <time>2014-05-29T10:38:53Z</time>
      </trkpt>
      <trkpt lat="45.39758" lon="2.6776">
        <ele>894.6</ele>
        <time>2014-05-29T10:38:54Z</time>
      </trkpt>
      <trkpt lat="45.39759" lon="2.67751">
        <ele>894.2</ele>
        <time>2014-05-29T10:38:55Z</time>
      </trkpt>
      <trkpt lat="45.3976" lon="2.67743">
        <ele>893.8</ele>
        <time>2014-05-29T10:38:56Z</time>
      </trkpt>
      <trkpt lat="45.39761" lon="2.67734">
        <ele>893.6</ele>
        <time>2014-05-29T10:38:57Z</time>
      </trkpt>
      <trkpt lat="45.39761" lon="2.67726">
        <ele>893.6</ele>
        <time>2014-05-29T10:38:58Z</time>
      </trkpt>
      <trkpt lat="45.39762" lon="2.67718">
        <ele>893.7</ele>
        <time>2014-05-29T10:38:59Z</time>
      </trkpt>
      <trkpt lat="45.39763" lon="2.6771">
        <ele>893.2</ele>
        <time>2014-05-29T10:39:00Z</time>
      </trkpt>
      <trkpt lat="45.39764" lon="2.67703">
        <ele>892.9</ele>
        <time>2014-05-29T10:39:01Z</time>
      </trkpt>
      <trkpt lat="45.39764" lon="2.67696">
        <ele>892.7</ele>
        <time>2014-05-29T10:39:02Z</time>
      </trkpt>
      <trkpt lat="45.39764" lon="2.67689">
        <ele>892.7</ele>
        <time>2014-05-29T10:39:03Z</time>
      </trkpt>
      <trkpt lat="45.39765" lon="2.67683">
        <ele>892.8</ele>
        <time>2014-05-29T10:39:04Z</time>
      </trkpt>
      <trkpt lat="45.39766" lon="2.67676">
        <ele>892.5</ele>
        <time>2014-05-29T10:39:05Z</time>
      </trkpt>
      <trkpt lat="45.39766" lon="2.67669">
        <ele>892.2</ele>
        <time>2014-05-29T10:39:06Z</time>
      </trkpt>
      <trkpt lat="45.39767" lon="2.67662">
        <ele>892.1</ele>
        <time>2014-05-29T10:39:07Z</time>
      </trkpt>
      <trkpt lat="45.39768" lon="2.67655">
        <ele>892</ele>
        <time>2014-05-29T10:39:08Z</time>
      </trkpt>
      <trkpt lat="45.39769" lon="2.67647">
        <ele>891.9</ele>
        <time>2014-05-29T10:39:09Z</time>
      </trkpt>
      <trkpt lat="45.39769" lon="2.6764">
        <ele>892.2</ele>
        <time>2014-05-29T10:39:10Z</time>
      </trkpt>
      <trkpt lat="45.3977" lon="2.67633">
        <ele>892.4</ele>
        <time>2014-05-29T10:39:11Z</time>
      </trkpt>
      <trkpt lat="45.39771" lon="2.67624">
        <ele>892.3</ele>
        <time>2014-05-29T10:39:12Z</time>
      </trkpt>
      <trkpt lat="45.39771" lon="2.67616">
        <ele>892.2</ele>
        <time>2014-05-29T10:39:13Z</time>
      </trkpt>
      <trkpt lat="45.39771" lon="2.67607">
        <ele>892</ele>
        <time>2014-05-29T10:39:14Z</time>
      </trkpt>
      <trkpt lat="45.39772" lon="2.67599">
        <ele>891.9</ele>
        <time>2014-05-29T10:39:15Z</time>
      </trkpt>
      <trkpt lat="45.39772" lon="2.6759">
        <ele>891.9</ele>
        <time>2014-05-29T10:39:16Z</time>
      </trkpt>
      <trkpt lat="45.39772" lon="2.67582">
        <ele>891.6</ele>
        <time>2014-05-29T10:39:17Z</time>
      </trkpt>
      <trkpt lat="45.39772" lon="2.67574">
        <ele>891.4</ele>
        <time>2014-05-29T10:39:18Z</time>
      </trkpt>
      <trkpt lat="45.39773" lon="2.67565">
        <ele>891.5</ele>
        <time>2014-05-29T10:39:19Z</time>
      </trkpt>
      <trkpt lat="45.39773" lon="2.67557">
        <ele>891.6</ele>
        <time>2014-05-29T10:39:20Z</time>
      </trkpt>
      <trkpt lat="45.39773" lon="2.67548">
        <ele>891.7</ele>
        <time>2014-05-29T10:39:21Z</time>
      </trkpt>
      <trkpt lat="45.39774" lon="2.67539">
        <ele>892</ele>
        <time>2014-05-29T10:39:22Z</time>
      </trkpt>
      <trkpt lat="45.39774" lon="2.67529">
        <ele>892.2</ele>
        <time>2014-05-29T10:39:23Z</time>
      </trkpt>
      <trkpt lat="45.39774" lon="2.6752">
        <ele>892.3</ele>
        <time>2014-05-29T10:39:24Z</time>
      </trkpt>
      <trkpt lat="45.39774" lon="2.67511">
        <ele>892.3</ele>
        <time>2014-05-29T10:39:25Z</time>
      </trkpt>
      <trkpt lat="45.39774" lon="2.67502">
        <ele>892.5</ele>
        <time>2014-05-29T10:39:26Z</time>
      </trkpt>
      <trkpt lat="45.39774" lon="2.67493">
        <ele>892.5</ele>
        <time>2014-05-29T10:39:27Z</time>
      </trkpt>
      <trkpt lat="45.39774" lon="2.67484">
        <ele>892.6</ele>
        <time>2014-05-29T10:39:28Z</time>
      </trkpt>
      <trkpt lat="45.39775" lon="2.67476">
        <ele>892.5</ele>
        <time>2014-05-29T10:39:29Z</time>
      </trkpt>
      <trkpt lat="45.39776" lon="2.67468">
        <ele>892.5</ele>
        <time>2014-05-29T10:39:30Z</time>
      </trkpt>
      <trkpt lat="45.39778" lon="2.6746">
        <ele>892.6</ele>
        <time>2014-05-29T10:39:31Z</time>
      </trkpt>
      <trkpt lat="45.39781" lon="2.67455">
        <ele>892.7</ele>
        <time>2014-05-29T10:39:32Z</time>
      </trkpt>
      <trkpt lat="45.39786" lon="2.67451">
        <ele>893</ele>
        <time>2014-05-29T10:39:33Z</time>
      </trkpt>
      <trkpt lat="45.3979" lon="2.67449">
        <ele>893.3</ele>
        <time>2014-05-29T10:39:34Z</time>
      </trkpt>
      <trkpt lat="45.39795" lon="2.67448">
        <ele>893.5</ele>
        <time>2014-05-29T10:39:35Z</time>
      </trkpt>
      <trkpt lat="45.398" lon="2.67446">
        <ele>893.4</ele>
        <time>2014-05-29T10:39:36Z</time>
      </trkpt>
      <trkpt lat="45.39805" lon="2.67443">
        <ele>893.2</ele>
        <time>2014-05-29T10:39:37Z</time>
      </trkpt>
      <trkpt lat="45.3981" lon="2.67439">
        <ele>893.2</ele>
        <time>2014-05-29T10:39:38Z</time>
      </trkpt>
      <trkpt lat="45.39815" lon="2.67436">
        <ele>893.2</ele>
        <time>2014-05-29T10:39:39Z</time>
      </trkpt>
      <trkpt lat="45.3982" lon="2.67433">
        <ele>893.1</ele>
        <time>2014-05-29T10:39:40Z</time>
      </trkpt>
      <trkpt lat="45.39825" lon="2.67429">
        <ele>893.3</ele>
        <time>2014-05-29T10:39:41Z</time>
      </trkpt>
      <trkpt lat="45.39829" lon="2.67426">
        <ele>893.4</ele>
        <time>2014-05-29T10:39:42Z</time>
      </trkpt>
      <trkpt lat="45.39834" lon="2.67423">
        <ele>893.5</ele>
        <time>2014-05-29T10:39:43Z</time>
      </trkpt>
      <trkpt lat="45.3984" lon="2.67419">
        <ele>893.6</ele>
        <time>2014-05-29T10:39:44Z</time>
      </trkpt>
      <trkpt lat="45.39845" lon="2.67416">
        <ele>893.6</ele>
        <time>2014-05-29T10:39:45Z</time>
      </trkpt>
      <trkpt lat="45.3985" lon="2.67412">
        <ele>893.6</ele>
        <time>2014-05-29T10:39:46Z</time>
      </trkpt>
      <trkpt lat="45.39855" lon="2.67409">
        <ele>893.6</ele>
        <time>2014-05-29T10:39:47Z</time>
      </trkpt>
      <trkpt lat="45.3986" lon="2.67405">
        <ele>893.7</ele>
        <time>2014-05-29T10:39:48Z</time>
      </trkpt>
      <trkpt lat="45.39865" lon="2.67402">
        <ele>893.7</ele>
        <time>2014-05-29T10:39:49Z</time>
      </trkpt>
      <trkpt lat="45.3987" lon="2.67398">
        <ele>893.8</ele>
        <time>2014-05-29T10:39:50Z</time>
      </trkpt>
      <trkpt lat="45.39875" lon="2.67395">
        <ele>893.9</ele>
        <time>2014-05-29T10:39:51Z</time>
      </trkpt>
      <trkpt lat="45.3988" lon="2.67392">
        <ele>893.6</ele>
        <time>2014-05-29T10:39:52Z</time>
      </trkpt>
      <trkpt lat="45.39885" lon="2.67388">
        <ele>893.4</ele>
        <time>2014-05-29T10:39:53Z</time>
      </trkpt>
      <trkpt lat="45.3989" lon="2.67385">
        <ele>893.3</ele>
        <time>2014-05-29T10:39:54Z</time>
      </trkpt>
      <trkpt lat="45.39895" lon="2.67381">
        <ele>893.3</ele>
        <time>2014-05-29T10:39:55Z</time>
      </trkpt>
      <trkpt lat="45.39901" lon="2.67378">
        <ele>893.3</ele>
        <time>2014-05-29T10:39:56Z</time>
      </trkpt>
      <trkpt lat="45.39906" lon="2.67375">
        <ele>893.2</ele>
        <time>2014-05-29T10:39:57Z</time>
      </trkpt>
      <trkpt lat="45.39911" lon="2.67373">
        <ele>893.1</ele>
        <time>2014-05-29T10:39:58Z</time>
      </trkpt>
      <trkpt lat="45.39916" lon="2.67372">
        <ele>893.1</ele>
        <time>2014-05-29T10:39:59Z</time>
      </trkpt>
      <trkpt lat="45.39922" lon="2.67372">
        <ele>893.3</ele>
        <time>2014-05-29T10:40:00Z</time>
      </trkpt>
      <trkpt lat="45.39927" lon="2.67373">
        <ele>893.4</ele>
        <time>2014-05-29T10:40:01Z</time>
      </trkpt>
      <trkpt lat="45.39932" lon="2.67375">
        <ele>893.3</ele>
        <time>2014-05-29T10:40:02Z</time>
      </trkpt>
      <trkpt lat="45.39936" lon="2.67377">
        <ele>893.3</ele>
        <time>2014-05-29T10:40:03Z</time>
      </trkpt>
      <trkpt lat="45.3994" lon="2.6738">
        <ele>893.1</ele>
        <time>2014-05-29T10:40:04Z</time>
      </trkpt>
      <trkpt lat="45.39947" lon="2.67387">
        <ele>892.8</ele>
        <time>2014-05-29T10:40:06Z</time>
      </trkpt>
      <trkpt lat="45.39953" lon="2.67394">
        <ele>892.9</ele>
        <time>2014-05-29T10:40:08Z</time>
      </trkpt>
      <trkpt lat="45.39958" lon="2.674">
        <ele>893.2</ele>
        <time>2014-05-29T10:40:10Z</time>
      </trkpt>
      <trkpt lat="45.39963" lon="2.67406">
        <ele>894</ele>
        <time>2014-05-29T10:40:12Z</time>
      </trkpt>
      <trkpt lat="45.39969" lon="2.67412">
        <ele>894.8</ele>
        <time>2014-05-29T10:40:14Z</time>
      </trkpt>
      <trkpt lat="45.39974" lon="2.67417">
        <ele>895.6</ele>
        <time>2014-05-29T10:40:16Z</time>
      </trkpt>
      <trkpt lat="45.3998" lon="2.67423">
        <ele>896</ele>
        <time>2014-05-29T10:40:18Z</time>
      </trkpt>
      <trkpt lat="45.39985" lon="2.67429">
        <ele>896.2</ele>
        <time>2014-05-29T10:40:20Z</time>
      </trkpt>
      <trkpt lat="45.3999" lon="2.67436">
        <ele>896.3</ele>
        <time>2014-05-29T10:40:22Z</time>
      </trkpt>
      <trkpt lat="45.39995" lon="2.67442">
        <ele>896.8</ele>
        <time>2014-05-29T10:40:24Z</time>
      </trkpt>
      <trkpt lat="45.40001" lon="2.67448">
        <ele>897.5</ele>
        <time>2014-05-29T10:40:26Z</time>
      </trkpt>
      <trkpt lat="45.40006" lon="2.67453">
        <ele>898.1</ele>
        <time>2014-05-29T10:40:28Z</time>
      </trkpt>
      <trkpt lat="45.40012" lon="2.67457">
        <ele>898.6</ele>
        <time>2014-05-29T10:40:30Z</time>
      </trkpt>
      <trkpt lat="45.40021" lon="2.67461">
        <ele>898.9</ele>
        <time>2014-05-29T10:40:33Z</time>
      </trkpt>
      <trkpt lat="45.40029" lon="2.67464">
        <ele>899.2</ele>
        <time>2014-05-29T10:40:36Z</time>
      </trkpt>
      <trkpt lat="45.40032" lon="2.67466">
        <ele>899.6</ele>
        <time>2014-05-29T10:40:37Z</time>
      </trkpt>
      <trkpt lat="45.40041" lon="2.67473">
        <ele>900.6</ele>
        <time>2014-05-29T10:40:40Z</time>
      </trkpt>
      <trkpt lat="45.40046" lon="2.67478">
        <ele>900.8</ele>
        <time>2014-05-29T10:40:42Z</time>
      </trkpt>
      <trkpt lat="45.4005" lon="2.67485">
        <ele>900.6</ele>
        <time>2014-05-29T10:40:44Z</time>
      </trkpt>
      <trkpt lat="45.40055" lon="2.67491">
        <ele>901</ele>
        <time>2014-05-29T10:40:46Z</time>
      </trkpt>
      <trkpt lat="45.40059" lon="2.67498">
        <ele>901</ele>
        <time>2014-05-29T10:40:48Z</time>
      </trkpt>
      <trkpt lat="45.40064" lon="2.67505">
        <ele>901.5</ele>
        <time>2014-05-29T10:40:50Z</time>
      </trkpt>
      <trkpt lat="45.40068" lon="2.67511">
        <ele>901.7</ele>
        <time>2014-05-29T10:40:52Z</time>
      </trkpt>
      <trkpt lat="45.40073" lon="2.67517">
        <ele>902.2</ele>
        <time>2014-05-29T10:40:54Z</time>
      </trkpt>
      <trkpt lat="45.40078" lon="2.67521">
        <ele>902.5</ele>
        <time>2014-05-29T10:40:56Z</time>
      </trkpt>
      <trkpt lat="45.40084" lon="2.67526">
        <ele>902.4</ele>
        <time>2014-05-29T10:40:58Z</time>
      </trkpt>
      <trkpt lat="45.40088" lon="2.67532">
        <ele>902.8</ele>
        <time>2014-05-29T10:41:00Z</time>
      </trkpt>
      <trkpt lat="45.40092" lon="2.6754">
        <ele>903.1</ele>
        <time>2014-05-29T10:41:02Z</time>
      </trkpt>
      <trkpt lat="45.40095" lon="2.67548">
        <ele>903.3</ele>
        <time>2014-05-29T10:41:04Z</time>
      </trkpt>
      <trkpt lat="45.40098" lon="2.67556">
        <ele>903.5</ele>
        <time>2014-05-29T10:41:06Z</time>
      </trkpt>
      <trkpt lat="45.40102" lon="2.67564">
        <ele>904.1</ele>
        <time>2014-05-29T10:41:08Z</time>
      </trkpt>
      <trkpt lat="45.40105" lon="2.67572">
        <ele>904.9</ele>
        <time>2014-05-29T10:41:10Z</time>
      </trkpt>
      <trkpt lat="45.40109" lon="2.67581">
        <ele>904.6</ele>
        <time>2014-05-29T10:41:12Z</time>
      </trkpt>
      <trkpt lat="45.40111" lon="2.6759">
        <ele>905</ele>
        <time>2014-05-29T10:41:14Z</time>
      </trkpt>
      <trkpt lat="45.40114" lon="2.67599">
        <ele>905</ele>
        <time>2014-05-29T10:41:16Z</time>
      </trkpt>
      <trkpt lat="45.40115" lon="2.67608">
        <ele>905.6</ele>
        <time>2014-05-29T10:41:18Z</time>
      </trkpt>
      <trkpt lat="45.40116" lon="2.67618">
        <ele>906.3</ele>
        <time>2014-05-29T10:41:20Z</time>
      </trkpt>
      <trkpt lat="45.40117" lon="2.67628">
        <ele>906.5</ele>
        <time>2014-05-29T10:41:22Z</time>
      </trkpt>
      <trkpt lat="45.40117" lon="2.67638">
        <ele>906.6</ele>
        <time>2014-05-29T10:41:24Z</time>
      </trkpt>
      <trkpt lat="45.40118" lon="2.67648">
        <ele>905.7</ele>
        <time>2014-05-29T10:41:26Z</time>
      </trkpt>
      <trkpt lat="45.40118" lon="2.67658">
        <ele>906.2</ele>
        <time>2014-05-29T10:41:28Z</time>
      </trkpt>
      <trkpt lat="45.40118" lon="2.67669">
        <ele>906.8</ele>
        <time>2014-05-29T10:41:30Z</time>
      </trkpt>
      <trkpt lat="45.40118" lon="2.6768">
        <ele>907</ele>
        <time>2014-05-29T10:41:32Z</time>
      </trkpt>
      <trkpt lat="45.4012" lon="2.67691">
        <ele>906.8</ele>
        <time>2014-05-29T10:41:34Z</time>
      </trkpt>
      <trkpt lat="45.40123" lon="2.67703">
        <ele>906.5</ele>
        <time>2014-05-29T10:41:36Z</time>
      </trkpt>
      <trkpt lat="45.40126" lon="2.67713">
        <ele>906.2</ele>
        <time>2014-05-29T10:41:38Z</time>
      </trkpt>
      <trkpt lat="45.40128" lon="2.67718">
        <ele>906.1</ele>
        <time>2014-05-29T10:41:39Z</time>
      </trkpt>
      <trkpt lat="45.40134" lon="2.67733">
        <ele>906.2</ele>
        <time>2014-05-29T10:41:42Z</time>
      </trkpt>
      <trkpt lat="45.40138" lon="2.67743">
        <ele>906.4</ele>
        <time>2014-05-29T10:41:44Z</time>
      </trkpt>
      <trkpt lat="45.40143" lon="2.67754">
        <ele>906.5</ele>
        <time>2014-05-29T10:41:46Z</time>
      </trkpt>
      <trkpt lat="45.40145" lon="2.6776">
        <ele>906.5</ele>
        <time>2014-05-29T10:41:47Z</time>
      </trkpt>
      <trkpt lat="45.40148" lon="2.67766">
        <ele>906.6</ele>
        <time>2014-05-29T10:41:48Z</time>
      </trkpt>
      <trkpt lat="45.4015" lon="2.67772">
        <ele>906.8</ele>
        <time>2014-05-29T10:41:49Z</time>
      </trkpt>
      <trkpt lat="45.40153" lon="2.67778">
        <ele>906.9</ele>
        <time>2014-05-29T10:41:50Z</time>
      </trkpt>
      <trkpt lat="45.40156" lon="2.67784">
        <ele>906.8</ele>
        <time>2014-05-29T10:41:51Z</time>
      </trkpt>
      <trkpt lat="45.40158" lon="2.67789">
        <ele>906.6</ele>
        <time>2014-05-29T10:41:52Z</time>
      </trkpt>
      <trkpt lat="45.40161" lon="2.67795">
        <ele>906.6</ele>
        <time>2014-05-29T10:41:53Z</time>
      </trkpt>
      <trkpt lat="45.40164" lon="2.678">
        <ele>906.5</ele>
        <time>2014-05-29T10:41:54Z</time>
      </trkpt>
      <trkpt lat="45.40167" lon="2.67805">
        <ele>906.5</ele>
        <time>2014-05-29T10:41:55Z</time>
      </trkpt>
      <trkpt lat="45.40171" lon="2.67809">
        <ele>906.6</ele>
        <time>2014-05-29T10:41:56Z</time>
      </trkpt>
      <trkpt lat="45.40175" lon="2.67813">
        <ele>906.7</ele>
        <time>2014-05-29T10:41:57Z</time>
      </trkpt>
      <trkpt lat="45.40179" lon="2.67816">
        <ele>906.8</ele>
        <time>2014-05-29T10:41:58Z</time>
      </trkpt>
      <trkpt lat="45.40184" lon="2.67819">
        <ele>906.9</ele>
        <time>2014-05-29T10:41:59Z</time>
      </trkpt>
      <trkpt lat="45.40188" lon="2.67821">
        <ele>906.6</ele>
        <time>2014-05-29T10:42:00Z</time>
      </trkpt>
      <trkpt lat="45.40193" lon="2.67823">
        <ele>906.4</ele>
        <time>2014-05-29T10:42:01Z</time>
      </trkpt>
      <trkpt lat="45.40198" lon="2.67824">
        <ele>906.3</ele>
        <time>2014-05-29T10:42:02Z</time>
      </trkpt>
      <trkpt lat="45.40204" lon="2.67825">
        <ele>906.6</ele>
        <time>2014-05-29T10:42:03Z</time>
      </trkpt>
      <trkpt lat="45.40209" lon="2.67827">
        <ele>906.8</ele>
        <time>2014-05-29T10:42:04Z</time>
      </trkpt>
      <trkpt lat="45.40214" lon="2.67827">
        <ele>906.7</ele>
        <time>2014-05-29T10:42:05Z</time>
      </trkpt>
      <trkpt lat="45.4022" lon="2.67828">
        <ele>906.6</ele>
        <time>2014-05-29T10:42:06Z</time>
      </trkpt>
      <trkpt lat="45.40225" lon="2.67828">
        <ele>906.5</ele>
        <time>2014-05-29T10:42:07Z</time>
      </trkpt>
      <trkpt lat="45.4023" lon="2.67827">
        <ele>906.6</ele>
        <time>2014-05-29T10:42:08Z</time>
      </trkpt>
      <trkpt lat="45.40235" lon="2.67825">
        <ele>906.7</ele>
        <time>2014-05-29T10:42:09Z</time>
      </trkpt>
      <trkpt lat="45.4024" lon="2.67823">
        <ele>906.6</ele>
        <time>2014-05-29T10:42:10Z</time>
      </trkpt>
      <trkpt lat="45.40245" lon="2.6782">
        <ele>906.5</ele>
        <time>2014-05-29T10:42:11Z</time>
      </trkpt>
      <trkpt lat="45.4025" lon="2.67817">
        <ele>906.9</ele>
        <time>2014-05-29T10:42:12Z</time>
      </trkpt>
      <trkpt lat="45.40254" lon="2.67812">
        <ele>907.2</ele>
        <time>2014-05-29T10:42:13Z</time>
      </trkpt>
      <trkpt lat="45.40259" lon="2.67808">
        <ele>907.4</ele>
        <time>2014-05-29T10:42:14Z</time>
      </trkpt>
      <trkpt lat="45.40264" lon="2.67805">
        <ele>907.4</ele>
        <time>2014-05-29T10:42:15Z</time>
      </trkpt>
      <trkpt lat="45.40269" lon="2.67802">
        <ele>907.4</ele>
        <time>2014-05-29T10:42:16Z</time>
      </trkpt>
      <trkpt lat="45.40274" lon="2.67801">
        <ele>907.5</ele>
        <time>2014-05-29T10:42:17Z</time>
      </trkpt>
      <trkpt lat="45.40279" lon="2.67801">
        <ele>907.5</ele>
        <time>2014-05-29T10:42:18Z</time>
      </trkpt>
      <trkpt lat="45.40284" lon="2.67803">
        <ele>907.4</ele>
        <time>2014-05-29T10:42:19Z</time>
      </trkpt>
      <trkpt lat="45.40289" lon="2.67805">
        <ele>907.2</ele>
        <time>2014-05-29T10:42:20Z</time>
      </trkpt>
      <trkpt lat="45.40293" lon="2.67808">
        <ele>907.1</ele>
        <time>2014-05-29T10:42:21Z</time>
      </trkpt>
      <trkpt lat="45.40298" lon="2.67812">
        <ele>907.1</ele>
        <time>2014-05-29T10:42:22Z</time>
      </trkpt>
      <trkpt lat="45.40302" lon="2.67815">
        <ele>907</ele>
        <time>2014-05-29T10:42:23Z</time>
      </trkpt>
      <trkpt lat="45.40307" lon="2.67819">
        <ele>907.1</ele>
        <time>2014-05-29T10:42:24Z</time>
      </trkpt>
      <trkpt lat="45.40311" lon="2.67823">
        <ele>907.2</ele>
        <time>2014-05-29T10:42:25Z</time>
      </trkpt>
      <trkpt lat="45.40316" lon="2.67828">
        <ele>907.2</ele>
        <time>2014-05-29T10:42:26Z</time>
      </trkpt>
      <trkpt lat="45.40321" lon="2.67832">
        <ele>907</ele>
        <time>2014-05-29T10:42:27Z</time>
      </trkpt>
      <trkpt lat="45.40325" lon="2.67836">
        <ele>906.8</ele>
        <time>2014-05-29T10:42:28Z</time>
      </trkpt>
      <trkpt lat="45.4033" lon="2.67841">
        <ele>906.4</ele>
        <time>2014-05-29T10:42:29Z</time>
      </trkpt>
      <trkpt lat="45.40334" lon="2.67844">
        <ele>906.1</ele>
        <time>2014-05-29T10:42:30Z</time>
      </trkpt>
      <trkpt lat="45.40338" lon="2.67847">
        <ele>906.4</ele>
        <time>2014-05-29T10:42:31Z</time>
      </trkpt>
      <trkpt lat="45.40343" lon="2.67851">
        <ele>906.5</ele>
        <time>2014-05-29T10:42:32Z</time>
      </trkpt>
      <trkpt lat="45.40347" lon="2.67856">
        <ele>906.6</ele>
        <time>2014-05-29T10:42:33Z</time>
      </trkpt>
      <trkpt lat="45.40351" lon="2.67861">
        <ele>906.3</ele>
        <time>2014-05-29T10:42:34Z</time>
      </trkpt>
      <trkpt lat="45.40356" lon="2.67866">
        <ele>906.1</ele>
        <time>2014-05-29T10:42:35Z</time>
      </trkpt>
      <trkpt lat="45.4036" lon="2.6787">
        <ele>905.8</ele>
        <time>2014-05-29T10:42:36Z</time>
      </trkpt>
      <trkpt lat="45.40365" lon="2.67875">
        <ele>905.5</ele>
        <time>2014-05-29T10:42:37Z</time>
      </trkpt>
      <trkpt lat="45.40369" lon="2.6788">
        <ele>905.3</ele>
        <time>2014-05-29T10:42:38Z</time>
      </trkpt>
      <trkpt lat="45.40373" lon="2.67886">
        <ele>905.2</ele>
        <time>2014-05-29T10:42:39Z</time>
      </trkpt>
      <trkpt lat="45.40377" lon="2.67891">
        <ele>905.1</ele>
        <time>2014-05-29T10:42:40Z</time>
      </trkpt>
      <trkpt lat="45.40381" lon="2.67896">
        <ele>905</ele>
        <time>2014-05-29T10:42:41Z</time>
      </trkpt>
      <trkpt lat="45.40385" lon="2.67901">
        <ele>904.9</ele>
        <time>2014-05-29T10:42:42Z</time>
      </trkpt>
      <trkpt lat="45.40389" lon="2.67906">
        <ele>905.3</ele>
        <time>2014-05-29T10:42:43Z</time>
      </trkpt>
      <trkpt lat="45.40392" lon="2.67912">
        <ele>905.5</ele>
        <time>2014-05-29T10:42:44Z</time>
      </trkpt>
      <trkpt lat="45.40397" lon="2.67921">
        <ele>905.5</ele>
        <time>2014-05-29T10:42:46Z</time>
      </trkpt>
      <trkpt lat="45.40404" lon="2.67917">
        <ele>904.7</ele>
        <time>2014-05-29T10:42:50Z</time>
      </trkpt>
      <trkpt lat="45.40404" lon="2.67905">
        <ele>904.5</ele>
        <time>2014-05-29T10:42:53Z</time>
      </trkpt>
      <trkpt lat="45.40403" lon="2.67897">
        <ele>904.6</ele>
        <time>2014-05-29T10:42:55Z</time>
      </trkpt>
      <trkpt lat="45.40403" lon="2.67885">
        <ele>905.1</ele>
        <time>2014-05-29T10:42:58Z</time>
      </trkpt>
      <trkpt lat="45.40403" lon="2.67873">
        <ele>905.8</ele>
        <time>2014-05-29T10:43:02Z</time>
      </trkpt>
      <trkpt lat="45.40404" lon="2.67861">
        <ele>906.4</ele>
        <time>2014-05-29T10:43:06Z</time>
      </trkpt>
      <trkpt lat="45.40402" lon="2.67851">
        <ele>906.7</ele>
        <time>2014-05-29T10:43:10Z</time>
      </trkpt>
      <trkpt lat="45.40399" lon="2.6784">
        <ele>907.7</ele>
        <time>2014-05-29T10:43:14Z</time>
      </trkpt>
      <trkpt lat="45.40394" lon="2.67831">
        <ele>909.4</ele>
        <time>2014-05-29T10:43:19Z</time>
      </trkpt>
      <trkpt lat="45.40388" lon="2.67823">
        <ele>909.9</ele>
        <time>2014-05-29T10:43:23Z</time>
      </trkpt>
      <trkpt lat="45.40384" lon="2.67815">
        <ele>911.2</ele>
        <time>2014-05-29T10:43:26Z</time>
      </trkpt>
      <trkpt lat="45.40381" lon="2.67807">
        <ele>911.8</ele>
        <time>2014-05-29T10:43:29Z</time>
      </trkpt>
      <trkpt lat="45.40378" lon="2.67798">
        <ele>912.4</ele>
        <time>2014-05-29T10:43:32Z</time>
      </trkpt>
      <trkpt lat="45.40374" lon="2.67788">
        <ele>912.8</ele>
        <time>2014-05-29T10:43:35Z</time>
      </trkpt>
      <trkpt lat="45.4037" lon="2.67778">
        <ele>912.9</ele>
        <time>2014-05-29T10:43:38Z</time>
      </trkpt>
      <trkpt lat="45.40367" lon="2.6777">
        <ele>913.1</ele>
        <time>2014-05-29T10:43:40Z</time>
      </trkpt>
      <trkpt lat="45.40365" lon="2.67766">
        <ele>913.4</ele>
        <time>2014-05-29T10:43:41Z</time>
      </trkpt>
      <trkpt lat="45.40361" lon="2.67753">
        <ele>913.2</ele>
        <time>2014-05-29T10:43:44Z</time>
      </trkpt>
      <trkpt lat="45.40358" lon="2.67745">
        <ele>913.4</ele>
        <time>2014-05-29T10:43:46Z</time>
      </trkpt>
      <trkpt lat="45.40355" lon="2.67736">
        <ele>913</ele>
        <time>2014-05-29T10:43:48Z</time>
      </trkpt>
      <trkpt lat="45.40353" lon="2.67727">
        <ele>913</ele>
        <time>2014-05-29T10:43:50Z</time>
      </trkpt>
      <trkpt lat="45.4035" lon="2.67717">
        <ele>913.2</ele>
        <time>2014-05-29T10:43:52Z</time>
      </trkpt>
      <trkpt lat="45.40348" lon="2.67708">
        <ele>913.4</ele>
        <time>2014-05-29T10:43:54Z</time>
      </trkpt>
      <trkpt lat="45.40345" lon="2.67697">
        <ele>913.4</ele>
        <time>2014-05-29T10:43:56Z</time>
      </trkpt>
      <trkpt lat="45.40344" lon="2.67691">
        <ele>913.2</ele>
        <time>2014-05-29T10:43:57Z</time>
      </trkpt>
      <trkpt lat="45.40342" lon="2.67684">
        <ele>913</ele>
        <time>2014-05-29T10:43:58Z</time>
      </trkpt>
      <trkpt lat="45.4034" lon="2.67678">
        <ele>912.7</ele>
        <time>2014-05-29T10:43:59Z</time>
      </trkpt>
      <trkpt lat="45.40336" lon="2.67667">
        <ele>912.2</ele>
        <time>2014-05-29T10:44:01Z</time>
      </trkpt>
      <trkpt lat="45.40335" lon="2.67655">
        <ele>912.2</ele>
        <time>2014-05-29T10:44:03Z</time>
      </trkpt>
      <trkpt lat="45.40334" lon="2.67643">
        <ele>911.9</ele>
        <time>2014-05-29T10:44:05Z</time>
      </trkpt>
      <trkpt lat="45.40332" lon="2.67631">
        <ele>912.2</ele>
        <time>2014-05-29T10:44:07Z</time>
      </trkpt>
      <trkpt lat="45.4033" lon="2.67624">
        <ele>912.3</ele>
        <time>2014-05-29T10:44:08Z</time>
      </trkpt>
      <trkpt lat="45.40328" lon="2.67618">
        <ele>912.1</ele>
        <time>2014-05-29T10:44:09Z</time>
      </trkpt>
      <trkpt lat="45.40326" lon="2.67612">
        <ele>912</ele>
        <time>2014-05-29T10:44:10Z</time>
      </trkpt>
      <trkpt lat="45.40324" lon="2.67605">
        <ele>912.1</ele>
        <time>2014-05-29T10:44:11Z</time>
      </trkpt>
      <trkpt lat="45.40323" lon="2.67598">
        <ele>912.1</ele>
        <time>2014-05-29T10:44:12Z</time>
      </trkpt>
      <trkpt lat="45.40322" lon="2.67592">
        <ele>911.8</ele>
        <time>2014-05-29T10:44:13Z</time>
      </trkpt>
      <trkpt lat="45.4032" lon="2.67585">
        <ele>911.5</ele>
        <time>2014-05-29T10:44:14Z</time>
      </trkpt>
      <trkpt lat="45.40318" lon="2.67578">
        <ele>911.4</ele>
        <time>2014-05-29T10:44:15Z</time>
      </trkpt>
      <trkpt lat="45.40317" lon="2.6757">
        <ele>911.5</ele>
        <time>2014-05-29T10:44:16Z</time>
      </trkpt>
      <trkpt lat="45.40315" lon="2.67562">
        <ele>911.6</ele>
        <time>2014-05-29T10:44:17Z</time>
      </trkpt>
      <trkpt lat="45.40313" lon="2.67554">
        <ele>911.6</ele>
        <time>2014-05-29T10:44:18Z</time>
      </trkpt>
      <trkpt lat="45.40312" lon="2.67546">
        <ele>911.6</ele>
        <time>2014-05-29T10:44:19Z</time>
      </trkpt>
      <trkpt lat="45.40311" lon="2.67538">
        <ele>911.1</ele>
        <time>2014-05-29T10:44:20Z</time>
      </trkpt>
      <trkpt lat="45.40311" lon="2.67529">
        <ele>910.8</ele>
        <time>2014-05-29T10:44:21Z</time>
      </trkpt>
      <trkpt lat="45.40311" lon="2.6752">
        <ele>910.5</ele>
        <time>2014-05-29T10:44:22Z</time>
      </trkpt>
      <trkpt lat="45.40313" lon="2.67512">
        <ele>910.4</ele>
        <time>2014-05-29T10:44:23Z</time>
      </trkpt>
      <trkpt lat="45.40315" lon="2.67504">
        <ele>910.3</ele>
        <time>2014-05-29T10:44:24Z</time>
      </trkpt>
      <trkpt lat="45.40319" lon="2.67499">
        <ele>910</ele>
        <time>2014-05-29T10:44:25Z</time>
      </trkpt>
      <trkpt lat="45.40323" lon="2.67495">
        <ele>909.8</ele>
        <time>2014-05-29T10:44:26Z</time>
      </trkpt>
      <trkpt lat="45.40331" lon="2.67492">
        <ele>910.2</ele>
        <time>2014-05-29T10:44:28Z</time>
      </trkpt>
      <trkpt lat="45.40337" lon="2.6749">
        <ele>910.7</ele>
        <time>2014-05-29T10:44:30Z</time>
      </trkpt>
      <trkpt lat="45.40343" lon="2.67485">
        <ele>911.2</ele>
        <time>2014-05-29T10:44:32Z</time>
      </trkpt>
      <trkpt lat="45.40348" lon="2.6748">
        <ele>911.9</ele>
        <time>2014-05-29T10:44:34Z</time>
      </trkpt>
      <trkpt lat="45.40354" lon="2.67476">
        <ele>912.6</ele>
        <time>2014-05-29T10:44:36Z</time>
      </trkpt>
      <trkpt lat="45.4036" lon="2.67471">
        <ele>912.5</ele>
        <time>2014-05-29T10:44:38Z</time>
      </trkpt>
      <trkpt lat="45.40368" lon="2.67468">
        <ele>912.3</ele>
        <time>2014-05-29T10:44:40Z</time>
      </trkpt>
      <trkpt lat="45.40375" lon="2.67463">
        <ele>912.3</ele>
        <time>2014-05-29T10:44:42Z</time>
      </trkpt>
      <trkpt lat="45.40378" lon="2.6746">
        <ele>912.5</ele>
        <time>2014-05-29T10:44:43Z</time>
      </trkpt>
      <trkpt lat="45.40387" lon="2.6745">
        <ele>912.2</ele>
        <time>2014-05-29T10:44:46Z</time>
      </trkpt>
      <trkpt lat="45.40393" lon="2.67444">
        <ele>912.2</ele>
        <time>2014-05-29T10:44:48Z</time>
      </trkpt>
      <trkpt lat="45.40397" lon="2.67438">
        <ele>911.6</ele>
        <time>2014-05-29T10:44:50Z</time>
      </trkpt>
      <trkpt lat="45.40401" lon="2.6743">
        <ele>911.7</ele>
        <time>2014-05-29T10:44:52Z</time>
      </trkpt>
      <trkpt lat="45.40406" lon="2.67422">
        <ele>912.2</ele>
        <time>2014-05-29T10:44:54Z</time>
      </trkpt>
      <trkpt lat="45.40411" lon="2.67413">
        <ele>912.2</ele>
        <time>2014-05-29T10:44:56Z</time>
      </trkpt>
      <trkpt lat="45.40416" lon="2.67404">
        <ele>911.8</ele>
        <time>2014-05-29T10:44:58Z</time>
      </trkpt>
      <trkpt lat="45.40419" lon="2.674">
        <ele>912</ele>
        <time>2014-05-29T10:44:59Z</time>
      </trkpt>
      <trkpt lat="45.40422" lon="2.67395">
        <ele>912.2</ele>
        <time>2014-05-29T10:45:00Z</time>
      </trkpt>
      <trkpt lat="45.40426" lon="2.6739">
        <ele>912.1</ele>
        <time>2014-05-29T10:45:01Z</time>
      </trkpt>
      <trkpt lat="45.4043" lon="2.67386">
        <ele>912.1</ele>
        <time>2014-05-29T10:45:02Z</time>
      </trkpt>
      <trkpt lat="45.40434" lon="2.67381">
        <ele>911.9</ele>
        <time>2014-05-29T10:45:03Z</time>
      </trkpt>
      <trkpt lat="45.40439" lon="2.67376">
        <ele>911.7</ele>
        <time>2014-05-29T10:45:04Z</time>
      </trkpt>
      <trkpt lat="45.40443" lon="2.67372">
        <ele>911.6</ele>
        <time>2014-05-29T10:45:05Z</time>
      </trkpt>
      <trkpt lat="45.40448" lon="2.67367">
        <ele>911.7</ele>
        <time>2014-05-29T10:45:06Z</time>
      </trkpt>
      <trkpt lat="45.40453" lon="2.67363">
        <ele>911.7</ele>
        <time>2014-05-29T10:45:07Z</time>
      </trkpt>
      <trkpt lat="45.40457" lon="2.67359">
        <ele>911.4</ele>
        <time>2014-05-29T10:45:08Z</time>
      </trkpt>
      <trkpt lat="45.40462" lon="2.67355">
        <ele>911.2</ele>
        <time>2014-05-29T10:45:09Z</time>
      </trkpt>
      <trkpt lat="45.40467" lon="2.6735">
        <ele>910.8</ele>
        <time>2014-05-29T10:45:10Z</time>
      </trkpt>
      <trkpt lat="45.40472" lon="2.67346">
        <ele>910.5</ele>
        <time>2014-05-29T10:45:11Z</time>
      </trkpt>
      <trkpt lat="45.40477" lon="2.67341">
        <ele>910.3</ele>
        <time>2014-05-29T10:45:12Z</time>
      </trkpt>
      <trkpt lat="45.40482" lon="2.67336">
        <ele>910</ele>
        <time>2014-05-29T10:45:13Z</time>
      </trkpt>
      <trkpt lat="45.40488" lon="2.67331">
        <ele>909.8</ele>
        <time>2014-05-29T10:45:14Z</time>
      </trkpt>
      <trkpt lat="45.40494" lon="2.67327">
        <ele>909.3</ele>
        <time>2014-05-29T10:45:15Z</time>
      </trkpt>
      <trkpt lat="45.405" lon="2.67325">
        <ele>909</ele>
        <time>2014-05-29T10:45:16Z</time>
      </trkpt>
      <trkpt lat="45.40507" lon="2.67324">
        <ele>908.7</ele>
        <time>2014-05-29T10:45:17Z</time>
      </trkpt>
      <trkpt lat="45.40514" lon="2.67324">
        <ele>908.4</ele>
        <time>2014-05-29T10:45:18Z</time>
      </trkpt>
      <trkpt lat="45.40521" lon="2.67326">
        <ele>908.2</ele>
        <time>2014-05-29T10:45:19Z</time>
      </trkpt>
      <trkpt lat="45.40528" lon="2.67329">
        <ele>907.9</ele>
        <time>2014-05-29T10:45:20Z</time>
      </trkpt>
      <trkpt lat="45.40535" lon="2.67332">
        <ele>907.7</ele>
        <time>2014-05-29T10:45:21Z</time>
      </trkpt>
      <trkpt lat="45.40543" lon="2.67333">
        <ele>907.1</ele>
        <time>2014-05-29T10:45:22Z</time>
      </trkpt>
      <trkpt lat="45.4055" lon="2.67333">
        <ele>906.7</ele>
        <time>2014-05-29T10:45:23Z</time>
      </trkpt>
      <trkpt lat="45.40557" lon="2.67332">
        <ele>906.4</ele>
        <time>2014-05-29T10:45:24Z</time>
      </trkpt>
      <trkpt lat="45.40564" lon="2.67332">
        <ele>906.4</ele>
        <time>2014-05-29T10:45:25Z</time>
      </trkpt>
      <trkpt lat="45.40571" lon="2.67331">
        <ele>906.5</ele>
        <time>2014-05-29T10:45:26Z</time>
      </trkpt>
      <trkpt lat="45.40577" lon="2.6733">
        <ele>906.1</ele>
        <time>2014-05-29T10:45:27Z</time>
      </trkpt>
      <trkpt lat="45.40583" lon="2.6733">
        <ele>905.8</ele>
        <time>2014-05-29T10:45:28Z</time>
      </trkpt>
      <trkpt lat="45.40589" lon="2.67329">
        <ele>905.5</ele>
        <time>2014-05-29T10:45:29Z</time>
      </trkpt>
      <trkpt lat="45.40594" lon="2.67327">
        <ele>905.3</ele>
        <time>2014-05-29T10:45:30Z</time>
      </trkpt>
      <trkpt lat="45.40599" lon="2.67323">
        <ele>905.1</ele>
        <time>2014-05-29T10:45:31Z</time>
      </trkpt>
      <trkpt lat="45.40603" lon="2.67319">
        <ele>905.1</ele>
        <time>2014-05-29T10:45:32Z</time>
      </trkpt>
      <trkpt lat="45.40607" lon="2.67314">
        <ele>905.1</ele>
        <time>2014-05-29T10:45:33Z</time>
      </trkpt>
      <trkpt lat="45.40613" lon="2.67304">
        <ele>905.8</ele>
        <time>2014-05-29T10:45:35Z</time>
      </trkpt>
      <trkpt lat="45.40618" lon="2.67295">
        <ele>906.8</ele>
        <time>2014-05-29T10:45:37Z</time>
      </trkpt>
      <trkpt lat="45.40622" lon="2.67287">
        <ele>907.7</ele>
        <time>2014-05-29T10:45:39Z</time>
      </trkpt>
      <trkpt lat="45.40626" lon="2.67279">
        <ele>908.3</ele>
        <time>2014-05-29T10:45:41Z</time>
      </trkpt>
      <trkpt lat="45.40631" lon="2.67271">
        <ele>908.8</ele>
        <time>2014-05-29T10:45:43Z</time>
      </trkpt>
      <trkpt lat="45.40633" lon="2.67266">
        <ele>909.1</ele>
        <time>2014-05-29T10:45:44Z</time>
      </trkpt>
      <trkpt lat="45.40638" lon="2.67253">
        <ele>909.9</ele>
        <time>2014-05-29T10:45:47Z</time>
      </trkpt>
      <trkpt lat="45.40641" lon="2.67243">
        <ele>910.1</ele>
        <time>2014-05-29T10:45:49Z</time>
      </trkpt>
      <trkpt lat="45.40642" lon="2.67233">
        <ele>910</ele>
        <time>2014-05-29T10:45:51Z</time>
      </trkpt>
      <trkpt lat="45.40643" lon="2.67223">
        <ele>910.4</ele>
        <time>2014-05-29T10:45:53Z</time>
      </trkpt>
      <trkpt lat="45.40643" lon="2.67213">
        <ele>911.1</ele>
        <time>2014-05-29T10:45:55Z</time>
      </trkpt>
      <trkpt lat="45.40643" lon="2.67202">
        <ele>911.6</ele>
        <time>2014-05-29T10:45:57Z</time>
      </trkpt>
      <trkpt lat="45.40642" lon="2.67191">
        <ele>912.1</ele>
        <time>2014-05-29T10:45:59Z</time>
      </trkpt>
      <trkpt lat="45.40641" lon="2.6718">
        <ele>912</ele>
        <time>2014-05-29T10:46:01Z</time>
      </trkpt>
      <trkpt lat="45.40641" lon="2.6717">
        <ele>911.6</ele>
        <time>2014-05-29T10:46:03Z</time>
      </trkpt>
      <trkpt lat="45.40641" lon="2.6716">
        <ele>911.3</ele>
        <time>2014-05-29T10:46:05Z</time>
      </trkpt>
      <trkpt lat="45.40641" lon="2.6715">
        <ele>910.9</ele>
        <time>2014-05-29T10:46:07Z</time>
      </trkpt>
      <trkpt lat="45.40642" lon="2.67138">
        <ele>911.3</ele>
        <time>2014-05-29T10:46:10Z</time>
      </trkpt>
      <trkpt lat="45.40643" lon="2.67127">
        <ele>913.3</ele>
        <time>2014-05-29T10:46:13Z</time>
      </trkpt>
      <trkpt lat="45.40646" lon="2.67117">
        <ele>914.4</ele>
        <time>2014-05-29T10:46:16Z</time>
      </trkpt>
      <trkpt lat="45.40646" lon="2.67095">
        <ele>914</ele>
        <time>2014-05-29T10:46:21Z</time>
      </trkpt>
      <trkpt lat="45.40641" lon="2.67078">
        <ele>914.6</ele>
        <time>2014-05-29T10:46:25Z</time>
      </trkpt>
      <trkpt lat="45.40637" lon="2.67072">
        <ele>915.2</ele>
        <time>2014-05-29T10:46:26Z</time>
      </trkpt>
      <trkpt lat="45.40633" lon="2.67064">
        <ele>915.6</ele>
        <time>2014-05-29T10:46:27Z</time>
      </trkpt>
      <trkpt lat="45.40628" lon="2.67057">
        <ele>915.9</ele>
        <time>2014-05-29T10:46:28Z</time>
      </trkpt>
      <trkpt lat="45.40625" lon="2.6705">
        <ele>916.1</ele>
        <time>2014-05-29T10:46:29Z</time>
      </trkpt>
      <trkpt lat="45.40621" lon="2.67044">
        <ele>916.3</ele>
        <time>2014-05-29T10:46:30Z</time>
      </trkpt>
      <trkpt lat="45.40617" lon="2.67033">
        <ele>916.3</ele>
        <time>2014-05-29T10:46:32Z</time>
      </trkpt>
      <trkpt lat="45.40615" lon="2.67025">
        <ele>917.3</ele>
        <time>2014-05-29T10:46:34Z</time>
      </trkpt>
      <trkpt lat="45.40613" lon="2.6702">
        <ele>917.6</ele>
        <time>2014-05-29T10:46:35Z</time>
      </trkpt>
      <trkpt lat="45.40608" lon="2.67009">
        <ele>917.7</ele>
        <time>2014-05-29T10:46:37Z</time>
      </trkpt>
      <trkpt lat="45.40605" lon="2.67">
        <ele>917.4</ele>
        <time>2014-05-29T10:46:39Z</time>
      </trkpt>
      <trkpt lat="45.40601" lon="2.66993">
        <ele>917.8</ele>
        <time>2014-05-29T10:46:40Z</time>
      </trkpt>
      <trkpt lat="45.40598" lon="2.66987">
        <ele>918.1</ele>
        <time>2014-05-29T10:46:41Z</time>
      </trkpt>
      <trkpt lat="45.40593" lon="2.66976">
        <ele>918.6</ele>
        <time>2014-05-29T10:46:43Z</time>
      </trkpt>
      <trkpt lat="45.40589" lon="2.66966">
        <ele>918.7</ele>
        <time>2014-05-29T10:46:45Z</time>
      </trkpt>
      <trkpt lat="45.40588" lon="2.66962">
        <ele>918.6</ele>
        <time>2014-05-29T10:46:46Z</time>
      </trkpt>
      <trkpt lat="45.40584" lon="2.66945">
        <ele>919.1</ele>
        <time>2014-05-29T10:46:50Z</time>
      </trkpt>
      <trkpt lat="45.40591" lon="2.66943">
        <ele>919.9</ele>
        <time>2014-05-29T10:46:53Z</time>
      </trkpt>
      <trkpt lat="45.40597" lon="2.66937">
        <ele>920.8</ele>
        <time>2014-05-29T10:46:56Z</time>
      </trkpt>
      <trkpt lat="45.40605" lon="2.66936">
        <ele>921.2</ele>
        <time>2014-05-29T10:46:58Z</time>
      </trkpt>
      <trkpt lat="45.40612" lon="2.66935">
        <ele>922.8</ele>
        <time>2014-05-29T10:47:00Z</time>
      </trkpt>
      <trkpt lat="45.40618" lon="2.66933">
        <ele>923.5</ele>
        <time>2014-05-29T10:47:02Z</time>
      </trkpt>
      <trkpt lat="45.40625" lon="2.66926">
        <ele>923.7</ele>
        <time>2014-05-29T10:47:05Z</time>
      </trkpt>
      <trkpt lat="45.40631" lon="2.66919">
        <ele>923.9</ele>
        <time>2014-05-29T10:47:08Z</time>
      </trkpt>
      <trkpt lat="45.40637" lon="2.66912">
        <ele>924.1</ele>
        <time>2014-05-29T10:47:11Z</time>
      </trkpt>
      <trkpt lat="45.40641" lon="2.66904">
        <ele>924.4</ele>
        <time>2014-05-29T10:47:14Z</time>
      </trkpt>
      <trkpt lat="45.40646" lon="2.66895">
        <ele>924.5</ele>
        <time>2014-05-29T10:47:17Z</time>
      </trkpt>
      <trkpt lat="45.40654" lon="2.66888">
        <ele>924.6</ele>
        <time>2014-05-29T10:47:21Z</time>
      </trkpt>
      <trkpt lat="45.4066" lon="2.6688">
        <ele>925.2</ele>
        <time>2014-05-29T10:47:27Z</time>
      </trkpt>
      <trkpt lat="45.40666" lon="2.66863">
        <ele>925</ele>
        <time>2014-05-29T10:47:35Z</time>
      </trkpt>
      <trkpt lat="45.4067" lon="2.66861">
        <ele>925.8</ele>
        <time>2014-05-29T10:47:37Z</time>
      </trkpt>
      <trkpt lat="45.40672" lon="2.6685">
        <ele>926.6</ele>
        <time>2014-05-29T10:47:45Z</time>
      </trkpt>
      <trkpt lat="45.40666" lon="2.6684">
        <ele>926</ele>
        <time>2014-05-29T10:47:48Z</time>
      </trkpt>
      <trkpt lat="45.40664" lon="2.66837">
        <ele>926.1</ele>
        <time>2014-05-29T10:47:49Z</time>
      </trkpt>
      <trkpt lat="45.40656" lon="2.66826">
        <ele>926.2</ele>
        <time>2014-05-29T10:47:53Z</time>
      </trkpt>
      <trkpt lat="45.40649" lon="2.66817">
        <ele>926.6</ele>
        <time>2014-05-29T10:47:56Z</time>
      </trkpt>
      <trkpt lat="45.40643" lon="2.6681">
        <ele>926.7</ele>
        <time>2014-05-29T10:47:59Z</time>
      </trkpt>
      <trkpt lat="45.40637" lon="2.66802">
        <ele>926.7</ele>
        <time>2014-05-29T10:48:02Z</time>
      </trkpt>
      <trkpt lat="45.40631" lon="2.66794">
        <ele>927.7</ele>
        <time>2014-05-29T10:48:07Z</time>
      </trkpt>
      <trkpt lat="45.40625" lon="2.66785">
        <ele>929.2</ele>
        <time>2014-05-29T10:48:14Z</time>
      </trkpt>
      <trkpt lat="45.40619" lon="2.66778">
        <ele>930.6</ele>
        <time>2014-05-29T10:48:19Z</time>
      </trkpt>
      <trkpt lat="45.40612" lon="2.66772">
        <ele>931.3</ele>
        <time>2014-05-29T10:48:25Z</time>
      </trkpt>
      <trkpt lat="45.40607" lon="2.66764">
        <ele>932.1</ele>
        <time>2014-05-29T10:48:31Z</time>
      </trkpt>
      <trkpt lat="45.40601" lon="2.66756">
        <ele>933</ele>
        <time>2014-05-29T10:48:38Z</time>
      </trkpt>
      <trkpt lat="45.40594" lon="2.66749">
        <ele>934.2</ele>
        <time>2014-05-29T10:48:53Z</time>
      </trkpt>
      <trkpt lat="45.40593" lon="2.66748">
        <ele>934.2</ele>
        <time>2014-05-29T10:48:54Z</time>
      </trkpt>
      <trkpt lat="45.40587" lon="2.6673">
        <ele>935.1</ele>
        <time>2014-05-29T10:49:04Z</time>
      </trkpt>
      <trkpt lat="45.40581" lon="2.66721">
        <ele>934.9</ele>
        <time>2014-05-29T10:49:08Z</time>
      </trkpt>
      <trkpt lat="45.40577" lon="2.66713">
        <ele>935.8</ele>
        <time>2014-05-29T10:49:12Z</time>
      </trkpt>
      <trkpt lat="45.40573" lon="2.66703">
        <ele>936.3</ele>
        <time>2014-05-29T10:49:16Z</time>
      </trkpt>
      <trkpt lat="45.40567" lon="2.66693">
        <ele>936.7</ele>
        <time>2014-05-29T10:49:20Z</time>
      </trkpt>
      <trkpt lat="45.40563" lon="2.66683">
        <ele>936.6</ele>
        <time>2014-05-29T10:49:24Z</time>
      </trkpt>
      <trkpt lat="45.40561" lon="2.66671">
        <ele>937.3</ele>
        <time>2014-05-29T10:49:30Z</time>
      </trkpt>
      <trkpt lat="45.40566" lon="2.66661">
        <ele>938.4</ele>
        <time>2014-05-29T10:49:36Z</time>
      </trkpt>
      <trkpt lat="45.40563" lon="2.6665">
        <ele>938.9</ele>
        <time>2014-05-29T10:49:40Z</time>
      </trkpt>
      <trkpt lat="45.4056" lon="2.66644">
        <ele>939</ele>
        <time>2014-05-29T10:49:41Z</time>
      </trkpt>
      <trkpt lat="45.40557" lon="2.66637">
        <ele>939.1</ele>
        <time>2014-05-29T10:49:42Z</time>
      </trkpt>
      <trkpt lat="45.40555" lon="2.66628">
        <ele>939</ele>
        <time>2014-05-29T10:49:43Z</time>
      </trkpt>
      <trkpt lat="45.40552" lon="2.66618">
        <ele>938.8</ele>
        <time>2014-05-29T10:49:44Z</time>
      </trkpt>
      <trkpt lat="45.4055" lon="2.66608">
        <ele>938.7</ele>
        <time>2014-05-29T10:49:45Z</time>
      </trkpt>
      <trkpt lat="45.40547" lon="2.66598">
        <ele>938.6</ele>
        <time>2014-05-29T10:49:46Z</time>
      </trkpt>
      <trkpt lat="45.40544" lon="2.66588">
        <ele>938.4</ele>
        <time>2014-05-29T10:49:47Z</time>
      </trkpt>
      <trkpt lat="45.40541" lon="2.66577">
        <ele>937.9</ele>
        <time>2014-05-29T10:49:48Z</time>
      </trkpt>
      <trkpt lat="45.40539" lon="2.66567">
        <ele>937.5</ele>
        <time>2014-05-29T10:49:49Z</time>
      </trkpt>
      <trkpt lat="45.40538" lon="2.66557">
        <ele>936.6</ele>
        <time>2014-05-29T10:49:50Z</time>
      </trkpt>
      <trkpt lat="45.40537" lon="2.66548">
        <ele>935.9</ele>
        <time>2014-05-29T10:49:51Z</time>
      </trkpt>
      <trkpt lat="45.40537" lon="2.66536">
        <ele>934.3</ele>
        <time>2014-05-29T10:49:53Z</time>
      </trkpt>
      <trkpt lat="45.40534" lon="2.66525">
        <ele>929.4</ele>
        <time>2014-05-29T10:49:59Z</time>
      </trkpt>
      <trkpt lat="45.40532" lon="2.66525">
        <ele>928.8</ele>
        <time>2014-05-29T10:50:00Z</time>
      </trkpt>
      <trkpt lat="45.40522" lon="2.66513">
        <ele>924.5</ele>
        <time>2014-05-29T10:50:06Z</time>
      </trkpt>
      <trkpt lat="45.40514" lon="2.66515">
        <ele>921.6</ele>
        <time>2014-05-29T10:50:09Z</time>
      </trkpt>
      <trkpt lat="45.40506" lon="2.66516">
        <ele>919.4</ele>
        <time>2014-05-29T10:50:15Z</time>
      </trkpt>
      <trkpt lat="45.40499" lon="2.66517">
        <ele>918.5</ele>
        <time>2014-05-29T10:50:18Z</time>
      </trkpt>
      <trkpt lat="45.40491" lon="2.66515">
        <ele>916.8</ele>
        <time>2014-05-29T10:50:22Z</time>
      </trkpt>
      <trkpt lat="45.40483" lon="2.66516">
        <ele>915.4</ele>
        <time>2014-05-29T10:50:25Z</time>
      </trkpt>
      <trkpt lat="45.40478" lon="2.66521">
        <ele>914.4</ele>
        <time>2014-05-29T10:50:27Z</time>
      </trkpt>
      <trkpt lat="45.40472" lon="2.66525">
        <ele>914.4</ele>
        <time>2014-05-29T10:50:29Z</time>
      </trkpt>
      <trkpt lat="45.40464" lon="2.66527">
        <ele>914.6</ele>
        <time>2014-05-29T10:50:31Z</time>
      </trkpt>
      <trkpt lat="45.40455" lon="2.66526">
        <ele>914.6</ele>
        <time>2014-05-29T10:50:33Z</time>
      </trkpt>
      <trkpt lat="45.40447" lon="2.66523">
        <ele>913.9</ele>
        <time>2014-05-29T10:50:35Z</time>
      </trkpt>
      <trkpt lat="45.40439" lon="2.66524">
        <ele>913.1</ele>
        <time>2014-05-29T10:50:37Z</time>
      </trkpt>
      <trkpt lat="45.40433" lon="2.66532">
        <ele>912.4</ele>
        <time>2014-05-29T10:50:39Z</time>
      </trkpt>
      <trkpt lat="45.40429" lon="2.66542">
        <ele>913</ele>
        <time>2014-05-29T10:50:41Z</time>
      </trkpt>
      <trkpt lat="45.40427" lon="2.66548">
        <ele>913.2</ele>
        <time>2014-05-29T10:50:42Z</time>
      </trkpt>
      <trkpt lat="45.40425" lon="2.66553">
        <ele>913.5</ele>
        <time>2014-05-29T10:50:43Z</time>
      </trkpt>
      <trkpt lat="45.40419" lon="2.66563">
        <ele>914</ele>
        <time>2014-05-29T10:50:45Z</time>
      </trkpt>
      <trkpt lat="45.40412" lon="2.6657">
        <ele>914.6</ele>
        <time>2014-05-29T10:50:47Z</time>
      </trkpt>
      <trkpt lat="45.40408" lon="2.66573">
        <ele>914.9</ele>
        <time>2014-05-29T10:50:48Z</time>
      </trkpt>
      <trkpt lat="45.40404" lon="2.66577">
        <ele>915.1</ele>
        <time>2014-05-29T10:50:49Z</time>
      </trkpt>
      <trkpt lat="45.404" lon="2.66581">
        <ele>915.4</ele>
        <time>2014-05-29T10:50:50Z</time>
      </trkpt>
      <trkpt lat="45.40395" lon="2.66591">
        <ele>916.1</ele>
        <time>2014-05-29T10:50:52Z</time>
      </trkpt>
      <trkpt lat="45.40389" lon="2.66599">
        <ele>916.7</ele>
        <time>2014-05-29T10:50:54Z</time>
      </trkpt>
      <trkpt lat="45.40382" lon="2.66602">
        <ele>917.1</ele>
        <time>2014-05-29T10:50:56Z</time>
      </trkpt>
      <trkpt lat="45.40376" lon="2.66605">
        <ele>918.4</ele>
        <time>2014-05-29T10:50:58Z</time>
      </trkpt>
      <trkpt lat="45.40369" lon="2.66609">
        <ele>919</ele>
        <time>2014-05-29T10:51:00Z</time>
      </trkpt>
      <trkpt lat="45.40367" lon="2.66611">
        <ele>919.2</ele>
        <time>2014-05-29T10:51:01Z</time>
      </trkpt>
      <trkpt lat="45.40357" lon="2.66623">
        <ele>919.8</ele>
        <time>2014-05-29T10:51:06Z</time>
      </trkpt>
      <trkpt lat="45.4035" lon="2.6663">
        <ele>920.1</ele>
        <time>2014-05-29T10:51:10Z</time>
      </trkpt>
      <trkpt lat="45.40343" lon="2.66632">
        <ele>919.7</ele>
        <time>2014-05-29T10:51:14Z</time>
      </trkpt>
      <trkpt lat="45.40335" lon="2.66631">
        <ele>921.8</ele>
        <time>2014-05-29T10:51:19Z</time>
      </trkpt>
      <trkpt lat="45.40327" lon="2.66629">
        <ele>923.2</ele>
        <time>2014-05-29T10:51:26Z</time>
      </trkpt>
      <trkpt lat="45.40319" lon="2.66625">
        <ele>924.8</ele>
        <time>2014-05-29T10:51:33Z</time>
      </trkpt>
      <trkpt lat="45.40311" lon="2.66622">
        <ele>925.8</ele>
        <time>2014-05-29T10:51:38Z</time>
      </trkpt>
      <trkpt lat="45.40304" lon="2.6662">
        <ele>925.4</ele>
        <time>2014-05-29T10:51:42Z</time>
      </trkpt>
      <trkpt lat="45.40296" lon="2.66615">
        <ele>926.3</ele>
        <time>2014-05-29T10:51:46Z</time>
      </trkpt>
      <trkpt lat="45.4029" lon="2.66606">
        <ele>926.2</ele>
        <time>2014-05-29T10:51:49Z</time>
      </trkpt>
      <trkpt lat="45.40284" lon="2.66598">
        <ele>926.3</ele>
        <time>2014-05-29T10:51:52Z</time>
      </trkpt>
      <trkpt lat="45.40278" lon="2.66589">
        <ele>925.3</ele>
        <time>2014-05-29T10:51:55Z</time>
      </trkpt>
      <trkpt lat="45.40273" lon="2.6658">
        <ele>925.7</ele>
        <time>2014-05-29T10:51:58Z</time>
      </trkpt>
      <trkpt lat="45.4027" lon="2.6657">
        <ele>926.1</ele>
        <time>2014-05-29T10:52:02Z</time>
      </trkpt>
      <trkpt lat="45.4027" lon="2.66567">
        <ele>926.2</ele>
        <time>2014-05-29T10:52:03Z</time>
      </trkpt>
      <trkpt lat="45.40274" lon="2.66549">
        <ele>926.8</ele>
        <time>2014-05-29T10:52:11Z</time>
      </trkpt>
      <trkpt lat="45.40277" lon="2.66541">
        <ele>926.6</ele>
        <time>2014-05-29T10:52:14Z</time>
      </trkpt>
      <trkpt lat="45.40281" lon="2.66531">
        <ele>927</ele>
        <time>2014-05-29T10:52:17Z</time>
      </trkpt>
      <trkpt lat="45.40283" lon="2.66521">
        <ele>927.3</ele>
        <time>2014-05-29T10:52:20Z</time>
      </trkpt>
      <trkpt lat="45.40286" lon="2.66513">
        <ele>927.8</ele>
        <time>2014-05-29T10:52:23Z</time>
      </trkpt>
      <trkpt lat="45.40291" lon="2.66505">
        <ele>927.8</ele>
        <time>2014-05-29T10:52:26Z</time>
      </trkpt>
      <trkpt lat="45.40296" lon="2.66497">
        <ele>927.5</ele>
        <time>2014-05-29T10:52:29Z</time>
      </trkpt>
      <trkpt lat="45.40299" lon="2.66488">
        <ele>928</ele>
        <time>2014-05-29T10:52:32Z</time>
      </trkpt>
      <trkpt lat="45.40299" lon="2.66475">
        <ele>927.8</ele>
        <time>2014-05-29T10:52:41Z</time>
      </trkpt>
      <trkpt lat="45.40298" lon="2.66463">
        <ele>927.1</ele>
        <time>2014-05-29T10:52:57Z</time>
      </trkpt>
      <trkpt lat="45.40297" lon="2.6645">
        <ele>926.3</ele>
        <time>2014-05-29T10:54:12Z</time>
      </trkpt>
      <trkpt lat="45.40297" lon="2.6645">
        <ele>926.4</ele>
        <time>2014-05-29T10:54:13Z</time>
      </trkpt>
      <trkpt lat="45.40292" lon="2.66439">
        <ele>927.2</ele>
        <time>2014-05-29T10:57:31Z</time>
      </trkpt>
      <trkpt lat="45.40297" lon="2.66451">
        <ele>926.1</ele>
        <time>2014-05-29T10:58:52Z</time>
      </trkpt>
      <trkpt lat="45.40305" lon="2.6643">
        <ele>927.5</ele>
        <time>2014-05-29T11:00:51Z</time>
      </trkpt>
      <trkpt lat="45.40304" lon="2.66428">
        <ele>927.2</ele>
        <time>2014-05-29T11:00:52Z</time>
      </trkpt>
      <trkpt lat="45.40305" lon="2.66411">
        <ele>927.4</ele>
        <time>2014-05-29T11:00:57Z</time>
      </trkpt>
      <trkpt lat="45.40309" lon="2.66403">
        <ele>927.6</ele>
        <time>2014-05-29T11:00:59Z</time>
      </trkpt>
      <trkpt lat="45.40316" lon="2.66399">
        <ele>927.7</ele>
        <time>2014-05-29T11:01:01Z</time>
      </trkpt>
      <trkpt lat="45.40323" lon="2.66403">
        <ele>926.6</ele>
        <time>2014-05-29T11:01:03Z</time>
      </trkpt>
      <trkpt lat="45.40328" lon="2.6641">
        <ele>926</ele>
        <time>2014-05-29T11:01:05Z</time>
      </trkpt>
      <trkpt lat="45.40337" lon="2.66409">
        <ele>925.5</ele>
        <time>2014-05-29T11:01:10Z</time>
      </trkpt>
      <trkpt lat="45.40339" lon="2.66398">
        <ele>924.8</ele>
        <time>2014-05-29T11:01:13Z</time>
      </trkpt>
      <trkpt lat="45.40341" lon="2.66386">
        <ele>923.5</ele>
        <time>2014-05-29T11:01:15Z</time>
      </trkpt>
      <trkpt lat="45.40342" lon="2.66379">
        <ele>922.9</ele>
        <time>2014-05-29T11:01:16Z</time>
      </trkpt>
      <trkpt lat="45.40341" lon="2.66367">
        <ele>922</ele>
        <time>2014-05-29T11:01:18Z</time>
      </trkpt>
      <trkpt lat="45.40338" lon="2.66363">
        <ele>920.7</ele>
        <time>2014-05-29T11:01:19Z</time>
      </trkpt>
      <trkpt lat="45.40334" lon="2.66361">
        <ele>919.7</ele>
        <time>2014-05-29T11:01:20Z</time>
      </trkpt>
      <trkpt lat="45.40328" lon="2.66359">
        <ele>918.7</ele>
        <time>2014-05-29T11:01:21Z</time>
      </trkpt>
      <trkpt lat="45.40323" lon="2.66358">
        <ele>917.9</ele>
        <time>2014-05-29T11:01:22Z</time>
      </trkpt>
      <trkpt lat="45.40315" lon="2.66353">
        <ele>914.4</ele>
        <time>2014-05-29T11:01:24Z</time>
      </trkpt>
      <trkpt lat="45.4031" lon="2.66344">
        <ele>911.2</ele>
        <time>2014-05-29T11:01:27Z</time>
      </trkpt>
      <trkpt lat="45.40307" lon="2.66333">
        <ele>906.3</ele>
        <time>2014-05-29T11:01:32Z</time>
      </trkpt>
      <trkpt lat="45.4031" lon="2.66326">
        <ele>904.9</ele>
        <time>2014-05-29T11:01:34Z</time>
      </trkpt>
      <trkpt lat="45.40313" lon="2.66317">
        <ele>903.3</ele>
        <time>2014-05-29T11:01:36Z</time>
      </trkpt>
      <trkpt lat="45.40316" lon="2.66308">
        <ele>902.6</ele>
        <time>2014-05-29T11:01:38Z</time>
      </trkpt>
      <trkpt lat="45.40319" lon="2.66298">
        <ele>902</ele>
        <time>2014-05-29T11:01:41Z</time>
      </trkpt>
      <trkpt lat="45.4032" lon="2.66289">
        <ele>901.8</ele>
        <time>2014-05-29T11:01:44Z</time>
      </trkpt>
      <trkpt lat="45.40325" lon="2.66282">
        <ele>901.3</ele>
        <time>2014-05-29T11:01:46Z</time>
      </trkpt>
      <trkpt lat="45.40329" lon="2.6628">
        <ele>900.9</ele>
        <time>2014-05-29T11:01:47Z</time>
      </trkpt>
      <trkpt lat="45.40334" lon="2.66277">
        <ele>900.6</ele>
        <time>2014-05-29T11:01:48Z</time>
      </trkpt>
      <trkpt lat="45.40342" lon="2.66274">
        <ele>899.9</ele>
        <time>2014-05-29T11:01:50Z</time>
      </trkpt>
      <trkpt lat="45.40349" lon="2.66276">
        <ele>899.2</ele>
        <time>2014-05-29T11:01:52Z</time>
      </trkpt>
      <trkpt lat="45.40351" lon="2.66279">
        <ele>898.9</ele>
        <time>2014-05-29T11:01:53Z</time>
      </trkpt>
      <trkpt lat="45.40362" lon="2.66285">
        <ele>897.3</ele>
        <time>2014-05-29T11:01:56Z</time>
      </trkpt>
      <trkpt lat="45.40366" lon="2.66283">
        <ele>896.8</ele>
        <time>2014-05-29T11:01:57Z</time>
      </trkpt>
      <trkpt lat="45.40373" lon="2.66283">
        <ele>896.5</ele>
        <time>2014-05-29T11:01:58Z</time>
      </trkpt>
      <trkpt lat="45.4038" lon="2.66283">
        <ele>895.8</ele>
        <time>2014-05-29T11:01:59Z</time>
      </trkpt>
      <trkpt lat="45.40385" lon="2.66283">
        <ele>895.3</ele>
        <time>2014-05-29T11:02:00Z</time>
      </trkpt>
      <trkpt lat="45.4039" lon="2.66275">
        <ele>894.8</ele>
        <time>2014-05-29T11:02:02Z</time>
      </trkpt>
      <trkpt lat="45.40393" lon="2.66263">
        <ele>893.3</ele>
        <time>2014-05-29T11:02:05Z</time>
      </trkpt>
      <trkpt lat="45.40395" lon="2.66254">
        <ele>893.6</ele>
        <time>2014-05-29T11:02:07Z</time>
      </trkpt>
      <trkpt lat="45.40397" lon="2.66245">
        <ele>893.2</ele>
        <time>2014-05-29T11:02:09Z</time>
      </trkpt>
      <trkpt lat="45.40399" lon="2.66234">
        <ele>892.8</ele>
        <time>2014-05-29T11:02:12Z</time>
      </trkpt>
      <trkpt lat="45.40402" lon="2.66225">
        <ele>892.5</ele>
        <time>2014-05-29T11:02:14Z</time>
      </trkpt>
      <trkpt lat="45.40405" lon="2.66215">
        <ele>892.6</ele>
        <time>2014-05-29T11:02:16Z</time>
      </trkpt>
      <trkpt lat="45.4041" lon="2.66205">
        <ele>892.6</ele>
        <time>2014-05-29T11:02:18Z</time>
      </trkpt>
      <trkpt lat="45.40416" lon="2.66196">
        <ele>892.7</ele>
        <time>2014-05-29T11:02:20Z</time>
      </trkpt>
      <trkpt lat="45.40421" lon="2.66188">
        <ele>892.8</ele>
        <time>2014-05-29T11:02:22Z</time>
      </trkpt>
      <trkpt lat="45.40425" lon="2.66178">
        <ele>892.9</ele>
        <time>2014-05-29T11:02:24Z</time>
      </trkpt>
      <trkpt lat="45.40425" lon="2.66166">
        <ele>892.4</ele>
        <time>2014-05-29T11:02:26Z</time>
      </trkpt>
      <trkpt lat="45.40424" lon="2.66155">
        <ele>892.4</ele>
        <time>2014-05-29T11:02:28Z</time>
      </trkpt>
      <trkpt lat="45.40422" lon="2.66146">
        <ele>892.3</ele>
        <time>2014-05-29T11:02:30Z</time>
      </trkpt>
      <trkpt lat="45.40419" lon="2.66135">
        <ele>892.1</ele>
        <time>2014-05-29T11:02:32Z</time>
      </trkpt>
      <trkpt lat="45.40417" lon="2.66124">
        <ele>892</ele>
        <time>2014-05-29T11:02:34Z</time>
      </trkpt>
      <trkpt lat="45.40416" lon="2.66114">
        <ele>891.9</ele>
        <time>2014-05-29T11:02:36Z</time>
      </trkpt>
      <trkpt lat="45.40414" lon="2.66104">
        <ele>892.4</ele>
        <time>2014-05-29T11:02:38Z</time>
      </trkpt>
      <trkpt lat="45.40412" lon="2.66093">
        <ele>892.3</ele>
        <time>2014-05-29T11:02:40Z</time>
      </trkpt>
      <trkpt lat="45.4041" lon="2.66085">
        <ele>892.4</ele>
        <time>2014-05-29T11:02:42Z</time>
      </trkpt>
      <trkpt lat="45.4041" lon="2.66077">
        <ele>892.2</ele>
        <time>2014-05-29T11:02:44Z</time>
      </trkpt>
      <trkpt lat="45.40411" lon="2.66068">
        <ele>892.1</ele>
        <time>2014-05-29T11:02:46Z</time>
      </trkpt>
      <trkpt lat="45.40411" lon="2.66059">
        <ele>892.2</ele>
        <time>2014-05-29T11:02:48Z</time>
      </trkpt>
      <trkpt lat="45.40411" lon="2.66047">
        <ele>892.4</ele>
        <time>2014-05-29T11:02:51Z</time>
      </trkpt>
      <trkpt lat="45.40411" lon="2.66036">
        <ele>893</ele>
        <time>2014-05-29T11:02:54Z</time>
      </trkpt>
      <trkpt lat="45.40411" lon="2.66032">
        <ele>893.1</ele>
        <time>2014-05-29T11:02:55Z</time>
      </trkpt>
      <trkpt lat="45.40413" lon="2.66012">
        <ele>893.3</ele>
        <time>2014-05-29T11:03:00Z</time>
      </trkpt>
      <trkpt lat="45.40414" lon="2.66002">
        <ele>893.6</ele>
        <time>2014-05-29T11:03:02Z</time>
      </trkpt>
      <trkpt lat="45.40414" lon="2.6599">
        <ele>894.2</ele>
        <time>2014-05-29T11:03:04Z</time>
      </trkpt>
      <trkpt lat="45.40415" lon="2.65982">
        <ele>894.1</ele>
        <time>2014-05-29T11:03:05Z</time>
      </trkpt>
      <trkpt lat="45.40415" lon="2.65974">
        <ele>894</ele>
        <time>2014-05-29T11:03:06Z</time>
      </trkpt>
      <trkpt lat="45.40415" lon="2.65965">
        <ele>893.9</ele>
        <time>2014-05-29T11:03:07Z</time>
      </trkpt>
      <trkpt lat="45.40415" lon="2.65954">
        <ele>893.4</ele>
        <time>2014-05-29T11:03:08Z</time>
      </trkpt>
      <trkpt lat="45.40416" lon="2.65943">
        <ele>893.1</ele>
        <time>2014-05-29T11:03:09Z</time>
      </trkpt>
      <trkpt lat="45.40417" lon="2.65931">
        <ele>892.5</ele>
        <time>2014-05-29T11:03:10Z</time>
      </trkpt>
      <trkpt lat="45.40417" lon="2.65918">
        <ele>892.1</ele>
        <time>2014-05-29T11:03:11Z</time>
      </trkpt>
      <trkpt lat="45.40417" lon="2.65905">
        <ele>891.7</ele>
        <time>2014-05-29T11:03:12Z</time>
      </trkpt>
      <trkpt lat="45.40417" lon="2.65892">
        <ele>891.4</ele>
        <time>2014-05-29T11:03:13Z</time>
      </trkpt>
      <trkpt lat="45.40418" lon="2.6588">
        <ele>891.1</ele>
        <time>2014-05-29T11:03:14Z</time>
      </trkpt>
      <trkpt lat="45.4042" lon="2.65867">
        <ele>890.4</ele>
        <time>2014-05-29T11:03:15Z</time>
      </trkpt>
      <trkpt lat="45.40424" lon="2.65856">
        <ele>889.9</ele>
        <time>2014-05-29T11:03:16Z</time>
      </trkpt>
      <trkpt lat="45.40429" lon="2.65847">
        <ele>888.6</ele>
        <time>2014-05-29T11:03:17Z</time>
      </trkpt>
      <trkpt lat="45.40434" lon="2.65838">
        <ele>887.6</ele>
        <time>2014-05-29T11:03:18Z</time>
      </trkpt>
      <trkpt lat="45.4044" lon="2.6583">
        <ele>886.9</ele>
        <time>2014-05-29T11:03:19Z</time>
      </trkpt>
      <trkpt lat="45.40445" lon="2.65821">
        <ele>886.5</ele>
        <time>2014-05-29T11:03:20Z</time>
      </trkpt>
      <trkpt lat="45.4045" lon="2.65813">
        <ele>886.3</ele>
        <time>2014-05-29T11:03:21Z</time>
      </trkpt>
      <trkpt lat="45.40454" lon="2.65804">
        <ele>885.8</ele>
        <time>2014-05-29T11:03:22Z</time>
      </trkpt>
      <trkpt lat="45.40458" lon="2.65795">
        <ele>885.5</ele>
        <time>2014-05-29T11:03:23Z</time>
      </trkpt>
      <trkpt lat="45.40461" lon="2.65785">
        <ele>885.2</ele>
        <time>2014-05-29T11:03:24Z</time>
      </trkpt>
      <trkpt lat="45.40465" lon="2.65775">
        <ele>884.9</ele>
        <time>2014-05-29T11:03:25Z</time>
      </trkpt>
      <trkpt lat="45.40468" lon="2.65765">
        <ele>884.7</ele>
        <time>2014-05-29T11:03:26Z</time>
      </trkpt>
      <trkpt lat="45.4047" lon="2.65755">
        <ele>884.9</ele>
        <time>2014-05-29T11:03:27Z</time>
      </trkpt>
      <trkpt lat="45.40473" lon="2.65746">
        <ele>885.1</ele>
        <time>2014-05-29T11:03:28Z</time>
      </trkpt>
      <trkpt lat="45.40475" lon="2.65737">
        <ele>884.8</ele>
        <time>2014-05-29T11:03:29Z</time>
      </trkpt>
      <trkpt lat="45.40477" lon="2.65728">
        <ele>884.6</ele>
        <time>2014-05-29T11:03:30Z</time>
      </trkpt>
      <trkpt lat="45.40479" lon="2.65719">
        <ele>884.7</ele>
        <time>2014-05-29T11:03:31Z</time>
      </trkpt>
      <trkpt lat="45.40481" lon="2.65711">
        <ele>884.8</ele>
        <time>2014-05-29T11:03:32Z</time>
      </trkpt>
      <trkpt lat="45.40483" lon="2.65703">
        <ele>884.8</ele>
        <time>2014-05-29T11:03:33Z</time>
      </trkpt>
      <trkpt lat="45.40485" lon="2.65697">
        <ele>884.7</ele>
        <time>2014-05-29T11:03:34Z</time>
      </trkpt>
      <trkpt lat="45.40486" lon="2.65689">
        <ele>884.6</ele>
        <time>2014-05-29T11:03:35Z</time>
      </trkpt>
      <trkpt lat="45.40486" lon="2.65681">
        <ele>884.5</ele>
        <time>2014-05-29T11:03:36Z</time>
      </trkpt>
      <trkpt lat="45.40486" lon="2.65673">
        <ele>884.5</ele>
        <time>2014-05-29T11:03:37Z</time>
      </trkpt>
      <trkpt lat="45.40485" lon="2.65664">
        <ele>884.1</ele>
        <time>2014-05-29T11:03:38Z</time>
      </trkpt>
      <trkpt lat="45.40484" lon="2.65655">
        <ele>883.8</ele>
        <time>2014-05-29T11:03:39Z</time>
      </trkpt>
      <trkpt lat="45.40482" lon="2.65645">
        <ele>883.6</ele>
        <time>2014-05-29T11:03:40Z</time>
      </trkpt>
      <trkpt lat="45.4048" lon="2.65636">
        <ele>884</ele>
        <time>2014-05-29T11:03:41Z</time>
      </trkpt>
      <trkpt lat="45.40479" lon="2.65628">
        <ele>884.3</ele>
        <time>2014-05-29T11:03:42Z</time>
      </trkpt>
      <trkpt lat="45.40478" lon="2.65621">
        <ele>883.9</ele>
        <time>2014-05-29T11:03:43Z</time>
      </trkpt>
      <trkpt lat="45.40477" lon="2.65614">
        <ele>883.6</ele>
        <time>2014-05-29T11:03:44Z</time>
      </trkpt>
      <trkpt lat="45.40476" lon="2.65607">
        <ele>883.4</ele>
        <time>2014-05-29T11:03:45Z</time>
      </trkpt>
      <trkpt lat="45.40475" lon="2.65598">
        <ele>883.1</ele>
        <time>2014-05-29T11:03:46Z</time>
      </trkpt>
      <trkpt lat="45.40473" lon="2.65589">
        <ele>882.9</ele>
        <time>2014-05-29T11:03:47Z</time>
      </trkpt>
      <trkpt lat="45.40473" lon="2.65579">
        <ele>882.5</ele>
        <time>2014-05-29T11:03:48Z</time>
      </trkpt>
      <trkpt lat="45.40471" lon="2.6557">
        <ele>882.3</ele>
        <time>2014-05-29T11:03:49Z</time>
      </trkpt>
      <trkpt lat="45.40469" lon="2.65561">
        <ele>882.5</ele>
        <time>2014-05-29T11:03:50Z</time>
      </trkpt>
      <trkpt lat="45.40468" lon="2.65552">
        <ele>882.6</ele>
        <time>2014-05-29T11:03:51Z</time>
      </trkpt>
      <trkpt lat="45.40466" lon="2.65543">
        <ele>882.7</ele>
        <time>2014-05-29T11:03:52Z</time>
      </trkpt>
      <trkpt lat="45.40466" lon="2.65536">
        <ele>882.4</ele>
        <time>2014-05-29T11:03:53Z</time>
      </trkpt>
      <trkpt lat="45.40464" lon="2.65525">
        <ele>882.4</ele>
        <time>2014-05-29T11:03:55Z</time>
      </trkpt>
      <trkpt lat="45.40462" lon="2.6552">
        <ele>882.6</ele>
        <time>2014-05-29T11:03:56Z</time>
      </trkpt>
      <trkpt lat="45.40459" lon="2.65503">
        <ele>884.2</ele>
        <time>2014-05-29T11:04:01Z</time>
      </trkpt>
      <trkpt lat="45.40461" lon="2.65491">
        <ele>883.1</ele>
        <time>2014-05-29T11:04:05Z</time>
      </trkpt>
      <trkpt lat="45.4046" lon="2.6548">
        <ele>883.1</ele>
        <time>2014-05-29T11:04:09Z</time>
      </trkpt>
      <trkpt lat="45.40461" lon="2.65467">
        <ele>883.5</ele>
        <time>2014-05-29T11:04:13Z</time>
      </trkpt>
      <trkpt lat="45.40463" lon="2.65456">
        <ele>883.4</ele>
        <time>2014-05-29T11:04:16Z</time>
      </trkpt>
      <trkpt lat="45.40463" lon="2.65445">
        <ele>882.5</ele>
        <time>2014-05-29T11:04:19Z</time>
      </trkpt>
      <trkpt lat="45.40461" lon="2.65434">
        <ele>880.7</ele>
        <time>2014-05-29T11:04:22Z</time>
      </trkpt>
      <trkpt lat="45.40462" lon="2.65423">
        <ele>878.7</ele>
        <time>2014-05-29T11:04:25Z</time>
      </trkpt>
      <trkpt lat="45.40465" lon="2.65412">
        <ele>876.4</ele>
        <time>2014-05-29T11:04:28Z</time>
      </trkpt>
      <trkpt lat="45.40471" lon="2.65405">
        <ele>875.1</ele>
        <time>2014-05-29T11:04:31Z</time>
      </trkpt>
      <trkpt lat="45.40477" lon="2.65398">
        <ele>874.5</ele>
        <time>2014-05-29T11:04:34Z</time>
      </trkpt>
      <trkpt lat="45.40483" lon="2.65394">
        <ele>872.3</ele>
        <time>2014-05-29T11:04:37Z</time>
      </trkpt>
      <trkpt lat="45.40486" lon="2.65383">
        <ele>869.8</ele>
        <time>2014-05-29T11:04:42Z</time>
      </trkpt>
      <trkpt lat="45.40488" lon="2.65371">
        <ele>866.9</ele>
        <time>2014-05-29T11:04:52Z</time>
      </trkpt>
      <trkpt lat="45.4049" lon="2.65358">
        <ele>865.2</ele>
        <time>2014-05-29T11:05:04Z</time>
      </trkpt>
      <trkpt lat="45.40491" lon="2.65357">
        <ele>865</ele>
        <time>2014-05-29T11:05:05Z</time>
      </trkpt>
      <trkpt lat="45.40501" lon="2.6534">
        <ele>863.9</ele>
        <time>2014-05-29T11:05:12Z</time>
      </trkpt>
      <trkpt lat="45.40504" lon="2.65329">
        <ele>863.6</ele>
        <time>2014-05-29T11:05:17Z</time>
      </trkpt>
      <trkpt lat="45.4051" lon="2.65323">
        <ele>863.6</ele>
        <time>2014-05-29T11:05:21Z</time>
      </trkpt>
      <trkpt lat="45.40516" lon="2.65315">
        <ele>862</ele>
        <time>2014-05-29T11:05:24Z</time>
      </trkpt>
      <trkpt lat="45.4052" lon="2.65304">
        <ele>861.6</ele>
        <time>2014-05-29T11:05:27Z</time>
      </trkpt>
      <trkpt lat="45.40524" lon="2.65293">
        <ele>861.2</ele>
        <time>2014-05-29T11:05:30Z</time>
      </trkpt>
      <trkpt lat="45.40527" lon="2.65283">
        <ele>861.1</ele>
        <time>2014-05-29T11:05:33Z</time>
      </trkpt>
      <trkpt lat="45.40529" lon="2.65273">
        <ele>860.3</ele>
        <time>2014-05-29T11:05:35Z</time>
      </trkpt>
      <trkpt lat="45.4053" lon="2.65261">
        <ele>859.8</ele>
        <time>2014-05-29T11:05:38Z</time>
      </trkpt>
      <trkpt lat="45.40534" lon="2.65253">
        <ele>860.2</ele>
        <time>2014-05-29T11:05:40Z</time>
      </trkpt>
      <trkpt lat="45.40536" lon="2.65248">
        <ele>860.4</ele>
        <time>2014-05-29T11:05:41Z</time>
      </trkpt>
      <trkpt lat="45.40539" lon="2.65242">
        <ele>859.7</ele>
        <time>2014-05-29T11:05:42Z</time>
      </trkpt>
      <trkpt lat="45.40541" lon="2.65235">
        <ele>859.2</ele>
        <time>2014-05-29T11:05:43Z</time>
      </trkpt>
      <trkpt lat="45.40543" lon="2.65228">
        <ele>858.9</ele>
        <time>2014-05-29T11:05:44Z</time>
      </trkpt>
      <trkpt lat="45.40544" lon="2.65222">
        <ele>858.6</ele>
        <time>2014-05-29T11:05:45Z</time>
      </trkpt>
      <trkpt lat="45.40548" lon="2.65211">
        <ele>857.9</ele>
        <time>2014-05-29T11:05:47Z</time>
      </trkpt>
      <trkpt lat="45.40551" lon="2.65201">
        <ele>857.8</ele>
        <time>2014-05-29T11:05:49Z</time>
      </trkpt>
      <trkpt lat="45.40553" lon="2.65191">
        <ele>858.5</ele>
        <time>2014-05-29T11:05:51Z</time>
      </trkpt>
      <trkpt lat="45.40555" lon="2.65179">
        <ele>859.1</ele>
        <time>2014-05-29T11:05:53Z</time>
      </trkpt>
      <trkpt lat="45.40557" lon="2.65169">
        <ele>858.9</ele>
        <time>2014-05-29T11:05:55Z</time>
      </trkpt>
      <trkpt lat="45.40559" lon="2.65159">
        <ele>858.7</ele>
        <time>2014-05-29T11:05:57Z</time>
      </trkpt>
      <trkpt lat="45.40559" lon="2.65148">
        <ele>858.2</ele>
        <time>2014-05-29T11:05:59Z</time>
      </trkpt>
      <trkpt lat="45.40559" lon="2.65138">
        <ele>858.1</ele>
        <time>2014-05-29T11:06:01Z</time>
      </trkpt>
      <trkpt lat="45.40562" lon="2.65128">
        <ele>858.4</ele>
        <time>2014-05-29T11:06:03Z</time>
      </trkpt>
      <trkpt lat="45.40565" lon="2.65118">
        <ele>858.7</ele>
        <time>2014-05-29T11:06:05Z</time>
      </trkpt>
      <trkpt lat="45.40567" lon="2.65114">
        <ele>858.8</ele>
        <time>2014-05-29T11:06:06Z</time>
      </trkpt>
      <trkpt lat="45.40573" lon="2.65099">
        <ele>859.1</ele>
        <time>2014-05-29T11:06:09Z</time>
      </trkpt>
      <trkpt lat="45.40576" lon="2.65094">
        <ele>858.8</ele>
        <time>2014-05-29T11:06:10Z</time>
      </trkpt>
      <trkpt lat="45.40579" lon="2.65088">
        <ele>858.6</ele>
        <time>2014-05-29T11:06:11Z</time>
      </trkpt>
      <trkpt lat="45.40582" lon="2.65077">
        <ele>858.3</ele>
        <time>2014-05-29T11:06:13Z</time>
      </trkpt>
      <trkpt lat="45.4058" lon="2.65068">
        <ele>858</ele>
        <time>2014-05-29T11:06:15Z</time>
      </trkpt>
      <trkpt lat="45.40578" lon="2.6506">
        <ele>857.7</ele>
        <time>2014-05-29T11:06:17Z</time>
      </trkpt>
      <trkpt lat="45.40573" lon="2.6505">
        <ele>857.4</ele>
        <time>2014-05-29T11:06:20Z</time>
      </trkpt>
      <trkpt lat="45.40565" lon="2.65051">
        <ele>856.6</ele>
        <time>2014-05-29T11:06:26Z</time>
      </trkpt>
      <trkpt lat="45.40557" lon="2.65052">
        <ele>857.4</ele>
        <time>2014-05-29T11:06:31Z</time>
      </trkpt>
      <trkpt lat="45.40549" lon="2.65053">
        <ele>858.3</ele>
        <time>2014-05-29T11:06:36Z</time>
      </trkpt>
      <trkpt lat="45.40541" lon="2.65055">
        <ele>859.9</ele>
        <time>2014-05-29T11:06:41Z</time>
      </trkpt>
      <trkpt lat="45.40533" lon="2.65057">
        <ele>861</ele>
        <time>2014-05-29T11:06:46Z</time>
      </trkpt>
      <trkpt lat="45.40525" lon="2.65056">
        <ele>861.9</ele>
        <time>2014-05-29T11:06:51Z</time>
      </trkpt>
      <trkpt lat="45.40516" lon="2.65054">
        <ele>862.6</ele>
        <time>2014-05-29T11:06:58Z</time>
      </trkpt>
      <trkpt lat="45.40508" lon="2.65055">
        <ele>864.2</ele>
        <time>2014-05-29T11:07:06Z</time>
      </trkpt>
      <trkpt lat="45.40507" lon="2.65055">
        <ele>864.2</ele>
        <time>2014-05-29T11:07:07Z</time>
      </trkpt>
      <trkpt lat="45.40492" lon="2.6505">
        <ele>865.9</ele>
        <time>2014-05-29T11:07:18Z</time>
      </trkpt>
      <trkpt lat="45.40484" lon="2.65048">
        <ele>866.7</ele>
        <time>2014-05-29T11:07:23Z</time>
      </trkpt>
      <trkpt lat="45.40476" lon="2.65045">
        <ele>868.5</ele>
        <time>2014-05-29T11:07:28Z</time>
      </trkpt>
      <trkpt lat="45.40469" lon="2.65044">
        <ele>868.4</ele>
        <time>2014-05-29T11:07:32Z</time>
      </trkpt>
      <trkpt lat="45.40461" lon="2.65042">
        <ele>869.7</ele>
        <time>2014-05-29T11:07:36Z</time>
      </trkpt>
      <trkpt lat="45.40454" lon="2.65039">
        <ele>869.6</ele>
        <time>2014-05-29T11:07:40Z</time>
      </trkpt>
      <trkpt lat="45.40445" lon="2.65035">
        <ele>871.2</ele>
        <time>2014-05-29T11:07:45Z</time>
      </trkpt>
      <trkpt lat="45.40437" lon="2.65032">
        <ele>871.4</ele>
        <time>2014-05-29T11:07:50Z</time>
      </trkpt>
      <trkpt lat="45.40429" lon="2.65029">
        <ele>872.3</ele>
        <time>2014-05-29T11:07:55Z</time>
      </trkpt>
      <trkpt lat="45.40422" lon="2.65026">
        <ele>873.3</ele>
        <time>2014-05-29T11:07:59Z</time>
      </trkpt>
      <trkpt lat="45.40414" lon="2.65023">
        <ele>873.6</ele>
        <time>2014-05-29T11:08:03Z</time>
      </trkpt>
      <trkpt lat="45.40406" lon="2.65019">
        <ele>873.3</ele>
        <time>2014-05-29T11:08:06Z</time>
      </trkpt>
      <trkpt lat="45.404" lon="2.65019">
        <ele>873.6</ele>
        <time>2014-05-29T11:08:08Z</time>
      </trkpt>
      <trkpt lat="45.40397" lon="2.65018">
        <ele>873.6</ele>
        <time>2014-05-29T11:08:09Z</time>
      </trkpt>
      <trkpt lat="45.40387" lon="2.65018">
        <ele>873.3</ele>
        <time>2014-05-29T11:08:12Z</time>
      </trkpt>
      <trkpt lat="45.40379" lon="2.65018">
        <ele>873.1</ele>
        <time>2014-05-29T11:08:14Z</time>
      </trkpt>
      <trkpt lat="45.4037" lon="2.65017">
        <ele>872.8</ele>
        <time>2014-05-29T11:08:16Z</time>
      </trkpt>
      <trkpt lat="45.40362" lon="2.65017">
        <ele>872.5</ele>
        <time>2014-05-29T11:08:18Z</time>
      </trkpt>
      <trkpt lat="45.40354" lon="2.65016">
        <ele>872.4</ele>
        <time>2014-05-29T11:08:20Z</time>
      </trkpt>
      <trkpt lat="45.40347" lon="2.65015">
        <ele>872.9</ele>
        <time>2014-05-29T11:08:22Z</time>
      </trkpt>
      <trkpt lat="45.40339" lon="2.65015">
        <ele>872.5</ele>
        <time>2014-05-29T11:08:24Z</time>
      </trkpt>
      <trkpt lat="45.40332" lon="2.65015">
        <ele>872.7</ele>
        <time>2014-05-29T11:08:26Z</time>
      </trkpt>
      <trkpt lat="45.40326" lon="2.65017">
        <ele>872.6</ele>
        <time>2014-05-29T11:08:28Z</time>
      </trkpt>
      <trkpt lat="45.40319" lon="2.65018">
        <ele>872.4</ele>
        <time>2014-05-29T11:08:30Z</time>
      </trkpt>
      <trkpt lat="45.40314" lon="2.65021">
        <ele>872.4</ele>
        <time>2014-05-29T11:08:32Z</time>
      </trkpt>
      <trkpt lat="45.40305" lon="2.65026">
        <ele>872.5</ele>
        <time>2014-05-29T11:08:35Z</time>
      </trkpt>
      <trkpt lat="45.403" lon="2.65033">
        <ele>872.9</ele>
        <time>2014-05-29T11:08:38Z</time>
      </trkpt>
      <trkpt lat="45.40294" lon="2.6504">
        <ele>872.7</ele>
        <time>2014-05-29T11:08:41Z</time>
      </trkpt>
      <trkpt lat="45.40286" lon="2.65046">
        <ele>872.6</ele>
        <time>2014-05-29T11:08:44Z</time>
      </trkpt>
      <trkpt lat="45.4028" lon="2.65049">
        <ele>873.2</ele>
        <time>2014-05-29T11:08:46Z</time>
      </trkpt>
      <trkpt lat="45.40274" lon="2.6505">
        <ele>873.1</ele>
        <time>2014-05-29T11:08:48Z</time>
      </trkpt>
      <trkpt lat="45.40265" lon="2.65052">
        <ele>872.8</ele>
        <time>2014-05-29T11:08:51Z</time>
      </trkpt>
      <trkpt lat="45.40257" lon="2.65055">
        <ele>872.9</ele>
        <time>2014-05-29T11:08:54Z</time>
      </trkpt>
      <trkpt lat="45.40249" lon="2.65056">
        <ele>873.1</ele>
        <time>2014-05-29T11:08:58Z</time>
      </trkpt>
      <trkpt lat="45.4024" lon="2.65058">
        <ele>873.3</ele>
        <time>2014-05-29T11:09:03Z</time>
      </trkpt>
      <trkpt lat="45.40232" lon="2.6506">
        <ele>874.7</ele>
        <time>2014-05-29T11:09:07Z</time>
      </trkpt>
      <trkpt lat="45.40224" lon="2.65061">
        <ele>874.7</ele>
        <time>2014-05-29T11:09:11Z</time>
      </trkpt>
      <trkpt lat="45.40222" lon="2.65062">
        <ele>874.7</ele>
        <time>2014-05-29T11:09:12Z</time>
      </trkpt>
      <trkpt lat="45.4021" lon="2.65067">
        <ele>875.5</ele>
        <time>2014-05-29T11:09:18Z</time>
      </trkpt>
      <trkpt lat="45.40202" lon="2.65068">
        <ele>876.1</ele>
        <time>2014-05-29T11:09:21Z</time>
      </trkpt>
      <trkpt lat="45.40195" lon="2.65064">
        <ele>875.5</ele>
        <time>2014-05-29T11:09:25Z</time>
      </trkpt>
      <trkpt lat="45.40192" lon="2.65052">
        <ele>875.2</ele>
        <time>2014-05-29T11:09:31Z</time>
      </trkpt>
      <trkpt lat="45.40195" lon="2.65042">
        <ele>875.4</ele>
        <time>2014-05-29T11:09:36Z</time>
      </trkpt>
      <trkpt lat="45.40199" lon="2.65033">
        <ele>875.2</ele>
        <time>2014-05-29T11:09:41Z</time>
      </trkpt>
      <trkpt lat="45.40201" lon="2.65022">
        <ele>874.8</ele>
        <time>2014-05-29T11:09:46Z</time>
      </trkpt>
      <trkpt lat="45.40201" lon="2.65012">
        <ele>874.8</ele>
        <time>2014-05-29T11:09:49Z</time>
      </trkpt>
      <trkpt lat="45.40202" lon="2.65003">
        <ele>874.8</ele>
        <time>2014-05-29T11:09:51Z</time>
      </trkpt>
      <trkpt lat="45.40202" lon="2.64993">
        <ele>874.7</ele>
        <time>2014-05-29T11:09:53Z</time>
      </trkpt>
      <trkpt lat="45.40201" lon="2.64982">
        <ele>874.8</ele>
        <time>2014-05-29T11:09:55Z</time>
      </trkpt>
      <trkpt lat="45.40201" lon="2.64975">
        <ele>874.2</ele>
        <time>2014-05-29T11:09:56Z</time>
      </trkpt>
      <trkpt lat="45.40201" lon="2.64967">
        <ele>873.9</ele>
        <time>2014-05-29T11:09:57Z</time>
      </trkpt>
      <trkpt lat="45.40199" lon="2.64961">
        <ele>873.5</ele>
        <time>2014-05-29T11:09:58Z</time>
      </trkpt>
      <trkpt lat="45.40196" lon="2.64954">
        <ele>873.3</ele>
        <time>2014-05-29T11:09:59Z</time>
      </trkpt>
      <trkpt lat="45.40192" lon="2.64945">
        <ele>873</ele>
        <time>2014-05-29T11:10:01Z</time>
      </trkpt>
      <trkpt lat="45.40188" lon="2.64935">
        <ele>872.9</ele>
        <time>2014-05-29T11:10:03Z</time>
      </trkpt>
      <trkpt lat="45.40182" lon="2.64928">
        <ele>873.1</ele>
        <time>2014-05-29T11:10:05Z</time>
      </trkpt>
      <trkpt lat="45.40177" lon="2.64922">
        <ele>873.6</ele>
        <time>2014-05-29T11:10:07Z</time>
      </trkpt>
      <trkpt lat="45.40169" lon="2.64916">
        <ele>874</ele>
        <time>2014-05-29T11:10:10Z</time>
      </trkpt>
      <trkpt lat="45.40162" lon="2.64911">
        <ele>874.5</ele>
        <time>2014-05-29T11:10:13Z</time>
      </trkpt>
      <trkpt lat="45.40159" lon="2.64909">
        <ele>874.6</ele>
        <time>2014-05-29T11:10:14Z</time>
      </trkpt>
      <trkpt lat="45.4015" lon="2.64905">
        <ele>875.2</ele>
        <time>2014-05-29T11:10:17Z</time>
      </trkpt>
      <trkpt lat="45.40141" lon="2.64902">
        <ele>875.6</ele>
        <time>2014-05-29T11:10:20Z</time>
      </trkpt>
      <trkpt lat="45.40133" lon="2.64901">
        <ele>876</ele>
        <time>2014-05-29T11:10:23Z</time>
      </trkpt>
      <trkpt lat="45.40124" lon="2.64902">
        <ele>876.6</ele>
        <time>2014-05-29T11:10:26Z</time>
      </trkpt>
      <trkpt lat="45.40118" lon="2.64903">
        <ele>877</ele>
        <time>2014-05-29T11:10:28Z</time>
      </trkpt>
      <trkpt lat="45.40109" lon="2.64908">
        <ele>877.2</ele>
        <time>2014-05-29T11:10:31Z</time>
      </trkpt>
      <trkpt lat="45.40103" lon="2.64915">
        <ele>877</ele>
        <time>2014-05-29T11:10:34Z</time>
      </trkpt>
      <trkpt lat="45.40097" lon="2.64921">
        <ele>876.9</ele>
        <time>2014-05-29T11:10:37Z</time>
      </trkpt>
      <trkpt lat="45.40093" lon="2.64929">
        <ele>877.5</ele>
        <time>2014-05-29T11:10:40Z</time>
      </trkpt>
      <trkpt lat="45.40089" lon="2.64938">
        <ele>877.8</ele>
        <time>2014-05-29T11:10:43Z</time>
      </trkpt>
      <trkpt lat="45.40084" lon="2.64948">
        <ele>878</ele>
        <time>2014-05-29T11:10:46Z</time>
      </trkpt>
      <trkpt lat="45.40081" lon="2.64956">
        <ele>878.2</ele>
        <time>2014-05-29T11:10:48Z</time>
      </trkpt>
      <trkpt lat="45.40078" lon="2.64965">
        <ele>878.5</ele>
        <time>2014-05-29T11:10:50Z</time>
      </trkpt>
      <trkpt lat="45.40075" lon="2.64973">
        <ele>878.9</ele>
        <time>2014-05-29T11:10:52Z</time>
      </trkpt>
      <trkpt lat="45.40071" lon="2.64981">
        <ele>878.5</ele>
        <time>2014-05-29T11:10:54Z</time>
      </trkpt>
      <trkpt lat="45.40066" lon="2.64988">
        <ele>879.1</ele>
        <time>2014-05-29T11:10:56Z</time>
      </trkpt>
      <trkpt lat="45.40061" lon="2.64992">
        <ele>879</ele>
        <time>2014-05-29T11:10:58Z</time>
      </trkpt>
      <trkpt lat="45.40053" lon="2.64993">
        <ele>878.7</ele>
        <time>2014-05-29T11:11:01Z</time>
      </trkpt>
      <trkpt lat="45.40045" lon="2.64989">
        <ele>879.1</ele>
        <time>2014-05-29T11:11:04Z</time>
      </trkpt>
      <trkpt lat="45.40037" lon="2.64984">
        <ele>879.8</ele>
        <time>2014-05-29T11:11:07Z</time>
      </trkpt>
      <trkpt lat="45.4003" lon="2.6498">
        <ele>880.7</ele>
        <time>2014-05-29T11:11:10Z</time>
      </trkpt>
      <trkpt lat="45.40024" lon="2.64975">
        <ele>881.1</ele>
        <time>2014-05-29T11:11:13Z</time>
      </trkpt>
      <trkpt lat="45.40019" lon="2.64968">
        <ele>882</ele>
        <time>2014-05-29T11:11:16Z</time>
      </trkpt>
      <trkpt lat="45.40017" lon="2.64966">
        <ele>882.2</ele>
        <time>2014-05-29T11:11:17Z</time>
      </trkpt>
      <trkpt lat="45.40008" lon="2.64949">
        <ele>884</ele>
        <time>2014-05-29T11:11:24Z</time>
      </trkpt>
      <trkpt lat="45.40002" lon="2.64941">
        <ele>885.4</ele>
        <time>2014-05-29T11:11:29Z</time>
      </trkpt>
      <trkpt lat="45.39994" lon="2.64937">
        <ele>886.7</ele>
        <time>2014-05-29T11:11:36Z</time>
      </trkpt>
      <trkpt lat="45.39986" lon="2.64936">
        <ele>887.5</ele>
        <time>2014-05-29T11:11:42Z</time>
      </trkpt>
      <trkpt lat="45.39979" lon="2.64937">
        <ele>889.4</ele>
        <time>2014-05-29T11:11:47Z</time>
      </trkpt>
      <trkpt lat="45.39971" lon="2.6494">
        <ele>891</ele>
        <time>2014-05-29T11:11:52Z</time>
      </trkpt>
      <trkpt lat="45.39963" lon="2.64945">
        <ele>892</ele>
        <time>2014-05-29T11:11:57Z</time>
      </trkpt>
      <trkpt lat="45.39956" lon="2.6495">
        <ele>892.7</ele>
        <time>2014-05-29T11:12:02Z</time>
      </trkpt>
      <trkpt lat="45.39952" lon="2.6496">
        <ele>893.8</ele>
        <time>2014-05-29T11:12:07Z</time>
      </trkpt>
      <trkpt lat="45.39952" lon="2.6497">
        <ele>893.3</ele>
        <time>2014-05-29T11:12:11Z</time>
      </trkpt>
      <trkpt lat="45.39951" lon="2.64983">
        <ele>893</ele>
        <time>2014-05-29T11:12:15Z</time>
      </trkpt>
      <trkpt lat="45.39947" lon="2.64991">
        <ele>893.3</ele>
        <time>2014-05-29T11:12:18Z</time>
      </trkpt>
      <trkpt lat="45.39945" lon="2.64994">
        <ele>893.3</ele>
        <time>2014-05-29T11:12:19Z</time>
      </trkpt>
      <trkpt lat="45.39935" lon="2.65004">
        <ele>893.9</ele>
        <time>2014-05-29T11:12:23Z</time>
      </trkpt>
      <trkpt lat="45.3993" lon="2.65008">
        <ele>894.2</ele>
        <time>2014-05-29T11:12:25Z</time>
      </trkpt>
      <trkpt lat="45.39924" lon="2.65012">
        <ele>894.8</ele>
        <time>2014-05-29T11:12:27Z</time>
      </trkpt>
      <trkpt lat="45.39917" lon="2.65015">
        <ele>894.4</ele>
        <time>2014-05-29T11:12:29Z</time>
      </trkpt>
      <trkpt lat="45.39909" lon="2.65018">
        <ele>894.2</ele>
        <time>2014-05-29T11:12:31Z</time>
      </trkpt>
      <trkpt lat="45.39901" lon="2.65019">
        <ele>894</ele>
        <time>2014-05-29T11:12:33Z</time>
      </trkpt>
      <trkpt lat="45.39892" lon="2.6502">
        <ele>894.2</ele>
        <time>2014-05-29T11:12:35Z</time>
      </trkpt>
      <trkpt lat="45.39887" lon="2.6502">
        <ele>894.4</ele>
        <time>2014-05-29T11:12:36Z</time>
      </trkpt>
      <trkpt lat="45.39883" lon="2.6502">
        <ele>894.4</ele>
        <time>2014-05-29T11:12:37Z</time>
      </trkpt>
      <trkpt lat="45.39878" lon="2.6502">
        <ele>894.5</ele>
        <time>2014-05-29T11:12:38Z</time>
      </trkpt>
      <trkpt lat="45.39873" lon="2.6502">
        <ele>894.5</ele>
        <time>2014-05-29T11:12:39Z</time>
      </trkpt>
      <trkpt lat="45.39868" lon="2.6502">
        <ele>894.7</ele>
        <time>2014-05-29T11:12:40Z</time>
      </trkpt>
      <trkpt lat="45.39863" lon="2.6502">
        <ele>894.8</ele>
        <time>2014-05-29T11:12:41Z</time>
      </trkpt>
      <trkpt lat="45.39858" lon="2.6502">
        <ele>894.4</ele>
        <time>2014-05-29T11:12:42Z</time>
      </trkpt>
      <trkpt lat="45.39853" lon="2.6502">
        <ele>894.2</ele>
        <time>2014-05-29T11:12:43Z</time>
      </trkpt>
      <trkpt lat="45.39848" lon="2.6502">
        <ele>894.1</ele>
        <time>2014-05-29T11:12:44Z</time>
      </trkpt>
      <trkpt lat="45.39842" lon="2.6502">
        <ele>894.1</ele>
        <time>2014-05-29T11:12:45Z</time>
      </trkpt>
      <trkpt lat="45.39837" lon="2.6502">
        <ele>894</ele>
        <time>2014-05-29T11:12:46Z</time>
      </trkpt>
      <trkpt lat="45.39832" lon="2.65021">
        <ele>894.2</ele>
        <time>2014-05-29T11:12:47Z</time>
      </trkpt>
      <trkpt lat="45.39826" lon="2.65021">
        <ele>894.2</ele>
        <time>2014-05-29T11:12:48Z</time>
      </trkpt>
      <trkpt lat="45.39821" lon="2.65022">
        <ele>894.1</ele>
        <time>2014-05-29T11:12:49Z</time>
      </trkpt>
      <trkpt lat="45.39815" lon="2.65022">
        <ele>894</ele>
        <time>2014-05-29T11:12:50Z</time>
      </trkpt>
      <trkpt lat="45.3981" lon="2.65022">
        <ele>894</ele>
        <time>2014-05-29T11:12:51Z</time>
      </trkpt>
      <trkpt lat="45.39804" lon="2.65022">
        <ele>894.1</ele>
        <time>2014-05-29T11:12:52Z</time>
      </trkpt>
      <trkpt lat="45.39798" lon="2.65022">
        <ele>894.1</ele>
        <time>2014-05-29T11:12:53Z</time>
      </trkpt>
      <trkpt lat="45.39793" lon="2.65022">
        <ele>894</ele>
        <time>2014-05-29T11:12:54Z</time>
      </trkpt>
      <trkpt lat="45.39787" lon="2.65023">
        <ele>893.9</ele>
        <time>2014-05-29T11:12:55Z</time>
      </trkpt>
      <trkpt lat="45.39781" lon="2.65023">
        <ele>893.9</ele>
        <time>2014-05-29T11:12:56Z</time>
      </trkpt>
      <trkpt lat="45.39775" lon="2.65023">
        <ele>894</ele>
        <time>2014-05-29T11:12:57Z</time>
      </trkpt>
      <trkpt lat="45.3977" lon="2.65023">
        <ele>894.2</ele>
        <time>2014-05-29T11:12:58Z</time>
      </trkpt>
      <trkpt lat="45.39764" lon="2.65024">
        <ele>894.3</ele>
        <time>2014-05-29T11:12:59Z</time>
      </trkpt>
      <trkpt lat="45.39758" lon="2.65024">
        <ele>894.4</ele>
        <time>2014-05-29T11:13:00Z</time>
      </trkpt>
      <trkpt lat="45.39752" lon="2.65024">
        <ele>894.2</ele>
        <time>2014-05-29T11:13:01Z</time>
      </trkpt>
      <trkpt lat="45.39747" lon="2.65024">
        <ele>894</ele>
        <time>2014-05-29T11:13:02Z</time>
      </trkpt>
      <trkpt lat="45.39741" lon="2.65025">
        <ele>894</ele>
        <time>2014-05-29T11:13:03Z</time>
      </trkpt>
      <trkpt lat="45.39736" lon="2.65025">
        <ele>894</ele>
        <time>2014-05-29T11:13:04Z</time>
      </trkpt>
      <trkpt lat="45.3973" lon="2.65025">
        <ele>894.1</ele>
        <time>2014-05-29T11:13:05Z</time>
      </trkpt>
      <trkpt lat="45.39725" lon="2.65026">
        <ele>894.1</ele>
        <time>2014-05-29T11:13:06Z</time>
      </trkpt>
      <trkpt lat="45.3972" lon="2.65026">
        <ele>894</ele>
        <time>2014-05-29T11:13:07Z</time>
      </trkpt>
      <trkpt lat="45.39714" lon="2.65026">
        <ele>894.3</ele>
        <time>2014-05-29T11:13:08Z</time>
      </trkpt>
      <trkpt lat="45.39709" lon="2.65026">
        <ele>894.4</ele>
        <time>2014-05-29T11:13:09Z</time>
      </trkpt>
      <trkpt lat="45.39703" lon="2.65026">
        <ele>894.4</ele>
        <time>2014-05-29T11:13:10Z</time>
      </trkpt>
      <trkpt lat="45.39698" lon="2.65027">
        <ele>894.4</ele>
        <time>2014-05-29T11:13:11Z</time>
      </trkpt>
      <trkpt lat="45.39693" lon="2.65027">
        <ele>894.4</ele>
        <time>2014-05-29T11:13:12Z</time>
      </trkpt>
      <trkpt lat="45.39688" lon="2.65027">
        <ele>894.4</ele>
        <time>2014-05-29T11:13:13Z</time>
      </trkpt>
      <trkpt lat="45.39682" lon="2.65027">
        <ele>894.4</ele>
        <time>2014-05-29T11:13:14Z</time>
      </trkpt>
      <trkpt lat="45.39677" lon="2.65027">
        <ele>894.2</ele>
        <time>2014-05-29T11:13:15Z</time>
      </trkpt>
      <trkpt lat="45.39672" lon="2.65027">
        <ele>894</ele>
        <time>2014-05-29T11:13:16Z</time>
      </trkpt>
      <trkpt lat="45.39667" lon="2.65028">
        <ele>894.3</ele>
        <time>2014-05-29T11:13:17Z</time>
      </trkpt>
      <trkpt lat="45.39662" lon="2.65028">
        <ele>894.6</ele>
        <time>2014-05-29T11:13:18Z</time>
      </trkpt>
      <trkpt lat="45.39657" lon="2.65028">
        <ele>894.8</ele>
        <time>2014-05-29T11:13:19Z</time>
      </trkpt>
      <trkpt lat="45.39652" lon="2.65029">
        <ele>894.9</ele>
        <time>2014-05-29T11:13:20Z</time>
      </trkpt>
      <trkpt lat="45.39647" lon="2.65029">
        <ele>895</ele>
        <time>2014-05-29T11:13:21Z</time>
      </trkpt>
      <trkpt lat="45.39642" lon="2.65029">
        <ele>895</ele>
        <time>2014-05-29T11:13:22Z</time>
      </trkpt>
      <trkpt lat="45.39637" lon="2.65029">
        <ele>894.9</ele>
        <time>2014-05-29T11:13:23Z</time>
      </trkpt>
      <trkpt lat="45.39632" lon="2.6503">
        <ele>894.9</ele>
        <time>2014-05-29T11:13:24Z</time>
      </trkpt>
      <trkpt lat="45.39627" lon="2.6503">
        <ele>894.8</ele>
        <time>2014-05-29T11:13:25Z</time>
      </trkpt>
      <trkpt lat="45.39622" lon="2.6503">
        <ele>894.6</ele>
        <time>2014-05-29T11:13:26Z</time>
      </trkpt>
      <trkpt lat="45.39617" lon="2.6503">
        <ele>894.1</ele>
        <time>2014-05-29T11:13:27Z</time>
      </trkpt>
      <trkpt lat="45.39612" lon="2.6503">
        <ele>893.7</ele>
        <time>2014-05-29T11:13:28Z</time>
      </trkpt>
      <trkpt lat="45.39607" lon="2.6503">
        <ele>893.8</ele>
        <time>2014-05-29T11:13:29Z</time>
      </trkpt>
      <trkpt lat="45.39602" lon="2.6503">
        <ele>893.9</ele>
        <time>2014-05-29T11:13:30Z</time>
      </trkpt>
      <trkpt lat="45.39597" lon="2.65031">
        <ele>893.9</ele>
        <time>2014-05-29T11:13:31Z</time>
      </trkpt>
      <trkpt lat="45.39592" lon="2.65031">
        <ele>894.7</ele>
        <time>2014-05-29T11:13:32Z</time>
      </trkpt>
      <trkpt lat="45.39587" lon="2.65031">
        <ele>895.3</ele>
        <time>2014-05-29T11:13:33Z</time>
      </trkpt>
      <trkpt lat="45.39583" lon="2.65031">
        <ele>894.9</ele>
        <time>2014-05-29T11:13:34Z</time>
      </trkpt>
      <trkpt lat="45.39578" lon="2.65031">
        <ele>894.6</ele>
        <time>2014-05-29T11:13:35Z</time>
      </trkpt>
      <trkpt lat="45.39573" lon="2.65032">
        <ele>894.6</ele>
        <time>2014-05-29T11:13:36Z</time>
      </trkpt>
      <trkpt lat="45.39568" lon="2.65032">
        <ele>894.5</ele>
        <time>2014-05-29T11:13:37Z</time>
      </trkpt>
      <trkpt lat="45.39564" lon="2.65032">
        <ele>894.5</ele>
        <time>2014-05-29T11:13:38Z</time>
      </trkpt>
      <trkpt lat="45.39559" lon="2.65033">
        <ele>894.4</ele>
        <time>2014-05-29T11:13:39Z</time>
      </trkpt>
      <trkpt lat="45.39554" lon="2.65033">
        <ele>894.3</ele>
        <time>2014-05-29T11:13:40Z</time>
      </trkpt>
      <trkpt lat="45.3955" lon="2.65033">
        <ele>894.2</ele>
        <time>2014-05-29T11:13:41Z</time>
      </trkpt>
      <trkpt lat="45.39545" lon="2.65034">
        <ele>894.2</ele>
        <time>2014-05-29T11:13:42Z</time>
      </trkpt>
      <trkpt lat="45.3954" lon="2.65034">
        <ele>894.1</ele>
        <time>2014-05-29T11:13:43Z</time>
      </trkpt>
      <trkpt lat="45.39535" lon="2.65034">
        <ele>894.2</ele>
        <time>2014-05-29T11:13:44Z</time>
      </trkpt>
      <trkpt lat="45.39531" lon="2.65035">
        <ele>894.2</ele>
        <time>2014-05-29T11:13:45Z</time>
      </trkpt>
      <trkpt lat="45.39526" lon="2.65035">
        <ele>894.1</ele>
        <time>2014-05-29T11:13:46Z</time>
      </trkpt>
      <trkpt lat="45.39521" lon="2.65035">
        <ele>894</ele>
        <time>2014-05-29T11:13:47Z</time>
      </trkpt>
      <trkpt lat="45.39517" lon="2.65035">
        <ele>894</ele>
        <time>2014-05-29T11:13:48Z</time>
      </trkpt>
      <trkpt lat="45.39512" lon="2.65035">
        <ele>894</ele>
        <time>2014-05-29T11:13:49Z</time>
      </trkpt>
      <trkpt lat="45.39507" lon="2.65035">
        <ele>894</ele>
        <time>2014-05-29T11:13:50Z</time>
      </trkpt>
      <trkpt lat="45.39502" lon="2.65035">
        <ele>893.9</ele>
        <time>2014-05-29T11:13:51Z</time>
      </trkpt>
      <trkpt lat="45.39498" lon="2.65035">
        <ele>893.8</ele>
        <time>2014-05-29T11:13:52Z</time>
      </trkpt>
      <trkpt lat="45.39493" lon="2.65036">
        <ele>893.5</ele>
        <time>2014-05-29T11:13:53Z</time>
      </trkpt>
      <trkpt lat="45.39488" lon="2.65036">
        <ele>893.3</ele>
        <time>2014-05-29T11:13:54Z</time>
      </trkpt>
      <trkpt lat="45.39484" lon="2.65036">
        <ele>893.7</ele>
        <time>2014-05-29T11:13:55Z</time>
      </trkpt>
      <trkpt lat="45.39479" lon="2.65036">
        <ele>894.1</ele>
        <time>2014-05-29T11:13:56Z</time>
      </trkpt>
      <trkpt lat="45.39474" lon="2.65036">
        <ele>894.4</ele>
        <time>2014-05-29T11:13:57Z</time>
      </trkpt>
      <trkpt lat="45.3947" lon="2.65036">
        <ele>894.1</ele>
        <time>2014-05-29T11:13:58Z</time>
      </trkpt>
      <trkpt lat="45.39461" lon="2.65035">
        <ele>894</ele>
        <time>2014-05-29T11:14:00Z</time>
      </trkpt>
      <trkpt lat="45.39453" lon="2.65036">
        <ele>894.3</ele>
        <time>2014-05-29T11:14:02Z</time>
      </trkpt>
      <trkpt lat="45.39445" lon="2.65041">
        <ele>893.9</ele>
        <time>2014-05-29T11:14:04Z</time>
      </trkpt>
      <trkpt lat="45.3944" lon="2.6505">
        <ele>893.8</ele>
        <time>2014-05-29T11:14:06Z</time>
      </trkpt>
      <trkpt lat="45.39437" lon="2.65062">
        <ele>893.7</ele>
        <time>2014-05-29T11:14:08Z</time>
      </trkpt>
      <trkpt lat="45.39434" lon="2.65074">
        <ele>893.7</ele>
        <time>2014-05-29T11:14:10Z</time>
      </trkpt>
      <trkpt lat="45.39429" lon="2.65084">
        <ele>894</ele>
        <time>2014-05-29T11:14:12Z</time>
      </trkpt>
      <trkpt lat="45.39427" lon="2.6509">
        <ele>894.3</ele>
        <time>2014-05-29T11:14:13Z</time>
      </trkpt>
      <trkpt lat="45.39424" lon="2.65095">
        <ele>894.1</ele>
        <time>2014-05-29T11:14:14Z</time>
      </trkpt>
      <trkpt lat="45.39422" lon="2.65101">
        <ele>893.9</ele>
        <time>2014-05-29T11:14:15Z</time>
      </trkpt>
      <trkpt lat="45.3942" lon="2.65106">
        <ele>893.7</ele>
        <time>2014-05-29T11:14:16Z</time>
      </trkpt>
      <trkpt lat="45.39417" lon="2.65112">
        <ele>893.6</ele>
        <time>2014-05-29T11:14:17Z</time>
      </trkpt>
      <trkpt lat="45.39412" lon="2.65122">
        <ele>893.8</ele>
        <time>2014-05-29T11:14:19Z</time>
      </trkpt>
      <trkpt lat="45.39407" lon="2.65131">
        <ele>894.1</ele>
        <time>2014-05-29T11:14:21Z</time>
      </trkpt>
      <trkpt lat="45.39404" lon="2.65136">
        <ele>894.2</ele>
        <time>2014-05-29T11:14:22Z</time>
      </trkpt>
      <trkpt lat="45.39401" lon="2.65141">
        <ele>894.3</ele>
        <time>2014-05-29T11:14:23Z</time>
      </trkpt>
      <trkpt lat="45.39397" lon="2.65146">
        <ele>894.1</ele>
        <time>2014-05-29T11:14:24Z</time>
      </trkpt>
      <trkpt lat="45.39395" lon="2.65151">
        <ele>893.9</ele>
        <time>2014-05-29T11:14:25Z</time>
      </trkpt>
      <trkpt lat="45.39389" lon="2.65161">
        <ele>894.7</ele>
        <time>2014-05-29T11:14:27Z</time>
      </trkpt>
      <trkpt lat="45.39383" lon="2.65169">
        <ele>894.9</ele>
        <time>2014-05-29T11:14:29Z</time>
      </trkpt>
      <trkpt lat="45.39377" lon="2.65177">
        <ele>894.9</ele>
        <time>2014-05-29T11:14:31Z</time>
      </trkpt>
      <trkpt lat="45.39372" lon="2.65186">
        <ele>895.2</ele>
        <time>2014-05-29T11:14:33Z</time>
      </trkpt>
      <trkpt lat="45.39365" lon="2.65194">
        <ele>895.3</ele>
        <time>2014-05-29T11:14:35Z</time>
      </trkpt>
      <trkpt lat="45.39358" lon="2.652">
        <ele>895.2</ele>
        <time>2014-05-29T11:14:37Z</time>
      </trkpt>
      <trkpt lat="45.3935" lon="2.65205">
        <ele>896.1</ele>
        <time>2014-05-29T11:14:39Z</time>
      </trkpt>
      <trkpt lat="45.39346" lon="2.65206">
        <ele>896.3</ele>
        <time>2014-05-29T11:14:40Z</time>
      </trkpt>
      <trkpt lat="45.39341" lon="2.65208">
        <ele>896.4</ele>
        <time>2014-05-29T11:14:41Z</time>
      </trkpt>
      <trkpt lat="45.39336" lon="2.65208">
        <ele>896.5</ele>
        <time>2014-05-29T11:14:42Z</time>
      </trkpt>
      <trkpt lat="45.3933" lon="2.65208">
        <ele>896.4</ele>
        <time>2014-05-29T11:14:43Z</time>
      </trkpt>
      <trkpt lat="45.39324" lon="2.65208">
        <ele>896.2</ele>
        <time>2014-05-29T11:14:44Z</time>
      </trkpt>
      <trkpt lat="45.39318" lon="2.65208">
        <ele>895.7</ele>
        <time>2014-05-29T11:14:45Z</time>
      </trkpt>
      <trkpt lat="45.39312" lon="2.65207">
        <ele>895.3</ele>
        <time>2014-05-29T11:14:46Z</time>
      </trkpt>
      <trkpt lat="45.39306" lon="2.65205">
        <ele>894.9</ele>
        <time>2014-05-29T11:14:47Z</time>
      </trkpt>
      <trkpt lat="45.39301" lon="2.65205">
        <ele>894.7</ele>
        <time>2014-05-29T11:14:48Z</time>
      </trkpt>
      <trkpt lat="45.39295" lon="2.65207">
        <ele>894.6</ele>
        <time>2014-05-29T11:14:49Z</time>
      </trkpt>
      <trkpt lat="45.39291" lon="2.6521">
        <ele>894.5</ele>
        <time>2014-05-29T11:14:50Z</time>
      </trkpt>
      <trkpt lat="45.39286" lon="2.65213">
        <ele>894.5</ele>
        <time>2014-05-29T11:14:51Z</time>
      </trkpt>
      <trkpt lat="45.39281" lon="2.65215">
        <ele>894.4</ele>
        <time>2014-05-29T11:14:52Z</time>
      </trkpt>
      <trkpt lat="45.39276" lon="2.65217">
        <ele>894.3</ele>
        <time>2014-05-29T11:14:53Z</time>
      </trkpt>
      <trkpt lat="45.39271" lon="2.65218">
        <ele>894.3</ele>
        <time>2014-05-29T11:14:54Z</time>
      </trkpt>
      <trkpt lat="45.39266" lon="2.65218">
        <ele>894.8</ele>
        <time>2014-05-29T11:14:55Z</time>
      </trkpt>
      <trkpt lat="45.39261" lon="2.65218">
        <ele>895.1</ele>
        <time>2014-05-29T11:14:56Z</time>
      </trkpt>
      <trkpt lat="45.39256" lon="2.65216">
        <ele>894.6</ele>
        <time>2014-05-29T11:14:57Z</time>
      </trkpt>
      <trkpt lat="45.3925" lon="2.65214">
        <ele>894.2</ele>
        <time>2014-05-29T11:14:58Z</time>
      </trkpt>
      <trkpt lat="45.39244" lon="2.65211">
        <ele>893.9</ele>
        <time>2014-05-29T11:14:59Z</time>
      </trkpt>
      <trkpt lat="45.39238" lon="2.65207">
        <ele>893.8</ele>
        <time>2014-05-29T11:15:00Z</time>
      </trkpt>
      <trkpt lat="45.39231" lon="2.65202">
        <ele>893.7</ele>
        <time>2014-05-29T11:15:01Z</time>
      </trkpt>
      <trkpt lat="45.39224" lon="2.65197">
        <ele>893.7</ele>
        <time>2014-05-29T11:15:02Z</time>
      </trkpt>
      <trkpt lat="45.39217" lon="2.65192">
        <ele>893.7</ele>
        <time>2014-05-29T11:15:03Z</time>
      </trkpt>
      <trkpt lat="45.3921" lon="2.65186">
        <ele>892.4</ele>
        <time>2014-05-29T11:15:04Z</time>
      </trkpt>
      <trkpt lat="45.39204" lon="2.65181">
        <ele>891.5</ele>
        <time>2014-05-29T11:15:05Z</time>
      </trkpt>
      <trkpt lat="45.39198" lon="2.65177">
        <ele>890.8</ele>
        <time>2014-05-29T11:15:06Z</time>
      </trkpt>
      <trkpt lat="45.39191" lon="2.65177">
        <ele>889.4</ele>
        <time>2014-05-29T11:15:07Z</time>
      </trkpt>
      <trkpt lat="45.39184" lon="2.65179">
        <ele>888.4</ele>
        <time>2014-05-29T11:15:08Z</time>
      </trkpt>
      <trkpt lat="45.39178" lon="2.65182">
        <ele>888.1</ele>
        <time>2014-05-29T11:15:09Z</time>
      </trkpt>
      <trkpt lat="45.39174" lon="2.65185">
        <ele>887.9</ele>
        <time>2014-05-29T11:15:10Z</time>
      </trkpt>
      <trkpt lat="45.39169" lon="2.6519">
        <ele>887.1</ele>
        <time>2014-05-29T11:15:11Z</time>
      </trkpt>
      <trkpt lat="45.39166" lon="2.65197">
        <ele>886.6</ele>
        <time>2014-05-29T11:15:12Z</time>
      </trkpt>
      <trkpt lat="45.39161" lon="2.65207">
        <ele>886.1</ele>
        <time>2014-05-29T11:15:14Z</time>
      </trkpt>
      <trkpt lat="45.39156" lon="2.65216">
        <ele>886.3</ele>
        <time>2014-05-29T11:15:16Z</time>
      </trkpt>
      <trkpt lat="45.39154" lon="2.65221">
        <ele>886.5</ele>
        <time>2014-05-29T11:15:17Z</time>
      </trkpt>
      <trkpt lat="45.39152" lon="2.65227">
        <ele>886.7</ele>
        <time>2014-05-29T11:15:18Z</time>
      </trkpt>
      <trkpt lat="45.39148" lon="2.65238">
        <ele>887.4</ele>
        <time>2014-05-29T11:15:20Z</time>
      </trkpt>
      <trkpt lat="45.39143" lon="2.65246">
        <ele>887.5</ele>
        <time>2014-05-29T11:15:22Z</time>
      </trkpt>
      <trkpt lat="45.3914" lon="2.6525">
        <ele>887.3</ele>
        <time>2014-05-29T11:15:23Z</time>
      </trkpt>
      <trkpt lat="45.39133" lon="2.6526">
        <ele>887.1</ele>
        <time>2014-05-29T11:15:25Z</time>
      </trkpt>
      <trkpt lat="45.39128" lon="2.65263">
        <ele>887.2</ele>
        <time>2014-05-29T11:15:26Z</time>
      </trkpt>
      <trkpt lat="45.39123" lon="2.65265">
        <ele>887.4</ele>
        <time>2014-05-29T11:15:27Z</time>
      </trkpt>
      <trkpt lat="45.39118" lon="2.65266">
        <ele>887.6</ele>
        <time>2014-05-29T11:15:28Z</time>
      </trkpt>
      <trkpt lat="45.39113" lon="2.65266">
        <ele>887.8</ele>
        <time>2014-05-29T11:15:29Z</time>
      </trkpt>
      <trkpt lat="45.39108" lon="2.65267">
        <ele>887.9</ele>
        <time>2014-05-29T11:15:30Z</time>
      </trkpt>
      <trkpt lat="45.39102" lon="2.65269">
        <ele>887.9</ele>
        <time>2014-05-29T11:15:31Z</time>
      </trkpt>
      <trkpt lat="45.39096" lon="2.6527">
        <ele>887.9</ele>
        <time>2014-05-29T11:15:32Z</time>
      </trkpt>
      <trkpt lat="45.3909" lon="2.65271">
        <ele>887.5</ele>
        <time>2014-05-29T11:15:33Z</time>
      </trkpt>
      <trkpt lat="45.39084" lon="2.65271">
        <ele>887.1</ele>
        <time>2014-05-29T11:15:34Z</time>
      </trkpt>
      <trkpt lat="45.39078" lon="2.65271">
        <ele>887.1</ele>
        <time>2014-05-29T11:15:35Z</time>
      </trkpt>
      <trkpt lat="45.39072" lon="2.6527">
        <ele>887.2</ele>
        <time>2014-05-29T11:15:36Z</time>
      </trkpt>
      <trkpt lat="45.39066" lon="2.65267">
        <ele>886.6</ele>
        <time>2014-05-29T11:15:37Z</time>
      </trkpt>
      <trkpt lat="45.39059" lon="2.65264">
        <ele>886.2</ele>
        <time>2014-05-29T11:15:38Z</time>
      </trkpt>
      <trkpt lat="45.39053" lon="2.6526">
        <ele>885.8</ele>
        <time>2014-05-29T11:15:39Z</time>
      </trkpt>
      <trkpt lat="45.39047" lon="2.65256">
        <ele>885.1</ele>
        <time>2014-05-29T11:15:40Z</time>
      </trkpt>
      <trkpt lat="45.39041" lon="2.65252">
        <ele>884.6</ele>
        <time>2014-05-29T11:15:41Z</time>
      </trkpt>
      <trkpt lat="45.39035" lon="2.65247">
        <ele>883.9</ele>
        <time>2014-05-29T11:15:42Z</time>
      </trkpt>
      <trkpt lat="45.39029" lon="2.65242">
        <ele>883.4</ele>
        <time>2014-05-29T11:15:43Z</time>
      </trkpt>
      <trkpt lat="45.39023" lon="2.65235">
        <ele>883</ele>
        <time>2014-05-29T11:15:44Z</time>
      </trkpt>
      <trkpt lat="45.39018" lon="2.65228">
        <ele>881.7</ele>
        <time>2014-05-29T11:15:45Z</time>
      </trkpt>
      <trkpt lat="45.39013" lon="2.65219">
        <ele>880.7</ele>
        <time>2014-05-29T11:15:46Z</time>
      </trkpt>
      <trkpt lat="45.39009" lon="2.65209">
        <ele>879.8</ele>
        <time>2014-05-29T11:15:47Z</time>
      </trkpt>
      <trkpt lat="45.39004" lon="2.652">
        <ele>879.1</ele>
        <time>2014-05-29T11:15:48Z</time>
      </trkpt>
      <trkpt lat="45.38998" lon="2.6519">
        <ele>878.2</ele>
        <time>2014-05-29T11:15:49Z</time>
      </trkpt>
      <trkpt lat="45.38993" lon="2.65182">
        <ele>877.5</ele>
        <time>2014-05-29T11:15:50Z</time>
      </trkpt>
      <trkpt lat="45.38988" lon="2.65175">
        <ele>877</ele>
        <time>2014-05-29T11:15:51Z</time>
      </trkpt>
      <trkpt lat="45.38984" lon="2.65167">
        <ele>876.5</ele>
        <time>2014-05-29T11:15:52Z</time>
      </trkpt>
      <trkpt lat="45.38979" lon="2.65158">
        <ele>876.1</ele>
        <time>2014-05-29T11:15:53Z</time>
      </trkpt>
      <trkpt lat="45.38975" lon="2.6515">
        <ele>875.7</ele>
        <time>2014-05-29T11:15:54Z</time>
      </trkpt>
      <trkpt lat="45.38973" lon="2.65141">
        <ele>875.4</ele>
        <time>2014-05-29T11:15:55Z</time>
      </trkpt>
      <trkpt lat="45.38972" lon="2.65133">
        <ele>875.2</ele>
        <time>2014-05-29T11:15:56Z</time>
      </trkpt>
      <trkpt lat="45.38971" lon="2.65123">
        <ele>875.1</ele>
        <time>2014-05-29T11:15:57Z</time>
      </trkpt>
      <trkpt lat="45.38969" lon="2.65114">
        <ele>875</ele>
        <time>2014-05-29T11:15:58Z</time>
      </trkpt>
      <trkpt lat="45.38969" lon="2.65105">
        <ele>875</ele>
        <time>2014-05-29T11:15:59Z</time>
      </trkpt>
      <trkpt lat="45.3897" lon="2.65095">
        <ele>875.3</ele>
        <time>2014-05-29T11:16:01Z</time>
      </trkpt>
      <trkpt lat="45.38976" lon="2.65087">
        <ele>876.1</ele>
        <time>2014-05-29T11:16:04Z</time>
      </trkpt>
      <trkpt lat="45.38979" lon="2.65078">
        <ele>877.1</ele>
        <time>2014-05-29T11:16:06Z</time>
      </trkpt>
      <trkpt lat="45.38981" lon="2.65069">
        <ele>877.9</ele>
        <time>2014-05-29T11:16:08Z</time>
      </trkpt>
      <trkpt lat="45.38982" lon="2.65057">
        <ele>878.2</ele>
        <time>2014-05-29T11:16:11Z</time>
      </trkpt>
      <trkpt lat="45.38983" lon="2.65047">
        <ele>878.2</ele>
        <time>2014-05-29T11:16:13Z</time>
      </trkpt>
      <trkpt lat="45.38984" lon="2.65038">
        <ele>878.8</ele>
        <time>2014-05-29T11:16:15Z</time>
      </trkpt>
      <trkpt lat="45.38984" lon="2.65025">
        <ele>879.7</ele>
        <time>2014-05-29T11:16:18Z</time>
      </trkpt>
      <trkpt lat="45.38985" lon="2.65015">
        <ele>879.9</ele>
        <time>2014-05-29T11:16:21Z</time>
      </trkpt>
      <trkpt lat="45.38986" lon="2.65004">
        <ele>880.2</ele>
        <time>2014-05-29T11:16:25Z</time>
      </trkpt>
      <trkpt lat="45.38985" lon="2.65001">
        <ele>880.4</ele>
        <time>2014-05-29T11:16:26Z</time>
      </trkpt>
      <trkpt lat="45.38981" lon="2.6498">
        <ele>881.5</ele>
        <time>2014-05-29T11:16:33Z</time>
      </trkpt>
      <trkpt lat="45.38979" lon="2.6497">
        <ele>881.3</ele>
        <time>2014-05-29T11:16:36Z</time>
      </trkpt>
      <trkpt lat="45.38976" lon="2.6496">
        <ele>882.2</ele>
        <time>2014-05-29T11:16:39Z</time>
      </trkpt>
      <trkpt lat="45.38976" lon="2.64952">
        <ele>882.3</ele>
        <time>2014-05-29T11:16:41Z</time>
      </trkpt>
      <trkpt lat="45.38978" lon="2.64941">
        <ele>881.8</ele>
        <time>2014-05-29T11:16:43Z</time>
      </trkpt>
      <trkpt lat="45.38981" lon="2.6493">
        <ele>881.3</ele>
        <time>2014-05-29T11:16:45Z</time>
      </trkpt>
      <trkpt lat="45.38984" lon="2.64923">
        <ele>880.8</ele>
        <time>2014-05-29T11:16:46Z</time>
      </trkpt>
      <trkpt lat="45.38987" lon="2.64916">
        <ele>880.4</ele>
        <time>2014-05-29T11:16:47Z</time>
      </trkpt>
      <trkpt lat="45.3899" lon="2.64906">
        <ele>880.1</ele>
        <time>2014-05-29T11:16:48Z</time>
      </trkpt>
      <trkpt lat="45.38996" lon="2.64896">
        <ele>879.3</ele>
        <time>2014-05-29T11:16:49Z</time>
      </trkpt>
      <trkpt lat="45.39002" lon="2.64886">
        <ele>878.7</ele>
        <time>2014-05-29T11:16:50Z</time>
      </trkpt>
      <trkpt lat="45.39009" lon="2.64877">
        <ele>877.5</ele>
        <time>2014-05-29T11:16:51Z</time>
      </trkpt>
      <trkpt lat="45.39016" lon="2.64866">
        <ele>876.7</ele>
        <time>2014-05-29T11:16:52Z</time>
      </trkpt>
      <trkpt lat="45.39024" lon="2.64856">
        <ele>875.5</ele>
        <time>2014-05-29T11:16:53Z</time>
      </trkpt>
      <trkpt lat="45.39032" lon="2.64845">
        <ele>874.6</ele>
        <time>2014-05-29T11:16:54Z</time>
      </trkpt>
      <trkpt lat="45.39039" lon="2.64836">
        <ele>873.9</ele>
        <time>2014-05-29T11:16:55Z</time>
      </trkpt>
      <trkpt lat="45.39045" lon="2.64828">
        <ele>872.4</ele>
        <time>2014-05-29T11:16:56Z</time>
      </trkpt>
      <trkpt lat="45.39047" lon="2.64817">
        <ele>871.3</ele>
        <time>2014-05-29T11:16:57Z</time>
      </trkpt>
      <trkpt lat="45.39048" lon="2.64804">
        <ele>869.4</ele>
        <time>2014-05-29T11:16:58Z</time>
      </trkpt>
      <trkpt lat="45.39046" lon="2.6479">
        <ele>868</ele>
        <time>2014-05-29T11:16:59Z</time>
      </trkpt>
      <trkpt lat="45.39045" lon="2.64779">
        <ele>867</ele>
        <time>2014-05-29T11:17:00Z</time>
      </trkpt>
      <trkpt lat="45.39045" lon="2.64767">
        <ele>865.7</ele>
        <time>2014-05-29T11:17:01Z</time>
      </trkpt>
      <trkpt lat="45.39044" lon="2.64756">
        <ele>864.8</ele>
        <time>2014-05-29T11:17:02Z</time>
      </trkpt>
      <trkpt lat="45.39042" lon="2.64742">
        <ele>864.3</ele>
        <time>2014-05-29T11:17:03Z</time>
      </trkpt>
      <trkpt lat="45.39041" lon="2.64729">
        <ele>863.9</ele>
        <time>2014-05-29T11:17:04Z</time>
      </trkpt>
      <trkpt lat="45.39041" lon="2.64716">
        <ele>863</ele>
        <time>2014-05-29T11:17:05Z</time>
      </trkpt>
      <trkpt lat="45.39041" lon="2.64704">
        <ele>862.3</ele>
        <time>2014-05-29T11:17:06Z</time>
      </trkpt>
      <trkpt lat="45.39043" lon="2.64691">
        <ele>861.7</ele>
        <time>2014-05-29T11:17:07Z</time>
      </trkpt>
      <trkpt lat="45.39046" lon="2.64678">
        <ele>860.8</ele>
        <time>2014-05-29T11:17:08Z</time>
      </trkpt>
      <trkpt lat="45.39047" lon="2.64666">
        <ele>860.2</ele>
        <time>2014-05-29T11:17:09Z</time>
      </trkpt>
      <trkpt lat="45.3905" lon="2.64654">
        <ele>858.9</ele>
        <time>2014-05-29T11:17:10Z</time>
      </trkpt>
      <trkpt lat="45.39053" lon="2.64643">
        <ele>857.9</ele>
        <time>2014-05-29T11:17:11Z</time>
      </trkpt>
      <trkpt lat="45.39057" lon="2.64631">
        <ele>856.4</ele>
        <time>2014-05-29T11:17:12Z</time>
      </trkpt>
      <trkpt lat="45.3906" lon="2.64619">
        <ele>855.3</ele>
        <time>2014-05-29T11:17:13Z</time>
      </trkpt>
      <trkpt lat="45.39061" lon="2.64607">
        <ele>854.5</ele>
        <time>2014-05-29T11:17:14Z</time>
      </trkpt>
      <trkpt lat="45.39061" lon="2.64596">
        <ele>854</ele>
        <time>2014-05-29T11:17:15Z</time>
      </trkpt>
      <trkpt lat="45.3906" lon="2.64585">
        <ele>853.7</ele>
        <time>2014-05-29T11:17:16Z</time>
      </trkpt>
      <trkpt lat="45.39058" lon="2.64574">
        <ele>853</ele>
        <time>2014-05-29T11:17:17Z</time>
      </trkpt>
      <trkpt lat="45.39057" lon="2.64563">
        <ele>852.5</ele>
        <time>2014-05-29T11:17:18Z</time>
      </trkpt>
      <trkpt lat="45.39055" lon="2.64552">
        <ele>852.1</ele>
        <time>2014-05-29T11:17:19Z</time>
      </trkpt>
      <trkpt lat="45.39053" lon="2.64543">
        <ele>851.9</ele>
        <time>2014-05-29T11:17:20Z</time>
      </trkpt>
      <trkpt lat="45.3905" lon="2.64535">
        <ele>851.8</ele>
        <time>2014-05-29T11:17:21Z</time>
      </trkpt>
      <trkpt lat="45.39048" lon="2.64527">
        <ele>851.4</ele>
        <time>2014-05-29T11:17:22Z</time>
      </trkpt>
      <trkpt lat="45.39046" lon="2.6452">
        <ele>851.2</ele>
        <time>2014-05-29T11:17:23Z</time>
      </trkpt>
      <trkpt lat="45.39044" lon="2.6451">
        <ele>851.1</ele>
        <time>2014-05-29T11:17:24Z</time>
      </trkpt>
      <trkpt lat="45.39042" lon="2.64501">
        <ele>851</ele>
        <time>2014-05-29T11:17:25Z</time>
      </trkpt>
      <trkpt lat="45.3904" lon="2.64493">
        <ele>851</ele>
        <time>2014-05-29T11:17:26Z</time>
      </trkpt>
      <trkpt lat="45.39038" lon="2.64485">
        <ele>851</ele>
        <time>2014-05-29T11:17:27Z</time>
      </trkpt>
      <trkpt lat="45.39036" lon="2.64478">
        <ele>851</ele>
        <time>2014-05-29T11:17:28Z</time>
      </trkpt>
      <trkpt lat="45.39034" lon="2.64471">
        <ele>851.7</ele>
        <time>2014-05-29T11:17:29Z</time>
      </trkpt>
      <trkpt lat="45.39033" lon="2.64465">
        <ele>852.1</ele>
        <time>2014-05-29T11:17:30Z</time>
      </trkpt>
      <trkpt lat="45.39032" lon="2.64459">
        <ele>852</ele>
        <time>2014-05-29T11:17:31Z</time>
      </trkpt>
      <trkpt lat="45.3903" lon="2.64447">
        <ele>851.7</ele>
        <time>2014-05-29T11:17:33Z</time>
      </trkpt>
      <trkpt lat="45.39027" lon="2.64436">
        <ele>852.3</ele>
        <time>2014-05-29T11:17:35Z</time>
      </trkpt>
      <trkpt lat="45.39025" lon="2.64427">
        <ele>853.3</ele>
        <time>2014-05-29T11:17:37Z</time>
      </trkpt>
      <trkpt lat="45.3902" lon="2.64417">
        <ele>854.5</ele>
        <time>2014-05-29T11:17:40Z</time>
      </trkpt>
      <trkpt lat="45.39016" lon="2.64408">
        <ele>855.1</ele>
        <time>2014-05-29T11:17:43Z</time>
      </trkpt>
      <trkpt lat="45.39014" lon="2.64398">
        <ele>855.1</ele>
        <time>2014-05-29T11:17:46Z</time>
      </trkpt>
      <trkpt lat="45.39011" lon="2.64389">
        <ele>855.6</ele>
        <time>2014-05-29T11:17:49Z</time>
      </trkpt>
      <trkpt lat="45.39008" lon="2.6438">
        <ele>856.1</ele>
        <time>2014-05-29T11:17:51Z</time>
      </trkpt>
      <trkpt lat="45.39006" lon="2.64372">
        <ele>856.3</ele>
        <time>2014-05-29T11:17:53Z</time>
      </trkpt>
      <trkpt lat="45.39001" lon="2.64361">
        <ele>856.5</ele>
        <time>2014-05-29T11:17:56Z</time>
      </trkpt>
      <trkpt lat="45.39" lon="2.6435">
        <ele>856.9</ele>
        <time>2014-05-29T11:17:59Z</time>
      </trkpt>
      <trkpt lat="45.39001" lon="2.6434">
        <ele>857</ele>
        <time>2014-05-29T11:18:02Z</time>
      </trkpt>
      <trkpt lat="45.39" lon="2.64328">
        <ele>857.4</ele>
        <time>2014-05-29T11:18:06Z</time>
      </trkpt>
      <trkpt lat="45.39" lon="2.64316">
        <ele>857.5</ele>
        <time>2014-05-29T11:18:11Z</time>
      </trkpt>
      <trkpt lat="45.38998" lon="2.64304">
        <ele>858.4</ele>
        <time>2014-05-29T11:18:17Z</time>
      </trkpt>
      <trkpt lat="45.39001" lon="2.64292">
        <ele>858.9</ele>
        <time>2014-05-29T11:18:23Z</time>
      </trkpt>
      <trkpt lat="45.39006" lon="2.64282">
        <ele>859.6</ele>
        <time>2014-05-29T11:18:30Z</time>
      </trkpt>
      <trkpt lat="45.39007" lon="2.64281">
        <ele>859.9</ele>
        <time>2014-05-29T11:18:31Z</time>
      </trkpt>
      <trkpt lat="45.39015" lon="2.64262">
        <ele>861.5</ele>
        <time>2014-05-29T11:18:42Z</time>
      </trkpt>
      <trkpt lat="45.39015" lon="2.64249">
        <ele>862.5</ele>
        <time>2014-05-29T11:18:48Z</time>
      </trkpt>
      <trkpt lat="45.39015" lon="2.64238">
        <ele>863.6</ele>
        <time>2014-05-29T11:18:52Z</time>
      </trkpt>
      <trkpt lat="45.39013" lon="2.6423">
        <ele>863.5</ele>
        <time>2014-05-29T11:18:54Z</time>
      </trkpt>
      <trkpt lat="45.39011" lon="2.64222">
        <ele>863.3</ele>
        <time>2014-05-29T11:18:56Z</time>
      </trkpt>
      <trkpt lat="45.39009" lon="2.6421">
        <ele>863.5</ele>
        <time>2014-05-29T11:18:59Z</time>
      </trkpt>
      <trkpt lat="45.39008" lon="2.642">
        <ele>863.6</ele>
        <time>2014-05-29T11:19:02Z</time>
      </trkpt>
      <trkpt lat="45.39008" lon="2.64188">
        <ele>864.2</ele>
        <time>2014-05-29T11:19:06Z</time>
      </trkpt>
      <trkpt lat="45.39007" lon="2.64177">
        <ele>864.8</ele>
        <time>2014-05-29T11:19:09Z</time>
      </trkpt>
      <trkpt lat="45.39008" lon="2.64166">
        <ele>864.5</ele>
        <time>2014-05-29T11:19:12Z</time>
      </trkpt>
      <trkpt lat="45.39011" lon="2.64158">
        <ele>864.5</ele>
        <time>2014-05-29T11:19:14Z</time>
      </trkpt>
      <trkpt lat="45.39014" lon="2.64147">
        <ele>864.9</ele>
        <time>2014-05-29T11:19:17Z</time>
      </trkpt>
      <trkpt lat="45.39016" lon="2.64136">
        <ele>864.3</ele>
        <time>2014-05-29T11:19:20Z</time>
      </trkpt>
      <trkpt lat="45.39019" lon="2.64126">
        <ele>864.1</ele>
        <time>2014-05-29T11:19:23Z</time>
      </trkpt>
      <trkpt lat="45.3902" lon="2.64115">
        <ele>864.6</ele>
        <time>2014-05-29T11:19:26Z</time>
      </trkpt>
      <trkpt lat="45.39023" lon="2.64107">
        <ele>865</ele>
        <time>2014-05-29T11:19:28Z</time>
      </trkpt>
      <trkpt lat="45.39025" lon="2.64098">
        <ele>865</ele>
        <time>2014-05-29T11:19:30Z</time>
      </trkpt>
      <trkpt lat="45.39029" lon="2.64088">
        <ele>865</ele>
        <time>2014-05-29T11:19:32Z</time>
      </trkpt>
      <trkpt lat="45.3903" lon="2.64083">
        <ele>865</ele>
        <time>2014-05-29T11:19:33Z</time>
      </trkpt>
      <trkpt lat="45.39034" lon="2.64068">
        <ele>864.5</ele>
        <time>2014-05-29T11:19:36Z</time>
      </trkpt>
      <trkpt lat="45.39037" lon="2.64061">
        <ele>864.4</ele>
        <time>2014-05-29T11:19:38Z</time>
      </trkpt>
      <trkpt lat="45.39041" lon="2.6405">
        <ele>864.3</ele>
        <time>2014-05-29T11:19:40Z</time>
      </trkpt>
      <trkpt lat="45.39045" lon="2.64039">
        <ele>864.7</ele>
        <time>2014-05-29T11:19:42Z</time>
      </trkpt>
      <trkpt lat="45.39047" lon="2.64032">
        <ele>865</ele>
        <time>2014-05-29T11:19:43Z</time>
      </trkpt>
      <trkpt lat="45.39048" lon="2.64026">
        <ele>864.9</ele>
        <time>2014-05-29T11:19:44Z</time>
      </trkpt>
      <trkpt lat="45.39049" lon="2.64019">
        <ele>864.9</ele>
        <time>2014-05-29T11:19:45Z</time>
      </trkpt>
      <trkpt lat="45.39048" lon="2.64007">
        <ele>864.9</ele>
        <time>2014-05-29T11:19:47Z</time>
      </trkpt>
      <trkpt lat="45.39045" lon="2.63996">
        <ele>864.8</ele>
        <time>2014-05-29T11:19:49Z</time>
      </trkpt>
      <trkpt lat="45.39042" lon="2.63985">
        <ele>864.9</ele>
        <time>2014-05-29T11:19:52Z</time>
      </trkpt>
      <trkpt lat="45.39039" lon="2.63978">
        <ele>865.1</ele>
        <time>2014-05-29T11:19:54Z</time>
      </trkpt>
      <trkpt lat="45.39037" lon="2.63969">
        <ele>865</ele>
        <time>2014-05-29T11:19:56Z</time>
      </trkpt>
      <trkpt lat="45.39038" lon="2.63959">
        <ele>864.7</ele>
        <time>2014-05-29T11:19:58Z</time>
      </trkpt>
      <trkpt lat="45.39042" lon="2.63949">
        <ele>864.3</ele>
        <time>2014-05-29T11:20:00Z</time>
      </trkpt>
      <trkpt lat="45.39044" lon="2.63943">
        <ele>863.4</ele>
        <time>2014-05-29T11:20:01Z</time>
      </trkpt>
      <trkpt lat="45.39045" lon="2.63935">
        <ele>862.7</ele>
        <time>2014-05-29T11:20:02Z</time>
      </trkpt>
      <trkpt lat="45.39045" lon="2.63923">
        <ele>862.3</ele>
        <time>2014-05-29T11:20:04Z</time>
      </trkpt>
      <trkpt lat="45.39046" lon="2.63912">
        <ele>862</ele>
        <time>2014-05-29T11:20:06Z</time>
      </trkpt>
      <trkpt lat="45.3905" lon="2.63906">
        <ele>861.8</ele>
        <time>2014-05-29T11:20:07Z</time>
      </trkpt>
      <trkpt lat="45.39055" lon="2.63899">
        <ele>861.2</ele>
        <time>2014-05-29T11:20:08Z</time>
      </trkpt>
      <trkpt lat="45.39061" lon="2.63891">
        <ele>860.8</ele>
        <time>2014-05-29T11:20:09Z</time>
      </trkpt>
      <trkpt lat="45.39065" lon="2.63882">
        <ele>860</ele>
        <time>2014-05-29T11:20:10Z</time>
      </trkpt>
      <trkpt lat="45.39068" lon="2.63871">
        <ele>859.4</ele>
        <time>2014-05-29T11:20:11Z</time>
      </trkpt>
      <trkpt lat="45.39069" lon="2.63862">
        <ele>859</ele>
        <time>2014-05-29T11:20:12Z</time>
      </trkpt>
      <trkpt lat="45.39069" lon="2.63852">
        <ele>858.7</ele>
        <time>2014-05-29T11:20:13Z</time>
      </trkpt>
      <trkpt lat="45.39071" lon="2.63843">
        <ele>858.5</ele>
        <time>2014-05-29T11:20:14Z</time>
      </trkpt>
      <trkpt lat="45.39074" lon="2.63835">
        <ele>857.8</ele>
        <time>2014-05-29T11:20:15Z</time>
      </trkpt>
      <trkpt lat="45.39077" lon="2.63825">
        <ele>857.3</ele>
        <time>2014-05-29T11:20:16Z</time>
      </trkpt>
      <trkpt lat="45.39081" lon="2.63816">
        <ele>856.4</ele>
        <time>2014-05-29T11:20:17Z</time>
      </trkpt>
      <trkpt lat="45.39085" lon="2.63806">
        <ele>855.7</ele>
        <time>2014-05-29T11:20:18Z</time>
      </trkpt>
      <trkpt lat="45.39088" lon="2.63797">
        <ele>855.2</ele>
        <time>2014-05-29T11:20:19Z</time>
      </trkpt>
      <trkpt lat="45.39092" lon="2.63789">
        <ele>854.4</ele>
        <time>2014-05-29T11:20:20Z</time>
      </trkpt>
      <trkpt lat="45.39097" lon="2.63783">
        <ele>853.8</ele>
        <time>2014-05-29T11:20:21Z</time>
      </trkpt>
      <trkpt lat="45.39101" lon="2.63776">
        <ele>853.5</ele>
        <time>2014-05-29T11:20:22Z</time>
      </trkpt>
      <trkpt lat="45.39106" lon="2.63769">
        <ele>853.3</ele>
        <time>2014-05-29T11:20:23Z</time>
      </trkpt>
      <trkpt lat="45.3911" lon="2.63762">
        <ele>853.1</ele>
        <time>2014-05-29T11:20:24Z</time>
      </trkpt>
      <trkpt lat="45.39114" lon="2.63756">
        <ele>852.2</ele>
        <time>2014-05-29T11:20:25Z</time>
      </trkpt>
      <trkpt lat="45.39118" lon="2.63751">
        <ele>851.5</ele>
        <time>2014-05-29T11:20:26Z</time>
      </trkpt>
      <trkpt lat="45.39123" lon="2.63747">
        <ele>850.4</ele>
        <time>2014-05-29T11:20:27Z</time>
      </trkpt>
      <trkpt lat="45.39127" lon="2.63741">
        <ele>849.5</ele>
        <time>2014-05-29T11:20:28Z</time>
      </trkpt>
      <trkpt lat="45.39131" lon="2.63734">
        <ele>848.9</ele>
        <time>2014-05-29T11:20:29Z</time>
      </trkpt>
      <trkpt lat="45.39135" lon="2.63728">
        <ele>848.4</ele>
        <time>2014-05-29T11:20:30Z</time>
      </trkpt>
      <trkpt lat="45.39138" lon="2.63722">
        <ele>848</ele>
        <time>2014-05-29T11:20:31Z</time>
      </trkpt>
      <trkpt lat="45.3914" lon="2.63714">
        <ele>847.1</ele>
        <time>2014-05-29T11:20:32Z</time>
      </trkpt>
      <trkpt lat="45.39143" lon="2.63705">
        <ele>846.3</ele>
        <time>2014-05-29T11:20:33Z</time>
      </trkpt>
      <trkpt lat="45.39146" lon="2.63697">
        <ele>845.4</ele>
        <time>2014-05-29T11:20:34Z</time>
      </trkpt>
      <trkpt lat="45.39149" lon="2.63689">
        <ele>844.7</ele>
        <time>2014-05-29T11:20:35Z</time>
      </trkpt>
      <trkpt lat="45.39153" lon="2.63681">
        <ele>843.9</ele>
        <time>2014-05-29T11:20:36Z</time>
      </trkpt>
      <trkpt lat="45.39157" lon="2.63673">
        <ele>843.4</ele>
        <time>2014-05-29T11:20:37Z</time>
      </trkpt>
      <trkpt lat="45.39161" lon="2.63666">
        <ele>842.9</ele>
        <time>2014-05-29T11:20:38Z</time>
      </trkpt>
      <trkpt lat="45.39165" lon="2.6366">
        <ele>842.5</ele>
        <time>2014-05-29T11:20:39Z</time>
      </trkpt>
      <trkpt lat="45.39168" lon="2.6365">
        <ele>842.5</ele>
        <time>2014-05-29T11:20:41Z</time>
      </trkpt>
      <trkpt lat="45.39167" lon="2.6364">
        <ele>842.7</ele>
        <time>2014-05-29T11:20:43Z</time>
      </trkpt>
      <trkpt lat="45.39165" lon="2.63629">
        <ele>843.2</ele>
        <time>2014-05-29T11:20:45Z</time>
      </trkpt>
      <trkpt lat="45.39164" lon="2.63617">
        <ele>843.2</ele>
        <time>2014-05-29T11:20:47Z</time>
      </trkpt>
      <trkpt lat="45.39164" lon="2.63605">
        <ele>843.7</ele>
        <time>2014-05-29T11:20:49Z</time>
      </trkpt>
      <trkpt lat="45.39163" lon="2.63599">
        <ele>843.9</ele>
        <time>2014-05-29T11:20:50Z</time>
      </trkpt>
      <trkpt lat="45.39163" lon="2.63592">
        <ele>844.2</ele>
        <time>2014-05-29T11:20:51Z</time>
      </trkpt>
      <trkpt lat="45.39162" lon="2.63586">
        <ele>844.4</ele>
        <time>2014-05-29T11:20:52Z</time>
      </trkpt>
      <trkpt lat="45.39161" lon="2.63579">
        <ele>844.9</ele>
        <time>2014-05-29T11:20:53Z</time>
      </trkpt>
      <trkpt lat="45.39161" lon="2.63573">
        <ele>845.2</ele>
        <time>2014-05-29T11:20:54Z</time>
      </trkpt>
      <trkpt lat="45.39161" lon="2.63566">
        <ele>845</ele>
        <time>2014-05-29T11:20:55Z</time>
      </trkpt>
      <trkpt lat="45.39159" lon="2.63554">
        <ele>844.8</ele>
        <time>2014-05-29T11:20:57Z</time>
      </trkpt>
      <trkpt lat="45.39158" lon="2.63541">
        <ele>844.9</ele>
        <time>2014-05-29T11:20:59Z</time>
      </trkpt>
      <trkpt lat="45.39158" lon="2.6353">
        <ele>845.2</ele>
        <time>2014-05-29T11:21:01Z</time>
      </trkpt>
      <trkpt lat="45.39162" lon="2.6352">
        <ele>845.1</ele>
        <time>2014-05-29T11:21:03Z</time>
      </trkpt>
      <trkpt lat="45.39168" lon="2.63511">
        <ele>844.9</ele>
        <time>2014-05-29T11:21:05Z</time>
      </trkpt>
      <trkpt lat="45.39171" lon="2.63507">
        <ele>844.8</ele>
        <time>2014-05-29T11:21:06Z</time>
      </trkpt>
      <trkpt lat="45.39174" lon="2.63501">
        <ele>844.8</ele>
        <time>2014-05-29T11:21:07Z</time>
      </trkpt>
      <trkpt lat="45.39177" lon="2.63495">
        <ele>844.8</ele>
        <time>2014-05-29T11:21:08Z</time>
      </trkpt>
      <trkpt lat="45.39178" lon="2.63487">
        <ele>844.8</ele>
        <time>2014-05-29T11:21:09Z</time>
      </trkpt>
      <trkpt lat="45.39179" lon="2.63479">
        <ele>844.8</ele>
        <time>2014-05-29T11:21:10Z</time>
      </trkpt>
      <trkpt lat="45.39178" lon="2.6347">
        <ele>844.8</ele>
        <time>2014-05-29T11:21:11Z</time>
      </trkpt>
      <trkpt lat="45.39177" lon="2.63462">
        <ele>844.2</ele>
        <time>2014-05-29T11:21:12Z</time>
      </trkpt>
      <trkpt lat="45.39175" lon="2.63455">
        <ele>843.8</ele>
        <time>2014-05-29T11:21:13Z</time>
      </trkpt>
      <trkpt lat="45.39172" lon="2.63447">
        <ele>843.3</ele>
        <time>2014-05-29T11:21:14Z</time>
      </trkpt>
      <trkpt lat="45.3917" lon="2.6344">
        <ele>842.9</ele>
        <time>2014-05-29T11:21:15Z</time>
      </trkpt>
      <trkpt lat="45.39169" lon="2.63434">
        <ele>842.6</ele>
        <time>2014-05-29T11:21:16Z</time>
      </trkpt>
      <trkpt lat="45.39167" lon="2.63428">
        <ele>842.5</ele>
        <time>2014-05-29T11:21:17Z</time>
      </trkpt>
      <trkpt lat="45.39166" lon="2.63422">
        <ele>842.5</ele>
        <time>2014-05-29T11:21:18Z</time>
      </trkpt>
      <trkpt lat="45.39164" lon="2.63415">
        <ele>842.2</ele>
        <time>2014-05-29T11:21:19Z</time>
      </trkpt>
      <trkpt lat="45.39162" lon="2.63407">
        <ele>842</ele>
        <time>2014-05-29T11:21:20Z</time>
      </trkpt>
      <trkpt lat="45.39161" lon="2.63399">
        <ele>841.8</ele>
        <time>2014-05-29T11:21:21Z</time>
      </trkpt>
      <trkpt lat="45.3916" lon="2.63389">
        <ele>842</ele>
        <time>2014-05-29T11:21:22Z</time>
      </trkpt>
      <trkpt lat="45.39159" lon="2.6338">
        <ele>842.2</ele>
        <time>2014-05-29T11:21:23Z</time>
      </trkpt>
      <trkpt lat="45.39157" lon="2.6337">
        <ele>841.9</ele>
        <time>2014-05-29T11:21:24Z</time>
      </trkpt>
      <trkpt lat="45.39156" lon="2.63361">
        <ele>841.7</ele>
        <time>2014-05-29T11:21:25Z</time>
      </trkpt>
      <trkpt lat="45.39156" lon="2.63352">
        <ele>841.3</ele>
        <time>2014-05-29T11:21:26Z</time>
      </trkpt>
      <trkpt lat="45.39156" lon="2.63344">
        <ele>841</ele>
        <time>2014-05-29T11:21:27Z</time>
      </trkpt>
      <trkpt lat="45.39155" lon="2.63337">
        <ele>840.8</ele>
        <time>2014-05-29T11:21:28Z</time>
      </trkpt>
      <trkpt lat="45.39153" lon="2.63331">
        <ele>841.3</ele>
        <time>2014-05-29T11:21:29Z</time>
      </trkpt>
      <trkpt lat="45.39148" lon="2.63321">
        <ele>842.3</ele>
        <time>2014-05-29T11:21:31Z</time>
      </trkpt>
      <trkpt lat="45.39142" lon="2.63312">
        <ele>843.3</ele>
        <time>2014-05-29T11:21:33Z</time>
      </trkpt>
      <trkpt lat="45.39139" lon="2.63307">
        <ele>843.7</ele>
        <time>2014-05-29T11:21:34Z</time>
      </trkpt>
      <trkpt lat="45.39137" lon="2.63301">
        <ele>844</ele>
        <time>2014-05-29T11:21:35Z</time>
      </trkpt>
      <trkpt lat="45.39135" lon="2.63295">
        <ele>844.4</ele>
        <time>2014-05-29T11:21:36Z</time>
      </trkpt>
      <trkpt lat="45.39133" lon="2.63289">
        <ele>844.6</ele>
        <time>2014-05-29T11:21:37Z</time>
      </trkpt>
      <trkpt lat="45.39132" lon="2.63282">
        <ele>844.5</ele>
        <time>2014-05-29T11:21:38Z</time>
      </trkpt>
      <trkpt lat="45.39129" lon="2.63271">
        <ele>844.5</ele>
        <time>2014-05-29T11:21:40Z</time>
      </trkpt>
      <trkpt lat="45.39128" lon="2.6326">
        <ele>844.5</ele>
        <time>2014-05-29T11:21:42Z</time>
      </trkpt>
      <trkpt lat="45.39128" lon="2.63249">
        <ele>844.3</ele>
        <time>2014-05-29T11:21:44Z</time>
      </trkpt>
      <trkpt lat="45.39131" lon="2.63239">
        <ele>844</ele>
        <time>2014-05-29T11:21:46Z</time>
      </trkpt>
      <trkpt lat="45.39136" lon="2.6323">
        <ele>844.3</ele>
        <time>2014-05-29T11:21:48Z</time>
      </trkpt>
      <trkpt lat="45.39141" lon="2.63224">
        <ele>844.6</ele>
        <time>2014-05-29T11:21:50Z</time>
      </trkpt>
      <trkpt lat="45.39147" lon="2.6322">
        <ele>844.7</ele>
        <time>2014-05-29T11:21:52Z</time>
      </trkpt>
      <trkpt lat="45.39153" lon="2.63215">
        <ele>844.9</ele>
        <time>2014-05-29T11:21:54Z</time>
      </trkpt>
      <trkpt lat="45.39159" lon="2.63208">
        <ele>845.2</ele>
        <time>2014-05-29T11:21:56Z</time>
      </trkpt>
      <trkpt lat="45.39166" lon="2.632">
        <ele>844.3</ele>
        <time>2014-05-29T11:21:58Z</time>
      </trkpt>
      <trkpt lat="45.39173" lon="2.63192">
        <ele>844.1</ele>
        <time>2014-05-29T11:22:00Z</time>
      </trkpt>
      <trkpt lat="45.39178" lon="2.63182">
        <ele>844.2</ele>
        <time>2014-05-29T11:22:02Z</time>
      </trkpt>
      <trkpt lat="45.39177" lon="2.6317">
        <ele>844.2</ele>
        <time>2014-05-29T11:22:05Z</time>
      </trkpt>
      <trkpt lat="45.39173" lon="2.63162">
        <ele>844.5</ele>
        <time>2014-05-29T11:22:07Z</time>
      </trkpt>
      <trkpt lat="45.39169" lon="2.63157">
        <ele>844.7</ele>
        <time>2014-05-29T11:22:08Z</time>
      </trkpt>
      <trkpt lat="45.39166" lon="2.63152">
        <ele>844.5</ele>
        <time>2014-05-29T11:22:09Z</time>
      </trkpt>
      <trkpt lat="45.39163" lon="2.63147">
        <ele>844.3</ele>
        <time>2014-05-29T11:22:10Z</time>
      </trkpt>
      <trkpt lat="45.3916" lon="2.63142">
        <ele>843.9</ele>
        <time>2014-05-29T11:22:11Z</time>
      </trkpt>
      <trkpt lat="45.39157" lon="2.63136">
        <ele>843.6</ele>
        <time>2014-05-29T11:22:12Z</time>
      </trkpt>
      <trkpt lat="45.39154" lon="2.63131">
        <ele>843.4</ele>
        <time>2014-05-29T11:22:13Z</time>
      </trkpt>
      <trkpt lat="45.39151" lon="2.63125">
        <ele>843.4</ele>
        <time>2014-05-29T11:22:14Z</time>
      </trkpt>
      <trkpt lat="45.39147" lon="2.63119">
        <ele>843.3</ele>
        <time>2014-05-29T11:22:15Z</time>
      </trkpt>
      <trkpt lat="45.39144" lon="2.63113">
        <ele>843.1</ele>
        <time>2014-05-29T11:22:16Z</time>
      </trkpt>
      <trkpt lat="45.39141" lon="2.63108">
        <ele>842.8</ele>
        <time>2014-05-29T11:22:17Z</time>
      </trkpt>
      <trkpt lat="45.39138" lon="2.63102">
        <ele>842.7</ele>
        <time>2014-05-29T11:22:18Z</time>
      </trkpt>
      <trkpt lat="45.39135" lon="2.63097">
        <ele>843</ele>
        <time>2014-05-29T11:22:19Z</time>
      </trkpt>
      <trkpt lat="45.39131" lon="2.63092">
        <ele>843.2</ele>
        <time>2014-05-29T11:22:20Z</time>
      </trkpt>
      <trkpt lat="45.39127" lon="2.63088">
        <ele>843.2</ele>
        <time>2014-05-29T11:22:21Z</time>
      </trkpt>
      <trkpt lat="45.39122" lon="2.63084">
        <ele>843.2</ele>
        <time>2014-05-29T11:22:22Z</time>
      </trkpt>
      <trkpt lat="45.39116" lon="2.63083">
        <ele>843.1</ele>
        <time>2014-05-29T11:22:23Z</time>
      </trkpt>
      <trkpt lat="45.39111" lon="2.63081">
        <ele>843.1</ele>
        <time>2014-05-29T11:22:24Z</time>
      </trkpt>
      <trkpt lat="45.39105" lon="2.63078">
        <ele>843</ele>
        <time>2014-05-29T11:22:25Z</time>
      </trkpt>
      <trkpt lat="45.391" lon="2.63075">
        <ele>842.9</ele>
        <time>2014-05-29T11:22:26Z</time>
      </trkpt>
      <trkpt lat="45.39095" lon="2.63072">
        <ele>842.8</ele>
        <time>2014-05-29T11:22:27Z</time>
      </trkpt>
      <trkpt lat="45.39089" lon="2.63067">
        <ele>842.5</ele>
        <time>2014-05-29T11:22:28Z</time>
      </trkpt>
      <trkpt lat="45.39085" lon="2.63062">
        <ele>842.2</ele>
        <time>2014-05-29T11:22:29Z</time>
      </trkpt>
      <trkpt lat="45.3908" lon="2.63057">
        <ele>841.7</ele>
        <time>2014-05-29T11:22:30Z</time>
      </trkpt>
      <trkpt lat="45.39076" lon="2.6305">
        <ele>841.4</ele>
        <time>2014-05-29T11:22:31Z</time>
      </trkpt>
      <trkpt lat="45.39072" lon="2.63044">
        <ele>841.1</ele>
        <time>2014-05-29T11:22:32Z</time>
      </trkpt>
      <trkpt lat="45.39069" lon="2.63038">
        <ele>841</ele>
        <time>2014-05-29T11:22:33Z</time>
      </trkpt>
      <trkpt lat="45.39066" lon="2.63031">
        <ele>840.9</ele>
        <time>2014-05-29T11:22:34Z</time>
      </trkpt>
      <trkpt lat="45.39064" lon="2.63024">
        <ele>841</ele>
        <time>2014-05-29T11:22:35Z</time>
      </trkpt>
      <trkpt lat="45.39063" lon="2.63016">
        <ele>841.2</ele>
        <time>2014-05-29T11:22:36Z</time>
      </trkpt>
      <trkpt lat="45.39062" lon="2.63009">
        <ele>841.3</ele>
        <time>2014-05-29T11:22:37Z</time>
      </trkpt>
      <trkpt lat="45.39063" lon="2.63003">
        <ele>841</ele>
        <time>2014-05-29T11:22:38Z</time>
      </trkpt>
      <trkpt lat="45.39063" lon="2.62996">
        <ele>840.7</ele>
        <time>2014-05-29T11:22:39Z</time>
      </trkpt>
      <trkpt lat="45.39063" lon="2.62989">
        <ele>840.7</ele>
        <time>2014-05-29T11:22:40Z</time>
      </trkpt>
      <trkpt lat="45.39063" lon="2.62981">
        <ele>840.6</ele>
        <time>2014-05-29T11:22:41Z</time>
      </trkpt>
      <trkpt lat="45.39063" lon="2.62974">
        <ele>840.4</ele>
        <time>2014-05-29T11:22:42Z</time>
      </trkpt>
      <trkpt lat="45.39063" lon="2.62966">
        <ele>840.2</ele>
        <time>2014-05-29T11:22:43Z</time>
      </trkpt>
      <trkpt lat="45.39064" lon="2.62959">
        <ele>840</ele>
        <time>2014-05-29T11:22:44Z</time>
      </trkpt>
      <trkpt lat="45.39065" lon="2.62952">
        <ele>839.9</ele>
        <time>2014-05-29T11:22:45Z</time>
      </trkpt>
      <trkpt lat="45.39067" lon="2.62944">
        <ele>839.8</ele>
        <time>2014-05-29T11:22:46Z</time>
      </trkpt>
      <trkpt lat="45.39068" lon="2.62936">
        <ele>839.3</ele>
        <time>2014-05-29T11:22:47Z</time>
      </trkpt>
      <trkpt lat="45.39069" lon="2.62929">
        <ele>839</ele>
        <time>2014-05-29T11:22:48Z</time>
      </trkpt>
      <trkpt lat="45.39069" lon="2.62922">
        <ele>839.1</ele>
        <time>2014-05-29T11:22:49Z</time>
      </trkpt>
      <trkpt lat="45.39073" lon="2.62911">
        <ele>839.1</ele>
        <time>2014-05-29T11:22:51Z</time>
      </trkpt>
      <trkpt lat="45.39077" lon="2.62902">
        <ele>838.7</ele>
        <time>2014-05-29T11:22:53Z</time>
      </trkpt>
      <trkpt lat="45.39081" lon="2.62894">
        <ele>839.4</ele>
        <time>2014-05-29T11:22:55Z</time>
      </trkpt>
      <trkpt lat="45.39085" lon="2.62885">
        <ele>840.4</ele>
        <time>2014-05-29T11:22:59Z</time>
      </trkpt>
      <trkpt lat="45.3909" lon="2.62876">
        <ele>840.8</ele>
        <time>2014-05-29T11:23:04Z</time>
      </trkpt>
      <trkpt lat="45.39094" lon="2.62866">
        <ele>841.8</ele>
        <time>2014-05-29T11:23:09Z</time>
      </trkpt>
      <trkpt lat="45.39098" lon="2.62857">
        <ele>842.8</ele>
        <time>2014-05-29T11:23:13Z</time>
      </trkpt>
      <trkpt lat="45.39103" lon="2.62847">
        <ele>843.1</ele>
        <time>2014-05-29T11:23:18Z</time>
      </trkpt>
      <trkpt lat="45.39106" lon="2.62838">
        <ele>844.2</ele>
        <time>2014-05-29T11:23:22Z</time>
      </trkpt>
      <trkpt lat="45.39111" lon="2.62829">
        <ele>844.3</ele>
        <time>2014-05-29T11:23:26Z</time>
      </trkpt>
      <trkpt lat="45.39114" lon="2.62817">
        <ele>844.7</ele>
        <time>2014-05-29T11:23:31Z</time>
      </trkpt>
      <trkpt lat="45.39118" lon="2.62807">
        <ele>845.2</ele>
        <time>2014-05-29T11:23:36Z</time>
      </trkpt>
      <trkpt lat="45.39119" lon="2.62805">
        <ele>845.4</ele>
        <time>2014-05-29T11:23:37Z</time>
      </trkpt>
      <trkpt lat="45.39126" lon="2.62787">
        <ele>846.1</ele>
        <time>2014-05-29T11:23:45Z</time>
      </trkpt>
      <trkpt lat="45.39131" lon="2.62777">
        <ele>847.4</ele>
        <time>2014-05-29T11:23:50Z</time>
      </trkpt>
      <trkpt lat="45.39136" lon="2.6277">
        <ele>848.8</ele>
        <time>2014-05-29T11:23:54Z</time>
      </trkpt>
      <trkpt lat="45.39142" lon="2.62763">
        <ele>849.7</ele>
        <time>2014-05-29T11:23:58Z</time>
      </trkpt>
      <trkpt lat="45.39148" lon="2.62756">
        <ele>850.2</ele>
        <time>2014-05-29T11:24:02Z</time>
      </trkpt>
      <trkpt lat="45.39154" lon="2.62748">
        <ele>849.7</ele>
        <time>2014-05-29T11:24:06Z</time>
      </trkpt>
      <trkpt lat="45.39162" lon="2.62741">
        <ele>850.2</ele>
        <time>2014-05-29T11:24:10Z</time>
      </trkpt>
      <trkpt lat="45.39169" lon="2.62735">
        <ele>850.7</ele>
        <time>2014-05-29T11:24:14Z</time>
      </trkpt>
      <trkpt lat="45.39176" lon="2.6273">
        <ele>851.2</ele>
        <time>2014-05-29T11:24:17Z</time>
      </trkpt>
      <trkpt lat="45.39183" lon="2.62725">
        <ele>851.3</ele>
        <time>2014-05-29T11:24:20Z</time>
      </trkpt>
      <trkpt lat="45.39189" lon="2.62721">
        <ele>851.3</ele>
        <time>2014-05-29T11:24:22Z</time>
      </trkpt>
      <trkpt lat="45.39195" lon="2.62716">
        <ele>851</ele>
        <time>2014-05-29T11:24:24Z</time>
      </trkpt>
      <trkpt lat="45.39201" lon="2.62711">
        <ele>850.4</ele>
        <time>2014-05-29T11:24:26Z</time>
      </trkpt>
      <trkpt lat="45.39208" lon="2.62707">
        <ele>850.2</ele>
        <time>2014-05-29T11:24:28Z</time>
      </trkpt>
      <trkpt lat="45.39215" lon="2.62703">
        <ele>849.5</ele>
        <time>2014-05-29T11:24:30Z</time>
      </trkpt>
      <trkpt lat="45.39222" lon="2.62698">
        <ele>849.3</ele>
        <time>2014-05-29T11:24:32Z</time>
      </trkpt>
      <trkpt lat="45.39229" lon="2.62691">
        <ele>849.3</ele>
        <time>2014-05-29T11:24:34Z</time>
      </trkpt>
      <trkpt lat="45.39235" lon="2.62683">
        <ele>848.8</ele>
        <time>2014-05-29T11:24:36Z</time>
      </trkpt>
      <trkpt lat="45.39238" lon="2.62672">
        <ele>848.7</ele>
        <time>2014-05-29T11:24:38Z</time>
      </trkpt>
      <trkpt lat="45.39238" lon="2.62666">
        <ele>848.9</ele>
        <time>2014-05-29T11:24:39Z</time>
      </trkpt>
      <trkpt lat="45.39239" lon="2.62659">
        <ele>849</ele>
        <time>2014-05-29T11:24:40Z</time>
      </trkpt>
      <trkpt lat="45.3924" lon="2.6265">
        <ele>848.6</ele>
        <time>2014-05-29T11:24:41Z</time>
      </trkpt>
      <trkpt lat="45.39238" lon="2.62642">
        <ele>848.3</ele>
        <time>2014-05-29T11:24:42Z</time>
      </trkpt>
      <trkpt lat="45.39235" lon="2.62634">
        <ele>847.6</ele>
        <time>2014-05-29T11:24:43Z</time>
      </trkpt>
      <trkpt lat="45.3923" lon="2.62628">
        <ele>847.1</ele>
        <time>2014-05-29T11:24:44Z</time>
      </trkpt>
      <trkpt lat="45.39226" lon="2.62621">
        <ele>846.7</ele>
        <time>2014-05-29T11:24:45Z</time>
      </trkpt>
      <trkpt lat="45.39222" lon="2.62614">
        <ele>846.3</ele>
        <time>2014-05-29T11:24:46Z</time>
      </trkpt>
      <trkpt lat="45.39218" lon="2.62606">
        <ele>846</ele>
        <time>2014-05-29T11:24:47Z</time>
      </trkpt>
      <trkpt lat="45.39214" lon="2.626">
        <ele>845.5</ele>
        <time>2014-05-29T11:24:48Z</time>
      </trkpt>
      <trkpt lat="45.39211" lon="2.62593">
        <ele>845.1</ele>
        <time>2014-05-29T11:24:49Z</time>
      </trkpt>
      <trkpt lat="45.39208" lon="2.62586">
        <ele>844.9</ele>
        <time>2014-05-29T11:24:50Z</time>
      </trkpt>
      <trkpt lat="45.39205" lon="2.6258">
        <ele>844.7</ele>
        <time>2014-05-29T11:24:51Z</time>
      </trkpt>
      <trkpt lat="45.39201" lon="2.6257">
        <ele>844</ele>
        <time>2014-05-29T11:24:53Z</time>
      </trkpt>
      <trkpt lat="45.39198" lon="2.6256">
        <ele>843.3</ele>
        <time>2014-05-29T11:24:55Z</time>
      </trkpt>
      <trkpt lat="45.39196" lon="2.62552">
        <ele>843.1</ele>
        <time>2014-05-29T11:24:57Z</time>
      </trkpt>
      <trkpt lat="45.39193" lon="2.62543">
        <ele>843.4</ele>
        <time>2014-05-29T11:24:59Z</time>
      </trkpt>
      <trkpt lat="45.39191" lon="2.62534">
        <ele>844.1</ele>
        <time>2014-05-29T11:25:01Z</time>
      </trkpt>
      <trkpt lat="45.39189" lon="2.62525">
        <ele>844.7</ele>
        <time>2014-05-29T11:25:03Z</time>
      </trkpt>
      <trkpt lat="45.39187" lon="2.62516">
        <ele>845.3</ele>
        <time>2014-05-29T11:25:05Z</time>
      </trkpt>
      <trkpt lat="45.39186" lon="2.62507">
        <ele>846.1</ele>
        <time>2014-05-29T11:25:07Z</time>
      </trkpt>
      <trkpt lat="45.39184" lon="2.62495">
        <ele>846.7</ele>
        <time>2014-05-29T11:25:11Z</time>
      </trkpt>
      <trkpt lat="45.39184" lon="2.62484">
        <ele>847</ele>
        <time>2014-05-29T11:25:15Z</time>
      </trkpt>
      <trkpt lat="45.39184" lon="2.62472">
        <ele>847.6</ele>
        <time>2014-05-29T11:25:19Z</time>
      </trkpt>
      <trkpt lat="45.39183" lon="2.6246">
        <ele>847.7</ele>
        <time>2014-05-29T11:25:23Z</time>
      </trkpt>
      <trkpt lat="45.39183" lon="2.6245">
        <ele>848.5</ele>
        <time>2014-05-29T11:25:26Z</time>
      </trkpt>
      <trkpt lat="45.39183" lon="2.62438">
        <ele>849.2</ele>
        <time>2014-05-29T11:25:29Z</time>
      </trkpt>
      <trkpt lat="45.39183" lon="2.62426">
        <ele>849.4</ele>
        <time>2014-05-29T11:25:32Z</time>
      </trkpt>
      <trkpt lat="45.39184" lon="2.62418">
        <ele>849.9</ele>
        <time>2014-05-29T11:25:34Z</time>
      </trkpt>
      <trkpt lat="45.39185" lon="2.62405">
        <ele>849.8</ele>
        <time>2014-05-29T11:25:37Z</time>
      </trkpt>
      <trkpt lat="45.39185" lon="2.62396">
        <ele>849.8</ele>
        <time>2014-05-29T11:25:39Z</time>
      </trkpt>
      <trkpt lat="45.39186" lon="2.62392">
        <ele>850</ele>
        <time>2014-05-29T11:25:40Z</time>
      </trkpt>
      <trkpt lat="45.39188" lon="2.62377">
        <ele>850.3</ele>
        <time>2014-05-29T11:25:43Z</time>
      </trkpt>
      <trkpt lat="45.39189" lon="2.62368">
        <ele>850.4</ele>
        <time>2014-05-29T11:25:45Z</time>
      </trkpt>
      <trkpt lat="45.39191" lon="2.62356">
        <ele>850.6</ele>
        <time>2014-05-29T11:25:48Z</time>
      </trkpt>
      <trkpt lat="45.39193" lon="2.62346">
        <ele>850.3</ele>
        <time>2014-05-29T11:25:50Z</time>
      </trkpt>
      <trkpt lat="45.39195" lon="2.62335">
        <ele>850.3</ele>
        <time>2014-05-29T11:25:52Z</time>
      </trkpt>
      <trkpt lat="45.39198" lon="2.62323">
        <ele>850.4</ele>
        <time>2014-05-29T11:25:54Z</time>
      </trkpt>
      <trkpt lat="45.392" lon="2.62311">
        <ele>850.3</ele>
        <time>2014-05-29T11:25:56Z</time>
      </trkpt>
      <trkpt lat="45.39202" lon="2.62305">
        <ele>850.4</ele>
        <time>2014-05-29T11:25:57Z</time>
      </trkpt>
      <trkpt lat="45.39203" lon="2.62299">
        <ele>850.4</ele>
        <time>2014-05-29T11:25:58Z</time>
      </trkpt>
      <trkpt lat="45.39205" lon="2.62293">
        <ele>850.5</ele>
        <time>2014-05-29T11:25:59Z</time>
      </trkpt>
      <trkpt lat="45.39207" lon="2.62286">
        <ele>850.5</ele>
        <time>2014-05-29T11:26:00Z</time>
      </trkpt>
      <trkpt lat="45.39209" lon="2.6228">
        <ele>850.6</ele>
        <time>2014-05-29T11:26:01Z</time>
      </trkpt>
      <trkpt lat="45.3921" lon="2.62274">
        <ele>850.7</ele>
        <time>2014-05-29T11:26:02Z</time>
      </trkpt>
      <trkpt lat="45.39212" lon="2.62268">
        <ele>850.7</ele>
        <time>2014-05-29T11:26:03Z</time>
      </trkpt>
      <trkpt lat="45.39215" lon="2.62262">
        <ele>850.5</ele>
        <time>2014-05-29T11:26:04Z</time>
      </trkpt>
      <trkpt lat="45.39217" lon="2.62257">
        <ele>850.3</ele>
        <time>2014-05-29T11:26:05Z</time>
      </trkpt>
      <trkpt lat="45.39219" lon="2.62251">
        <ele>850.4</ele>
        <time>2014-05-29T11:26:06Z</time>
      </trkpt>
      <trkpt lat="45.39222" lon="2.62245">
        <ele>850.5</ele>
        <time>2014-05-29T11:26:07Z</time>
      </trkpt>
      <trkpt lat="45.39224" lon="2.6224">
        <ele>850.5</ele>
        <time>2014-05-29T11:26:08Z</time>
      </trkpt>
      <trkpt lat="45.39228" lon="2.62228">
        <ele>849.4</ele>
        <time>2014-05-29T11:26:10Z</time>
      </trkpt>
      <trkpt lat="45.39231" lon="2.62218">
        <ele>848.9</ele>
        <time>2014-05-29T11:26:12Z</time>
      </trkpt>
      <trkpt lat="45.39234" lon="2.62209">
        <ele>849.4</ele>
        <time>2014-05-29T11:26:14Z</time>
      </trkpt>
      <trkpt lat="45.39237" lon="2.62199">
        <ele>849.2</ele>
        <time>2014-05-29T11:26:16Z</time>
      </trkpt>
      <trkpt lat="45.39238" lon="2.62193">
        <ele>848.9</ele>
        <time>2014-05-29T11:26:17Z</time>
      </trkpt>
      <trkpt lat="45.3924" lon="2.62187">
        <ele>849.8</ele>
        <time>2014-05-29T11:26:18Z</time>
      </trkpt>
      <trkpt lat="45.39241" lon="2.6218">
        <ele>850.5</ele>
        <time>2014-05-29T11:26:19Z</time>
      </trkpt>
      <trkpt lat="45.39242" lon="2.62174">
        <ele>851</ele>
        <time>2014-05-29T11:26:20Z</time>
      </trkpt>
      <trkpt lat="45.39243" lon="2.62167">
        <ele>851</ele>
        <time>2014-05-29T11:26:21Z</time>
      </trkpt>
      <trkpt lat="45.39245" lon="2.62161">
        <ele>851</ele>
        <time>2014-05-29T11:26:22Z</time>
      </trkpt>
      <trkpt lat="45.39246" lon="2.62154">
        <ele>850.9</ele>
        <time>2014-05-29T11:26:23Z</time>
      </trkpt>
      <trkpt lat="45.39248" lon="2.62148">
        <ele>850.8</ele>
        <time>2014-05-29T11:26:24Z</time>
      </trkpt>
      <trkpt lat="45.39249" lon="2.62141">
        <ele>851</ele>
        <time>2014-05-29T11:26:25Z</time>
      </trkpt>
      <trkpt lat="45.3925" lon="2.62134">
        <ele>851.1</ele>
        <time>2014-05-29T11:26:26Z</time>
      </trkpt>
      <trkpt lat="45.39251" lon="2.62127">
        <ele>851.2</ele>
        <time>2014-05-29T11:26:27Z</time>
      </trkpt>
      <trkpt lat="45.39251" lon="2.6212">
        <ele>850.5</ele>
        <time>2014-05-29T11:26:28Z</time>
      </trkpt>
      <trkpt lat="45.39252" lon="2.62113">
        <ele>850</ele>
        <time>2014-05-29T11:26:29Z</time>
      </trkpt>
      <trkpt lat="45.39252" lon="2.62107">
        <ele>850</ele>
        <time>2014-05-29T11:26:30Z</time>
      </trkpt>
      <trkpt lat="45.39252" lon="2.621">
        <ele>850</ele>
        <time>2014-05-29T11:26:31Z</time>
      </trkpt>
      <trkpt lat="45.39252" lon="2.62094">
        <ele>850.1</ele>
        <time>2014-05-29T11:26:32Z</time>
      </trkpt>
      <trkpt lat="45.3925" lon="2.62082">
        <ele>850.3</ele>
        <time>2014-05-29T11:26:34Z</time>
      </trkpt>
      <trkpt lat="45.39249" lon="2.62071">
        <ele>849.8</ele>
        <time>2014-05-29T11:26:36Z</time>
      </trkpt>
      <trkpt lat="45.39248" lon="2.6206">
        <ele>849.8</ele>
        <time>2014-05-29T11:26:38Z</time>
      </trkpt>
      <trkpt lat="45.39245" lon="2.62049">
        <ele>850.1</ele>
        <time>2014-05-29T11:26:40Z</time>
      </trkpt>
      <trkpt lat="45.39244" lon="2.62044">
        <ele>850.3</ele>
        <time>2014-05-29T11:26:41Z</time>
      </trkpt>
      <trkpt lat="45.39241" lon="2.62026">
        <ele>849.8</ele>
        <time>2014-05-29T11:26:44Z</time>
      </trkpt>
      <trkpt lat="45.39239" lon="2.62014">
        <ele>849.5</ele>
        <time>2014-05-29T11:26:46Z</time>
      </trkpt>
      <trkpt lat="45.39236" lon="2.62004">
        <ele>849.6</ele>
        <time>2014-05-29T11:26:48Z</time>
      </trkpt>
      <trkpt lat="45.39233" lon="2.61994">
        <ele>849.3</ele>
        <time>2014-05-29T11:26:50Z</time>
      </trkpt>
      <trkpt lat="45.3923" lon="2.61985">
        <ele>849.3</ele>
        <time>2014-05-29T11:26:52Z</time>
      </trkpt>
      <trkpt lat="45.39227" lon="2.61975">
        <ele>848.9</ele>
        <time>2014-05-29T11:26:54Z</time>
      </trkpt>
      <trkpt lat="45.39222" lon="2.61965">
        <ele>848.6</ele>
        <time>2014-05-29T11:26:56Z</time>
      </trkpt>
      <trkpt lat="45.39218" lon="2.61955">
        <ele>848.5</ele>
        <time>2014-05-29T11:26:58Z</time>
      </trkpt>
      <trkpt lat="45.39213" lon="2.61947">
        <ele>848.8</ele>
        <time>2014-05-29T11:27:00Z</time>
      </trkpt>
      <trkpt lat="45.39208" lon="2.61939">
        <ele>848.7</ele>
        <time>2014-05-29T11:27:02Z</time>
      </trkpt>
      <trkpt lat="45.39204" lon="2.6193">
        <ele>848.6</ele>
        <time>2014-05-29T11:27:05Z</time>
      </trkpt>
      <trkpt lat="45.39198" lon="2.6192">
        <ele>848.8</ele>
        <time>2014-05-29T11:27:10Z</time>
      </trkpt>
      <trkpt lat="45.39191" lon="2.61917">
        <ele>850.2</ele>
        <time>2014-05-29T11:27:15Z</time>
      </trkpt>
      <trkpt lat="45.39183" lon="2.61915">
        <ele>849.5</ele>
        <time>2014-05-29T11:27:19Z</time>
      </trkpt>
      <trkpt lat="45.39176" lon="2.61912">
        <ele>850.6</ele>
        <time>2014-05-29T11:27:23Z</time>
      </trkpt>
      <trkpt lat="45.3917" lon="2.61905">
        <ele>851.2</ele>
        <time>2014-05-29T11:27:27Z</time>
      </trkpt>
      <trkpt lat="45.39164" lon="2.61898">
        <ele>851.7</ele>
        <time>2014-05-29T11:27:31Z</time>
      </trkpt>
      <trkpt lat="45.39158" lon="2.61889">
        <ele>851.9</ele>
        <time>2014-05-29T11:27:36Z</time>
      </trkpt>
      <trkpt lat="45.39151" lon="2.61884">
        <ele>852.6</ele>
        <time>2014-05-29T11:27:41Z</time>
      </trkpt>
      <trkpt lat="45.3915" lon="2.61884">
        <ele>852.7</ele>
        <time>2014-05-29T11:27:42Z</time>
      </trkpt>
      <trkpt lat="45.39135" lon="2.61883">
        <ele>854</ele>
        <time>2014-05-29T11:27:50Z</time>
      </trkpt>
      <trkpt lat="45.39128" lon="2.61883">
        <ele>854.8</ele>
        <time>2014-05-29T11:27:54Z</time>
      </trkpt>
      <trkpt lat="45.3912" lon="2.61882">
        <ele>856</ele>
        <time>2014-05-29T11:27:57Z</time>
      </trkpt>
      <trkpt lat="45.39112" lon="2.6188">
        <ele>856.1</ele>
        <time>2014-05-29T11:27:59Z</time>
      </trkpt>
      <trkpt lat="45.39108" lon="2.61877">
        <ele>855.8</ele>
        <time>2014-05-29T11:28:00Z</time>
      </trkpt>
      <trkpt lat="45.39103" lon="2.61873">
        <ele>855.7</ele>
        <time>2014-05-29T11:28:01Z</time>
      </trkpt>
      <trkpt lat="45.39098" lon="2.61869">
        <ele>855.5</ele>
        <time>2014-05-29T11:28:02Z</time>
      </trkpt>
      <trkpt lat="45.39094" lon="2.61864">
        <ele>854.7</ele>
        <time>2014-05-29T11:28:03Z</time>
      </trkpt>
      <trkpt lat="45.39089" lon="2.6186">
        <ele>854.1</ele>
        <time>2014-05-29T11:28:04Z</time>
      </trkpt>
      <trkpt lat="45.39084" lon="2.61856">
        <ele>853.7</ele>
        <time>2014-05-29T11:28:05Z</time>
      </trkpt>
      <trkpt lat="45.39079" lon="2.61854">
        <ele>853.4</ele>
        <time>2014-05-29T11:28:06Z</time>
      </trkpt>
      <trkpt lat="45.39074" lon="2.61854">
        <ele>853.3</ele>
        <time>2014-05-29T11:28:07Z</time>
      </trkpt>
      <trkpt lat="45.39069" lon="2.6185">
        <ele>853.2</ele>
        <time>2014-05-29T11:28:08Z</time>
      </trkpt>
      <trkpt lat="45.39065" lon="2.61845">
        <ele>853.1</ele>
        <time>2014-05-29T11:28:09Z</time>
      </trkpt>
      <trkpt lat="45.39062" lon="2.6184">
        <ele>852.5</ele>
        <time>2014-05-29T11:28:10Z</time>
      </trkpt>
      <trkpt lat="45.39059" lon="2.61835">
        <ele>852.1</ele>
        <time>2014-05-29T11:28:11Z</time>
      </trkpt>
      <trkpt lat="45.39055" lon="2.61824">
        <ele>852.7</ele>
        <time>2014-05-29T11:28:13Z</time>
      </trkpt>
      <trkpt lat="45.39052" lon="2.61815">
        <ele>852.6</ele>
        <time>2014-05-29T11:28:15Z</time>
      </trkpt>
      <trkpt lat="45.3905" lon="2.61806">
        <ele>852.7</ele>
        <time>2014-05-29T11:28:17Z</time>
      </trkpt>
      <trkpt lat="45.39047" lon="2.61796">
        <ele>852.6</ele>
        <time>2014-05-29T11:28:20Z</time>
      </trkpt>
      <trkpt lat="45.39043" lon="2.61784">
        <ele>853.3</ele>
        <time>2014-05-29T11:28:24Z</time>
      </trkpt>
      <trkpt lat="45.39039" lon="2.61773">
        <ele>855</ele>
        <time>2014-05-29T11:28:28Z</time>
      </trkpt>
      <trkpt lat="45.39034" lon="2.61763">
        <ele>854.9</ele>
        <time>2014-05-29T11:28:32Z</time>
      </trkpt>
      <trkpt lat="45.3903" lon="2.61755">
        <ele>855.7</ele>
        <time>2014-05-29T11:28:35Z</time>
      </trkpt>
      <trkpt lat="45.39025" lon="2.61748">
        <ele>856.2</ele>
        <time>2014-05-29T11:28:38Z</time>
      </trkpt>
      <trkpt lat="45.39019" lon="2.61738">
        <ele>857.6</ele>
        <time>2014-05-29T11:28:42Z</time>
      </trkpt>
      <trkpt lat="45.39018" lon="2.61736">
        <ele>857.5</ele>
        <time>2014-05-29T11:28:43Z</time>
      </trkpt>
      <trkpt lat="45.39012" lon="2.61717">
        <ele>857.5</ele>
        <time>2014-05-29T11:28:48Z</time>
      </trkpt>
      <trkpt lat="45.39009" lon="2.6171">
        <ele>857.3</ele>
        <time>2014-05-29T11:28:50Z</time>
      </trkpt>
      <trkpt lat="45.39004" lon="2.61702">
        <ele>857.1</ele>
        <time>2014-05-29T11:28:52Z</time>
      </trkpt>
      <trkpt lat="45.39" lon="2.61694">
        <ele>857</ele>
        <time>2014-05-29T11:28:54Z</time>
      </trkpt>
      <trkpt lat="45.38994" lon="2.61686">
        <ele>856.2</ele>
        <time>2014-05-29T11:28:56Z</time>
      </trkpt>
      <trkpt lat="45.38988" lon="2.61678">
        <ele>855.7</ele>
        <time>2014-05-29T11:28:58Z</time>
      </trkpt>
      <trkpt lat="45.38982" lon="2.61669">
        <ele>855.8</ele>
        <time>2014-05-29T11:29:00Z</time>
      </trkpt>
      <trkpt lat="45.38979" lon="2.61664">
        <ele>856</ele>
        <time>2014-05-29T11:29:01Z</time>
      </trkpt>
      <trkpt lat="45.38977" lon="2.61659">
        <ele>856</ele>
        <time>2014-05-29T11:29:02Z</time>
      </trkpt>
      <trkpt lat="45.38974" lon="2.61653">
        <ele>856.1</ele>
        <time>2014-05-29T11:29:03Z</time>
      </trkpt>
      <trkpt lat="45.3897" lon="2.61642">
        <ele>856</ele>
        <time>2014-05-29T11:29:05Z</time>
      </trkpt>
      <trkpt lat="45.38967" lon="2.61637">
        <ele>856</ele>
        <time>2014-05-29T11:29:06Z</time>
      </trkpt>
      <trkpt lat="45.38965" lon="2.61632">
        <ele>855.9</ele>
        <time>2014-05-29T11:29:07Z</time>
      </trkpt>
      <trkpt lat="45.38962" lon="2.61626">
        <ele>855.8</ele>
        <time>2014-05-29T11:29:08Z</time>
      </trkpt>
      <trkpt lat="45.38959" lon="2.6162">
        <ele>855.2</ele>
        <time>2014-05-29T11:29:09Z</time>
      </trkpt>
      <trkpt lat="45.38955" lon="2.61615">
        <ele>854.8</ele>
        <time>2014-05-29T11:29:10Z</time>
      </trkpt>
      <trkpt lat="45.38952" lon="2.6161">
        <ele>854.4</ele>
        <time>2014-05-29T11:29:11Z</time>
      </trkpt>
      <trkpt lat="45.38948" lon="2.61605">
        <ele>854.2</ele>
        <time>2014-05-29T11:29:12Z</time>
      </trkpt>
      <trkpt lat="45.38943" lon="2.61601">
        <ele>854</ele>
        <time>2014-05-29T11:29:13Z</time>
      </trkpt>
      <trkpt lat="45.3894" lon="2.61597">
        <ele>853.9</ele>
        <time>2014-05-29T11:29:14Z</time>
      </trkpt>
      <trkpt lat="45.38936" lon="2.61593">
        <ele>853.9</ele>
        <time>2014-05-29T11:29:15Z</time>
      </trkpt>
      <trkpt lat="45.38932" lon="2.61589">
        <ele>853.7</ele>
        <time>2014-05-29T11:29:16Z</time>
      </trkpt>
      <trkpt lat="45.38926" lon="2.61586">
        <ele>853.6</ele>
        <time>2014-05-29T11:29:17Z</time>
      </trkpt>
      <trkpt lat="45.38922" lon="2.61582">
        <ele>853.5</ele>
        <time>2014-05-29T11:29:18Z</time>
      </trkpt>
      <trkpt lat="45.38917" lon="2.61578">
        <ele>853</ele>
        <time>2014-05-29T11:29:19Z</time>
      </trkpt>
      <trkpt lat="45.38912" lon="2.61574">
        <ele>852.6</ele>
        <time>2014-05-29T11:29:20Z</time>
      </trkpt>
      <trkpt lat="45.38905" lon="2.61568">
        <ele>852.2</ele>
        <time>2014-05-29T11:29:22Z</time>
      </trkpt>
      <trkpt lat="45.38901" lon="2.61563">
        <ele>852</ele>
        <time>2014-05-29T11:29:24Z</time>
      </trkpt>
      <trkpt lat="45.38895" lon="2.61557">
        <ele>852</ele>
        <time>2014-05-29T11:29:26Z</time>
      </trkpt>
      <trkpt lat="45.3889" lon="2.61552">
        <ele>852.1</ele>
        <time>2014-05-29T11:29:28Z</time>
      </trkpt>
      <trkpt lat="45.38886" lon="2.61547">
        <ele>852.5</ele>
        <time>2014-05-29T11:29:30Z</time>
      </trkpt>
      <trkpt lat="45.3888" lon="2.61541">
        <ele>852.9</ele>
        <time>2014-05-29T11:29:32Z</time>
      </trkpt>
      <trkpt lat="45.38876" lon="2.61534">
        <ele>853</ele>
        <time>2014-05-29T11:29:34Z</time>
      </trkpt>
      <trkpt lat="45.3887" lon="2.61529">
        <ele>852.9</ele>
        <time>2014-05-29T11:29:36Z</time>
      </trkpt>
      <trkpt lat="45.38865" lon="2.61524">
        <ele>852.6</ele>
        <time>2014-05-29T11:29:38Z</time>
      </trkpt>
      <trkpt lat="45.3886" lon="2.61518">
        <ele>852.8</ele>
        <time>2014-05-29T11:29:40Z</time>
      </trkpt>
      <trkpt lat="45.38855" lon="2.61512">
        <ele>852.8</ele>
        <time>2014-05-29T11:29:42Z</time>
      </trkpt>
      <trkpt lat="45.3885" lon="2.61505">
        <ele>852.6</ele>
        <time>2014-05-29T11:29:44Z</time>
      </trkpt>
      <trkpt lat="45.38847" lon="2.61502">
        <ele>853.1</ele>
        <time>2014-05-29T11:29:45Z</time>
      </trkpt>
      <trkpt lat="45.38837" lon="2.61492">
        <ele>853.6</ele>
        <time>2014-05-29T11:29:50Z</time>
      </trkpt>
      <trkpt lat="45.3883" lon="2.61484">
        <ele>853.6</ele>
        <time>2014-05-29T11:29:54Z</time>
      </trkpt>
      <trkpt lat="45.38823" lon="2.61477">
        <ele>854.2</ele>
        <time>2014-05-29T11:29:57Z</time>
      </trkpt>
      <trkpt lat="45.38818" lon="2.61472">
        <ele>854.5</ele>
        <time>2014-05-29T11:29:59Z</time>
      </trkpt>
      <trkpt lat="45.38812" lon="2.61465">
        <ele>854.3</ele>
        <time>2014-05-29T11:30:01Z</time>
      </trkpt>
      <trkpt lat="45.38806" lon="2.61458">
        <ele>854.1</ele>
        <time>2014-05-29T11:30:03Z</time>
      </trkpt>
      <trkpt lat="45.388" lon="2.61449">
        <ele>853.8</ele>
        <time>2014-05-29T11:30:06Z</time>
      </trkpt>
      <trkpt lat="45.38797" lon="2.61441">
        <ele>853.5</ele>
        <time>2014-05-29T11:30:09Z</time>
      </trkpt>
      <trkpt lat="45.3879" lon="2.61437">
        <ele>854.6</ele>
        <time>2014-05-29T11:30:12Z</time>
      </trkpt>
      <trkpt lat="45.38783" lon="2.61436">
        <ele>853.9</ele>
        <time>2014-05-29T11:30:15Z</time>
      </trkpt>
      <trkpt lat="45.38776" lon="2.61435">
        <ele>853.2</ele>
        <time>2014-05-29T11:30:18Z</time>
      </trkpt>
      <trkpt lat="45.38769" lon="2.61429">
        <ele>853.2</ele>
        <time>2014-05-29T11:30:22Z</time>
      </trkpt>
      <trkpt lat="45.38763" lon="2.61422">
        <ele>853.4</ele>
        <time>2014-05-29T11:30:27Z</time>
      </trkpt>
      <trkpt lat="45.38757" lon="2.61414">
        <ele>854.5</ele>
        <time>2014-05-29T11:30:32Z</time>
      </trkpt>
      <trkpt lat="45.38751" lon="2.61406">
        <ele>854.9</ele>
        <time>2014-05-29T11:30:36Z</time>
      </trkpt>
      <trkpt lat="45.38745" lon="2.61402">
        <ele>855.1</ele>
        <time>2014-05-29T11:30:38Z</time>
      </trkpt>
      <trkpt lat="45.38737" lon="2.61401">
        <ele>855.4</ele>
        <time>2014-05-29T11:30:40Z</time>
      </trkpt>
      <trkpt lat="45.38729" lon="2.61401">
        <ele>855.5</ele>
        <time>2014-05-29T11:30:42Z</time>
      </trkpt>
      <trkpt lat="45.38724" lon="2.61402">
        <ele>855.5</ele>
        <time>2014-05-29T11:30:43Z</time>
      </trkpt>
      <trkpt lat="45.38719" lon="2.61404">
        <ele>855.3</ele>
        <time>2014-05-29T11:30:44Z</time>
      </trkpt>
      <trkpt lat="45.38714" lon="2.61405">
        <ele>855.1</ele>
        <time>2014-05-29T11:30:45Z</time>
      </trkpt>
      <trkpt lat="45.3871" lon="2.61406">
        <ele>855.3</ele>
        <time>2014-05-29T11:30:46Z</time>
      </trkpt>
      <trkpt lat="45.38701" lon="2.61408">
        <ele>855.6</ele>
        <time>2014-05-29T11:30:48Z</time>
      </trkpt>
      <trkpt lat="45.38693" lon="2.61407">
        <ele>855.8</ele>
        <time>2014-05-29T11:30:50Z</time>
      </trkpt>
      <trkpt lat="45.38686" lon="2.61404">
        <ele>856.3</ele>
        <time>2014-05-29T11:30:52Z</time>
      </trkpt>
      <trkpt lat="45.38678" lon="2.61401">
        <ele>855.7</ele>
        <time>2014-05-29T11:30:54Z</time>
      </trkpt>
      <trkpt lat="45.38672" lon="2.61397">
        <ele>855.5</ele>
        <time>2014-05-29T11:30:56Z</time>
      </trkpt>
      <trkpt lat="45.38666" lon="2.61391">
        <ele>855.5</ele>
        <time>2014-05-29T11:30:58Z</time>
      </trkpt>
      <trkpt lat="45.3866" lon="2.61386">
        <ele>855.5</ele>
        <time>2014-05-29T11:31:00Z</time>
      </trkpt>
      <trkpt lat="45.38654" lon="2.6138">
        <ele>855.7</ele>
        <time>2014-05-29T11:31:02Z</time>
      </trkpt>
      <trkpt lat="45.38647" lon="2.61372">
        <ele>855.8</ele>
        <time>2014-05-29T11:31:04Z</time>
      </trkpt>
      <trkpt lat="45.38644" lon="2.61368">
        <ele>855.5</ele>
        <time>2014-05-29T11:31:05Z</time>
      </trkpt>
      <trkpt lat="45.3864" lon="2.61363">
        <ele>855.3</ele>
        <time>2014-05-29T11:31:06Z</time>
      </trkpt>
      <trkpt lat="45.38633" lon="2.61355">
        <ele>854.6</ele>
        <time>2014-05-29T11:31:08Z</time>
      </trkpt>
      <trkpt lat="45.38626" lon="2.61348">
        <ele>854.1</ele>
        <time>2014-05-29T11:31:10Z</time>
      </trkpt>
      <trkpt lat="45.3862" lon="2.6134">
        <ele>853.9</ele>
        <time>2014-05-29T11:31:12Z</time>
      </trkpt>
      <trkpt lat="45.38612" lon="2.61334">
        <ele>853.6</ele>
        <time>2014-05-29T11:31:14Z</time>
      </trkpt>
      <trkpt lat="45.38606" lon="2.6133">
        <ele>853.2</ele>
        <time>2014-05-29T11:31:16Z</time>
      </trkpt>
      <trkpt lat="45.386" lon="2.61323">
        <ele>852.2</ele>
        <time>2014-05-29T11:31:19Z</time>
      </trkpt>
      <trkpt lat="45.38594" lon="2.61316">
        <ele>851.4</ele>
        <time>2014-05-29T11:31:22Z</time>
      </trkpt>
      <trkpt lat="45.3859" lon="2.61308">
        <ele>851.6</ele>
        <time>2014-05-29T11:31:24Z</time>
      </trkpt>
      <trkpt lat="45.38586" lon="2.61299">
        <ele>852</ele>
        <time>2014-05-29T11:31:26Z</time>
      </trkpt>
      <trkpt lat="45.38581" lon="2.61289">
        <ele>851.3</ele>
        <time>2014-05-29T11:31:28Z</time>
      </trkpt>
      <trkpt lat="45.38577" lon="2.61285">
        <ele>851</ele>
        <time>2014-05-29T11:31:29Z</time>
      </trkpt>
      <trkpt lat="45.38572" lon="2.61281">
        <ele>850.8</ele>
        <time>2014-05-29T11:31:30Z</time>
      </trkpt>
      <trkpt lat="45.38568" lon="2.61277">
        <ele>850.5</ele>
        <time>2014-05-29T11:31:31Z</time>
      </trkpt>
      <trkpt lat="45.38564" lon="2.61273">
        <ele>850.2</ele>
        <time>2014-05-29T11:31:32Z</time>
      </trkpt>
      <trkpt lat="45.38557" lon="2.61269">
        <ele>849.5</ele>
        <time>2014-05-29T11:31:34Z</time>
      </trkpt>
      <trkpt lat="45.3855" lon="2.61266">
        <ele>848.7</ele>
        <time>2014-05-29T11:31:36Z</time>
      </trkpt>
      <trkpt lat="45.38546" lon="2.61266">
        <ele>848.5</ele>
        <time>2014-05-29T11:31:37Z</time>
      </trkpt>
      <trkpt lat="45.38541" lon="2.61265">
        <ele>848.4</ele>
        <time>2014-05-29T11:31:38Z</time>
      </trkpt>
      <trkpt lat="45.38536" lon="2.61264">
        <ele>847.6</ele>
        <time>2014-05-29T11:31:39Z</time>
      </trkpt>
      <trkpt lat="45.3853" lon="2.61263">
        <ele>847</ele>
        <time>2014-05-29T11:31:40Z</time>
      </trkpt>
      <trkpt lat="45.38525" lon="2.61264">
        <ele>846.9</ele>
        <time>2014-05-29T11:31:41Z</time>
      </trkpt>
      <trkpt lat="45.3852" lon="2.61264">
        <ele>846.8</ele>
        <time>2014-05-29T11:31:42Z</time>
      </trkpt>
      <trkpt lat="45.38514" lon="2.61264">
        <ele>846.6</ele>
        <time>2014-05-29T11:31:43Z</time>
      </trkpt>
      <trkpt lat="45.38506" lon="2.61263">
        <ele>846.2</ele>
        <time>2014-05-29T11:31:45Z</time>
      </trkpt>
      <trkpt lat="45.38499" lon="2.61261">
        <ele>845.5</ele>
        <time>2014-05-29T11:31:47Z</time>
      </trkpt>
      <trkpt lat="45.38494" lon="2.61259">
        <ele>845.1</ele>
        <time>2014-05-29T11:31:48Z</time>
      </trkpt>
      <trkpt lat="45.38482" lon="2.61255">
        <ele>844.2</ele>
        <time>2014-05-29T11:31:51Z</time>
      </trkpt>
      <trkpt lat="45.38476" lon="2.61255">
        <ele>844.1</ele>
        <time>2014-05-29T11:31:52Z</time>
      </trkpt>
      <trkpt lat="45.38471" lon="2.61255">
        <ele>843.9</ele>
        <time>2014-05-29T11:31:53Z</time>
      </trkpt>
      <trkpt lat="45.38464" lon="2.61252">
        <ele>843.1</ele>
        <time>2014-05-29T11:31:55Z</time>
      </trkpt>
      <trkpt lat="45.38457" lon="2.61248">
        <ele>842.1</ele>
        <time>2014-05-29T11:31:57Z</time>
      </trkpt>
      <trkpt lat="45.3845" lon="2.61242">
        <ele>841.3</ele>
        <time>2014-05-29T11:31:59Z</time>
      </trkpt>
      <trkpt lat="45.38444" lon="2.61238">
        <ele>841</ele>
        <time>2014-05-29T11:32:01Z</time>
      </trkpt>
      <trkpt lat="45.38439" lon="2.61228">
        <ele>840.5</ele>
        <time>2014-05-29T11:32:04Z</time>
      </trkpt>
      <trkpt lat="45.38435" lon="2.61219">
        <ele>840.5</ele>
        <time>2014-05-29T11:32:06Z</time>
      </trkpt>
      <trkpt lat="45.3843" lon="2.61211">
        <ele>839.8</ele>
        <time>2014-05-29T11:32:08Z</time>
      </trkpt>
      <trkpt lat="45.38424" lon="2.61204">
        <ele>839.7</ele>
        <time>2014-05-29T11:32:10Z</time>
      </trkpt>
      <trkpt lat="45.38418" lon="2.61197">
        <ele>839.9</ele>
        <time>2014-05-29T11:32:12Z</time>
      </trkpt>
      <trkpt lat="45.38411" lon="2.61189">
        <ele>839.8</ele>
        <time>2014-05-29T11:32:14Z</time>
      </trkpt>
      <trkpt lat="45.38404" lon="2.61181">
        <ele>839.4</ele>
        <time>2014-05-29T11:32:16Z</time>
      </trkpt>
      <trkpt lat="45.38398" lon="2.61174">
        <ele>839.1</ele>
        <time>2014-05-29T11:32:18Z</time>
      </trkpt>
      <trkpt lat="45.38392" lon="2.61166">
        <ele>838.7</ele>
        <time>2014-05-29T11:32:20Z</time>
      </trkpt>
      <trkpt lat="45.3839" lon="2.61155">
        <ele>837.7</ele>
        <time>2014-05-29T11:32:22Z</time>
      </trkpt>
      <trkpt lat="45.38391" lon="2.61148">
        <ele>837.3</ele>
        <time>2014-05-29T11:32:23Z</time>
      </trkpt>
      <trkpt lat="45.38393" lon="2.61141">
        <ele>837</ele>
        <time>2014-05-29T11:32:24Z</time>
      </trkpt>
      <trkpt lat="45.38394" lon="2.61134">
        <ele>836.8</ele>
        <time>2014-05-29T11:32:25Z</time>
      </trkpt>
      <trkpt lat="45.38396" lon="2.61127">
        <ele>836.2</ele>
        <time>2014-05-29T11:32:26Z</time>
      </trkpt>
      <trkpt lat="45.38398" lon="2.6112">
        <ele>835.9</ele>
        <time>2014-05-29T11:32:27Z</time>
      </trkpt>
      <trkpt lat="45.384" lon="2.61113">
        <ele>835.7</ele>
        <time>2014-05-29T11:32:28Z</time>
      </trkpt>
      <trkpt lat="45.38402" lon="2.61107">
        <ele>835.5</ele>
        <time>2014-05-29T11:32:29Z</time>
      </trkpt>
      <trkpt lat="45.38402" lon="2.61094">
        <ele>835.7</ele>
        <time>2014-05-29T11:32:31Z</time>
      </trkpt>
      <trkpt lat="45.38399" lon="2.61083">
        <ele>836</ele>
        <time>2014-05-29T11:32:33Z</time>
      </trkpt>
      <trkpt lat="45.38394" lon="2.61075">
        <ele>836.3</ele>
        <time>2014-05-29T11:32:35Z</time>
      </trkpt>
      <trkpt lat="45.3839" lon="2.61067">
        <ele>836.5</ele>
        <time>2014-05-29T11:32:37Z</time>
      </trkpt>
      <trkpt lat="45.38387" lon="2.61058">
        <ele>836</ele>
        <time>2014-05-29T11:32:39Z</time>
      </trkpt>
      <trkpt lat="45.38383" lon="2.61049">
        <ele>835.4</ele>
        <time>2014-05-29T11:32:41Z</time>
      </trkpt>
      <trkpt lat="45.38379" lon="2.61038">
        <ele>835</ele>
        <time>2014-05-29T11:32:43Z</time>
      </trkpt>
      <trkpt lat="45.38377" lon="2.61032">
        <ele>834.9</ele>
        <time>2014-05-29T11:32:44Z</time>
      </trkpt>
      <trkpt lat="45.38373" lon="2.61026">
        <ele>834.4</ele>
        <time>2014-05-29T11:32:45Z</time>
      </trkpt>
      <trkpt lat="45.38369" lon="2.6102">
        <ele>834</ele>
        <time>2014-05-29T11:32:46Z</time>
      </trkpt>
      <trkpt lat="45.38365" lon="2.61014">
        <ele>833.5</ele>
        <time>2014-05-29T11:32:47Z</time>
      </trkpt>
      <trkpt lat="45.3836" lon="2.61009">
        <ele>833.2</ele>
        <time>2014-05-29T11:32:48Z</time>
      </trkpt>
      <trkpt lat="45.38356" lon="2.61004">
        <ele>832.9</ele>
        <time>2014-05-29T11:32:49Z</time>
      </trkpt>
      <trkpt lat="45.38352" lon="2.60999">
        <ele>833</ele>
        <time>2014-05-29T11:32:50Z</time>
      </trkpt>
      <trkpt lat="45.38347" lon="2.60995">
        <ele>833</ele>
        <time>2014-05-29T11:32:51Z</time>
      </trkpt>
      <trkpt lat="45.38343" lon="2.6099">
        <ele>832.3</ele>
        <time>2014-05-29T11:32:52Z</time>
      </trkpt>
      <trkpt lat="45.3834" lon="2.60985">
        <ele>831.7</ele>
        <time>2014-05-29T11:32:53Z</time>
      </trkpt>
      <trkpt lat="45.38336" lon="2.60973">
        <ele>831</ele>
        <time>2014-05-29T11:32:55Z</time>
      </trkpt>
      <trkpt lat="45.38334" lon="2.60961">
        <ele>831.2</ele>
        <time>2014-05-29T11:32:57Z</time>
      </trkpt>
      <trkpt lat="45.38336" lon="2.60949">
        <ele>831.7</ele>
        <time>2014-05-29T11:33:00Z</time>
      </trkpt>
      <trkpt lat="45.38338" lon="2.6094">
        <ele>831.7</ele>
        <time>2014-05-29T11:33:03Z</time>
      </trkpt>
      <trkpt lat="45.38338" lon="2.60929">
        <ele>832.2</ele>
        <time>2014-05-29T11:33:06Z</time>
      </trkpt>
      <trkpt lat="45.38337" lon="2.6092">
        <ele>832.6</ele>
        <time>2014-05-29T11:33:09Z</time>
      </trkpt>
      <trkpt lat="45.38336" lon="2.60908">
        <ele>834</ele>
        <time>2014-05-29T11:33:13Z</time>
      </trkpt>
      <trkpt lat="45.38336" lon="2.60899">
        <ele>834.4</ele>
        <time>2014-05-29T11:33:16Z</time>
      </trkpt>
      <trkpt lat="45.38336" lon="2.60886">
        <ele>834.3</ele>
        <time>2014-05-29T11:33:19Z</time>
      </trkpt>
      <trkpt lat="45.38336" lon="2.60877">
        <ele>834</ele>
        <time>2014-05-29T11:33:21Z</time>
      </trkpt>
      <trkpt lat="45.38338" lon="2.60866">
        <ele>833.7</ele>
        <time>2014-05-29T11:33:24Z</time>
      </trkpt>
      <trkpt lat="45.38343" lon="2.60856">
        <ele>833.7</ele>
        <time>2014-05-29T11:33:28Z</time>
      </trkpt>
      <trkpt lat="45.38351" lon="2.60849">
        <ele>833.8</ele>
        <time>2014-05-29T11:33:32Z</time>
      </trkpt>
      <trkpt lat="45.38357" lon="2.60848">
        <ele>834</ele>
        <time>2014-05-29T11:33:35Z</time>
      </trkpt>
      <trkpt lat="45.38365" lon="2.60849">
        <ele>833.6</ele>
        <time>2014-05-29T11:33:38Z</time>
      </trkpt>
      <trkpt lat="45.38372" lon="2.60853">
        <ele>833.8</ele>
        <time>2014-05-29T11:33:41Z</time>
      </trkpt>
      <trkpt lat="45.38379" lon="2.60857">
        <ele>835</ele>
        <time>2014-05-29T11:33:44Z</time>
      </trkpt>
      <trkpt lat="45.38385" lon="2.60863">
        <ele>835.5</ele>
        <time>2014-05-29T11:33:47Z</time>
      </trkpt>
      <trkpt lat="45.38391" lon="2.60869">
        <ele>835.3</ele>
        <time>2014-05-29T11:33:50Z</time>
      </trkpt>
      <trkpt lat="45.38393" lon="2.60871">
        <ele>835.1</ele>
        <time>2014-05-29T11:33:51Z</time>
      </trkpt>
      <trkpt lat="45.38403" lon="2.60886">
        <ele>835.5</ele>
        <time>2014-05-29T11:33:58Z</time>
      </trkpt>
      <trkpt lat="45.38408" lon="2.60896">
        <ele>836.3</ele>
        <time>2014-05-29T11:34:02Z</time>
      </trkpt>
      <trkpt lat="45.38412" lon="2.60905">
        <ele>837.6</ele>
        <time>2014-05-29T11:34:06Z</time>
      </trkpt>
      <trkpt lat="45.38418" lon="2.60913">
        <ele>838</ele>
        <time>2014-05-29T11:34:10Z</time>
      </trkpt>
      <trkpt lat="45.38423" lon="2.6092">
        <ele>838.1</ele>
        <time>2014-05-29T11:34:14Z</time>
      </trkpt>
      <trkpt lat="45.38432" lon="2.6092">
        <ele>838.6</ele>
        <time>2014-05-29T11:34:20Z</time>
      </trkpt>
      <trkpt lat="45.38434" lon="2.60909">
        <ele>840.8</ele>
        <time>2014-05-29T11:34:26Z</time>
      </trkpt>
      <trkpt lat="45.38434" lon="2.60898">
        <ele>841.2</ele>
        <time>2014-05-29T11:34:30Z</time>
      </trkpt>
      <trkpt lat="45.38432" lon="2.60886">
        <ele>841.1</ele>
        <time>2014-05-29T11:34:34Z</time>
      </trkpt>
      <trkpt lat="45.38431" lon="2.60874">
        <ele>840.8</ele>
        <time>2014-05-29T11:34:37Z</time>
      </trkpt>
      <trkpt lat="45.3843" lon="2.60863">
        <ele>840.6</ele>
        <time>2014-05-29T11:34:39Z</time>
      </trkpt>
      <trkpt lat="45.3843" lon="2.60857">
        <ele>840.4</ele>
        <time>2014-05-29T11:34:40Z</time>
      </trkpt>
      <trkpt lat="45.3843" lon="2.60849">
        <ele>839.6</ele>
        <time>2014-05-29T11:34:41Z</time>
      </trkpt>
      <trkpt lat="45.38431" lon="2.60841">
        <ele>839.1</ele>
        <time>2014-05-29T11:34:42Z</time>
      </trkpt>
      <trkpt lat="45.38432" lon="2.6083">
        <ele>837.8</ele>
        <time>2014-05-29T11:34:44Z</time>
      </trkpt>
      <trkpt lat="45.38434" lon="2.6082">
        <ele>836.3</ele>
        <time>2014-05-29T11:34:46Z</time>
      </trkpt>
      <trkpt lat="45.38437" lon="2.60811">
        <ele>834.2</ele>
        <time>2014-05-29T11:34:48Z</time>
      </trkpt>
      <trkpt lat="45.38441" lon="2.60802">
        <ele>832.4</ele>
        <time>2014-05-29T11:34:50Z</time>
      </trkpt>
      <trkpt lat="45.38445" lon="2.60794">
        <ele>831.2</ele>
        <time>2014-05-29T11:34:52Z</time>
      </trkpt>
      <trkpt lat="45.38447" lon="2.6079">
        <ele>830.4</ele>
        <time>2014-05-29T11:34:53Z</time>
      </trkpt>
      <trkpt lat="45.38451" lon="2.60774">
        <ele>829.2</ele>
        <time>2014-05-29T11:34:56Z</time>
      </trkpt>
      <trkpt lat="45.38453" lon="2.60763">
        <ele>828.7</ele>
        <time>2014-05-29T11:34:58Z</time>
      </trkpt>
      <trkpt lat="45.38457" lon="2.60754">
        <ele>828</ele>
        <time>2014-05-29T11:35:00Z</time>
      </trkpt>
      <trkpt lat="45.38461" lon="2.60747">
        <ele>827.3</ele>
        <time>2014-05-29T11:35:02Z</time>
      </trkpt>
      <trkpt lat="45.38465" lon="2.60737">
        <ele>826.8</ele>
        <time>2014-05-29T11:35:05Z</time>
      </trkpt>
      <trkpt lat="45.38468" lon="2.60727">
        <ele>826.2</ele>
        <time>2014-05-29T11:35:08Z</time>
      </trkpt>
      <trkpt lat="45.38473" lon="2.60718">
        <ele>825.6</ele>
        <time>2014-05-29T11:35:11Z</time>
      </trkpt>
      <trkpt lat="45.38475" lon="2.60709">
        <ele>825.8</ele>
        <time>2014-05-29T11:35:13Z</time>
      </trkpt>
      <trkpt lat="45.38477" lon="2.60697">
        <ele>825.5</ele>
        <time>2014-05-29T11:35:16Z</time>
      </trkpt>
      <trkpt lat="45.38479" lon="2.60686">
        <ele>823.5</ele>
        <time>2014-05-29T11:35:21Z</time>
      </trkpt>
      <trkpt lat="45.38482" lon="2.60674">
        <ele>823.2</ele>
        <time>2014-05-29T11:35:27Z</time>
      </trkpt>
      <trkpt lat="45.38485" lon="2.60664">
        <ele>823.7</ele>
        <time>2014-05-29T11:35:33Z</time>
      </trkpt>
      <trkpt lat="45.38486" lon="2.60653">
        <ele>823.7</ele>
        <time>2014-05-29T11:35:38Z</time>
      </trkpt>
      <trkpt lat="45.38487" lon="2.60641">
        <ele>823.8</ele>
        <time>2014-05-29T11:35:42Z</time>
      </trkpt>
      <trkpt lat="45.38487" lon="2.6063">
        <ele>824.8</ele>
        <time>2014-05-29T11:35:45Z</time>
      </trkpt>
      <trkpt lat="45.38492" lon="2.60623">
        <ele>825.4</ele>
        <time>2014-05-29T11:35:48Z</time>
      </trkpt>
      <trkpt lat="45.38497" lon="2.60619">
        <ele>825.5</ele>
        <time>2014-05-29T11:35:50Z</time>
      </trkpt>
      <trkpt lat="45.38503" lon="2.60613">
        <ele>825.4</ele>
        <time>2014-05-29T11:35:52Z</time>
      </trkpt>
      <trkpt lat="45.38509" lon="2.60609">
        <ele>825.1</ele>
        <time>2014-05-29T11:35:54Z</time>
      </trkpt>
      <trkpt lat="45.38513" lon="2.60607">
        <ele>825.1</ele>
        <time>2014-05-29T11:35:55Z</time>
      </trkpt>
      <trkpt lat="45.38522" lon="2.60601">
        <ele>824.9</ele>
        <time>2014-05-29T11:35:58Z</time>
      </trkpt>
      <trkpt lat="45.38531" lon="2.60597">
        <ele>824.4</ele>
        <time>2014-05-29T11:36:01Z</time>
      </trkpt>
      <trkpt lat="45.38538" lon="2.60594">
        <ele>824.6</ele>
        <time>2014-05-29T11:36:03Z</time>
      </trkpt>
      <trkpt lat="45.38545" lon="2.60589">
        <ele>824.6</ele>
        <time>2014-05-29T11:36:05Z</time>
      </trkpt>
      <trkpt lat="45.38553" lon="2.60587">
        <ele>824.3</ele>
        <time>2014-05-29T11:36:07Z</time>
      </trkpt>
      <trkpt lat="45.38559" lon="2.60589">
        <ele>823.4</ele>
        <time>2014-05-29T11:36:09Z</time>
      </trkpt>
      <trkpt lat="45.38565" lon="2.60584">
        <ele>822.7</ele>
        <time>2014-05-29T11:36:11Z</time>
      </trkpt>
      <trkpt lat="45.38568" lon="2.60575">
        <ele>822.4</ele>
        <time>2014-05-29T11:36:13Z</time>
      </trkpt>
      <trkpt lat="45.3857" lon="2.60564">
        <ele>822.3</ele>
        <time>2014-05-29T11:36:16Z</time>
      </trkpt>
      <trkpt lat="45.38573" lon="2.60553">
        <ele>823</ele>
        <time>2014-05-29T11:36:19Z</time>
      </trkpt>
      <trkpt lat="45.38576" lon="2.60542">
        <ele>823.3</ele>
        <time>2014-05-29T11:36:22Z</time>
      </trkpt>
      <trkpt lat="45.38576" lon="2.60531">
        <ele>823.3</ele>
        <time>2014-05-29T11:36:25Z</time>
      </trkpt>
      <trkpt lat="45.38578" lon="2.60522">
        <ele>823.1</ele>
        <time>2014-05-29T11:36:28Z</time>
      </trkpt>
      <trkpt lat="45.38581" lon="2.6051">
        <ele>822.7</ele>
        <time>2014-05-29T11:36:31Z</time>
      </trkpt>
      <trkpt lat="45.38584" lon="2.60502">
        <ele>822.7</ele>
        <time>2014-05-29T11:36:33Z</time>
      </trkpt>
      <trkpt lat="45.38588" lon="2.60491">
        <ele>822.8</ele>
        <time>2014-05-29T11:36:36Z</time>
      </trkpt>
      <trkpt lat="45.38591" lon="2.60482">
        <ele>822.9</ele>
        <time>2014-05-29T11:36:38Z</time>
      </trkpt>
      <trkpt lat="45.38594" lon="2.60471">
        <ele>823</ele>
        <time>2014-05-29T11:36:40Z</time>
      </trkpt>
      <trkpt lat="45.38597" lon="2.6046">
        <ele>823</ele>
        <time>2014-05-29T11:36:42Z</time>
      </trkpt>
      <trkpt lat="45.386" lon="2.60449">
        <ele>822.9</ele>
        <time>2014-05-29T11:36:44Z</time>
      </trkpt>
      <trkpt lat="45.38603" lon="2.60439">
        <ele>822.3</ele>
        <time>2014-05-29T11:36:49Z</time>
      </trkpt>
      <trkpt lat="45.38607" lon="2.6043">
        <ele>822.2</ele>
        <time>2014-05-29T11:36:54Z</time>
      </trkpt>
      <trkpt lat="45.38611" lon="2.60421">
        <ele>822.9</ele>
        <time>2014-05-29T11:36:57Z</time>
      </trkpt>
      <trkpt lat="45.38613" lon="2.60416">
        <ele>823</ele>
        <time>2014-05-29T11:36:58Z</time>
      </trkpt>
      <trkpt lat="45.38615" lon="2.60402">
        <ele>822.7</ele>
        <time>2014-05-29T11:37:01Z</time>
      </trkpt>
      <trkpt lat="45.38617" lon="2.60392">
        <ele>822.8</ele>
        <time>2014-05-29T11:37:03Z</time>
      </trkpt>
      <trkpt lat="45.3862" lon="2.60384">
        <ele>822.9</ele>
        <time>2014-05-29T11:37:05Z</time>
      </trkpt>
      <trkpt lat="45.38622" lon="2.60374">
        <ele>822.6</ele>
        <time>2014-05-29T11:37:07Z</time>
      </trkpt>
      <trkpt lat="45.38624" lon="2.60362">
        <ele>822.8</ele>
        <time>2014-05-29T11:37:09Z</time>
      </trkpt>
      <trkpt lat="45.38627" lon="2.60351">
        <ele>822.9</ele>
        <time>2014-05-29T11:37:11Z</time>
      </trkpt>
      <trkpt lat="45.38628" lon="2.60338">
        <ele>823.2</ele>
        <time>2014-05-29T11:37:13Z</time>
      </trkpt>
      <trkpt lat="45.38628" lon="2.60328">
        <ele>823.6</ele>
        <time>2014-05-29T11:37:15Z</time>
      </trkpt>
      <trkpt lat="45.38627" lon="2.60316">
        <ele>823.5</ele>
        <time>2014-05-29T11:37:18Z</time>
      </trkpt>
      <trkpt lat="45.38628" lon="2.60305">
        <ele>823.9</ele>
        <time>2014-05-29T11:37:22Z</time>
      </trkpt>
      <trkpt lat="45.38626" lon="2.60293">
        <ele>823.9</ele>
        <time>2014-05-29T11:37:25Z</time>
      </trkpt>
      <trkpt lat="45.38624" lon="2.60283">
        <ele>824</ele>
        <time>2014-05-29T11:37:27Z</time>
      </trkpt>
      <trkpt lat="45.38625" lon="2.60274">
        <ele>824</ele>
        <time>2014-05-29T11:37:29Z</time>
      </trkpt>
      <trkpt lat="45.3863" lon="2.60266">
        <ele>823.8</ele>
        <time>2014-05-29T11:37:31Z</time>
      </trkpt>
      <trkpt lat="45.38635" lon="2.60257">
        <ele>823.6</ele>
        <time>2014-05-29T11:37:33Z</time>
      </trkpt>
      <trkpt lat="45.38637" lon="2.60249">
        <ele>823.2</ele>
        <time>2014-05-29T11:37:35Z</time>
      </trkpt>
      <trkpt lat="45.38641" lon="2.6024">
        <ele>823</ele>
        <time>2014-05-29T11:37:37Z</time>
      </trkpt>
      <trkpt lat="45.38645" lon="2.60232">
        <ele>822.8</ele>
        <time>2014-05-29T11:37:39Z</time>
      </trkpt>
      <trkpt lat="45.3865" lon="2.60221">
        <ele>823.3</ele>
        <time>2014-05-29T11:37:42Z</time>
      </trkpt>
      <trkpt lat="45.38654" lon="2.60211">
        <ele>824.1</ele>
        <time>2014-05-29T11:37:45Z</time>
      </trkpt>
      <trkpt lat="45.38657" lon="2.60201">
        <ele>824.8</ele>
        <time>2014-05-29T11:37:48Z</time>
      </trkpt>
      <trkpt lat="45.38663" lon="2.60191">
        <ele>825</ele>
        <time>2014-05-29T11:37:51Z</time>
      </trkpt>
      <trkpt lat="45.38669" lon="2.60185">
        <ele>826.2</ele>
        <time>2014-05-29T11:37:54Z</time>
      </trkpt>
      <trkpt lat="45.38676" lon="2.60182">
        <ele>826.7</ele>
        <time>2014-05-29T11:37:57Z</time>
      </trkpt>
      <trkpt lat="45.38683" lon="2.6018">
        <ele>827.8</ele>
        <time>2014-05-29T11:38:00Z</time>
      </trkpt>
      <trkpt lat="45.38685" lon="2.60179">
        <ele>827.9</ele>
        <time>2014-05-29T11:38:01Z</time>
      </trkpt>
      <trkpt lat="45.38695" lon="2.60175">
        <ele>828.1</ele>
        <time>2014-05-29T11:38:05Z</time>
      </trkpt>
      <trkpt lat="45.38702" lon="2.60172">
        <ele>828.4</ele>
        <time>2014-05-29T11:38:07Z</time>
      </trkpt>
      <trkpt lat="45.38709" lon="2.60166">
        <ele>828.5</ele>
        <time>2014-05-29T11:38:10Z</time>
      </trkpt>
      <trkpt lat="45.38715" lon="2.60159">
        <ele>828.7</ele>
        <time>2014-05-29T11:38:13Z</time>
      </trkpt>
      <trkpt lat="45.38722" lon="2.60152">
        <ele>828.6</ele>
        <time>2014-05-29T11:38:16Z</time>
      </trkpt>
      <trkpt lat="45.3873" lon="2.60147">
        <ele>829.5</ele>
        <time>2014-05-29T11:38:19Z</time>
      </trkpt>
      <trkpt lat="45.38739" lon="2.60145">
        <ele>829.9</ele>
        <time>2014-05-29T11:38:22Z</time>
      </trkpt>
      <trkpt lat="45.38745" lon="2.60146">
        <ele>829.8</ele>
        <time>2014-05-29T11:38:24Z</time>
      </trkpt>
      <trkpt lat="45.38753" lon="2.60148">
        <ele>829.9</ele>
        <time>2014-05-29T11:38:27Z</time>
      </trkpt>
      <trkpt lat="45.38762" lon="2.60148">
        <ele>829.9</ele>
        <time>2014-05-29T11:38:30Z</time>
      </trkpt>
      <trkpt lat="45.38771" lon="2.60148">
        <ele>830.3</ele>
        <time>2014-05-29T11:38:33Z</time>
      </trkpt>
      <trkpt lat="45.38778" lon="2.60146">
        <ele>830.3</ele>
        <time>2014-05-29T11:38:36Z</time>
      </trkpt>
      <trkpt lat="45.38786" lon="2.60141">
        <ele>830.7</ele>
        <time>2014-05-29T11:38:40Z</time>
      </trkpt>
      <trkpt lat="45.38794" lon="2.60136">
        <ele>830.4</ele>
        <time>2014-05-29T11:38:44Z</time>
      </trkpt>
      <trkpt lat="45.38801" lon="2.6013">
        <ele>830.7</ele>
        <time>2014-05-29T11:38:48Z</time>
      </trkpt>
      <trkpt lat="45.38807" lon="2.60126">
        <ele>831.3</ele>
        <time>2014-05-29T11:38:50Z</time>
      </trkpt>
      <trkpt lat="45.38813" lon="2.60123">
        <ele>832</ele>
        <time>2014-05-29T11:38:52Z</time>
      </trkpt>
      <trkpt lat="45.38821" lon="2.60122">
        <ele>831.3</ele>
        <time>2014-05-29T11:38:54Z</time>
      </trkpt>
      <trkpt lat="45.38825" lon="2.60122">
        <ele>831</ele>
        <time>2014-05-29T11:38:55Z</time>
      </trkpt>
      <trkpt lat="45.3883" lon="2.60121">
        <ele>830.8</ele>
        <time>2014-05-29T11:38:56Z</time>
      </trkpt>
      <trkpt lat="45.38835" lon="2.60117">
        <ele>830.6</ele>
        <time>2014-05-29T11:38:57Z</time>
      </trkpt>
      <trkpt lat="45.3884" lon="2.60111">
        <ele>829.8</ele>
        <time>2014-05-29T11:38:58Z</time>
      </trkpt>
      <trkpt lat="45.38843" lon="2.60105">
        <ele>829.1</ele>
        <time>2014-05-29T11:38:59Z</time>
      </trkpt>
      <trkpt lat="45.38847" lon="2.601">
        <ele>828.9</ele>
        <time>2014-05-29T11:39:00Z</time>
      </trkpt>
      <trkpt lat="45.38854" lon="2.60091">
        <ele>828.7</ele>
        <time>2014-05-29T11:39:02Z</time>
      </trkpt>
      <trkpt lat="45.38856" lon="2.60087">
        <ele>828.8</ele>
        <time>2014-05-29T11:39:03Z</time>
      </trkpt>
      <trkpt lat="45.38863" lon="2.60072">
        <ele>828.1</ele>
        <time>2014-05-29T11:39:06Z</time>
      </trkpt>
      <trkpt lat="45.38864" lon="2.60065">
        <ele>828</ele>
        <time>2014-05-29T11:39:07Z</time>
      </trkpt>
      <trkpt lat="45.38865" lon="2.60057">
        <ele>828</ele>
        <time>2014-05-29T11:39:08Z</time>
      </trkpt>
      <trkpt lat="45.38866" lon="2.60049">
        <ele>827.7</ele>
        <time>2014-05-29T11:39:09Z</time>
      </trkpt>
      <trkpt lat="45.38868" lon="2.60042">
        <ele>827.5</ele>
        <time>2014-05-29T11:39:10Z</time>
      </trkpt>
      <trkpt lat="45.38871" lon="2.60036">
        <ele>827.4</ele>
        <time>2014-05-29T11:39:11Z</time>
      </trkpt>
      <trkpt lat="45.38876" lon="2.60027">
        <ele>827</ele>
        <time>2014-05-29T11:39:13Z</time>
      </trkpt>
      <trkpt lat="45.3888" lon="2.60016">
        <ele>828.8</ele>
        <time>2014-05-29T11:39:16Z</time>
      </trkpt>
      <trkpt lat="45.38881" lon="2.60005">
        <ele>829.3</ele>
        <time>2014-05-29T11:39:18Z</time>
      </trkpt>
      <trkpt lat="45.38882" lon="2.59999">
        <ele>829</ele>
        <time>2014-05-29T11:39:19Z</time>
      </trkpt>
      <trkpt lat="45.38883" lon="2.59992">
        <ele>828.7</ele>
        <time>2014-05-29T11:39:20Z</time>
      </trkpt>
      <trkpt lat="45.38884" lon="2.59984">
        <ele>828.5</ele>
        <time>2014-05-29T11:39:21Z</time>
      </trkpt>
      <trkpt lat="45.38886" lon="2.59978">
        <ele>828.4</ele>
        <time>2014-05-29T11:39:22Z</time>
      </trkpt>
      <trkpt lat="45.38887" lon="2.59971">
        <ele>828.3</ele>
        <time>2014-05-29T11:39:23Z</time>
      </trkpt>
      <trkpt lat="45.38888" lon="2.59965">
        <ele>828.3</ele>
        <time>2014-05-29T11:39:24Z</time>
      </trkpt>
      <trkpt lat="45.3889" lon="2.59958">
        <ele>828.3</ele>
        <time>2014-05-29T11:39:25Z</time>
      </trkpt>
      <trkpt lat="45.3889" lon="2.59951">
        <ele>827.7</ele>
        <time>2014-05-29T11:39:26Z</time>
      </trkpt>
      <trkpt lat="45.38891" lon="2.59943">
        <ele>827.3</ele>
        <time>2014-05-29T11:39:27Z</time>
      </trkpt>
      <trkpt lat="45.38892" lon="2.59936">
        <ele>827.5</ele>
        <time>2014-05-29T11:39:28Z</time>
      </trkpt>
      <trkpt lat="45.38893" lon="2.59923">
        <ele>827.7</ele>
        <time>2014-05-29T11:39:30Z</time>
      </trkpt>
      <trkpt lat="45.38893" lon="2.59917">
        <ele>827.7</ele>
        <time>2014-05-29T11:39:31Z</time>
      </trkpt>
      <trkpt lat="45.38893" lon="2.5991">
        <ele>827.8</ele>
        <time>2014-05-29T11:39:32Z</time>
      </trkpt>
      <trkpt lat="45.38893" lon="2.59903">
        <ele>827.5</ele>
        <time>2014-05-29T11:39:33Z</time>
      </trkpt>
      <trkpt lat="45.38892" lon="2.59895">
        <ele>827.4</ele>
        <time>2014-05-29T11:39:34Z</time>
      </trkpt>
      <trkpt lat="45.38892" lon="2.59887">
        <ele>827.3</ele>
        <time>2014-05-29T11:39:35Z</time>
      </trkpt>
      <trkpt lat="45.3889" lon="2.59878">
        <ele>827.2</ele>
        <time>2014-05-29T11:39:36Z</time>
      </trkpt>
      <trkpt lat="45.38888" lon="2.5987">
        <ele>827.2</ele>
        <time>2014-05-29T11:39:37Z</time>
      </trkpt>
      <trkpt lat="45.38887" lon="2.59863">
        <ele>826.2</ele>
        <time>2014-05-29T11:39:38Z</time>
      </trkpt>
      <trkpt lat="45.38888" lon="2.59856">
        <ele>825.4</ele>
        <time>2014-05-29T11:39:39Z</time>
      </trkpt>
      <trkpt lat="45.3889" lon="2.59845">
        <ele>822.9</ele>
        <time>2014-05-29T11:39:41Z</time>
      </trkpt>
      <trkpt lat="45.38895" lon="2.59839">
        <ele>821.7</ele>
        <time>2014-05-29T11:39:44Z</time>
      </trkpt>
      <trkpt lat="45.389" lon="2.59833">
        <ele>821.2</ele>
        <time>2014-05-29T11:39:46Z</time>
      </trkpt>
      <trkpt lat="45.38904" lon="2.59825">
        <ele>820.9</ele>
        <time>2014-05-29T11:39:48Z</time>
      </trkpt>
      <trkpt lat="45.38909" lon="2.59816">
        <ele>820.7</ele>
        <time>2014-05-29T11:39:50Z</time>
      </trkpt>
      <trkpt lat="45.38912" lon="2.59808">
        <ele>820.4</ele>
        <time>2014-05-29T11:39:52Z</time>
      </trkpt>
      <trkpt lat="45.38916" lon="2.59798">
        <ele>819.7</ele>
        <time>2014-05-29T11:39:55Z</time>
      </trkpt>
      <trkpt lat="45.38921" lon="2.59788">
        <ele>819.1</ele>
        <time>2014-05-29T11:39:58Z</time>
      </trkpt>
      <trkpt lat="45.38924" lon="2.5978">
        <ele>818.1</ele>
        <time>2014-05-29T11:40:00Z</time>
      </trkpt>
      <trkpt lat="45.38927" lon="2.59773">
        <ele>818</ele>
        <time>2014-05-29T11:40:02Z</time>
      </trkpt>
      <trkpt lat="45.38931" lon="2.59764">
        <ele>817.9</ele>
        <time>2014-05-29T11:40:04Z</time>
      </trkpt>
      <trkpt lat="45.38933" lon="2.5976">
        <ele>817.7</ele>
        <time>2014-05-29T11:40:05Z</time>
      </trkpt>
      <trkpt lat="45.38941" lon="2.59748">
        <ele>817.7</ele>
        <time>2014-05-29T11:40:08Z</time>
      </trkpt>
      <trkpt lat="45.38948" lon="2.59744">
        <ele>817.9</ele>
        <time>2014-05-29T11:40:10Z</time>
      </trkpt>
      <trkpt lat="45.38956" lon="2.59743">
        <ele>817.9</ele>
        <time>2014-05-29T11:40:12Z</time>
      </trkpt>
      <trkpt lat="45.38961" lon="2.59743">
        <ele>817.9</ele>
        <time>2014-05-29T11:40:13Z</time>
      </trkpt>
      <trkpt lat="45.38965" lon="2.59744">
        <ele>817.9</ele>
        <time>2014-05-29T11:40:14Z</time>
      </trkpt>
      <trkpt lat="45.3897" lon="2.59746">
        <ele>817.9</ele>
        <time>2014-05-29T11:40:15Z</time>
      </trkpt>
      <trkpt lat="45.38975" lon="2.59748">
        <ele>817.4</ele>
        <time>2014-05-29T11:40:16Z</time>
      </trkpt>
      <trkpt lat="45.3898" lon="2.5975">
        <ele>817.1</ele>
        <time>2014-05-29T11:40:17Z</time>
      </trkpt>
      <trkpt lat="45.38985" lon="2.59753">
        <ele>816.8</ele>
        <time>2014-05-29T11:40:18Z</time>
      </trkpt>
      <trkpt lat="45.3899" lon="2.59755">
        <ele>816.6</ele>
        <time>2014-05-29T11:40:19Z</time>
      </trkpt>
      <trkpt lat="45.38996" lon="2.59758">
        <ele>816.5</ele>
        <time>2014-05-29T11:40:20Z</time>
      </trkpt>
      <trkpt lat="45.39002" lon="2.59758">
        <ele>816.1</ele>
        <time>2014-05-29T11:40:21Z</time>
      </trkpt>
      <trkpt lat="45.39008" lon="2.59755">
        <ele>815.9</ele>
        <time>2014-05-29T11:40:22Z</time>
      </trkpt>
      <trkpt lat="45.39012" lon="2.59751">
        <ele>815.7</ele>
        <time>2014-05-29T11:40:23Z</time>
      </trkpt>
      <trkpt lat="45.39015" lon="2.59746">
        <ele>815.5</ele>
        <time>2014-05-29T11:40:24Z</time>
      </trkpt>
      <trkpt lat="45.3902" lon="2.5974">
        <ele>815.1</ele>
        <time>2014-05-29T11:40:25Z</time>
      </trkpt>
      <trkpt lat="45.39024" lon="2.59736">
        <ele>814.8</ele>
        <time>2014-05-29T11:40:26Z</time>
      </trkpt>
      <trkpt lat="45.39029" lon="2.59733">
        <ele>814.6</ele>
        <time>2014-05-29T11:40:27Z</time>
      </trkpt>
      <trkpt lat="45.39034" lon="2.59731">
        <ele>814.3</ele>
        <time>2014-05-29T11:40:28Z</time>
      </trkpt>
      <trkpt lat="45.3904" lon="2.59728">
        <ele>814.1</ele>
        <time>2014-05-29T11:40:29Z</time>
      </trkpt>
      <trkpt lat="45.39045" lon="2.59725">
        <ele>814.1</ele>
        <time>2014-05-29T11:40:30Z</time>
      </trkpt>
      <trkpt lat="45.3905" lon="2.59722">
        <ele>814.2</ele>
        <time>2014-05-29T11:40:31Z</time>
      </trkpt>
      <trkpt lat="45.39054" lon="2.59719">
        <ele>814.7</ele>
        <time>2014-05-29T11:40:32Z</time>
      </trkpt>
      <trkpt lat="45.3906" lon="2.59711">
        <ele>815.5</ele>
        <time>2014-05-29T11:40:34Z</time>
      </trkpt>
      <trkpt lat="45.39066" lon="2.59702">
        <ele>815.6</ele>
        <time>2014-05-29T11:40:36Z</time>
      </trkpt>
      <trkpt lat="45.39071" lon="2.59694">
        <ele>815.6</ele>
        <time>2014-05-29T11:40:38Z</time>
      </trkpt>
      <trkpt lat="45.39077" lon="2.59688">
        <ele>816</ele>
        <time>2014-05-29T11:40:40Z</time>
      </trkpt>
      <trkpt lat="45.39085" lon="2.59683">
        <ele>816.2</ele>
        <time>2014-05-29T11:40:44Z</time>
      </trkpt>
      <trkpt lat="45.39092" lon="2.59677">
        <ele>816.8</ele>
        <time>2014-05-29T11:41:04Z</time>
      </trkpt>
      <trkpt lat="45.39088" lon="2.59665">
        <ele>816.8</ele>
        <time>2014-05-29T11:42:12Z</time>
      </trkpt>
      <trkpt lat="45.39088" lon="2.59665">
        <ele>817</ele>
        <time>2014-05-29T11:42:13Z</time>
      </trkpt>
      <trkpt lat="45.39099" lon="2.59672">
        <ele>817.2</ele>
        <time>2014-05-29T11:44:45Z</time>
      </trkpt>
      <trkpt lat="45.391" lon="2.59675">
        <ele>817.6</ele>
        <time>2014-05-29T11:44:46Z</time>
      </trkpt>
      <trkpt lat="45.39108" lon="2.59688">
        <ele>819.2</ele>
        <time>2014-05-29T11:44:51Z</time>
      </trkpt>
      <trkpt lat="45.39113" lon="2.59697">
        <ele>820.3</ele>
        <time>2014-05-29T11:44:54Z</time>
      </trkpt>
      <trkpt lat="45.39116" lon="2.59706">
        <ele>820.7</ele>
        <time>2014-05-29T11:44:57Z</time>
      </trkpt>
      <trkpt lat="45.3912" lon="2.59717">
        <ele>821.2</ele>
        <time>2014-05-29T11:45:01Z</time>
      </trkpt>
      <trkpt lat="45.39125" lon="2.59724">
        <ele>822.3</ele>
        <time>2014-05-29T11:45:05Z</time>
      </trkpt>
      <trkpt lat="45.39131" lon="2.59733">
        <ele>823.1</ele>
        <time>2014-05-29T11:45:10Z</time>
      </trkpt>
      <trkpt lat="45.39135" lon="2.59742">
        <ele>824.3</ele>
        <time>2014-05-29T11:45:14Z</time>
      </trkpt>
      <trkpt lat="45.39139" lon="2.59751">
        <ele>824.4</ele>
        <time>2014-05-29T11:45:18Z</time>
      </trkpt>
      <trkpt lat="45.39146" lon="2.5976">
        <ele>825.1</ele>
        <time>2014-05-29T11:45:23Z</time>
      </trkpt>
      <trkpt lat="45.39153" lon="2.59763">
        <ele>826.5</ele>
        <time>2014-05-29T11:45:26Z</time>
      </trkpt>
      <trkpt lat="45.39159" lon="2.59765">
        <ele>826.6</ele>
        <time>2014-05-29T11:45:28Z</time>
      </trkpt>
      <trkpt lat="45.39165" lon="2.59765">
        <ele>827</ele>
        <time>2014-05-29T11:45:30Z</time>
      </trkpt>
      <trkpt lat="45.39172" lon="2.59763">
        <ele>826.1</ele>
        <time>2014-05-29T11:45:32Z</time>
      </trkpt>
      <trkpt lat="45.3918" lon="2.5976">
        <ele>825.8</ele>
        <time>2014-05-29T11:45:34Z</time>
      </trkpt>
      <trkpt lat="45.39188" lon="2.5976">
        <ele>825.4</ele>
        <time>2014-05-29T11:45:36Z</time>
      </trkpt>
      <trkpt lat="45.39195" lon="2.59765">
        <ele>825</ele>
        <time>2014-05-29T11:45:38Z</time>
      </trkpt>
      <trkpt lat="45.39202" lon="2.59758">
        <ele>824.6</ele>
        <time>2014-05-29T11:45:42Z</time>
      </trkpt>
      <trkpt lat="45.39207" lon="2.59751">
        <ele>823.1</ele>
        <time>2014-05-29T11:45:46Z</time>
      </trkpt>
      <trkpt lat="45.39208" lon="2.59749">
        <ele>823.1</ele>
        <time>2014-05-29T11:45:47Z</time>
      </trkpt>
      <trkpt lat="45.39218" lon="2.59737">
        <ele>820.1</ele>
        <time>2014-05-29T11:45:52Z</time>
      </trkpt>
      <trkpt lat="45.39225" lon="2.59731">
        <ele>818.1</ele>
        <time>2014-05-29T11:45:55Z</time>
      </trkpt>
      <trkpt lat="45.3923" lon="2.59725">
        <ele>816.1</ele>
        <time>2014-05-29T11:45:58Z</time>
      </trkpt>
      <trkpt lat="45.39236" lon="2.59717">
        <ele>814.3</ele>
        <time>2014-05-29T11:46:01Z</time>
      </trkpt>
      <trkpt lat="45.3924" lon="2.59709">
        <ele>813.6</ele>
        <time>2014-05-29T11:46:03Z</time>
      </trkpt>
      <trkpt lat="45.39245" lon="2.59702">
        <ele>813.4</ele>
        <time>2014-05-29T11:46:05Z</time>
      </trkpt>
      <trkpt lat="45.3925" lon="2.59695">
        <ele>813</ele>
        <time>2014-05-29T11:46:07Z</time>
      </trkpt>
      <trkpt lat="45.39256" lon="2.59687">
        <ele>812.2</ele>
        <time>2014-05-29T11:46:09Z</time>
      </trkpt>
      <trkpt lat="45.3926" lon="2.59678">
        <ele>811.5</ele>
        <time>2014-05-29T11:46:11Z</time>
      </trkpt>
      <trkpt lat="45.39263" lon="2.59667">
        <ele>810.9</ele>
        <time>2014-05-29T11:46:13Z</time>
      </trkpt>
      <trkpt lat="45.39266" lon="2.59655">
        <ele>810.1</ele>
        <time>2014-05-29T11:46:15Z</time>
      </trkpt>
      <trkpt lat="45.39268" lon="2.5965">
        <ele>809.9</ele>
        <time>2014-05-29T11:46:16Z</time>
      </trkpt>
      <trkpt lat="45.39272" lon="2.59644">
        <ele>810</ele>
        <time>2014-05-29T11:46:17Z</time>
      </trkpt>
      <trkpt lat="45.39278" lon="2.59636">
        <ele>809.7</ele>
        <time>2014-05-29T11:46:19Z</time>
      </trkpt>
      <trkpt lat="45.39283" lon="2.59633">
        <ele>809.2</ele>
        <time>2014-05-29T11:46:21Z</time>
      </trkpt>
      <trkpt lat="45.3929" lon="2.59626">
        <ele>809</ele>
        <time>2014-05-29T11:46:23Z</time>
      </trkpt>
      <trkpt lat="45.39294" lon="2.59622">
        <ele>808.4</ele>
        <time>2014-05-29T11:46:24Z</time>
      </trkpt>
      <trkpt lat="45.39299" lon="2.59618">
        <ele>807.9</ele>
        <time>2014-05-29T11:46:25Z</time>
      </trkpt>
      <trkpt lat="45.39303" lon="2.59614">
        <ele>807.4</ele>
        <time>2014-05-29T11:46:26Z</time>
      </trkpt>
      <trkpt lat="45.39308" lon="2.59608">
        <ele>807</ele>
        <time>2014-05-29T11:46:27Z</time>
      </trkpt>
      <trkpt lat="45.39312" lon="2.59602">
        <ele>806.3</ele>
        <time>2014-05-29T11:46:28Z</time>
      </trkpt>
      <trkpt lat="45.39315" lon="2.59595">
        <ele>805.8</ele>
        <time>2014-05-29T11:46:29Z</time>
      </trkpt>
      <trkpt lat="45.39318" lon="2.59587">
        <ele>805.4</ele>
        <time>2014-05-29T11:46:30Z</time>
      </trkpt>
      <trkpt lat="45.39321" lon="2.59582">
        <ele>805</ele>
        <time>2014-05-29T11:46:31Z</time>
      </trkpt>
      <trkpt lat="45.39323" lon="2.59577">
        <ele>804.6</ele>
        <time>2014-05-29T11:46:32Z</time>
      </trkpt>
      <trkpt lat="45.39326" lon="2.59571">
        <ele>804</ele>
        <time>2014-05-29T11:46:33Z</time>
      </trkpt>
      <trkpt lat="45.3933" lon="2.59565">
        <ele>803.6</ele>
        <time>2014-05-29T11:46:34Z</time>
      </trkpt>
      <trkpt lat="45.39333" lon="2.59559">
        <ele>803.3</ele>
        <time>2014-05-29T11:46:35Z</time>
      </trkpt>
      <trkpt lat="45.39335" lon="2.59551">
        <ele>802.7</ele>
        <time>2014-05-29T11:46:36Z</time>
      </trkpt>
      <trkpt lat="45.39337" lon="2.5954">
        <ele>801.7</ele>
        <time>2014-05-29T11:46:38Z</time>
      </trkpt>
      <trkpt lat="45.39338" lon="2.59531">
        <ele>800.5</ele>
        <time>2014-05-29T11:46:40Z</time>
      </trkpt>
      <trkpt lat="45.39338" lon="2.5952">
        <ele>799.5</ele>
        <time>2014-05-29T11:46:42Z</time>
      </trkpt>
      <trkpt lat="45.39339" lon="2.5951">
        <ele>799</ele>
        <time>2014-05-29T11:46:44Z</time>
      </trkpt>
      <trkpt lat="45.39341" lon="2.59498">
        <ele>797.8</ele>
        <time>2014-05-29T11:46:46Z</time>
      </trkpt>
      <trkpt lat="45.39343" lon="2.59487">
        <ele>795.1</ele>
        <time>2014-05-29T11:46:48Z</time>
      </trkpt>
      <trkpt lat="45.39344" lon="2.59482">
        <ele>794.2</ele>
        <time>2014-05-29T11:46:49Z</time>
      </trkpt>
      <trkpt lat="45.39348" lon="2.5947">
        <ele>792.6</ele>
        <time>2014-05-29T11:46:51Z</time>
      </trkpt>
      <trkpt lat="45.39352" lon="2.59465">
        <ele>792.2</ele>
        <time>2014-05-29T11:46:52Z</time>
      </trkpt>
      <trkpt lat="45.39358" lon="2.59461">
        <ele>791.9</ele>
        <time>2014-05-29T11:46:53Z</time>
      </trkpt>
      <trkpt lat="45.39365" lon="2.59457">
        <ele>791.7</ele>
        <time>2014-05-29T11:46:54Z</time>
      </trkpt>
      <trkpt lat="45.39374" lon="2.59452">
        <ele>790.6</ele>
        <time>2014-05-29T11:46:55Z</time>
      </trkpt>
      <trkpt lat="45.39383" lon="2.59446">
        <ele>789.7</ele>
        <time>2014-05-29T11:46:56Z</time>
      </trkpt>
      <trkpt lat="45.39392" lon="2.59437">
        <ele>788.6</ele>
        <time>2014-05-29T11:46:57Z</time>
      </trkpt>
      <trkpt lat="45.394" lon="2.59425">
        <ele>787.7</ele>
        <time>2014-05-29T11:46:58Z</time>
      </trkpt>
      <trkpt lat="45.39407" lon="2.59411">
        <ele>786.8</ele>
        <time>2014-05-29T11:46:59Z</time>
      </trkpt>
      <trkpt lat="45.39412" lon="2.59397">
        <ele>786.2</ele>
        <time>2014-05-29T11:47:00Z</time>
      </trkpt>
      <trkpt lat="45.39417" lon="2.59383">
        <ele>785.6</ele>
        <time>2014-05-29T11:47:01Z</time>
      </trkpt>
      <trkpt lat="45.39423" lon="2.59372">
        <ele>785.1</ele>
        <time>2014-05-29T11:47:02Z</time>
      </trkpt>
      <trkpt lat="45.3943" lon="2.59364">
        <ele>784.8</ele>
        <time>2014-05-29T11:47:03Z</time>
      </trkpt>
      <trkpt lat="45.39439" lon="2.59357">
        <ele>784.6</ele>
        <time>2014-05-29T11:47:04Z</time>
      </trkpt>
      <trkpt lat="45.39448" lon="2.5935">
        <ele>784.5</ele>
        <time>2014-05-29T11:47:05Z</time>
      </trkpt>
      <trkpt lat="45.39457" lon="2.59345">
        <ele>784.3</ele>
        <time>2014-05-29T11:47:06Z</time>
      </trkpt>
      <trkpt lat="45.39466" lon="2.59341">
        <ele>784.2</ele>
        <time>2014-05-29T11:47:07Z</time>
      </trkpt>
      <trkpt lat="45.39475" lon="2.59336">
        <ele>784.1</ele>
        <time>2014-05-29T11:47:08Z</time>
      </trkpt>
      <trkpt lat="45.39483" lon="2.59332">
        <ele>783.6</ele>
        <time>2014-05-29T11:47:09Z</time>
      </trkpt>
      <trkpt lat="45.3949" lon="2.5933">
        <ele>783.2</ele>
        <time>2014-05-29T11:47:10Z</time>
      </trkpt>
      <trkpt lat="45.39499" lon="2.5933">
        <ele>782.8</ele>
        <time>2014-05-29T11:47:11Z</time>
      </trkpt>
      <trkpt lat="45.39508" lon="2.59332">
        <ele>782.5</ele>
        <time>2014-05-29T11:47:12Z</time>
      </trkpt>
      <trkpt lat="45.39517" lon="2.59335">
        <ele>782.4</ele>
        <time>2014-05-29T11:47:13Z</time>
      </trkpt>
      <trkpt lat="45.39526" lon="2.59338">
        <ele>781.4</ele>
        <time>2014-05-29T11:47:14Z</time>
      </trkpt>
      <trkpt lat="45.39535" lon="2.5934">
        <ele>780.6</ele>
        <time>2014-05-29T11:47:15Z</time>
      </trkpt>
      <trkpt lat="45.39544" lon="2.59342">
        <ele>779.4</ele>
        <time>2014-05-29T11:47:16Z</time>
      </trkpt>
      <trkpt lat="45.39552" lon="2.59343">
        <ele>778.4</ele>
        <time>2014-05-29T11:47:17Z</time>
      </trkpt>
      <trkpt lat="45.39559" lon="2.59343">
        <ele>777.3</ele>
        <time>2014-05-29T11:47:18Z</time>
      </trkpt>
      <trkpt lat="45.39567" lon="2.59342">
        <ele>776.4</ele>
        <time>2014-05-29T11:47:19Z</time>
      </trkpt>
      <trkpt lat="45.39574" lon="2.59341">
        <ele>775.8</ele>
        <time>2014-05-29T11:47:20Z</time>
      </trkpt>
      <trkpt lat="45.39581" lon="2.59341">
        <ele>774</ele>
        <time>2014-05-29T11:47:21Z</time>
      </trkpt>
      <trkpt lat="45.39588" lon="2.59341">
        <ele>772.6</ele>
        <time>2014-05-29T11:47:22Z</time>
      </trkpt>
      <trkpt lat="45.39595" lon="2.59341">
        <ele>771.1</ele>
        <time>2014-05-29T11:47:23Z</time>
      </trkpt>
      <trkpt lat="45.39602" lon="2.59342">
        <ele>770</ele>
        <time>2014-05-29T11:47:24Z</time>
      </trkpt>
      <trkpt lat="45.39608" lon="2.59345">
        <ele>768.6</ele>
        <time>2014-05-29T11:47:25Z</time>
      </trkpt>
      <trkpt lat="45.39613" lon="2.59349">
        <ele>767.6</ele>
        <time>2014-05-29T11:47:26Z</time>
      </trkpt>
      <trkpt lat="45.3962" lon="2.59356">
        <ele>766.7</ele>
        <time>2014-05-29T11:47:28Z</time>
      </trkpt>
      <trkpt lat="45.39629" lon="2.59356">
        <ele>767</ele>
        <time>2014-05-29T11:47:31Z</time>
      </trkpt>
      <trkpt lat="45.39633" lon="2.59348">
        <ele>766.8</ele>
        <time>2014-05-29T11:47:33Z</time>
      </trkpt>
      <trkpt lat="45.39633" lon="2.59341">
        <ele>766.6</ele>
        <time>2014-05-29T11:47:34Z</time>
      </trkpt>
      <trkpt lat="45.39632" lon="2.59335">
        <ele>766</ele>
        <time>2014-05-29T11:47:35Z</time>
      </trkpt>
      <trkpt lat="45.3963" lon="2.59328">
        <ele>765.5</ele>
        <time>2014-05-29T11:47:36Z</time>
      </trkpt>
      <trkpt lat="45.39629" lon="2.59321">
        <ele>764.4</ele>
        <time>2014-05-29T11:47:37Z</time>
      </trkpt>
      <trkpt lat="45.3963" lon="2.59309">
        <ele>763</ele>
        <time>2014-05-29T11:47:39Z</time>
      </trkpt>
      <trkpt lat="45.39632" lon="2.59304">
        <ele>761.7</ele>
        <time>2014-05-29T11:47:40Z</time>
      </trkpt>
      <trkpt lat="45.39636" lon="2.59298">
        <ele>760.6</ele>
        <time>2014-05-29T11:47:41Z</time>
      </trkpt>
      <trkpt lat="45.3964" lon="2.5929">
        <ele>759.2</ele>
        <time>2014-05-29T11:47:43Z</time>
      </trkpt>
      <trkpt lat="45.39645" lon="2.5928">
        <ele>757.7</ele>
        <time>2014-05-29T11:47:46Z</time>
      </trkpt>
      <trkpt lat="45.39648" lon="2.59272">
        <ele>756.1</ele>
        <time>2014-05-29T11:47:48Z</time>
      </trkpt>
      <trkpt lat="45.39653" lon="2.59265">
        <ele>755.7</ele>
        <time>2014-05-29T11:47:50Z</time>
      </trkpt>
      <trkpt lat="45.39655" lon="2.59261">
        <ele>755.9</ele>
        <time>2014-05-29T11:47:51Z</time>
      </trkpt>
      <trkpt lat="45.3966" lon="2.5925">
        <ele>756.2</ele>
        <time>2014-05-29T11:47:54Z</time>
      </trkpt>
      <trkpt lat="45.39665" lon="2.59244">
        <ele>756.6</ele>
        <time>2014-05-29T11:47:56Z</time>
      </trkpt>
      <trkpt lat="45.39671" lon="2.59237">
        <ele>757.2</ele>
        <time>2014-05-29T11:47:59Z</time>
      </trkpt>
      <trkpt lat="45.39677" lon="2.5923">
        <ele>759</ele>
        <time>2014-05-29T11:48:03Z</time>
      </trkpt>
      <trkpt lat="45.39684" lon="2.59221">
        <ele>760.9</ele>
        <time>2014-05-29T11:48:08Z</time>
      </trkpt>
      <trkpt lat="45.39691" lon="2.59215">
        <ele>761.6</ele>
        <time>2014-05-29T11:48:13Z</time>
      </trkpt>
      <trkpt lat="45.39698" lon="2.59208">
        <ele>763.7</ele>
        <time>2014-05-29T11:48:19Z</time>
      </trkpt>
      <trkpt lat="45.39704" lon="2.592">
        <ele>763.9</ele>
        <time>2014-05-29T11:48:25Z</time>
      </trkpt>
      <trkpt lat="45.3971" lon="2.5919">
        <ele>766.7</ele>
        <time>2014-05-29T11:48:35Z</time>
      </trkpt>
      <trkpt lat="45.3971" lon="2.5918">
        <ele>766.6</ele>
        <time>2014-05-29T11:48:39Z</time>
      </trkpt>
      <trkpt lat="45.39707" lon="2.59169">
        <ele>765.7</ele>
        <time>2014-05-29T11:48:42Z</time>
      </trkpt>
      <trkpt lat="45.39704" lon="2.5916">
        <ele>765</ele>
        <time>2014-05-29T11:48:44Z</time>
      </trkpt>
      <trkpt lat="45.39702" lon="2.5915">
        <ele>763.5</ele>
        <time>2014-05-29T11:48:46Z</time>
      </trkpt>
      <trkpt lat="45.39701" lon="2.59139">
        <ele>761.2</ele>
        <time>2014-05-29T11:48:48Z</time>
      </trkpt>
      <trkpt lat="45.39701" lon="2.59132">
        <ele>760.1</ele>
        <time>2014-05-29T11:48:49Z</time>
      </trkpt>
      <trkpt lat="45.397" lon="2.59124">
        <ele>759.3</ele>
        <time>2014-05-29T11:48:50Z</time>
      </trkpt>
      <trkpt lat="45.397" lon="2.59117">
        <ele>758.3</ele>
        <time>2014-05-29T11:48:51Z</time>
      </trkpt>
      <trkpt lat="45.397" lon="2.59108">
        <ele>757.6</ele>
        <time>2014-05-29T11:48:52Z</time>
      </trkpt>
      <trkpt lat="45.39701" lon="2.59096">
        <ele>755.4</ele>
        <time>2014-05-29T11:48:54Z</time>
      </trkpt>
      <trkpt lat="45.39703" lon="2.59084">
        <ele>753.2</ele>
        <time>2014-05-29T11:48:56Z</time>
      </trkpt>
      <trkpt lat="45.39704" lon="2.59072">
        <ele>750.8</ele>
        <time>2014-05-29T11:48:58Z</time>
      </trkpt>
      <trkpt lat="45.39704" lon="2.59062">
        <ele>748.7</ele>
        <time>2014-05-29T11:49:00Z</time>
      </trkpt>
      <trkpt lat="45.39707" lon="2.5905">
        <ele>746.4</ele>
        <time>2014-05-29T11:49:03Z</time>
      </trkpt>
      <trkpt lat="45.39706" lon="2.59041">
        <ele>745.2</ele>
        <time>2014-05-29T11:49:05Z</time>
      </trkpt>
      <trkpt lat="45.39708" lon="2.59029">
        <ele>744</ele>
        <time>2014-05-29T11:49:07Z</time>
      </trkpt>
      <trkpt lat="45.39708" lon="2.59021">
        <ele>743.6</ele>
        <time>2014-05-29T11:49:08Z</time>
      </trkpt>
      <trkpt lat="45.3971" lon="2.59014">
        <ele>743.2</ele>
        <time>2014-05-29T11:49:09Z</time>
      </trkpt>
      <trkpt lat="45.39712" lon="2.59004">
        <ele>742</ele>
        <time>2014-05-29T11:49:10Z</time>
      </trkpt>
      <trkpt lat="45.39712" lon="2.58994">
        <ele>741</ele>
        <time>2014-05-29T11:49:11Z</time>
      </trkpt>
      <trkpt lat="45.39712" lon="2.58985">
        <ele>739.8</ele>
        <time>2014-05-29T11:49:12Z</time>
      </trkpt>
      <trkpt lat="45.39712" lon="2.58977">
        <ele>738.9</ele>
        <time>2014-05-29T11:49:13Z</time>
      </trkpt>
      <trkpt lat="45.39712" lon="2.58967">
        <ele>737.9</ele>
        <time>2014-05-29T11:49:14Z</time>
      </trkpt>
      <trkpt lat="45.39711" lon="2.58957">
        <ele>737.1</ele>
        <time>2014-05-29T11:49:15Z</time>
      </trkpt>
      <trkpt lat="45.39709" lon="2.58948">
        <ele>736.5</ele>
        <time>2014-05-29T11:49:16Z</time>
      </trkpt>
      <trkpt lat="45.39707" lon="2.58937">
        <ele>735.3</ele>
        <time>2014-05-29T11:49:17Z</time>
      </trkpt>
      <trkpt lat="45.39705" lon="2.58927">
        <ele>734.3</ele>
        <time>2014-05-29T11:49:18Z</time>
      </trkpt>
      <trkpt lat="45.39704" lon="2.58919">
        <ele>733.1</ele>
        <time>2014-05-29T11:49:19Z</time>
      </trkpt>
      <trkpt lat="45.39703" lon="2.58909">
        <ele>732.2</ele>
        <time>2014-05-29T11:49:20Z</time>
      </trkpt>
      <trkpt lat="45.39703" lon="2.58899">
        <ele>731.5</ele>
        <time>2014-05-29T11:49:21Z</time>
      </trkpt>
      <trkpt lat="45.39702" lon="2.58891">
        <ele>730.8</ele>
        <time>2014-05-29T11:49:22Z</time>
      </trkpt>
      <trkpt lat="45.39703" lon="2.58879">
        <ele>729.7</ele>
        <time>2014-05-29T11:49:24Z</time>
      </trkpt>
      <trkpt lat="45.39706" lon="2.58867">
        <ele>729.1</ele>
        <time>2014-05-29T11:49:26Z</time>
      </trkpt>
      <trkpt lat="45.39709" lon="2.58862">
        <ele>728.9</ele>
        <time>2014-05-29T11:49:27Z</time>
      </trkpt>
      <trkpt lat="45.39713" lon="2.58856">
        <ele>728.8</ele>
        <time>2014-05-29T11:49:28Z</time>
      </trkpt>
      <trkpt lat="45.39716" lon="2.58851">
        <ele>728.5</ele>
        <time>2014-05-29T11:49:29Z</time>
      </trkpt>
      <trkpt lat="45.39719" lon="2.58845">
        <ele>728.3</ele>
        <time>2014-05-29T11:49:30Z</time>
      </trkpt>
      <trkpt lat="45.39722" lon="2.58834">
        <ele>728.2</ele>
        <time>2014-05-29T11:49:32Z</time>
      </trkpt>
      <trkpt lat="45.39725" lon="2.58826">
        <ele>728.3</ele>
        <time>2014-05-29T11:49:34Z</time>
      </trkpt>
      <trkpt lat="45.39729" lon="2.58819">
        <ele>729.1</ele>
        <time>2014-05-29T11:49:36Z</time>
      </trkpt>
      <trkpt lat="45.39735" lon="2.58811">
        <ele>729.7</ele>
        <time>2014-05-29T11:49:39Z</time>
      </trkpt>
      <trkpt lat="45.39741" lon="2.58803">
        <ele>730.3</ele>
        <time>2014-05-29T11:49:42Z</time>
      </trkpt>
      <trkpt lat="45.39745" lon="2.58796">
        <ele>731.3</ele>
        <time>2014-05-29T11:49:44Z</time>
      </trkpt>
      <trkpt lat="45.39749" lon="2.58787">
        <ele>731.8</ele>
        <time>2014-05-29T11:49:47Z</time>
      </trkpt>
      <trkpt lat="45.39753" lon="2.58779">
        <ele>733.2</ele>
        <time>2014-05-29T11:49:50Z</time>
      </trkpt>
      <trkpt lat="45.39759" lon="2.5877">
        <ele>733.7</ele>
        <time>2014-05-29T11:49:53Z</time>
      </trkpt>
      <trkpt lat="45.39761" lon="2.58768">
        <ele>733.8</ele>
        <time>2014-05-29T11:49:54Z</time>
      </trkpt>
      <trkpt lat="45.39765" lon="2.58752">
        <ele>733.9</ele>
        <time>2014-05-29T11:50:00Z</time>
      </trkpt>
      <trkpt lat="45.39764" lon="2.5874">
        <ele>733.3</ele>
        <time>2014-05-29T11:50:04Z</time>
      </trkpt>
      <trkpt lat="45.39756" lon="2.58736">
        <ele>732.6</ele>
        <time>2014-05-29T11:50:08Z</time>
      </trkpt>
      <trkpt lat="45.39752" lon="2.58737">
        <ele>732.1</ele>
        <time>2014-05-29T11:50:09Z</time>
      </trkpt>
      <trkpt lat="45.39747" lon="2.58736">
        <ele>731.7</ele>
        <time>2014-05-29T11:50:10Z</time>
      </trkpt>
      <trkpt lat="45.39742" lon="2.58735">
        <ele>730.9</ele>
        <time>2014-05-29T11:50:11Z</time>
      </trkpt>
      <trkpt lat="45.39736" lon="2.58736">
        <ele>730.3</ele>
        <time>2014-05-29T11:50:12Z</time>
      </trkpt>
      <trkpt lat="45.39732" lon="2.58738">
        <ele>729.9</ele>
        <time>2014-05-29T11:50:13Z</time>
      </trkpt>
      <trkpt lat="45.39727" lon="2.58742">
        <ele>729.1</ele>
        <time>2014-05-29T11:50:14Z</time>
      </trkpt>
      <trkpt lat="45.39722" lon="2.58749">
        <ele>728.5</ele>
        <time>2014-05-29T11:50:15Z</time>
      </trkpt>
      <trkpt lat="45.39717" lon="2.58757">
        <ele>727.4</ele>
        <time>2014-05-29T11:50:16Z</time>
      </trkpt>
      <trkpt lat="45.3971" lon="2.58765">
        <ele>726.6</ele>
        <time>2014-05-29T11:50:17Z</time>
      </trkpt>
      <trkpt lat="45.39703" lon="2.58773">
        <ele>726</ele>
        <time>2014-05-29T11:50:18Z</time>
      </trkpt>
      <trkpt lat="45.39696" lon="2.5878">
        <ele>724.6</ele>
        <time>2014-05-29T11:50:19Z</time>
      </trkpt>
      <trkpt lat="45.39689" lon="2.58786">
        <ele>723.6</ele>
        <time>2014-05-29T11:50:20Z</time>
      </trkpt>
      <trkpt lat="45.39683" lon="2.58793">
        <ele>721.9</ele>
        <time>2014-05-29T11:50:21Z</time>
      </trkpt>
      <trkpt lat="45.39679" lon="2.588">
        <ele>720.7</ele>
        <time>2014-05-29T11:50:22Z</time>
      </trkpt>
      <trkpt lat="45.39675" lon="2.58809">
        <ele>719.2</ele>
        <time>2014-05-29T11:50:23Z</time>
      </trkpt>
      <trkpt lat="45.39671" lon="2.58819">
        <ele>718</ele>
        <time>2014-05-29T11:50:24Z</time>
      </trkpt>
      <trkpt lat="45.39667" lon="2.58829">
        <ele>717.2</ele>
        <time>2014-05-29T11:50:25Z</time>
      </trkpt>
      <trkpt lat="45.39661" lon="2.58838">
        <ele>715.9</ele>
        <time>2014-05-29T11:50:26Z</time>
      </trkpt>
      <trkpt lat="45.39656" lon="2.58847">
        <ele>715</ele>
        <time>2014-05-29T11:50:27Z</time>
      </trkpt>
      <trkpt lat="45.39649" lon="2.58854">
        <ele>714.3</ele>
        <time>2014-05-29T11:50:28Z</time>
      </trkpt>
      <trkpt lat="45.39643" lon="2.58861">
        <ele>713.7</ele>
        <time>2014-05-29T11:50:29Z</time>
      </trkpt>
      <trkpt lat="45.39637" lon="2.58868">
        <ele>712.5</ele>
        <time>2014-05-29T11:50:30Z</time>
      </trkpt>
      <trkpt lat="45.39632" lon="2.58877">
        <ele>711.5</ele>
        <time>2014-05-29T11:50:31Z</time>
      </trkpt>
      <trkpt lat="45.39626" lon="2.58886">
        <ele>710.8</ele>
        <time>2014-05-29T11:50:32Z</time>
      </trkpt>
      <trkpt lat="45.39621" lon="2.58895">
        <ele>709.9</ele>
        <time>2014-05-29T11:50:33Z</time>
      </trkpt>
      <trkpt lat="45.39616" lon="2.58905">
        <ele>709.2</ele>
        <time>2014-05-29T11:50:34Z</time>
      </trkpt>
      <trkpt lat="45.39614" lon="2.58916">
        <ele>707.9</ele>
        <time>2014-05-29T11:50:35Z</time>
      </trkpt>
      <trkpt lat="45.39613" lon="2.58923">
        <ele>706.9</ele>
        <time>2014-05-29T11:50:36Z</time>
      </trkpt>
      <trkpt lat="45.39612" lon="2.58935">
        <ele>705.4</ele>
        <time>2014-05-29T11:50:38Z</time>
      </trkpt>
      <trkpt lat="45.39609" lon="2.58947">
        <ele>704</ele>
        <time>2014-05-29T11:50:40Z</time>
      </trkpt>
      <trkpt lat="45.39608" lon="2.58954">
        <ele>703.3</ele>
        <time>2014-05-29T11:50:41Z</time>
      </trkpt>
      <trkpt lat="45.39606" lon="2.58965">
        <ele>702.7</ele>
        <time>2014-05-29T11:50:43Z</time>
      </trkpt>
      <trkpt lat="45.39605" lon="2.58975">
        <ele>702.2</ele>
        <time>2014-05-29T11:50:45Z</time>
      </trkpt>
      <trkpt lat="45.39604" lon="2.58987">
        <ele>701.6</ele>
        <time>2014-05-29T11:50:48Z</time>
      </trkpt>
      <trkpt lat="45.39604" lon="2.58998">
        <ele>702.3</ele>
        <time>2014-05-29T11:50:51Z</time>
      </trkpt>
      <trkpt lat="45.39604" lon="2.59009">
        <ele>702.8</ele>
        <time>2014-05-29T11:50:54Z</time>
      </trkpt>
      <trkpt lat="45.39605" lon="2.59012">
        <ele>702.7</ele>
        <time>2014-05-29T11:50:55Z</time>
      </trkpt>
      <trkpt lat="45.39604" lon="2.5903">
        <ele>703.4</ele>
        <time>2014-05-29T11:51:01Z</time>
      </trkpt>
      <trkpt lat="45.396" lon="2.59039">
        <ele>703.9</ele>
        <time>2014-05-29T11:51:05Z</time>
      </trkpt>
      <trkpt lat="45.39595" lon="2.59046">
        <ele>704.9</ele>
        <time>2014-05-29T11:51:09Z</time>
      </trkpt>
      <trkpt lat="45.39587" lon="2.59048">
        <ele>705.8</ele>
        <time>2014-05-29T11:51:13Z</time>
      </trkpt>
      <trkpt lat="45.39579" lon="2.59048">
        <ele>706.7</ele>
        <time>2014-05-29T11:51:17Z</time>
      </trkpt>
      <trkpt lat="45.39572" lon="2.59046">
        <ele>707.3</ele>
        <time>2014-05-29T11:51:21Z</time>
      </trkpt>
      <trkpt lat="45.39564" lon="2.59041">
        <ele>708</ele>
        <time>2014-05-29T11:51:25Z</time>
      </trkpt>
      <trkpt lat="45.39559" lon="2.59032">
        <ele>709.2</ele>
        <time>2014-05-29T11:51:29Z</time>
      </trkpt>
      <trkpt lat="45.39555" lon="2.59022">
        <ele>708.9</ele>
        <time>2014-05-29T11:51:33Z</time>
      </trkpt>
      <trkpt lat="45.39553" lon="2.59011">
        <ele>710</ele>
        <time>2014-05-29T11:51:37Z</time>
      </trkpt>
      <trkpt lat="45.39552" lon="2.59">
        <ele>710.4</ele>
        <time>2014-05-29T11:51:41Z</time>
      </trkpt>
      <trkpt lat="45.3955" lon="2.58988">
        <ele>711.7</ele>
        <time>2014-05-29T11:51:45Z</time>
      </trkpt>
      <trkpt lat="45.39549" lon="2.58977">
        <ele>712.8</ele>
        <time>2014-05-29T11:51:48Z</time>
      </trkpt>
      <trkpt lat="45.39548" lon="2.58967">
        <ele>713.3</ele>
        <time>2014-05-29T11:51:51Z</time>
      </trkpt>
      <trkpt lat="45.39547" lon="2.58957">
        <ele>713</ele>
        <time>2014-05-29T11:51:54Z</time>
      </trkpt>
      <trkpt lat="45.39545" lon="2.58947">
        <ele>713.9</ele>
        <time>2014-05-29T11:51:57Z</time>
      </trkpt>
      <trkpt lat="45.39544" lon="2.58944">
        <ele>713.6</ele>
        <time>2014-05-29T11:51:58Z</time>
      </trkpt>
      <trkpt lat="45.3954" lon="2.58927">
        <ele>714.1</ele>
        <time>2014-05-29T11:52:03Z</time>
      </trkpt>
      <trkpt lat="45.39537" lon="2.58917">
        <ele>714.9</ele>
        <time>2014-05-29T11:52:06Z</time>
      </trkpt>
      <trkpt lat="45.39533" lon="2.58906">
        <ele>715.5</ele>
        <time>2014-05-29T11:52:09Z</time>
      </trkpt>
      <trkpt lat="45.39529" lon="2.58897">
        <ele>716.3</ele>
        <time>2014-05-29T11:52:12Z</time>
      </trkpt>
      <trkpt lat="45.39526" lon="2.58888">
        <ele>716</ele>
        <time>2014-05-29T11:52:15Z</time>
      </trkpt>
      <trkpt lat="45.39523" lon="2.58876">
        <ele>715.9</ele>
        <time>2014-05-29T11:52:19Z</time>
      </trkpt>
      <trkpt lat="45.39521" lon="2.58864">
        <ele>717.1</ele>
        <time>2014-05-29T11:52:24Z</time>
      </trkpt>
      <trkpt lat="45.39517" lon="2.58853">
        <ele>717.9</ele>
        <time>2014-05-29T11:52:29Z</time>
      </trkpt>
      <trkpt lat="45.39513" lon="2.58844">
        <ele>717.6</ele>
        <time>2014-05-29T11:52:33Z</time>
      </trkpt>
      <trkpt lat="45.39508" lon="2.58838">
        <ele>717.4</ele>
        <time>2014-05-29T11:52:35Z</time>
      </trkpt>
      <trkpt lat="45.39501" lon="2.58831">
        <ele>718.2</ele>
        <time>2014-05-29T11:52:38Z</time>
      </trkpt>
      <trkpt lat="45.39494" lon="2.58823">
        <ele>718.3</ele>
        <time>2014-05-29T11:52:41Z</time>
      </trkpt>
      <trkpt lat="45.39487" lon="2.58817">
        <ele>718.9</ele>
        <time>2014-05-29T11:52:44Z</time>
      </trkpt>
      <trkpt lat="45.39481" lon="2.58812">
        <ele>718.8</ele>
        <time>2014-05-29T11:52:47Z</time>
      </trkpt>
      <trkpt lat="45.39475" lon="2.58808">
        <ele>718</ele>
        <time>2014-05-29T11:52:50Z</time>
      </trkpt>
      <trkpt lat="45.39467" lon="2.58802">
        <ele>718.5</ele>
        <time>2014-05-29T11:52:54Z</time>
      </trkpt>
      <trkpt lat="45.39464" lon="2.58794">
        <ele>719.4</ele>
        <time>2014-05-29T11:52:57Z</time>
      </trkpt>
      <trkpt lat="45.39463" lon="2.58785">
        <ele>718.8</ele>
        <time>2014-05-29T11:52:59Z</time>
      </trkpt>
      <trkpt lat="45.39461" lon="2.58781">
        <ele>718.8</ele>
        <time>2014-05-29T11:53:00Z</time>
      </trkpt>
      <trkpt lat="45.39454" lon="2.58768">
        <ele>718.9</ele>
        <time>2014-05-29T11:53:03Z</time>
      </trkpt>
      <trkpt lat="45.39448" lon="2.58761">
        <ele>718.9</ele>
        <time>2014-05-29T11:53:05Z</time>
      </trkpt>
      <trkpt lat="45.39441" lon="2.58754">
        <ele>719</ele>
        <time>2014-05-29T11:53:07Z</time>
      </trkpt>
      <trkpt lat="45.39436" lon="2.58749">
        <ele>719.3</ele>
        <time>2014-05-29T11:53:09Z</time>
      </trkpt>
      <trkpt lat="45.39433" lon="2.58745">
        <ele>719.4</ele>
        <time>2014-05-29T11:53:10Z</time>
      </trkpt>
      <trkpt lat="45.3943" lon="2.5874">
        <ele>719.5</ele>
        <time>2014-05-29T11:53:11Z</time>
      </trkpt>
      <trkpt lat="45.39427" lon="2.58734">
        <ele>719.4</ele>
        <time>2014-05-29T11:53:12Z</time>
      </trkpt>
      <trkpt lat="45.39419" lon="2.58727">
        <ele>718.5</ele>
        <time>2014-05-29T11:53:14Z</time>
      </trkpt>
      <trkpt lat="45.39413" lon="2.5872">
        <ele>717.5</ele>
        <time>2014-05-29T11:53:16Z</time>
      </trkpt>
      <trkpt lat="45.39407" lon="2.58712">
        <ele>715.1</ele>
        <time>2014-05-29T11:53:18Z</time>
      </trkpt>
      <trkpt lat="45.39403" lon="2.58701">
        <ele>712.8</ele>
        <time>2014-05-29T11:53:20Z</time>
      </trkpt>
      <trkpt lat="45.39396" lon="2.58697">
        <ele>709.8</ele>
        <time>2014-05-29T11:53:22Z</time>
      </trkpt>
      <trkpt lat="45.39388" lon="2.58696">
        <ele>707</ele>
        <time>2014-05-29T11:53:25Z</time>
      </trkpt>
      <trkpt lat="45.39383" lon="2.58687">
        <ele>704.6</ele>
        <time>2014-05-29T11:53:29Z</time>
      </trkpt>
      <trkpt lat="45.39379" lon="2.58676">
        <ele>702.6</ele>
        <time>2014-05-29T11:53:34Z</time>
      </trkpt>
      <trkpt lat="45.39379" lon="2.58666">
        <ele>701.2</ele>
        <time>2014-05-29T11:53:38Z</time>
      </trkpt>
      <trkpt lat="45.3938" lon="2.58655">
        <ele>700</ele>
        <time>2014-05-29T11:53:41Z</time>
      </trkpt>
      <trkpt lat="45.3938" lon="2.58643">
        <ele>698.1</ele>
        <time>2014-05-29T11:53:44Z</time>
      </trkpt>
      <trkpt lat="45.39381" lon="2.58631">
        <ele>697.2</ele>
        <time>2014-05-29T11:53:46Z</time>
      </trkpt>
      <trkpt lat="45.39382" lon="2.58621">
        <ele>696.3</ele>
        <time>2014-05-29T11:53:48Z</time>
      </trkpt>
      <trkpt lat="45.39383" lon="2.58611">
        <ele>694.9</ele>
        <time>2014-05-29T11:53:50Z</time>
      </trkpt>
      <trkpt lat="45.39382" lon="2.58602">
        <ele>694.1</ele>
        <time>2014-05-29T11:53:52Z</time>
      </trkpt>
      <trkpt lat="45.3938" lon="2.58591">
        <ele>694</ele>
        <time>2014-05-29T11:53:54Z</time>
      </trkpt>
      <trkpt lat="45.39378" lon="2.58581">
        <ele>693</ele>
        <time>2014-05-29T11:53:56Z</time>
      </trkpt>
      <trkpt lat="45.39375" lon="2.58571">
        <ele>693.2</ele>
        <time>2014-05-29T11:53:58Z</time>
      </trkpt>
      <trkpt lat="45.39374" lon="2.58561">
        <ele>692.7</ele>
        <time>2014-05-29T11:54:00Z</time>
      </trkpt>
      <trkpt lat="45.39373" lon="2.58556">
        <ele>692.6</ele>
        <time>2014-05-29T11:54:01Z</time>
      </trkpt>
      <trkpt lat="45.39372" lon="2.58539">
        <ele>692.2</ele>
        <time>2014-05-29T11:54:04Z</time>
      </trkpt>
      <trkpt lat="45.39371" lon="2.58529">
        <ele>692.5</ele>
        <time>2014-05-29T11:54:06Z</time>
      </trkpt>
      <trkpt lat="45.39372" lon="2.58518">
        <ele>692.7</ele>
        <time>2014-05-29T11:54:08Z</time>
      </trkpt>
      <trkpt lat="45.39372" lon="2.58508">
        <ele>693</ele>
        <time>2014-05-29T11:54:10Z</time>
      </trkpt>
      <trkpt lat="45.3937" lon="2.58499">
        <ele>693.4</ele>
        <time>2014-05-29T11:54:12Z</time>
      </trkpt>
      <trkpt lat="45.39368" lon="2.5849">
        <ele>693.9</ele>
        <time>2014-05-29T11:54:14Z</time>
      </trkpt>
      <trkpt lat="45.39367" lon="2.58481">
        <ele>694.3</ele>
        <time>2014-05-29T11:54:16Z</time>
      </trkpt>
      <trkpt lat="45.39364" lon="2.58472">
        <ele>694.4</ele>
        <time>2014-05-29T11:54:18Z</time>
      </trkpt>
      <trkpt lat="45.39362" lon="2.58463">
        <ele>694.5</ele>
        <time>2014-05-29T11:54:20Z</time>
      </trkpt>
      <trkpt lat="45.3936" lon="2.58453">
        <ele>694.6</ele>
        <time>2014-05-29T11:54:22Z</time>
      </trkpt>
      <trkpt lat="45.39356" lon="2.58442">
        <ele>695.1</ele>
        <time>2014-05-29T11:54:24Z</time>
      </trkpt>
      <trkpt lat="45.39352" lon="2.58432">
        <ele>694.9</ele>
        <time>2014-05-29T11:54:26Z</time>
      </trkpt>
      <trkpt lat="45.39351" lon="2.58426">
        <ele>694.9</ele>
        <time>2014-05-29T11:54:27Z</time>
      </trkpt>
      <trkpt lat="45.39349" lon="2.58419">
        <ele>694.8</ele>
        <time>2014-05-29T11:54:28Z</time>
      </trkpt>
      <trkpt lat="45.39348" lon="2.58413">
        <ele>694.7</ele>
        <time>2014-05-29T11:54:29Z</time>
      </trkpt>
      <trkpt lat="45.39346" lon="2.58406">
        <ele>694.4</ele>
        <time>2014-05-29T11:54:30Z</time>
      </trkpt>
      <trkpt lat="45.39345" lon="2.58398">
        <ele>694.1</ele>
        <time>2014-05-29T11:54:31Z</time>
      </trkpt>
      <trkpt lat="45.39344" lon="2.58391">
        <ele>694</ele>
        <time>2014-05-29T11:54:32Z</time>
      </trkpt>
      <trkpt lat="45.39341" lon="2.58384">
        <ele>693.6</ele>
        <time>2014-05-29T11:54:33Z</time>
      </trkpt>
      <trkpt lat="45.39337" lon="2.58376">
        <ele>693.3</ele>
        <time>2014-05-29T11:54:34Z</time>
      </trkpt>
      <trkpt lat="45.39332" lon="2.58369">
        <ele>692.4</ele>
        <time>2014-05-29T11:54:35Z</time>
      </trkpt>
      <trkpt lat="45.39327" lon="2.58359">
        <ele>691</ele>
        <time>2014-05-29T11:54:37Z</time>
      </trkpt>
      <trkpt lat="45.3932" lon="2.58352">
        <ele>689.4</ele>
        <time>2014-05-29T11:54:40Z</time>
      </trkpt>
      <trkpt lat="45.39313" lon="2.58347">
        <ele>688</ele>
        <time>2014-05-29T11:54:43Z</time>
      </trkpt>
      <trkpt lat="45.39306" lon="2.58341">
        <ele>686.7</ele>
        <time>2014-05-29T11:54:47Z</time>
      </trkpt>
      <trkpt lat="45.39299" lon="2.58333">
        <ele>685.5</ele>
        <time>2014-05-29T11:54:52Z</time>
      </trkpt>
      <trkpt lat="45.39292" lon="2.58326">
        <ele>684.9</ele>
        <time>2014-05-29T11:54:59Z</time>
      </trkpt>
      <trkpt lat="45.39285" lon="2.58318">
        <ele>685.3</ele>
        <time>2014-05-29T11:55:07Z</time>
      </trkpt>
      <trkpt lat="45.39284" lon="2.58314">
        <ele>684.5</ele>
        <time>2014-05-29T11:55:08Z</time>
      </trkpt>
      <trkpt lat="45.39289" lon="2.583">
        <ele>678.7</ele>
        <time>2014-05-29T11:55:17Z</time>
      </trkpt>
      <trkpt lat="45.39294" lon="2.58299">
        <ele>678.4</ele>
        <time>2014-05-29T11:55:19Z</time>
      </trkpt>
      <trkpt lat="45.39302" lon="2.58302">
        <ele>678</ele>
        <time>2014-05-29T11:55:21Z</time>
      </trkpt>
      <trkpt lat="45.39306" lon="2.58305">
        <ele>677.3</ele>
        <time>2014-05-29T11:55:22Z</time>
      </trkpt>
      <trkpt lat="45.39311" lon="2.5831">
        <ele>676.8</ele>
        <time>2014-05-29T11:55:23Z</time>
      </trkpt>
      <trkpt lat="45.39315" lon="2.58316">
        <ele>676.4</ele>
        <time>2014-05-29T11:55:24Z</time>
      </trkpt>
      <trkpt lat="45.39319" lon="2.58324">
        <ele>676.3</ele>
        <time>2014-05-29T11:55:25Z</time>
      </trkpt>
      <trkpt lat="45.39324" lon="2.5833">
        <ele>676.3</ele>
        <time>2014-05-29T11:55:26Z</time>
      </trkpt>
      <trkpt lat="45.39329" lon="2.58337">
        <ele>675.1</ele>
        <time>2014-05-29T11:55:27Z</time>
      </trkpt>
      <trkpt lat="45.39334" lon="2.58344">
        <ele>674.2</ele>
        <time>2014-05-29T11:55:28Z</time>
      </trkpt>
      <trkpt lat="45.39339" lon="2.58352">
        <ele>673.2</ele>
        <time>2014-05-29T11:55:29Z</time>
      </trkpt>
      <trkpt lat="45.39344" lon="2.58358">
        <ele>672.5</ele>
        <time>2014-05-29T11:55:30Z</time>
      </trkpt>
      <trkpt lat="45.39349" lon="2.58364">
        <ele>671.9</ele>
        <time>2014-05-29T11:55:31Z</time>
      </trkpt>
      <trkpt lat="45.39354" lon="2.5837">
        <ele>671.6</ele>
        <time>2014-05-29T11:55:32Z</time>
      </trkpt>
      <trkpt lat="45.39358" lon="2.58373">
        <ele>671.4</ele>
        <time>2014-05-29T11:55:33Z</time>
      </trkpt>
      <trkpt lat="45.39366" lon="2.5837">
        <ele>668.5</ele>
        <time>2014-05-29T11:55:37Z</time>
      </trkpt>
      <trkpt lat="45.39373" lon="2.58363">
        <ele>666.7</ele>
        <time>2014-05-29T11:55:41Z</time>
      </trkpt>
      <trkpt lat="45.39378" lon="2.58354">
        <ele>663.2</ele>
        <time>2014-05-29T11:55:54Z</time>
      </trkpt>
      <trkpt lat="45.39375" lon="2.58343">
        <ele>660</ele>
        <time>2014-05-29T11:56:00Z</time>
      </trkpt>
      <trkpt lat="45.39376" lon="2.58333">
        <ele>657.1</ele>
        <time>2014-05-29T11:56:03Z</time>
      </trkpt>
      <trkpt lat="45.39374" lon="2.58321">
        <ele>653.3</ele>
        <time>2014-05-29T11:56:07Z</time>
      </trkpt>
      <trkpt lat="45.39368" lon="2.58313">
        <ele>650.6</ele>
        <time>2014-05-29T11:56:10Z</time>
      </trkpt>
      <trkpt lat="45.39368" lon="2.5831">
        <ele>649.9</ele>
        <time>2014-05-29T11:56:11Z</time>
      </trkpt>
      <trkpt lat="45.39368" lon="2.58291">
        <ele>647.2</ele>
        <time>2014-05-29T11:56:18Z</time>
      </trkpt>
      <trkpt lat="45.39367" lon="2.5828">
        <ele>645</ele>
        <time>2014-05-29T11:56:22Z</time>
      </trkpt>
      <trkpt lat="45.39365" lon="2.58268">
        <ele>642.3</ele>
        <time>2014-05-29T11:56:27Z</time>
      </trkpt>
      <trkpt lat="45.39362" lon="2.58257">
        <ele>640.1</ele>
        <time>2014-05-29T11:56:31Z</time>
      </trkpt>
      <trkpt lat="45.3936" lon="2.58247">
        <ele>637.8</ele>
        <time>2014-05-29T11:56:34Z</time>
      </trkpt>
      <trkpt lat="45.39359" lon="2.58235">
        <ele>634.3</ele>
        <time>2014-05-29T11:56:39Z</time>
      </trkpt>
      <trkpt lat="45.39358" lon="2.58223">
        <ele>630.7</ele>
        <time>2014-05-29T11:56:45Z</time>
      </trkpt>
      <trkpt lat="45.39357" lon="2.58213">
        <ele>629.2</ele>
        <time>2014-05-29T11:56:48Z</time>
      </trkpt>
      <trkpt lat="45.39357" lon="2.58201">
        <ele>625.2</ele>
        <time>2014-05-29T11:56:54Z</time>
      </trkpt>
      <trkpt lat="45.39356" lon="2.5819">
        <ele>624.2</ele>
        <time>2014-05-29T11:57:02Z</time>
      </trkpt>
      <trkpt lat="45.39356" lon="2.58179">
        <ele>623.5</ele>
        <time>2014-05-29T11:57:08Z</time>
      </trkpt>
      <trkpt lat="45.39356" lon="2.58167">
        <ele>624</ele>
        <time>2014-05-29T11:57:13Z</time>
      </trkpt>
      <trkpt lat="45.39355" lon="2.58164">
        <ele>624.1</ele>
        <time>2014-05-29T11:57:14Z</time>
      </trkpt>
      <trkpt lat="45.3935" lon="2.58145">
        <ele>622.7</ele>
        <time>2014-05-29T11:57:18Z</time>
      </trkpt>
      <trkpt lat="45.39345" lon="2.58136">
        <ele>620.9</ele>
        <time>2014-05-29T11:57:21Z</time>
      </trkpt>
      <trkpt lat="45.39341" lon="2.58128">
        <ele>620</ele>
        <time>2014-05-29T11:57:23Z</time>
      </trkpt>
      <trkpt lat="45.39335" lon="2.58121">
        <ele>618.9</ele>
        <time>2014-05-29T11:57:26Z</time>
      </trkpt>
      <trkpt lat="45.39328" lon="2.58112">
        <ele>618.2</ele>
        <time>2014-05-29T11:57:29Z</time>
      </trkpt>
      <trkpt lat="45.39323" lon="2.58103">
        <ele>618.8</ele>
        <time>2014-05-29T11:57:32Z</time>
      </trkpt>
      <trkpt lat="45.39318" lon="2.58095">
        <ele>619.4</ele>
        <time>2014-05-29T11:57:34Z</time>
      </trkpt>
      <trkpt lat="45.39315" lon="2.5809">
        <ele>618.9</ele>
        <time>2014-05-29T11:57:35Z</time>
      </trkpt>
      <trkpt lat="45.39309" lon="2.58081">
        <ele>618.4</ele>
        <time>2014-05-29T11:57:37Z</time>
      </trkpt>
      <trkpt lat="45.39305" lon="2.58077">
        <ele>617.7</ele>
        <time>2014-05-29T11:57:38Z</time>
      </trkpt>
      <trkpt lat="45.39298" lon="2.5807">
        <ele>616.2</ele>
        <time>2014-05-29T11:57:40Z</time>
      </trkpt>
      <trkpt lat="45.39293" lon="2.58061">
        <ele>614.2</ele>
        <time>2014-05-29T11:57:42Z</time>
      </trkpt>
      <trkpt lat="45.3929" lon="2.58056">
        <ele>613.4</ele>
        <time>2014-05-29T11:57:43Z</time>
      </trkpt>
      <trkpt lat="45.39287" lon="2.58047">
        <ele>611.6</ele>
        <time>2014-05-29T11:57:45Z</time>
      </trkpt>
      <trkpt lat="45.39292" lon="2.58039">
        <ele>606.2</ele>
        <time>2014-05-29T11:57:52Z</time>
      </trkpt>
      <trkpt lat="45.39293" lon="2.58028">
        <ele>603.7</ele>
        <time>2014-05-29T11:57:57Z</time>
      </trkpt>
      <trkpt lat="45.39291" lon="2.58016">
        <ele>600.9</ele>
        <time>2014-05-29T11:58:00Z</time>
      </trkpt>
      <trkpt lat="45.39285" lon="2.58007">
        <ele>596.1</ele>
        <time>2014-05-29T11:58:05Z</time>
      </trkpt>
      <trkpt lat="45.39278" lon="2.57999">
        <ele>590.8</ele>
        <time>2014-05-29T11:58:20Z</time>
      </trkpt>
      <trkpt lat="45.39278" lon="2.57999">
        <ele>590.8</ele>
        <time>2014-05-29T11:58:21Z</time>
      </trkpt>
      <trkpt lat="45.39276" lon="2.57977">
        <ele>587</ele>
        <time>2014-05-29T11:58:42Z</time>
      </trkpt>
      <trkpt lat="45.39272" lon="2.57968">
        <ele>585.7</ele>
        <time>2014-05-29T11:58:44Z</time>
      </trkpt>
      <trkpt lat="45.39265" lon="2.57961">
        <ele>583.5</ele>
        <time>2014-05-29T11:58:50Z</time>
      </trkpt>
      <trkpt lat="45.39259" lon="2.57956">
        <ele>581.7</ele>
        <time>2014-05-29T11:58:54Z</time>
      </trkpt>
      <trkpt lat="45.3925" lon="2.57952">
        <ele>580.7</ele>
        <time>2014-05-29T11:58:59Z</time>
      </trkpt>
      <trkpt lat="45.39242" lon="2.57949">
        <ele>582.1</ele>
        <time>2014-05-29T11:59:07Z</time>
      </trkpt>
      <trkpt lat="45.39234" lon="2.57948">
        <ele>581.5</ele>
        <time>2014-05-29T11:59:12Z</time>
      </trkpt>
      <trkpt lat="45.39225" lon="2.57944">
        <ele>581.4</ele>
        <time>2014-05-29T11:59:16Z</time>
      </trkpt>
      <trkpt lat="45.39218" lon="2.57945">
        <ele>581</ele>
        <time>2014-05-29T11:59:19Z</time>
      </trkpt>
      <trkpt lat="45.39212" lon="2.57946">
        <ele>580.9</ele>
        <time>2014-05-29T11:59:21Z</time>
      </trkpt>
      <trkpt lat="45.39209" lon="2.57947">
        <ele>581</ele>
        <time>2014-05-29T11:59:22Z</time>
      </trkpt>
      <trkpt lat="45.39197" lon="2.57956">
        <ele>581.1</ele>
        <time>2014-05-29T11:59:28Z</time>
      </trkpt>
      <trkpt lat="45.39189" lon="2.57954">
        <ele>580.9</ele>
        <time>2014-05-29T11:59:34Z</time>
      </trkpt>
      <trkpt lat="45.39183" lon="2.57948">
        <ele>578.9</ele>
        <time>2014-05-29T11:59:37Z</time>
      </trkpt>
      <trkpt lat="45.39177" lon="2.57946">
        <ele>577.5</ele>
        <time>2014-05-29T11:59:39Z</time>
      </trkpt>
      <trkpt lat="45.3917" lon="2.57946">
        <ele>576.3</ele>
        <time>2014-05-29T11:59:41Z</time>
      </trkpt>
      <trkpt lat="45.39161" lon="2.57946">
        <ele>575.1</ele>
        <time>2014-05-29T11:59:43Z</time>
      </trkpt>
      <trkpt lat="45.39153" lon="2.57947">
        <ele>574.1</ele>
        <time>2014-05-29T11:59:45Z</time>
      </trkpt>
      <trkpt lat="45.39146" lon="2.57945">
        <ele>573.5</ele>
        <time>2014-05-29T11:59:47Z</time>
      </trkpt>
      <trkpt lat="45.39139" lon="2.57942">
        <ele>573.8</ele>
        <time>2014-05-29T11:59:49Z</time>
      </trkpt>
      <trkpt lat="45.39132" lon="2.57939">
        <ele>572.6</ele>
        <time>2014-05-29T11:59:52Z</time>
      </trkpt>
      <trkpt lat="45.39126" lon="2.57938">
        <ele>572.1</ele>
        <time>2014-05-29T11:59:54Z</time>
      </trkpt>
      <trkpt lat="45.39119" lon="2.5794">
        <ele>571</ele>
        <time>2014-05-29T11:59:56Z</time>
      </trkpt>
      <trkpt lat="45.39111" lon="2.57941">
        <ele>570.6</ele>
        <time>2014-05-29T11:59:58Z</time>
      </trkpt>
      <trkpt lat="45.39104" lon="2.57942">
        <ele>570.4</ele>
        <time>2014-05-29T12:00:00Z</time>
      </trkpt>
      <trkpt lat="45.39096" lon="2.57942">
        <ele>570.1</ele>
        <time>2014-05-29T12:00:03Z</time>
      </trkpt>
      <trkpt lat="45.3909" lon="2.57942">
        <ele>570.1</ele>
        <time>2014-05-29T12:00:05Z</time>
      </trkpt>
      <trkpt lat="45.39082" lon="2.57941">
        <ele>570.5</ele>
        <time>2014-05-29T12:00:07Z</time>
      </trkpt>
      <trkpt lat="45.39075" lon="2.57938">
        <ele>570.8</ele>
        <time>2014-05-29T12:00:09Z</time>
      </trkpt>
      <trkpt lat="45.39068" lon="2.57935">
        <ele>570.6</ele>
        <time>2014-05-29T12:00:11Z</time>
      </trkpt>
      <trkpt lat="45.39059" lon="2.57934">
        <ele>570.7</ele>
        <time>2014-05-29T12:00:14Z</time>
      </trkpt>
      <trkpt lat="45.39052" lon="2.57931">
        <ele>570.6</ele>
        <time>2014-05-29T12:00:16Z</time>
      </trkpt>
      <trkpt lat="45.39043" lon="2.5793">
        <ele>570.9</ele>
        <time>2014-05-29T12:00:20Z</time>
      </trkpt>
      <trkpt lat="45.39036" lon="2.57931">
        <ele>571.3</ele>
        <time>2014-05-29T12:00:26Z</time>
      </trkpt>
      <trkpt lat="45.39034" lon="2.57931">
        <ele>571.5</ele>
        <time>2014-05-29T12:00:27Z</time>
      </trkpt>
      <trkpt lat="45.39019" lon="2.57934">
        <ele>574.9</ele>
        <time>2014-05-29T12:00:37Z</time>
      </trkpt>
      <trkpt lat="45.39011" lon="2.57934">
        <ele>575.5</ele>
        <time>2014-05-29T12:00:43Z</time>
      </trkpt>
      <trkpt lat="45.39003" lon="2.57934">
        <ele>575.8</ele>
        <time>2014-05-29T12:00:48Z</time>
      </trkpt>
      <trkpt lat="45.38996" lon="2.57933">
        <ele>576.9</ele>
        <time>2014-05-29T12:00:52Z</time>
      </trkpt>
      <trkpt lat="45.38989" lon="2.5793">
        <ele>577.3</ele>
        <time>2014-05-29T12:00:55Z</time>
      </trkpt>
      <trkpt lat="45.3898" lon="2.57929">
        <ele>577</ele>
        <time>2014-05-29T12:00:59Z</time>
      </trkpt>
      <trkpt lat="45.38973" lon="2.57924">
        <ele>577.1</ele>
        <time>2014-05-29T12:01:01Z</time>
      </trkpt>
      <trkpt lat="45.38968" lon="2.57922">
        <ele>576.6</ele>
        <time>2014-05-29T12:01:02Z</time>
      </trkpt>
      <trkpt lat="45.3896" lon="2.57917">
        <ele>575.6</ele>
        <time>2014-05-29T12:01:04Z</time>
      </trkpt>
      <trkpt lat="45.38956" lon="2.57915">
        <ele>575.2</ele>
        <time>2014-05-29T12:01:05Z</time>
      </trkpt>
      <trkpt lat="45.38952" lon="2.57912">
        <ele>574.6</ele>
        <time>2014-05-29T12:01:06Z</time>
      </trkpt>
      <trkpt lat="45.38947" lon="2.5791">
        <ele>574.1</ele>
        <time>2014-05-29T12:01:07Z</time>
      </trkpt>
      <trkpt lat="45.38942" lon="2.57908">
        <ele>573.8</ele>
        <time>2014-05-29T12:01:08Z</time>
      </trkpt>
      <trkpt lat="45.38938" lon="2.57905">
        <ele>572.6</ele>
        <time>2014-05-29T12:01:09Z</time>
      </trkpt>
      <trkpt lat="45.3893" lon="2.57899">
        <ele>571.1</ele>
        <time>2014-05-29T12:01:11Z</time>
      </trkpt>
      <trkpt lat="45.38936" lon="2.57894">
        <ele>565.3</ele>
        <time>2014-05-29T12:01:20Z</time>
      </trkpt>
      <trkpt lat="45.38943" lon="2.57893">
        <ele>564.8</ele>
        <time>2014-05-29T12:01:22Z</time>
      </trkpt>
      <trkpt lat="45.3895" lon="2.57892">
        <ele>564.2</ele>
        <time>2014-05-29T12:01:24Z</time>
      </trkpt>
      <trkpt lat="45.38956" lon="2.57888">
        <ele>564.3</ele>
        <time>2014-05-29T12:01:26Z</time>
      </trkpt>
      <trkpt lat="45.38963" lon="2.57882">
        <ele>563.8</ele>
        <time>2014-05-29T12:01:28Z</time>
      </trkpt>
      <trkpt lat="45.38965" lon="2.57882">
        <ele>563.4</ele>
        <time>2014-05-29T12:01:29Z</time>
      </trkpt>
      <trkpt lat="45.38979" lon="2.57881">
        <ele>560</ele>
        <time>2014-05-29T12:01:34Z</time>
      </trkpt>
      <trkpt lat="45.38986" lon="2.57879">
        <ele>558.9</ele>
        <time>2014-05-29T12:01:36Z</time>
      </trkpt>
      <trkpt lat="45.38989" lon="2.57877">
        <ele>558.3</ele>
        <time>2014-05-29T12:01:37Z</time>
      </trkpt>
      <trkpt lat="45.38994" lon="2.57874">
        <ele>557.9</ele>
        <time>2014-05-29T12:01:38Z</time>
      </trkpt>
      <trkpt lat="45.39" lon="2.57872">
        <ele>557.6</ele>
        <time>2014-05-29T12:01:39Z</time>
      </trkpt>
      <trkpt lat="45.39006" lon="2.57869">
        <ele>557.2</ele>
        <time>2014-05-29T12:01:40Z</time>
      </trkpt>
      <trkpt lat="45.39012" lon="2.57867">
        <ele>556.9</ele>
        <time>2014-05-29T12:01:41Z</time>
      </trkpt>
      <trkpt lat="45.39019" lon="2.57866">
        <ele>556.7</ele>
        <time>2014-05-29T12:01:42Z</time>
      </trkpt>
      <trkpt lat="45.39025" lon="2.57864">
        <ele>556.6</ele>
        <time>2014-05-29T12:01:43Z</time>
      </trkpt>
      <trkpt lat="45.39032" lon="2.57863">
        <ele>555.9</ele>
        <time>2014-05-29T12:01:44Z</time>
      </trkpt>
      <trkpt lat="45.39038" lon="2.57861">
        <ele>555.3</ele>
        <time>2014-05-29T12:01:45Z</time>
      </trkpt>
      <trkpt lat="45.39045" lon="2.57859">
        <ele>555</ele>
        <time>2014-05-29T12:01:46Z</time>
      </trkpt>
      <trkpt lat="45.3905" lon="2.57857">
        <ele>555</ele>
        <time>2014-05-29T12:01:47Z</time>
      </trkpt>
      <trkpt lat="45.39056" lon="2.57856">
        <ele>555.1</ele>
        <time>2014-05-29T12:01:48Z</time>
      </trkpt>
      <trkpt lat="45.39061" lon="2.57855">
        <ele>554.8</ele>
        <time>2014-05-29T12:01:49Z</time>
      </trkpt>
      <trkpt lat="45.39066" lon="2.57853">
        <ele>554.5</ele>
        <time>2014-05-29T12:01:50Z</time>
      </trkpt>
      <trkpt lat="45.39072" lon="2.57851">
        <ele>554.3</ele>
        <time>2014-05-29T12:01:51Z</time>
      </trkpt>
      <trkpt lat="45.39077" lon="2.57849">
        <ele>554.4</ele>
        <time>2014-05-29T12:01:52Z</time>
      </trkpt>
      <trkpt lat="45.39082" lon="2.57847">
        <ele>554.4</ele>
        <time>2014-05-29T12:01:53Z</time>
      </trkpt>
      <trkpt lat="45.39088" lon="2.57846">
        <ele>554</ele>
        <time>2014-05-29T12:01:54Z</time>
      </trkpt>
      <trkpt lat="45.39094" lon="2.57844">
        <ele>553.8</ele>
        <time>2014-05-29T12:01:55Z</time>
      </trkpt>
      <trkpt lat="45.39099" lon="2.57843">
        <ele>553.7</ele>
        <time>2014-05-29T12:01:56Z</time>
      </trkpt>
      <trkpt lat="45.39104" lon="2.57842">
        <ele>553.6</ele>
        <time>2014-05-29T12:01:57Z</time>
      </trkpt>
      <trkpt lat="45.39109" lon="2.5784">
        <ele>553.5</ele>
        <time>2014-05-29T12:01:58Z</time>
      </trkpt>
      <trkpt lat="45.39114" lon="2.57837">
        <ele>554.2</ele>
        <time>2014-05-29T12:01:59Z</time>
      </trkpt>
      <trkpt lat="45.39119" lon="2.57834">
        <ele>554.8</ele>
        <time>2014-05-29T12:02:00Z</time>
      </trkpt>
      <trkpt lat="45.39123" lon="2.57831">
        <ele>554.7</ele>
        <time>2014-05-29T12:02:01Z</time>
      </trkpt>
      <trkpt lat="45.3913" lon="2.57825">
        <ele>554.6</ele>
        <time>2014-05-29T12:02:03Z</time>
      </trkpt>
      <trkpt lat="45.39137" lon="2.5782">
        <ele>554.7</ele>
        <time>2014-05-29T12:02:05Z</time>
      </trkpt>
      <trkpt lat="45.39142" lon="2.57813">
        <ele>554.2</ele>
        <time>2014-05-29T12:02:07Z</time>
      </trkpt>
      <trkpt lat="45.39145" lon="2.57808">
        <ele>554.2</ele>
        <time>2014-05-29T12:02:08Z</time>
      </trkpt>
      <trkpt lat="45.39148" lon="2.57802">
        <ele>554.1</ele>
        <time>2014-05-29T12:02:09Z</time>
      </trkpt>
      <trkpt lat="45.3915" lon="2.57796">
        <ele>554.1</ele>
        <time>2014-05-29T12:02:10Z</time>
      </trkpt>
      <trkpt lat="45.39151" lon="2.5779">
        <ele>554.1</ele>
        <time>2014-05-29T12:02:11Z</time>
      </trkpt>
      <trkpt lat="45.39154" lon="2.57784">
        <ele>554.1</ele>
        <time>2014-05-29T12:02:12Z</time>
      </trkpt>
      <trkpt lat="45.39157" lon="2.5778">
        <ele>553.6</ele>
        <time>2014-05-29T12:02:13Z</time>
      </trkpt>
      <trkpt lat="45.39161" lon="2.57775">
        <ele>553.2</ele>
        <time>2014-05-29T12:02:14Z</time>
      </trkpt>
      <trkpt lat="45.39165" lon="2.5777">
        <ele>553.7</ele>
        <time>2014-05-29T12:02:15Z</time>
      </trkpt>
      <trkpt lat="45.3917" lon="2.57767">
        <ele>554</ele>
        <time>2014-05-29T12:02:16Z</time>
      </trkpt>
      <trkpt lat="45.39174" lon="2.57763">
        <ele>554.3</ele>
        <time>2014-05-29T12:02:17Z</time>
      </trkpt>
      <trkpt lat="45.39178" lon="2.57759">
        <ele>554.4</ele>
        <time>2014-05-29T12:02:18Z</time>
      </trkpt>
      <trkpt lat="45.39183" lon="2.57755">
        <ele>554.5</ele>
        <time>2014-05-29T12:02:19Z</time>
      </trkpt>
      <trkpt lat="45.39187" lon="2.57751">
        <ele>554.9</ele>
        <time>2014-05-29T12:02:20Z</time>
      </trkpt>
      <trkpt lat="45.39192" lon="2.57747">
        <ele>555.2</ele>
        <time>2014-05-29T12:02:21Z</time>
      </trkpt>
      <trkpt lat="45.39196" lon="2.57743">
        <ele>554.3</ele>
        <time>2014-05-29T12:02:22Z</time>
      </trkpt>
      <trkpt lat="45.392" lon="2.5774">
        <ele>553.7</ele>
        <time>2014-05-29T12:02:23Z</time>
      </trkpt>
      <trkpt lat="45.39205" lon="2.57736">
        <ele>553.2</ele>
        <time>2014-05-29T12:02:24Z</time>
      </trkpt>
      <trkpt lat="45.39209" lon="2.57733">
        <ele>553</ele>
        <time>2014-05-29T12:02:25Z</time>
      </trkpt>
      <trkpt lat="45.39214" lon="2.5773">
        <ele>552.8</ele>
        <time>2014-05-29T12:02:26Z</time>
      </trkpt>
      <trkpt lat="45.39219" lon="2.57727">
        <ele>553.2</ele>
        <time>2014-05-29T12:02:27Z</time>
      </trkpt>
      <trkpt lat="45.39223" lon="2.57725">
        <ele>553.5</ele>
        <time>2014-05-29T12:02:28Z</time>
      </trkpt>
      <trkpt lat="45.39228" lon="2.57722">
        <ele>553.3</ele>
        <time>2014-05-29T12:02:29Z</time>
      </trkpt>
      <trkpt lat="45.39232" lon="2.57718">
        <ele>553.1</ele>
        <time>2014-05-29T12:02:30Z</time>
      </trkpt>
      <trkpt lat="45.39236" lon="2.57715">
        <ele>553</ele>
        <time>2014-05-29T12:02:31Z</time>
      </trkpt>
      <trkpt lat="45.39241" lon="2.57712">
        <ele>552.9</ele>
        <time>2014-05-29T12:02:32Z</time>
      </trkpt>
      <trkpt lat="45.39244" lon="2.57708">
        <ele>552.9</ele>
        <time>2014-05-29T12:02:33Z</time>
      </trkpt>
      <trkpt lat="45.39249" lon="2.57705">
        <ele>553.1</ele>
        <time>2014-05-29T12:02:34Z</time>
      </trkpt>
      <trkpt lat="45.39254" lon="2.57701">
        <ele>553.2</ele>
        <time>2014-05-29T12:02:35Z</time>
      </trkpt>
      <trkpt lat="45.39259" lon="2.57698">
        <ele>553.3</ele>
        <time>2014-05-29T12:02:36Z</time>
      </trkpt>
      <trkpt lat="45.39263" lon="2.57695">
        <ele>553.2</ele>
        <time>2014-05-29T12:02:37Z</time>
      </trkpt>
      <trkpt lat="45.39268" lon="2.57691">
        <ele>553.1</ele>
        <time>2014-05-29T12:02:38Z</time>
      </trkpt>
      <trkpt lat="45.39273" lon="2.57687">
        <ele>553</ele>
        <time>2014-05-29T12:02:39Z</time>
      </trkpt>
      <trkpt lat="45.39279" lon="2.57683">
        <ele>553</ele>
        <time>2014-05-29T12:02:40Z</time>
      </trkpt>
      <trkpt lat="45.39283" lon="2.57681">
        <ele>552.6</ele>
        <time>2014-05-29T12:02:41Z</time>
      </trkpt>
      <trkpt lat="45.39288" lon="2.57677">
        <ele>552.4</ele>
        <time>2014-05-29T12:02:42Z</time>
      </trkpt>
      <trkpt lat="45.39294" lon="2.57673">
        <ele>552.1</ele>
        <time>2014-05-29T12:02:43Z</time>
      </trkpt>
      <trkpt lat="45.393" lon="2.57669">
        <ele>552.2</ele>
        <time>2014-05-29T12:02:44Z</time>
      </trkpt>
      <trkpt lat="45.39306" lon="2.57666">
        <ele>552.3</ele>
        <time>2014-05-29T12:02:45Z</time>
      </trkpt>
      <trkpt lat="45.39312" lon="2.57662">
        <ele>552.6</ele>
        <time>2014-05-29T12:02:46Z</time>
      </trkpt>
      <trkpt lat="45.39317" lon="2.57659">
        <ele>552.8</ele>
        <time>2014-05-29T12:02:47Z</time>
      </trkpt>
      <trkpt lat="45.39322" lon="2.57656">
        <ele>553</ele>
        <time>2014-05-29T12:02:48Z</time>
      </trkpt>
      <trkpt lat="45.39327" lon="2.57654">
        <ele>552.5</ele>
        <time>2014-05-29T12:02:49Z</time>
      </trkpt>
      <trkpt lat="45.39335" lon="2.5765">
        <ele>551.7</ele>
        <time>2014-05-29T12:02:51Z</time>
      </trkpt>
      <trkpt lat="45.39344" lon="2.57645">
        <ele>551.3</ele>
        <time>2014-05-29T12:02:53Z</time>
      </trkpt>
      <trkpt lat="45.39348" lon="2.57642">
        <ele>551.2</ele>
        <time>2014-05-29T12:02:54Z</time>
      </trkpt>
      <trkpt lat="45.39354" lon="2.57635">
        <ele>551.2</ele>
        <time>2014-05-29T12:02:56Z</time>
      </trkpt>
      <trkpt lat="45.39351" lon="2.57625">
        <ele>551.1</ele>
        <time>2014-05-29T12:02:59Z</time>
      </trkpt>
      <trkpt lat="45.39346" lon="2.5762">
        <ele>551.8</ele>
        <time>2014-05-29T12:03:01Z</time>
      </trkpt>
      <trkpt lat="45.39341" lon="2.57614">
        <ele>551.7</ele>
        <time>2014-05-29T12:03:03Z</time>
      </trkpt>
      <trkpt lat="45.39337" lon="2.57607">
        <ele>551.3</ele>
        <time>2014-05-29T12:03:05Z</time>
      </trkpt>
      <trkpt lat="45.39337" lon="2.57596">
        <ele>551.1</ele>
        <time>2014-05-29T12:03:07Z</time>
      </trkpt>
      <trkpt lat="45.39337" lon="2.57589">
        <ele>551</ele>
        <time>2014-05-29T12:03:08Z</time>
      </trkpt>
      <trkpt lat="45.39339" lon="2.57582">
        <ele>551</ele>
        <time>2014-05-29T12:03:09Z</time>
      </trkpt>
      <trkpt lat="45.3934" lon="2.57575">
        <ele>550.9</ele>
        <time>2014-05-29T12:03:10Z</time>
      </trkpt>
      <trkpt lat="45.39341" lon="2.57568">
        <ele>550.9</ele>
        <time>2014-05-29T12:03:11Z</time>
      </trkpt>
      <trkpt lat="45.39342" lon="2.57561">
        <ele>550.7</ele>
        <time>2014-05-29T12:03:12Z</time>
      </trkpt>
      <trkpt lat="45.39341" lon="2.57555">
        <ele>550.6</ele>
        <time>2014-05-29T12:03:13Z</time>
      </trkpt>
      <trkpt lat="45.3934" lon="2.57548">
        <ele>550.6</ele>
        <time>2014-05-29T12:03:14Z</time>
      </trkpt>
      <trkpt lat="45.39338" lon="2.57541">
        <ele>550.8</ele>
        <time>2014-05-29T12:03:15Z</time>
      </trkpt>
      <trkpt lat="45.39336" lon="2.57535">
        <ele>550.9</ele>
        <time>2014-05-29T12:03:16Z</time>
      </trkpt>
      <trkpt lat="45.39334" lon="2.57528">
        <ele>550.6</ele>
        <time>2014-05-29T12:03:17Z</time>
      </trkpt>
      <trkpt lat="45.39332" lon="2.57522">
        <ele>550.4</ele>
        <time>2014-05-29T12:03:18Z</time>
      </trkpt>
      <trkpt lat="45.39331" lon="2.57509">
        <ele>550.2</ele>
        <time>2014-05-29T12:03:20Z</time>
      </trkpt>
      <trkpt lat="45.39334" lon="2.575">
        <ele>550.4</ele>
        <time>2014-05-29T12:03:22Z</time>
      </trkpt>
      <trkpt lat="45.39339" lon="2.57491">
        <ele>550.7</ele>
        <time>2014-05-29T12:03:24Z</time>
      </trkpt>
      <trkpt lat="45.39341" lon="2.57485">
        <ele>550.7</ele>
        <time>2014-05-29T12:03:25Z</time>
      </trkpt>
      <trkpt lat="45.39344" lon="2.57479">
        <ele>550.8</ele>
        <time>2014-05-29T12:03:26Z</time>
      </trkpt>
      <trkpt lat="45.39347" lon="2.57474">
        <ele>550.9</ele>
        <time>2014-05-29T12:03:27Z</time>
      </trkpt>
      <trkpt lat="45.3935" lon="2.57468">
        <ele>551</ele>
        <time>2014-05-29T12:03:28Z</time>
      </trkpt>
      <trkpt lat="45.39352" lon="2.57463">
        <ele>550.9</ele>
        <time>2014-05-29T12:03:29Z</time>
      </trkpt>
      <trkpt lat="45.39355" lon="2.57458">
        <ele>550.8</ele>
        <time>2014-05-29T12:03:30Z</time>
      </trkpt>
      <trkpt lat="45.39358" lon="2.57452">
        <ele>550.9</ele>
        <time>2014-05-29T12:03:31Z</time>
      </trkpt>
      <trkpt lat="45.39361" lon="2.57447">
        <ele>551</ele>
        <time>2014-05-29T12:03:32Z</time>
      </trkpt>
      <trkpt lat="45.39364" lon="2.57442">
        <ele>551.1</ele>
        <time>2014-05-29T12:03:33Z</time>
      </trkpt>
      <trkpt lat="45.39367" lon="2.57437">
        <ele>551.1</ele>
        <time>2014-05-29T12:03:34Z</time>
      </trkpt>
      <trkpt lat="45.3937" lon="2.57431">
        <ele>551</ele>
        <time>2014-05-29T12:03:35Z</time>
      </trkpt>
      <trkpt lat="45.39373" lon="2.57426">
        <ele>550.9</ele>
        <time>2014-05-29T12:03:36Z</time>
      </trkpt>
      <trkpt lat="45.39376" lon="2.57421">
        <ele>550.7</ele>
        <time>2014-05-29T12:03:37Z</time>
      </trkpt>
      <trkpt lat="45.39379" lon="2.57415">
        <ele>550.8</ele>
        <time>2014-05-29T12:03:38Z</time>
      </trkpt>
      <trkpt lat="45.39382" lon="2.57409">
        <ele>550.9</ele>
        <time>2014-05-29T12:03:39Z</time>
      </trkpt>
      <trkpt lat="45.39385" lon="2.57403">
        <ele>551</ele>
        <time>2014-05-29T12:03:40Z</time>
      </trkpt>
      <trkpt lat="45.39388" lon="2.57398">
        <ele>551.1</ele>
        <time>2014-05-29T12:03:41Z</time>
      </trkpt>
      <trkpt lat="45.39391" lon="2.57392">
        <ele>551.2</ele>
        <time>2014-05-29T12:03:42Z</time>
      </trkpt>
      <trkpt lat="45.39394" lon="2.57386">
        <ele>550.9</ele>
        <time>2014-05-29T12:03:43Z</time>
      </trkpt>
      <trkpt lat="45.39397" lon="2.5738">
        <ele>550.7</ele>
        <time>2014-05-29T12:03:44Z</time>
      </trkpt>
      <trkpt lat="45.394" lon="2.57374">
        <ele>550.9</ele>
        <time>2014-05-29T12:03:45Z</time>
      </trkpt>
      <trkpt lat="45.39405" lon="2.57365">
        <ele>551.2</ele>
        <time>2014-05-29T12:03:47Z</time>
      </trkpt>
      <trkpt lat="45.3941" lon="2.57357">
        <ele>551.5</ele>
        <time>2014-05-29T12:03:49Z</time>
      </trkpt>
      <trkpt lat="45.39415" lon="2.57349">
        <ele>550.5</ele>
        <time>2014-05-29T12:03:51Z</time>
      </trkpt>
      <trkpt lat="45.39421" lon="2.5734">
        <ele>550.2</ele>
        <time>2014-05-29T12:03:53Z</time>
      </trkpt>
      <trkpt lat="45.39426" lon="2.5733">
        <ele>550.1</ele>
        <time>2014-05-29T12:03:55Z</time>
      </trkpt>
      <trkpt lat="45.39432" lon="2.57321">
        <ele>550</ele>
        <time>2014-05-29T12:03:57Z</time>
      </trkpt>
      <trkpt lat="45.39437" lon="2.57314">
        <ele>550</ele>
        <time>2014-05-29T12:03:59Z</time>
      </trkpt>
      <trkpt lat="45.39443" lon="2.57307">
        <ele>549.8</ele>
        <time>2014-05-29T12:04:01Z</time>
      </trkpt>
      <trkpt lat="45.39448" lon="2.57297">
        <ele>549.3</ele>
        <time>2014-05-29T12:04:03Z</time>
      </trkpt>
      <trkpt lat="45.39451" lon="2.57292">
        <ele>549.4</ele>
        <time>2014-05-29T12:04:04Z</time>
      </trkpt>
      <trkpt lat="45.39457" lon="2.57282">
        <ele>549.5</ele>
        <time>2014-05-29T12:04:06Z</time>
      </trkpt>
      <trkpt lat="45.39462" lon="2.57272">
        <ele>549.7</ele>
        <time>2014-05-29T12:04:08Z</time>
      </trkpt>
      <trkpt lat="45.39466" lon="2.57262">
        <ele>549.2</ele>
        <time>2014-05-29T12:04:10Z</time>
      </trkpt>
      <trkpt lat="45.39465" lon="2.57251">
        <ele>549.1</ele>
        <time>2014-05-29T12:04:13Z</time>
      </trkpt>
      <trkpt lat="45.39461" lon="2.57243">
        <ele>548.1</ele>
        <time>2014-05-29T12:04:18Z</time>
      </trkpt>
      <trkpt lat="45.39454" lon="2.5724">
        <ele>548.9</ele>
        <time>2014-05-29T12:04:21Z</time>
      </trkpt>
      <trkpt lat="45.39446" lon="2.57239">
        <ele>548.6</ele>
        <time>2014-05-29T12:04:24Z</time>
      </trkpt>
      <trkpt lat="45.39439" lon="2.57241">
        <ele>549.7</ele>
        <time>2014-05-29T12:04:28Z</time>
      </trkpt>
      <trkpt lat="45.39432" lon="2.57244">
        <ele>550.8</ele>
        <time>2014-05-29T12:04:31Z</time>
      </trkpt>
      <trkpt lat="45.39429" lon="2.57246">
        <ele>550.9</ele>
        <time>2014-05-29T12:04:32Z</time>
      </trkpt>
      <trkpt lat="45.39416" lon="2.57251">
        <ele>551.3</ele>
        <time>2014-05-29T12:04:38Z</time>
      </trkpt>
      <trkpt lat="45.39409" lon="2.57253">
        <ele>551.5</ele>
        <time>2014-05-29T12:04:45Z</time>
      </trkpt>
      <trkpt lat="45.39401" lon="2.57259">
        <ele>551.8</ele>
        <time>2014-05-29T12:04:51Z</time>
      </trkpt>
      <trkpt lat="45.39392" lon="2.57262">
        <ele>552.8</ele>
        <time>2014-05-29T12:05:00Z</time>
      </trkpt>
      <trkpt lat="45.39384" lon="2.57262">
        <ele>551.9</ele>
        <time>2014-05-29T12:05:07Z</time>
      </trkpt>
      <trkpt lat="45.39375" lon="2.57266">
        <ele>555.4</ele>
        <time>2014-05-29T12:05:16Z</time>
      </trkpt>
      <trkpt lat="45.39367" lon="2.57262">
        <ele>561.5</ele>
        <time>2014-05-29T12:05:37Z</time>
      </trkpt>
      <trkpt lat="45.39367" lon="2.57261">
        <ele>561.7</ele>
        <time>2014-05-29T12:05:38Z</time>
      </trkpt>
      <trkpt lat="45.39379" lon="2.57244">
        <ele>561.4</ele>
        <time>2014-05-29T12:06:08Z</time>
      </trkpt>
      <trkpt lat="45.39384" lon="2.57234">
        <ele>564</ele>
        <time>2014-05-29T12:06:17Z</time>
      </trkpt>
      <trkpt lat="45.39388" lon="2.57224">
        <ele>564.8</ele>
        <time>2014-05-29T12:06:25Z</time>
      </trkpt>
      <trkpt lat="45.39393" lon="2.57216">
        <ele>565.9</ele>
        <time>2014-05-29T12:06:32Z</time>
      </trkpt>
      <trkpt lat="45.39399" lon="2.57209">
        <ele>566.3</ele>
        <time>2014-05-29T12:06:36Z</time>
      </trkpt>
      <trkpt lat="45.39406" lon="2.57201">
        <ele>565.9</ele>
        <time>2014-05-29T12:06:41Z</time>
      </trkpt>
      <trkpt lat="45.39407" lon="2.57199">
        <ele>566</ele>
        <time>2014-05-29T12:06:42Z</time>
      </trkpt>
      <trkpt lat="45.39418" lon="2.57185">
        <ele>568</ele>
        <time>2014-05-29T12:06:59Z</time>
      </trkpt>
      <trkpt lat="45.39425" lon="2.57177">
        <ele>569.4</ele>
        <time>2014-05-29T12:07:09Z</time>
      </trkpt>
      <trkpt lat="45.39431" lon="2.57168">
        <ele>569.4</ele>
        <time>2014-05-29T12:07:16Z</time>
      </trkpt>
      <trkpt lat="45.39435" lon="2.57157">
        <ele>567.9</ele>
        <time>2014-05-29T12:07:34Z</time>
      </trkpt>
      <trkpt lat="45.3944" lon="2.57148">
        <ele>568.7</ele>
        <time>2014-05-29T12:07:48Z</time>
      </trkpt>
      <trkpt lat="45.39442" lon="2.57147">
        <ele>568.8</ele>
        <time>2014-05-29T12:07:49Z</time>
      </trkpt>
      <trkpt lat="45.39452" lon="2.57134">
        <ele>567.8</ele>
        <time>2014-05-29T12:07:57Z</time>
      </trkpt>
      <trkpt lat="45.39456" lon="2.57124">
        <ele>569</ele>
        <time>2014-05-29T12:08:05Z</time>
      </trkpt>
      <trkpt lat="45.39461" lon="2.57113">
        <ele>569.8</ele>
        <time>2014-05-29T12:08:12Z</time>
      </trkpt>
      <trkpt lat="45.39465" lon="2.57103">
        <ele>570.9</ele>
        <time>2014-05-29T12:08:16Z</time>
      </trkpt>
      <trkpt lat="45.39468" lon="2.57093">
        <ele>571.8</ele>
        <time>2014-05-29T12:08:20Z</time>
      </trkpt>
      <trkpt lat="45.39471" lon="2.57085">
        <ele>572</ele>
        <time>2014-05-29T12:08:23Z</time>
      </trkpt>
      <trkpt lat="45.39474" lon="2.57075">
        <ele>572</ele>
        <time>2014-05-29T12:08:26Z</time>
      </trkpt>
      <trkpt lat="45.39478" lon="2.57064">
        <ele>571.5</ele>
        <time>2014-05-29T12:08:30Z</time>
      </trkpt>
      <trkpt lat="45.39481" lon="2.57054">
        <ele>572.1</ele>
        <time>2014-05-29T12:08:34Z</time>
      </trkpt>
      <trkpt lat="45.3948" lon="2.57041">
        <ele>571.2</ele>
        <time>2014-05-29T12:08:38Z</time>
      </trkpt>
      <trkpt lat="45.3948" lon="2.5703">
        <ele>570.8</ele>
        <time>2014-05-29T12:08:40Z</time>
      </trkpt>
      <trkpt lat="45.39481" lon="2.5702">
        <ele>570.9</ele>
        <time>2014-05-29T12:08:42Z</time>
      </trkpt>
      <trkpt lat="45.39482" lon="2.57008">
        <ele>570.5</ele>
        <time>2014-05-29T12:08:45Z</time>
      </trkpt>
      <trkpt lat="45.39485" lon="2.56998">
        <ele>570</ele>
        <time>2014-05-29T12:08:47Z</time>
      </trkpt>
      <trkpt lat="45.39486" lon="2.56987">
        <ele>569.9</ele>
        <time>2014-05-29T12:08:49Z</time>
      </trkpt>
      <trkpt lat="45.39487" lon="2.56982">
        <ele>570.2</ele>
        <time>2014-05-29T12:08:50Z</time>
      </trkpt>
      <trkpt lat="45.39488" lon="2.56965">
        <ele>570.3</ele>
        <time>2014-05-29T12:08:54Z</time>
      </trkpt>
      <trkpt lat="45.39487" lon="2.56955">
        <ele>570.6</ele>
        <time>2014-05-29T12:08:56Z</time>
      </trkpt>
      <trkpt lat="45.39486" lon="2.56948">
        <ele>570.6</ele>
        <time>2014-05-29T12:08:57Z</time>
      </trkpt>
      <trkpt lat="45.39486" lon="2.56941">
        <ele>570.5</ele>
        <time>2014-05-29T12:08:58Z</time>
      </trkpt>
      <trkpt lat="45.39484" lon="2.56929">
        <ele>569.3</ele>
        <time>2014-05-29T12:09:00Z</time>
      </trkpt>
      <trkpt lat="45.39484" lon="2.56919">
        <ele>568.5</ele>
        <time>2014-05-29T12:09:02Z</time>
      </trkpt>
      <trkpt lat="45.39482" lon="2.5691">
        <ele>568.1</ele>
        <time>2014-05-29T12:09:04Z</time>
      </trkpt>
      <trkpt lat="45.39481" lon="2.569">
        <ele>568.2</ele>
        <time>2014-05-29T12:09:06Z</time>
      </trkpt>
      <trkpt lat="45.39479" lon="2.5689">
        <ele>568.2</ele>
        <time>2014-05-29T12:09:08Z</time>
      </trkpt>
      <trkpt lat="45.39477" lon="2.5688">
        <ele>568</ele>
        <time>2014-05-29T12:09:10Z</time>
      </trkpt>
      <trkpt lat="45.39474" lon="2.56869">
        <ele>568.9</ele>
        <time>2014-05-29T12:09:13Z</time>
      </trkpt>
      <trkpt lat="45.39471" lon="2.5686">
        <ele>569.4</ele>
        <time>2014-05-29T12:09:15Z</time>
      </trkpt>
      <trkpt lat="45.39469" lon="2.5685">
        <ele>570.3</ele>
        <time>2014-05-29T12:09:18Z</time>
      </trkpt>
      <trkpt lat="45.39467" lon="2.56841">
        <ele>571.2</ele>
        <time>2014-05-29T12:09:21Z</time>
      </trkpt>
      <trkpt lat="45.39465" lon="2.56829">
        <ele>571.8</ele>
        <time>2014-05-29T12:09:25Z</time>
      </trkpt>
      <trkpt lat="45.39463" lon="2.56817">
        <ele>572.5</ele>
        <time>2014-05-29T12:09:29Z</time>
      </trkpt>
      <trkpt lat="45.39461" lon="2.56806">
        <ele>574.5</ele>
        <time>2014-05-29T12:09:33Z</time>
      </trkpt>
      <trkpt lat="45.39459" lon="2.56796">
        <ele>574</ele>
        <time>2014-05-29T12:09:36Z</time>
      </trkpt>
      <trkpt lat="45.39457" lon="2.56787">
        <ele>574.7</ele>
        <time>2014-05-29T12:09:39Z</time>
      </trkpt>
      <trkpt lat="45.39455" lon="2.56776">
        <ele>575.4</ele>
        <time>2014-05-29T12:09:42Z</time>
      </trkpt>
      <trkpt lat="45.39452" lon="2.56765">
        <ele>575.2</ele>
        <time>2014-05-29T12:09:45Z</time>
      </trkpt>
      <trkpt lat="45.39449" lon="2.56756">
        <ele>575.8</ele>
        <time>2014-05-29T12:09:48Z</time>
      </trkpt>
      <trkpt lat="45.39446" lon="2.56746">
        <ele>576.5</ele>
        <time>2014-05-29T12:09:51Z</time>
      </trkpt>
      <trkpt lat="45.39445" lon="2.56743">
        <ele>576.6</ele>
        <time>2014-05-29T12:09:52Z</time>
      </trkpt>
      <trkpt lat="45.39438" lon="2.56732">
        <ele>576.5</ele>
        <time>2014-05-29T12:09:56Z</time>
      </trkpt>
      <trkpt lat="45.3943" lon="2.56728">
        <ele>576.4</ele>
        <time>2014-05-29T12:09:58Z</time>
      </trkpt>
      <trkpt lat="45.39424" lon="2.56725">
        <ele>576.1</ele>
        <time>2014-05-29T12:10:00Z</time>
      </trkpt>
      <trkpt lat="45.39419" lon="2.56724">
        <ele>575.8</ele>
        <time>2014-05-29T12:10:01Z</time>
      </trkpt>
      <trkpt lat="45.39415" lon="2.56722">
        <ele>575.6</ele>
        <time>2014-05-29T12:10:02Z</time>
      </trkpt>
      <trkpt lat="45.3941" lon="2.56719">
        <ele>575.3</ele>
        <time>2014-05-29T12:10:03Z</time>
      </trkpt>
      <trkpt lat="45.39406" lon="2.56716">
        <ele>575.2</ele>
        <time>2014-05-29T12:10:04Z</time>
      </trkpt>
      <trkpt lat="45.39402" lon="2.56712">
        <ele>574.8</ele>
        <time>2014-05-29T12:10:05Z</time>
      </trkpt>
      <trkpt lat="45.39398" lon="2.56707">
        <ele>574.5</ele>
        <time>2014-05-29T12:10:06Z</time>
      </trkpt>
      <trkpt lat="45.39395" lon="2.56701">
        <ele>574.3</ele>
        <time>2014-05-29T12:10:07Z</time>
      </trkpt>
      <trkpt lat="45.39394" lon="2.56692">
        <ele>573.5</ele>
        <time>2014-05-29T12:10:08Z</time>
      </trkpt>
      <trkpt lat="45.39394" lon="2.56684">
        <ele>572.9</ele>
        <time>2014-05-29T12:10:09Z</time>
      </trkpt>
      <trkpt lat="45.39395" lon="2.56674">
        <ele>572.6</ele>
        <time>2014-05-29T12:10:10Z</time>
      </trkpt>
      <trkpt lat="45.39396" lon="2.56665">
        <ele>572.3</ele>
        <time>2014-05-29T12:10:11Z</time>
      </trkpt>
      <trkpt lat="45.39397" lon="2.56653">
        <ele>572</ele>
        <time>2014-05-29T12:10:12Z</time>
      </trkpt>
      <trkpt lat="45.39399" lon="2.56641">
        <ele>571.7</ele>
        <time>2014-05-29T12:10:13Z</time>
      </trkpt>
      <trkpt lat="45.39402" lon="2.56629">
        <ele>571.5</ele>
        <time>2014-05-29T12:10:14Z</time>
      </trkpt>
      <trkpt lat="45.39403" lon="2.56618">
        <ele>570.7</ele>
        <time>2014-05-29T12:10:15Z</time>
      </trkpt>
      <trkpt lat="45.39401" lon="2.56606">
        <ele>570.1</ele>
        <time>2014-05-29T12:10:16Z</time>
      </trkpt>
      <trkpt lat="45.39398" lon="2.56595">
        <ele>569.2</ele>
        <time>2014-05-29T12:10:17Z</time>
      </trkpt>
      <trkpt lat="45.39394" lon="2.56586">
        <ele>568.6</ele>
        <time>2014-05-29T12:10:18Z</time>
      </trkpt>
      <trkpt lat="45.3939" lon="2.56579">
        <ele>568.3</ele>
        <time>2014-05-29T12:10:19Z</time>
      </trkpt>
      <trkpt lat="45.39387" lon="2.56574">
        <ele>568</ele>
        <time>2014-05-29T12:10:20Z</time>
      </trkpt>
      <trkpt lat="45.39381" lon="2.56566">
        <ele>566.9</ele>
        <time>2014-05-29T12:10:22Z</time>
      </trkpt>
      <trkpt lat="45.39377" lon="2.56559">
        <ele>564.4</ele>
        <time>2014-05-29T12:10:26Z</time>
      </trkpt>
      <trkpt lat="45.39374" lon="2.5655">
        <ele>564</ele>
        <time>2014-05-29T12:10:28Z</time>
      </trkpt>
      <trkpt lat="45.39369" lon="2.56541">
        <ele>563.6</ele>
        <time>2014-05-29T12:10:30Z</time>
      </trkpt>
      <trkpt lat="45.39363" lon="2.56532">
        <ele>562.7</ele>
        <time>2014-05-29T12:10:32Z</time>
      </trkpt>
      <trkpt lat="45.39357" lon="2.56524">
        <ele>562.3</ele>
        <time>2014-05-29T12:10:34Z</time>
      </trkpt>
      <trkpt lat="45.39351" lon="2.56517">
        <ele>562.3</ele>
        <time>2014-05-29T12:10:36Z</time>
      </trkpt>
      <trkpt lat="45.39346" lon="2.56508">
        <ele>562</ele>
        <time>2014-05-29T12:10:38Z</time>
      </trkpt>
      <trkpt lat="45.39341" lon="2.565">
        <ele>561.5</ele>
        <time>2014-05-29T12:10:40Z</time>
      </trkpt>
      <trkpt lat="45.39336" lon="2.56491">
        <ele>560.7</ele>
        <time>2014-05-29T12:10:42Z</time>
      </trkpt>
      <trkpt lat="45.39334" lon="2.56485">
        <ele>560.6</ele>
        <time>2014-05-29T12:10:43Z</time>
      </trkpt>
      <trkpt lat="45.39332" lon="2.56479">
        <ele>560.6</ele>
        <time>2014-05-29T12:10:44Z</time>
      </trkpt>
      <trkpt lat="45.39329" lon="2.56474">
        <ele>560.4</ele>
        <time>2014-05-29T12:10:45Z</time>
      </trkpt>
      <trkpt lat="45.39326" lon="2.56468">
        <ele>560.2</ele>
        <time>2014-05-29T12:10:46Z</time>
      </trkpt>
      <trkpt lat="45.39321" lon="2.56458">
        <ele>559.9</ele>
        <time>2014-05-29T12:10:48Z</time>
      </trkpt>
      <trkpt lat="45.39323" lon="2.56446">
        <ele>560.3</ele>
        <time>2014-05-29T12:10:53Z</time>
      </trkpt>
      <trkpt lat="45.39325" lon="2.56446">
        <ele>560.4</ele>
        <time>2014-05-29T12:10:54Z</time>
      </trkpt>
      <trkpt lat="45.39334" lon="2.56435">
        <ele>560.6</ele>
        <time>2014-05-29T12:11:00Z</time>
      </trkpt>
      <trkpt lat="45.39337" lon="2.56426">
        <ele>560</ele>
        <time>2014-05-29T12:11:03Z</time>
      </trkpt>
      <trkpt lat="45.39341" lon="2.56415">
        <ele>559.2</ele>
        <time>2014-05-29T12:11:06Z</time>
      </trkpt>
      <trkpt lat="45.39341" lon="2.56406">
        <ele>558.7</ele>
        <time>2014-05-29T12:11:08Z</time>
      </trkpt>
      <trkpt lat="45.3934" lon="2.56394">
        <ele>559.1</ele>
        <time>2014-05-29T12:11:10Z</time>
      </trkpt>
      <trkpt lat="45.3934" lon="2.56387">
        <ele>559.2</ele>
        <time>2014-05-29T12:11:11Z</time>
      </trkpt>
      <trkpt lat="45.3934" lon="2.56379">
        <ele>559</ele>
        <time>2014-05-29T12:11:12Z</time>
      </trkpt>
      <trkpt lat="45.3934" lon="2.56369">
        <ele>558.8</ele>
        <time>2014-05-29T12:11:13Z</time>
      </trkpt>
      <trkpt lat="45.3934" lon="2.56357">
        <ele>557.7</ele>
        <time>2014-05-29T12:11:14Z</time>
      </trkpt>
      <trkpt lat="45.39341" lon="2.56343">
        <ele>556.9</ele>
        <time>2014-05-29T12:11:15Z</time>
      </trkpt>
      <trkpt lat="45.39341" lon="2.56329">
        <ele>555.9</ele>
        <time>2014-05-29T12:11:16Z</time>
      </trkpt>
      <trkpt lat="45.39341" lon="2.56317">
        <ele>555.2</ele>
        <time>2014-05-29T12:11:17Z</time>
      </trkpt>
      <trkpt lat="45.39341" lon="2.56304">
        <ele>554.7</ele>
        <time>2014-05-29T12:11:18Z</time>
      </trkpt>
      <trkpt lat="45.3934" lon="2.56291">
        <ele>553.6</ele>
        <time>2014-05-29T12:11:19Z</time>
      </trkpt>
      <trkpt lat="45.39339" lon="2.56279">
        <ele>552.8</ele>
        <time>2014-05-29T12:11:20Z</time>
      </trkpt>
      <trkpt lat="45.39337" lon="2.56268">
        <ele>552</ele>
        <time>2014-05-29T12:11:21Z</time>
      </trkpt>
      <trkpt lat="45.39337" lon="2.56256">
        <ele>551.4</ele>
        <time>2014-05-29T12:11:22Z</time>
      </trkpt>
      <trkpt lat="45.39336" lon="2.56248">
        <ele>549.9</ele>
        <time>2014-05-29T12:11:23Z</time>
      </trkpt>
      <trkpt lat="45.39334" lon="2.56235">
        <ele>548</ele>
        <time>2014-05-29T12:11:25Z</time>
      </trkpt>
      <trkpt lat="45.39341" lon="2.56232">
        <ele>544.6</ele>
        <time>2014-05-29T12:11:29Z</time>
      </trkpt>
      <trkpt lat="45.39348" lon="2.56231">
        <ele>543.4</ele>
        <time>2014-05-29T12:11:31Z</time>
      </trkpt>
      <trkpt lat="45.39354" lon="2.56226">
        <ele>540.7</ele>
        <time>2014-05-29T12:11:34Z</time>
      </trkpt>
      <trkpt lat="45.39362" lon="2.56228">
        <ele>539.3</ele>
        <time>2014-05-29T12:11:38Z</time>
      </trkpt>
      <trkpt lat="45.3937" lon="2.56231">
        <ele>538.8</ele>
        <time>2014-05-29T12:11:42Z</time>
      </trkpt>
      <trkpt lat="45.39378" lon="2.56234">
        <ele>538.4</ele>
        <time>2014-05-29T12:11:46Z</time>
      </trkpt>
      <trkpt lat="45.39386" lon="2.56232">
        <ele>538.6</ele>
        <time>2014-05-29T12:11:54Z</time>
      </trkpt>
      <trkpt lat="45.39387" lon="2.56232">
        <ele>538.9</ele>
        <time>2014-05-29T12:11:55Z</time>
      </trkpt>
      <trkpt lat="45.394" lon="2.56224">
        <ele>537.9</ele>
        <time>2014-05-29T12:12:09Z</time>
      </trkpt>
      <trkpt lat="45.39409" lon="2.56225">
        <ele>537.6</ele>
        <time>2014-05-29T12:12:17Z</time>
      </trkpt>
      <trkpt lat="45.39417" lon="2.56218">
        <ele>538.2</ele>
        <time>2014-05-29T12:12:35Z</time>
      </trkpt>
      <trkpt lat="45.39425" lon="2.56221">
        <ele>538</ele>
        <time>2014-05-29T12:12:54Z</time>
      </trkpt>
      <trkpt lat="45.39433" lon="2.56216">
        <ele>537.1</ele>
        <time>2014-05-29T12:13:06Z</time>
      </trkpt>
      <trkpt lat="45.39434" lon="2.56215">
        <ele>537.2</ele>
        <time>2014-05-29T12:13:07Z</time>
      </trkpt>
      <trkpt lat="45.39443" lon="2.56197">
        <ele>538</ele>
        <time>2014-05-29T12:13:23Z</time>
      </trkpt>
      <trkpt lat="45.39436" lon="2.56203">
        <ele>537.9</ele>
        <time>2014-05-29T12:13:55Z</time>
      </trkpt>
      <trkpt lat="45.39442" lon="2.56197">
        <ele>538.2</ele>
        <time>2014-05-29T12:14:18Z</time>
      </trkpt>
      <trkpt lat="45.39443" lon="2.56195">
        <ele>538.3</ele>
        <time>2014-05-29T12:14:19Z</time>
      </trkpt>
      <trkpt lat="45.39452" lon="2.56178">
        <ele>538.7</ele>
        <time>2014-05-29T12:14:31Z</time>
      </trkpt>
      <trkpt lat="45.3946" lon="2.56172">
        <ele>538</ele>
        <time>2014-05-29T12:14:54Z</time>
      </trkpt>
      <trkpt lat="45.39465" lon="2.56162">
        <ele>537.8</ele>
        <time>2014-05-29T12:15:12Z</time>
      </trkpt>
      <trkpt lat="45.39468" lon="2.56173">
        <ele>537.9</ele>
        <time>2014-05-29T12:15:50Z</time>
      </trkpt>
      <trkpt lat="45.39468" lon="2.56174">
        <ele>538.1</ele>
        <time>2014-05-29T12:15:51Z</time>
      </trkpt>
      <trkpt lat="45.3947" lon="2.56185">
        <ele>538.3</ele>
        <time>2014-05-29T12:17:46Z</time>
      </trkpt>
      <trkpt lat="45.3947" lon="2.56185">
        <ele>538.3</ele>
        <time>2014-05-29T12:17:46Z</time>
      </trkpt>
    </trkseg>
  </trk>
</gpx>